<?xml version="1.0" encoding="UTF-8" standalone="no" ?>
<gpx xmlns="http://www.topografix.com/GPX/1/1" xmlns:xsi="http://www.w3.org/2001/XMLSchema-instance" xsi:schemaLocation="http://www.topografix.com/GPX/1/1 http://www.topografix.com/GPX/1/1/gpx.xsd" version="1.1" creator="VisuGPX - https://www.visugpx.com">
  <metadata>
    <name>Bois de Cessieu depuis Mozas</name>
  </metadata>
  <trk>
    <name><![CDATA[Bois de Cessieu depuis Mozas_1]]></name>
    <trkseg>
      <trkpt lat="45.61496" lon="5.27472">
        <ele>232</ele>
        <time>2021-04-04T07:57:53.025Z</time>
      </trkpt>
      <trkpt lat="45.61496" lon="5.27472">
        <ele>232</ele>
        <time>2021-04-04T07:57:54.028Z</time>
      </trkpt>
      <trkpt lat="45.61495" lon="5.27472">
        <ele>232</ele>
        <time>2021-04-04T07:57:55.028Z</time>
      </trkpt>
      <trkpt lat="45.61495" lon="5.27471">
        <ele>232</ele>
        <time>2021-04-04T07:57:56.028Z</time>
      </trkpt>
      <trkpt lat="45.61495" lon="5.27471">
        <ele>232</ele>
        <time>2021-04-04T07:57:57.028Z</time>
      </trkpt>
      <trkpt lat="45.61495" lon="5.27471">
        <ele>231</ele>
        <time>2021-04-04T07:57:58.028Z</time>
      </trkpt>
      <trkpt lat="45.61495" lon="5.27471">
        <ele>231</ele>
        <time>2021-04-04T07:57:59.027Z</time>
      </trkpt>
      <trkpt lat="45.61495" lon="5.27471">
        <ele>231</ele>
        <time>2021-04-04T07:58:00.027Z</time>
      </trkpt>
      <trkpt lat="45.61495" lon="5.27471">
        <ele>231</ele>
        <time>2021-04-04T07:58:01.028Z</time>
      </trkpt>
      <trkpt lat="45.61495" lon="5.27471">
        <ele>231</ele>
        <time>2021-04-04T07:58:02.027Z</time>
      </trkpt>
      <trkpt lat="45.61495" lon="5.27471">
        <ele>231</ele>
        <time>2021-04-04T07:58:03.028Z</time>
      </trkpt>
      <trkpt lat="45.61495" lon="5.27471">
        <ele>231</ele>
        <time>2021-04-04T07:58:04.027Z</time>
      </trkpt>
      <trkpt lat="45.61495" lon="5.27472">
        <ele>231</ele>
        <time>2021-04-04T07:58:05.028Z</time>
      </trkpt>
      <trkpt lat="45.61495" lon="5.27472">
        <ele>231</ele>
        <time>2021-04-04T07:58:06.028Z</time>
      </trkpt>
      <trkpt lat="45.61495" lon="5.27472">
        <ele>231</ele>
        <time>2021-04-04T07:58:07.027Z</time>
      </trkpt>
      <trkpt lat="45.61495" lon="5.27472">
        <ele>231</ele>
        <time>2021-04-04T07:58:08.028Z</time>
      </trkpt>
      <trkpt lat="45.61495" lon="5.27472">
        <ele>230</ele>
        <time>2021-04-04T07:58:09.027Z</time>
      </trkpt>
      <trkpt lat="45.61495" lon="5.27472">
        <ele>230</ele>
        <time>2021-04-04T07:58:10.028Z</time>
      </trkpt>
      <trkpt lat="45.61495" lon="5.27472">
        <ele>230</ele>
        <time>2021-04-04T07:58:11.027Z</time>
      </trkpt>
      <trkpt lat="45.61496" lon="5.27471">
        <ele>230</ele>
        <time>2021-04-04T07:58:12.028Z</time>
      </trkpt>
      <trkpt lat="45.61497" lon="5.27469">
        <ele>230</ele>
        <time>2021-04-04T07:58:13.028Z</time>
      </trkpt>
      <trkpt lat="45.61498" lon="5.27468">
        <ele>230</ele>
        <time>2021-04-04T07:58:14.027Z</time>
      </trkpt>
      <trkpt lat="45.615" lon="5.27468">
        <ele>230</ele>
        <time>2021-04-04T07:58:15.028Z</time>
      </trkpt>
      <trkpt lat="45.61501" lon="5.27468">
        <ele>230</ele>
        <time>2021-04-04T07:58:16.028Z</time>
      </trkpt>
      <trkpt lat="45.61503" lon="5.27469">
        <ele>230</ele>
        <time>2021-04-04T07:58:17.028Z</time>
      </trkpt>
      <trkpt lat="45.61505" lon="5.2747">
        <ele>230</ele>
        <time>2021-04-04T07:58:18.027Z</time>
      </trkpt>
      <trkpt lat="45.61507" lon="5.27471">
        <ele>230</ele>
        <time>2021-04-04T07:58:19.028Z</time>
      </trkpt>
      <trkpt lat="45.6151" lon="5.27473">
        <ele>230</ele>
        <time>2021-04-04T07:58:20.028Z</time>
      </trkpt>
      <trkpt lat="45.61514" lon="5.27475">
        <ele>230</ele>
        <time>2021-04-04T07:58:21.028Z</time>
      </trkpt>
      <trkpt lat="45.61514" lon="5.27475">
        <ele>230</ele>
        <time>2021-04-04T07:58:22.027Z</time>
      </trkpt>
      <trkpt lat="45.61518" lon="5.27477">
        <ele>231</ele>
        <time>2021-04-04T07:58:23.027Z</time>
      </trkpt>
      <trkpt lat="45.61523" lon="5.27479">
        <ele>230</ele>
        <time>2021-04-04T07:58:24.027Z</time>
      </trkpt>
      <trkpt lat="45.61527" lon="5.27481">
        <ele>230</ele>
        <time>2021-04-04T07:58:25.027Z</time>
      </trkpt>
      <trkpt lat="45.61531" lon="5.27484">
        <ele>229</ele>
        <time>2021-04-04T07:58:26.028Z</time>
      </trkpt>
      <trkpt lat="45.61533" lon="5.27486">
        <ele>229</ele>
        <time>2021-04-04T07:58:27.027Z</time>
      </trkpt>
      <trkpt lat="45.61535" lon="5.2749">
        <ele>228</ele>
        <time>2021-04-04T07:58:28.027Z</time>
      </trkpt>
      <trkpt lat="45.61536" lon="5.27494">
        <ele>228</ele>
        <time>2021-04-04T07:58:29.028Z</time>
      </trkpt>
      <trkpt lat="45.61536" lon="5.27498">
        <ele>228</ele>
        <time>2021-04-04T07:58:30.028Z</time>
      </trkpt>
      <trkpt lat="45.61536" lon="5.27503">
        <ele>227</ele>
        <time>2021-04-04T07:58:31.028Z</time>
      </trkpt>
      <trkpt lat="45.61535" lon="5.27509">
        <ele>227</ele>
        <time>2021-04-04T07:58:32.027Z</time>
      </trkpt>
      <trkpt lat="45.61534" lon="5.27515">
        <ele>227</ele>
        <time>2021-04-04T07:58:33.027Z</time>
      </trkpt>
      <trkpt lat="45.61533" lon="5.27521">
        <ele>227</ele>
        <time>2021-04-04T07:58:34.027Z</time>
      </trkpt>
      <trkpt lat="45.61532" lon="5.27527">
        <ele>227</ele>
        <time>2021-04-04T07:58:35.027Z</time>
      </trkpt>
      <trkpt lat="45.6153" lon="5.27534">
        <ele>227</ele>
        <time>2021-04-04T07:58:36.027Z</time>
      </trkpt>
      <trkpt lat="45.61529" lon="5.27541">
        <ele>227</ele>
        <time>2021-04-04T07:58:37.027Z</time>
      </trkpt>
      <trkpt lat="45.61527" lon="5.27547">
        <ele>227</ele>
        <time>2021-04-04T07:58:38.027Z</time>
      </trkpt>
      <trkpt lat="45.61526" lon="5.27553">
        <ele>227</ele>
        <time>2021-04-04T07:58:39.027Z</time>
      </trkpt>
      <trkpt lat="45.61525" lon="5.27558">
        <ele>227</ele>
        <time>2021-04-04T07:58:40.028Z</time>
      </trkpt>
      <trkpt lat="45.61524" lon="5.27562">
        <ele>228</ele>
        <time>2021-04-04T07:58:41.027Z</time>
      </trkpt>
      <trkpt lat="45.61522" lon="5.27566">
        <ele>228</ele>
        <time>2021-04-04T07:58:42.027Z</time>
      </trkpt>
      <trkpt lat="45.6152" lon="5.2757">
        <ele>228</ele>
        <time>2021-04-04T07:58:43.027Z</time>
      </trkpt>
      <trkpt lat="45.61519" lon="5.27574">
        <ele>229</ele>
        <time>2021-04-04T07:58:44.027Z</time>
      </trkpt>
      <trkpt lat="45.61518" lon="5.27579">
        <ele>229</ele>
        <time>2021-04-04T07:58:45.027Z</time>
      </trkpt>
      <trkpt lat="45.61519" lon="5.27583">
        <ele>229</ele>
        <time>2021-04-04T07:58:46.027Z</time>
      </trkpt>
      <trkpt lat="45.61522" lon="5.27585">
        <ele>229</ele>
        <time>2021-04-04T07:58:47.027Z</time>
      </trkpt>
      <trkpt lat="45.61525" lon="5.27587">
        <ele>229</ele>
        <time>2021-04-04T07:58:48.028Z</time>
      </trkpt>
      <trkpt lat="45.61529" lon="5.27588">
        <ele>229</ele>
        <time>2021-04-04T07:58:49.027Z</time>
      </trkpt>
      <trkpt lat="45.61535" lon="5.27589">
        <ele>229</ele>
        <time>2021-04-04T07:58:50.028Z</time>
      </trkpt>
      <trkpt lat="45.6154" lon="5.2759">
        <ele>229</ele>
        <time>2021-04-04T07:58:51.027Z</time>
      </trkpt>
      <trkpt lat="45.61546" lon="5.27592">
        <ele>229</ele>
        <time>2021-04-04T07:58:52.028Z</time>
      </trkpt>
      <trkpt lat="45.61552" lon="5.27595">
        <ele>229</ele>
        <time>2021-04-04T07:58:53.028Z</time>
      </trkpt>
      <trkpt lat="45.61558" lon="5.27597">
        <ele>229</ele>
        <time>2021-04-04T07:58:54.028Z</time>
      </trkpt>
      <trkpt lat="45.61564" lon="5.27601">
        <ele>229</ele>
        <time>2021-04-04T07:58:55.028Z</time>
      </trkpt>
      <trkpt lat="45.61571" lon="5.27604">
        <ele>229</ele>
        <time>2021-04-04T07:58:56.028Z</time>
      </trkpt>
      <trkpt lat="45.61577" lon="5.27607">
        <ele>229</ele>
        <time>2021-04-04T07:58:57.028Z</time>
      </trkpt>
      <trkpt lat="45.61584" lon="5.2761">
        <ele>228</ele>
        <time>2021-04-04T07:58:58.027Z</time>
      </trkpt>
      <trkpt lat="45.6159" lon="5.27613">
        <ele>229</ele>
        <time>2021-04-04T07:58:59.028Z</time>
      </trkpt>
      <trkpt lat="45.61597" lon="5.27615">
        <ele>229</ele>
        <time>2021-04-04T07:59:00.028Z</time>
      </trkpt>
      <trkpt lat="45.61603" lon="5.27617">
        <ele>229</ele>
        <time>2021-04-04T07:59:01.028Z</time>
      </trkpt>
      <trkpt lat="45.6161" lon="5.2762">
        <ele>229</ele>
        <time>2021-04-04T07:59:02.027Z</time>
      </trkpt>
      <trkpt lat="45.61616" lon="5.27623">
        <ele>229</ele>
        <time>2021-04-04T07:59:03.027Z</time>
      </trkpt>
      <trkpt lat="45.61623" lon="5.27626">
        <ele>229</ele>
        <time>2021-04-04T07:59:04.028Z</time>
      </trkpt>
      <trkpt lat="45.6163" lon="5.27629">
        <ele>229</ele>
        <time>2021-04-04T07:59:05.027Z</time>
      </trkpt>
      <trkpt lat="45.61636" lon="5.27632">
        <ele>229</ele>
        <time>2021-04-04T07:59:06.028Z</time>
      </trkpt>
      <trkpt lat="45.61642" lon="5.27635">
        <ele>228</ele>
        <time>2021-04-04T07:59:07.028Z</time>
      </trkpt>
      <trkpt lat="45.61647" lon="5.27637">
        <ele>228</ele>
        <time>2021-04-04T07:59:08.027Z</time>
      </trkpt>
      <trkpt lat="45.61653" lon="5.2764">
        <ele>228</ele>
        <time>2021-04-04T07:59:09.027Z</time>
      </trkpt>
      <trkpt lat="45.61659" lon="5.27643">
        <ele>228</ele>
        <time>2021-04-04T07:59:10.028Z</time>
      </trkpt>
      <trkpt lat="45.61665" lon="5.27646">
        <ele>227</ele>
        <time>2021-04-04T07:59:11.028Z</time>
      </trkpt>
      <trkpt lat="45.61671" lon="5.27649">
        <ele>227</ele>
        <time>2021-04-04T07:59:12.027Z</time>
      </trkpt>
      <trkpt lat="45.61677" lon="5.27653">
        <ele>227</ele>
        <time>2021-04-04T07:59:13.027Z</time>
      </trkpt>
      <trkpt lat="45.61683" lon="5.27656">
        <ele>227</ele>
        <time>2021-04-04T07:59:14.028Z</time>
      </trkpt>
      <trkpt lat="45.61689" lon="5.2766">
        <ele>227</ele>
        <time>2021-04-04T07:59:15.027Z</time>
      </trkpt>
      <trkpt lat="45.61695" lon="5.27663">
        <ele>226</ele>
        <time>2021-04-04T07:59:16.028Z</time>
      </trkpt>
      <trkpt lat="45.61702" lon="5.27667">
        <ele>226</ele>
        <time>2021-04-04T07:59:17.028Z</time>
      </trkpt>
      <trkpt lat="45.61708" lon="5.2767">
        <ele>225</ele>
        <time>2021-04-04T07:59:18.027Z</time>
      </trkpt>
      <trkpt lat="45.61714" lon="5.27673">
        <ele>225</ele>
        <time>2021-04-04T07:59:19.027Z</time>
      </trkpt>
      <trkpt lat="45.61721" lon="5.27676">
        <ele>225</ele>
        <time>2021-04-04T07:59:20.028Z</time>
      </trkpt>
      <trkpt lat="45.61727" lon="5.27679">
        <ele>224</ele>
        <time>2021-04-04T07:59:21.028Z</time>
      </trkpt>
      <trkpt lat="45.61733" lon="5.27682">
        <ele>224</ele>
        <time>2021-04-04T07:59:22.027Z</time>
      </trkpt>
      <trkpt lat="45.61739" lon="5.27685">
        <ele>224</ele>
        <time>2021-04-04T07:59:23.027Z</time>
      </trkpt>
      <trkpt lat="45.61745" lon="5.27687">
        <ele>225</ele>
        <time>2021-04-04T07:59:24.028Z</time>
      </trkpt>
      <trkpt lat="45.61751" lon="5.27691">
        <ele>225</ele>
        <time>2021-04-04T07:59:25.028Z</time>
      </trkpt>
      <trkpt lat="45.61757" lon="5.27694">
        <ele>225</ele>
        <time>2021-04-04T07:59:26.028Z</time>
      </trkpt>
      <trkpt lat="45.61762" lon="5.27696">
        <ele>225</ele>
        <time>2021-04-04T07:59:27.028Z</time>
      </trkpt>
      <trkpt lat="45.61768" lon="5.27698">
        <ele>225</ele>
        <time>2021-04-04T07:59:28.027Z</time>
      </trkpt>
      <trkpt lat="45.61773" lon="5.27697">
        <ele>225</ele>
        <time>2021-04-04T07:59:29.028Z</time>
      </trkpt>
      <trkpt lat="45.61778" lon="5.27693">
        <ele>225</ele>
        <time>2021-04-04T07:59:30.027Z</time>
      </trkpt>
      <trkpt lat="45.61782" lon="5.27687">
        <ele>226</ele>
        <time>2021-04-04T07:59:31.028Z</time>
      </trkpt>
      <trkpt lat="45.61785" lon="5.27681">
        <ele>226</ele>
        <time>2021-04-04T07:59:32.027Z</time>
      </trkpt>
      <trkpt lat="45.61788" lon="5.27673">
        <ele>226</ele>
        <time>2021-04-04T07:59:33.027Z</time>
      </trkpt>
      <trkpt lat="45.61792" lon="5.27663">
        <ele>227</ele>
        <time>2021-04-04T07:59:34.027Z</time>
      </trkpt>
      <trkpt lat="45.61795" lon="5.27654">
        <ele>227</ele>
        <time>2021-04-04T07:59:35.028Z</time>
      </trkpt>
      <trkpt lat="45.61797" lon="5.27645">
        <ele>227</ele>
        <time>2021-04-04T07:59:36.028Z</time>
      </trkpt>
      <trkpt lat="45.61799" lon="5.27637">
        <ele>226</ele>
        <time>2021-04-04T07:59:37.027Z</time>
      </trkpt>
      <trkpt lat="45.61802" lon="5.27627">
        <ele>226</ele>
        <time>2021-04-04T07:59:38.028Z</time>
      </trkpt>
      <trkpt lat="45.61804" lon="5.27618">
        <ele>226</ele>
        <time>2021-04-04T07:59:39.028Z</time>
      </trkpt>
      <trkpt lat="45.61807" lon="5.27608">
        <ele>225</ele>
        <time>2021-04-04T07:59:40.027Z</time>
      </trkpt>
      <trkpt lat="45.6181" lon="5.27598">
        <ele>225</ele>
        <time>2021-04-04T07:59:41.028Z</time>
      </trkpt>
      <trkpt lat="45.61812" lon="5.27587">
        <ele>225</ele>
        <time>2021-04-04T07:59:42.027Z</time>
      </trkpt>
      <trkpt lat="45.61815" lon="5.27577">
        <ele>225</ele>
        <time>2021-04-04T07:59:43.028Z</time>
      </trkpt>
      <trkpt lat="45.61817" lon="5.27567">
        <ele>225</ele>
        <time>2021-04-04T07:59:44.027Z</time>
      </trkpt>
      <trkpt lat="45.6182" lon="5.27557">
        <ele>225</ele>
        <time>2021-04-04T07:59:45.028Z</time>
      </trkpt>
      <trkpt lat="45.61823" lon="5.27548">
        <ele>225</ele>
        <time>2021-04-04T07:59:46.027Z</time>
      </trkpt>
      <trkpt lat="45.61825" lon="5.27538">
        <ele>225</ele>
        <time>2021-04-04T07:59:47.028Z</time>
      </trkpt>
      <trkpt lat="45.61828" lon="5.27529">
        <ele>225</ele>
        <time>2021-04-04T07:59:48.027Z</time>
      </trkpt>
      <trkpt lat="45.61831" lon="5.2752">
        <ele>225</ele>
        <time>2021-04-04T07:59:49.027Z</time>
      </trkpt>
      <trkpt lat="45.61833" lon="5.27511">
        <ele>225</ele>
        <time>2021-04-04T07:59:50.027Z</time>
      </trkpt>
      <trkpt lat="45.61837" lon="5.27503">
        <ele>225</ele>
        <time>2021-04-04T07:59:51.028Z</time>
      </trkpt>
      <trkpt lat="45.61841" lon="5.27497">
        <ele>224</ele>
        <time>2021-04-04T07:59:52.028Z</time>
      </trkpt>
      <trkpt lat="45.61846" lon="5.27492">
        <ele>224</ele>
        <time>2021-04-04T07:59:53.027Z</time>
      </trkpt>
      <trkpt lat="45.61851" lon="5.2749">
        <ele>224</ele>
        <time>2021-04-04T07:59:54.027Z</time>
      </trkpt>
      <trkpt lat="45.61857" lon="5.27491">
        <ele>224</ele>
        <time>2021-04-04T07:59:55.027Z</time>
      </trkpt>
      <trkpt lat="45.61862" lon="5.27493">
        <ele>224</ele>
        <time>2021-04-04T07:59:56.027Z</time>
      </trkpt>
      <trkpt lat="45.61867" lon="5.27497">
        <ele>224</ele>
        <time>2021-04-04T07:59:57.027Z</time>
      </trkpt>
      <trkpt lat="45.61873" lon="5.27501">
        <ele>224</ele>
        <time>2021-04-04T07:59:58.028Z</time>
      </trkpt>
      <trkpt lat="45.61878" lon="5.27505">
        <ele>223</ele>
        <time>2021-04-04T07:59:59.027Z</time>
      </trkpt>
      <trkpt lat="45.61884" lon="5.27511">
        <ele>223</ele>
        <time>2021-04-04T08:00:00.027Z</time>
      </trkpt>
      <trkpt lat="45.61889" lon="5.27516">
        <ele>223</ele>
        <time>2021-04-04T08:00:01.027Z</time>
      </trkpt>
      <trkpt lat="45.61895" lon="5.27521">
        <ele>223</ele>
        <time>2021-04-04T08:00:02.027Z</time>
      </trkpt>
      <trkpt lat="45.619" lon="5.27526">
        <ele>223</ele>
        <time>2021-04-04T08:00:03.027Z</time>
      </trkpt>
      <trkpt lat="45.61905" lon="5.27531">
        <ele>223</ele>
        <time>2021-04-04T08:00:04.027Z</time>
      </trkpt>
      <trkpt lat="45.61909" lon="5.27535">
        <ele>223</ele>
        <time>2021-04-04T08:00:05.028Z</time>
      </trkpt>
      <trkpt lat="45.61915" lon="5.2754">
        <ele>223</ele>
        <time>2021-04-04T08:00:06.027Z</time>
      </trkpt>
      <trkpt lat="45.6192" lon="5.27544">
        <ele>222</ele>
        <time>2021-04-04T08:00:07.027Z</time>
      </trkpt>
      <trkpt lat="45.61925" lon="5.27549">
        <ele>222</ele>
        <time>2021-04-04T08:00:08.028Z</time>
      </trkpt>
      <trkpt lat="45.6193" lon="5.27554">
        <ele>221</ele>
        <time>2021-04-04T08:00:09.027Z</time>
      </trkpt>
      <trkpt lat="45.61935" lon="5.27559">
        <ele>221</ele>
        <time>2021-04-04T08:00:10.027Z</time>
      </trkpt>
      <trkpt lat="45.61941" lon="5.27564">
        <ele>220</ele>
        <time>2021-04-04T08:00:11.027Z</time>
      </trkpt>
      <trkpt lat="45.61945" lon="5.2757">
        <ele>220</ele>
        <time>2021-04-04T08:00:12.027Z</time>
      </trkpt>
      <trkpt lat="45.6195" lon="5.27575">
        <ele>220</ele>
        <time>2021-04-04T08:00:13.027Z</time>
      </trkpt>
      <trkpt lat="45.61955" lon="5.27581">
        <ele>219</ele>
        <time>2021-04-04T08:00:14.028Z</time>
      </trkpt>
      <trkpt lat="45.6196" lon="5.27586">
        <ele>219</ele>
        <time>2021-04-04T08:00:15.027Z</time>
      </trkpt>
      <trkpt lat="45.61964" lon="5.27592">
        <ele>219</ele>
        <time>2021-04-04T08:00:16.027Z</time>
      </trkpt>
      <trkpt lat="45.61968" lon="5.27598">
        <ele>219</ele>
        <time>2021-04-04T08:00:17.027Z</time>
      </trkpt>
      <trkpt lat="45.61972" lon="5.27604">
        <ele>220</ele>
        <time>2021-04-04T08:00:18.027Z</time>
      </trkpt>
      <trkpt lat="45.61975" lon="5.27611">
        <ele>220</ele>
        <time>2021-04-04T08:00:19.028Z</time>
      </trkpt>
      <trkpt lat="45.61978" lon="5.27619">
        <ele>220</ele>
        <time>2021-04-04T08:00:20.027Z</time>
      </trkpt>
      <trkpt lat="45.61981" lon="5.27626">
        <ele>220</ele>
        <time>2021-04-04T08:00:21.027Z</time>
      </trkpt>
      <trkpt lat="45.61985" lon="5.2763">
        <ele>220</ele>
        <time>2021-04-04T08:00:22.028Z</time>
      </trkpt>
      <trkpt lat="45.61989" lon="5.27632">
        <ele>220</ele>
        <time>2021-04-04T08:00:23.027Z</time>
      </trkpt>
      <trkpt lat="45.61993" lon="5.27635">
        <ele>220</ele>
        <time>2021-04-04T08:00:24.027Z</time>
      </trkpt>
      <trkpt lat="45.61996" lon="5.27639">
        <ele>221</ele>
        <time>2021-04-04T08:00:25.027Z</time>
      </trkpt>
      <trkpt lat="45.61999" lon="5.27644">
        <ele>221</ele>
        <time>2021-04-04T08:00:26.027Z</time>
      </trkpt>
      <trkpt lat="45.62002" lon="5.2765">
        <ele>222</ele>
        <time>2021-04-04T08:00:27.027Z</time>
      </trkpt>
      <trkpt lat="45.62004" lon="5.27657">
        <ele>222</ele>
        <time>2021-04-04T08:00:28.028Z</time>
      </trkpt>
      <trkpt lat="45.62007" lon="5.27665">
        <ele>223</ele>
        <time>2021-04-04T08:00:29.027Z</time>
      </trkpt>
      <trkpt lat="45.62009" lon="5.27673">
        <ele>223</ele>
        <time>2021-04-04T08:00:30.027Z</time>
      </trkpt>
      <trkpt lat="45.62012" lon="5.27682">
        <ele>224</ele>
        <time>2021-04-04T08:00:31.027Z</time>
      </trkpt>
      <trkpt lat="45.62014" lon="5.27689">
        <ele>225</ele>
        <time>2021-04-04T08:00:32.027Z</time>
      </trkpt>
      <trkpt lat="45.62017" lon="5.27699">
        <ele>226</ele>
        <time>2021-04-04T08:00:33.027Z</time>
      </trkpt>
      <trkpt lat="45.6202" lon="5.27708">
        <ele>226</ele>
        <time>2021-04-04T08:00:34.028Z</time>
      </trkpt>
      <trkpt lat="45.62022" lon="5.27716">
        <ele>226</ele>
        <time>2021-04-04T08:00:35.027Z</time>
      </trkpt>
      <trkpt lat="45.62025" lon="5.27725">
        <ele>226</ele>
        <time>2021-04-04T08:00:36.028Z</time>
      </trkpt>
      <trkpt lat="45.62027" lon="5.27732">
        <ele>226</ele>
        <time>2021-04-04T08:00:37.027Z</time>
      </trkpt>
      <trkpt lat="45.6203" lon="5.27741">
        <ele>226</ele>
        <time>2021-04-04T08:00:38.027Z</time>
      </trkpt>
      <trkpt lat="45.62033" lon="5.27751">
        <ele>227</ele>
        <time>2021-04-04T08:00:39.027Z</time>
      </trkpt>
      <trkpt lat="45.62036" lon="5.27759">
        <ele>227</ele>
        <time>2021-04-04T08:00:40.027Z</time>
      </trkpt>
      <trkpt lat="45.62039" lon="5.27767">
        <ele>227</ele>
        <time>2021-04-04T08:00:41.027Z</time>
      </trkpt>
      <trkpt lat="45.62042" lon="5.27775">
        <ele>227</ele>
        <time>2021-04-04T08:00:42.027Z</time>
      </trkpt>
      <trkpt lat="45.62045" lon="5.27783">
        <ele>227</ele>
        <time>2021-04-04T08:00:43.027Z</time>
      </trkpt>
      <trkpt lat="45.62048" lon="5.27791">
        <ele>227</ele>
        <time>2021-04-04T08:00:44.027Z</time>
      </trkpt>
      <trkpt lat="45.6205" lon="5.27798">
        <ele>227</ele>
        <time>2021-04-04T08:00:45.028Z</time>
      </trkpt>
      <trkpt lat="45.62053" lon="5.27806">
        <ele>227</ele>
        <time>2021-04-04T08:00:46.027Z</time>
      </trkpt>
      <trkpt lat="45.62056" lon="5.27813">
        <ele>227</ele>
        <time>2021-04-04T08:00:47.027Z</time>
      </trkpt>
      <trkpt lat="45.62058" lon="5.27821">
        <ele>227</ele>
        <time>2021-04-04T08:00:48.027Z</time>
      </trkpt>
      <trkpt lat="45.62061" lon="5.27828">
        <ele>227</ele>
        <time>2021-04-04T08:00:49.027Z</time>
      </trkpt>
      <trkpt lat="45.62064" lon="5.27835">
        <ele>227</ele>
        <time>2021-04-04T08:00:50.027Z</time>
      </trkpt>
      <trkpt lat="45.62067" lon="5.27842">
        <ele>227</ele>
        <time>2021-04-04T08:00:51.027Z</time>
      </trkpt>
      <trkpt lat="45.6207" lon="5.27849">
        <ele>228</ele>
        <time>2021-04-04T08:00:52.027Z</time>
      </trkpt>
      <trkpt lat="45.62073" lon="5.27856">
        <ele>228</ele>
        <time>2021-04-04T08:00:53.028Z</time>
      </trkpt>
      <trkpt lat="45.62076" lon="5.27862">
        <ele>228</ele>
        <time>2021-04-04T08:00:54.028Z</time>
      </trkpt>
      <trkpt lat="45.62079" lon="5.27869">
        <ele>228</ele>
        <time>2021-04-04T08:00:55.028Z</time>
      </trkpt>
      <trkpt lat="45.62082" lon="5.27876">
        <ele>228</ele>
        <time>2021-04-04T08:00:56.027Z</time>
      </trkpt>
      <trkpt lat="45.62086" lon="5.27883">
        <ele>229</ele>
        <time>2021-04-04T08:00:57.027Z</time>
      </trkpt>
      <trkpt lat="45.62089" lon="5.2789">
        <ele>229</ele>
        <time>2021-04-04T08:00:58.027Z</time>
      </trkpt>
      <trkpt lat="45.62092" lon="5.27897">
        <ele>230</ele>
        <time>2021-04-04T08:00:59.027Z</time>
      </trkpt>
      <trkpt lat="45.62095" lon="5.27903">
        <ele>230</ele>
        <time>2021-04-04T08:01:00.027Z</time>
      </trkpt>
      <trkpt lat="45.62099" lon="5.2791">
        <ele>231</ele>
        <time>2021-04-04T08:01:01.028Z</time>
      </trkpt>
      <trkpt lat="45.62102" lon="5.27917">
        <ele>231</ele>
        <time>2021-04-04T08:01:02.028Z</time>
      </trkpt>
      <trkpt lat="45.62106" lon="5.27924">
        <ele>231</ele>
        <time>2021-04-04T08:01:03.028Z</time>
      </trkpt>
      <trkpt lat="45.62109" lon="5.27931">
        <ele>231</ele>
        <time>2021-04-04T08:01:04.027Z</time>
      </trkpt>
      <trkpt lat="45.62113" lon="5.27938">
        <ele>231</ele>
        <time>2021-04-04T08:01:05.027Z</time>
      </trkpt>
      <trkpt lat="45.62117" lon="5.27944">
        <ele>231</ele>
        <time>2021-04-04T08:01:06.027Z</time>
      </trkpt>
      <trkpt lat="45.6212" lon="5.27951">
        <ele>231</ele>
        <time>2021-04-04T08:01:07.027Z</time>
      </trkpt>
      <trkpt lat="45.62124" lon="5.27958">
        <ele>231</ele>
        <time>2021-04-04T08:01:08.027Z</time>
      </trkpt>
      <trkpt lat="45.62128" lon="5.27965">
        <ele>231</ele>
        <time>2021-04-04T08:01:09.027Z</time>
      </trkpt>
      <trkpt lat="45.62133" lon="5.27971">
        <ele>231</ele>
        <time>2021-04-04T08:01:10.027Z</time>
      </trkpt>
      <trkpt lat="45.62137" lon="5.27978">
        <ele>231</ele>
        <time>2021-04-04T08:01:11.027Z</time>
      </trkpt>
      <trkpt lat="45.62141" lon="5.27985">
        <ele>231</ele>
        <time>2021-04-04T08:01:12.027Z</time>
      </trkpt>
      <trkpt lat="45.62145" lon="5.27992">
        <ele>231</ele>
        <time>2021-04-04T08:01:13.027Z</time>
      </trkpt>
      <trkpt lat="45.6215" lon="5.28">
        <ele>231</ele>
        <time>2021-04-04T08:01:14.028Z</time>
      </trkpt>
      <trkpt lat="45.62154" lon="5.28007">
        <ele>231</ele>
        <time>2021-04-04T08:01:15.027Z</time>
      </trkpt>
      <trkpt lat="45.62159" lon="5.28014">
        <ele>231</ele>
        <time>2021-04-04T08:01:16.027Z</time>
      </trkpt>
      <trkpt lat="45.62164" lon="5.28021">
        <ele>231</ele>
        <time>2021-04-04T08:01:17.027Z</time>
      </trkpt>
      <trkpt lat="45.6217" lon="5.28029">
        <ele>231</ele>
        <time>2021-04-04T08:01:18.027Z</time>
      </trkpt>
      <trkpt lat="45.62175" lon="5.28036">
        <ele>231</ele>
        <time>2021-04-04T08:01:19.027Z</time>
      </trkpt>
      <trkpt lat="45.62181" lon="5.28044">
        <ele>231</ele>
        <time>2021-04-04T08:01:20.027Z</time>
      </trkpt>
      <trkpt lat="45.62186" lon="5.28051">
        <ele>231</ele>
        <time>2021-04-04T08:01:21.028Z</time>
      </trkpt>
      <trkpt lat="45.62192" lon="5.28059">
        <ele>231</ele>
        <time>2021-04-04T08:01:22.028Z</time>
      </trkpt>
      <trkpt lat="45.62198" lon="5.28067">
        <ele>231</ele>
        <time>2021-04-04T08:01:23.027Z</time>
      </trkpt>
      <trkpt lat="45.62204" lon="5.28075">
        <ele>230</ele>
        <time>2021-04-04T08:01:24.027Z</time>
      </trkpt>
      <trkpt lat="45.62211" lon="5.28083">
        <ele>230</ele>
        <time>2021-04-04T08:01:25.028Z</time>
      </trkpt>
      <trkpt lat="45.62217" lon="5.28091">
        <ele>230</ele>
        <time>2021-04-04T08:01:26.027Z</time>
      </trkpt>
      <trkpt lat="45.62224" lon="5.28099">
        <ele>230</ele>
        <time>2021-04-04T08:01:27.028Z</time>
      </trkpt>
      <trkpt lat="45.62231" lon="5.28107">
        <ele>230</ele>
        <time>2021-04-04T08:01:28.027Z</time>
      </trkpt>
      <trkpt lat="45.62238" lon="5.28115">
        <ele>230</ele>
        <time>2021-04-04T08:01:29.027Z</time>
      </trkpt>
      <trkpt lat="45.62245" lon="5.28124">
        <ele>230</ele>
        <time>2021-04-04T08:01:30.028Z</time>
      </trkpt>
      <trkpt lat="45.62253" lon="5.28132">
        <ele>230</ele>
        <time>2021-04-04T08:01:31.027Z</time>
      </trkpt>
      <trkpt lat="45.6226" lon="5.28141">
        <ele>231</ele>
        <time>2021-04-04T08:01:32.027Z</time>
      </trkpt>
      <trkpt lat="45.62267" lon="5.2815">
        <ele>231</ele>
        <time>2021-04-04T08:01:33.027Z</time>
      </trkpt>
      <trkpt lat="45.62275" lon="5.28159">
        <ele>230</ele>
        <time>2021-04-04T08:01:34.027Z</time>
      </trkpt>
      <trkpt lat="45.62282" lon="5.28168">
        <ele>229</ele>
        <time>2021-04-04T08:01:35.027Z</time>
      </trkpt>
      <trkpt lat="45.6229" lon="5.28177">
        <ele>229</ele>
        <time>2021-04-04T08:01:36.027Z</time>
      </trkpt>
      <trkpt lat="45.62297" lon="5.28187">
        <ele>229</ele>
        <time>2021-04-04T08:01:37.027Z</time>
      </trkpt>
      <trkpt lat="45.62304" lon="5.28196">
        <ele>229</ele>
        <time>2021-04-04T08:01:38.027Z</time>
      </trkpt>
      <trkpt lat="45.62311" lon="5.28205">
        <ele>229</ele>
        <time>2021-04-04T08:01:39.027Z</time>
      </trkpt>
      <trkpt lat="45.62318" lon="5.28214">
        <ele>229</ele>
        <time>2021-04-04T08:01:40.028Z</time>
      </trkpt>
      <trkpt lat="45.62326" lon="5.28223">
        <ele>229</ele>
        <time>2021-04-04T08:01:41.028Z</time>
      </trkpt>
      <trkpt lat="45.62333" lon="5.28233">
        <ele>229</ele>
        <time>2021-04-04T08:01:42.027Z</time>
      </trkpt>
      <trkpt lat="45.6234" lon="5.28242">
        <ele>228</ele>
        <time>2021-04-04T08:01:43.028Z</time>
      </trkpt>
      <trkpt lat="45.62347" lon="5.28251">
        <ele>228</ele>
        <time>2021-04-04T08:01:44.028Z</time>
      </trkpt>
      <trkpt lat="45.62354" lon="5.2826">
        <ele>228</ele>
        <time>2021-04-04T08:01:45.027Z</time>
      </trkpt>
      <trkpt lat="45.62361" lon="5.28269">
        <ele>228</ele>
        <time>2021-04-04T08:01:46.028Z</time>
      </trkpt>
      <trkpt lat="45.62368" lon="5.28278">
        <ele>227</ele>
        <time>2021-04-04T08:01:47.028Z</time>
      </trkpt>
      <trkpt lat="45.62375" lon="5.28287">
        <ele>227</ele>
        <time>2021-04-04T08:01:48.027Z</time>
      </trkpt>
      <trkpt lat="45.62382" lon="5.28296">
        <ele>226</ele>
        <time>2021-04-04T08:01:49.027Z</time>
      </trkpt>
      <trkpt lat="45.62389" lon="5.28305">
        <ele>226</ele>
        <time>2021-04-04T08:01:50.027Z</time>
      </trkpt>
      <trkpt lat="45.62396" lon="5.28314">
        <ele>225</ele>
        <time>2021-04-04T08:01:51.028Z</time>
      </trkpt>
      <trkpt lat="45.62403" lon="5.28323">
        <ele>226</ele>
        <time>2021-04-04T08:01:52.027Z</time>
      </trkpt>
      <trkpt lat="45.6241" lon="5.28331">
        <ele>226</ele>
        <time>2021-04-04T08:01:53.028Z</time>
      </trkpt>
      <trkpt lat="45.62418" lon="5.28342">
        <ele>226</ele>
        <time>2021-04-04T08:01:54.027Z</time>
      </trkpt>
      <trkpt lat="45.62425" lon="5.2835">
        <ele>226</ele>
        <time>2021-04-04T08:01:55.027Z</time>
      </trkpt>
      <trkpt lat="45.6243" lon="5.28357">
        <ele>226</ele>
        <time>2021-04-04T08:01:56.028Z</time>
      </trkpt>
      <trkpt lat="45.62437" lon="5.28365">
        <ele>226</ele>
        <time>2021-04-04T08:01:57.027Z</time>
      </trkpt>
      <trkpt lat="45.62443" lon="5.28374">
        <ele>226</ele>
        <time>2021-04-04T08:01:58.027Z</time>
      </trkpt>
      <trkpt lat="45.6245" lon="5.28383">
        <ele>226</ele>
        <time>2021-04-04T08:01:59.028Z</time>
      </trkpt>
      <trkpt lat="45.62456" lon="5.28392">
        <ele>226</ele>
        <time>2021-04-04T08:02:00.027Z</time>
      </trkpt>
      <trkpt lat="45.62461" lon="5.28401">
        <ele>225</ele>
        <time>2021-04-04T08:02:01.027Z</time>
      </trkpt>
      <trkpt lat="45.62467" lon="5.28411">
        <ele>225</ele>
        <time>2021-04-04T08:02:02.027Z</time>
      </trkpt>
      <trkpt lat="45.62471" lon="5.28422">
        <ele>225</ele>
        <time>2021-04-04T08:02:03.027Z</time>
      </trkpt>
      <trkpt lat="45.62476" lon="5.28435">
        <ele>225</ele>
        <time>2021-04-04T08:02:04.027Z</time>
      </trkpt>
      <trkpt lat="45.62479" lon="5.28444">
        <ele>225</ele>
        <time>2021-04-04T08:02:05.028Z</time>
      </trkpt>
      <trkpt lat="45.62481" lon="5.28456">
        <ele>225</ele>
        <time>2021-04-04T08:02:06.027Z</time>
      </trkpt>
      <trkpt lat="45.62484" lon="5.28467">
        <ele>225</ele>
        <time>2021-04-04T08:02:07.027Z</time>
      </trkpt>
      <trkpt lat="45.62486" lon="5.28479">
        <ele>224</ele>
        <time>2021-04-04T08:02:08.027Z</time>
      </trkpt>
      <trkpt lat="45.62488" lon="5.28491">
        <ele>224</ele>
        <time>2021-04-04T08:02:09.027Z</time>
      </trkpt>
      <trkpt lat="45.62489" lon="5.28503">
        <ele>224</ele>
        <time>2021-04-04T08:02:10.027Z</time>
      </trkpt>
      <trkpt lat="45.62491" lon="5.28515">
        <ele>224</ele>
        <time>2021-04-04T08:02:11.027Z</time>
      </trkpt>
      <trkpt lat="45.62494" lon="5.28526">
        <ele>224</ele>
        <time>2021-04-04T08:02:12.027Z</time>
      </trkpt>
      <trkpt lat="45.62497" lon="5.28536">
        <ele>224</ele>
        <time>2021-04-04T08:02:13.027Z</time>
      </trkpt>
      <trkpt lat="45.625" lon="5.28546">
        <ele>224</ele>
        <time>2021-04-04T08:02:14.027Z</time>
      </trkpt>
      <trkpt lat="45.62504" lon="5.28555">
        <ele>225</ele>
        <time>2021-04-04T08:02:15.027Z</time>
      </trkpt>
      <trkpt lat="45.62508" lon="5.28563">
        <ele>225</ele>
        <time>2021-04-04T08:02:16.027Z</time>
      </trkpt>
      <trkpt lat="45.62512" lon="5.28571">
        <ele>225</ele>
        <time>2021-04-04T08:02:17.027Z</time>
      </trkpt>
      <trkpt lat="45.62516" lon="5.28578">
        <ele>225</ele>
        <time>2021-04-04T08:02:18.027Z</time>
      </trkpt>
      <trkpt lat="45.6252" lon="5.28586">
        <ele>225</ele>
        <time>2021-04-04T08:02:19.027Z</time>
      </trkpt>
      <trkpt lat="45.62524" lon="5.28594">
        <ele>225</ele>
        <time>2021-04-04T08:02:20.027Z</time>
      </trkpt>
      <trkpt lat="45.62528" lon="5.28602">
        <ele>225</ele>
        <time>2021-04-04T08:02:21.027Z</time>
      </trkpt>
      <trkpt lat="45.62534" lon="5.28612">
        <ele>224</ele>
        <time>2021-04-04T08:02:22.027Z</time>
      </trkpt>
      <trkpt lat="45.62537" lon="5.28618">
        <ele>224</ele>
        <time>2021-04-04T08:02:23.027Z</time>
      </trkpt>
      <trkpt lat="45.62542" lon="5.28627">
        <ele>224</ele>
        <time>2021-04-04T08:02:24.028Z</time>
      </trkpt>
      <trkpt lat="45.62546" lon="5.28635">
        <ele>224</ele>
        <time>2021-04-04T08:02:25.027Z</time>
      </trkpt>
      <trkpt lat="45.62551" lon="5.28643">
        <ele>224</ele>
        <time>2021-04-04T08:02:26.028Z</time>
      </trkpt>
      <trkpt lat="45.62556" lon="5.28652">
        <ele>224</ele>
        <time>2021-04-04T08:02:27.027Z</time>
      </trkpt>
      <trkpt lat="45.6256" lon="5.28661">
        <ele>225</ele>
        <time>2021-04-04T08:02:28.027Z</time>
      </trkpt>
      <trkpt lat="45.62564" lon="5.2867">
        <ele>225</ele>
        <time>2021-04-04T08:02:29.027Z</time>
      </trkpt>
      <trkpt lat="45.62567" lon="5.28679">
        <ele>225</ele>
        <time>2021-04-04T08:02:30.028Z</time>
      </trkpt>
      <trkpt lat="45.62569" lon="5.28689">
        <ele>224</ele>
        <time>2021-04-04T08:02:31.027Z</time>
      </trkpt>
      <trkpt lat="45.6257" lon="5.28699">
        <ele>224</ele>
        <time>2021-04-04T08:02:32.027Z</time>
      </trkpt>
      <trkpt lat="45.6257" lon="5.28711">
        <ele>224</ele>
        <time>2021-04-04T08:02:33.027Z</time>
      </trkpt>
      <trkpt lat="45.6257" lon="5.28719">
        <ele>224</ele>
        <time>2021-04-04T08:02:34.027Z</time>
      </trkpt>
      <trkpt lat="45.62569" lon="5.28728">
        <ele>223</ele>
        <time>2021-04-04T08:02:35.027Z</time>
      </trkpt>
      <trkpt lat="45.62567" lon="5.28738">
        <ele>223</ele>
        <time>2021-04-04T08:02:36.028Z</time>
      </trkpt>
      <trkpt lat="45.62565" lon="5.28747">
        <ele>223</ele>
        <time>2021-04-04T08:02:37.028Z</time>
      </trkpt>
      <trkpt lat="45.62562" lon="5.28756">
        <ele>222</ele>
        <time>2021-04-04T08:02:38.028Z</time>
      </trkpt>
      <trkpt lat="45.62558" lon="5.28766">
        <ele>222</ele>
        <time>2021-04-04T08:02:39.027Z</time>
      </trkpt>
      <trkpt lat="45.62555" lon="5.28775">
        <ele>222</ele>
        <time>2021-04-04T08:02:40.028Z</time>
      </trkpt>
      <trkpt lat="45.62551" lon="5.28785">
        <ele>222</ele>
        <time>2021-04-04T08:02:41.028Z</time>
      </trkpt>
      <trkpt lat="45.62548" lon="5.28796">
        <ele>222</ele>
        <time>2021-04-04T08:02:42.028Z</time>
      </trkpt>
      <trkpt lat="45.62545" lon="5.28806">
        <ele>223</ele>
        <time>2021-04-04T08:02:43.027Z</time>
      </trkpt>
      <trkpt lat="45.62543" lon="5.28817">
        <ele>223</ele>
        <time>2021-04-04T08:02:44.028Z</time>
      </trkpt>
      <trkpt lat="45.6254" lon="5.28828">
        <ele>223</ele>
        <time>2021-04-04T08:02:45.027Z</time>
      </trkpt>
      <trkpt lat="45.62538" lon="5.28839">
        <ele>223</ele>
        <time>2021-04-04T08:02:46.027Z</time>
      </trkpt>
      <trkpt lat="45.62536" lon="5.2885">
        <ele>223</ele>
        <time>2021-04-04T08:02:47.027Z</time>
      </trkpt>
      <trkpt lat="45.62534" lon="5.28862">
        <ele>223</ele>
        <time>2021-04-04T08:02:48.027Z</time>
      </trkpt>
      <trkpt lat="45.62533" lon="5.28874">
        <ele>223</ele>
        <time>2021-04-04T08:02:49.027Z</time>
      </trkpt>
      <trkpt lat="45.62532" lon="5.28887">
        <ele>223</ele>
        <time>2021-04-04T08:02:50.028Z</time>
      </trkpt>
      <trkpt lat="45.62532" lon="5.28899">
        <ele>223</ele>
        <time>2021-04-04T08:02:51.028Z</time>
      </trkpt>
      <trkpt lat="45.62532" lon="5.28911">
        <ele>223</ele>
        <time>2021-04-04T08:02:52.027Z</time>
      </trkpt>
      <trkpt lat="45.62532" lon="5.28923">
        <ele>224</ele>
        <time>2021-04-04T08:02:53.027Z</time>
      </trkpt>
      <trkpt lat="45.62532" lon="5.28936">
        <ele>224</ele>
        <time>2021-04-04T08:02:54.027Z</time>
      </trkpt>
      <trkpt lat="45.62532" lon="5.28948">
        <ele>224</ele>
        <time>2021-04-04T08:02:55.027Z</time>
      </trkpt>
      <trkpt lat="45.62533" lon="5.28961">
        <ele>224</ele>
        <time>2021-04-04T08:02:56.027Z</time>
      </trkpt>
      <trkpt lat="45.62534" lon="5.28973">
        <ele>224</ele>
        <time>2021-04-04T08:02:57.027Z</time>
      </trkpt>
      <trkpt lat="45.62535" lon="5.28985">
        <ele>224</ele>
        <time>2021-04-04T08:02:58.028Z</time>
      </trkpt>
      <trkpt lat="45.62536" lon="5.28997">
        <ele>223</ele>
        <time>2021-04-04T08:02:59.027Z</time>
      </trkpt>
      <trkpt lat="45.62537" lon="5.2901">
        <ele>223</ele>
        <time>2021-04-04T08:03:00.028Z</time>
      </trkpt>
      <trkpt lat="45.62539" lon="5.29022">
        <ele>223</ele>
        <time>2021-04-04T08:03:01.027Z</time>
      </trkpt>
      <trkpt lat="45.62541" lon="5.29034">
        <ele>223</ele>
        <time>2021-04-04T08:03:02.027Z</time>
      </trkpt>
      <trkpt lat="45.62542" lon="5.29047">
        <ele>223</ele>
        <time>2021-04-04T08:03:03.027Z</time>
      </trkpt>
      <trkpt lat="45.62544" lon="5.29059">
        <ele>223</ele>
        <time>2021-04-04T08:03:04.027Z</time>
      </trkpt>
      <trkpt lat="45.62546" lon="5.29071">
        <ele>223</ele>
        <time>2021-04-04T08:03:05.027Z</time>
      </trkpt>
      <trkpt lat="45.62548" lon="5.29083">
        <ele>223</ele>
        <time>2021-04-04T08:03:06.027Z</time>
      </trkpt>
      <trkpt lat="45.6255" lon="5.29095">
        <ele>223</ele>
        <time>2021-04-04T08:03:07.027Z</time>
      </trkpt>
      <trkpt lat="45.62552" lon="5.29107">
        <ele>224</ele>
        <time>2021-04-04T08:03:08.027Z</time>
      </trkpt>
      <trkpt lat="45.62555" lon="5.2912">
        <ele>224</ele>
        <time>2021-04-04T08:03:09.027Z</time>
      </trkpt>
      <trkpt lat="45.62558" lon="5.29132">
        <ele>225</ele>
        <time>2021-04-04T08:03:10.027Z</time>
      </trkpt>
      <trkpt lat="45.6256" lon="5.29144">
        <ele>225</ele>
        <time>2021-04-04T08:03:11.028Z</time>
      </trkpt>
      <trkpt lat="45.62563" lon="5.29153">
        <ele>225</ele>
        <time>2021-04-04T08:03:12.028Z</time>
      </trkpt>
      <trkpt lat="45.62566" lon="5.29165">
        <ele>225</ele>
        <time>2021-04-04T08:03:13.027Z</time>
      </trkpt>
      <trkpt lat="45.62569" lon="5.2918">
        <ele>225</ele>
        <time>2021-04-04T08:03:14.028Z</time>
      </trkpt>
      <trkpt lat="45.62572" lon="5.29191">
        <ele>225</ele>
        <time>2021-04-04T08:03:15.027Z</time>
      </trkpt>
      <trkpt lat="45.62575" lon="5.29203">
        <ele>225</ele>
        <time>2021-04-04T08:03:16.027Z</time>
      </trkpt>
      <trkpt lat="45.62578" lon="5.29213">
        <ele>225</ele>
        <time>2021-04-04T08:03:17.027Z</time>
      </trkpt>
      <trkpt lat="45.62581" lon="5.29224">
        <ele>225</ele>
        <time>2021-04-04T08:03:18.028Z</time>
      </trkpt>
      <trkpt lat="45.62584" lon="5.29238">
        <ele>225</ele>
        <time>2021-04-04T08:03:19.028Z</time>
      </trkpt>
      <trkpt lat="45.62587" lon="5.2925">
        <ele>225</ele>
        <time>2021-04-04T08:03:20.027Z</time>
      </trkpt>
      <trkpt lat="45.6259" lon="5.29262">
        <ele>224</ele>
        <time>2021-04-04T08:03:21.027Z</time>
      </trkpt>
      <trkpt lat="45.62592" lon="5.29271">
        <ele>224</ele>
        <time>2021-04-04T08:03:22.027Z</time>
      </trkpt>
      <trkpt lat="45.62595" lon="5.29282">
        <ele>224</ele>
        <time>2021-04-04T08:03:23.027Z</time>
      </trkpt>
      <trkpt lat="45.62599" lon="5.29296">
        <ele>224</ele>
        <time>2021-04-04T08:03:24.027Z</time>
      </trkpt>
      <trkpt lat="45.62601" lon="5.29307">
        <ele>223</ele>
        <time>2021-04-04T08:03:25.027Z</time>
      </trkpt>
      <trkpt lat="45.62604" lon="5.29318">
        <ele>223</ele>
        <time>2021-04-04T08:03:26.027Z</time>
      </trkpt>
      <trkpt lat="45.62606" lon="5.29329">
        <ele>222</ele>
        <time>2021-04-04T08:03:27.027Z</time>
      </trkpt>
      <trkpt lat="45.62609" lon="5.29341">
        <ele>222</ele>
        <time>2021-04-04T08:03:28.027Z</time>
      </trkpt>
      <trkpt lat="45.62611" lon="5.29352">
        <ele>222</ele>
        <time>2021-04-04T08:03:29.027Z</time>
      </trkpt>
      <trkpt lat="45.62613" lon="5.29363">
        <ele>222</ele>
        <time>2021-04-04T08:03:30.027Z</time>
      </trkpt>
      <trkpt lat="45.62615" lon="5.29375">
        <ele>222</ele>
        <time>2021-04-04T08:03:31.028Z</time>
      </trkpt>
      <trkpt lat="45.62617" lon="5.29386">
        <ele>222</ele>
        <time>2021-04-04T08:03:32.027Z</time>
      </trkpt>
      <trkpt lat="45.62619" lon="5.29398">
        <ele>222</ele>
        <time>2021-04-04T08:03:33.027Z</time>
      </trkpt>
      <trkpt lat="45.62621" lon="5.29409">
        <ele>222</ele>
        <time>2021-04-04T08:03:34.027Z</time>
      </trkpt>
      <trkpt lat="45.62622" lon="5.2942">
        <ele>222</ele>
        <time>2021-04-04T08:03:35.027Z</time>
      </trkpt>
      <trkpt lat="45.62624" lon="5.29432">
        <ele>222</ele>
        <time>2021-04-04T08:03:36.027Z</time>
      </trkpt>
      <trkpt lat="45.62625" lon="5.29443">
        <ele>223</ele>
        <time>2021-04-04T08:03:37.027Z</time>
      </trkpt>
      <trkpt lat="45.62626" lon="5.29453">
        <ele>223</ele>
        <time>2021-04-04T08:03:38.028Z</time>
      </trkpt>
      <trkpt lat="45.62627" lon="5.29466">
        <ele>223</ele>
        <time>2021-04-04T08:03:39.027Z</time>
      </trkpt>
      <trkpt lat="45.62628" lon="5.29478">
        <ele>223</ele>
        <time>2021-04-04T08:03:40.027Z</time>
      </trkpt>
      <trkpt lat="45.62629" lon="5.29489">
        <ele>223</ele>
        <time>2021-04-04T08:03:41.027Z</time>
      </trkpt>
      <trkpt lat="45.6263" lon="5.295">
        <ele>223</ele>
        <time>2021-04-04T08:03:42.028Z</time>
      </trkpt>
      <trkpt lat="45.62631" lon="5.29511">
        <ele>223</ele>
        <time>2021-04-04T08:03:43.028Z</time>
      </trkpt>
      <trkpt lat="45.62632" lon="5.29523">
        <ele>223</ele>
        <time>2021-04-04T08:03:44.027Z</time>
      </trkpt>
      <trkpt lat="45.62633" lon="5.29534">
        <ele>223</ele>
        <time>2021-04-04T08:03:45.027Z</time>
      </trkpt>
      <trkpt lat="45.62634" lon="5.29546">
        <ele>224</ele>
        <time>2021-04-04T08:03:46.027Z</time>
      </trkpt>
      <trkpt lat="45.62635" lon="5.29557">
        <ele>224</ele>
        <time>2021-04-04T08:03:47.028Z</time>
      </trkpt>
      <trkpt lat="45.62635" lon="5.29566">
        <ele>224</ele>
        <time>2021-04-04T08:03:48.027Z</time>
      </trkpt>
      <trkpt lat="45.62636" lon="5.29579">
        <ele>224</ele>
        <time>2021-04-04T08:03:49.028Z</time>
      </trkpt>
      <trkpt lat="45.62637" lon="5.2959">
        <ele>225</ele>
        <time>2021-04-04T08:03:50.027Z</time>
      </trkpt>
      <trkpt lat="45.62638" lon="5.29601">
        <ele>225</ele>
        <time>2021-04-04T08:03:51.028Z</time>
      </trkpt>
      <trkpt lat="45.62639" lon="5.29611">
        <ele>224</ele>
        <time>2021-04-04T08:03:52.027Z</time>
      </trkpt>
      <trkpt lat="45.6264" lon="5.29622">
        <ele>224</ele>
        <time>2021-04-04T08:03:53.027Z</time>
      </trkpt>
      <trkpt lat="45.62641" lon="5.29633">
        <ele>224</ele>
        <time>2021-04-04T08:03:54.028Z</time>
      </trkpt>
      <trkpt lat="45.62642" lon="5.29644">
        <ele>224</ele>
        <time>2021-04-04T08:03:55.027Z</time>
      </trkpt>
      <trkpt lat="45.62642" lon="5.29655">
        <ele>224</ele>
        <time>2021-04-04T08:03:56.027Z</time>
      </trkpt>
      <trkpt lat="45.62643" lon="5.29666">
        <ele>224</ele>
        <time>2021-04-04T08:03:57.027Z</time>
      </trkpt>
      <trkpt lat="45.62644" lon="5.29677">
        <ele>224</ele>
        <time>2021-04-04T08:03:58.027Z</time>
      </trkpt>
      <trkpt lat="45.62645" lon="5.29688">
        <ele>225</ele>
        <time>2021-04-04T08:03:59.028Z</time>
      </trkpt>
      <trkpt lat="45.62646" lon="5.29699">
        <ele>225</ele>
        <time>2021-04-04T08:04:00.028Z</time>
      </trkpt>
      <trkpt lat="45.62647" lon="5.2971">
        <ele>225</ele>
        <time>2021-04-04T08:04:01.027Z</time>
      </trkpt>
      <trkpt lat="45.62648" lon="5.29721">
        <ele>225</ele>
        <time>2021-04-04T08:04:02.027Z</time>
      </trkpt>
      <trkpt lat="45.62649" lon="5.29732">
        <ele>226</ele>
        <time>2021-04-04T08:04:03.027Z</time>
      </trkpt>
      <trkpt lat="45.62649" lon="5.29743">
        <ele>226</ele>
        <time>2021-04-04T08:04:04.027Z</time>
      </trkpt>
      <trkpt lat="45.6265" lon="5.29754">
        <ele>225</ele>
        <time>2021-04-04T08:04:05.027Z</time>
      </trkpt>
      <trkpt lat="45.62651" lon="5.29765">
        <ele>225</ele>
        <time>2021-04-04T08:04:06.027Z</time>
      </trkpt>
      <trkpt lat="45.62652" lon="5.29776">
        <ele>225</ele>
        <time>2021-04-04T08:04:07.027Z</time>
      </trkpt>
      <trkpt lat="45.62653" lon="5.29787">
        <ele>225</ele>
        <time>2021-04-04T08:04:08.027Z</time>
      </trkpt>
      <trkpt lat="45.62653" lon="5.29798">
        <ele>225</ele>
        <time>2021-04-04T08:04:09.027Z</time>
      </trkpt>
      <trkpt lat="45.62654" lon="5.2981">
        <ele>225</ele>
        <time>2021-04-04T08:04:10.027Z</time>
      </trkpt>
      <trkpt lat="45.62655" lon="5.29821">
        <ele>226</ele>
        <time>2021-04-04T08:04:11.027Z</time>
      </trkpt>
      <trkpt lat="45.62656" lon="5.29832">
        <ele>226</ele>
        <time>2021-04-04T08:04:12.027Z</time>
      </trkpt>
      <trkpt lat="45.62657" lon="5.29843">
        <ele>226</ele>
        <time>2021-04-04T08:04:13.027Z</time>
      </trkpt>
      <trkpt lat="45.62658" lon="5.29855">
        <ele>226</ele>
        <time>2021-04-04T08:04:14.027Z</time>
      </trkpt>
      <trkpt lat="45.62659" lon="5.29866">
        <ele>226</ele>
        <time>2021-04-04T08:04:15.027Z</time>
      </trkpt>
      <trkpt lat="45.6266" lon="5.29877">
        <ele>226</ele>
        <time>2021-04-04T08:04:16.027Z</time>
      </trkpt>
      <trkpt lat="45.6266" lon="5.29889">
        <ele>226</ele>
        <time>2021-04-04T08:04:17.028Z</time>
      </trkpt>
      <trkpt lat="45.62661" lon="5.299">
        <ele>226</ele>
        <time>2021-04-04T08:04:18.027Z</time>
      </trkpt>
      <trkpt lat="45.62662" lon="5.29911">
        <ele>226</ele>
        <time>2021-04-04T08:04:19.027Z</time>
      </trkpt>
      <trkpt lat="45.62663" lon="5.29923">
        <ele>227</ele>
        <time>2021-04-04T08:04:20.028Z</time>
      </trkpt>
      <trkpt lat="45.62664" lon="5.29935">
        <ele>228</ele>
        <time>2021-04-04T08:04:21.027Z</time>
      </trkpt>
      <trkpt lat="45.62665" lon="5.29946">
        <ele>228</ele>
        <time>2021-04-04T08:04:22.028Z</time>
      </trkpt>
      <trkpt lat="45.62666" lon="5.29958">
        <ele>228</ele>
        <time>2021-04-04T08:04:23.027Z</time>
      </trkpt>
      <trkpt lat="45.62666" lon="5.29969">
        <ele>229</ele>
        <time>2021-04-04T08:04:24.027Z</time>
      </trkpt>
      <trkpt lat="45.62667" lon="5.29981">
        <ele>229</ele>
        <time>2021-04-04T08:04:25.028Z</time>
      </trkpt>
      <trkpt lat="45.62668" lon="5.29992">
        <ele>229</ele>
        <time>2021-04-04T08:04:26.028Z</time>
      </trkpt>
      <trkpt lat="45.62668" lon="5.30004">
        <ele>229</ele>
        <time>2021-04-04T08:04:27.028Z</time>
      </trkpt>
      <trkpt lat="45.62669" lon="5.30015">
        <ele>229</ele>
        <time>2021-04-04T08:04:28.027Z</time>
      </trkpt>
      <trkpt lat="45.6267" lon="5.30026">
        <ele>229</ele>
        <time>2021-04-04T08:04:29.027Z</time>
      </trkpt>
      <trkpt lat="45.62671" lon="5.30038">
        <ele>228</ele>
        <time>2021-04-04T08:04:30.027Z</time>
      </trkpt>
      <trkpt lat="45.62672" lon="5.30049">
        <ele>228</ele>
        <time>2021-04-04T08:04:31.028Z</time>
      </trkpt>
      <trkpt lat="45.62672" lon="5.30061">
        <ele>227</ele>
        <time>2021-04-04T08:04:32.028Z</time>
      </trkpt>
      <trkpt lat="45.62673" lon="5.30072">
        <ele>227</ele>
        <time>2021-04-04T08:04:33.027Z</time>
      </trkpt>
      <trkpt lat="45.62674" lon="5.30084">
        <ele>227</ele>
        <time>2021-04-04T08:04:34.027Z</time>
      </trkpt>
      <trkpt lat="45.62674" lon="5.30095">
        <ele>227</ele>
        <time>2021-04-04T08:04:35.027Z</time>
      </trkpt>
      <trkpt lat="45.62675" lon="5.30107">
        <ele>226</ele>
        <time>2021-04-04T08:04:36.027Z</time>
      </trkpt>
      <trkpt lat="45.62676" lon="5.30118">
        <ele>226</ele>
        <time>2021-04-04T08:04:37.028Z</time>
      </trkpt>
      <trkpt lat="45.62677" lon="5.30129">
        <ele>226</ele>
        <time>2021-04-04T08:04:38.028Z</time>
      </trkpt>
      <trkpt lat="45.62677" lon="5.30141">
        <ele>226</ele>
        <time>2021-04-04T08:04:39.027Z</time>
      </trkpt>
      <trkpt lat="45.62678" lon="5.30152">
        <ele>226</ele>
        <time>2021-04-04T08:04:40.027Z</time>
      </trkpt>
      <trkpt lat="45.62679" lon="5.30163">
        <ele>227</ele>
        <time>2021-04-04T08:04:41.027Z</time>
      </trkpt>
      <trkpt lat="45.6268" lon="5.30174">
        <ele>227</ele>
        <time>2021-04-04T08:04:42.027Z</time>
      </trkpt>
      <trkpt lat="45.6268" lon="5.30185">
        <ele>227</ele>
        <time>2021-04-04T08:04:43.027Z</time>
      </trkpt>
      <trkpt lat="45.62681" lon="5.30197">
        <ele>227</ele>
        <time>2021-04-04T08:04:44.027Z</time>
      </trkpt>
      <trkpt lat="45.62682" lon="5.30205">
        <ele>227</ele>
        <time>2021-04-04T08:04:45.028Z</time>
      </trkpt>
      <trkpt lat="45.62682" lon="5.30219">
        <ele>227</ele>
        <time>2021-04-04T08:04:46.028Z</time>
      </trkpt>
      <trkpt lat="45.62683" lon="5.3023">
        <ele>227</ele>
        <time>2021-04-04T08:04:47.027Z</time>
      </trkpt>
      <trkpt lat="45.62684" lon="5.30241">
        <ele>227</ele>
        <time>2021-04-04T08:04:48.027Z</time>
      </trkpt>
      <trkpt lat="45.62685" lon="5.30252">
        <ele>227</ele>
        <time>2021-04-04T08:04:49.028Z</time>
      </trkpt>
      <trkpt lat="45.62685" lon="5.30264">
        <ele>227</ele>
        <time>2021-04-04T08:04:50.028Z</time>
      </trkpt>
      <trkpt lat="45.62686" lon="5.30275">
        <ele>227</ele>
        <time>2021-04-04T08:04:51.028Z</time>
      </trkpt>
      <trkpt lat="45.62687" lon="5.30286">
        <ele>227</ele>
        <time>2021-04-04T08:04:52.028Z</time>
      </trkpt>
      <trkpt lat="45.62688" lon="5.30297">
        <ele>227</ele>
        <time>2021-04-04T08:04:53.028Z</time>
      </trkpt>
      <trkpt lat="45.62688" lon="5.30308">
        <ele>227</ele>
        <time>2021-04-04T08:04:54.028Z</time>
      </trkpt>
      <trkpt lat="45.62689" lon="5.3032">
        <ele>227</ele>
        <time>2021-04-04T08:04:55.027Z</time>
      </trkpt>
      <trkpt lat="45.6269" lon="5.30331">
        <ele>227</ele>
        <time>2021-04-04T08:04:56.027Z</time>
      </trkpt>
      <trkpt lat="45.62691" lon="5.30342">
        <ele>227</ele>
        <time>2021-04-04T08:04:57.027Z</time>
      </trkpt>
      <trkpt lat="45.62692" lon="5.30353">
        <ele>227</ele>
        <time>2021-04-04T08:04:58.027Z</time>
      </trkpt>
      <trkpt lat="45.62693" lon="5.30364">
        <ele>227</ele>
        <time>2021-04-04T08:04:59.027Z</time>
      </trkpt>
      <trkpt lat="45.62693" lon="5.30375">
        <ele>227</ele>
        <time>2021-04-04T08:05:00.027Z</time>
      </trkpt>
      <trkpt lat="45.62694" lon="5.30386">
        <ele>227</ele>
        <time>2021-04-04T08:05:01.028Z</time>
      </trkpt>
      <trkpt lat="45.62694" lon="5.30397">
        <ele>226</ele>
        <time>2021-04-04T08:05:02.027Z</time>
      </trkpt>
      <trkpt lat="45.62695" lon="5.30408">
        <ele>226</ele>
        <time>2021-04-04T08:05:03.027Z</time>
      </trkpt>
      <trkpt lat="45.62695" lon="5.30419">
        <ele>226</ele>
        <time>2021-04-04T08:05:04.027Z</time>
      </trkpt>
      <trkpt lat="45.62696" lon="5.3043">
        <ele>227</ele>
        <time>2021-04-04T08:05:05.027Z</time>
      </trkpt>
      <trkpt lat="45.62695" lon="5.30441">
        <ele>227</ele>
        <time>2021-04-04T08:05:06.027Z</time>
      </trkpt>
      <trkpt lat="45.62695" lon="5.30452">
        <ele>227</ele>
        <time>2021-04-04T08:05:07.028Z</time>
      </trkpt>
      <trkpt lat="45.62694" lon="5.30462">
        <ele>227</ele>
        <time>2021-04-04T08:05:08.027Z</time>
      </trkpt>
      <trkpt lat="45.62693" lon="5.30473">
        <ele>226</ele>
        <time>2021-04-04T08:05:09.028Z</time>
      </trkpt>
      <trkpt lat="45.62692" lon="5.30483">
        <ele>226</ele>
        <time>2021-04-04T08:05:10.028Z</time>
      </trkpt>
      <trkpt lat="45.6269" lon="5.30493">
        <ele>225</ele>
        <time>2021-04-04T08:05:11.027Z</time>
      </trkpt>
      <trkpt lat="45.62688" lon="5.30503">
        <ele>225</ele>
        <time>2021-04-04T08:05:12.027Z</time>
      </trkpt>
      <trkpt lat="45.62686" lon="5.30513">
        <ele>224</ele>
        <time>2021-04-04T08:05:13.027Z</time>
      </trkpt>
      <trkpt lat="45.62685" lon="5.30523">
        <ele>224</ele>
        <time>2021-04-04T08:05:14.027Z</time>
      </trkpt>
      <trkpt lat="45.62684" lon="5.30533">
        <ele>224</ele>
        <time>2021-04-04T08:05:15.028Z</time>
      </trkpt>
      <trkpt lat="45.62683" lon="5.30543">
        <ele>223</ele>
        <time>2021-04-04T08:05:16.027Z</time>
      </trkpt>
      <trkpt lat="45.62681" lon="5.30553">
        <ele>223</ele>
        <time>2021-04-04T08:05:17.027Z</time>
      </trkpt>
      <trkpt lat="45.62679" lon="5.30564">
        <ele>223</ele>
        <time>2021-04-04T08:05:18.027Z</time>
      </trkpt>
      <trkpt lat="45.62678" lon="5.30574">
        <ele>223</ele>
        <time>2021-04-04T08:05:19.028Z</time>
      </trkpt>
      <trkpt lat="45.62676" lon="5.30584">
        <ele>222</ele>
        <time>2021-04-04T08:05:20.027Z</time>
      </trkpt>
      <trkpt lat="45.62674" lon="5.30594">
        <ele>223</ele>
        <time>2021-04-04T08:05:21.028Z</time>
      </trkpt>
      <trkpt lat="45.62673" lon="5.30604">
        <ele>223</ele>
        <time>2021-04-04T08:05:22.027Z</time>
      </trkpt>
      <trkpt lat="45.62671" lon="5.30614">
        <ele>223</ele>
        <time>2021-04-04T08:05:23.027Z</time>
      </trkpt>
      <trkpt lat="45.62669" lon="5.30624">
        <ele>223</ele>
        <time>2021-04-04T08:05:24.027Z</time>
      </trkpt>
      <trkpt lat="45.62667" lon="5.30634">
        <ele>223</ele>
        <time>2021-04-04T08:05:25.028Z</time>
      </trkpt>
      <trkpt lat="45.62665" lon="5.30645">
        <ele>223</ele>
        <time>2021-04-04T08:05:26.027Z</time>
      </trkpt>
      <trkpt lat="45.62664" lon="5.30655">
        <ele>224</ele>
        <time>2021-04-04T08:05:27.027Z</time>
      </trkpt>
      <trkpt lat="45.62662" lon="5.30665">
        <ele>224</ele>
        <time>2021-04-04T08:05:28.027Z</time>
      </trkpt>
      <trkpt lat="45.6266" lon="5.30675">
        <ele>224</ele>
        <time>2021-04-04T08:05:29.028Z</time>
      </trkpt>
      <trkpt lat="45.62658" lon="5.30685">
        <ele>225</ele>
        <time>2021-04-04T08:05:30.028Z</time>
      </trkpt>
      <trkpt lat="45.62657" lon="5.30695">
        <ele>225</ele>
        <time>2021-04-04T08:05:31.027Z</time>
      </trkpt>
      <trkpt lat="45.62655" lon="5.30706">
        <ele>225</ele>
        <time>2021-04-04T08:05:32.028Z</time>
      </trkpt>
      <trkpt lat="45.62653" lon="5.30716">
        <ele>226</ele>
        <time>2021-04-04T08:05:33.027Z</time>
      </trkpt>
      <trkpt lat="45.62651" lon="5.30726">
        <ele>226</ele>
        <time>2021-04-04T08:05:34.027Z</time>
      </trkpt>
      <trkpt lat="45.62649" lon="5.30737">
        <ele>226</ele>
        <time>2021-04-04T08:05:35.027Z</time>
      </trkpt>
      <trkpt lat="45.62648" lon="5.30747">
        <ele>226</ele>
        <time>2021-04-04T08:05:36.027Z</time>
      </trkpt>
      <trkpt lat="45.62646" lon="5.30757">
        <ele>226</ele>
        <time>2021-04-04T08:05:37.027Z</time>
      </trkpt>
      <trkpt lat="45.62644" lon="5.30767">
        <ele>226</ele>
        <time>2021-04-04T08:05:38.027Z</time>
      </trkpt>
      <trkpt lat="45.62642" lon="5.30778">
        <ele>225</ele>
        <time>2021-04-04T08:05:39.027Z</time>
      </trkpt>
      <trkpt lat="45.6264" lon="5.30787">
        <ele>225</ele>
        <time>2021-04-04T08:05:40.028Z</time>
      </trkpt>
      <trkpt lat="45.62639" lon="5.30797">
        <ele>225</ele>
        <time>2021-04-04T08:05:41.027Z</time>
      </trkpt>
      <trkpt lat="45.62637" lon="5.30807">
        <ele>225</ele>
        <time>2021-04-04T08:05:42.027Z</time>
      </trkpt>
      <trkpt lat="45.62635" lon="5.30817">
        <ele>225</ele>
        <time>2021-04-04T08:05:43.027Z</time>
      </trkpt>
      <trkpt lat="45.62634" lon="5.30827">
        <ele>225</ele>
        <time>2021-04-04T08:05:44.027Z</time>
      </trkpt>
      <trkpt lat="45.62632" lon="5.30837">
        <ele>225</ele>
        <time>2021-04-04T08:05:45.027Z</time>
      </trkpt>
      <trkpt lat="45.6263" lon="5.30847">
        <ele>225</ele>
        <time>2021-04-04T08:05:46.027Z</time>
      </trkpt>
      <trkpt lat="45.62629" lon="5.30856">
        <ele>225</ele>
        <time>2021-04-04T08:05:47.027Z</time>
      </trkpt>
      <trkpt lat="45.62627" lon="5.30866">
        <ele>225</ele>
        <time>2021-04-04T08:05:48.027Z</time>
      </trkpt>
      <trkpt lat="45.62625" lon="5.30876">
        <ele>226</ele>
        <time>2021-04-04T08:05:49.027Z</time>
      </trkpt>
      <trkpt lat="45.62623" lon="5.30886">
        <ele>226</ele>
        <time>2021-04-04T08:05:50.027Z</time>
      </trkpt>
      <trkpt lat="45.62621" lon="5.30896">
        <ele>226</ele>
        <time>2021-04-04T08:05:51.027Z</time>
      </trkpt>
      <trkpt lat="45.6262" lon="5.30906">
        <ele>226</ele>
        <time>2021-04-04T08:05:52.027Z</time>
      </trkpt>
      <trkpt lat="45.62618" lon="5.30916">
        <ele>227</ele>
        <time>2021-04-04T08:05:53.027Z</time>
      </trkpt>
      <trkpt lat="45.62617" lon="5.30926">
        <ele>227</ele>
        <time>2021-04-04T08:05:54.027Z</time>
      </trkpt>
      <trkpt lat="45.62615" lon="5.30936">
        <ele>227</ele>
        <time>2021-04-04T08:05:55.028Z</time>
      </trkpt>
      <trkpt lat="45.62614" lon="5.30946">
        <ele>227</ele>
        <time>2021-04-04T08:05:56.028Z</time>
      </trkpt>
      <trkpt lat="45.62612" lon="5.30956">
        <ele>228</ele>
        <time>2021-04-04T08:05:57.027Z</time>
      </trkpt>
      <trkpt lat="45.6261" lon="5.30965">
        <ele>228</ele>
        <time>2021-04-04T08:05:58.027Z</time>
      </trkpt>
      <trkpt lat="45.62609" lon="5.30975">
        <ele>228</ele>
        <time>2021-04-04T08:05:59.027Z</time>
      </trkpt>
      <trkpt lat="45.62607" lon="5.30985">
        <ele>229</ele>
        <time>2021-04-04T08:06:00.027Z</time>
      </trkpt>
      <trkpt lat="45.62606" lon="5.30995">
        <ele>230</ele>
        <time>2021-04-04T08:06:01.027Z</time>
      </trkpt>
      <trkpt lat="45.62604" lon="5.31005">
        <ele>230</ele>
        <time>2021-04-04T08:06:02.027Z</time>
      </trkpt>
      <trkpt lat="45.62602" lon="5.31014">
        <ele>230</ele>
        <time>2021-04-04T08:06:03.027Z</time>
      </trkpt>
      <trkpt lat="45.62599" lon="5.31024">
        <ele>230</ele>
        <time>2021-04-04T08:06:04.028Z</time>
      </trkpt>
      <trkpt lat="45.62597" lon="5.31033">
        <ele>231</ele>
        <time>2021-04-04T08:06:05.027Z</time>
      </trkpt>
      <trkpt lat="45.62594" lon="5.31042">
        <ele>231</ele>
        <time>2021-04-04T08:06:06.027Z</time>
      </trkpt>
      <trkpt lat="45.62591" lon="5.3105">
        <ele>230</ele>
        <time>2021-04-04T08:06:07.027Z</time>
      </trkpt>
      <trkpt lat="45.62588" lon="5.31059">
        <ele>230</ele>
        <time>2021-04-04T08:06:08.027Z</time>
      </trkpt>
      <trkpt lat="45.62585" lon="5.31068">
        <ele>230</ele>
        <time>2021-04-04T08:06:09.028Z</time>
      </trkpt>
      <trkpt lat="45.62582" lon="5.31077">
        <ele>230</ele>
        <time>2021-04-04T08:06:10.027Z</time>
      </trkpt>
      <trkpt lat="45.6258" lon="5.31087">
        <ele>230</ele>
        <time>2021-04-04T08:06:11.027Z</time>
      </trkpt>
      <trkpt lat="45.62578" lon="5.31096">
        <ele>230</ele>
        <time>2021-04-04T08:06:12.028Z</time>
      </trkpt>
      <trkpt lat="45.62576" lon="5.31106">
        <ele>230</ele>
        <time>2021-04-04T08:06:13.028Z</time>
      </trkpt>
      <trkpt lat="45.62575" lon="5.31116">
        <ele>230</ele>
        <time>2021-04-04T08:06:14.027Z</time>
      </trkpt>
      <trkpt lat="45.62574" lon="5.31125">
        <ele>230</ele>
        <time>2021-04-04T08:06:15.028Z</time>
      </trkpt>
      <trkpt lat="45.62574" lon="5.31135">
        <ele>230</ele>
        <time>2021-04-04T08:06:16.028Z</time>
      </trkpt>
      <trkpt lat="45.62574" lon="5.31145">
        <ele>231</ele>
        <time>2021-04-04T08:06:17.028Z</time>
      </trkpt>
      <trkpt lat="45.62573" lon="5.31155">
        <ele>231</ele>
        <time>2021-04-04T08:06:18.027Z</time>
      </trkpt>
      <trkpt lat="45.62573" lon="5.31165">
        <ele>231</ele>
        <time>2021-04-04T08:06:19.027Z</time>
      </trkpt>
      <trkpt lat="45.62573" lon="5.31175">
        <ele>231</ele>
        <time>2021-04-04T08:06:20.027Z</time>
      </trkpt>
      <trkpt lat="45.62572" lon="5.31185">
        <ele>232</ele>
        <time>2021-04-04T08:06:21.027Z</time>
      </trkpt>
      <trkpt lat="45.6257" lon="5.31195">
        <ele>232</ele>
        <time>2021-04-04T08:06:22.027Z</time>
      </trkpt>
      <trkpt lat="45.62568" lon="5.31205">
        <ele>232</ele>
        <time>2021-04-04T08:06:23.027Z</time>
      </trkpt>
      <trkpt lat="45.62567" lon="5.31215">
        <ele>232</ele>
        <time>2021-04-04T08:06:24.027Z</time>
      </trkpt>
      <trkpt lat="45.62565" lon="5.31224">
        <ele>232</ele>
        <time>2021-04-04T08:06:25.027Z</time>
      </trkpt>
      <trkpt lat="45.62563" lon="5.31234">
        <ele>233</ele>
        <time>2021-04-04T08:06:26.027Z</time>
      </trkpt>
      <trkpt lat="45.62561" lon="5.31244">
        <ele>233</ele>
        <time>2021-04-04T08:06:27.027Z</time>
      </trkpt>
      <trkpt lat="45.62559" lon="5.31254">
        <ele>233</ele>
        <time>2021-04-04T08:06:28.027Z</time>
      </trkpt>
      <trkpt lat="45.62557" lon="5.31264">
        <ele>233</ele>
        <time>2021-04-04T08:06:29.027Z</time>
      </trkpt>
      <trkpt lat="45.62556" lon="5.31273">
        <ele>234</ele>
        <time>2021-04-04T08:06:30.027Z</time>
      </trkpt>
      <trkpt lat="45.62554" lon="5.31283">
        <ele>234</ele>
        <time>2021-04-04T08:06:31.027Z</time>
      </trkpt>
      <trkpt lat="45.62552" lon="5.31293">
        <ele>234</ele>
        <time>2021-04-04T08:06:32.028Z</time>
      </trkpt>
      <trkpt lat="45.6255" lon="5.31303">
        <ele>234</ele>
        <time>2021-04-04T08:06:33.027Z</time>
      </trkpt>
      <trkpt lat="45.62548" lon="5.31313">
        <ele>234</ele>
        <time>2021-04-04T08:06:34.027Z</time>
      </trkpt>
      <trkpt lat="45.62546" lon="5.31324">
        <ele>235</ele>
        <time>2021-04-04T08:06:35.028Z</time>
      </trkpt>
      <trkpt lat="45.62544" lon="5.31334">
        <ele>235</ele>
        <time>2021-04-04T08:06:36.028Z</time>
      </trkpt>
      <trkpt lat="45.62542" lon="5.31344">
        <ele>235</ele>
        <time>2021-04-04T08:06:37.027Z</time>
      </trkpt>
      <trkpt lat="45.6254" lon="5.31354">
        <ele>235</ele>
        <time>2021-04-04T08:06:38.028Z</time>
      </trkpt>
      <trkpt lat="45.62538" lon="5.31364">
        <ele>235</ele>
        <time>2021-04-04T08:06:39.028Z</time>
      </trkpt>
      <trkpt lat="45.62536" lon="5.31374">
        <ele>235</ele>
        <time>2021-04-04T08:06:40.028Z</time>
      </trkpt>
      <trkpt lat="45.62535" lon="5.31384">
        <ele>235</ele>
        <time>2021-04-04T08:06:41.027Z</time>
      </trkpt>
      <trkpt lat="45.62533" lon="5.31394">
        <ele>234</ele>
        <time>2021-04-04T08:06:42.027Z</time>
      </trkpt>
      <trkpt lat="45.62531" lon="5.31404">
        <ele>234</ele>
        <time>2021-04-04T08:06:43.027Z</time>
      </trkpt>
      <trkpt lat="45.62529" lon="5.31413">
        <ele>234</ele>
        <time>2021-04-04T08:06:44.028Z</time>
      </trkpt>
      <trkpt lat="45.62527" lon="5.31423">
        <ele>235</ele>
        <time>2021-04-04T08:06:45.028Z</time>
      </trkpt>
      <trkpt lat="45.62525" lon="5.31433">
        <ele>235</ele>
        <time>2021-04-04T08:06:46.028Z</time>
      </trkpt>
      <trkpt lat="45.62523" lon="5.31443">
        <ele>235</ele>
        <time>2021-04-04T08:06:47.027Z</time>
      </trkpt>
      <trkpt lat="45.62521" lon="5.31453">
        <ele>236</ele>
        <time>2021-04-04T08:06:48.027Z</time>
      </trkpt>
      <trkpt lat="45.62519" lon="5.31463">
        <ele>236</ele>
        <time>2021-04-04T08:06:49.028Z</time>
      </trkpt>
      <trkpt lat="45.62517" lon="5.31473">
        <ele>236</ele>
        <time>2021-04-04T08:06:50.028Z</time>
      </trkpt>
      <trkpt lat="45.62515" lon="5.31482">
        <ele>237</ele>
        <time>2021-04-04T08:06:51.028Z</time>
      </trkpt>
      <trkpt lat="45.62514" lon="5.3149">
        <ele>237</ele>
        <time>2021-04-04T08:06:52.027Z</time>
      </trkpt>
      <trkpt lat="45.62511" lon="5.31501">
        <ele>237</ele>
        <time>2021-04-04T08:06:53.027Z</time>
      </trkpt>
      <trkpt lat="45.62509" lon="5.31511">
        <ele>237</ele>
        <time>2021-04-04T08:06:54.028Z</time>
      </trkpt>
      <trkpt lat="45.62507" lon="5.3152">
        <ele>237</ele>
        <time>2021-04-04T08:06:55.027Z</time>
      </trkpt>
      <trkpt lat="45.62506" lon="5.3153">
        <ele>238</ele>
        <time>2021-04-04T08:06:56.028Z</time>
      </trkpt>
      <trkpt lat="45.62504" lon="5.31539">
        <ele>238</ele>
        <time>2021-04-04T08:06:57.028Z</time>
      </trkpt>
      <trkpt lat="45.62502" lon="5.31549">
        <ele>238</ele>
        <time>2021-04-04T08:06:58.027Z</time>
      </trkpt>
      <trkpt lat="45.625" lon="5.31558">
        <ele>238</ele>
        <time>2021-04-04T08:06:59.028Z</time>
      </trkpt>
      <trkpt lat="45.62498" lon="5.31568">
        <ele>239</ele>
        <time>2021-04-04T08:07:00.027Z</time>
      </trkpt>
      <trkpt lat="45.62497" lon="5.31577">
        <ele>239</ele>
        <time>2021-04-04T08:07:01.028Z</time>
      </trkpt>
      <trkpt lat="45.62495" lon="5.31587">
        <ele>239</ele>
        <time>2021-04-04T08:07:02.027Z</time>
      </trkpt>
      <trkpt lat="45.62493" lon="5.31597">
        <ele>239</ele>
        <time>2021-04-04T08:07:03.028Z</time>
      </trkpt>
      <trkpt lat="45.62491" lon="5.31607">
        <ele>239</ele>
        <time>2021-04-04T08:07:04.028Z</time>
      </trkpt>
      <trkpt lat="45.6249" lon="5.31617">
        <ele>238</ele>
        <time>2021-04-04T08:07:05.028Z</time>
      </trkpt>
      <trkpt lat="45.62488" lon="5.31627">
        <ele>238</ele>
        <time>2021-04-04T08:07:06.028Z</time>
      </trkpt>
      <trkpt lat="45.62487" lon="5.31638">
        <ele>238</ele>
        <time>2021-04-04T08:07:07.028Z</time>
      </trkpt>
      <trkpt lat="45.62485" lon="5.31648">
        <ele>237</ele>
        <time>2021-04-04T08:07:08.028Z</time>
      </trkpt>
      <trkpt lat="45.62484" lon="5.31658">
        <ele>237</ele>
        <time>2021-04-04T08:07:09.028Z</time>
      </trkpt>
      <trkpt lat="45.62483" lon="5.31668">
        <ele>237</ele>
        <time>2021-04-04T08:07:10.028Z</time>
      </trkpt>
      <trkpt lat="45.62482" lon="5.31678">
        <ele>237</ele>
        <time>2021-04-04T08:07:11.028Z</time>
      </trkpt>
      <trkpt lat="45.62481" lon="5.31688">
        <ele>237</ele>
        <time>2021-04-04T08:07:12.027Z</time>
      </trkpt>
      <trkpt lat="45.6248" lon="5.31698">
        <ele>238</ele>
        <time>2021-04-04T08:07:13.028Z</time>
      </trkpt>
      <trkpt lat="45.62479" lon="5.31708">
        <ele>238</ele>
        <time>2021-04-04T08:07:14.027Z</time>
      </trkpt>
      <trkpt lat="45.62478" lon="5.31718">
        <ele>238</ele>
        <time>2021-04-04T08:07:15.028Z</time>
      </trkpt>
      <trkpt lat="45.62477" lon="5.31728">
        <ele>238</ele>
        <time>2021-04-04T08:07:16.028Z</time>
      </trkpt>
      <trkpt lat="45.62476" lon="5.31737">
        <ele>238</ele>
        <time>2021-04-04T08:07:17.028Z</time>
      </trkpt>
      <trkpt lat="45.62476" lon="5.31747">
        <ele>239</ele>
        <time>2021-04-04T08:07:18.028Z</time>
      </trkpt>
      <trkpt lat="45.62474" lon="5.31756">
        <ele>239</ele>
        <time>2021-04-04T08:07:19.027Z</time>
      </trkpt>
      <trkpt lat="45.62471" lon="5.31764">
        <ele>239</ele>
        <time>2021-04-04T08:07:20.028Z</time>
      </trkpt>
      <trkpt lat="45.62467" lon="5.3177">
        <ele>239</ele>
        <time>2021-04-04T08:07:21.027Z</time>
      </trkpt>
      <trkpt lat="45.62462" lon="5.31775">
        <ele>239</ele>
        <time>2021-04-04T08:07:22.027Z</time>
      </trkpt>
      <trkpt lat="45.62457" lon="5.31779">
        <ele>239</ele>
        <time>2021-04-04T08:07:23.027Z</time>
      </trkpt>
      <trkpt lat="45.62452" lon="5.31781">
        <ele>240</ele>
        <time>2021-04-04T08:07:24.027Z</time>
      </trkpt>
      <trkpt lat="45.62447" lon="5.31783">
        <ele>240</ele>
        <time>2021-04-04T08:07:25.028Z</time>
      </trkpt>
      <trkpt lat="45.62441" lon="5.31785">
        <ele>240</ele>
        <time>2021-04-04T08:07:26.028Z</time>
      </trkpt>
      <trkpt lat="45.62436" lon="5.31787">
        <ele>240</ele>
        <time>2021-04-04T08:07:27.027Z</time>
      </trkpt>
      <trkpt lat="45.62432" lon="5.31788">
        <ele>241</ele>
        <time>2021-04-04T08:07:28.028Z</time>
      </trkpt>
      <trkpt lat="45.62427" lon="5.31788">
        <ele>242</ele>
        <time>2021-04-04T08:07:29.027Z</time>
      </trkpt>
      <trkpt lat="45.62423" lon="5.31788">
        <ele>242</ele>
        <time>2021-04-04T08:07:30.027Z</time>
      </trkpt>
      <trkpt lat="45.62419" lon="5.31788">
        <ele>242</ele>
        <time>2021-04-04T08:07:31.028Z</time>
      </trkpt>
      <trkpt lat="45.62414" lon="5.31787">
        <ele>243</ele>
        <time>2021-04-04T08:07:32.028Z</time>
      </trkpt>
      <trkpt lat="45.6241" lon="5.31786">
        <ele>243</ele>
        <time>2021-04-04T08:07:33.028Z</time>
      </trkpt>
      <trkpt lat="45.62405" lon="5.31785">
        <ele>243</ele>
        <time>2021-04-04T08:07:34.027Z</time>
      </trkpt>
      <trkpt lat="45.62401" lon="5.31784">
        <ele>243</ele>
        <time>2021-04-04T08:07:35.028Z</time>
      </trkpt>
      <trkpt lat="45.62396" lon="5.31784">
        <ele>243</ele>
        <time>2021-04-04T08:07:36.028Z</time>
      </trkpt>
      <trkpt lat="45.62392" lon="5.31783">
        <ele>243</ele>
        <time>2021-04-04T08:07:37.028Z</time>
      </trkpt>
      <trkpt lat="45.62387" lon="5.31783">
        <ele>243</ele>
        <time>2021-04-04T08:07:38.027Z</time>
      </trkpt>
      <trkpt lat="45.62383" lon="5.31782">
        <ele>242</ele>
        <time>2021-04-04T08:07:39.028Z</time>
      </trkpt>
      <trkpt lat="45.62378" lon="5.31781">
        <ele>242</ele>
        <time>2021-04-04T08:07:40.028Z</time>
      </trkpt>
      <trkpt lat="45.62374" lon="5.3178">
        <ele>242</ele>
        <time>2021-04-04T08:07:41.028Z</time>
      </trkpt>
      <trkpt lat="45.62369" lon="5.3178">
        <ele>242</ele>
        <time>2021-04-04T08:07:42.027Z</time>
      </trkpt>
      <trkpt lat="45.62365" lon="5.31779">
        <ele>242</ele>
        <time>2021-04-04T08:07:43.027Z</time>
      </trkpt>
      <trkpt lat="45.62361" lon="5.31778">
        <ele>243</ele>
        <time>2021-04-04T08:07:44.028Z</time>
      </trkpt>
      <trkpt lat="45.62357" lon="5.31778">
        <ele>243</ele>
        <time>2021-04-04T08:07:45.027Z</time>
      </trkpt>
      <trkpt lat="45.62353" lon="5.31777">
        <ele>243</ele>
        <time>2021-04-04T08:07:46.028Z</time>
      </trkpt>
      <trkpt lat="45.62349" lon="5.31777">
        <ele>243</ele>
        <time>2021-04-04T08:07:47.028Z</time>
      </trkpt>
      <trkpt lat="45.62345" lon="5.31776">
        <ele>243</ele>
        <time>2021-04-04T08:07:48.028Z</time>
      </trkpt>
      <trkpt lat="45.6234" lon="5.31776">
        <ele>243</ele>
        <time>2021-04-04T08:07:49.028Z</time>
      </trkpt>
      <trkpt lat="45.62336" lon="5.31775">
        <ele>243</ele>
        <time>2021-04-04T08:07:50.027Z</time>
      </trkpt>
      <trkpt lat="45.62332" lon="5.31775">
        <ele>243</ele>
        <time>2021-04-04T08:07:51.028Z</time>
      </trkpt>
      <trkpt lat="45.62328" lon="5.31775">
        <ele>244</ele>
        <time>2021-04-04T08:07:52.028Z</time>
      </trkpt>
      <trkpt lat="45.62324" lon="5.31775">
        <ele>244</ele>
        <time>2021-04-04T08:07:53.028Z</time>
      </trkpt>
      <trkpt lat="45.6232" lon="5.31775">
        <ele>244</ele>
        <time>2021-04-04T08:07:54.027Z</time>
      </trkpt>
      <trkpt lat="45.62315" lon="5.31775">
        <ele>245</ele>
        <time>2021-04-04T08:07:55.027Z</time>
      </trkpt>
      <trkpt lat="45.62311" lon="5.31775">
        <ele>245</ele>
        <time>2021-04-04T08:07:56.027Z</time>
      </trkpt>
      <trkpt lat="45.62307" lon="5.31775">
        <ele>246</ele>
        <time>2021-04-04T08:07:57.027Z</time>
      </trkpt>
      <trkpt lat="45.62303" lon="5.31776">
        <ele>247</ele>
        <time>2021-04-04T08:07:58.027Z</time>
      </trkpt>
      <trkpt lat="45.62298" lon="5.31776">
        <ele>248</ele>
        <time>2021-04-04T08:07:59.028Z</time>
      </trkpt>
      <trkpt lat="45.62294" lon="5.31776">
        <ele>249</ele>
        <time>2021-04-04T08:08:00.027Z</time>
      </trkpt>
      <trkpt lat="45.6229" lon="5.31776">
        <ele>250</ele>
        <time>2021-04-04T08:08:01.028Z</time>
      </trkpt>
      <trkpt lat="45.62286" lon="5.31777">
        <ele>250</ele>
        <time>2021-04-04T08:08:02.027Z</time>
      </trkpt>
      <trkpt lat="45.62282" lon="5.31778">
        <ele>250</ele>
        <time>2021-04-04T08:08:03.028Z</time>
      </trkpt>
      <trkpt lat="45.62277" lon="5.31778">
        <ele>250</ele>
        <time>2021-04-04T08:08:04.028Z</time>
      </trkpt>
      <trkpt lat="45.62273" lon="5.31779">
        <ele>250</ele>
        <time>2021-04-04T08:08:05.028Z</time>
      </trkpt>
      <trkpt lat="45.6227" lon="5.31779">
        <ele>250</ele>
        <time>2021-04-04T08:08:06.028Z</time>
      </trkpt>
      <trkpt lat="45.62266" lon="5.31779">
        <ele>250</ele>
        <time>2021-04-04T08:08:07.028Z</time>
      </trkpt>
      <trkpt lat="45.62262" lon="5.3178">
        <ele>250</ele>
        <time>2021-04-04T08:08:08.028Z</time>
      </trkpt>
      <trkpt lat="45.62258" lon="5.3178">
        <ele>251</ele>
        <time>2021-04-04T08:08:09.028Z</time>
      </trkpt>
      <trkpt lat="45.62254" lon="5.31781">
        <ele>251</ele>
        <time>2021-04-04T08:08:10.028Z</time>
      </trkpt>
      <trkpt lat="45.6225" lon="5.31781">
        <ele>251</ele>
        <time>2021-04-04T08:08:11.028Z</time>
      </trkpt>
      <trkpt lat="45.62246" lon="5.31781">
        <ele>251</ele>
        <time>2021-04-04T08:08:12.028Z</time>
      </trkpt>
      <trkpt lat="45.62242" lon="5.31782">
        <ele>251</ele>
        <time>2021-04-04T08:08:13.027Z</time>
      </trkpt>
      <trkpt lat="45.62238" lon="5.31782">
        <ele>251</ele>
        <time>2021-04-04T08:08:14.027Z</time>
      </trkpt>
      <trkpt lat="45.62234" lon="5.31783">
        <ele>252</ele>
        <time>2021-04-04T08:08:15.028Z</time>
      </trkpt>
      <trkpt lat="45.6223" lon="5.31784">
        <ele>252</ele>
        <time>2021-04-04T08:08:16.028Z</time>
      </trkpt>
      <trkpt lat="45.62226" lon="5.31784">
        <ele>252</ele>
        <time>2021-04-04T08:08:17.027Z</time>
      </trkpt>
      <trkpt lat="45.62222" lon="5.31785">
        <ele>253</ele>
        <time>2021-04-04T08:08:18.028Z</time>
      </trkpt>
      <trkpt lat="45.62218" lon="5.31785">
        <ele>254</ele>
        <time>2021-04-04T08:08:19.028Z</time>
      </trkpt>
      <trkpt lat="45.62214" lon="5.31786">
        <ele>254</ele>
        <time>2021-04-04T08:08:20.027Z</time>
      </trkpt>
      <trkpt lat="45.6221" lon="5.31787">
        <ele>254</ele>
        <time>2021-04-04T08:08:21.028Z</time>
      </trkpt>
      <trkpt lat="45.62207" lon="5.31787">
        <ele>255</ele>
        <time>2021-04-04T08:08:22.028Z</time>
      </trkpt>
      <trkpt lat="45.62203" lon="5.31788">
        <ele>255</ele>
        <time>2021-04-04T08:08:23.027Z</time>
      </trkpt>
      <trkpt lat="45.62199" lon="5.31789">
        <ele>256</ele>
        <time>2021-04-04T08:08:24.028Z</time>
      </trkpt>
      <trkpt lat="45.62195" lon="5.3179">
        <ele>256</ele>
        <time>2021-04-04T08:08:25.027Z</time>
      </trkpt>
      <trkpt lat="45.62192" lon="5.3179">
        <ele>257</ele>
        <time>2021-04-04T08:08:26.027Z</time>
      </trkpt>
      <trkpt lat="45.62188" lon="5.31791">
        <ele>257</ele>
        <time>2021-04-04T08:08:27.027Z</time>
      </trkpt>
      <trkpt lat="45.62184" lon="5.31791">
        <ele>257</ele>
        <time>2021-04-04T08:08:28.027Z</time>
      </trkpt>
      <trkpt lat="45.6218" lon="5.31792">
        <ele>258</ele>
        <time>2021-04-04T08:08:29.028Z</time>
      </trkpt>
      <trkpt lat="45.62177" lon="5.31792">
        <ele>258</ele>
        <time>2021-04-04T08:08:30.027Z</time>
      </trkpt>
      <trkpt lat="45.62173" lon="5.31793">
        <ele>258</ele>
        <time>2021-04-04T08:08:31.027Z</time>
      </trkpt>
      <trkpt lat="45.62169" lon="5.31794">
        <ele>258</ele>
        <time>2021-04-04T08:08:32.028Z</time>
      </trkpt>
      <trkpt lat="45.62166" lon="5.31795">
        <ele>258</ele>
        <time>2021-04-04T08:08:33.027Z</time>
      </trkpt>
      <trkpt lat="45.62162" lon="5.31796">
        <ele>259</ele>
        <time>2021-04-04T08:08:34.028Z</time>
      </trkpt>
      <trkpt lat="45.62158" lon="5.31798">
        <ele>259</ele>
        <time>2021-04-04T08:08:35.028Z</time>
      </trkpt>
      <trkpt lat="45.62155" lon="5.31799">
        <ele>259</ele>
        <time>2021-04-04T08:08:36.027Z</time>
      </trkpt>
      <trkpt lat="45.62151" lon="5.31801">
        <ele>259</ele>
        <time>2021-04-04T08:08:37.028Z</time>
      </trkpt>
      <trkpt lat="45.62148" lon="5.31804">
        <ele>259</ele>
        <time>2021-04-04T08:08:38.028Z</time>
      </trkpt>
      <trkpt lat="45.62145" lon="5.31806">
        <ele>259</ele>
        <time>2021-04-04T08:08:39.028Z</time>
      </trkpt>
      <trkpt lat="45.62142" lon="5.31809">
        <ele>259</ele>
        <time>2021-04-04T08:08:40.027Z</time>
      </trkpt>
      <trkpt lat="45.62139" lon="5.31812">
        <ele>260</ele>
        <time>2021-04-04T08:08:41.027Z</time>
      </trkpt>
      <trkpt lat="45.62136" lon="5.31816">
        <ele>260</ele>
        <time>2021-04-04T08:08:42.028Z</time>
      </trkpt>
      <trkpt lat="45.62134" lon="5.3182">
        <ele>261</ele>
        <time>2021-04-04T08:08:43.027Z</time>
      </trkpt>
      <trkpt lat="45.62132" lon="5.31824">
        <ele>261</ele>
        <time>2021-04-04T08:08:44.028Z</time>
      </trkpt>
      <trkpt lat="45.62129" lon="5.31828">
        <ele>262</ele>
        <time>2021-04-04T08:08:45.028Z</time>
      </trkpt>
      <trkpt lat="45.62127" lon="5.31832">
        <ele>262</ele>
        <time>2021-04-04T08:08:46.027Z</time>
      </trkpt>
      <trkpt lat="45.62125" lon="5.31836">
        <ele>262</ele>
        <time>2021-04-04T08:08:47.027Z</time>
      </trkpt>
      <trkpt lat="45.62123" lon="5.3184">
        <ele>262</ele>
        <time>2021-04-04T08:08:48.028Z</time>
      </trkpt>
      <trkpt lat="45.62121" lon="5.31844">
        <ele>262</ele>
        <time>2021-04-04T08:08:49.027Z</time>
      </trkpt>
      <trkpt lat="45.62119" lon="5.31849">
        <ele>263</ele>
        <time>2021-04-04T08:08:50.027Z</time>
      </trkpt>
      <trkpt lat="45.62117" lon="5.31853">
        <ele>264</ele>
        <time>2021-04-04T08:08:51.028Z</time>
      </trkpt>
      <trkpt lat="45.62115" lon="5.31858">
        <ele>264</ele>
        <time>2021-04-04T08:08:52.027Z</time>
      </trkpt>
      <trkpt lat="45.62114" lon="5.31862">
        <ele>265</ele>
        <time>2021-04-04T08:08:53.028Z</time>
      </trkpt>
      <trkpt lat="45.62112" lon="5.31868">
        <ele>265</ele>
        <time>2021-04-04T08:08:54.028Z</time>
      </trkpt>
      <trkpt lat="45.62111" lon="5.31873">
        <ele>266</ele>
        <time>2021-04-04T08:08:55.028Z</time>
      </trkpt>
      <trkpt lat="45.6211" lon="5.31878">
        <ele>266</ele>
        <time>2021-04-04T08:08:56.027Z</time>
      </trkpt>
      <trkpt lat="45.62109" lon="5.31883">
        <ele>267</ele>
        <time>2021-04-04T08:08:57.028Z</time>
      </trkpt>
      <trkpt lat="45.62108" lon="5.31889">
        <ele>267</ele>
        <time>2021-04-04T08:08:58.028Z</time>
      </trkpt>
      <trkpt lat="45.62107" lon="5.31894">
        <ele>267</ele>
        <time>2021-04-04T08:08:59.028Z</time>
      </trkpt>
      <trkpt lat="45.62107" lon="5.319">
        <ele>267</ele>
        <time>2021-04-04T08:09:00.027Z</time>
      </trkpt>
      <trkpt lat="45.62107" lon="5.31905">
        <ele>268</ele>
        <time>2021-04-04T08:09:01.028Z</time>
      </trkpt>
      <trkpt lat="45.62107" lon="5.31911">
        <ele>268</ele>
        <time>2021-04-04T08:09:02.027Z</time>
      </trkpt>
      <trkpt lat="45.62107" lon="5.31916">
        <ele>268</ele>
        <time>2021-04-04T08:09:03.028Z</time>
      </trkpt>
      <trkpt lat="45.62108" lon="5.31921">
        <ele>267</ele>
        <time>2021-04-04T08:09:04.027Z</time>
      </trkpt>
      <trkpt lat="45.62108" lon="5.31926">
        <ele>267</ele>
        <time>2021-04-04T08:09:05.028Z</time>
      </trkpt>
      <trkpt lat="45.62109" lon="5.31931">
        <ele>267</ele>
        <time>2021-04-04T08:09:06.027Z</time>
      </trkpt>
      <trkpt lat="45.6211" lon="5.31937">
        <ele>267</ele>
        <time>2021-04-04T08:09:07.028Z</time>
      </trkpt>
      <trkpt lat="45.62111" lon="5.31942">
        <ele>266</ele>
        <time>2021-04-04T08:09:08.027Z</time>
      </trkpt>
      <trkpt lat="45.62111" lon="5.31947">
        <ele>266</ele>
        <time>2021-04-04T08:09:09.028Z</time>
      </trkpt>
      <trkpt lat="45.62112" lon="5.31953">
        <ele>267</ele>
        <time>2021-04-04T08:09:10.028Z</time>
      </trkpt>
      <trkpt lat="45.62113" lon="5.31958">
        <ele>267</ele>
        <time>2021-04-04T08:09:11.028Z</time>
      </trkpt>
      <trkpt lat="45.62114" lon="5.31963">
        <ele>267</ele>
        <time>2021-04-04T08:09:12.028Z</time>
      </trkpt>
      <trkpt lat="45.62115" lon="5.31968">
        <ele>267</ele>
        <time>2021-04-04T08:09:13.028Z</time>
      </trkpt>
      <trkpt lat="45.62115" lon="5.31973">
        <ele>268</ele>
        <time>2021-04-04T08:09:14.027Z</time>
      </trkpt>
      <trkpt lat="45.62115" lon="5.31979">
        <ele>268</ele>
        <time>2021-04-04T08:09:15.028Z</time>
      </trkpt>
      <trkpt lat="45.62115" lon="5.31984">
        <ele>268</ele>
        <time>2021-04-04T08:09:16.028Z</time>
      </trkpt>
      <trkpt lat="45.62115" lon="5.31989">
        <ele>269</ele>
        <time>2021-04-04T08:09:17.027Z</time>
      </trkpt>
      <trkpt lat="45.62115" lon="5.31994">
        <ele>269</ele>
        <time>2021-04-04T08:09:18.028Z</time>
      </trkpt>
      <trkpt lat="45.62114" lon="5.31999">
        <ele>269</ele>
        <time>2021-04-04T08:09:19.027Z</time>
      </trkpt>
      <trkpt lat="45.62114" lon="5.32004">
        <ele>269</ele>
        <time>2021-04-04T08:09:20.027Z</time>
      </trkpt>
      <trkpt lat="45.62113" lon="5.32009">
        <ele>269</ele>
        <time>2021-04-04T08:09:21.027Z</time>
      </trkpt>
      <trkpt lat="45.62113" lon="5.32014">
        <ele>269</ele>
        <time>2021-04-04T08:09:22.028Z</time>
      </trkpt>
      <trkpt lat="45.62112" lon="5.32019">
        <ele>270</ele>
        <time>2021-04-04T08:09:23.027Z</time>
      </trkpt>
      <trkpt lat="45.62111" lon="5.32024">
        <ele>270</ele>
        <time>2021-04-04T08:09:24.028Z</time>
      </trkpt>
      <trkpt lat="45.6211" lon="5.3203">
        <ele>270</ele>
        <time>2021-04-04T08:09:25.027Z</time>
      </trkpt>
      <trkpt lat="45.6211" lon="5.32035">
        <ele>270</ele>
        <time>2021-04-04T08:09:26.028Z</time>
      </trkpt>
      <trkpt lat="45.62109" lon="5.3204">
        <ele>271</ele>
        <time>2021-04-04T08:09:27.027Z</time>
      </trkpt>
      <trkpt lat="45.62108" lon="5.32045">
        <ele>271</ele>
        <time>2021-04-04T08:09:28.028Z</time>
      </trkpt>
      <trkpt lat="45.62108" lon="5.3205">
        <ele>271</ele>
        <time>2021-04-04T08:09:29.028Z</time>
      </trkpt>
      <trkpt lat="45.62107" lon="5.32055">
        <ele>271</ele>
        <time>2021-04-04T08:09:30.028Z</time>
      </trkpt>
      <trkpt lat="45.62106" lon="5.3206">
        <ele>272</ele>
        <time>2021-04-04T08:09:31.028Z</time>
      </trkpt>
      <trkpt lat="45.62106" lon="5.32065">
        <ele>272</ele>
        <time>2021-04-04T08:09:32.028Z</time>
      </trkpt>
      <trkpt lat="45.62105" lon="5.3207">
        <ele>273</ele>
        <time>2021-04-04T08:09:33.027Z</time>
      </trkpt>
      <trkpt lat="45.62104" lon="5.32076">
        <ele>273</ele>
        <time>2021-04-04T08:09:34.028Z</time>
      </trkpt>
      <trkpt lat="45.62103" lon="5.32081">
        <ele>274</ele>
        <time>2021-04-04T08:09:35.028Z</time>
      </trkpt>
      <trkpt lat="45.62102" lon="5.32087">
        <ele>274</ele>
        <time>2021-04-04T08:09:36.028Z</time>
      </trkpt>
      <trkpt lat="45.62101" lon="5.32092">
        <ele>274</ele>
        <time>2021-04-04T08:09:37.027Z</time>
      </trkpt>
      <trkpt lat="45.621" lon="5.32097">
        <ele>274</ele>
        <time>2021-04-04T08:09:38.028Z</time>
      </trkpt>
      <trkpt lat="45.621" lon="5.32102">
        <ele>274</ele>
        <time>2021-04-04T08:09:39.028Z</time>
      </trkpt>
      <trkpt lat="45.62099" lon="5.32108">
        <ele>275</ele>
        <time>2021-04-04T08:09:40.028Z</time>
      </trkpt>
      <trkpt lat="45.62098" lon="5.32113">
        <ele>275</ele>
        <time>2021-04-04T08:09:41.028Z</time>
      </trkpt>
      <trkpt lat="45.62097" lon="5.32118">
        <ele>275</ele>
        <time>2021-04-04T08:09:42.028Z</time>
      </trkpt>
      <trkpt lat="45.62096" lon="5.32123">
        <ele>275</ele>
        <time>2021-04-04T08:09:43.028Z</time>
      </trkpt>
      <trkpt lat="45.62095" lon="5.32128">
        <ele>275</ele>
        <time>2021-04-04T08:09:44.027Z</time>
      </trkpt>
      <trkpt lat="45.62094" lon="5.32133">
        <ele>275</ele>
        <time>2021-04-04T08:09:45.028Z</time>
      </trkpt>
      <trkpt lat="45.62092" lon="5.32138">
        <ele>275</ele>
        <time>2021-04-04T08:09:46.028Z</time>
      </trkpt>
      <trkpt lat="45.6209" lon="5.32143">
        <ele>275</ele>
        <time>2021-04-04T08:09:47.028Z</time>
      </trkpt>
      <trkpt lat="45.62087" lon="5.32146">
        <ele>275</ele>
        <time>2021-04-04T08:09:48.028Z</time>
      </trkpt>
      <trkpt lat="45.62084" lon="5.32147">
        <ele>275</ele>
        <time>2021-04-04T08:09:49.028Z</time>
      </trkpt>
      <trkpt lat="45.6208" lon="5.32147">
        <ele>275</ele>
        <time>2021-04-04T08:09:50.028Z</time>
      </trkpt>
      <trkpt lat="45.62077" lon="5.32145">
        <ele>276</ele>
        <time>2021-04-04T08:09:51.028Z</time>
      </trkpt>
      <trkpt lat="45.62075" lon="5.32141">
        <ele>276</ele>
        <time>2021-04-04T08:09:52.028Z</time>
      </trkpt>
      <trkpt lat="45.62073" lon="5.32137">
        <ele>277</ele>
        <time>2021-04-04T08:09:53.028Z</time>
      </trkpt>
      <trkpt lat="45.62073" lon="5.32132">
        <ele>278</ele>
        <time>2021-04-04T08:09:54.027Z</time>
      </trkpt>
      <trkpt lat="45.62073" lon="5.32126">
        <ele>279</ele>
        <time>2021-04-04T08:09:55.027Z</time>
      </trkpt>
      <trkpt lat="45.62073" lon="5.3212">
        <ele>280</ele>
        <time>2021-04-04T08:09:56.027Z</time>
      </trkpt>
      <trkpt lat="45.62073" lon="5.32114">
        <ele>280</ele>
        <time>2021-04-04T08:09:57.028Z</time>
      </trkpt>
      <trkpt lat="45.62072" lon="5.32108">
        <ele>281</ele>
        <time>2021-04-04T08:09:58.027Z</time>
      </trkpt>
      <trkpt lat="45.62072" lon="5.32102">
        <ele>282</ele>
        <time>2021-04-04T08:09:59.027Z</time>
      </trkpt>
      <trkpt lat="45.62071" lon="5.32096">
        <ele>283</ele>
        <time>2021-04-04T08:10:00.027Z</time>
      </trkpt>
      <trkpt lat="45.6207" lon="5.32091">
        <ele>283</ele>
        <time>2021-04-04T08:10:01.028Z</time>
      </trkpt>
      <trkpt lat="45.62068" lon="5.32085">
        <ele>284</ele>
        <time>2021-04-04T08:10:02.028Z</time>
      </trkpt>
      <trkpt lat="45.62067" lon="5.32081">
        <ele>284</ele>
        <time>2021-04-04T08:10:03.028Z</time>
      </trkpt>
      <trkpt lat="45.62065" lon="5.32076">
        <ele>285</ele>
        <time>2021-04-04T08:10:04.028Z</time>
      </trkpt>
      <trkpt lat="45.62063" lon="5.32072">
        <ele>286</ele>
        <time>2021-04-04T08:10:05.028Z</time>
      </trkpt>
      <trkpt lat="45.62061" lon="5.32065">
        <ele>286</ele>
        <time>2021-04-04T08:10:06.028Z</time>
      </trkpt>
      <trkpt lat="45.62059" lon="5.3206">
        <ele>287</ele>
        <time>2021-04-04T08:10:07.028Z</time>
      </trkpt>
      <trkpt lat="45.62058" lon="5.32055">
        <ele>287</ele>
        <time>2021-04-04T08:10:08.028Z</time>
      </trkpt>
      <trkpt lat="45.62057" lon="5.3205">
        <ele>287</ele>
        <time>2021-04-04T08:10:09.028Z</time>
      </trkpt>
      <trkpt lat="45.62055" lon="5.32044">
        <ele>287</ele>
        <time>2021-04-04T08:10:10.027Z</time>
      </trkpt>
      <trkpt lat="45.62055" lon="5.32039">
        <ele>288</ele>
        <time>2021-04-04T08:10:11.028Z</time>
      </trkpt>
      <trkpt lat="45.62055" lon="5.32034">
        <ele>288</ele>
        <time>2021-04-04T08:10:12.028Z</time>
      </trkpt>
      <trkpt lat="45.62055" lon="5.32028">
        <ele>288</ele>
        <time>2021-04-04T08:10:13.028Z</time>
      </trkpt>
      <trkpt lat="45.62055" lon="5.32022">
        <ele>288</ele>
        <time>2021-04-04T08:10:14.028Z</time>
      </trkpt>
      <trkpt lat="45.62055" lon="5.32017">
        <ele>289</ele>
        <time>2021-04-04T08:10:15.027Z</time>
      </trkpt>
      <trkpt lat="45.62056" lon="5.32012">
        <ele>289</ele>
        <time>2021-04-04T08:10:16.027Z</time>
      </trkpt>
      <trkpt lat="45.62056" lon="5.32007">
        <ele>289</ele>
        <time>2021-04-04T08:10:17.028Z</time>
      </trkpt>
      <trkpt lat="45.62057" lon="5.32002">
        <ele>289</ele>
        <time>2021-04-04T08:10:18.028Z</time>
      </trkpt>
      <trkpt lat="45.62058" lon="5.31997">
        <ele>289</ele>
        <time>2021-04-04T08:10:19.028Z</time>
      </trkpt>
      <trkpt lat="45.62058" lon="5.31992">
        <ele>289</ele>
        <time>2021-04-04T08:10:20.028Z</time>
      </trkpt>
      <trkpt lat="45.62059" lon="5.31987">
        <ele>289</ele>
        <time>2021-04-04T08:10:21.027Z</time>
      </trkpt>
      <trkpt lat="45.62059" lon="5.31981">
        <ele>289</ele>
        <time>2021-04-04T08:10:22.028Z</time>
      </trkpt>
      <trkpt lat="45.62059" lon="5.31976">
        <ele>289</ele>
        <time>2021-04-04T08:10:23.027Z</time>
      </trkpt>
      <trkpt lat="45.62058" lon="5.31971">
        <ele>289</ele>
        <time>2021-04-04T08:10:24.028Z</time>
      </trkpt>
      <trkpt lat="45.62057" lon="5.31966">
        <ele>289</ele>
        <time>2021-04-04T08:10:25.027Z</time>
      </trkpt>
      <trkpt lat="45.62056" lon="5.31961">
        <ele>289</ele>
        <time>2021-04-04T08:10:26.028Z</time>
      </trkpt>
      <trkpt lat="45.62054" lon="5.31956">
        <ele>289</ele>
        <time>2021-04-04T08:10:27.028Z</time>
      </trkpt>
      <trkpt lat="45.62052" lon="5.31951">
        <ele>289</ele>
        <time>2021-04-04T08:10:28.028Z</time>
      </trkpt>
      <trkpt lat="45.62051" lon="5.31947">
        <ele>289</ele>
        <time>2021-04-04T08:10:29.028Z</time>
      </trkpt>
      <trkpt lat="45.62049" lon="5.31943">
        <ele>290</ele>
        <time>2021-04-04T08:10:30.028Z</time>
      </trkpt>
      <trkpt lat="45.62046" lon="5.31938">
        <ele>290</ele>
        <time>2021-04-04T08:10:31.028Z</time>
      </trkpt>
      <trkpt lat="45.62044" lon="5.31934">
        <ele>291</ele>
        <time>2021-04-04T08:10:32.027Z</time>
      </trkpt>
      <trkpt lat="45.62041" lon="5.3193">
        <ele>291</ele>
        <time>2021-04-04T08:10:33.028Z</time>
      </trkpt>
      <trkpt lat="45.62039" lon="5.31926">
        <ele>291</ele>
        <time>2021-04-04T08:10:34.028Z</time>
      </trkpt>
      <trkpt lat="45.62036" lon="5.31923">
        <ele>292</ele>
        <time>2021-04-04T08:10:35.028Z</time>
      </trkpt>
      <trkpt lat="45.62033" lon="5.31919">
        <ele>292</ele>
        <time>2021-04-04T08:10:36.028Z</time>
      </trkpt>
      <trkpt lat="45.6203" lon="5.31916">
        <ele>293</ele>
        <time>2021-04-04T08:10:37.027Z</time>
      </trkpt>
      <trkpt lat="45.62027" lon="5.31913">
        <ele>293</ele>
        <time>2021-04-04T08:10:38.027Z</time>
      </trkpt>
      <trkpt lat="45.62024" lon="5.3191">
        <ele>294</ele>
        <time>2021-04-04T08:10:39.027Z</time>
      </trkpt>
      <trkpt lat="45.6202" lon="5.31908">
        <ele>295</ele>
        <time>2021-04-04T08:10:40.028Z</time>
      </trkpt>
      <trkpt lat="45.62017" lon="5.31906">
        <ele>295</ele>
        <time>2021-04-04T08:10:41.028Z</time>
      </trkpt>
      <trkpt lat="45.62013" lon="5.31905">
        <ele>296</ele>
        <time>2021-04-04T08:10:42.027Z</time>
      </trkpt>
      <trkpt lat="45.62009" lon="5.31903">
        <ele>297</ele>
        <time>2021-04-04T08:10:43.028Z</time>
      </trkpt>
      <trkpt lat="45.62005" lon="5.31902">
        <ele>298</ele>
        <time>2021-04-04T08:10:44.027Z</time>
      </trkpt>
      <trkpt lat="45.62002" lon="5.319">
        <ele>299</ele>
        <time>2021-04-04T08:10:45.028Z</time>
      </trkpt>
      <trkpt lat="45.61998" lon="5.31899">
        <ele>300</ele>
        <time>2021-04-04T08:10:46.028Z</time>
      </trkpt>
      <trkpt lat="45.61994" lon="5.31898">
        <ele>300</ele>
        <time>2021-04-04T08:10:47.028Z</time>
      </trkpt>
      <trkpt lat="45.61989" lon="5.31898">
        <ele>301</ele>
        <time>2021-04-04T08:10:48.027Z</time>
      </trkpt>
      <trkpt lat="45.61985" lon="5.31898">
        <ele>301</ele>
        <time>2021-04-04T08:10:49.028Z</time>
      </trkpt>
      <trkpt lat="45.61981" lon="5.319">
        <ele>302</ele>
        <time>2021-04-04T08:10:50.028Z</time>
      </trkpt>
      <trkpt lat="45.61978" lon="5.31904">
        <ele>303</ele>
        <time>2021-04-04T08:10:51.027Z</time>
      </trkpt>
      <trkpt lat="45.61975" lon="5.31908">
        <ele>304</ele>
        <time>2021-04-04T08:10:52.027Z</time>
      </trkpt>
      <trkpt lat="45.61974" lon="5.31913">
        <ele>305</ele>
        <time>2021-04-04T08:10:53.028Z</time>
      </trkpt>
      <trkpt lat="45.61974" lon="5.31918">
        <ele>305</ele>
        <time>2021-04-04T08:10:54.028Z</time>
      </trkpt>
      <trkpt lat="45.61976" lon="5.31922">
        <ele>306</ele>
        <time>2021-04-04T08:10:55.028Z</time>
      </trkpt>
      <trkpt lat="45.61978" lon="5.31926">
        <ele>306</ele>
        <time>2021-04-04T08:10:56.027Z</time>
      </trkpt>
      <trkpt lat="45.61982" lon="5.31929">
        <ele>306</ele>
        <time>2021-04-04T08:10:57.028Z</time>
      </trkpt>
      <trkpt lat="45.61986" lon="5.31932">
        <ele>306</ele>
        <time>2021-04-04T08:10:58.028Z</time>
      </trkpt>
      <trkpt lat="45.61991" lon="5.31934">
        <ele>305</ele>
        <time>2021-04-04T08:10:59.028Z</time>
      </trkpt>
      <trkpt lat="45.61995" lon="5.31935">
        <ele>305</ele>
        <time>2021-04-04T08:11:00.027Z</time>
      </trkpt>
      <trkpt lat="45.62" lon="5.31936">
        <ele>305</ele>
        <time>2021-04-04T08:11:01.028Z</time>
      </trkpt>
      <trkpt lat="45.62004" lon="5.31938">
        <ele>305</ele>
        <time>2021-04-04T08:11:02.028Z</time>
      </trkpt>
      <trkpt lat="45.62008" lon="5.31941">
        <ele>305</ele>
        <time>2021-04-04T08:11:03.028Z</time>
      </trkpt>
      <trkpt lat="45.62012" lon="5.31944">
        <ele>305</ele>
        <time>2021-04-04T08:11:04.028Z</time>
      </trkpt>
      <trkpt lat="45.62015" lon="5.31948">
        <ele>305</ele>
        <time>2021-04-04T08:11:05.028Z</time>
      </trkpt>
      <trkpt lat="45.62017" lon="5.31953">
        <ele>305</ele>
        <time>2021-04-04T08:11:06.028Z</time>
      </trkpt>
      <trkpt lat="45.62019" lon="5.31959">
        <ele>304</ele>
        <time>2021-04-04T08:11:07.028Z</time>
      </trkpt>
      <trkpt lat="45.6202" lon="5.31965">
        <ele>304</ele>
        <time>2021-04-04T08:11:08.027Z</time>
      </trkpt>
      <trkpt lat="45.62021" lon="5.3197">
        <ele>304</ele>
        <time>2021-04-04T08:11:09.028Z</time>
      </trkpt>
      <trkpt lat="45.6202" lon="5.31977">
        <ele>304</ele>
        <time>2021-04-04T08:11:10.028Z</time>
      </trkpt>
      <trkpt lat="45.62019" lon="5.31982">
        <ele>304</ele>
        <time>2021-04-04T08:11:11.028Z</time>
      </trkpt>
      <trkpt lat="45.62018" lon="5.31988">
        <ele>305</ele>
        <time>2021-04-04T08:11:12.027Z</time>
      </trkpt>
      <trkpt lat="45.62016" lon="5.31993">
        <ele>305</ele>
        <time>2021-04-04T08:11:13.028Z</time>
      </trkpt>
      <trkpt lat="45.62014" lon="5.31999">
        <ele>306</ele>
        <time>2021-04-04T08:11:14.028Z</time>
      </trkpt>
      <trkpt lat="45.62012" lon="5.32004">
        <ele>306</ele>
        <time>2021-04-04T08:11:15.027Z</time>
      </trkpt>
      <trkpt lat="45.6201" lon="5.32009">
        <ele>306</ele>
        <time>2021-04-04T08:11:16.028Z</time>
      </trkpt>
      <trkpt lat="45.62008" lon="5.32013">
        <ele>307</ele>
        <time>2021-04-04T08:11:17.028Z</time>
      </trkpt>
      <trkpt lat="45.62006" lon="5.32017">
        <ele>307</ele>
        <time>2021-04-04T08:11:18.028Z</time>
      </trkpt>
      <trkpt lat="45.62004" lon="5.32022">
        <ele>308</ele>
        <time>2021-04-04T08:11:19.028Z</time>
      </trkpt>
      <trkpt lat="45.62001" lon="5.32026">
        <ele>308</ele>
        <time>2021-04-04T08:11:20.028Z</time>
      </trkpt>
      <trkpt lat="45.61999" lon="5.3203">
        <ele>309</ele>
        <time>2021-04-04T08:11:21.027Z</time>
      </trkpt>
      <trkpt lat="45.61996" lon="5.32034">
        <ele>310</ele>
        <time>2021-04-04T08:11:22.028Z</time>
      </trkpt>
      <trkpt lat="45.61993" lon="5.32038">
        <ele>310</ele>
        <time>2021-04-04T08:11:23.028Z</time>
      </trkpt>
      <trkpt lat="45.61991" lon="5.32042">
        <ele>311</ele>
        <time>2021-04-04T08:11:24.028Z</time>
      </trkpt>
      <trkpt lat="45.61988" lon="5.32045">
        <ele>312</ele>
        <time>2021-04-04T08:11:25.027Z</time>
      </trkpt>
      <trkpt lat="45.61985" lon="5.32049">
        <ele>312</ele>
        <time>2021-04-04T08:11:26.028Z</time>
      </trkpt>
      <trkpt lat="45.61982" lon="5.32052">
        <ele>313</ele>
        <time>2021-04-04T08:11:27.027Z</time>
      </trkpt>
      <trkpt lat="45.61979" lon="5.32055">
        <ele>313</ele>
        <time>2021-04-04T08:11:28.028Z</time>
      </trkpt>
      <trkpt lat="45.61976" lon="5.32059">
        <ele>312</ele>
        <time>2021-04-04T08:11:29.027Z</time>
      </trkpt>
      <trkpt lat="45.61972" lon="5.32062">
        <ele>313</ele>
        <time>2021-04-04T08:11:30.027Z</time>
      </trkpt>
      <trkpt lat="45.61969" lon="5.32066">
        <ele>313</ele>
        <time>2021-04-04T08:11:31.027Z</time>
      </trkpt>
      <trkpt lat="45.61966" lon="5.32069">
        <ele>313</ele>
        <time>2021-04-04T08:11:32.027Z</time>
      </trkpt>
      <trkpt lat="45.61963" lon="5.32073">
        <ele>314</ele>
        <time>2021-04-04T08:11:33.028Z</time>
      </trkpt>
      <trkpt lat="45.61959" lon="5.32076">
        <ele>314</ele>
        <time>2021-04-04T08:11:34.028Z</time>
      </trkpt>
      <trkpt lat="45.61956" lon="5.3208">
        <ele>314</ele>
        <time>2021-04-04T08:11:35.027Z</time>
      </trkpt>
      <trkpt lat="45.61953" lon="5.32084">
        <ele>315</ele>
        <time>2021-04-04T08:11:36.028Z</time>
      </trkpt>
      <trkpt lat="45.6195" lon="5.32087">
        <ele>316</ele>
        <time>2021-04-04T08:11:37.027Z</time>
      </trkpt>
      <trkpt lat="45.61948" lon="5.32091">
        <ele>316</ele>
        <time>2021-04-04T08:11:38.028Z</time>
      </trkpt>
      <trkpt lat="45.61945" lon="5.32095">
        <ele>317</ele>
        <time>2021-04-04T08:11:39.028Z</time>
      </trkpt>
      <trkpt lat="45.61942" lon="5.32099">
        <ele>318</ele>
        <time>2021-04-04T08:11:40.027Z</time>
      </trkpt>
      <trkpt lat="45.6194" lon="5.32103">
        <ele>318</ele>
        <time>2021-04-04T08:11:41.028Z</time>
      </trkpt>
      <trkpt lat="45.61938" lon="5.32107">
        <ele>319</ele>
        <time>2021-04-04T08:11:42.027Z</time>
      </trkpt>
      <trkpt lat="45.61935" lon="5.32112">
        <ele>319</ele>
        <time>2021-04-04T08:11:43.028Z</time>
      </trkpt>
      <trkpt lat="45.61933" lon="5.32117">
        <ele>320</ele>
        <time>2021-04-04T08:11:44.028Z</time>
      </trkpt>
      <trkpt lat="45.61932" lon="5.32121">
        <ele>320</ele>
        <time>2021-04-04T08:11:45.028Z</time>
      </trkpt>
      <trkpt lat="45.61931" lon="5.32127">
        <ele>320</ele>
        <time>2021-04-04T08:11:46.027Z</time>
      </trkpt>
      <trkpt lat="45.61929" lon="5.32132">
        <ele>320</ele>
        <time>2021-04-04T08:11:47.027Z</time>
      </trkpt>
      <trkpt lat="45.61928" lon="5.32137">
        <ele>320</ele>
        <time>2021-04-04T08:11:48.027Z</time>
      </trkpt>
      <trkpt lat="45.61926" lon="5.32142">
        <ele>319</ele>
        <time>2021-04-04T08:11:49.027Z</time>
      </trkpt>
      <trkpt lat="45.61923" lon="5.32147">
        <ele>319</ele>
        <time>2021-04-04T08:11:50.027Z</time>
      </trkpt>
      <trkpt lat="45.61921" lon="5.32151">
        <ele>319</ele>
        <time>2021-04-04T08:11:51.027Z</time>
      </trkpt>
      <trkpt lat="45.61918" lon="5.32153">
        <ele>319</ele>
        <time>2021-04-04T08:11:52.027Z</time>
      </trkpt>
      <trkpt lat="45.61914" lon="5.32154">
        <ele>319</ele>
        <time>2021-04-04T08:11:53.028Z</time>
      </trkpt>
      <trkpt lat="45.6191" lon="5.32154">
        <ele>319</ele>
        <time>2021-04-04T08:11:54.027Z</time>
      </trkpt>
      <trkpt lat="45.61907" lon="5.32152">
        <ele>319</ele>
        <time>2021-04-04T08:11:55.028Z</time>
      </trkpt>
      <trkpt lat="45.61905" lon="5.32148">
        <ele>319</ele>
        <time>2021-04-04T08:11:56.028Z</time>
      </trkpt>
      <trkpt lat="45.61905" lon="5.32141">
        <ele>319</ele>
        <time>2021-04-04T08:11:57.027Z</time>
      </trkpt>
      <trkpt lat="45.61906" lon="5.32136">
        <ele>318</ele>
        <time>2021-04-04T08:11:58.028Z</time>
      </trkpt>
      <trkpt lat="45.61908" lon="5.3213">
        <ele>318</ele>
        <time>2021-04-04T08:11:59.028Z</time>
      </trkpt>
      <trkpt lat="45.61911" lon="5.32125">
        <ele>318</ele>
        <time>2021-04-04T08:12:00.028Z</time>
      </trkpt>
      <trkpt lat="45.61914" lon="5.32119">
        <ele>318</ele>
        <time>2021-04-04T08:12:01.027Z</time>
      </trkpt>
      <trkpt lat="45.61917" lon="5.32113">
        <ele>318</ele>
        <time>2021-04-04T08:12:02.028Z</time>
      </trkpt>
      <trkpt lat="45.61921" lon="5.32106">
        <ele>318</ele>
        <time>2021-04-04T08:12:03.028Z</time>
      </trkpt>
      <trkpt lat="45.61923" lon="5.32102">
        <ele>318</ele>
        <time>2021-04-04T08:12:04.028Z</time>
      </trkpt>
      <trkpt lat="45.61926" lon="5.32097">
        <ele>318</ele>
        <time>2021-04-04T08:12:05.028Z</time>
      </trkpt>
      <trkpt lat="45.61929" lon="5.32092">
        <ele>319</ele>
        <time>2021-04-04T08:12:06.028Z</time>
      </trkpt>
      <trkpt lat="45.61932" lon="5.32087">
        <ele>319</ele>
        <time>2021-04-04T08:12:07.027Z</time>
      </trkpt>
      <trkpt lat="45.61935" lon="5.32081">
        <ele>320</ele>
        <time>2021-04-04T08:12:08.028Z</time>
      </trkpt>
      <trkpt lat="45.61938" lon="5.32077">
        <ele>320</ele>
        <time>2021-04-04T08:12:09.028Z</time>
      </trkpt>
      <trkpt lat="45.61941" lon="5.32072">
        <ele>321</ele>
        <time>2021-04-04T08:12:10.027Z</time>
      </trkpt>
      <trkpt lat="45.61944" lon="5.32068">
        <ele>321</ele>
        <time>2021-04-04T08:12:11.028Z</time>
      </trkpt>
      <trkpt lat="45.61947" lon="5.32064">
        <ele>322</ele>
        <time>2021-04-04T08:12:12.028Z</time>
      </trkpt>
      <trkpt lat="45.61949" lon="5.32059">
        <ele>322</ele>
        <time>2021-04-04T08:12:13.027Z</time>
      </trkpt>
      <trkpt lat="45.61952" lon="5.32054">
        <ele>322</ele>
        <time>2021-04-04T08:12:14.027Z</time>
      </trkpt>
      <trkpt lat="45.61954" lon="5.32049">
        <ele>322</ele>
        <time>2021-04-04T08:12:15.028Z</time>
      </trkpt>
      <trkpt lat="45.61957" lon="5.32045">
        <ele>322</ele>
        <time>2021-04-04T08:12:16.027Z</time>
      </trkpt>
      <trkpt lat="45.61959" lon="5.32039">
        <ele>322</ele>
        <time>2021-04-04T08:12:17.028Z</time>
      </trkpt>
      <trkpt lat="45.61961" lon="5.32035">
        <ele>322</ele>
        <time>2021-04-04T08:12:18.028Z</time>
      </trkpt>
      <trkpt lat="45.61962" lon="5.32029">
        <ele>322</ele>
        <time>2021-04-04T08:12:19.027Z</time>
      </trkpt>
      <trkpt lat="45.61964" lon="5.32024">
        <ele>322</ele>
        <time>2021-04-04T08:12:20.027Z</time>
      </trkpt>
      <trkpt lat="45.61964" lon="5.32018">
        <ele>322</ele>
        <time>2021-04-04T08:12:21.027Z</time>
      </trkpt>
      <trkpt lat="45.61964" lon="5.32013">
        <ele>322</ele>
        <time>2021-04-04T08:12:22.027Z</time>
      </trkpt>
      <trkpt lat="45.61963" lon="5.32008">
        <ele>322</ele>
        <time>2021-04-04T08:12:23.027Z</time>
      </trkpt>
      <trkpt lat="45.61962" lon="5.32003">
        <ele>323</ele>
        <time>2021-04-04T08:12:24.028Z</time>
      </trkpt>
      <trkpt lat="45.6196" lon="5.31999">
        <ele>323</ele>
        <time>2021-04-04T08:12:25.028Z</time>
      </trkpt>
      <trkpt lat="45.61958" lon="5.31994">
        <ele>323</ele>
        <time>2021-04-04T08:12:26.027Z</time>
      </trkpt>
      <trkpt lat="45.61956" lon="5.3199">
        <ele>323</ele>
        <time>2021-04-04T08:12:27.027Z</time>
      </trkpt>
      <trkpt lat="45.61953" lon="5.31987">
        <ele>324</ele>
        <time>2021-04-04T08:12:28.028Z</time>
      </trkpt>
      <trkpt lat="45.6195" lon="5.31984">
        <ele>324</ele>
        <time>2021-04-04T08:12:29.027Z</time>
      </trkpt>
      <trkpt lat="45.61946" lon="5.31982">
        <ele>325</ele>
        <time>2021-04-04T08:12:30.027Z</time>
      </trkpt>
      <trkpt lat="45.61943" lon="5.31981">
        <ele>325</ele>
        <time>2021-04-04T08:12:31.027Z</time>
      </trkpt>
      <trkpt lat="45.6194" lon="5.3198">
        <ele>325</ele>
        <time>2021-04-04T08:12:32.027Z</time>
      </trkpt>
      <trkpt lat="45.61936" lon="5.31979">
        <ele>325</ele>
        <time>2021-04-04T08:12:33.027Z</time>
      </trkpt>
      <trkpt lat="45.61933" lon="5.3198">
        <ele>326</ele>
        <time>2021-04-04T08:12:34.028Z</time>
      </trkpt>
      <trkpt lat="45.61928" lon="5.3198">
        <ele>326</ele>
        <time>2021-04-04T08:12:35.028Z</time>
      </trkpt>
      <trkpt lat="45.61925" lon="5.31981">
        <ele>326</ele>
        <time>2021-04-04T08:12:36.027Z</time>
      </trkpt>
      <trkpt lat="45.61921" lon="5.31983">
        <ele>327</ele>
        <time>2021-04-04T08:12:37.027Z</time>
      </trkpt>
      <trkpt lat="45.61917" lon="5.31985">
        <ele>327</ele>
        <time>2021-04-04T08:12:38.028Z</time>
      </trkpt>
      <trkpt lat="45.61913" lon="5.31988">
        <ele>328</ele>
        <time>2021-04-04T08:12:39.027Z</time>
      </trkpt>
      <trkpt lat="45.61909" lon="5.3199">
        <ele>328</ele>
        <time>2021-04-04T08:12:40.027Z</time>
      </trkpt>
      <trkpt lat="45.61905" lon="5.31992">
        <ele>328</ele>
        <time>2021-04-04T08:12:41.027Z</time>
      </trkpt>
      <trkpt lat="45.61901" lon="5.31994">
        <ele>328</ele>
        <time>2021-04-04T08:12:42.027Z</time>
      </trkpt>
      <trkpt lat="45.61896" lon="5.31997">
        <ele>328</ele>
        <time>2021-04-04T08:12:43.027Z</time>
      </trkpt>
      <trkpt lat="45.61893" lon="5.31999">
        <ele>328</ele>
        <time>2021-04-04T08:12:44.028Z</time>
      </trkpt>
      <trkpt lat="45.61889" lon="5.32001">
        <ele>328</ele>
        <time>2021-04-04T08:12:45.027Z</time>
      </trkpt>
      <trkpt lat="45.61885" lon="5.32004">
        <ele>328</ele>
        <time>2021-04-04T08:12:46.028Z</time>
      </trkpt>
      <trkpt lat="45.6188" lon="5.32007">
        <ele>328</ele>
        <time>2021-04-04T08:12:47.027Z</time>
      </trkpt>
      <trkpt lat="45.61877" lon="5.32009">
        <ele>329</ele>
        <time>2021-04-04T08:12:48.028Z</time>
      </trkpt>
      <trkpt lat="45.61873" lon="5.32011">
        <ele>329</ele>
        <time>2021-04-04T08:12:49.027Z</time>
      </trkpt>
      <trkpt lat="45.61869" lon="5.32014">
        <ele>330</ele>
        <time>2021-04-04T08:12:50.027Z</time>
      </trkpt>
      <trkpt lat="45.61866" lon="5.32017">
        <ele>331</ele>
        <time>2021-04-04T08:12:51.027Z</time>
      </trkpt>
      <trkpt lat="45.61862" lon="5.3202">
        <ele>332</ele>
        <time>2021-04-04T08:12:52.027Z</time>
      </trkpt>
      <trkpt lat="45.61859" lon="5.32024">
        <ele>332</ele>
        <time>2021-04-04T08:12:53.028Z</time>
      </trkpt>
      <trkpt lat="45.61856" lon="5.32028">
        <ele>333</ele>
        <time>2021-04-04T08:12:54.028Z</time>
      </trkpt>
      <trkpt lat="45.61852" lon="5.32032">
        <ele>333</ele>
        <time>2021-04-04T08:12:55.027Z</time>
      </trkpt>
      <trkpt lat="45.6185" lon="5.32036">
        <ele>333</ele>
        <time>2021-04-04T08:12:56.027Z</time>
      </trkpt>
      <trkpt lat="45.61847" lon="5.3204">
        <ele>332</ele>
        <time>2021-04-04T08:12:57.027Z</time>
      </trkpt>
      <trkpt lat="45.61844" lon="5.32045">
        <ele>332</ele>
        <time>2021-04-04T08:12:58.028Z</time>
      </trkpt>
      <trkpt lat="45.61841" lon="5.32049">
        <ele>333</ele>
        <time>2021-04-04T08:12:59.028Z</time>
      </trkpt>
      <trkpt lat="45.61838" lon="5.32055">
        <ele>333</ele>
        <time>2021-04-04T08:13:00.027Z</time>
      </trkpt>
      <trkpt lat="45.61836" lon="5.32059">
        <ele>334</ele>
        <time>2021-04-04T08:13:01.027Z</time>
      </trkpt>
      <trkpt lat="45.61833" lon="5.32063">
        <ele>334</ele>
        <time>2021-04-04T08:13:02.028Z</time>
      </trkpt>
      <trkpt lat="45.6183" lon="5.32068">
        <ele>335</ele>
        <time>2021-04-04T08:13:03.028Z</time>
      </trkpt>
      <trkpt lat="45.61826" lon="5.32073">
        <ele>335</ele>
        <time>2021-04-04T08:13:04.027Z</time>
      </trkpt>
      <trkpt lat="45.61824" lon="5.32076">
        <ele>335</ele>
        <time>2021-04-04T08:13:05.027Z</time>
      </trkpt>
      <trkpt lat="45.6182" lon="5.3208">
        <ele>335</ele>
        <time>2021-04-04T08:13:06.027Z</time>
      </trkpt>
      <trkpt lat="45.61817" lon="5.32083">
        <ele>336</ele>
        <time>2021-04-04T08:13:07.027Z</time>
      </trkpt>
      <trkpt lat="45.61814" lon="5.32087">
        <ele>336</ele>
        <time>2021-04-04T08:13:08.027Z</time>
      </trkpt>
      <trkpt lat="45.6181" lon="5.32091">
        <ele>336</ele>
        <time>2021-04-04T08:13:09.028Z</time>
      </trkpt>
      <trkpt lat="45.61807" lon="5.32095">
        <ele>336</ele>
        <time>2021-04-04T08:13:10.027Z</time>
      </trkpt>
      <trkpt lat="45.61805" lon="5.32098">
        <ele>336</ele>
        <time>2021-04-04T08:13:11.027Z</time>
      </trkpt>
      <trkpt lat="45.61803" lon="5.32102">
        <ele>335</ele>
        <time>2021-04-04T08:13:12.028Z</time>
      </trkpt>
      <trkpt lat="45.618" lon="5.32107">
        <ele>335</ele>
        <time>2021-04-04T08:13:13.027Z</time>
      </trkpt>
      <trkpt lat="45.61798" lon="5.32111">
        <ele>335</ele>
        <time>2021-04-04T08:13:14.027Z</time>
      </trkpt>
      <trkpt lat="45.61796" lon="5.32116">
        <ele>335</ele>
        <time>2021-04-04T08:13:15.027Z</time>
      </trkpt>
      <trkpt lat="45.61795" lon="5.32121">
        <ele>335</ele>
        <time>2021-04-04T08:13:16.027Z</time>
      </trkpt>
      <trkpt lat="45.61793" lon="5.32127">
        <ele>335</ele>
        <time>2021-04-04T08:13:17.028Z</time>
      </trkpt>
      <trkpt lat="45.61792" lon="5.32132">
        <ele>335</ele>
        <time>2021-04-04T08:13:18.027Z</time>
      </trkpt>
      <trkpt lat="45.6179" lon="5.32139">
        <ele>336</ele>
        <time>2021-04-04T08:13:19.027Z</time>
      </trkpt>
      <trkpt lat="45.61788" lon="5.32144">
        <ele>336</ele>
        <time>2021-04-04T08:13:20.028Z</time>
      </trkpt>
      <trkpt lat="45.61787" lon="5.32149">
        <ele>337</ele>
        <time>2021-04-04T08:13:21.028Z</time>
      </trkpt>
      <trkpt lat="45.61784" lon="5.32154">
        <ele>337</ele>
        <time>2021-04-04T08:13:22.028Z</time>
      </trkpt>
      <trkpt lat="45.61782" lon="5.32158">
        <ele>338</ele>
        <time>2021-04-04T08:13:23.028Z</time>
      </trkpt>
      <trkpt lat="45.61779" lon="5.32163">
        <ele>338</ele>
        <time>2021-04-04T08:13:24.028Z</time>
      </trkpt>
      <trkpt lat="45.61776" lon="5.32167">
        <ele>338</ele>
        <time>2021-04-04T08:13:25.028Z</time>
      </trkpt>
      <trkpt lat="45.61773" lon="5.32171">
        <ele>338</ele>
        <time>2021-04-04T08:13:26.028Z</time>
      </trkpt>
      <trkpt lat="45.61771" lon="5.32175">
        <ele>339</ele>
        <time>2021-04-04T08:13:27.027Z</time>
      </trkpt>
      <trkpt lat="45.61767" lon="5.3218">
        <ele>339</ele>
        <time>2021-04-04T08:13:28.028Z</time>
      </trkpt>
      <trkpt lat="45.61764" lon="5.32183">
        <ele>340</ele>
        <time>2021-04-04T08:13:29.028Z</time>
      </trkpt>
      <trkpt lat="45.61762" lon="5.32186">
        <ele>340</ele>
        <time>2021-04-04T08:13:30.027Z</time>
      </trkpt>
      <trkpt lat="45.61759" lon="5.3219">
        <ele>340</ele>
        <time>2021-04-04T08:13:31.028Z</time>
      </trkpt>
      <trkpt lat="45.61756" lon="5.32192">
        <ele>341</ele>
        <time>2021-04-04T08:13:32.028Z</time>
      </trkpt>
      <trkpt lat="45.61753" lon="5.32196">
        <ele>341</ele>
        <time>2021-04-04T08:13:33.027Z</time>
      </trkpt>
      <trkpt lat="45.61751" lon="5.32199">
        <ele>342</ele>
        <time>2021-04-04T08:13:34.028Z</time>
      </trkpt>
      <trkpt lat="45.61748" lon="5.32203">
        <ele>342</ele>
        <time>2021-04-04T08:13:35.028Z</time>
      </trkpt>
      <trkpt lat="45.61745" lon="5.32206">
        <ele>342</ele>
        <time>2021-04-04T08:13:36.028Z</time>
      </trkpt>
      <trkpt lat="45.61741" lon="5.32209">
        <ele>343</ele>
        <time>2021-04-04T08:13:37.028Z</time>
      </trkpt>
      <trkpt lat="45.61738" lon="5.3221">
        <ele>343</ele>
        <time>2021-04-04T08:13:38.028Z</time>
      </trkpt>
      <trkpt lat="45.61735" lon="5.32209">
        <ele>343</ele>
        <time>2021-04-04T08:13:39.028Z</time>
      </trkpt>
      <trkpt lat="45.61732" lon="5.32207">
        <ele>344</ele>
        <time>2021-04-04T08:13:40.028Z</time>
      </trkpt>
      <trkpt lat="45.6173" lon="5.32203">
        <ele>344</ele>
        <time>2021-04-04T08:13:41.028Z</time>
      </trkpt>
      <trkpt lat="45.61728" lon="5.32198">
        <ele>345</ele>
        <time>2021-04-04T08:13:42.027Z</time>
      </trkpt>
      <trkpt lat="45.61726" lon="5.32192">
        <ele>345</ele>
        <time>2021-04-04T08:13:43.028Z</time>
      </trkpt>
      <trkpt lat="45.61724" lon="5.32187">
        <ele>346</ele>
        <time>2021-04-04T08:13:44.028Z</time>
      </trkpt>
      <trkpt lat="45.61722" lon="5.32181">
        <ele>346</ele>
        <time>2021-04-04T08:13:45.028Z</time>
      </trkpt>
      <trkpt lat="45.61721" lon="5.32174">
        <ele>346</ele>
        <time>2021-04-04T08:13:46.028Z</time>
      </trkpt>
      <trkpt lat="45.61719" lon="5.32169">
        <ele>346</ele>
        <time>2021-04-04T08:13:47.028Z</time>
      </trkpt>
      <trkpt lat="45.61718" lon="5.32164">
        <ele>347</ele>
        <time>2021-04-04T08:13:48.028Z</time>
      </trkpt>
      <trkpt lat="45.61716" lon="5.32157">
        <ele>347</ele>
        <time>2021-04-04T08:13:49.028Z</time>
      </trkpt>
      <trkpt lat="45.61714" lon="5.32153">
        <ele>348</ele>
        <time>2021-04-04T08:13:50.028Z</time>
      </trkpt>
      <trkpt lat="45.61713" lon="5.32148">
        <ele>348</ele>
        <time>2021-04-04T08:13:51.028Z</time>
      </trkpt>
      <trkpt lat="45.61711" lon="5.32143">
        <ele>348</ele>
        <time>2021-04-04T08:13:52.028Z</time>
      </trkpt>
      <trkpt lat="45.6171" lon="5.32138">
        <ele>348</ele>
        <time>2021-04-04T08:13:53.028Z</time>
      </trkpt>
      <trkpt lat="45.61709" lon="5.32133">
        <ele>349</ele>
        <time>2021-04-04T08:13:54.027Z</time>
      </trkpt>
      <trkpt lat="45.61707" lon="5.32127">
        <ele>349</ele>
        <time>2021-04-04T08:13:55.028Z</time>
      </trkpt>
      <trkpt lat="45.61706" lon="5.32123">
        <ele>349</ele>
        <time>2021-04-04T08:13:56.028Z</time>
      </trkpt>
      <trkpt lat="45.61705" lon="5.32118">
        <ele>349</ele>
        <time>2021-04-04T08:13:57.028Z</time>
      </trkpt>
      <trkpt lat="45.61703" lon="5.32113">
        <ele>349</ele>
        <time>2021-04-04T08:13:58.028Z</time>
      </trkpt>
      <trkpt lat="45.61702" lon="5.32108">
        <ele>350</ele>
        <time>2021-04-04T08:13:59.027Z</time>
      </trkpt>
      <trkpt lat="45.617" lon="5.32104">
        <ele>350</ele>
        <time>2021-04-04T08:14:00.028Z</time>
      </trkpt>
      <trkpt lat="45.61698" lon="5.321">
        <ele>350</ele>
        <time>2021-04-04T08:14:01.028Z</time>
      </trkpt>
      <trkpt lat="45.61696" lon="5.32095">
        <ele>350</ele>
        <time>2021-04-04T08:14:02.028Z</time>
      </trkpt>
      <trkpt lat="45.61694" lon="5.3209">
        <ele>351</ele>
        <time>2021-04-04T08:14:03.028Z</time>
      </trkpt>
      <trkpt lat="45.61692" lon="5.32086">
        <ele>351</ele>
        <time>2021-04-04T08:14:04.027Z</time>
      </trkpt>
      <trkpt lat="45.61691" lon="5.32081">
        <ele>351</ele>
        <time>2021-04-04T08:14:05.028Z</time>
      </trkpt>
      <trkpt lat="45.61689" lon="5.32077">
        <ele>352</ele>
        <time>2021-04-04T08:14:06.027Z</time>
      </trkpt>
      <trkpt lat="45.61687" lon="5.32073">
        <ele>352</ele>
        <time>2021-04-04T08:14:07.028Z</time>
      </trkpt>
      <trkpt lat="45.61684" lon="5.32069">
        <ele>352</ele>
        <time>2021-04-04T08:14:08.027Z</time>
      </trkpt>
      <trkpt lat="45.61682" lon="5.32064">
        <ele>352</ele>
        <time>2021-04-04T08:14:09.028Z</time>
      </trkpt>
      <trkpt lat="45.6168" lon="5.3206">
        <ele>353</ele>
        <time>2021-04-04T08:14:10.028Z</time>
      </trkpt>
      <trkpt lat="45.61677" lon="5.32056">
        <ele>353</ele>
        <time>2021-04-04T08:14:11.028Z</time>
      </trkpt>
      <trkpt lat="45.61675" lon="5.32052">
        <ele>353</ele>
        <time>2021-04-04T08:14:12.028Z</time>
      </trkpt>
      <trkpt lat="45.61673" lon="5.32048">
        <ele>354</ele>
        <time>2021-04-04T08:14:13.028Z</time>
      </trkpt>
      <trkpt lat="45.61671" lon="5.32043">
        <ele>354</ele>
        <time>2021-04-04T08:14:14.027Z</time>
      </trkpt>
      <trkpt lat="45.61668" lon="5.32039">
        <ele>354</ele>
        <time>2021-04-04T08:14:15.027Z</time>
      </trkpt>
      <trkpt lat="45.61666" lon="5.32035">
        <ele>354</ele>
        <time>2021-04-04T08:14:16.027Z</time>
      </trkpt>
      <trkpt lat="45.61664" lon="5.32031">
        <ele>355</ele>
        <time>2021-04-04T08:14:17.027Z</time>
      </trkpt>
      <trkpt lat="45.61662" lon="5.32027">
        <ele>355</ele>
        <time>2021-04-04T08:14:18.027Z</time>
      </trkpt>
      <trkpt lat="45.61659" lon="5.32023">
        <ele>355</ele>
        <time>2021-04-04T08:14:19.027Z</time>
      </trkpt>
      <trkpt lat="45.61657" lon="5.32019">
        <ele>355</ele>
        <time>2021-04-04T08:14:20.028Z</time>
      </trkpt>
      <trkpt lat="45.61654" lon="5.32015">
        <ele>355</ele>
        <time>2021-04-04T08:14:21.028Z</time>
      </trkpt>
      <trkpt lat="45.61652" lon="5.32011">
        <ele>355</ele>
        <time>2021-04-04T08:14:22.028Z</time>
      </trkpt>
      <trkpt lat="45.6165" lon="5.32007">
        <ele>355</ele>
        <time>2021-04-04T08:14:23.028Z</time>
      </trkpt>
      <trkpt lat="45.61647" lon="5.32003">
        <ele>356</ele>
        <time>2021-04-04T08:14:24.028Z</time>
      </trkpt>
      <trkpt lat="45.61645" lon="5.31999">
        <ele>356</ele>
        <time>2021-04-04T08:14:25.028Z</time>
      </trkpt>
      <trkpt lat="45.61642" lon="5.31995">
        <ele>356</ele>
        <time>2021-04-04T08:14:26.028Z</time>
      </trkpt>
      <trkpt lat="45.6164" lon="5.31991">
        <ele>356</ele>
        <time>2021-04-04T08:14:27.027Z</time>
      </trkpt>
      <trkpt lat="45.61637" lon="5.31987">
        <ele>356</ele>
        <time>2021-04-04T08:14:28.027Z</time>
      </trkpt>
      <trkpt lat="45.61634" lon="5.31983">
        <ele>356</ele>
        <time>2021-04-04T08:14:29.028Z</time>
      </trkpt>
      <trkpt lat="45.61632" lon="5.3198">
        <ele>357</ele>
        <time>2021-04-04T08:14:30.028Z</time>
      </trkpt>
      <trkpt lat="45.6163" lon="5.31976">
        <ele>357</ele>
        <time>2021-04-04T08:14:31.028Z</time>
      </trkpt>
      <trkpt lat="45.61627" lon="5.31972">
        <ele>357</ele>
        <time>2021-04-04T08:14:32.027Z</time>
      </trkpt>
      <trkpt lat="45.61625" lon="5.31968">
        <ele>358</ele>
        <time>2021-04-04T08:14:33.027Z</time>
      </trkpt>
      <trkpt lat="45.61622" lon="5.31965">
        <ele>359</ele>
        <time>2021-04-04T08:14:34.027Z</time>
      </trkpt>
      <trkpt lat="45.61619" lon="5.31961">
        <ele>359</ele>
        <time>2021-04-04T08:14:35.027Z</time>
      </trkpt>
      <trkpt lat="45.61616" lon="5.31957">
        <ele>359</ele>
        <time>2021-04-04T08:14:36.027Z</time>
      </trkpt>
      <trkpt lat="45.61614" lon="5.31954">
        <ele>359</ele>
        <time>2021-04-04T08:14:37.028Z</time>
      </trkpt>
      <trkpt lat="45.61611" lon="5.3195">
        <ele>359</ele>
        <time>2021-04-04T08:14:38.027Z</time>
      </trkpt>
      <trkpt lat="45.61608" lon="5.31947">
        <ele>360</ele>
        <time>2021-04-04T08:14:39.027Z</time>
      </trkpt>
      <trkpt lat="45.61605" lon="5.31944">
        <ele>360</ele>
        <time>2021-04-04T08:14:40.028Z</time>
      </trkpt>
      <trkpt lat="45.61602" lon="5.3194">
        <ele>360</ele>
        <time>2021-04-04T08:14:41.028Z</time>
      </trkpt>
      <trkpt lat="45.61599" lon="5.31937">
        <ele>360</ele>
        <time>2021-04-04T08:14:42.027Z</time>
      </trkpt>
      <trkpt lat="45.61596" lon="5.31934">
        <ele>361</ele>
        <time>2021-04-04T08:14:43.027Z</time>
      </trkpt>
      <trkpt lat="45.61593" lon="5.31931">
        <ele>361</ele>
        <time>2021-04-04T08:14:44.027Z</time>
      </trkpt>
      <trkpt lat="45.6159" lon="5.31927">
        <ele>362</ele>
        <time>2021-04-04T08:14:45.028Z</time>
      </trkpt>
      <trkpt lat="45.61586" lon="5.31924">
        <ele>362</ele>
        <time>2021-04-04T08:14:46.028Z</time>
      </trkpt>
      <trkpt lat="45.61583" lon="5.31921">
        <ele>363</ele>
        <time>2021-04-04T08:14:47.028Z</time>
      </trkpt>
      <trkpt lat="45.6158" lon="5.31918">
        <ele>363</ele>
        <time>2021-04-04T08:14:48.027Z</time>
      </trkpt>
      <trkpt lat="45.61577" lon="5.31915">
        <ele>363</ele>
        <time>2021-04-04T08:14:49.028Z</time>
      </trkpt>
      <trkpt lat="45.61573" lon="5.31912">
        <ele>363</ele>
        <time>2021-04-04T08:14:50.028Z</time>
      </trkpt>
      <trkpt lat="45.6157" lon="5.31909">
        <ele>363</ele>
        <time>2021-04-04T08:14:51.028Z</time>
      </trkpt>
      <trkpt lat="45.61567" lon="5.31905">
        <ele>363</ele>
        <time>2021-04-04T08:14:52.028Z</time>
      </trkpt>
      <trkpt lat="45.61564" lon="5.31902">
        <ele>363</ele>
        <time>2021-04-04T08:14:53.028Z</time>
      </trkpt>
      <trkpt lat="45.6156" lon="5.31899">
        <ele>363</ele>
        <time>2021-04-04T08:14:54.028Z</time>
      </trkpt>
      <trkpt lat="45.61556" lon="5.31896">
        <ele>363</ele>
        <time>2021-04-04T08:14:55.028Z</time>
      </trkpt>
      <trkpt lat="45.61553" lon="5.31893">
        <ele>364</ele>
        <time>2021-04-04T08:14:56.028Z</time>
      </trkpt>
      <trkpt lat="45.61549" lon="5.3189">
        <ele>364</ele>
        <time>2021-04-04T08:14:57.028Z</time>
      </trkpt>
      <trkpt lat="45.61545" lon="5.31887">
        <ele>364</ele>
        <time>2021-04-04T08:14:58.027Z</time>
      </trkpt>
      <trkpt lat="45.61541" lon="5.31884">
        <ele>365</ele>
        <time>2021-04-04T08:14:59.028Z</time>
      </trkpt>
      <trkpt lat="45.61537" lon="5.3188">
        <ele>365</ele>
        <time>2021-04-04T08:15:00.028Z</time>
      </trkpt>
      <trkpt lat="45.61533" lon="5.31876">
        <ele>365</ele>
        <time>2021-04-04T08:15:01.027Z</time>
      </trkpt>
      <trkpt lat="45.61528" lon="5.31872">
        <ele>365</ele>
        <time>2021-04-04T08:15:02.028Z</time>
      </trkpt>
      <trkpt lat="45.61524" lon="5.31867">
        <ele>365</ele>
        <time>2021-04-04T08:15:03.028Z</time>
      </trkpt>
      <trkpt lat="45.6152" lon="5.31862">
        <ele>365</ele>
        <time>2021-04-04T08:15:04.027Z</time>
      </trkpt>
      <trkpt lat="45.61515" lon="5.31857">
        <ele>365</ele>
        <time>2021-04-04T08:15:05.028Z</time>
      </trkpt>
      <trkpt lat="45.61511" lon="5.31851">
        <ele>365</ele>
        <time>2021-04-04T08:15:06.028Z</time>
      </trkpt>
      <trkpt lat="45.61506" lon="5.31844">
        <ele>365</ele>
        <time>2021-04-04T08:15:07.028Z</time>
      </trkpt>
      <trkpt lat="45.61502" lon="5.31837">
        <ele>365</ele>
        <time>2021-04-04T08:15:08.027Z</time>
      </trkpt>
      <trkpt lat="45.61497" lon="5.3183">
        <ele>365</ele>
        <time>2021-04-04T08:15:09.027Z</time>
      </trkpt>
      <trkpt lat="45.61492" lon="5.31823">
        <ele>364</ele>
        <time>2021-04-04T08:15:10.028Z</time>
      </trkpt>
      <trkpt lat="45.61487" lon="5.31816">
        <ele>364</ele>
        <time>2021-04-04T08:15:11.028Z</time>
      </trkpt>
      <trkpt lat="45.61481" lon="5.31809">
        <ele>364</ele>
        <time>2021-04-04T08:15:12.027Z</time>
      </trkpt>
      <trkpt lat="45.61476" lon="5.31801">
        <ele>364</ele>
        <time>2021-04-04T08:15:13.027Z</time>
      </trkpt>
      <trkpt lat="45.6147" lon="5.31794">
        <ele>364</ele>
        <time>2021-04-04T08:15:14.027Z</time>
      </trkpt>
      <trkpt lat="45.61465" lon="5.31786">
        <ele>364</ele>
        <time>2021-04-04T08:15:15.028Z</time>
      </trkpt>
      <trkpt lat="45.61459" lon="5.31777">
        <ele>364</ele>
        <time>2021-04-04T08:15:16.028Z</time>
      </trkpt>
      <trkpt lat="45.61452" lon="5.31769">
        <ele>364</ele>
        <time>2021-04-04T08:15:17.028Z</time>
      </trkpt>
      <trkpt lat="45.61446" lon="5.3176">
        <ele>363</ele>
        <time>2021-04-04T08:15:18.028Z</time>
      </trkpt>
      <trkpt lat="45.61439" lon="5.31751">
        <ele>362</ele>
        <time>2021-04-04T08:15:19.027Z</time>
      </trkpt>
      <trkpt lat="45.61432" lon="5.31741">
        <ele>362</ele>
        <time>2021-04-04T08:15:20.027Z</time>
      </trkpt>
      <trkpt lat="45.61424" lon="5.31731">
        <ele>361</ele>
        <time>2021-04-04T08:15:21.028Z</time>
      </trkpt>
      <trkpt lat="45.61416" lon="5.31721">
        <ele>361</ele>
        <time>2021-04-04T08:15:22.027Z</time>
      </trkpt>
      <trkpt lat="45.61408" lon="5.3171">
        <ele>360</ele>
        <time>2021-04-04T08:15:23.028Z</time>
      </trkpt>
      <trkpt lat="45.614" lon="5.317">
        <ele>359</ele>
        <time>2021-04-04T08:15:24.027Z</time>
      </trkpt>
      <trkpt lat="45.61392" lon="5.31689">
        <ele>358</ele>
        <time>2021-04-04T08:15:25.028Z</time>
      </trkpt>
      <trkpt lat="45.61383" lon="5.31678">
        <ele>358</ele>
        <time>2021-04-04T08:15:26.028Z</time>
      </trkpt>
      <trkpt lat="45.61374" lon="5.31667">
        <ele>357</ele>
        <time>2021-04-04T08:15:27.028Z</time>
      </trkpt>
      <trkpt lat="45.61365" lon="5.31656">
        <ele>357</ele>
        <time>2021-04-04T08:15:28.028Z</time>
      </trkpt>
      <trkpt lat="45.61356" lon="5.31645">
        <ele>356</ele>
        <time>2021-04-04T08:15:29.028Z</time>
      </trkpt>
      <trkpt lat="45.61348" lon="5.31634">
        <ele>356</ele>
        <time>2021-04-04T08:15:30.028Z</time>
      </trkpt>
      <trkpt lat="45.61339" lon="5.31624">
        <ele>355</ele>
        <time>2021-04-04T08:15:31.028Z</time>
      </trkpt>
      <trkpt lat="45.61331" lon="5.31613">
        <ele>354</ele>
        <time>2021-04-04T08:15:32.028Z</time>
      </trkpt>
      <trkpt lat="45.61322" lon="5.31603">
        <ele>354</ele>
        <time>2021-04-04T08:15:33.027Z</time>
      </trkpt>
      <trkpt lat="45.61314" lon="5.31592">
        <ele>353</ele>
        <time>2021-04-04T08:15:34.028Z</time>
      </trkpt>
      <trkpt lat="45.61306" lon="5.31581">
        <ele>352</ele>
        <time>2021-04-04T08:15:35.028Z</time>
      </trkpt>
      <trkpt lat="45.61298" lon="5.3157">
        <ele>351</ele>
        <time>2021-04-04T08:15:36.028Z</time>
      </trkpt>
      <trkpt lat="45.61289" lon="5.31559">
        <ele>350</ele>
        <time>2021-04-04T08:15:37.028Z</time>
      </trkpt>
      <trkpt lat="45.61281" lon="5.31547">
        <ele>349</ele>
        <time>2021-04-04T08:15:38.027Z</time>
      </trkpt>
      <trkpt lat="45.61274" lon="5.31535">
        <ele>348</ele>
        <time>2021-04-04T08:15:39.027Z</time>
      </trkpt>
      <trkpt lat="45.61266" lon="5.31523">
        <ele>348</ele>
        <time>2021-04-04T08:15:40.028Z</time>
      </trkpt>
      <trkpt lat="45.61258" lon="5.3151">
        <ele>347</ele>
        <time>2021-04-04T08:15:41.027Z</time>
      </trkpt>
      <trkpt lat="45.61251" lon="5.31498">
        <ele>346</ele>
        <time>2021-04-04T08:15:42.028Z</time>
      </trkpt>
      <trkpt lat="45.61244" lon="5.31484">
        <ele>345</ele>
        <time>2021-04-04T08:15:43.028Z</time>
      </trkpt>
      <trkpt lat="45.61238" lon="5.3147">
        <ele>344</ele>
        <time>2021-04-04T08:15:44.028Z</time>
      </trkpt>
      <trkpt lat="45.61232" lon="5.31455">
        <ele>343</ele>
        <time>2021-04-04T08:15:45.027Z</time>
      </trkpt>
      <trkpt lat="45.61227" lon="5.3144">
        <ele>342</ele>
        <time>2021-04-04T08:15:46.027Z</time>
      </trkpt>
      <trkpt lat="45.61223" lon="5.31424">
        <ele>341</ele>
        <time>2021-04-04T08:15:47.028Z</time>
      </trkpt>
      <trkpt lat="45.61219" lon="5.31409">
        <ele>340</ele>
        <time>2021-04-04T08:15:48.027Z</time>
      </trkpt>
      <trkpt lat="45.61215" lon="5.31393">
        <ele>339</ele>
        <time>2021-04-04T08:15:49.028Z</time>
      </trkpt>
      <trkpt lat="45.61211" lon="5.31378">
        <ele>339</ele>
        <time>2021-04-04T08:15:50.027Z</time>
      </trkpt>
      <trkpt lat="45.61207" lon="5.31362">
        <ele>338</ele>
        <time>2021-04-04T08:15:51.028Z</time>
      </trkpt>
      <trkpt lat="45.61203" lon="5.31347">
        <ele>337</ele>
        <time>2021-04-04T08:15:52.028Z</time>
      </trkpt>
      <trkpt lat="45.61198" lon="5.31331">
        <ele>337</ele>
        <time>2021-04-04T08:15:53.028Z</time>
      </trkpt>
      <trkpt lat="45.61194" lon="5.31317">
        <ele>336</ele>
        <time>2021-04-04T08:15:54.028Z</time>
      </trkpt>
      <trkpt lat="45.61189" lon="5.31302">
        <ele>336</ele>
        <time>2021-04-04T08:15:55.027Z</time>
      </trkpt>
      <trkpt lat="45.61184" lon="5.31288">
        <ele>335</ele>
        <time>2021-04-04T08:15:56.027Z</time>
      </trkpt>
      <trkpt lat="45.61179" lon="5.31275">
        <ele>334</ele>
        <time>2021-04-04T08:15:57.028Z</time>
      </trkpt>
      <trkpt lat="45.61173" lon="5.31262">
        <ele>334</ele>
        <time>2021-04-04T08:15:58.028Z</time>
      </trkpt>
      <trkpt lat="45.61167" lon="5.3125">
        <ele>333</ele>
        <time>2021-04-04T08:15:59.028Z</time>
      </trkpt>
      <trkpt lat="45.61162" lon="5.31239">
        <ele>333</ele>
        <time>2021-04-04T08:16:00.027Z</time>
      </trkpt>
      <trkpt lat="45.61156" lon="5.31227">
        <ele>332</ele>
        <time>2021-04-04T08:16:01.027Z</time>
      </trkpt>
      <trkpt lat="45.61151" lon="5.31217">
        <ele>332</ele>
        <time>2021-04-04T08:16:02.028Z</time>
      </trkpt>
      <trkpt lat="45.61145" lon="5.31206">
        <ele>332</ele>
        <time>2021-04-04T08:16:03.028Z</time>
      </trkpt>
      <trkpt lat="45.61141" lon="5.31197">
        <ele>332</ele>
        <time>2021-04-04T08:16:04.028Z</time>
      </trkpt>
      <trkpt lat="45.61136" lon="5.31187">
        <ele>332</ele>
        <time>2021-04-04T08:16:05.027Z</time>
      </trkpt>
      <trkpt lat="45.61132" lon="5.31179">
        <ele>332</ele>
        <time>2021-04-04T08:16:06.028Z</time>
      </trkpt>
      <trkpt lat="45.61128" lon="5.3117">
        <ele>332</ele>
        <time>2021-04-04T08:16:07.028Z</time>
      </trkpt>
      <trkpt lat="45.61124" lon="5.31162">
        <ele>332</ele>
        <time>2021-04-04T08:16:08.028Z</time>
      </trkpt>
      <trkpt lat="45.6112" lon="5.31155">
        <ele>333</ele>
        <time>2021-04-04T08:16:09.027Z</time>
      </trkpt>
      <trkpt lat="45.61117" lon="5.31147">
        <ele>333</ele>
        <time>2021-04-04T08:16:10.028Z</time>
      </trkpt>
      <trkpt lat="45.61113" lon="5.3114">
        <ele>333</ele>
        <time>2021-04-04T08:16:11.027Z</time>
      </trkpt>
      <trkpt lat="45.6111" lon="5.31132">
        <ele>334</ele>
        <time>2021-04-04T08:16:12.028Z</time>
      </trkpt>
      <trkpt lat="45.61107" lon="5.31125">
        <ele>334</ele>
        <time>2021-04-04T08:16:13.028Z</time>
      </trkpt>
      <trkpt lat="45.61105" lon="5.31117">
        <ele>334</ele>
        <time>2021-04-04T08:16:14.028Z</time>
      </trkpt>
      <trkpt lat="45.61102" lon="5.3111">
        <ele>335</ele>
        <time>2021-04-04T08:16:15.028Z</time>
      </trkpt>
      <trkpt lat="45.61099" lon="5.31103">
        <ele>335</ele>
        <time>2021-04-04T08:16:16.028Z</time>
      </trkpt>
      <trkpt lat="45.61096" lon="5.31095">
        <ele>336</ele>
        <time>2021-04-04T08:16:17.028Z</time>
      </trkpt>
      <trkpt lat="45.61094" lon="5.31088">
        <ele>336</ele>
        <time>2021-04-04T08:16:18.027Z</time>
      </trkpt>
      <trkpt lat="45.61091" lon="5.3108">
        <ele>336</ele>
        <time>2021-04-04T08:16:19.028Z</time>
      </trkpt>
      <trkpt lat="45.61088" lon="5.31073">
        <ele>337</ele>
        <time>2021-04-04T08:16:20.027Z</time>
      </trkpt>
      <trkpt lat="45.61086" lon="5.31066">
        <ele>337</ele>
        <time>2021-04-04T08:16:21.028Z</time>
      </trkpt>
      <trkpt lat="45.61083" lon="5.31059">
        <ele>337</ele>
        <time>2021-04-04T08:16:22.027Z</time>
      </trkpt>
      <trkpt lat="45.6108" lon="5.31053">
        <ele>338</ele>
        <time>2021-04-04T08:16:23.028Z</time>
      </trkpt>
      <trkpt lat="45.61077" lon="5.31046">
        <ele>338</ele>
        <time>2021-04-04T08:16:24.027Z</time>
      </trkpt>
      <trkpt lat="45.61075" lon="5.31039">
        <ele>339</ele>
        <time>2021-04-04T08:16:25.028Z</time>
      </trkpt>
      <trkpt lat="45.61072" lon="5.31033">
        <ele>339</ele>
        <time>2021-04-04T08:16:26.028Z</time>
      </trkpt>
      <trkpt lat="45.61069" lon="5.31026">
        <ele>340</ele>
        <time>2021-04-04T08:16:27.028Z</time>
      </trkpt>
      <trkpt lat="45.61066" lon="5.3102">
        <ele>341</ele>
        <time>2021-04-04T08:16:28.027Z</time>
      </trkpt>
      <trkpt lat="45.61063" lon="5.31013">
        <ele>341</ele>
        <time>2021-04-04T08:16:29.027Z</time>
      </trkpt>
      <trkpt lat="45.6106" lon="5.31007">
        <ele>341</ele>
        <time>2021-04-04T08:16:30.028Z</time>
      </trkpt>
      <trkpt lat="45.61057" lon="5.31001">
        <ele>341</ele>
        <time>2021-04-04T08:16:31.028Z</time>
      </trkpt>
      <trkpt lat="45.61054" lon="5.30994">
        <ele>342</ele>
        <time>2021-04-04T08:16:32.028Z</time>
      </trkpt>
      <trkpt lat="45.61051" lon="5.30988">
        <ele>342</ele>
        <time>2021-04-04T08:16:33.028Z</time>
      </trkpt>
      <trkpt lat="45.61048" lon="5.30982">
        <ele>342</ele>
        <time>2021-04-04T08:16:34.028Z</time>
      </trkpt>
      <trkpt lat="45.61044" lon="5.30975">
        <ele>343</ele>
        <time>2021-04-04T08:16:35.027Z</time>
      </trkpt>
      <trkpt lat="45.61041" lon="5.30969">
        <ele>344</ele>
        <time>2021-04-04T08:16:36.028Z</time>
      </trkpt>
      <trkpt lat="45.61038" lon="5.30962">
        <ele>345</ele>
        <time>2021-04-04T08:16:37.027Z</time>
      </trkpt>
      <trkpt lat="45.61035" lon="5.30955">
        <ele>345</ele>
        <time>2021-04-04T08:16:38.028Z</time>
      </trkpt>
      <trkpt lat="45.61032" lon="5.30949">
        <ele>346</ele>
        <time>2021-04-04T08:16:39.027Z</time>
      </trkpt>
      <trkpt lat="45.61028" lon="5.30943">
        <ele>346</ele>
        <time>2021-04-04T08:16:40.028Z</time>
      </trkpt>
      <trkpt lat="45.61025" lon="5.30936">
        <ele>346</ele>
        <time>2021-04-04T08:16:41.027Z</time>
      </trkpt>
      <trkpt lat="45.61022" lon="5.3093">
        <ele>347</ele>
        <time>2021-04-04T08:16:42.027Z</time>
      </trkpt>
      <trkpt lat="45.6102" lon="5.30924">
        <ele>347</ele>
        <time>2021-04-04T08:16:43.028Z</time>
      </trkpt>
      <trkpt lat="45.61017" lon="5.30919">
        <ele>347</ele>
        <time>2021-04-04T08:16:44.028Z</time>
      </trkpt>
      <trkpt lat="45.61014" lon="5.30913">
        <ele>348</ele>
        <time>2021-04-04T08:16:45.028Z</time>
      </trkpt>
      <trkpt lat="45.61011" lon="5.30907">
        <ele>348</ele>
        <time>2021-04-04T08:16:46.027Z</time>
      </trkpt>
      <trkpt lat="45.61009" lon="5.30901">
        <ele>349</ele>
        <time>2021-04-04T08:16:47.028Z</time>
      </trkpt>
      <trkpt lat="45.61006" lon="5.30895">
        <ele>349</ele>
        <time>2021-04-04T08:16:48.027Z</time>
      </trkpt>
      <trkpt lat="45.61003" lon="5.30889">
        <ele>350</ele>
        <time>2021-04-04T08:16:49.028Z</time>
      </trkpt>
      <trkpt lat="45.61001" lon="5.30883">
        <ele>350</ele>
        <time>2021-04-04T08:16:50.028Z</time>
      </trkpt>
      <trkpt lat="45.60998" lon="5.30878">
        <ele>351</ele>
        <time>2021-04-04T08:16:51.027Z</time>
      </trkpt>
      <trkpt lat="45.60996" lon="5.30872">
        <ele>351</ele>
        <time>2021-04-04T08:16:52.028Z</time>
      </trkpt>
      <trkpt lat="45.60993" lon="5.30867">
        <ele>350</ele>
        <time>2021-04-04T08:16:53.028Z</time>
      </trkpt>
      <trkpt lat="45.6099" lon="5.30861">
        <ele>350</ele>
        <time>2021-04-04T08:16:54.028Z</time>
      </trkpt>
      <trkpt lat="45.60987" lon="5.30855">
        <ele>350</ele>
        <time>2021-04-04T08:16:55.028Z</time>
      </trkpt>
      <trkpt lat="45.60985" lon="5.3085">
        <ele>350</ele>
        <time>2021-04-04T08:16:56.028Z</time>
      </trkpt>
      <trkpt lat="45.60982" lon="5.30844">
        <ele>350</ele>
        <time>2021-04-04T08:16:57.027Z</time>
      </trkpt>
      <trkpt lat="45.60979" lon="5.30838">
        <ele>351</ele>
        <time>2021-04-04T08:16:58.028Z</time>
      </trkpt>
      <trkpt lat="45.60977" lon="5.30832">
        <ele>351</ele>
        <time>2021-04-04T08:16:59.028Z</time>
      </trkpt>
      <trkpt lat="45.60974" lon="5.30826">
        <ele>352</ele>
        <time>2021-04-04T08:17:00.028Z</time>
      </trkpt>
      <trkpt lat="45.60972" lon="5.30821">
        <ele>352</ele>
        <time>2021-04-04T08:17:01.028Z</time>
      </trkpt>
      <trkpt lat="45.60969" lon="5.30815">
        <ele>352</ele>
        <time>2021-04-04T08:17:02.028Z</time>
      </trkpt>
      <trkpt lat="45.60966" lon="5.30809">
        <ele>352</ele>
        <time>2021-04-04T08:17:03.028Z</time>
      </trkpt>
      <trkpt lat="45.60964" lon="5.30804">
        <ele>353</ele>
        <time>2021-04-04T08:17:04.028Z</time>
      </trkpt>
      <trkpt lat="45.60961" lon="5.30798">
        <ele>353</ele>
        <time>2021-04-04T08:17:05.028Z</time>
      </trkpt>
      <trkpt lat="45.60959" lon="5.30793">
        <ele>353</ele>
        <time>2021-04-04T08:17:06.028Z</time>
      </trkpt>
      <trkpt lat="45.60956" lon="5.30787">
        <ele>353</ele>
        <time>2021-04-04T08:17:07.028Z</time>
      </trkpt>
      <trkpt lat="45.60954" lon="5.30781">
        <ele>353</ele>
        <time>2021-04-04T08:17:08.028Z</time>
      </trkpt>
      <trkpt lat="45.60951" lon="5.30776">
        <ele>354</ele>
        <time>2021-04-04T08:17:09.027Z</time>
      </trkpt>
      <trkpt lat="45.60949" lon="5.3077">
        <ele>354</ele>
        <time>2021-04-04T08:17:10.027Z</time>
      </trkpt>
      <trkpt lat="45.60946" lon="5.30764">
        <ele>354</ele>
        <time>2021-04-04T08:17:11.028Z</time>
      </trkpt>
      <trkpt lat="45.60944" lon="5.30758">
        <ele>355</ele>
        <time>2021-04-04T08:17:12.028Z</time>
      </trkpt>
      <trkpt lat="45.60941" lon="5.30752">
        <ele>355</ele>
        <time>2021-04-04T08:17:13.027Z</time>
      </trkpt>
      <trkpt lat="45.60939" lon="5.30746">
        <ele>355</ele>
        <time>2021-04-04T08:17:14.028Z</time>
      </trkpt>
      <trkpt lat="45.60936" lon="5.30741">
        <ele>355</ele>
        <time>2021-04-04T08:17:15.028Z</time>
      </trkpt>
      <trkpt lat="45.60933" lon="5.30735">
        <ele>355</ele>
        <time>2021-04-04T08:17:16.028Z</time>
      </trkpt>
      <trkpt lat="45.6093" lon="5.3073">
        <ele>355</ele>
        <time>2021-04-04T08:17:17.027Z</time>
      </trkpt>
      <trkpt lat="45.60927" lon="5.30724">
        <ele>355</ele>
        <time>2021-04-04T08:17:18.027Z</time>
      </trkpt>
      <trkpt lat="45.60924" lon="5.30718">
        <ele>355</ele>
        <time>2021-04-04T08:17:19.028Z</time>
      </trkpt>
      <trkpt lat="45.60921" lon="5.30713">
        <ele>355</ele>
        <time>2021-04-04T08:17:20.028Z</time>
      </trkpt>
      <trkpt lat="45.60917" lon="5.30707">
        <ele>355</ele>
        <time>2021-04-04T08:17:21.027Z</time>
      </trkpt>
      <trkpt lat="45.60913" lon="5.30701">
        <ele>355</ele>
        <time>2021-04-04T08:17:22.027Z</time>
      </trkpt>
      <trkpt lat="45.60909" lon="5.30695">
        <ele>356</ele>
        <time>2021-04-04T08:17:23.027Z</time>
      </trkpt>
      <trkpt lat="45.60905" lon="5.30689">
        <ele>355</ele>
        <time>2021-04-04T08:17:24.028Z</time>
      </trkpt>
      <trkpt lat="45.60901" lon="5.30683">
        <ele>355</ele>
        <time>2021-04-04T08:17:25.028Z</time>
      </trkpt>
      <trkpt lat="45.60896" lon="5.30676">
        <ele>355</ele>
        <time>2021-04-04T08:17:26.028Z</time>
      </trkpt>
      <trkpt lat="45.60891" lon="5.3067">
        <ele>355</ele>
        <time>2021-04-04T08:17:27.028Z</time>
      </trkpt>
      <trkpt lat="45.60886" lon="5.30663">
        <ele>355</ele>
        <time>2021-04-04T08:17:28.028Z</time>
      </trkpt>
      <trkpt lat="45.60881" lon="5.30656">
        <ele>355</ele>
        <time>2021-04-04T08:17:29.028Z</time>
      </trkpt>
      <trkpt lat="45.60876" lon="5.30649">
        <ele>355</ele>
        <time>2021-04-04T08:17:30.028Z</time>
      </trkpt>
      <trkpt lat="45.6087" lon="5.30642">
        <ele>355</ele>
        <time>2021-04-04T08:17:31.027Z</time>
      </trkpt>
      <trkpt lat="45.60865" lon="5.30635">
        <ele>355</ele>
        <time>2021-04-04T08:17:32.028Z</time>
      </trkpt>
      <trkpt lat="45.60859" lon="5.30627">
        <ele>354</ele>
        <time>2021-04-04T08:17:33.028Z</time>
      </trkpt>
      <trkpt lat="45.60853" lon="5.3062">
        <ele>354</ele>
        <time>2021-04-04T08:17:34.028Z</time>
      </trkpt>
      <trkpt lat="45.60848" lon="5.30612">
        <ele>354</ele>
        <time>2021-04-04T08:17:35.027Z</time>
      </trkpt>
      <trkpt lat="45.60842" lon="5.30603">
        <ele>354</ele>
        <time>2021-04-04T08:17:36.028Z</time>
      </trkpt>
      <trkpt lat="45.60837" lon="5.30595">
        <ele>354</ele>
        <time>2021-04-04T08:17:37.028Z</time>
      </trkpt>
      <trkpt lat="45.60831" lon="5.30586">
        <ele>354</ele>
        <time>2021-04-04T08:17:38.028Z</time>
      </trkpt>
      <trkpt lat="45.60826" lon="5.30578">
        <ele>354</ele>
        <time>2021-04-04T08:17:39.028Z</time>
      </trkpt>
      <trkpt lat="45.60821" lon="5.30568">
        <ele>353</ele>
        <time>2021-04-04T08:17:40.027Z</time>
      </trkpt>
      <trkpt lat="45.60817" lon="5.30559">
        <ele>353</ele>
        <time>2021-04-04T08:17:41.028Z</time>
      </trkpt>
      <trkpt lat="45.60812" lon="5.3055">
        <ele>353</ele>
        <time>2021-04-04T08:17:42.028Z</time>
      </trkpt>
      <trkpt lat="45.60809" lon="5.3054">
        <ele>353</ele>
        <time>2021-04-04T08:17:43.028Z</time>
      </trkpt>
      <trkpt lat="45.60805" lon="5.30531">
        <ele>353</ele>
        <time>2021-04-04T08:17:44.027Z</time>
      </trkpt>
      <trkpt lat="45.60801" lon="5.30521">
        <ele>353</ele>
        <time>2021-04-04T08:17:45.028Z</time>
      </trkpt>
      <trkpt lat="45.60798" lon="5.30511">
        <ele>353</ele>
        <time>2021-04-04T08:17:46.028Z</time>
      </trkpt>
      <trkpt lat="45.60794" lon="5.30502">
        <ele>353</ele>
        <time>2021-04-04T08:17:47.028Z</time>
      </trkpt>
      <trkpt lat="45.60791" lon="5.30492">
        <ele>353</ele>
        <time>2021-04-04T08:17:48.028Z</time>
      </trkpt>
      <trkpt lat="45.60788" lon="5.30482">
        <ele>353</ele>
        <time>2021-04-04T08:17:49.027Z</time>
      </trkpt>
      <trkpt lat="45.60785" lon="5.30472">
        <ele>353</ele>
        <time>2021-04-04T08:17:50.028Z</time>
      </trkpt>
      <trkpt lat="45.60781" lon="5.30462">
        <ele>353</ele>
        <time>2021-04-04T08:17:51.028Z</time>
      </trkpt>
      <trkpt lat="45.60778" lon="5.30452">
        <ele>353</ele>
        <time>2021-04-04T08:17:52.027Z</time>
      </trkpt>
      <trkpt lat="45.60775" lon="5.30442">
        <ele>353</ele>
        <time>2021-04-04T08:17:53.028Z</time>
      </trkpt>
      <trkpt lat="45.60772" lon="5.30432">
        <ele>353</ele>
        <time>2021-04-04T08:17:54.028Z</time>
      </trkpt>
      <trkpt lat="45.60769" lon="5.30423">
        <ele>354</ele>
        <time>2021-04-04T08:17:55.028Z</time>
      </trkpt>
      <trkpt lat="45.60766" lon="5.30413">
        <ele>354</ele>
        <time>2021-04-04T08:17:56.027Z</time>
      </trkpt>
      <trkpt lat="45.60763" lon="5.30403">
        <ele>354</ele>
        <time>2021-04-04T08:17:57.028Z</time>
      </trkpt>
      <trkpt lat="45.60761" lon="5.30393">
        <ele>354</ele>
        <time>2021-04-04T08:17:58.028Z</time>
      </trkpt>
      <trkpt lat="45.60758" lon="5.30383">
        <ele>353</ele>
        <time>2021-04-04T08:17:59.028Z</time>
      </trkpt>
      <trkpt lat="45.60756" lon="5.30373">
        <ele>353</ele>
        <time>2021-04-04T08:18:00.028Z</time>
      </trkpt>
      <trkpt lat="45.60753" lon="5.30364">
        <ele>353</ele>
        <time>2021-04-04T08:18:01.028Z</time>
      </trkpt>
      <trkpt lat="45.60751" lon="5.30354">
        <ele>353</ele>
        <time>2021-04-04T08:18:02.028Z</time>
      </trkpt>
      <trkpt lat="45.60749" lon="5.30345">
        <ele>353</ele>
        <time>2021-04-04T08:18:03.028Z</time>
      </trkpt>
      <trkpt lat="45.60747" lon="5.30336">
        <ele>352</ele>
        <time>2021-04-04T08:18:04.027Z</time>
      </trkpt>
      <trkpt lat="45.60746" lon="5.30327">
        <ele>352</ele>
        <time>2021-04-04T08:18:05.028Z</time>
      </trkpt>
      <trkpt lat="45.60743" lon="5.3032">
        <ele>352</ele>
        <time>2021-04-04T08:18:06.027Z</time>
      </trkpt>
      <trkpt lat="45.60739" lon="5.30314">
        <ele>351</ele>
        <time>2021-04-04T08:18:07.028Z</time>
      </trkpt>
      <trkpt lat="45.60733" lon="5.3031">
        <ele>351</ele>
        <time>2021-04-04T08:18:08.028Z</time>
      </trkpt>
      <trkpt lat="45.60727" lon="5.30307">
        <ele>351</ele>
        <time>2021-04-04T08:18:09.028Z</time>
      </trkpt>
      <trkpt lat="45.60721" lon="5.30305">
        <ele>351</ele>
        <time>2021-04-04T08:18:10.027Z</time>
      </trkpt>
      <trkpt lat="45.60714" lon="5.30303">
        <ele>350</ele>
        <time>2021-04-04T08:18:11.028Z</time>
      </trkpt>
      <trkpt lat="45.60707" lon="5.30301">
        <ele>350</ele>
        <time>2021-04-04T08:18:12.028Z</time>
      </trkpt>
      <trkpt lat="45.607" lon="5.303">
        <ele>350</ele>
        <time>2021-04-04T08:18:13.028Z</time>
      </trkpt>
      <trkpt lat="45.60693" lon="5.30299">
        <ele>350</ele>
        <time>2021-04-04T08:18:14.028Z</time>
      </trkpt>
      <trkpt lat="45.60686" lon="5.30298">
        <ele>349</ele>
        <time>2021-04-04T08:18:15.028Z</time>
      </trkpt>
      <trkpt lat="45.60679" lon="5.30297">
        <ele>349</ele>
        <time>2021-04-04T08:18:16.027Z</time>
      </trkpt>
      <trkpt lat="45.60672" lon="5.30297">
        <ele>349</ele>
        <time>2021-04-04T08:18:17.028Z</time>
      </trkpt>
      <trkpt lat="45.60665" lon="5.30297">
        <ele>349</ele>
        <time>2021-04-04T08:18:18.028Z</time>
      </trkpt>
      <trkpt lat="45.60658" lon="5.30297">
        <ele>348</ele>
        <time>2021-04-04T08:18:19.028Z</time>
      </trkpt>
      <trkpt lat="45.60651" lon="5.30296">
        <ele>348</ele>
        <time>2021-04-04T08:18:20.027Z</time>
      </trkpt>
      <trkpt lat="45.60644" lon="5.30296">
        <ele>348</ele>
        <time>2021-04-04T08:18:21.028Z</time>
      </trkpt>
      <trkpt lat="45.60637" lon="5.30296">
        <ele>348</ele>
        <time>2021-04-04T08:18:22.028Z</time>
      </trkpt>
      <trkpt lat="45.60631" lon="5.30296">
        <ele>348</ele>
        <time>2021-04-04T08:18:23.028Z</time>
      </trkpt>
      <trkpt lat="45.60624" lon="5.30295">
        <ele>348</ele>
        <time>2021-04-04T08:18:24.028Z</time>
      </trkpt>
      <trkpt lat="45.60618" lon="5.30294">
        <ele>348</ele>
        <time>2021-04-04T08:18:25.028Z</time>
      </trkpt>
      <trkpt lat="45.60612" lon="5.30294">
        <ele>349</ele>
        <time>2021-04-04T08:18:26.028Z</time>
      </trkpt>
      <trkpt lat="45.60606" lon="5.30293">
        <ele>349</ele>
        <time>2021-04-04T08:18:27.028Z</time>
      </trkpt>
      <trkpt lat="45.606" lon="5.30293">
        <ele>349</ele>
        <time>2021-04-04T08:18:28.028Z</time>
      </trkpt>
      <trkpt lat="45.60594" lon="5.30293">
        <ele>349</ele>
        <time>2021-04-04T08:18:29.027Z</time>
      </trkpt>
      <trkpt lat="45.60588" lon="5.30292">
        <ele>349</ele>
        <time>2021-04-04T08:18:30.028Z</time>
      </trkpt>
      <trkpt lat="45.60582" lon="5.30291">
        <ele>349</ele>
        <time>2021-04-04T08:18:31.028Z</time>
      </trkpt>
      <trkpt lat="45.60576" lon="5.3029">
        <ele>349</ele>
        <time>2021-04-04T08:18:32.028Z</time>
      </trkpt>
      <trkpt lat="45.60571" lon="5.30289">
        <ele>350</ele>
        <time>2021-04-04T08:18:33.028Z</time>
      </trkpt>
      <trkpt lat="45.60565" lon="5.30289">
        <ele>350</ele>
        <time>2021-04-04T08:18:34.028Z</time>
      </trkpt>
      <trkpt lat="45.60559" lon="5.30288">
        <ele>350</ele>
        <time>2021-04-04T08:18:35.028Z</time>
      </trkpt>
      <trkpt lat="45.60554" lon="5.30287">
        <ele>351</ele>
        <time>2021-04-04T08:18:36.028Z</time>
      </trkpt>
      <trkpt lat="45.60549" lon="5.30286">
        <ele>351</ele>
        <time>2021-04-04T08:18:37.028Z</time>
      </trkpt>
      <trkpt lat="45.60545" lon="5.30285">
        <ele>352</ele>
        <time>2021-04-04T08:18:38.028Z</time>
      </trkpt>
      <trkpt lat="45.60542" lon="5.30284">
        <ele>352</ele>
        <time>2021-04-04T08:18:39.027Z</time>
      </trkpt>
      <trkpt lat="45.60539" lon="5.30284">
        <ele>353</ele>
        <time>2021-04-04T08:18:40.028Z</time>
      </trkpt>
      <trkpt lat="45.60537" lon="5.30283">
        <ele>353</ele>
        <time>2021-04-04T08:18:41.028Z</time>
      </trkpt>
      <trkpt lat="45.60535" lon="5.30282">
        <ele>353</ele>
        <time>2021-04-04T08:18:42.028Z</time>
      </trkpt>
      <trkpt lat="45.60532" lon="5.30281">
        <ele>353</ele>
        <time>2021-04-04T08:18:43.028Z</time>
      </trkpt>
      <trkpt lat="45.60529" lon="5.30281">
        <ele>353</ele>
        <time>2021-04-04T08:18:44.028Z</time>
      </trkpt>
      <trkpt lat="45.60525" lon="5.3028">
        <ele>353</ele>
        <time>2021-04-04T08:18:45.028Z</time>
      </trkpt>
      <trkpt lat="45.60521" lon="5.3028">
        <ele>353</ele>
        <time>2021-04-04T08:18:46.028Z</time>
      </trkpt>
      <trkpt lat="45.60516" lon="5.30279">
        <ele>353</ele>
        <time>2021-04-04T08:18:47.028Z</time>
      </trkpt>
      <trkpt lat="45.60512" lon="5.30278">
        <ele>353</ele>
        <time>2021-04-04T08:18:48.028Z</time>
      </trkpt>
      <trkpt lat="45.60507" lon="5.30278">
        <ele>354</ele>
        <time>2021-04-04T08:18:49.028Z</time>
      </trkpt>
      <trkpt lat="45.60501" lon="5.30277">
        <ele>354</ele>
        <time>2021-04-04T08:18:50.028Z</time>
      </trkpt>
      <trkpt lat="45.60495" lon="5.30277">
        <ele>354</ele>
        <time>2021-04-04T08:18:51.028Z</time>
      </trkpt>
      <trkpt lat="45.60489" lon="5.30276">
        <ele>354</ele>
        <time>2021-04-04T08:18:52.027Z</time>
      </trkpt>
      <trkpt lat="45.60483" lon="5.30275">
        <ele>355</ele>
        <time>2021-04-04T08:18:53.028Z</time>
      </trkpt>
      <trkpt lat="45.60476" lon="5.30274">
        <ele>354</ele>
        <time>2021-04-04T08:18:54.028Z</time>
      </trkpt>
      <trkpt lat="45.6047" lon="5.30273">
        <ele>354</ele>
        <time>2021-04-04T08:18:55.028Z</time>
      </trkpt>
      <trkpt lat="45.60465" lon="5.30273">
        <ele>354</ele>
        <time>2021-04-04T08:18:56.027Z</time>
      </trkpt>
      <trkpt lat="45.60457" lon="5.30272">
        <ele>353</ele>
        <time>2021-04-04T08:18:57.028Z</time>
      </trkpt>
      <trkpt lat="45.60451" lon="5.30272">
        <ele>353</ele>
        <time>2021-04-04T08:18:58.028Z</time>
      </trkpt>
      <trkpt lat="45.60445" lon="5.30272">
        <ele>353</ele>
        <time>2021-04-04T08:18:59.028Z</time>
      </trkpt>
      <trkpt lat="45.60439" lon="5.30272">
        <ele>352</ele>
        <time>2021-04-04T08:19:00.028Z</time>
      </trkpt>
      <trkpt lat="45.60433" lon="5.30272">
        <ele>351</ele>
        <time>2021-04-04T08:19:01.028Z</time>
      </trkpt>
      <trkpt lat="45.60427" lon="5.30271">
        <ele>351</ele>
        <time>2021-04-04T08:19:02.028Z</time>
      </trkpt>
      <trkpt lat="45.60421" lon="5.30271">
        <ele>350</ele>
        <time>2021-04-04T08:19:03.028Z</time>
      </trkpt>
      <trkpt lat="45.60415" lon="5.3027">
        <ele>350</ele>
        <time>2021-04-04T08:19:04.027Z</time>
      </trkpt>
      <trkpt lat="45.60409" lon="5.30269">
        <ele>350</ele>
        <time>2021-04-04T08:19:05.027Z</time>
      </trkpt>
      <trkpt lat="45.60403" lon="5.30269">
        <ele>349</ele>
        <time>2021-04-04T08:19:06.028Z</time>
      </trkpt>
      <trkpt lat="45.60397" lon="5.30268">
        <ele>349</ele>
        <time>2021-04-04T08:19:07.028Z</time>
      </trkpt>
      <trkpt lat="45.60391" lon="5.30268">
        <ele>349</ele>
        <time>2021-04-04T08:19:08.027Z</time>
      </trkpt>
      <trkpt lat="45.60385" lon="5.30267">
        <ele>349</ele>
        <time>2021-04-04T08:19:09.028Z</time>
      </trkpt>
      <trkpt lat="45.60379" lon="5.30267">
        <ele>349</ele>
        <time>2021-04-04T08:19:10.028Z</time>
      </trkpt>
      <trkpt lat="45.60373" lon="5.30266">
        <ele>349</ele>
        <time>2021-04-04T08:19:11.028Z</time>
      </trkpt>
      <trkpt lat="45.60366" lon="5.30267">
        <ele>349</ele>
        <time>2021-04-04T08:19:12.028Z</time>
      </trkpt>
      <trkpt lat="45.6036" lon="5.30266">
        <ele>348</ele>
        <time>2021-04-04T08:19:13.027Z</time>
      </trkpt>
      <trkpt lat="45.60354" lon="5.30266">
        <ele>347</ele>
        <time>2021-04-04T08:19:14.027Z</time>
      </trkpt>
      <trkpt lat="45.60349" lon="5.30265">
        <ele>346</ele>
        <time>2021-04-04T08:19:15.028Z</time>
      </trkpt>
      <trkpt lat="45.60343" lon="5.30264">
        <ele>345</ele>
        <time>2021-04-04T08:19:16.027Z</time>
      </trkpt>
      <trkpt lat="45.60338" lon="5.30262">
        <ele>345</ele>
        <time>2021-04-04T08:19:17.028Z</time>
      </trkpt>
      <trkpt lat="45.60333" lon="5.30259">
        <ele>344</ele>
        <time>2021-04-04T08:19:18.028Z</time>
      </trkpt>
      <trkpt lat="45.60328" lon="5.30257">
        <ele>343</ele>
        <time>2021-04-04T08:19:19.027Z</time>
      </trkpt>
      <trkpt lat="45.60324" lon="5.30253">
        <ele>342</ele>
        <time>2021-04-04T08:19:20.028Z</time>
      </trkpt>
      <trkpt lat="45.6032" lon="5.30247">
        <ele>341</ele>
        <time>2021-04-04T08:19:21.028Z</time>
      </trkpt>
      <trkpt lat="45.60317" lon="5.30241">
        <ele>340</ele>
        <time>2021-04-04T08:19:22.027Z</time>
      </trkpt>
      <trkpt lat="45.60313" lon="5.30234">
        <ele>339</ele>
        <time>2021-04-04T08:19:23.028Z</time>
      </trkpt>
      <trkpt lat="45.60308" lon="5.30228">
        <ele>339</ele>
        <time>2021-04-04T08:19:24.028Z</time>
      </trkpt>
      <trkpt lat="45.60304" lon="5.30223">
        <ele>338</ele>
        <time>2021-04-04T08:19:25.028Z</time>
      </trkpt>
      <trkpt lat="45.603" lon="5.30219">
        <ele>337</ele>
        <time>2021-04-04T08:19:26.028Z</time>
      </trkpt>
      <trkpt lat="45.60296" lon="5.30216">
        <ele>337</ele>
        <time>2021-04-04T08:19:27.028Z</time>
      </trkpt>
      <trkpt lat="45.60294" lon="5.30212">
        <ele>336</ele>
        <time>2021-04-04T08:19:28.027Z</time>
      </trkpt>
      <trkpt lat="45.60291" lon="5.30209">
        <ele>335</ele>
        <time>2021-04-04T08:19:29.027Z</time>
      </trkpt>
      <trkpt lat="45.60289" lon="5.30207">
        <ele>335</ele>
        <time>2021-04-04T08:19:30.028Z</time>
      </trkpt>
      <trkpt lat="45.60286" lon="5.30205">
        <ele>334</ele>
        <time>2021-04-04T08:19:31.028Z</time>
      </trkpt>
      <trkpt lat="45.60283" lon="5.30203">
        <ele>334</ele>
        <time>2021-04-04T08:19:32.028Z</time>
      </trkpt>
      <trkpt lat="45.60281" lon="5.30199">
        <ele>333</ele>
        <time>2021-04-04T08:19:33.027Z</time>
      </trkpt>
      <trkpt lat="45.60277" lon="5.30193">
        <ele>333</ele>
        <time>2021-04-04T08:19:34.027Z</time>
      </trkpt>
      <trkpt lat="45.60275" lon="5.30186">
        <ele>332</ele>
        <time>2021-04-04T08:19:35.028Z</time>
      </trkpt>
      <trkpt lat="45.60273" lon="5.30178">
        <ele>331</ele>
        <time>2021-04-04T08:19:36.028Z</time>
      </trkpt>
      <trkpt lat="45.60273" lon="5.3017">
        <ele>330</ele>
        <time>2021-04-04T08:19:37.028Z</time>
      </trkpt>
      <trkpt lat="45.60273" lon="5.30161">
        <ele>328</ele>
        <time>2021-04-04T08:19:38.028Z</time>
      </trkpt>
      <trkpt lat="45.60272" lon="5.30153">
        <ele>327</ele>
        <time>2021-04-04T08:19:39.027Z</time>
      </trkpt>
      <trkpt lat="45.6027" lon="5.30145">
        <ele>326</ele>
        <time>2021-04-04T08:19:40.028Z</time>
      </trkpt>
      <trkpt lat="45.60267" lon="5.30138">
        <ele>325</ele>
        <time>2021-04-04T08:19:41.028Z</time>
      </trkpt>
      <trkpt lat="45.60263" lon="5.30131">
        <ele>324</ele>
        <time>2021-04-04T08:19:42.028Z</time>
      </trkpt>
      <trkpt lat="45.60257" lon="5.30125">
        <ele>323</ele>
        <time>2021-04-04T08:19:43.027Z</time>
      </trkpt>
      <trkpt lat="45.6025" lon="5.30119">
        <ele>323</ele>
        <time>2021-04-04T08:19:44.028Z</time>
      </trkpt>
      <trkpt lat="45.60243" lon="5.30115">
        <ele>322</ele>
        <time>2021-04-04T08:19:45.028Z</time>
      </trkpt>
      <trkpt lat="45.60236" lon="5.30112">
        <ele>322</ele>
        <time>2021-04-04T08:19:46.027Z</time>
      </trkpt>
      <trkpt lat="45.60228" lon="5.3011">
        <ele>321</ele>
        <time>2021-04-04T08:19:47.028Z</time>
      </trkpt>
      <trkpt lat="45.60221" lon="5.3011">
        <ele>321</ele>
        <time>2021-04-04T08:19:48.028Z</time>
      </trkpt>
      <trkpt lat="45.60214" lon="5.30111">
        <ele>320</ele>
        <time>2021-04-04T08:19:49.028Z</time>
      </trkpt>
      <trkpt lat="45.60206" lon="5.30114">
        <ele>320</ele>
        <time>2021-04-04T08:19:50.028Z</time>
      </trkpt>
      <trkpt lat="45.60199" lon="5.30118">
        <ele>319</ele>
        <time>2021-04-04T08:19:51.028Z</time>
      </trkpt>
      <trkpt lat="45.60192" lon="5.30124">
        <ele>318</ele>
        <time>2021-04-04T08:19:52.027Z</time>
      </trkpt>
      <trkpt lat="45.60185" lon="5.30131">
        <ele>317</ele>
        <time>2021-04-04T08:19:53.028Z</time>
      </trkpt>
      <trkpt lat="45.60178" lon="5.30139">
        <ele>316</ele>
        <time>2021-04-04T08:19:54.028Z</time>
      </trkpt>
      <trkpt lat="45.6017" lon="5.30146">
        <ele>315</ele>
        <time>2021-04-04T08:19:55.028Z</time>
      </trkpt>
      <trkpt lat="45.60163" lon="5.30154">
        <ele>314</ele>
        <time>2021-04-04T08:19:56.027Z</time>
      </trkpt>
      <trkpt lat="45.60156" lon="5.30162">
        <ele>313</ele>
        <time>2021-04-04T08:19:57.028Z</time>
      </trkpt>
      <trkpt lat="45.60149" lon="5.3017">
        <ele>312</ele>
        <time>2021-04-04T08:19:58.027Z</time>
      </trkpt>
      <trkpt lat="45.60142" lon="5.30177">
        <ele>312</ele>
        <time>2021-04-04T08:19:59.027Z</time>
      </trkpt>
      <trkpt lat="45.60135" lon="5.30183">
        <ele>311</ele>
        <time>2021-04-04T08:20:00.027Z</time>
      </trkpt>
      <trkpt lat="45.60128" lon="5.30188">
        <ele>310</ele>
        <time>2021-04-04T08:20:01.027Z</time>
      </trkpt>
      <trkpt lat="45.6012" lon="5.30193">
        <ele>310</ele>
        <time>2021-04-04T08:20:02.028Z</time>
      </trkpt>
      <trkpt lat="45.60113" lon="5.30197">
        <ele>309</ele>
        <time>2021-04-04T08:20:03.028Z</time>
      </trkpt>
      <trkpt lat="45.60106" lon="5.302">
        <ele>308</ele>
        <time>2021-04-04T08:20:04.028Z</time>
      </trkpt>
      <trkpt lat="45.60099" lon="5.30204">
        <ele>307</ele>
        <time>2021-04-04T08:20:05.028Z</time>
      </trkpt>
      <trkpt lat="45.60092" lon="5.30207">
        <ele>306</ele>
        <time>2021-04-04T08:20:06.028Z</time>
      </trkpt>
      <trkpt lat="45.60085" lon="5.3021">
        <ele>305</ele>
        <time>2021-04-04T08:20:07.027Z</time>
      </trkpt>
      <trkpt lat="45.60079" lon="5.30213">
        <ele>304</ele>
        <time>2021-04-04T08:20:08.028Z</time>
      </trkpt>
      <trkpt lat="45.60073" lon="5.30215">
        <ele>303</ele>
        <time>2021-04-04T08:20:09.028Z</time>
      </trkpt>
      <trkpt lat="45.60067" lon="5.30217">
        <ele>302</ele>
        <time>2021-04-04T08:20:10.028Z</time>
      </trkpt>
      <trkpt lat="45.60062" lon="5.30217">
        <ele>301</ele>
        <time>2021-04-04T08:20:11.028Z</time>
      </trkpt>
      <trkpt lat="45.60057" lon="5.30214">
        <ele>300</ele>
        <time>2021-04-04T08:20:12.028Z</time>
      </trkpt>
      <trkpt lat="45.60055" lon="5.30209">
        <ele>299</ele>
        <time>2021-04-04T08:20:13.027Z</time>
      </trkpt>
      <trkpt lat="45.60055" lon="5.30203">
        <ele>298</ele>
        <time>2021-04-04T08:20:14.027Z</time>
      </trkpt>
      <trkpt lat="45.60054" lon="5.30197">
        <ele>298</ele>
        <time>2021-04-04T08:20:15.028Z</time>
      </trkpt>
      <trkpt lat="45.60054" lon="5.30192">
        <ele>297</ele>
        <time>2021-04-04T08:20:16.027Z</time>
      </trkpt>
      <trkpt lat="45.60052" lon="5.30188">
        <ele>297</ele>
        <time>2021-04-04T08:20:17.028Z</time>
      </trkpt>
      <trkpt lat="45.60048" lon="5.30186">
        <ele>296</ele>
        <time>2021-04-04T08:20:18.028Z</time>
      </trkpt>
      <trkpt lat="45.60043" lon="5.30184">
        <ele>296</ele>
        <time>2021-04-04T08:20:19.028Z</time>
      </trkpt>
      <trkpt lat="45.60038" lon="5.30184">
        <ele>296</ele>
        <time>2021-04-04T08:20:20.028Z</time>
      </trkpt>
      <trkpt lat="45.60032" lon="5.30183">
        <ele>296</ele>
        <time>2021-04-04T08:20:21.028Z</time>
      </trkpt>
      <trkpt lat="45.60025" lon="5.30183">
        <ele>296</ele>
        <time>2021-04-04T08:20:22.028Z</time>
      </trkpt>
      <trkpt lat="45.60017" lon="5.30181">
        <ele>295</ele>
        <time>2021-04-04T08:20:23.027Z</time>
      </trkpt>
      <trkpt lat="45.60011" lon="5.30179">
        <ele>295</ele>
        <time>2021-04-04T08:20:24.028Z</time>
      </trkpt>
      <trkpt lat="45.60004" lon="5.30178">
        <ele>295</ele>
        <time>2021-04-04T08:20:25.027Z</time>
      </trkpt>
      <trkpt lat="45.59995" lon="5.30177">
        <ele>295</ele>
        <time>2021-04-04T08:20:26.028Z</time>
      </trkpt>
      <trkpt lat="45.59988" lon="5.30176">
        <ele>295</ele>
        <time>2021-04-04T08:20:27.027Z</time>
      </trkpt>
      <trkpt lat="45.59982" lon="5.30176">
        <ele>296</ele>
        <time>2021-04-04T08:20:28.027Z</time>
      </trkpt>
      <trkpt lat="45.59974" lon="5.30176">
        <ele>297</ele>
        <time>2021-04-04T08:20:29.028Z</time>
      </trkpt>
      <trkpt lat="45.59966" lon="5.30176">
        <ele>297</ele>
        <time>2021-04-04T08:20:30.027Z</time>
      </trkpt>
      <trkpt lat="45.59956" lon="5.30177">
        <ele>297</ele>
        <time>2021-04-04T08:20:31.027Z</time>
      </trkpt>
      <trkpt lat="45.59947" lon="5.30179">
        <ele>297</ele>
        <time>2021-04-04T08:20:32.027Z</time>
      </trkpt>
      <trkpt lat="45.59937" lon="5.30181">
        <ele>297</ele>
        <time>2021-04-04T08:20:33.028Z</time>
      </trkpt>
      <trkpt lat="45.5993" lon="5.3018">
        <ele>297</ele>
        <time>2021-04-04T08:20:34.027Z</time>
      </trkpt>
      <trkpt lat="45.59922" lon="5.30179">
        <ele>298</ele>
        <time>2021-04-04T08:20:35.027Z</time>
      </trkpt>
      <trkpt lat="45.59914" lon="5.30177">
        <ele>298</ele>
        <time>2021-04-04T08:20:36.027Z</time>
      </trkpt>
      <trkpt lat="45.59906" lon="5.30175">
        <ele>298</ele>
        <time>2021-04-04T08:20:37.028Z</time>
      </trkpt>
      <trkpt lat="45.599" lon="5.3017">
        <ele>298</ele>
        <time>2021-04-04T08:20:38.028Z</time>
      </trkpt>
      <trkpt lat="45.59893" lon="5.30166">
        <ele>297</ele>
        <time>2021-04-04T08:20:39.027Z</time>
      </trkpt>
      <trkpt lat="45.59885" lon="5.30164">
        <ele>296</ele>
        <time>2021-04-04T08:20:40.027Z</time>
      </trkpt>
      <trkpt lat="45.59876" lon="5.30161">
        <ele>295</ele>
        <time>2021-04-04T08:20:41.027Z</time>
      </trkpt>
      <trkpt lat="45.59868" lon="5.30157">
        <ele>294</ele>
        <time>2021-04-04T08:20:42.028Z</time>
      </trkpt>
      <trkpt lat="45.59861" lon="5.30153">
        <ele>293</ele>
        <time>2021-04-04T08:20:43.028Z</time>
      </trkpt>
      <trkpt lat="45.59855" lon="5.30151">
        <ele>292</ele>
        <time>2021-04-04T08:20:44.028Z</time>
      </trkpt>
      <trkpt lat="45.59846" lon="5.30148">
        <ele>292</ele>
        <time>2021-04-04T08:20:45.028Z</time>
      </trkpt>
      <trkpt lat="45.59838" lon="5.30145">
        <ele>291</ele>
        <time>2021-04-04T08:20:46.028Z</time>
      </trkpt>
      <trkpt lat="45.59831" lon="5.30142">
        <ele>290</ele>
        <time>2021-04-04T08:20:47.028Z</time>
      </trkpt>
      <trkpt lat="45.59825" lon="5.3014">
        <ele>289</ele>
        <time>2021-04-04T08:20:48.028Z</time>
      </trkpt>
      <trkpt lat="45.59818" lon="5.30137">
        <ele>289</ele>
        <time>2021-04-04T08:20:49.028Z</time>
      </trkpt>
      <trkpt lat="45.5981" lon="5.30133">
        <ele>288</ele>
        <time>2021-04-04T08:20:50.028Z</time>
      </trkpt>
      <trkpt lat="45.59803" lon="5.30127">
        <ele>287</ele>
        <time>2021-04-04T08:20:51.028Z</time>
      </trkpt>
      <trkpt lat="45.59794" lon="5.30122">
        <ele>287</ele>
        <time>2021-04-04T08:20:52.028Z</time>
      </trkpt>
      <trkpt lat="45.59786" lon="5.30115">
        <ele>286</ele>
        <time>2021-04-04T08:20:53.028Z</time>
      </trkpt>
      <trkpt lat="45.59779" lon="5.30108">
        <ele>285</ele>
        <time>2021-04-04T08:20:54.028Z</time>
      </trkpt>
      <trkpt lat="45.59772" lon="5.30101">
        <ele>284</ele>
        <time>2021-04-04T08:20:55.028Z</time>
      </trkpt>
      <trkpt lat="45.59764" lon="5.30093">
        <ele>283</ele>
        <time>2021-04-04T08:20:56.028Z</time>
      </trkpt>
      <trkpt lat="45.59757" lon="5.30086">
        <ele>282</ele>
        <time>2021-04-04T08:20:57.028Z</time>
      </trkpt>
      <trkpt lat="45.59751" lon="5.30079">
        <ele>281</ele>
        <time>2021-04-04T08:20:58.028Z</time>
      </trkpt>
      <trkpt lat="45.59744" lon="5.30071">
        <ele>280</ele>
        <time>2021-04-04T08:20:59.027Z</time>
      </trkpt>
      <trkpt lat="45.59739" lon="5.30063">
        <ele>279</ele>
        <time>2021-04-04T08:21:00.028Z</time>
      </trkpt>
      <trkpt lat="45.59732" lon="5.30054">
        <ele>278</ele>
        <time>2021-04-04T08:21:01.028Z</time>
      </trkpt>
      <trkpt lat="45.59727" lon="5.30046">
        <ele>278</ele>
        <time>2021-04-04T08:21:02.028Z</time>
      </trkpt>
      <trkpt lat="45.59722" lon="5.3004">
        <ele>277</ele>
        <time>2021-04-04T08:21:03.027Z</time>
      </trkpt>
      <trkpt lat="45.59716" lon="5.3003">
        <ele>277</ele>
        <time>2021-04-04T08:21:04.028Z</time>
      </trkpt>
      <trkpt lat="45.59711" lon="5.30023">
        <ele>276</ele>
        <time>2021-04-04T08:21:05.027Z</time>
      </trkpt>
      <trkpt lat="45.59707" lon="5.30018">
        <ele>276</ele>
        <time>2021-04-04T08:21:06.028Z</time>
      </trkpt>
      <trkpt lat="45.59702" lon="5.30012">
        <ele>276</ele>
        <time>2021-04-04T08:21:07.028Z</time>
      </trkpt>
      <trkpt lat="45.59697" lon="5.30006">
        <ele>276</ele>
        <time>2021-04-04T08:21:08.027Z</time>
      </trkpt>
      <trkpt lat="45.59692" lon="5.3">
        <ele>276</ele>
        <time>2021-04-04T08:21:09.028Z</time>
      </trkpt>
      <trkpt lat="45.59686" lon="5.29994">
        <ele>275</ele>
        <time>2021-04-04T08:21:10.027Z</time>
      </trkpt>
      <trkpt lat="45.59681" lon="5.2999">
        <ele>275</ele>
        <time>2021-04-04T08:21:11.027Z</time>
      </trkpt>
      <trkpt lat="45.59677" lon="5.29987">
        <ele>274</ele>
        <time>2021-04-04T08:21:12.028Z</time>
      </trkpt>
      <trkpt lat="45.59671" lon="5.29983">
        <ele>274</ele>
        <time>2021-04-04T08:21:13.028Z</time>
      </trkpt>
      <trkpt lat="45.59666" lon="5.29979">
        <ele>274</ele>
        <time>2021-04-04T08:21:14.028Z</time>
      </trkpt>
      <trkpt lat="45.5966" lon="5.29975">
        <ele>274</ele>
        <time>2021-04-04T08:21:15.028Z</time>
      </trkpt>
      <trkpt lat="45.59655" lon="5.29971">
        <ele>274</ele>
        <time>2021-04-04T08:21:16.028Z</time>
      </trkpt>
      <trkpt lat="45.59649" lon="5.29966">
        <ele>274</ele>
        <time>2021-04-04T08:21:17.028Z</time>
      </trkpt>
      <trkpt lat="45.59644" lon="5.2996">
        <ele>273</ele>
        <time>2021-04-04T08:21:18.028Z</time>
      </trkpt>
      <trkpt lat="45.5964" lon="5.29953">
        <ele>272</ele>
        <time>2021-04-04T08:21:19.028Z</time>
      </trkpt>
      <trkpt lat="45.59635" lon="5.29946">
        <ele>272</ele>
        <time>2021-04-04T08:21:20.028Z</time>
      </trkpt>
      <trkpt lat="45.59632" lon="5.29939">
        <ele>272</ele>
        <time>2021-04-04T08:21:21.028Z</time>
      </trkpt>
      <trkpt lat="45.59628" lon="5.29931">
        <ele>272</ele>
        <time>2021-04-04T08:21:22.028Z</time>
      </trkpt>
      <trkpt lat="45.59625" lon="5.29924">
        <ele>271</ele>
        <time>2021-04-04T08:21:23.028Z</time>
      </trkpt>
      <trkpt lat="45.59621" lon="5.29915">
        <ele>271</ele>
        <time>2021-04-04T08:21:24.028Z</time>
      </trkpt>
      <trkpt lat="45.59618" lon="5.29906">
        <ele>271</ele>
        <time>2021-04-04T08:21:25.028Z</time>
      </trkpt>
      <trkpt lat="45.59614" lon="5.29897">
        <ele>270</ele>
        <time>2021-04-04T08:21:26.027Z</time>
      </trkpt>
      <trkpt lat="45.59611" lon="5.29887">
        <ele>270</ele>
        <time>2021-04-04T08:21:27.028Z</time>
      </trkpt>
      <trkpt lat="45.59608" lon="5.29877">
        <ele>270</ele>
        <time>2021-04-04T08:21:28.028Z</time>
      </trkpt>
      <trkpt lat="45.59605" lon="5.29866">
        <ele>270</ele>
        <time>2021-04-04T08:21:29.027Z</time>
      </trkpt>
      <trkpt lat="45.59603" lon="5.29856">
        <ele>270</ele>
        <time>2021-04-04T08:21:30.028Z</time>
      </trkpt>
      <trkpt lat="45.596" lon="5.29846">
        <ele>270</ele>
        <time>2021-04-04T08:21:31.028Z</time>
      </trkpt>
      <trkpt lat="45.59598" lon="5.29835">
        <ele>270</ele>
        <time>2021-04-04T08:21:32.028Z</time>
      </trkpt>
      <trkpt lat="45.59595" lon="5.29825">
        <ele>269</ele>
        <time>2021-04-04T08:21:33.027Z</time>
      </trkpt>
      <trkpt lat="45.59593" lon="5.29816">
        <ele>269</ele>
        <time>2021-04-04T08:21:34.028Z</time>
      </trkpt>
      <trkpt lat="45.59591" lon="5.29806">
        <ele>269</ele>
        <time>2021-04-04T08:21:35.028Z</time>
      </trkpt>
      <trkpt lat="45.5959" lon="5.29796">
        <ele>268</ele>
        <time>2021-04-04T08:21:36.028Z</time>
      </trkpt>
      <trkpt lat="45.59589" lon="5.29787">
        <ele>268</ele>
        <time>2021-04-04T08:21:37.028Z</time>
      </trkpt>
      <trkpt lat="45.59589" lon="5.29777">
        <ele>267</ele>
        <time>2021-04-04T08:21:38.028Z</time>
      </trkpt>
      <trkpt lat="45.59589" lon="5.29768">
        <ele>266</ele>
        <time>2021-04-04T08:21:39.027Z</time>
      </trkpt>
      <trkpt lat="45.59589" lon="5.29758">
        <ele>266</ele>
        <time>2021-04-04T08:21:40.028Z</time>
      </trkpt>
      <trkpt lat="45.59589" lon="5.29748">
        <ele>266</ele>
        <time>2021-04-04T08:21:41.027Z</time>
      </trkpt>
      <trkpt lat="45.59589" lon="5.29738">
        <ele>266</ele>
        <time>2021-04-04T08:21:42.027Z</time>
      </trkpt>
      <trkpt lat="45.59588" lon="5.29728">
        <ele>266</ele>
        <time>2021-04-04T08:21:43.028Z</time>
      </trkpt>
      <trkpt lat="45.59588" lon="5.29719">
        <ele>266</ele>
        <time>2021-04-04T08:21:44.028Z</time>
      </trkpt>
      <trkpt lat="45.59587" lon="5.2971">
        <ele>266</ele>
        <time>2021-04-04T08:21:45.028Z</time>
      </trkpt>
      <trkpt lat="45.59586" lon="5.29701">
        <ele>265</ele>
        <time>2021-04-04T08:21:46.028Z</time>
      </trkpt>
      <trkpt lat="45.59584" lon="5.29692">
        <ele>266</ele>
        <time>2021-04-04T08:21:47.027Z</time>
      </trkpt>
      <trkpt lat="45.59583" lon="5.29683">
        <ele>267</ele>
        <time>2021-04-04T08:21:48.028Z</time>
      </trkpt>
      <trkpt lat="45.59581" lon="5.29675">
        <ele>267</ele>
        <time>2021-04-04T08:21:49.027Z</time>
      </trkpt>
      <trkpt lat="45.59579" lon="5.29667">
        <ele>267</ele>
        <time>2021-04-04T08:21:50.027Z</time>
      </trkpt>
      <trkpt lat="45.59577" lon="5.29659">
        <ele>268</ele>
        <time>2021-04-04T08:21:51.028Z</time>
      </trkpt>
      <trkpt lat="45.59574" lon="5.29651">
        <ele>268</ele>
        <time>2021-04-04T08:21:52.028Z</time>
      </trkpt>
      <trkpt lat="45.59571" lon="5.29644">
        <ele>268</ele>
        <time>2021-04-04T08:21:53.028Z</time>
      </trkpt>
      <trkpt lat="45.59567" lon="5.29636">
        <ele>268</ele>
        <time>2021-04-04T08:21:54.027Z</time>
      </trkpt>
      <trkpt lat="45.59562" lon="5.29628">
        <ele>267</ele>
        <time>2021-04-04T08:21:55.028Z</time>
      </trkpt>
      <trkpt lat="45.59557" lon="5.29621">
        <ele>266</ele>
        <time>2021-04-04T08:21:56.027Z</time>
      </trkpt>
      <trkpt lat="45.59551" lon="5.29612">
        <ele>266</ele>
        <time>2021-04-04T08:21:57.027Z</time>
      </trkpt>
      <trkpt lat="45.59548" lon="5.29607">
        <ele>265</ele>
        <time>2021-04-04T08:21:58.027Z</time>
      </trkpt>
      <trkpt lat="45.59543" lon="5.29599">
        <ele>265</ele>
        <time>2021-04-04T08:21:59.028Z</time>
      </trkpt>
      <trkpt lat="45.59539" lon="5.29593">
        <ele>264</ele>
        <time>2021-04-04T08:22:00.028Z</time>
      </trkpt>
      <trkpt lat="45.59535" lon="5.29586">
        <ele>264</ele>
        <time>2021-04-04T08:22:01.028Z</time>
      </trkpt>
      <trkpt lat="45.59532" lon="5.2958">
        <ele>264</ele>
        <time>2021-04-04T08:22:02.028Z</time>
      </trkpt>
      <trkpt lat="45.59529" lon="5.29575">
        <ele>263</ele>
        <time>2021-04-04T08:22:03.028Z</time>
      </trkpt>
      <trkpt lat="45.59526" lon="5.2957">
        <ele>262</ele>
        <time>2021-04-04T08:22:04.027Z</time>
      </trkpt>
      <trkpt lat="45.59525" lon="5.29566">
        <ele>262</ele>
        <time>2021-04-04T08:22:05.028Z</time>
      </trkpt>
      <trkpt lat="45.59523" lon="5.29561">
        <ele>262</ele>
        <time>2021-04-04T08:22:06.028Z</time>
      </trkpt>
      <trkpt lat="45.59521" lon="5.29556">
        <ele>261</ele>
        <time>2021-04-04T08:22:07.028Z</time>
      </trkpt>
      <trkpt lat="45.59519" lon="5.29552">
        <ele>261</ele>
        <time>2021-04-04T08:22:08.027Z</time>
      </trkpt>
      <trkpt lat="45.59516" lon="5.29546">
        <ele>261</ele>
        <time>2021-04-04T08:22:09.027Z</time>
      </trkpt>
      <trkpt lat="45.59512" lon="5.2954">
        <ele>261</ele>
        <time>2021-04-04T08:22:10.028Z</time>
      </trkpt>
      <trkpt lat="45.59509" lon="5.29533">
        <ele>260</ele>
        <time>2021-04-04T08:22:11.027Z</time>
      </trkpt>
      <trkpt lat="45.59504" lon="5.29524">
        <ele>260</ele>
        <time>2021-04-04T08:22:12.028Z</time>
      </trkpt>
      <trkpt lat="45.595" lon="5.29517">
        <ele>260</ele>
        <time>2021-04-04T08:22:13.028Z</time>
      </trkpt>
      <trkpt lat="45.59496" lon="5.29509">
        <ele>260</ele>
        <time>2021-04-04T08:22:14.027Z</time>
      </trkpt>
      <trkpt lat="45.59492" lon="5.29501">
        <ele>260</ele>
        <time>2021-04-04T08:22:15.027Z</time>
      </trkpt>
      <trkpt lat="45.59487" lon="5.29493">
        <ele>260</ele>
        <time>2021-04-04T08:22:16.028Z</time>
      </trkpt>
      <trkpt lat="45.59483" lon="5.29485">
        <ele>260</ele>
        <time>2021-04-04T08:22:17.028Z</time>
      </trkpt>
      <trkpt lat="45.59478" lon="5.29477">
        <ele>260</ele>
        <time>2021-04-04T08:22:18.028Z</time>
      </trkpt>
      <trkpt lat="45.59473" lon="5.29469">
        <ele>260</ele>
        <time>2021-04-04T08:22:19.028Z</time>
      </trkpt>
      <trkpt lat="45.59466" lon="5.29462">
        <ele>260</ele>
        <time>2021-04-04T08:22:20.028Z</time>
      </trkpt>
      <trkpt lat="45.59461" lon="5.29459">
        <ele>259</ele>
        <time>2021-04-04T08:22:21.028Z</time>
      </trkpt>
      <trkpt lat="45.59454" lon="5.29457">
        <ele>260</ele>
        <time>2021-04-04T08:22:22.027Z</time>
      </trkpt>
      <trkpt lat="45.59446" lon="5.29458">
        <ele>260</ele>
        <time>2021-04-04T08:22:23.028Z</time>
      </trkpt>
      <trkpt lat="45.59438" lon="5.29459">
        <ele>260</ele>
        <time>2021-04-04T08:22:24.028Z</time>
      </trkpt>
      <trkpt lat="45.59431" lon="5.29461">
        <ele>260</ele>
        <time>2021-04-04T08:22:25.028Z</time>
      </trkpt>
      <trkpt lat="45.59423" lon="5.29464">
        <ele>260</ele>
        <time>2021-04-04T08:22:26.028Z</time>
      </trkpt>
      <trkpt lat="45.59416" lon="5.29468">
        <ele>260</ele>
        <time>2021-04-04T08:22:27.028Z</time>
      </trkpt>
      <trkpt lat="45.59408" lon="5.29473">
        <ele>260</ele>
        <time>2021-04-04T08:22:28.028Z</time>
      </trkpt>
      <trkpt lat="45.594" lon="5.29477">
        <ele>260</ele>
        <time>2021-04-04T08:22:29.028Z</time>
      </trkpt>
      <trkpt lat="45.59392" lon="5.29481">
        <ele>259</ele>
        <time>2021-04-04T08:22:30.027Z</time>
      </trkpt>
      <trkpt lat="45.59384" lon="5.29486">
        <ele>259</ele>
        <time>2021-04-04T08:22:31.027Z</time>
      </trkpt>
      <trkpt lat="45.59378" lon="5.2949">
        <ele>259</ele>
        <time>2021-04-04T08:22:32.027Z</time>
      </trkpt>
      <trkpt lat="45.59372" lon="5.29493">
        <ele>259</ele>
        <time>2021-04-04T08:22:33.028Z</time>
      </trkpt>
      <trkpt lat="45.59367" lon="5.29497">
        <ele>260</ele>
        <time>2021-04-04T08:22:34.027Z</time>
      </trkpt>
      <trkpt lat="45.59362" lon="5.29499">
        <ele>259</ele>
        <time>2021-04-04T08:22:35.028Z</time>
      </trkpt>
      <trkpt lat="45.5936" lon="5.295">
        <ele>259</ele>
        <time>2021-04-04T08:22:36.028Z</time>
      </trkpt>
      <trkpt lat="45.59358" lon="5.29501">
        <ele>259</ele>
        <time>2021-04-04T08:22:37.027Z</time>
      </trkpt>
      <trkpt lat="45.59356" lon="5.29502">
        <ele>258</ele>
        <time>2021-04-04T08:22:38.028Z</time>
      </trkpt>
      <trkpt lat="45.59354" lon="5.29501">
        <ele>258</ele>
        <time>2021-04-04T08:22:39.027Z</time>
      </trkpt>
      <trkpt lat="45.59351" lon="5.29502">
        <ele>259</ele>
        <time>2021-04-04T08:22:40.027Z</time>
      </trkpt>
      <trkpt lat="45.59348" lon="5.29502">
        <ele>259</ele>
        <time>2021-04-04T08:22:41.028Z</time>
      </trkpt>
      <trkpt lat="45.59344" lon="5.29503">
        <ele>259</ele>
        <time>2021-04-04T08:22:42.027Z</time>
      </trkpt>
      <trkpt lat="45.5934" lon="5.29504">
        <ele>260</ele>
        <time>2021-04-04T08:22:43.027Z</time>
      </trkpt>
      <trkpt lat="45.59335" lon="5.29506">
        <ele>259</ele>
        <time>2021-04-04T08:22:44.028Z</time>
      </trkpt>
      <trkpt lat="45.5933" lon="5.29508">
        <ele>259</ele>
        <time>2021-04-04T08:22:45.028Z</time>
      </trkpt>
      <trkpt lat="45.59324" lon="5.29511">
        <ele>258</ele>
        <time>2021-04-04T08:22:46.028Z</time>
      </trkpt>
      <trkpt lat="45.59317" lon="5.29514">
        <ele>257</ele>
        <time>2021-04-04T08:22:47.027Z</time>
      </trkpt>
      <trkpt lat="45.5931" lon="5.29517">
        <ele>256</ele>
        <time>2021-04-04T08:22:48.028Z</time>
      </trkpt>
      <trkpt lat="45.59303" lon="5.2952">
        <ele>256</ele>
        <time>2021-04-04T08:22:49.028Z</time>
      </trkpt>
      <trkpt lat="45.59296" lon="5.29523">
        <ele>255</ele>
        <time>2021-04-04T08:22:50.028Z</time>
      </trkpt>
      <trkpt lat="45.59288" lon="5.29527">
        <ele>255</ele>
        <time>2021-04-04T08:22:51.028Z</time>
      </trkpt>
      <trkpt lat="45.59278" lon="5.2953">
        <ele>254</ele>
        <time>2021-04-04T08:22:52.028Z</time>
      </trkpt>
      <trkpt lat="45.59272" lon="5.29532">
        <ele>255</ele>
        <time>2021-04-04T08:22:53.028Z</time>
      </trkpt>
      <trkpt lat="45.59263" lon="5.29535">
        <ele>255</ele>
        <time>2021-04-04T08:22:54.028Z</time>
      </trkpt>
      <trkpt lat="45.59255" lon="5.29539">
        <ele>255</ele>
        <time>2021-04-04T08:22:55.028Z</time>
      </trkpt>
      <trkpt lat="45.59246" lon="5.29542">
        <ele>255</ele>
        <time>2021-04-04T08:22:56.028Z</time>
      </trkpt>
      <trkpt lat="45.59238" lon="5.29546">
        <ele>255</ele>
        <time>2021-04-04T08:22:57.028Z</time>
      </trkpt>
      <trkpt lat="45.59229" lon="5.2955">
        <ele>255</ele>
        <time>2021-04-04T08:22:58.027Z</time>
      </trkpt>
      <trkpt lat="45.59221" lon="5.29554">
        <ele>256</ele>
        <time>2021-04-04T08:22:59.027Z</time>
      </trkpt>
      <trkpt lat="45.59214" lon="5.29559">
        <ele>256</ele>
        <time>2021-04-04T08:23:00.027Z</time>
      </trkpt>
      <trkpt lat="45.59206" lon="5.29566">
        <ele>256</ele>
        <time>2021-04-04T08:23:01.028Z</time>
      </trkpt>
      <trkpt lat="45.592" lon="5.29574">
        <ele>256</ele>
        <time>2021-04-04T08:23:02.027Z</time>
      </trkpt>
      <trkpt lat="45.59192" lon="5.29585">
        <ele>256</ele>
        <time>2021-04-04T08:23:03.027Z</time>
      </trkpt>
      <trkpt lat="45.59188" lon="5.29594">
        <ele>255</ele>
        <time>2021-04-04T08:23:04.027Z</time>
      </trkpt>
      <trkpt lat="45.59183" lon="5.29604">
        <ele>255</ele>
        <time>2021-04-04T08:23:05.028Z</time>
      </trkpt>
      <trkpt lat="45.59177" lon="5.29616">
        <ele>255</ele>
        <time>2021-04-04T08:23:06.028Z</time>
      </trkpt>
      <trkpt lat="45.59172" lon="5.29627">
        <ele>255</ele>
        <time>2021-04-04T08:23:07.028Z</time>
      </trkpt>
      <trkpt lat="45.59167" lon="5.29638">
        <ele>255</ele>
        <time>2021-04-04T08:23:08.027Z</time>
      </trkpt>
      <trkpt lat="45.59162" lon="5.29649">
        <ele>255</ele>
        <time>2021-04-04T08:23:09.028Z</time>
      </trkpt>
      <trkpt lat="45.59157" lon="5.29661">
        <ele>255</ele>
        <time>2021-04-04T08:23:10.028Z</time>
      </trkpt>
      <trkpt lat="45.59152" lon="5.29672">
        <ele>255</ele>
        <time>2021-04-04T08:23:11.028Z</time>
      </trkpt>
      <trkpt lat="45.59148" lon="5.29683">
        <ele>255</ele>
        <time>2021-04-04T08:23:12.028Z</time>
      </trkpt>
      <trkpt lat="45.59145" lon="5.29695">
        <ele>255</ele>
        <time>2021-04-04T08:23:13.028Z</time>
      </trkpt>
      <trkpt lat="45.59143" lon="5.29706">
        <ele>255</ele>
        <time>2021-04-04T08:23:14.028Z</time>
      </trkpt>
      <trkpt lat="45.59142" lon="5.29719">
        <ele>254</ele>
        <time>2021-04-04T08:23:15.028Z</time>
      </trkpt>
      <trkpt lat="45.59141" lon="5.2973">
        <ele>254</ele>
        <time>2021-04-04T08:23:16.028Z</time>
      </trkpt>
      <trkpt lat="45.5914" lon="5.29742">
        <ele>253</ele>
        <time>2021-04-04T08:23:17.028Z</time>
      </trkpt>
      <trkpt lat="45.59139" lon="5.29754">
        <ele>253</ele>
        <time>2021-04-04T08:23:18.028Z</time>
      </trkpt>
      <trkpt lat="45.59138" lon="5.29766">
        <ele>253</ele>
        <time>2021-04-04T08:23:19.027Z</time>
      </trkpt>
      <trkpt lat="45.59136" lon="5.29777">
        <ele>253</ele>
        <time>2021-04-04T08:23:20.028Z</time>
      </trkpt>
      <trkpt lat="45.59135" lon="5.29788">
        <ele>253</ele>
        <time>2021-04-04T08:23:21.027Z</time>
      </trkpt>
      <trkpt lat="45.59133" lon="5.29799">
        <ele>253</ele>
        <time>2021-04-04T08:23:22.028Z</time>
      </trkpt>
      <trkpt lat="45.59132" lon="5.29809">
        <ele>253</ele>
        <time>2021-04-04T08:23:23.028Z</time>
      </trkpt>
      <trkpt lat="45.59129" lon="5.29822">
        <ele>253</ele>
        <time>2021-04-04T08:23:24.027Z</time>
      </trkpt>
      <trkpt lat="45.59128" lon="5.29831">
        <ele>253</ele>
        <time>2021-04-04T08:23:25.028Z</time>
      </trkpt>
      <trkpt lat="45.59125" lon="5.29841">
        <ele>253</ele>
        <time>2021-04-04T08:23:26.028Z</time>
      </trkpt>
      <trkpt lat="45.59123" lon="5.29852">
        <ele>253</ele>
        <time>2021-04-04T08:23:27.027Z</time>
      </trkpt>
      <trkpt lat="45.59121" lon="5.29862">
        <ele>253</ele>
        <time>2021-04-04T08:23:28.028Z</time>
      </trkpt>
      <trkpt lat="45.59119" lon="5.29873">
        <ele>252</ele>
        <time>2021-04-04T08:23:29.028Z</time>
      </trkpt>
      <trkpt lat="45.59116" lon="5.29883">
        <ele>252</ele>
        <time>2021-04-04T08:23:30.027Z</time>
      </trkpt>
      <trkpt lat="45.59114" lon="5.29894">
        <ele>251</ele>
        <time>2021-04-04T08:23:31.028Z</time>
      </trkpt>
      <trkpt lat="45.59112" lon="5.29904">
        <ele>252</ele>
        <time>2021-04-04T08:23:32.027Z</time>
      </trkpt>
      <trkpt lat="45.59109" lon="5.29914">
        <ele>252</ele>
        <time>2021-04-04T08:23:33.028Z</time>
      </trkpt>
      <trkpt lat="45.59107" lon="5.29924">
        <ele>252</ele>
        <time>2021-04-04T08:23:34.027Z</time>
      </trkpt>
      <trkpt lat="45.59105" lon="5.29935">
        <ele>252</ele>
        <time>2021-04-04T08:23:35.028Z</time>
      </trkpt>
      <trkpt lat="45.59103" lon="5.29945">
        <ele>252</ele>
        <time>2021-04-04T08:23:36.028Z</time>
      </trkpt>
      <trkpt lat="45.59101" lon="5.29955">
        <ele>252</ele>
        <time>2021-04-04T08:23:37.027Z</time>
      </trkpt>
      <trkpt lat="45.59098" lon="5.29965">
        <ele>252</ele>
        <time>2021-04-04T08:23:38.028Z</time>
      </trkpt>
      <trkpt lat="45.59096" lon="5.29975">
        <ele>253</ele>
        <time>2021-04-04T08:23:39.027Z</time>
      </trkpt>
      <trkpt lat="45.59094" lon="5.29985">
        <ele>252</ele>
        <time>2021-04-04T08:23:40.028Z</time>
      </trkpt>
      <trkpt lat="45.59092" lon="5.29995">
        <ele>252</ele>
        <time>2021-04-04T08:23:41.027Z</time>
      </trkpt>
      <trkpt lat="45.5909" lon="5.30006">
        <ele>252</ele>
        <time>2021-04-04T08:23:42.028Z</time>
      </trkpt>
      <trkpt lat="45.59088" lon="5.30016">
        <ele>253</ele>
        <time>2021-04-04T08:23:43.028Z</time>
      </trkpt>
      <trkpt lat="45.59086" lon="5.30026">
        <ele>253</ele>
        <time>2021-04-04T08:23:44.028Z</time>
      </trkpt>
      <trkpt lat="45.59084" lon="5.30037">
        <ele>253</ele>
        <time>2021-04-04T08:23:45.028Z</time>
      </trkpt>
      <trkpt lat="45.59082" lon="5.30047">
        <ele>254</ele>
        <time>2021-04-04T08:23:46.028Z</time>
      </trkpt>
      <trkpt lat="45.5908" lon="5.30057">
        <ele>253</ele>
        <time>2021-04-04T08:23:47.027Z</time>
      </trkpt>
      <trkpt lat="45.59078" lon="5.30067">
        <ele>253</ele>
        <time>2021-04-04T08:23:48.027Z</time>
      </trkpt>
      <trkpt lat="45.59076" lon="5.30077">
        <ele>253</ele>
        <time>2021-04-04T08:23:49.028Z</time>
      </trkpt>
      <trkpt lat="45.59074" lon="5.30087">
        <ele>253</ele>
        <time>2021-04-04T08:23:50.027Z</time>
      </trkpt>
      <trkpt lat="45.59072" lon="5.30097">
        <ele>253</ele>
        <time>2021-04-04T08:23:51.028Z</time>
      </trkpt>
      <trkpt lat="45.59069" lon="5.30108">
        <ele>254</ele>
        <time>2021-04-04T08:23:52.028Z</time>
      </trkpt>
      <trkpt lat="45.59067" lon="5.30118">
        <ele>254</ele>
        <time>2021-04-04T08:23:53.028Z</time>
      </trkpt>
      <trkpt lat="45.59064" lon="5.3013">
        <ele>254</ele>
        <time>2021-04-04T08:23:54.027Z</time>
      </trkpt>
      <trkpt lat="45.59062" lon="5.30139">
        <ele>255</ele>
        <time>2021-04-04T08:23:55.028Z</time>
      </trkpt>
      <trkpt lat="45.5906" lon="5.30149">
        <ele>255</ele>
        <time>2021-04-04T08:23:56.028Z</time>
      </trkpt>
      <trkpt lat="45.59057" lon="5.30161">
        <ele>255</ele>
        <time>2021-04-04T08:23:57.028Z</time>
      </trkpt>
      <trkpt lat="45.59055" lon="5.30169">
        <ele>256</ele>
        <time>2021-04-04T08:23:58.028Z</time>
      </trkpt>
      <trkpt lat="45.59052" lon="5.30179">
        <ele>256</ele>
        <time>2021-04-04T08:23:59.027Z</time>
      </trkpt>
      <trkpt lat="45.59049" lon="5.30189">
        <ele>256</ele>
        <time>2021-04-04T08:24:00.028Z</time>
      </trkpt>
      <trkpt lat="45.59047" lon="5.30199">
        <ele>256</ele>
        <time>2021-04-04T08:24:01.028Z</time>
      </trkpt>
      <trkpt lat="45.59044" lon="5.30209">
        <ele>257</ele>
        <time>2021-04-04T08:24:02.027Z</time>
      </trkpt>
      <trkpt lat="45.59041" lon="5.30221">
        <ele>257</ele>
        <time>2021-04-04T08:24:03.028Z</time>
      </trkpt>
      <trkpt lat="45.59039" lon="5.30229">
        <ele>257</ele>
        <time>2021-04-04T08:24:04.028Z</time>
      </trkpt>
      <trkpt lat="45.59036" lon="5.30239">
        <ele>257</ele>
        <time>2021-04-04T08:24:05.028Z</time>
      </trkpt>
      <trkpt lat="45.59032" lon="5.30251">
        <ele>257</ele>
        <time>2021-04-04T08:24:06.027Z</time>
      </trkpt>
      <trkpt lat="45.59029" lon="5.30261">
        <ele>257</ele>
        <time>2021-04-04T08:24:07.028Z</time>
      </trkpt>
      <trkpt lat="45.59027" lon="5.30269">
        <ele>257</ele>
        <time>2021-04-04T08:24:08.028Z</time>
      </trkpt>
      <trkpt lat="45.59024" lon="5.30279">
        <ele>257</ele>
        <time>2021-04-04T08:24:09.028Z</time>
      </trkpt>
      <trkpt lat="45.59021" lon="5.30289">
        <ele>257</ele>
        <time>2021-04-04T08:24:10.028Z</time>
      </trkpt>
      <trkpt lat="45.59019" lon="5.30299">
        <ele>256</ele>
        <time>2021-04-04T08:24:11.028Z</time>
      </trkpt>
      <trkpt lat="45.59016" lon="5.30309">
        <ele>256</ele>
        <time>2021-04-04T08:24:12.027Z</time>
      </trkpt>
      <trkpt lat="45.59013" lon="5.30319">
        <ele>256</ele>
        <time>2021-04-04T08:24:13.028Z</time>
      </trkpt>
      <trkpt lat="45.5901" lon="5.30329">
        <ele>256</ele>
        <time>2021-04-04T08:24:14.027Z</time>
      </trkpt>
      <trkpt lat="45.59007" lon="5.30339">
        <ele>255</ele>
        <time>2021-04-04T08:24:15.028Z</time>
      </trkpt>
      <trkpt lat="45.59004" lon="5.30349">
        <ele>255</ele>
        <time>2021-04-04T08:24:16.028Z</time>
      </trkpt>
      <trkpt lat="45.59001" lon="5.30359">
        <ele>255</ele>
        <time>2021-04-04T08:24:17.027Z</time>
      </trkpt>
      <trkpt lat="45.58998" lon="5.30369">
        <ele>255</ele>
        <time>2021-04-04T08:24:18.028Z</time>
      </trkpt>
      <trkpt lat="45.58996" lon="5.30379">
        <ele>255</ele>
        <time>2021-04-04T08:24:19.027Z</time>
      </trkpt>
      <trkpt lat="45.58993" lon="5.30389">
        <ele>254</ele>
        <time>2021-04-04T08:24:20.028Z</time>
      </trkpt>
      <trkpt lat="45.5899" lon="5.30399">
        <ele>254</ele>
        <time>2021-04-04T08:24:21.028Z</time>
      </trkpt>
      <trkpt lat="45.58987" lon="5.30409">
        <ele>254</ele>
        <time>2021-04-04T08:24:22.028Z</time>
      </trkpt>
      <trkpt lat="45.58985" lon="5.30419">
        <ele>254</ele>
        <time>2021-04-04T08:24:23.028Z</time>
      </trkpt>
      <trkpt lat="45.58982" lon="5.30429">
        <ele>254</ele>
        <time>2021-04-04T08:24:24.028Z</time>
      </trkpt>
      <trkpt lat="45.58979" lon="5.30439">
        <ele>253</ele>
        <time>2021-04-04T08:24:25.028Z</time>
      </trkpt>
      <trkpt lat="45.58977" lon="5.3045">
        <ele>252</ele>
        <time>2021-04-04T08:24:26.027Z</time>
      </trkpt>
      <trkpt lat="45.58974" lon="5.3046">
        <ele>252</ele>
        <time>2021-04-04T08:24:27.028Z</time>
      </trkpt>
      <trkpt lat="45.58972" lon="5.3047">
        <ele>252</ele>
        <time>2021-04-04T08:24:28.028Z</time>
      </trkpt>
      <trkpt lat="45.58969" lon="5.30481">
        <ele>252</ele>
        <time>2021-04-04T08:24:29.028Z</time>
      </trkpt>
      <trkpt lat="45.58967" lon="5.30491">
        <ele>252</ele>
        <time>2021-04-04T08:24:30.028Z</time>
      </trkpt>
      <trkpt lat="45.58964" lon="5.30501">
        <ele>252</ele>
        <time>2021-04-04T08:24:31.028Z</time>
      </trkpt>
      <trkpt lat="45.58962" lon="5.30512">
        <ele>252</ele>
        <time>2021-04-04T08:24:32.028Z</time>
      </trkpt>
      <trkpt lat="45.58959" lon="5.30522">
        <ele>252</ele>
        <time>2021-04-04T08:24:33.027Z</time>
      </trkpt>
      <trkpt lat="45.58957" lon="5.30532">
        <ele>252</ele>
        <time>2021-04-04T08:24:34.027Z</time>
      </trkpt>
      <trkpt lat="45.58954" lon="5.30545">
        <ele>253</ele>
        <time>2021-04-04T08:24:35.028Z</time>
      </trkpt>
      <trkpt lat="45.58952" lon="5.30553">
        <ele>253</ele>
        <time>2021-04-04T08:24:36.027Z</time>
      </trkpt>
      <trkpt lat="45.5895" lon="5.30563">
        <ele>254</ele>
        <time>2021-04-04T08:24:37.027Z</time>
      </trkpt>
      <trkpt lat="45.58949" lon="5.30575">
        <ele>254</ele>
        <time>2021-04-04T08:24:38.027Z</time>
      </trkpt>
      <trkpt lat="45.58947" lon="5.30586">
        <ele>254</ele>
        <time>2021-04-04T08:24:39.027Z</time>
      </trkpt>
      <trkpt lat="45.58946" lon="5.30594">
        <ele>255</ele>
        <time>2021-04-04T08:24:40.027Z</time>
      </trkpt>
      <trkpt lat="45.58944" lon="5.30605">
        <ele>255</ele>
        <time>2021-04-04T08:24:41.027Z</time>
      </trkpt>
      <trkpt lat="45.58942" lon="5.30616">
        <ele>255</ele>
        <time>2021-04-04T08:24:42.027Z</time>
      </trkpt>
      <trkpt lat="45.5894" lon="5.30626">
        <ele>255</ele>
        <time>2021-04-04T08:24:43.027Z</time>
      </trkpt>
      <trkpt lat="45.58939" lon="5.30637">
        <ele>255</ele>
        <time>2021-04-04T08:24:44.028Z</time>
      </trkpt>
      <trkpt lat="45.58937" lon="5.30648">
        <ele>255</ele>
        <time>2021-04-04T08:24:45.028Z</time>
      </trkpt>
      <trkpt lat="45.58935" lon="5.30658">
        <ele>255</ele>
        <time>2021-04-04T08:24:46.028Z</time>
      </trkpt>
      <trkpt lat="45.58934" lon="5.30669">
        <ele>255</ele>
        <time>2021-04-04T08:24:47.028Z</time>
      </trkpt>
      <trkpt lat="45.58932" lon="5.3068">
        <ele>255</ele>
        <time>2021-04-04T08:24:48.028Z</time>
      </trkpt>
      <trkpt lat="45.5893" lon="5.3069">
        <ele>255</ele>
        <time>2021-04-04T08:24:49.028Z</time>
      </trkpt>
      <trkpt lat="45.58928" lon="5.30701">
        <ele>254</ele>
        <time>2021-04-04T08:24:50.027Z</time>
      </trkpt>
      <trkpt lat="45.58926" lon="5.30712">
        <ele>255</ele>
        <time>2021-04-04T08:24:51.027Z</time>
      </trkpt>
      <trkpt lat="45.58925" lon="5.30722">
        <ele>255</ele>
        <time>2021-04-04T08:24:52.028Z</time>
      </trkpt>
      <trkpt lat="45.58923" lon="5.30733">
        <ele>254</ele>
        <time>2021-04-04T08:24:53.027Z</time>
      </trkpt>
      <trkpt lat="45.58921" lon="5.30744">
        <ele>254</ele>
        <time>2021-04-04T08:24:54.027Z</time>
      </trkpt>
      <trkpt lat="45.58919" lon="5.30755">
        <ele>254</ele>
        <time>2021-04-04T08:24:55.028Z</time>
      </trkpt>
      <trkpt lat="45.58917" lon="5.30765">
        <ele>254</ele>
        <time>2021-04-04T08:24:56.028Z</time>
      </trkpt>
      <trkpt lat="45.58915" lon="5.30776">
        <ele>255</ele>
        <time>2021-04-04T08:24:57.027Z</time>
      </trkpt>
      <trkpt lat="45.58913" lon="5.30787">
        <ele>255</ele>
        <time>2021-04-04T08:24:58.028Z</time>
      </trkpt>
      <trkpt lat="45.58911" lon="5.30798">
        <ele>255</ele>
        <time>2021-04-04T08:24:59.027Z</time>
      </trkpt>
      <trkpt lat="45.58908" lon="5.30808">
        <ele>255</ele>
        <time>2021-04-04T08:25:00.028Z</time>
      </trkpt>
      <trkpt lat="45.58905" lon="5.30818">
        <ele>255</ele>
        <time>2021-04-04T08:25:01.027Z</time>
      </trkpt>
      <trkpt lat="45.58902" lon="5.30828">
        <ele>254</ele>
        <time>2021-04-04T08:25:02.028Z</time>
      </trkpt>
      <trkpt lat="45.58899" lon="5.30838">
        <ele>254</ele>
        <time>2021-04-04T08:25:03.028Z</time>
      </trkpt>
      <trkpt lat="45.58895" lon="5.30847">
        <ele>254</ele>
        <time>2021-04-04T08:25:04.027Z</time>
      </trkpt>
      <trkpt lat="45.58891" lon="5.30856">
        <ele>255</ele>
        <time>2021-04-04T08:25:05.028Z</time>
      </trkpt>
      <trkpt lat="45.58887" lon="5.30865">
        <ele>255</ele>
        <time>2021-04-04T08:25:06.027Z</time>
      </trkpt>
      <trkpt lat="45.58884" lon="5.30873">
        <ele>254</ele>
        <time>2021-04-04T08:25:07.027Z</time>
      </trkpt>
      <trkpt lat="45.5888" lon="5.30881">
        <ele>254</ele>
        <time>2021-04-04T08:25:08.027Z</time>
      </trkpt>
      <trkpt lat="45.58876" lon="5.30889">
        <ele>254</ele>
        <time>2021-04-04T08:25:09.027Z</time>
      </trkpt>
      <trkpt lat="45.58873" lon="5.30897">
        <ele>255</ele>
        <time>2021-04-04T08:25:10.028Z</time>
      </trkpt>
      <trkpt lat="45.5887" lon="5.30905">
        <ele>255</ele>
        <time>2021-04-04T08:25:11.027Z</time>
      </trkpt>
      <trkpt lat="45.58866" lon="5.30912">
        <ele>256</ele>
        <time>2021-04-04T08:25:12.028Z</time>
      </trkpt>
      <trkpt lat="45.58863" lon="5.30919">
        <ele>256</ele>
        <time>2021-04-04T08:25:13.028Z</time>
      </trkpt>
      <trkpt lat="45.58859" lon="5.30926">
        <ele>256</ele>
        <time>2021-04-04T08:25:14.027Z</time>
      </trkpt>
      <trkpt lat="45.58856" lon="5.30933">
        <ele>256</ele>
        <time>2021-04-04T08:25:15.028Z</time>
      </trkpt>
      <trkpt lat="45.58854" lon="5.30939">
        <ele>256</ele>
        <time>2021-04-04T08:25:16.028Z</time>
      </trkpt>
      <trkpt lat="45.58851" lon="5.30944">
        <ele>256</ele>
        <time>2021-04-04T08:25:17.028Z</time>
      </trkpt>
      <trkpt lat="45.58848" lon="5.30949">
        <ele>256</ele>
        <time>2021-04-04T08:25:18.027Z</time>
      </trkpt>
      <trkpt lat="45.58845" lon="5.30952">
        <ele>256</ele>
        <time>2021-04-04T08:25:19.028Z</time>
      </trkpt>
      <trkpt lat="45.58843" lon="5.30955">
        <ele>256</ele>
        <time>2021-04-04T08:25:20.028Z</time>
      </trkpt>
      <trkpt lat="45.5884" lon="5.30957">
        <ele>256</ele>
        <time>2021-04-04T08:25:21.027Z</time>
      </trkpt>
      <trkpt lat="45.58839" lon="5.30957">
        <ele>255</ele>
        <time>2021-04-04T08:25:22.028Z</time>
      </trkpt>
      <trkpt lat="45.58837" lon="5.30958">
        <ele>255</ele>
        <time>2021-04-04T08:25:23.028Z</time>
      </trkpt>
      <trkpt lat="45.58834" lon="5.3096">
        <ele>255</ele>
        <time>2021-04-04T08:25:24.028Z</time>
      </trkpt>
      <trkpt lat="45.58831" lon="5.30963">
        <ele>255</ele>
        <time>2021-04-04T08:25:25.028Z</time>
      </trkpt>
      <trkpt lat="45.58829" lon="5.30967">
        <ele>255</ele>
        <time>2021-04-04T08:25:26.028Z</time>
      </trkpt>
      <trkpt lat="45.58828" lon="5.30972">
        <ele>255</ele>
        <time>2021-04-04T08:25:27.027Z</time>
      </trkpt>
      <trkpt lat="45.58827" lon="5.30979">
        <ele>255</ele>
        <time>2021-04-04T08:25:28.028Z</time>
      </trkpt>
      <trkpt lat="45.58827" lon="5.30986">
        <ele>255</ele>
        <time>2021-04-04T08:25:29.028Z</time>
      </trkpt>
      <trkpt lat="45.58828" lon="5.30994">
        <ele>255</ele>
        <time>2021-04-04T08:25:30.028Z</time>
      </trkpt>
      <trkpt lat="45.58828" lon="5.31002">
        <ele>256</ele>
        <time>2021-04-04T08:25:31.028Z</time>
      </trkpt>
      <trkpt lat="45.58828" lon="5.31011">
        <ele>256</ele>
        <time>2021-04-04T08:25:32.027Z</time>
      </trkpt>
      <trkpt lat="45.58829" lon="5.3102">
        <ele>256</ele>
        <time>2021-04-04T08:25:33.027Z</time>
      </trkpt>
      <trkpt lat="45.5883" lon="5.31029">
        <ele>256</ele>
        <time>2021-04-04T08:25:34.028Z</time>
      </trkpt>
      <trkpt lat="45.5883" lon="5.31038">
        <ele>256</ele>
        <time>2021-04-04T08:25:35.027Z</time>
      </trkpt>
      <trkpt lat="45.58831" lon="5.31046">
        <ele>255</ele>
        <time>2021-04-04T08:25:36.028Z</time>
      </trkpt>
      <trkpt lat="45.58831" lon="5.31055">
        <ele>255</ele>
        <time>2021-04-04T08:25:37.028Z</time>
      </trkpt>
      <trkpt lat="45.58832" lon="5.31063">
        <ele>255</ele>
        <time>2021-04-04T08:25:38.028Z</time>
      </trkpt>
      <trkpt lat="45.58832" lon="5.3107">
        <ele>255</ele>
        <time>2021-04-04T08:25:39.027Z</time>
      </trkpt>
      <trkpt lat="45.58832" lon="5.31078">
        <ele>255</ele>
        <time>2021-04-04T08:25:40.028Z</time>
      </trkpt>
      <trkpt lat="45.58833" lon="5.31085">
        <ele>255</ele>
        <time>2021-04-04T08:25:41.028Z</time>
      </trkpt>
      <trkpt lat="45.58833" lon="5.31092">
        <ele>255</ele>
        <time>2021-04-04T08:25:42.028Z</time>
      </trkpt>
      <trkpt lat="45.58833" lon="5.31099">
        <ele>256</ele>
        <time>2021-04-04T08:25:43.027Z</time>
      </trkpt>
      <trkpt lat="45.58833" lon="5.31107">
        <ele>256</ele>
        <time>2021-04-04T08:25:44.028Z</time>
      </trkpt>
      <trkpt lat="45.58833" lon="5.31114">
        <ele>256</ele>
        <time>2021-04-04T08:25:45.028Z</time>
      </trkpt>
      <trkpt lat="45.58834" lon="5.31122">
        <ele>257</ele>
        <time>2021-04-04T08:25:46.028Z</time>
      </trkpt>
      <trkpt lat="45.58834" lon="5.31129">
        <ele>257</ele>
        <time>2021-04-04T08:25:47.028Z</time>
      </trkpt>
      <trkpt lat="45.58835" lon="5.31137">
        <ele>258</ele>
        <time>2021-04-04T08:25:48.027Z</time>
      </trkpt>
      <trkpt lat="45.58835" lon="5.31144">
        <ele>258</ele>
        <time>2021-04-04T08:25:49.027Z</time>
      </trkpt>
      <trkpt lat="45.58835" lon="5.31152">
        <ele>259</ele>
        <time>2021-04-04T08:25:50.027Z</time>
      </trkpt>
      <trkpt lat="45.58835" lon="5.3116">
        <ele>259</ele>
        <time>2021-04-04T08:25:51.027Z</time>
      </trkpt>
      <trkpt lat="45.58836" lon="5.31168">
        <ele>258</ele>
        <time>2021-04-04T08:25:52.028Z</time>
      </trkpt>
      <trkpt lat="45.58836" lon="5.31176">
        <ele>258</ele>
        <time>2021-04-04T08:25:53.027Z</time>
      </trkpt>
      <trkpt lat="45.58836" lon="5.31184">
        <ele>259</ele>
        <time>2021-04-04T08:25:54.027Z</time>
      </trkpt>
      <trkpt lat="45.58836" lon="5.31192">
        <ele>259</ele>
        <time>2021-04-04T08:25:55.028Z</time>
      </trkpt>
      <trkpt lat="45.58836" lon="5.312">
        <ele>260</ele>
        <time>2021-04-04T08:25:56.028Z</time>
      </trkpt>
      <trkpt lat="45.58837" lon="5.31208">
        <ele>260</ele>
        <time>2021-04-04T08:25:57.028Z</time>
      </trkpt>
      <trkpt lat="45.58837" lon="5.31216">
        <ele>261</ele>
        <time>2021-04-04T08:25:58.028Z</time>
      </trkpt>
      <trkpt lat="45.58837" lon="5.31224">
        <ele>261</ele>
        <time>2021-04-04T08:25:59.028Z</time>
      </trkpt>
      <trkpt lat="45.58838" lon="5.31232">
        <ele>262</ele>
        <time>2021-04-04T08:26:00.028Z</time>
      </trkpt>
      <trkpt lat="45.58838" lon="5.3124">
        <ele>262</ele>
        <time>2021-04-04T08:26:01.028Z</time>
      </trkpt>
      <trkpt lat="45.58838" lon="5.31248">
        <ele>262</ele>
        <time>2021-04-04T08:26:02.027Z</time>
      </trkpt>
      <trkpt lat="45.58839" lon="5.31255">
        <ele>262</ele>
        <time>2021-04-04T08:26:03.027Z</time>
      </trkpt>
      <trkpt lat="45.58839" lon="5.31263">
        <ele>262</ele>
        <time>2021-04-04T08:26:04.028Z</time>
      </trkpt>
      <trkpt lat="45.58839" lon="5.3127">
        <ele>262</ele>
        <time>2021-04-04T08:26:05.027Z</time>
      </trkpt>
      <trkpt lat="45.5884" lon="5.31277">
        <ele>262</ele>
        <time>2021-04-04T08:26:06.028Z</time>
      </trkpt>
      <trkpt lat="45.5884" lon="5.31284">
        <ele>262</ele>
        <time>2021-04-04T08:26:07.027Z</time>
      </trkpt>
      <trkpt lat="45.5884" lon="5.31291">
        <ele>262</ele>
        <time>2021-04-04T08:26:08.028Z</time>
      </trkpt>
      <trkpt lat="45.58841" lon="5.31298">
        <ele>262</ele>
        <time>2021-04-04T08:26:09.028Z</time>
      </trkpt>
      <trkpt lat="45.58841" lon="5.31305">
        <ele>263</ele>
        <time>2021-04-04T08:26:10.028Z</time>
      </trkpt>
      <trkpt lat="45.58841" lon="5.31313">
        <ele>263</ele>
        <time>2021-04-04T08:26:11.028Z</time>
      </trkpt>
      <trkpt lat="45.58842" lon="5.31321">
        <ele>263</ele>
        <time>2021-04-04T08:26:12.028Z</time>
      </trkpt>
      <trkpt lat="45.58842" lon="5.31329">
        <ele>263</ele>
        <time>2021-04-04T08:26:13.028Z</time>
      </trkpt>
      <trkpt lat="45.58842" lon="5.31337">
        <ele>263</ele>
        <time>2021-04-04T08:26:14.028Z</time>
      </trkpt>
      <trkpt lat="45.58843" lon="5.31345">
        <ele>263</ele>
        <time>2021-04-04T08:26:15.027Z</time>
      </trkpt>
      <trkpt lat="45.58843" lon="5.31354">
        <ele>263</ele>
        <time>2021-04-04T08:26:16.028Z</time>
      </trkpt>
      <trkpt lat="45.58843" lon="5.31362">
        <ele>263</ele>
        <time>2021-04-04T08:26:17.028Z</time>
      </trkpt>
      <trkpt lat="45.58844" lon="5.3137">
        <ele>263</ele>
        <time>2021-04-04T08:26:18.027Z</time>
      </trkpt>
      <trkpt lat="45.58844" lon="5.31378">
        <ele>263</ele>
        <time>2021-04-04T08:26:19.028Z</time>
      </trkpt>
      <trkpt lat="45.58844" lon="5.31386">
        <ele>262</ele>
        <time>2021-04-04T08:26:20.028Z</time>
      </trkpt>
      <trkpt lat="45.58845" lon="5.31393">
        <ele>262</ele>
        <time>2021-04-04T08:26:21.027Z</time>
      </trkpt>
      <trkpt lat="45.58845" lon="5.31402">
        <ele>262</ele>
        <time>2021-04-04T08:26:22.028Z</time>
      </trkpt>
      <trkpt lat="45.58845" lon="5.3141">
        <ele>262</ele>
        <time>2021-04-04T08:26:23.028Z</time>
      </trkpt>
      <trkpt lat="45.58845" lon="5.31418">
        <ele>262</ele>
        <time>2021-04-04T08:26:24.028Z</time>
      </trkpt>
      <trkpt lat="45.58845" lon="5.31426">
        <ele>262</ele>
        <time>2021-04-04T08:26:25.028Z</time>
      </trkpt>
      <trkpt lat="45.58846" lon="5.31434">
        <ele>262</ele>
        <time>2021-04-04T08:26:26.028Z</time>
      </trkpt>
      <trkpt lat="45.58846" lon="5.31441">
        <ele>263</ele>
        <time>2021-04-04T08:26:27.028Z</time>
      </trkpt>
      <trkpt lat="45.58847" lon="5.31449">
        <ele>263</ele>
        <time>2021-04-04T08:26:28.028Z</time>
      </trkpt>
      <trkpt lat="45.58847" lon="5.31458">
        <ele>264</ele>
        <time>2021-04-04T08:26:29.027Z</time>
      </trkpt>
      <trkpt lat="45.58847" lon="5.31464">
        <ele>264</ele>
        <time>2021-04-04T08:26:30.027Z</time>
      </trkpt>
      <trkpt lat="45.58847" lon="5.31472">
        <ele>265</ele>
        <time>2021-04-04T08:26:31.027Z</time>
      </trkpt>
      <trkpt lat="45.58846" lon="5.3148">
        <ele>265</ele>
        <time>2021-04-04T08:26:32.028Z</time>
      </trkpt>
      <trkpt lat="45.58846" lon="5.31488">
        <ele>266</ele>
        <time>2021-04-04T08:26:33.027Z</time>
      </trkpt>
      <trkpt lat="45.58845" lon="5.31496">
        <ele>266</ele>
        <time>2021-04-04T08:26:34.028Z</time>
      </trkpt>
      <trkpt lat="45.58845" lon="5.31505">
        <ele>266</ele>
        <time>2021-04-04T08:26:35.028Z</time>
      </trkpt>
      <trkpt lat="45.58844" lon="5.31511">
        <ele>266</ele>
        <time>2021-04-04T08:26:36.028Z</time>
      </trkpt>
      <trkpt lat="45.58843" lon="5.31518">
        <ele>266</ele>
        <time>2021-04-04T08:26:37.028Z</time>
      </trkpt>
      <trkpt lat="45.58843" lon="5.31525">
        <ele>266</ele>
        <time>2021-04-04T08:26:38.028Z</time>
      </trkpt>
      <trkpt lat="45.58842" lon="5.31533">
        <ele>266</ele>
        <time>2021-04-04T08:26:39.027Z</time>
      </trkpt>
      <trkpt lat="45.58841" lon="5.31541">
        <ele>267</ele>
        <time>2021-04-04T08:26:40.027Z</time>
      </trkpt>
      <trkpt lat="45.58841" lon="5.31548">
        <ele>267</ele>
        <time>2021-04-04T08:26:41.027Z</time>
      </trkpt>
      <trkpt lat="45.5884" lon="5.31556">
        <ele>267</ele>
        <time>2021-04-04T08:26:42.027Z</time>
      </trkpt>
      <trkpt lat="45.58839" lon="5.31563">
        <ele>267</ele>
        <time>2021-04-04T08:26:43.028Z</time>
      </trkpt>
      <trkpt lat="45.58837" lon="5.3157">
        <ele>267</ele>
        <time>2021-04-04T08:26:44.028Z</time>
      </trkpt>
      <trkpt lat="45.58836" lon="5.31579">
        <ele>267</ele>
        <time>2021-04-04T08:26:45.028Z</time>
      </trkpt>
      <trkpt lat="45.58835" lon="5.31585">
        <ele>267</ele>
        <time>2021-04-04T08:26:46.027Z</time>
      </trkpt>
      <trkpt lat="45.58834" lon="5.31592">
        <ele>267</ele>
        <time>2021-04-04T08:26:47.027Z</time>
      </trkpt>
      <trkpt lat="45.58833" lon="5.316">
        <ele>267</ele>
        <time>2021-04-04T08:26:48.028Z</time>
      </trkpt>
      <trkpt lat="45.58832" lon="5.31607">
        <ele>267</ele>
        <time>2021-04-04T08:26:49.027Z</time>
      </trkpt>
      <trkpt lat="45.58831" lon="5.31614">
        <ele>268</ele>
        <time>2021-04-04T08:26:50.028Z</time>
      </trkpt>
      <trkpt lat="45.5883" lon="5.31622">
        <ele>268</ele>
        <time>2021-04-04T08:26:51.027Z</time>
      </trkpt>
      <trkpt lat="45.58829" lon="5.31629">
        <ele>268</ele>
        <time>2021-04-04T08:26:52.028Z</time>
      </trkpt>
      <trkpt lat="45.58828" lon="5.31637">
        <ele>269</ele>
        <time>2021-04-04T08:26:53.028Z</time>
      </trkpt>
      <trkpt lat="45.58828" lon="5.31645">
        <ele>269</ele>
        <time>2021-04-04T08:26:54.027Z</time>
      </trkpt>
      <trkpt lat="45.58828" lon="5.31653">
        <ele>270</ele>
        <time>2021-04-04T08:26:55.028Z</time>
      </trkpt>
      <trkpt lat="45.58828" lon="5.31661">
        <ele>270</ele>
        <time>2021-04-04T08:26:56.028Z</time>
      </trkpt>
      <trkpt lat="45.58828" lon="5.31668">
        <ele>271</ele>
        <time>2021-04-04T08:26:57.028Z</time>
      </trkpt>
      <trkpt lat="45.58828" lon="5.31676">
        <ele>271</ele>
        <time>2021-04-04T08:26:58.027Z</time>
      </trkpt>
      <trkpt lat="45.58827" lon="5.31683">
        <ele>271</ele>
        <time>2021-04-04T08:26:59.028Z</time>
      </trkpt>
      <trkpt lat="45.58827" lon="5.3169">
        <ele>272</ele>
        <time>2021-04-04T08:27:00.028Z</time>
      </trkpt>
      <trkpt lat="45.58827" lon="5.31697">
        <ele>272</ele>
        <time>2021-04-04T08:27:01.028Z</time>
      </trkpt>
      <trkpt lat="45.58826" lon="5.31705">
        <ele>271</ele>
        <time>2021-04-04T08:27:02.028Z</time>
      </trkpt>
      <trkpt lat="45.58824" lon="5.31713">
        <ele>271</ele>
        <time>2021-04-04T08:27:03.028Z</time>
      </trkpt>
      <trkpt lat="45.58823" lon="5.31719">
        <ele>271</ele>
        <time>2021-04-04T08:27:04.027Z</time>
      </trkpt>
      <trkpt lat="45.58821" lon="5.31726">
        <ele>271</ele>
        <time>2021-04-04T08:27:05.028Z</time>
      </trkpt>
      <trkpt lat="45.5882" lon="5.31733">
        <ele>271</ele>
        <time>2021-04-04T08:27:06.027Z</time>
      </trkpt>
      <trkpt lat="45.58818" lon="5.3174">
        <ele>271</ele>
        <time>2021-04-04T08:27:07.028Z</time>
      </trkpt>
      <trkpt lat="45.58815" lon="5.31747">
        <ele>271</ele>
        <time>2021-04-04T08:27:08.027Z</time>
      </trkpt>
      <trkpt lat="45.58813" lon="5.31753">
        <ele>270</ele>
        <time>2021-04-04T08:27:09.028Z</time>
      </trkpt>
      <trkpt lat="45.5881" lon="5.3176">
        <ele>270</ele>
        <time>2021-04-04T08:27:10.028Z</time>
      </trkpt>
      <trkpt lat="45.58807" lon="5.31767">
        <ele>270</ele>
        <time>2021-04-04T08:27:11.028Z</time>
      </trkpt>
      <trkpt lat="45.58804" lon="5.31773">
        <ele>270</ele>
        <time>2021-04-04T08:27:12.028Z</time>
      </trkpt>
      <trkpt lat="45.58801" lon="5.3178">
        <ele>270</ele>
        <time>2021-04-04T08:27:13.028Z</time>
      </trkpt>
      <trkpt lat="45.58798" lon="5.31787">
        <ele>270</ele>
        <time>2021-04-04T08:27:14.027Z</time>
      </trkpt>
      <trkpt lat="45.58795" lon="5.31794">
        <ele>271</ele>
        <time>2021-04-04T08:27:15.028Z</time>
      </trkpt>
      <trkpt lat="45.58792" lon="5.31801">
        <ele>271</ele>
        <time>2021-04-04T08:27:16.028Z</time>
      </trkpt>
      <trkpt lat="45.58789" lon="5.31809">
        <ele>271</ele>
        <time>2021-04-04T08:27:17.028Z</time>
      </trkpt>
      <trkpt lat="45.58786" lon="5.31816">
        <ele>270</ele>
        <time>2021-04-04T08:27:18.028Z</time>
      </trkpt>
      <trkpt lat="45.58784" lon="5.31823">
        <ele>270</ele>
        <time>2021-04-04T08:27:19.028Z</time>
      </trkpt>
      <trkpt lat="45.58781" lon="5.31831">
        <ele>270</ele>
        <time>2021-04-04T08:27:20.027Z</time>
      </trkpt>
      <trkpt lat="45.58778" lon="5.31838">
        <ele>269</ele>
        <time>2021-04-04T08:27:21.027Z</time>
      </trkpt>
      <trkpt lat="45.58776" lon="5.31846">
        <ele>269</ele>
        <time>2021-04-04T08:27:22.027Z</time>
      </trkpt>
      <trkpt lat="45.58773" lon="5.31854">
        <ele>268</ele>
        <time>2021-04-04T08:27:23.027Z</time>
      </trkpt>
      <trkpt lat="45.58771" lon="5.31862">
        <ele>268</ele>
        <time>2021-04-04T08:27:24.027Z</time>
      </trkpt>
      <trkpt lat="45.58768" lon="5.3187">
        <ele>268</ele>
        <time>2021-04-04T08:27:25.027Z</time>
      </trkpt>
      <trkpt lat="45.58765" lon="5.31878">
        <ele>268</ele>
        <time>2021-04-04T08:27:26.028Z</time>
      </trkpt>
      <trkpt lat="45.58763" lon="5.31886">
        <ele>267</ele>
        <time>2021-04-04T08:27:27.027Z</time>
      </trkpt>
      <trkpt lat="45.5876" lon="5.31895">
        <ele>267</ele>
        <time>2021-04-04T08:27:28.028Z</time>
      </trkpt>
      <trkpt lat="45.58757" lon="5.31904">
        <ele>267</ele>
        <time>2021-04-04T08:27:29.028Z</time>
      </trkpt>
      <trkpt lat="45.58755" lon="5.31912">
        <ele>267</ele>
        <time>2021-04-04T08:27:30.028Z</time>
      </trkpt>
      <trkpt lat="45.58753" lon="5.3192">
        <ele>267</ele>
        <time>2021-04-04T08:27:31.028Z</time>
      </trkpt>
      <trkpt lat="45.5875" lon="5.31928">
        <ele>267</ele>
        <time>2021-04-04T08:27:32.028Z</time>
      </trkpt>
      <trkpt lat="45.58747" lon="5.31936">
        <ele>267</ele>
        <time>2021-04-04T08:27:33.027Z</time>
      </trkpt>
      <trkpt lat="45.58744" lon="5.31944">
        <ele>267</ele>
        <time>2021-04-04T08:27:34.028Z</time>
      </trkpt>
      <trkpt lat="45.58742" lon="5.31952">
        <ele>267</ele>
        <time>2021-04-04T08:27:35.028Z</time>
      </trkpt>
      <trkpt lat="45.58739" lon="5.3196">
        <ele>267</ele>
        <time>2021-04-04T08:27:36.028Z</time>
      </trkpt>
      <trkpt lat="45.58737" lon="5.31968">
        <ele>268</ele>
        <time>2021-04-04T08:27:37.028Z</time>
      </trkpt>
      <trkpt lat="45.58735" lon="5.31976">
        <ele>268</ele>
        <time>2021-04-04T08:27:38.028Z</time>
      </trkpt>
      <trkpt lat="45.58733" lon="5.31984">
        <ele>268</ele>
        <time>2021-04-04T08:27:39.028Z</time>
      </trkpt>
      <trkpt lat="45.58731" lon="5.31992">
        <ele>268</ele>
        <time>2021-04-04T08:27:40.027Z</time>
      </trkpt>
      <trkpt lat="45.5873" lon="5.32001">
        <ele>269</ele>
        <time>2021-04-04T08:27:41.028Z</time>
      </trkpt>
      <trkpt lat="45.58728" lon="5.32008">
        <ele>269</ele>
        <time>2021-04-04T08:27:42.027Z</time>
      </trkpt>
      <trkpt lat="45.58726" lon="5.32018">
        <ele>269</ele>
        <time>2021-04-04T08:27:43.028Z</time>
      </trkpt>
      <trkpt lat="45.58724" lon="5.32026">
        <ele>269</ele>
        <time>2021-04-04T08:27:44.028Z</time>
      </trkpt>
      <trkpt lat="45.58721" lon="5.32036">
        <ele>269</ele>
        <time>2021-04-04T08:27:45.027Z</time>
      </trkpt>
      <trkpt lat="45.58719" lon="5.32042">
        <ele>269</ele>
        <time>2021-04-04T08:27:46.028Z</time>
      </trkpt>
      <trkpt lat="45.58716" lon="5.3205">
        <ele>270</ele>
        <time>2021-04-04T08:27:47.027Z</time>
      </trkpt>
      <trkpt lat="45.58713" lon="5.32058">
        <ele>269</ele>
        <time>2021-04-04T08:27:48.028Z</time>
      </trkpt>
      <trkpt lat="45.58709" lon="5.32066">
        <ele>269</ele>
        <time>2021-04-04T08:27:49.028Z</time>
      </trkpt>
      <trkpt lat="45.58705" lon="5.32076">
        <ele>269</ele>
        <time>2021-04-04T08:27:50.028Z</time>
      </trkpt>
      <trkpt lat="45.58702" lon="5.32083">
        <ele>269</ele>
        <time>2021-04-04T08:27:51.028Z</time>
      </trkpt>
      <trkpt lat="45.58698" lon="5.32091">
        <ele>269</ele>
        <time>2021-04-04T08:27:52.028Z</time>
      </trkpt>
      <trkpt lat="45.58694" lon="5.32099">
        <ele>269</ele>
        <time>2021-04-04T08:27:53.028Z</time>
      </trkpt>
      <trkpt lat="45.58691" lon="5.32107">
        <ele>269</ele>
        <time>2021-04-04T08:27:54.028Z</time>
      </trkpt>
      <trkpt lat="45.58687" lon="5.32115">
        <ele>268</ele>
        <time>2021-04-04T08:27:55.027Z</time>
      </trkpt>
      <trkpt lat="45.58683" lon="5.32123">
        <ele>268</ele>
        <time>2021-04-04T08:27:56.027Z</time>
      </trkpt>
      <trkpt lat="45.58679" lon="5.32131">
        <ele>268</ele>
        <time>2021-04-04T08:27:57.028Z</time>
      </trkpt>
      <trkpt lat="45.58675" lon="5.32139">
        <ele>268</ele>
        <time>2021-04-04T08:27:58.027Z</time>
      </trkpt>
      <trkpt lat="45.58672" lon="5.32146">
        <ele>268</ele>
        <time>2021-04-04T08:27:59.027Z</time>
      </trkpt>
      <trkpt lat="45.58668" lon="5.32154">
        <ele>269</ele>
        <time>2021-04-04T08:28:00.028Z</time>
      </trkpt>
      <trkpt lat="45.58663" lon="5.32162">
        <ele>269</ele>
        <time>2021-04-04T08:28:01.027Z</time>
      </trkpt>
      <trkpt lat="45.58658" lon="5.3217">
        <ele>269</ele>
        <time>2021-04-04T08:28:02.028Z</time>
      </trkpt>
      <trkpt lat="45.58653" lon="5.32178">
        <ele>269</ele>
        <time>2021-04-04T08:28:03.028Z</time>
      </trkpt>
      <trkpt lat="45.58648" lon="5.32185">
        <ele>269</ele>
        <time>2021-04-04T08:28:04.028Z</time>
      </trkpt>
      <trkpt lat="45.58643" lon="5.32192">
        <ele>270</ele>
        <time>2021-04-04T08:28:05.028Z</time>
      </trkpt>
      <trkpt lat="45.58638" lon="5.32199">
        <ele>270</ele>
        <time>2021-04-04T08:28:06.028Z</time>
      </trkpt>
      <trkpt lat="45.58633" lon="5.32207">
        <ele>270</ele>
        <time>2021-04-04T08:28:07.027Z</time>
      </trkpt>
      <trkpt lat="45.58628" lon="5.32214">
        <ele>270</ele>
        <time>2021-04-04T08:28:08.028Z</time>
      </trkpt>
      <trkpt lat="45.58623" lon="5.3222">
        <ele>270</ele>
        <time>2021-04-04T08:28:09.028Z</time>
      </trkpt>
      <trkpt lat="45.58618" lon="5.32227">
        <ele>270</ele>
        <time>2021-04-04T08:28:10.028Z</time>
      </trkpt>
      <trkpt lat="45.58613" lon="5.32234">
        <ele>271</ele>
        <time>2021-04-04T08:28:11.028Z</time>
      </trkpt>
      <trkpt lat="45.58608" lon="5.32241">
        <ele>271</ele>
        <time>2021-04-04T08:28:12.028Z</time>
      </trkpt>
      <trkpt lat="45.58603" lon="5.32248">
        <ele>271</ele>
        <time>2021-04-04T08:28:13.028Z</time>
      </trkpt>
      <trkpt lat="45.58598" lon="5.32255">
        <ele>272</ele>
        <time>2021-04-04T08:28:14.027Z</time>
      </trkpt>
      <trkpt lat="45.58593" lon="5.32261">
        <ele>272</ele>
        <time>2021-04-04T08:28:15.028Z</time>
      </trkpt>
      <trkpt lat="45.58589" lon="5.32268">
        <ele>272</ele>
        <time>2021-04-04T08:28:16.027Z</time>
      </trkpt>
      <trkpt lat="45.58584" lon="5.32275">
        <ele>272</ele>
        <time>2021-04-04T08:28:17.027Z</time>
      </trkpt>
      <trkpt lat="45.5858" lon="5.32281">
        <ele>272</ele>
        <time>2021-04-04T08:28:18.028Z</time>
      </trkpt>
      <trkpt lat="45.58576" lon="5.32288">
        <ele>272</ele>
        <time>2021-04-04T08:28:19.028Z</time>
      </trkpt>
      <trkpt lat="45.58572" lon="5.32296">
        <ele>273</ele>
        <time>2021-04-04T08:28:20.027Z</time>
      </trkpt>
      <trkpt lat="45.58568" lon="5.32303">
        <ele>273</ele>
        <time>2021-04-04T08:28:21.028Z</time>
      </trkpt>
      <trkpt lat="45.58565" lon="5.3231">
        <ele>273</ele>
        <time>2021-04-04T08:28:22.028Z</time>
      </trkpt>
      <trkpt lat="45.58561" lon="5.32318">
        <ele>273</ele>
        <time>2021-04-04T08:28:23.027Z</time>
      </trkpt>
      <trkpt lat="45.58559" lon="5.32325">
        <ele>273</ele>
        <time>2021-04-04T08:28:24.028Z</time>
      </trkpt>
      <trkpt lat="45.58555" lon="5.32335">
        <ele>273</ele>
        <time>2021-04-04T08:28:25.028Z</time>
      </trkpt>
      <trkpt lat="45.58552" lon="5.32343">
        <ele>273</ele>
        <time>2021-04-04T08:28:26.027Z</time>
      </trkpt>
      <trkpt lat="45.58549" lon="5.32352">
        <ele>274</ele>
        <time>2021-04-04T08:28:27.028Z</time>
      </trkpt>
      <trkpt lat="45.58546" lon="5.3236">
        <ele>274</ele>
        <time>2021-04-04T08:28:28.027Z</time>
      </trkpt>
      <trkpt lat="45.58544" lon="5.32368">
        <ele>275</ele>
        <time>2021-04-04T08:28:29.027Z</time>
      </trkpt>
      <trkpt lat="45.5854" lon="5.32377">
        <ele>275</ele>
        <time>2021-04-04T08:28:30.028Z</time>
      </trkpt>
      <trkpt lat="45.58537" lon="5.32386">
        <ele>276</ele>
        <time>2021-04-04T08:28:31.028Z</time>
      </trkpt>
      <trkpt lat="45.58534" lon="5.32395">
        <ele>276</ele>
        <time>2021-04-04T08:28:32.028Z</time>
      </trkpt>
      <trkpt lat="45.5853" lon="5.32404">
        <ele>276</ele>
        <time>2021-04-04T08:28:33.028Z</time>
      </trkpt>
      <trkpt lat="45.58527" lon="5.32412">
        <ele>276</ele>
        <time>2021-04-04T08:28:34.028Z</time>
      </trkpt>
      <trkpt lat="45.58524" lon="5.32421">
        <ele>276</ele>
        <time>2021-04-04T08:28:35.027Z</time>
      </trkpt>
      <trkpt lat="45.58521" lon="5.32429">
        <ele>276</ele>
        <time>2021-04-04T08:28:36.028Z</time>
      </trkpt>
      <trkpt lat="45.58518" lon="5.32437">
        <ele>275</ele>
        <time>2021-04-04T08:28:37.028Z</time>
      </trkpt>
      <trkpt lat="45.58514" lon="5.32445">
        <ele>275</ele>
        <time>2021-04-04T08:28:38.027Z</time>
      </trkpt>
      <trkpt lat="45.58511" lon="5.32453">
        <ele>275</ele>
        <time>2021-04-04T08:28:39.028Z</time>
      </trkpt>
      <trkpt lat="45.58507" lon="5.3246">
        <ele>275</ele>
        <time>2021-04-04T08:28:40.027Z</time>
      </trkpt>
      <trkpt lat="45.58503" lon="5.32468">
        <ele>275</ele>
        <time>2021-04-04T08:28:41.028Z</time>
      </trkpt>
      <trkpt lat="45.585" lon="5.32475">
        <ele>275</ele>
        <time>2021-04-04T08:28:42.028Z</time>
      </trkpt>
      <trkpt lat="45.58496" lon="5.32483">
        <ele>276</ele>
        <time>2021-04-04T08:28:43.028Z</time>
      </trkpt>
      <trkpt lat="45.58493" lon="5.32489">
        <ele>276</ele>
        <time>2021-04-04T08:28:44.028Z</time>
      </trkpt>
      <trkpt lat="45.58489" lon="5.32497">
        <ele>277</ele>
        <time>2021-04-04T08:28:45.028Z</time>
      </trkpt>
      <trkpt lat="45.58485" lon="5.32504">
        <ele>277</ele>
        <time>2021-04-04T08:28:46.028Z</time>
      </trkpt>
      <trkpt lat="45.58481" lon="5.32511">
        <ele>277</ele>
        <time>2021-04-04T08:28:47.028Z</time>
      </trkpt>
      <trkpt lat="45.58478" lon="5.32516">
        <ele>277</ele>
        <time>2021-04-04T08:28:48.028Z</time>
      </trkpt>
      <trkpt lat="45.58473" lon="5.32524">
        <ele>276</ele>
        <time>2021-04-04T08:28:49.027Z</time>
      </trkpt>
      <trkpt lat="45.58469" lon="5.3253">
        <ele>276</ele>
        <time>2021-04-04T08:28:50.028Z</time>
      </trkpt>
      <trkpt lat="45.58464" lon="5.32536">
        <ele>276</ele>
        <time>2021-04-04T08:28:51.028Z</time>
      </trkpt>
      <trkpt lat="45.5846" lon="5.32542">
        <ele>275</ele>
        <time>2021-04-04T08:28:52.028Z</time>
      </trkpt>
      <trkpt lat="45.58455" lon="5.32548">
        <ele>275</ele>
        <time>2021-04-04T08:28:53.027Z</time>
      </trkpt>
      <trkpt lat="45.58451" lon="5.32554">
        <ele>275</ele>
        <time>2021-04-04T08:28:54.028Z</time>
      </trkpt>
      <trkpt lat="45.58446" lon="5.3256">
        <ele>275</ele>
        <time>2021-04-04T08:28:55.028Z</time>
      </trkpt>
      <trkpt lat="45.58442" lon="5.32566">
        <ele>275</ele>
        <time>2021-04-04T08:28:56.028Z</time>
      </trkpt>
      <trkpt lat="45.58437" lon="5.32572">
        <ele>275</ele>
        <time>2021-04-04T08:28:57.028Z</time>
      </trkpt>
      <trkpt lat="45.58432" lon="5.32577">
        <ele>275</ele>
        <time>2021-04-04T08:28:58.027Z</time>
      </trkpt>
      <trkpt lat="45.58428" lon="5.32583">
        <ele>275</ele>
        <time>2021-04-04T08:28:59.028Z</time>
      </trkpt>
      <trkpt lat="45.58423" lon="5.32589">
        <ele>275</ele>
        <time>2021-04-04T08:29:00.028Z</time>
      </trkpt>
      <trkpt lat="45.58419" lon="5.32594">
        <ele>275</ele>
        <time>2021-04-04T08:29:01.028Z</time>
      </trkpt>
      <trkpt lat="45.58414" lon="5.326">
        <ele>276</ele>
        <time>2021-04-04T08:29:02.028Z</time>
      </trkpt>
      <trkpt lat="45.5841" lon="5.32606">
        <ele>276</ele>
        <time>2021-04-04T08:29:03.028Z</time>
      </trkpt>
      <trkpt lat="45.58407" lon="5.32612">
        <ele>276</ele>
        <time>2021-04-04T08:29:04.028Z</time>
      </trkpt>
      <trkpt lat="45.58403" lon="5.32617">
        <ele>277</ele>
        <time>2021-04-04T08:29:05.027Z</time>
      </trkpt>
      <trkpt lat="45.584" lon="5.32623">
        <ele>278</ele>
        <time>2021-04-04T08:29:06.028Z</time>
      </trkpt>
      <trkpt lat="45.58396" lon="5.32629">
        <ele>278</ele>
        <time>2021-04-04T08:29:07.027Z</time>
      </trkpt>
      <trkpt lat="45.58393" lon="5.32635">
        <ele>279</ele>
        <time>2021-04-04T08:29:08.027Z</time>
      </trkpt>
      <trkpt lat="45.58389" lon="5.3264">
        <ele>279</ele>
        <time>2021-04-04T08:29:09.027Z</time>
      </trkpt>
      <trkpt lat="45.58385" lon="5.32645">
        <ele>279</ele>
        <time>2021-04-04T08:29:10.028Z</time>
      </trkpt>
      <trkpt lat="45.58382" lon="5.32651">
        <ele>280</ele>
        <time>2021-04-04T08:29:11.028Z</time>
      </trkpt>
      <trkpt lat="45.58381" lon="5.32657">
        <ele>279</ele>
        <time>2021-04-04T08:29:12.028Z</time>
      </trkpt>
      <trkpt lat="45.58381" lon="5.32663">
        <ele>279</ele>
        <time>2021-04-04T08:29:13.027Z</time>
      </trkpt>
      <trkpt lat="45.58382" lon="5.32668">
        <ele>280</ele>
        <time>2021-04-04T08:29:14.028Z</time>
      </trkpt>
      <trkpt lat="45.58383" lon="5.32672">
        <ele>280</ele>
        <time>2021-04-04T08:29:15.028Z</time>
      </trkpt>
      <trkpt lat="45.58384" lon="5.32675">
        <ele>280</ele>
        <time>2021-04-04T08:29:16.027Z</time>
      </trkpt>
      <trkpt lat="45.58384" lon="5.32675">
        <ele>281</ele>
        <time>2021-04-04T08:29:17.028Z</time>
      </trkpt>
      <trkpt lat="45.58385" lon="5.32674">
        <ele>281</ele>
        <time>2021-04-04T08:29:18.028Z</time>
      </trkpt>
      <trkpt lat="45.58385" lon="5.3267">
        <ele>281</ele>
        <time>2021-04-04T08:29:19.027Z</time>
      </trkpt>
      <trkpt lat="45.58386" lon="5.32666">
        <ele>282</ele>
        <time>2021-04-04T08:29:20.028Z</time>
      </trkpt>
      <trkpt lat="45.58386" lon="5.32661">
        <ele>282</ele>
        <time>2021-04-04T08:29:21.028Z</time>
      </trkpt>
      <trkpt lat="45.58386" lon="5.32656">
        <ele>282</ele>
        <time>2021-04-04T08:29:22.028Z</time>
      </trkpt>
      <trkpt lat="45.58385" lon="5.32652">
        <ele>282</ele>
        <time>2021-04-04T08:29:23.028Z</time>
      </trkpt>
      <trkpt lat="45.58383" lon="5.32649">
        <ele>282</ele>
        <time>2021-04-04T08:29:24.027Z</time>
      </trkpt>
      <trkpt lat="45.5838" lon="5.32647">
        <ele>282</ele>
        <time>2021-04-04T08:29:25.027Z</time>
      </trkpt>
      <trkpt lat="45.58376" lon="5.32647">
        <ele>282</ele>
        <time>2021-04-04T08:29:26.028Z</time>
      </trkpt>
      <trkpt lat="45.58372" lon="5.32649">
        <ele>282</ele>
        <time>2021-04-04T08:29:27.027Z</time>
      </trkpt>
      <trkpt lat="45.58367" lon="5.32651">
        <ele>283</ele>
        <time>2021-04-04T08:29:28.028Z</time>
      </trkpt>
      <trkpt lat="45.58362" lon="5.32654">
        <ele>283</ele>
        <time>2021-04-04T08:29:29.027Z</time>
      </trkpt>
      <trkpt lat="45.58357" lon="5.32657">
        <ele>283</ele>
        <time>2021-04-04T08:29:30.027Z</time>
      </trkpt>
      <trkpt lat="45.58352" lon="5.3266">
        <ele>283</ele>
        <time>2021-04-04T08:29:31.028Z</time>
      </trkpt>
      <trkpt lat="45.58347" lon="5.32663">
        <ele>283</ele>
        <time>2021-04-04T08:29:32.028Z</time>
      </trkpt>
      <trkpt lat="45.58341" lon="5.32667">
        <ele>283</ele>
        <time>2021-04-04T08:29:33.027Z</time>
      </trkpt>
      <trkpt lat="45.58336" lon="5.3267">
        <ele>284</ele>
        <time>2021-04-04T08:29:34.027Z</time>
      </trkpt>
      <trkpt lat="45.58331" lon="5.32673">
        <ele>284</ele>
        <time>2021-04-04T08:29:35.027Z</time>
      </trkpt>
      <trkpt lat="45.58326" lon="5.32676">
        <ele>284</ele>
        <time>2021-04-04T08:29:36.028Z</time>
      </trkpt>
      <trkpt lat="45.5832" lon="5.32679">
        <ele>284</ele>
        <time>2021-04-04T08:29:37.027Z</time>
      </trkpt>
      <trkpt lat="45.58315" lon="5.32683">
        <ele>283</ele>
        <time>2021-04-04T08:29:38.028Z</time>
      </trkpt>
      <trkpt lat="45.5831" lon="5.32686">
        <ele>284</ele>
        <time>2021-04-04T08:29:39.028Z</time>
      </trkpt>
      <trkpt lat="45.58304" lon="5.32689">
        <ele>284</ele>
        <time>2021-04-04T08:29:40.028Z</time>
      </trkpt>
      <trkpt lat="45.58299" lon="5.32693">
        <ele>284</ele>
        <time>2021-04-04T08:29:41.027Z</time>
      </trkpt>
      <trkpt lat="45.58294" lon="5.32696">
        <ele>284</ele>
        <time>2021-04-04T08:29:42.028Z</time>
      </trkpt>
      <trkpt lat="45.58289" lon="5.32699">
        <ele>284</ele>
        <time>2021-04-04T08:29:43.028Z</time>
      </trkpt>
      <trkpt lat="45.58283" lon="5.32701">
        <ele>284</ele>
        <time>2021-04-04T08:29:44.028Z</time>
      </trkpt>
      <trkpt lat="45.58278" lon="5.32702">
        <ele>284</ele>
        <time>2021-04-04T08:29:45.028Z</time>
      </trkpt>
      <trkpt lat="45.58274" lon="5.32701">
        <ele>284</ele>
        <time>2021-04-04T08:29:46.027Z</time>
      </trkpt>
      <trkpt lat="45.58271" lon="5.32699">
        <ele>284</ele>
        <time>2021-04-04T08:29:47.028Z</time>
      </trkpt>
      <trkpt lat="45.58268" lon="5.32696">
        <ele>284</ele>
        <time>2021-04-04T08:29:48.028Z</time>
      </trkpt>
      <trkpt lat="45.58265" lon="5.32691">
        <ele>284</ele>
        <time>2021-04-04T08:29:49.027Z</time>
      </trkpt>
      <trkpt lat="45.58262" lon="5.32685">
        <ele>284</ele>
        <time>2021-04-04T08:29:50.027Z</time>
      </trkpt>
      <trkpt lat="45.58258" lon="5.32679">
        <ele>283</ele>
        <time>2021-04-04T08:29:51.027Z</time>
      </trkpt>
      <trkpt lat="45.58254" lon="5.32674">
        <ele>283</ele>
        <time>2021-04-04T08:29:52.028Z</time>
      </trkpt>
      <trkpt lat="45.58249" lon="5.3267">
        <ele>283</ele>
        <time>2021-04-04T08:29:53.028Z</time>
      </trkpt>
      <trkpt lat="45.58242" lon="5.32668">
        <ele>283</ele>
        <time>2021-04-04T08:29:54.028Z</time>
      </trkpt>
      <trkpt lat="45.58236" lon="5.32668">
        <ele>282</ele>
        <time>2021-04-04T08:29:55.027Z</time>
      </trkpt>
      <trkpt lat="45.58229" lon="5.32672">
        <ele>282</ele>
        <time>2021-04-04T08:29:56.028Z</time>
      </trkpt>
      <trkpt lat="45.58225" lon="5.32678">
        <ele>282</ele>
        <time>2021-04-04T08:29:57.028Z</time>
      </trkpt>
      <trkpt lat="45.58222" lon="5.32685">
        <ele>283</ele>
        <time>2021-04-04T08:29:58.027Z</time>
      </trkpt>
      <trkpt lat="45.58219" lon="5.32696">
        <ele>283</ele>
        <time>2021-04-04T08:29:59.027Z</time>
      </trkpt>
      <trkpt lat="45.58219" lon="5.32705">
        <ele>284</ele>
        <time>2021-04-04T08:30:00.028Z</time>
      </trkpt>
      <trkpt lat="45.5822" lon="5.32718">
        <ele>284</ele>
        <time>2021-04-04T08:30:01.028Z</time>
      </trkpt>
      <trkpt lat="45.5822" lon="5.32728">
        <ele>285</ele>
        <time>2021-04-04T08:30:02.028Z</time>
      </trkpt>
      <trkpt lat="45.58219" lon="5.32736">
        <ele>285</ele>
        <time>2021-04-04T08:30:03.028Z</time>
      </trkpt>
      <trkpt lat="45.58218" lon="5.32746">
        <ele>285</ele>
        <time>2021-04-04T08:30:04.027Z</time>
      </trkpt>
      <trkpt lat="45.58216" lon="5.32755">
        <ele>285</ele>
        <time>2021-04-04T08:30:05.027Z</time>
      </trkpt>
      <trkpt lat="45.58213" lon="5.32766">
        <ele>286</ele>
        <time>2021-04-04T08:30:06.028Z</time>
      </trkpt>
      <trkpt lat="45.5821" lon="5.32775">
        <ele>286</ele>
        <time>2021-04-04T08:30:07.027Z</time>
      </trkpt>
      <trkpt lat="45.58207" lon="5.32783">
        <ele>287</ele>
        <time>2021-04-04T08:30:08.027Z</time>
      </trkpt>
      <trkpt lat="45.58204" lon="5.3279">
        <ele>286</ele>
        <time>2021-04-04T08:30:09.028Z</time>
      </trkpt>
      <trkpt lat="45.582" lon="5.32798">
        <ele>286</ele>
        <time>2021-04-04T08:30:10.027Z</time>
      </trkpt>
      <trkpt lat="45.58196" lon="5.32807">
        <ele>286</ele>
        <time>2021-04-04T08:30:11.028Z</time>
      </trkpt>
      <trkpt lat="45.58192" lon="5.32814">
        <ele>285</ele>
        <time>2021-04-04T08:30:12.028Z</time>
      </trkpt>
      <trkpt lat="45.58189" lon="5.3282">
        <ele>285</ele>
        <time>2021-04-04T08:30:13.028Z</time>
      </trkpt>
      <trkpt lat="45.58184" lon="5.32829">
        <ele>285</ele>
        <time>2021-04-04T08:30:14.027Z</time>
      </trkpt>
      <trkpt lat="45.5818" lon="5.32837">
        <ele>285</ele>
        <time>2021-04-04T08:30:15.028Z</time>
      </trkpt>
      <trkpt lat="45.58175" lon="5.32844">
        <ele>285</ele>
        <time>2021-04-04T08:30:16.028Z</time>
      </trkpt>
      <trkpt lat="45.58171" lon="5.32851">
        <ele>285</ele>
        <time>2021-04-04T08:30:17.027Z</time>
      </trkpt>
      <trkpt lat="45.58166" lon="5.32859">
        <ele>285</ele>
        <time>2021-04-04T08:30:18.027Z</time>
      </trkpt>
      <trkpt lat="45.58162" lon="5.32866">
        <ele>285</ele>
        <time>2021-04-04T08:30:19.028Z</time>
      </trkpt>
      <trkpt lat="45.58157" lon="5.32873">
        <ele>285</ele>
        <time>2021-04-04T08:30:20.028Z</time>
      </trkpt>
      <trkpt lat="45.58152" lon="5.3288">
        <ele>286</ele>
        <time>2021-04-04T08:30:21.028Z</time>
      </trkpt>
      <trkpt lat="45.58148" lon="5.32887">
        <ele>286</ele>
        <time>2021-04-04T08:30:22.027Z</time>
      </trkpt>
      <trkpt lat="45.58143" lon="5.32894">
        <ele>287</ele>
        <time>2021-04-04T08:30:23.027Z</time>
      </trkpt>
      <trkpt lat="45.58138" lon="5.329">
        <ele>288</ele>
        <time>2021-04-04T08:30:24.027Z</time>
      </trkpt>
      <trkpt lat="45.58133" lon="5.32907">
        <ele>288</ele>
        <time>2021-04-04T08:30:25.028Z</time>
      </trkpt>
      <trkpt lat="45.58128" lon="5.32913">
        <ele>288</ele>
        <time>2021-04-04T08:30:26.027Z</time>
      </trkpt>
      <trkpt lat="45.58123" lon="5.3292">
        <ele>289</ele>
        <time>2021-04-04T08:30:27.028Z</time>
      </trkpt>
      <trkpt lat="45.58118" lon="5.32926">
        <ele>289</ele>
        <time>2021-04-04T08:30:28.028Z</time>
      </trkpt>
      <trkpt lat="45.58114" lon="5.32932">
        <ele>290</ele>
        <time>2021-04-04T08:30:29.027Z</time>
      </trkpt>
      <trkpt lat="45.58109" lon="5.32938">
        <ele>290</ele>
        <time>2021-04-04T08:30:30.028Z</time>
      </trkpt>
      <trkpt lat="45.58104" lon="5.32944">
        <ele>291</ele>
        <time>2021-04-04T08:30:31.027Z</time>
      </trkpt>
      <trkpt lat="45.581" lon="5.32949">
        <ele>291</ele>
        <time>2021-04-04T08:30:32.028Z</time>
      </trkpt>
      <trkpt lat="45.58095" lon="5.32954">
        <ele>291</ele>
        <time>2021-04-04T08:30:33.028Z</time>
      </trkpt>
      <trkpt lat="45.58088" lon="5.32961">
        <ele>291</ele>
        <time>2021-04-04T08:30:34.028Z</time>
      </trkpt>
      <trkpt lat="45.58083" lon="5.32966">
        <ele>291</ele>
        <time>2021-04-04T08:30:35.027Z</time>
      </trkpt>
      <trkpt lat="45.58078" lon="5.32972">
        <ele>291</ele>
        <time>2021-04-04T08:30:36.027Z</time>
      </trkpt>
      <trkpt lat="45.58074" lon="5.32976">
        <ele>291</ele>
        <time>2021-04-04T08:30:37.028Z</time>
      </trkpt>
      <trkpt lat="45.58069" lon="5.32981">
        <ele>291</ele>
        <time>2021-04-04T08:30:38.027Z</time>
      </trkpt>
      <trkpt lat="45.58062" lon="5.32987">
        <ele>291</ele>
        <time>2021-04-04T08:30:39.027Z</time>
      </trkpt>
      <trkpt lat="45.58057" lon="5.32992">
        <ele>291</ele>
        <time>2021-04-04T08:30:40.028Z</time>
      </trkpt>
      <trkpt lat="45.58052" lon="5.32997">
        <ele>291</ele>
        <time>2021-04-04T08:30:41.028Z</time>
      </trkpt>
      <trkpt lat="45.58047" lon="5.33002">
        <ele>291</ele>
        <time>2021-04-04T08:30:42.028Z</time>
      </trkpt>
      <trkpt lat="45.58042" lon="5.33007">
        <ele>291</ele>
        <time>2021-04-04T08:30:43.027Z</time>
      </trkpt>
      <trkpt lat="45.58037" lon="5.33011">
        <ele>292</ele>
        <time>2021-04-04T08:30:44.028Z</time>
      </trkpt>
      <trkpt lat="45.58032" lon="5.33016">
        <ele>292</ele>
        <time>2021-04-04T08:30:45.028Z</time>
      </trkpt>
      <trkpt lat="45.58026" lon="5.3302">
        <ele>293</ele>
        <time>2021-04-04T08:30:46.028Z</time>
      </trkpt>
      <trkpt lat="45.58021" lon="5.33024">
        <ele>293</ele>
        <time>2021-04-04T08:30:47.027Z</time>
      </trkpt>
      <trkpt lat="45.58015" lon="5.33029">
        <ele>293</ele>
        <time>2021-04-04T08:30:48.027Z</time>
      </trkpt>
      <trkpt lat="45.58009" lon="5.33033">
        <ele>294</ele>
        <time>2021-04-04T08:30:49.028Z</time>
      </trkpt>
      <trkpt lat="45.58004" lon="5.33037">
        <ele>294</ele>
        <time>2021-04-04T08:30:50.028Z</time>
      </trkpt>
      <trkpt lat="45.57998" lon="5.33041">
        <ele>294</ele>
        <time>2021-04-04T08:30:51.027Z</time>
      </trkpt>
      <trkpt lat="45.57993" lon="5.33046">
        <ele>294</ele>
        <time>2021-04-04T08:30:52.027Z</time>
      </trkpt>
      <trkpt lat="45.57987" lon="5.3305">
        <ele>295</ele>
        <time>2021-04-04T08:30:53.028Z</time>
      </trkpt>
      <trkpt lat="45.57982" lon="5.33055">
        <ele>295</ele>
        <time>2021-04-04T08:30:54.028Z</time>
      </trkpt>
      <trkpt lat="45.57976" lon="5.3306">
        <ele>296</ele>
        <time>2021-04-04T08:30:55.027Z</time>
      </trkpt>
      <trkpt lat="45.57971" lon="5.33064">
        <ele>297</ele>
        <time>2021-04-04T08:30:56.028Z</time>
      </trkpt>
      <trkpt lat="45.57966" lon="5.33069">
        <ele>297</ele>
        <time>2021-04-04T08:30:57.028Z</time>
      </trkpt>
      <trkpt lat="45.5796" lon="5.33073">
        <ele>298</ele>
        <time>2021-04-04T08:30:58.028Z</time>
      </trkpt>
      <trkpt lat="45.57954" lon="5.33078">
        <ele>298</ele>
        <time>2021-04-04T08:30:59.027Z</time>
      </trkpt>
      <trkpt lat="45.57949" lon="5.33083">
        <ele>298</ele>
        <time>2021-04-04T08:31:00.027Z</time>
      </trkpt>
      <trkpt lat="45.57943" lon="5.33087">
        <ele>298</ele>
        <time>2021-04-04T08:31:01.028Z</time>
      </trkpt>
      <trkpt lat="45.57938" lon="5.33091">
        <ele>298</ele>
        <time>2021-04-04T08:31:02.028Z</time>
      </trkpt>
      <trkpt lat="45.57932" lon="5.33095">
        <ele>298</ele>
        <time>2021-04-04T08:31:03.027Z</time>
      </trkpt>
      <trkpt lat="45.57926" lon="5.33099">
        <ele>298</ele>
        <time>2021-04-04T08:31:04.027Z</time>
      </trkpt>
      <trkpt lat="45.57921" lon="5.33103">
        <ele>298</ele>
        <time>2021-04-04T08:31:05.028Z</time>
      </trkpt>
      <trkpt lat="45.57915" lon="5.33107">
        <ele>299</ele>
        <time>2021-04-04T08:31:06.028Z</time>
      </trkpt>
      <trkpt lat="45.57909" lon="5.33111">
        <ele>299</ele>
        <time>2021-04-04T08:31:07.028Z</time>
      </trkpt>
      <trkpt lat="45.57903" lon="5.33114">
        <ele>299</ele>
        <time>2021-04-04T08:31:08.027Z</time>
      </trkpt>
      <trkpt lat="45.57898" lon="5.33118">
        <ele>299</ele>
        <time>2021-04-04T08:31:09.028Z</time>
      </trkpt>
      <trkpt lat="45.57892" lon="5.33122">
        <ele>299</ele>
        <time>2021-04-04T08:31:10.028Z</time>
      </trkpt>
      <trkpt lat="45.57887" lon="5.33126">
        <ele>299</ele>
        <time>2021-04-04T08:31:11.028Z</time>
      </trkpt>
      <trkpt lat="45.57881" lon="5.3313">
        <ele>299</ele>
        <time>2021-04-04T08:31:12.028Z</time>
      </trkpt>
      <trkpt lat="45.57876" lon="5.33134">
        <ele>299</ele>
        <time>2021-04-04T08:31:13.028Z</time>
      </trkpt>
      <trkpt lat="45.5787" lon="5.33139">
        <ele>299</ele>
        <time>2021-04-04T08:31:14.028Z</time>
      </trkpt>
      <trkpt lat="45.57864" lon="5.33144">
        <ele>299</ele>
        <time>2021-04-04T08:31:15.027Z</time>
      </trkpt>
      <trkpt lat="45.57859" lon="5.33149">
        <ele>300</ele>
        <time>2021-04-04T08:31:16.027Z</time>
      </trkpt>
      <trkpt lat="45.57853" lon="5.33155">
        <ele>300</ele>
        <time>2021-04-04T08:31:17.028Z</time>
      </trkpt>
      <trkpt lat="45.57847" lon="5.33161">
        <ele>300</ele>
        <time>2021-04-04T08:31:18.028Z</time>
      </trkpt>
      <trkpt lat="45.57841" lon="5.33167">
        <ele>300</ele>
        <time>2021-04-04T08:31:19.027Z</time>
      </trkpt>
      <trkpt lat="45.57835" lon="5.33173">
        <ele>301</ele>
        <time>2021-04-04T08:31:20.028Z</time>
      </trkpt>
      <trkpt lat="45.57829" lon="5.3318">
        <ele>301</ele>
        <time>2021-04-04T08:31:21.028Z</time>
      </trkpt>
      <trkpt lat="45.57823" lon="5.33187">
        <ele>300</ele>
        <time>2021-04-04T08:31:22.028Z</time>
      </trkpt>
      <trkpt lat="45.57817" lon="5.33194">
        <ele>300</ele>
        <time>2021-04-04T08:31:23.028Z</time>
      </trkpt>
      <trkpt lat="45.57811" lon="5.33201">
        <ele>300</ele>
        <time>2021-04-04T08:31:24.028Z</time>
      </trkpt>
      <trkpt lat="45.57805" lon="5.33209">
        <ele>300</ele>
        <time>2021-04-04T08:31:25.027Z</time>
      </trkpt>
      <trkpt lat="45.57799" lon="5.33216">
        <ele>300</ele>
        <time>2021-04-04T08:31:26.028Z</time>
      </trkpt>
      <trkpt lat="45.57793" lon="5.33223">
        <ele>300</ele>
        <time>2021-04-04T08:31:27.028Z</time>
      </trkpt>
      <trkpt lat="45.57786" lon="5.33231">
        <ele>300</ele>
        <time>2021-04-04T08:31:28.028Z</time>
      </trkpt>
      <trkpt lat="45.5778" lon="5.33239">
        <ele>299</ele>
        <time>2021-04-04T08:31:29.028Z</time>
      </trkpt>
      <trkpt lat="45.57773" lon="5.33247">
        <ele>299</ele>
        <time>2021-04-04T08:31:30.028Z</time>
      </trkpt>
      <trkpt lat="45.57767" lon="5.33255">
        <ele>299</ele>
        <time>2021-04-04T08:31:31.028Z</time>
      </trkpt>
      <trkpt lat="45.5776" lon="5.33264">
        <ele>299</ele>
        <time>2021-04-04T08:31:32.027Z</time>
      </trkpt>
      <trkpt lat="45.57753" lon="5.33272">
        <ele>299</ele>
        <time>2021-04-04T08:31:33.028Z</time>
      </trkpt>
      <trkpt lat="45.57746" lon="5.3328">
        <ele>299</ele>
        <time>2021-04-04T08:31:34.028Z</time>
      </trkpt>
      <trkpt lat="45.57739" lon="5.33288">
        <ele>299</ele>
        <time>2021-04-04T08:31:35.028Z</time>
      </trkpt>
      <trkpt lat="45.57732" lon="5.33296">
        <ele>298</ele>
        <time>2021-04-04T08:31:36.027Z</time>
      </trkpt>
      <trkpt lat="45.57725" lon="5.33304">
        <ele>298</ele>
        <time>2021-04-04T08:31:37.028Z</time>
      </trkpt>
      <trkpt lat="45.57717" lon="5.33312">
        <ele>298</ele>
        <time>2021-04-04T08:31:38.028Z</time>
      </trkpt>
      <trkpt lat="45.5771" lon="5.3332">
        <ele>298</ele>
        <time>2021-04-04T08:31:39.028Z</time>
      </trkpt>
      <trkpt lat="45.57702" lon="5.33328">
        <ele>298</ele>
        <time>2021-04-04T08:31:40.028Z</time>
      </trkpt>
      <trkpt lat="45.57694" lon="5.33337">
        <ele>298</ele>
        <time>2021-04-04T08:31:41.028Z</time>
      </trkpt>
      <trkpt lat="45.57687" lon="5.33345">
        <ele>298</ele>
        <time>2021-04-04T08:31:42.028Z</time>
      </trkpt>
      <trkpt lat="45.5768" lon="5.33353">
        <ele>299</ele>
        <time>2021-04-04T08:31:43.028Z</time>
      </trkpt>
      <trkpt lat="45.57673" lon="5.33361">
        <ele>299</ele>
        <time>2021-04-04T08:31:44.027Z</time>
      </trkpt>
      <trkpt lat="45.57665" lon="5.33369">
        <ele>299</ele>
        <time>2021-04-04T08:31:45.027Z</time>
      </trkpt>
      <trkpt lat="45.57658" lon="5.33377">
        <ele>300</ele>
        <time>2021-04-04T08:31:46.027Z</time>
      </trkpt>
      <trkpt lat="45.57651" lon="5.33385">
        <ele>300</ele>
        <time>2021-04-04T08:31:47.028Z</time>
      </trkpt>
      <trkpt lat="45.57644" lon="5.33393">
        <ele>300</ele>
        <time>2021-04-04T08:31:48.028Z</time>
      </trkpt>
      <trkpt lat="45.57638" lon="5.33402">
        <ele>301</ele>
        <time>2021-04-04T08:31:49.028Z</time>
      </trkpt>
      <trkpt lat="45.57631" lon="5.3341">
        <ele>301</ele>
        <time>2021-04-04T08:31:50.028Z</time>
      </trkpt>
      <trkpt lat="45.57624" lon="5.33419">
        <ele>302</ele>
        <time>2021-04-04T08:31:51.027Z</time>
      </trkpt>
      <trkpt lat="45.57618" lon="5.33428">
        <ele>302</ele>
        <time>2021-04-04T08:31:52.027Z</time>
      </trkpt>
      <trkpt lat="45.57612" lon="5.33437">
        <ele>302</ele>
        <time>2021-04-04T08:31:53.028Z</time>
      </trkpt>
      <trkpt lat="45.57605" lon="5.33446">
        <ele>302</ele>
        <time>2021-04-04T08:31:54.027Z</time>
      </trkpt>
      <trkpt lat="45.57599" lon="5.33455">
        <ele>302</ele>
        <time>2021-04-04T08:31:55.027Z</time>
      </trkpt>
      <trkpt lat="45.57592" lon="5.33464">
        <ele>302</ele>
        <time>2021-04-04T08:31:56.028Z</time>
      </trkpt>
      <trkpt lat="45.57585" lon="5.33474">
        <ele>302</ele>
        <time>2021-04-04T08:31:57.028Z</time>
      </trkpt>
      <trkpt lat="45.57579" lon="5.33483">
        <ele>302</ele>
        <time>2021-04-04T08:31:58.028Z</time>
      </trkpt>
      <trkpt lat="45.57573" lon="5.33492">
        <ele>302</ele>
        <time>2021-04-04T08:31:59.027Z</time>
      </trkpt>
      <trkpt lat="45.57567" lon="5.33501">
        <ele>301</ele>
        <time>2021-04-04T08:32:00.028Z</time>
      </trkpt>
      <trkpt lat="45.57559" lon="5.33512">
        <ele>301</ele>
        <time>2021-04-04T08:32:01.028Z</time>
      </trkpt>
      <trkpt lat="45.57555" lon="5.33518">
        <ele>300</ele>
        <time>2021-04-04T08:32:02.027Z</time>
      </trkpt>
      <trkpt lat="45.57549" lon="5.33527">
        <ele>300</ele>
        <time>2021-04-04T08:32:03.028Z</time>
      </trkpt>
      <trkpt lat="45.57543" lon="5.33536">
        <ele>299</ele>
        <time>2021-04-04T08:32:04.028Z</time>
      </trkpt>
      <trkpt lat="45.57537" lon="5.33545">
        <ele>299</ele>
        <time>2021-04-04T08:32:05.028Z</time>
      </trkpt>
      <trkpt lat="45.57531" lon="5.33553">
        <ele>299</ele>
        <time>2021-04-04T08:32:06.028Z</time>
      </trkpt>
      <trkpt lat="45.57525" lon="5.33562">
        <ele>299</ele>
        <time>2021-04-04T08:32:07.027Z</time>
      </trkpt>
      <trkpt lat="45.57519" lon="5.33572">
        <ele>299</ele>
        <time>2021-04-04T08:32:08.028Z</time>
      </trkpt>
      <trkpt lat="45.57514" lon="5.3358">
        <ele>299</ele>
        <time>2021-04-04T08:32:09.028Z</time>
      </trkpt>
      <trkpt lat="45.57508" lon="5.3359">
        <ele>300</ele>
        <time>2021-04-04T08:32:10.028Z</time>
      </trkpt>
      <trkpt lat="45.57502" lon="5.33599">
        <ele>300</ele>
        <time>2021-04-04T08:32:11.028Z</time>
      </trkpt>
      <trkpt lat="45.57496" lon="5.33609">
        <ele>300</ele>
        <time>2021-04-04T08:32:12.028Z</time>
      </trkpt>
      <trkpt lat="45.5749" lon="5.33618">
        <ele>301</ele>
        <time>2021-04-04T08:32:13.028Z</time>
      </trkpt>
      <trkpt lat="45.57484" lon="5.33626">
        <ele>301</ele>
        <time>2021-04-04T08:32:14.027Z</time>
      </trkpt>
      <trkpt lat="45.57478" lon="5.33634">
        <ele>301</ele>
        <time>2021-04-04T08:32:15.028Z</time>
      </trkpt>
      <trkpt lat="45.57472" lon="5.33642">
        <ele>301</ele>
        <time>2021-04-04T08:32:16.027Z</time>
      </trkpt>
      <trkpt lat="45.57466" lon="5.3365">
        <ele>301</ele>
        <time>2021-04-04T08:32:17.028Z</time>
      </trkpt>
      <trkpt lat="45.5746" lon="5.33658">
        <ele>301</ele>
        <time>2021-04-04T08:32:18.028Z</time>
      </trkpt>
      <trkpt lat="45.57455" lon="5.33666">
        <ele>301</ele>
        <time>2021-04-04T08:32:19.028Z</time>
      </trkpt>
      <trkpt lat="45.57449" lon="5.33675">
        <ele>300</ele>
        <time>2021-04-04T08:32:20.028Z</time>
      </trkpt>
      <trkpt lat="45.57443" lon="5.33684">
        <ele>301</ele>
        <time>2021-04-04T08:32:21.028Z</time>
      </trkpt>
      <trkpt lat="45.57437" lon="5.33693">
        <ele>301</ele>
        <time>2021-04-04T08:32:22.028Z</time>
      </trkpt>
      <trkpt lat="45.57431" lon="5.33702">
        <ele>301</ele>
        <time>2021-04-04T08:32:23.028Z</time>
      </trkpt>
      <trkpt lat="45.57423" lon="5.33712">
        <ele>300</ele>
        <time>2021-04-04T08:32:24.028Z</time>
      </trkpt>
      <trkpt lat="45.57417" lon="5.33722">
        <ele>300</ele>
        <time>2021-04-04T08:32:25.028Z</time>
      </trkpt>
      <trkpt lat="45.57412" lon="5.33729">
        <ele>300</ele>
        <time>2021-04-04T08:32:26.028Z</time>
      </trkpt>
      <trkpt lat="45.57406" lon="5.33738">
        <ele>300</ele>
        <time>2021-04-04T08:32:27.028Z</time>
      </trkpt>
      <trkpt lat="45.574" lon="5.33746">
        <ele>300</ele>
        <time>2021-04-04T08:32:28.027Z</time>
      </trkpt>
      <trkpt lat="45.57393" lon="5.33757">
        <ele>300</ele>
        <time>2021-04-04T08:32:29.027Z</time>
      </trkpt>
      <trkpt lat="45.57388" lon="5.33764">
        <ele>300</ele>
        <time>2021-04-04T08:32:30.027Z</time>
      </trkpt>
      <trkpt lat="45.57382" lon="5.33772">
        <ele>300</ele>
        <time>2021-04-04T08:32:31.027Z</time>
      </trkpt>
      <trkpt lat="45.57377" lon="5.3378">
        <ele>300</ele>
        <time>2021-04-04T08:32:32.028Z</time>
      </trkpt>
      <trkpt lat="45.5737" lon="5.33789">
        <ele>301</ele>
        <time>2021-04-04T08:32:33.027Z</time>
      </trkpt>
      <trkpt lat="45.57365" lon="5.33797">
        <ele>301</ele>
        <time>2021-04-04T08:32:34.027Z</time>
      </trkpt>
      <trkpt lat="45.57359" lon="5.33805">
        <ele>302</ele>
        <time>2021-04-04T08:32:35.027Z</time>
      </trkpt>
      <trkpt lat="45.57355" lon="5.33812">
        <ele>302</ele>
        <time>2021-04-04T08:32:36.028Z</time>
      </trkpt>
      <trkpt lat="45.57349" lon="5.3382">
        <ele>302</ele>
        <time>2021-04-04T08:32:37.028Z</time>
      </trkpt>
      <trkpt lat="45.57343" lon="5.33829">
        <ele>303</ele>
        <time>2021-04-04T08:32:38.028Z</time>
      </trkpt>
      <trkpt lat="45.57336" lon="5.33839">
        <ele>303</ele>
        <time>2021-04-04T08:32:39.027Z</time>
      </trkpt>
      <trkpt lat="45.5733" lon="5.33848">
        <ele>303</ele>
        <time>2021-04-04T08:32:40.028Z</time>
      </trkpt>
      <trkpt lat="45.57325" lon="5.33855">
        <ele>303</ele>
        <time>2021-04-04T08:32:41.027Z</time>
      </trkpt>
      <trkpt lat="45.57319" lon="5.33864">
        <ele>303</ele>
        <time>2021-04-04T08:32:42.028Z</time>
      </trkpt>
      <trkpt lat="45.57313" lon="5.33873">
        <ele>303</ele>
        <time>2021-04-04T08:32:43.027Z</time>
      </trkpt>
      <trkpt lat="45.57306" lon="5.33883">
        <ele>303</ele>
        <time>2021-04-04T08:32:44.028Z</time>
      </trkpt>
      <trkpt lat="45.57299" lon="5.33893">
        <ele>303</ele>
        <time>2021-04-04T08:32:45.027Z</time>
      </trkpt>
      <trkpt lat="45.57293" lon="5.33903">
        <ele>303</ele>
        <time>2021-04-04T08:32:46.027Z</time>
      </trkpt>
      <trkpt lat="45.57286" lon="5.33912">
        <ele>303</ele>
        <time>2021-04-04T08:32:47.028Z</time>
      </trkpt>
      <trkpt lat="45.57279" lon="5.33922">
        <ele>303</ele>
        <time>2021-04-04T08:32:48.027Z</time>
      </trkpt>
      <trkpt lat="45.57273" lon="5.33932">
        <ele>302</ele>
        <time>2021-04-04T08:32:49.027Z</time>
      </trkpt>
      <trkpt lat="45.57266" lon="5.33942">
        <ele>302</ele>
        <time>2021-04-04T08:32:50.028Z</time>
      </trkpt>
      <trkpt lat="45.57259" lon="5.33951">
        <ele>302</ele>
        <time>2021-04-04T08:32:51.028Z</time>
      </trkpt>
      <trkpt lat="45.57253" lon="5.33961">
        <ele>302</ele>
        <time>2021-04-04T08:32:52.028Z</time>
      </trkpt>
      <trkpt lat="45.57246" lon="5.33971">
        <ele>302</ele>
        <time>2021-04-04T08:32:53.028Z</time>
      </trkpt>
      <trkpt lat="45.57239" lon="5.3398">
        <ele>301</ele>
        <time>2021-04-04T08:32:54.028Z</time>
      </trkpt>
      <trkpt lat="45.57232" lon="5.33991">
        <ele>301</ele>
        <time>2021-04-04T08:32:55.028Z</time>
      </trkpt>
      <trkpt lat="45.57226" lon="5.33999">
        <ele>302</ele>
        <time>2021-04-04T08:32:56.028Z</time>
      </trkpt>
      <trkpt lat="45.5722" lon="5.34008">
        <ele>302</ele>
        <time>2021-04-04T08:32:57.028Z</time>
      </trkpt>
      <trkpt lat="45.57214" lon="5.34017">
        <ele>302</ele>
        <time>2021-04-04T08:32:58.028Z</time>
      </trkpt>
      <trkpt lat="45.57208" lon="5.34025">
        <ele>302</ele>
        <time>2021-04-04T08:32:59.028Z</time>
      </trkpt>
      <trkpt lat="45.57202" lon="5.34034">
        <ele>302</ele>
        <time>2021-04-04T08:33:00.028Z</time>
      </trkpt>
      <trkpt lat="45.57196" lon="5.34043">
        <ele>303</ele>
        <time>2021-04-04T08:33:01.028Z</time>
      </trkpt>
      <trkpt lat="45.5719" lon="5.34051">
        <ele>303</ele>
        <time>2021-04-04T08:33:02.028Z</time>
      </trkpt>
      <trkpt lat="45.57185" lon="5.34059">
        <ele>304</ele>
        <time>2021-04-04T08:33:03.028Z</time>
      </trkpt>
      <trkpt lat="45.57179" lon="5.34067">
        <ele>304</ele>
        <time>2021-04-04T08:33:04.027Z</time>
      </trkpt>
      <trkpt lat="45.57174" lon="5.34075">
        <ele>304</ele>
        <time>2021-04-04T08:33:05.028Z</time>
      </trkpt>
      <trkpt lat="45.57169" lon="5.34083">
        <ele>304</ele>
        <time>2021-04-04T08:33:06.028Z</time>
      </trkpt>
      <trkpt lat="45.57163" lon="5.34091">
        <ele>304</ele>
        <time>2021-04-04T08:33:07.028Z</time>
      </trkpt>
      <trkpt lat="45.57158" lon="5.34098">
        <ele>304</ele>
        <time>2021-04-04T08:33:08.027Z</time>
      </trkpt>
      <trkpt lat="45.57153" lon="5.34106">
        <ele>304</ele>
        <time>2021-04-04T08:33:09.028Z</time>
      </trkpt>
      <trkpt lat="45.57148" lon="5.34113">
        <ele>304</ele>
        <time>2021-04-04T08:33:10.028Z</time>
      </trkpt>
      <trkpt lat="45.57143" lon="5.34121">
        <ele>304</ele>
        <time>2021-04-04T08:33:11.028Z</time>
      </trkpt>
      <trkpt lat="45.57138" lon="5.34128">
        <ele>305</ele>
        <time>2021-04-04T08:33:12.027Z</time>
      </trkpt>
      <trkpt lat="45.57134" lon="5.34136">
        <ele>305</ele>
        <time>2021-04-04T08:33:13.028Z</time>
      </trkpt>
      <trkpt lat="45.57129" lon="5.34145">
        <ele>305</ele>
        <time>2021-04-04T08:33:14.028Z</time>
      </trkpt>
      <trkpt lat="45.57125" lon="5.34153">
        <ele>305</ele>
        <time>2021-04-04T08:33:15.027Z</time>
      </trkpt>
      <trkpt lat="45.57121" lon="5.34162">
        <ele>305</ele>
        <time>2021-04-04T08:33:16.028Z</time>
      </trkpt>
      <trkpt lat="45.57117" lon="5.34171">
        <ele>306</ele>
        <time>2021-04-04T08:33:17.028Z</time>
      </trkpt>
      <trkpt lat="45.57113" lon="5.34181">
        <ele>306</ele>
        <time>2021-04-04T08:33:18.028Z</time>
      </trkpt>
      <trkpt lat="45.5711" lon="5.3419">
        <ele>307</ele>
        <time>2021-04-04T08:33:19.028Z</time>
      </trkpt>
      <trkpt lat="45.57107" lon="5.342">
        <ele>308</ele>
        <time>2021-04-04T08:33:20.028Z</time>
      </trkpt>
      <trkpt lat="45.57105" lon="5.3421">
        <ele>308</ele>
        <time>2021-04-04T08:33:21.028Z</time>
      </trkpt>
      <trkpt lat="45.57102" lon="5.34221">
        <ele>309</ele>
        <time>2021-04-04T08:33:22.028Z</time>
      </trkpt>
      <trkpt lat="45.57099" lon="5.34231">
        <ele>309</ele>
        <time>2021-04-04T08:33:23.028Z</time>
      </trkpt>
      <trkpt lat="45.57097" lon="5.34242">
        <ele>309</ele>
        <time>2021-04-04T08:33:24.028Z</time>
      </trkpt>
      <trkpt lat="45.57095" lon="5.34253">
        <ele>309</ele>
        <time>2021-04-04T08:33:25.028Z</time>
      </trkpt>
      <trkpt lat="45.57092" lon="5.34263">
        <ele>309</ele>
        <time>2021-04-04T08:33:26.028Z</time>
      </trkpt>
      <trkpt lat="45.57089" lon="5.34275">
        <ele>309</ele>
        <time>2021-04-04T08:33:27.028Z</time>
      </trkpt>
      <trkpt lat="45.57087" lon="5.34285">
        <ele>309</ele>
        <time>2021-04-04T08:33:28.028Z</time>
      </trkpt>
      <trkpt lat="45.57084" lon="5.34296">
        <ele>308</ele>
        <time>2021-04-04T08:33:29.028Z</time>
      </trkpt>
      <trkpt lat="45.57081" lon="5.34307">
        <ele>308</ele>
        <time>2021-04-04T08:33:30.028Z</time>
      </trkpt>
      <trkpt lat="45.57079" lon="5.34317">
        <ele>308</ele>
        <time>2021-04-04T08:33:31.028Z</time>
      </trkpt>
      <trkpt lat="45.57077" lon="5.34325">
        <ele>308</ele>
        <time>2021-04-04T08:33:32.028Z</time>
      </trkpt>
      <trkpt lat="45.57075" lon="5.34337">
        <ele>308</ele>
        <time>2021-04-04T08:33:33.028Z</time>
      </trkpt>
      <trkpt lat="45.57073" lon="5.34347">
        <ele>308</ele>
        <time>2021-04-04T08:33:34.028Z</time>
      </trkpt>
      <trkpt lat="45.57071" lon="5.34356">
        <ele>309</ele>
        <time>2021-04-04T08:33:35.027Z</time>
      </trkpt>
      <trkpt lat="45.57069" lon="5.34365">
        <ele>309</ele>
        <time>2021-04-04T08:33:36.028Z</time>
      </trkpt>
      <trkpt lat="45.57067" lon="5.34374">
        <ele>310</ele>
        <time>2021-04-04T08:33:37.027Z</time>
      </trkpt>
      <trkpt lat="45.57065" lon="5.34382">
        <ele>311</ele>
        <time>2021-04-04T08:33:38.028Z</time>
      </trkpt>
      <trkpt lat="45.57063" lon="5.3439">
        <ele>311</ele>
        <time>2021-04-04T08:33:39.028Z</time>
      </trkpt>
      <trkpt lat="45.57062" lon="5.34397">
        <ele>312</ele>
        <time>2021-04-04T08:33:40.028Z</time>
      </trkpt>
      <trkpt lat="45.57061" lon="5.34404">
        <ele>312</ele>
        <time>2021-04-04T08:33:41.028Z</time>
      </trkpt>
      <trkpt lat="45.57059" lon="5.34412">
        <ele>312</ele>
        <time>2021-04-04T08:33:42.027Z</time>
      </trkpt>
      <trkpt lat="45.57058" lon="5.34419">
        <ele>312</ele>
        <time>2021-04-04T08:33:43.027Z</time>
      </trkpt>
      <trkpt lat="45.57057" lon="5.34427">
        <ele>312</ele>
        <time>2021-04-04T08:33:44.028Z</time>
      </trkpt>
      <trkpt lat="45.57055" lon="5.34435">
        <ele>311</ele>
        <time>2021-04-04T08:33:45.028Z</time>
      </trkpt>
      <trkpt lat="45.57054" lon="5.34443">
        <ele>311</ele>
        <time>2021-04-04T08:33:46.028Z</time>
      </trkpt>
      <trkpt lat="45.57053" lon="5.34452">
        <ele>311</ele>
        <time>2021-04-04T08:33:47.028Z</time>
      </trkpt>
      <trkpt lat="45.57051" lon="5.34461">
        <ele>311</ele>
        <time>2021-04-04T08:33:48.028Z</time>
      </trkpt>
      <trkpt lat="45.57049" lon="5.3447">
        <ele>311</ele>
        <time>2021-04-04T08:33:49.027Z</time>
      </trkpt>
      <trkpt lat="45.57048" lon="5.34479">
        <ele>311</ele>
        <time>2021-04-04T08:33:50.028Z</time>
      </trkpt>
      <trkpt lat="45.57046" lon="5.34488">
        <ele>311</ele>
        <time>2021-04-04T08:33:51.027Z</time>
      </trkpt>
      <trkpt lat="45.57045" lon="5.34498">
        <ele>311</ele>
        <time>2021-04-04T08:33:52.028Z</time>
      </trkpt>
      <trkpt lat="45.57043" lon="5.34509">
        <ele>310</ele>
        <time>2021-04-04T08:33:53.028Z</time>
      </trkpt>
      <trkpt lat="45.57041" lon="5.34519">
        <ele>310</ele>
        <time>2021-04-04T08:33:54.028Z</time>
      </trkpt>
      <trkpt lat="45.57039" lon="5.3453">
        <ele>310</ele>
        <time>2021-04-04T08:33:55.027Z</time>
      </trkpt>
      <trkpt lat="45.57037" lon="5.34541">
        <ele>309</ele>
        <time>2021-04-04T08:33:56.028Z</time>
      </trkpt>
      <trkpt lat="45.57034" lon="5.34553">
        <ele>309</ele>
        <time>2021-04-04T08:33:57.028Z</time>
      </trkpt>
      <trkpt lat="45.57031" lon="5.34565">
        <ele>309</ele>
        <time>2021-04-04T08:33:58.028Z</time>
      </trkpt>
      <trkpt lat="45.57029" lon="5.34576">
        <ele>310</ele>
        <time>2021-04-04T08:33:59.028Z</time>
      </trkpt>
      <trkpt lat="45.57025" lon="5.34587">
        <ele>310</ele>
        <time>2021-04-04T08:34:00.028Z</time>
      </trkpt>
      <trkpt lat="45.57022" lon="5.34598">
        <ele>310</ele>
        <time>2021-04-04T08:34:01.027Z</time>
      </trkpt>
      <trkpt lat="45.57018" lon="5.34609">
        <ele>309</ele>
        <time>2021-04-04T08:34:02.028Z</time>
      </trkpt>
      <trkpt lat="45.57014" lon="5.3462">
        <ele>309</ele>
        <time>2021-04-04T08:34:03.028Z</time>
      </trkpt>
      <trkpt lat="45.5701" lon="5.34632">
        <ele>308</ele>
        <time>2021-04-04T08:34:04.028Z</time>
      </trkpt>
      <trkpt lat="45.57006" lon="5.34643">
        <ele>308</ele>
        <time>2021-04-04T08:34:05.028Z</time>
      </trkpt>
      <trkpt lat="45.57002" lon="5.34654">
        <ele>307</ele>
        <time>2021-04-04T08:34:06.028Z</time>
      </trkpt>
      <trkpt lat="45.56998" lon="5.34665">
        <ele>307</ele>
        <time>2021-04-04T08:34:07.028Z</time>
      </trkpt>
      <trkpt lat="45.56994" lon="5.34677">
        <ele>306</ele>
        <time>2021-04-04T08:34:08.028Z</time>
      </trkpt>
      <trkpt lat="45.5699" lon="5.34688">
        <ele>306</ele>
        <time>2021-04-04T08:34:09.028Z</time>
      </trkpt>
      <trkpt lat="45.56985" lon="5.34702">
        <ele>306</ele>
        <time>2021-04-04T08:34:10.027Z</time>
      </trkpt>
      <trkpt lat="45.56981" lon="5.34713">
        <ele>306</ele>
        <time>2021-04-04T08:34:11.028Z</time>
      </trkpt>
      <trkpt lat="45.56978" lon="5.34722">
        <ele>306</ele>
        <time>2021-04-04T08:34:12.027Z</time>
      </trkpt>
      <trkpt lat="45.56974" lon="5.34733">
        <ele>307</ele>
        <time>2021-04-04T08:34:13.028Z</time>
      </trkpt>
      <trkpt lat="45.5697" lon="5.34745">
        <ele>307</ele>
        <time>2021-04-04T08:34:14.028Z</time>
      </trkpt>
      <trkpt lat="45.56965" lon="5.34758">
        <ele>307</ele>
        <time>2021-04-04T08:34:15.028Z</time>
      </trkpt>
      <trkpt lat="45.56962" lon="5.34767">
        <ele>306</ele>
        <time>2021-04-04T08:34:16.028Z</time>
      </trkpt>
      <trkpt lat="45.56958" lon="5.34778">
        <ele>306</ele>
        <time>2021-04-04T08:34:17.028Z</time>
      </trkpt>
      <trkpt lat="45.56953" lon="5.34791">
        <ele>306</ele>
        <time>2021-04-04T08:34:18.028Z</time>
      </trkpt>
      <trkpt lat="45.5695" lon="5.348">
        <ele>306</ele>
        <time>2021-04-04T08:34:19.028Z</time>
      </trkpt>
      <trkpt lat="45.56946" lon="5.34811">
        <ele>306</ele>
        <time>2021-04-04T08:34:20.028Z</time>
      </trkpt>
      <trkpt lat="45.56942" lon="5.34822">
        <ele>307</ele>
        <time>2021-04-04T08:34:21.028Z</time>
      </trkpt>
      <trkpt lat="45.56938" lon="5.34832">
        <ele>307</ele>
        <time>2021-04-04T08:34:22.028Z</time>
      </trkpt>
      <trkpt lat="45.56935" lon="5.34843">
        <ele>308</ele>
        <time>2021-04-04T08:34:23.027Z</time>
      </trkpt>
      <trkpt lat="45.56931" lon="5.34854">
        <ele>308</ele>
        <time>2021-04-04T08:34:24.028Z</time>
      </trkpt>
      <trkpt lat="45.56927" lon="5.34864">
        <ele>309</ele>
        <time>2021-04-04T08:34:25.028Z</time>
      </trkpt>
      <trkpt lat="45.56923" lon="5.34875">
        <ele>309</ele>
        <time>2021-04-04T08:34:26.028Z</time>
      </trkpt>
      <trkpt lat="45.56919" lon="5.34886">
        <ele>309</ele>
        <time>2021-04-04T08:34:27.028Z</time>
      </trkpt>
      <trkpt lat="45.56915" lon="5.34897">
        <ele>309</ele>
        <time>2021-04-04T08:34:28.028Z</time>
      </trkpt>
      <trkpt lat="45.56912" lon="5.34908">
        <ele>309</ele>
        <time>2021-04-04T08:34:29.028Z</time>
      </trkpt>
      <trkpt lat="45.56908" lon="5.34918">
        <ele>309</ele>
        <time>2021-04-04T08:34:30.027Z</time>
      </trkpt>
      <trkpt lat="45.56905" lon="5.34929">
        <ele>309</ele>
        <time>2021-04-04T08:34:31.027Z</time>
      </trkpt>
      <trkpt lat="45.56902" lon="5.34941">
        <ele>309</ele>
        <time>2021-04-04T08:34:32.028Z</time>
      </trkpt>
      <trkpt lat="45.56899" lon="5.34952">
        <ele>309</ele>
        <time>2021-04-04T08:34:33.028Z</time>
      </trkpt>
      <trkpt lat="45.56896" lon="5.34964">
        <ele>308</ele>
        <time>2021-04-04T08:34:34.027Z</time>
      </trkpt>
      <trkpt lat="45.56894" lon="5.34976">
        <ele>308</ele>
        <time>2021-04-04T08:34:35.028Z</time>
      </trkpt>
      <trkpt lat="45.56891" lon="5.34989">
        <ele>308</ele>
        <time>2021-04-04T08:34:36.028Z</time>
      </trkpt>
      <trkpt lat="45.56889" lon="5.35001">
        <ele>309</ele>
        <time>2021-04-04T08:34:37.028Z</time>
      </trkpt>
      <trkpt lat="45.56887" lon="5.35014">
        <ele>309</ele>
        <time>2021-04-04T08:34:38.028Z</time>
      </trkpt>
      <trkpt lat="45.56885" lon="5.35026">
        <ele>309</ele>
        <time>2021-04-04T08:34:39.027Z</time>
      </trkpt>
      <trkpt lat="45.56883" lon="5.35038">
        <ele>310</ele>
        <time>2021-04-04T08:34:40.027Z</time>
      </trkpt>
      <trkpt lat="45.56881" lon="5.35049">
        <ele>310</ele>
        <time>2021-04-04T08:34:41.027Z</time>
      </trkpt>
      <trkpt lat="45.56879" lon="5.35061">
        <ele>310</ele>
        <time>2021-04-04T08:34:42.027Z</time>
      </trkpt>
      <trkpt lat="45.56877" lon="5.35076">
        <ele>310</ele>
        <time>2021-04-04T08:34:43.027Z</time>
      </trkpt>
      <trkpt lat="45.56875" lon="5.35089">
        <ele>310</ele>
        <time>2021-04-04T08:34:44.028Z</time>
      </trkpt>
      <trkpt lat="45.56873" lon="5.35101">
        <ele>310</ele>
        <time>2021-04-04T08:34:45.028Z</time>
      </trkpt>
      <trkpt lat="45.56871" lon="5.35114">
        <ele>310</ele>
        <time>2021-04-04T08:34:46.028Z</time>
      </trkpt>
      <trkpt lat="45.56869" lon="5.35123">
        <ele>310</ele>
        <time>2021-04-04T08:34:47.027Z</time>
      </trkpt>
      <trkpt lat="45.56867" lon="5.35138">
        <ele>310</ele>
        <time>2021-04-04T08:34:48.028Z</time>
      </trkpt>
      <trkpt lat="45.56865" lon="5.3515">
        <ele>310</ele>
        <time>2021-04-04T08:34:49.027Z</time>
      </trkpt>
      <trkpt lat="45.56862" lon="5.35162">
        <ele>310</ele>
        <time>2021-04-04T08:34:50.028Z</time>
      </trkpt>
      <trkpt lat="45.5686" lon="5.35174">
        <ele>310</ele>
        <time>2021-04-04T08:34:51.028Z</time>
      </trkpt>
      <trkpt lat="45.56858" lon="5.35185">
        <ele>310</ele>
        <time>2021-04-04T08:34:52.028Z</time>
      </trkpt>
      <trkpt lat="45.56855" lon="5.35197">
        <ele>310</ele>
        <time>2021-04-04T08:34:53.027Z</time>
      </trkpt>
      <trkpt lat="45.56852" lon="5.35209">
        <ele>310</ele>
        <time>2021-04-04T08:34:54.028Z</time>
      </trkpt>
      <trkpt lat="45.56848" lon="5.3522">
        <ele>310</ele>
        <time>2021-04-04T08:34:55.028Z</time>
      </trkpt>
      <trkpt lat="45.56844" lon="5.35231">
        <ele>309</ele>
        <time>2021-04-04T08:34:56.027Z</time>
      </trkpt>
      <trkpt lat="45.5684" lon="5.35242">
        <ele>309</ele>
        <time>2021-04-04T08:34:57.027Z</time>
      </trkpt>
      <trkpt lat="45.56836" lon="5.35251">
        <ele>309</ele>
        <time>2021-04-04T08:34:58.028Z</time>
      </trkpt>
      <trkpt lat="45.56831" lon="5.35264">
        <ele>309</ele>
        <time>2021-04-04T08:34:59.028Z</time>
      </trkpt>
      <trkpt lat="45.56826" lon="5.35275">
        <ele>309</ele>
        <time>2021-04-04T08:35:00.027Z</time>
      </trkpt>
      <trkpt lat="45.56821" lon="5.35286">
        <ele>310</ele>
        <time>2021-04-04T08:35:01.028Z</time>
      </trkpt>
      <trkpt lat="45.56817" lon="5.35296">
        <ele>310</ele>
        <time>2021-04-04T08:35:02.028Z</time>
      </trkpt>
      <trkpt lat="45.56812" lon="5.35307">
        <ele>311</ele>
        <time>2021-04-04T08:35:03.028Z</time>
      </trkpt>
      <trkpt lat="45.56807" lon="5.35319">
        <ele>311</ele>
        <time>2021-04-04T08:35:04.028Z</time>
      </trkpt>
      <trkpt lat="45.56803" lon="5.3533">
        <ele>311</ele>
        <time>2021-04-04T08:35:05.027Z</time>
      </trkpt>
      <trkpt lat="45.56798" lon="5.35341">
        <ele>311</ele>
        <time>2021-04-04T08:35:06.028Z</time>
      </trkpt>
      <trkpt lat="45.56795" lon="5.3535">
        <ele>311</ele>
        <time>2021-04-04T08:35:07.028Z</time>
      </trkpt>
      <trkpt lat="45.56791" lon="5.35364">
        <ele>311</ele>
        <time>2021-04-04T08:35:08.027Z</time>
      </trkpt>
      <trkpt lat="45.56788" lon="5.35374">
        <ele>311</ele>
        <time>2021-04-04T08:35:09.028Z</time>
      </trkpt>
      <trkpt lat="45.56784" lon="5.35389">
        <ele>311</ele>
        <time>2021-04-04T08:35:10.028Z</time>
      </trkpt>
      <trkpt lat="45.56782" lon="5.35399">
        <ele>311</ele>
        <time>2021-04-04T08:35:11.028Z</time>
      </trkpt>
      <trkpt lat="45.56778" lon="5.35414">
        <ele>312</ele>
        <time>2021-04-04T08:35:12.028Z</time>
      </trkpt>
      <trkpt lat="45.56776" lon="5.35426">
        <ele>312</ele>
        <time>2021-04-04T08:35:13.027Z</time>
      </trkpt>
      <trkpt lat="45.56774" lon="5.35439">
        <ele>312</ele>
        <time>2021-04-04T08:35:14.028Z</time>
      </trkpt>
      <trkpt lat="45.56773" lon="5.35452">
        <ele>312</ele>
        <time>2021-04-04T08:35:15.028Z</time>
      </trkpt>
      <trkpt lat="45.56772" lon="5.35463">
        <ele>313</ele>
        <time>2021-04-04T08:35:16.027Z</time>
      </trkpt>
      <trkpt lat="45.56771" lon="5.35478">
        <ele>312</ele>
        <time>2021-04-04T08:35:17.027Z</time>
      </trkpt>
      <trkpt lat="45.5677" lon="5.35491">
        <ele>312</ele>
        <time>2021-04-04T08:35:18.028Z</time>
      </trkpt>
      <trkpt lat="45.5677" lon="5.35505">
        <ele>312</ele>
        <time>2021-04-04T08:35:19.028Z</time>
      </trkpt>
      <trkpt lat="45.56771" lon="5.35517">
        <ele>313</ele>
        <time>2021-04-04T08:35:20.027Z</time>
      </trkpt>
      <trkpt lat="45.56771" lon="5.3553">
        <ele>313</ele>
        <time>2021-04-04T08:35:21.028Z</time>
      </trkpt>
      <trkpt lat="45.56772" lon="5.35544">
        <ele>313</ele>
        <time>2021-04-04T08:35:22.028Z</time>
      </trkpt>
      <trkpt lat="45.56773" lon="5.35557">
        <ele>312</ele>
        <time>2021-04-04T08:35:23.028Z</time>
      </trkpt>
      <trkpt lat="45.56775" lon="5.3557">
        <ele>312</ele>
        <time>2021-04-04T08:35:24.027Z</time>
      </trkpt>
      <trkpt lat="45.56776" lon="5.35583">
        <ele>311</ele>
        <time>2021-04-04T08:35:25.027Z</time>
      </trkpt>
      <trkpt lat="45.56777" lon="5.35596">
        <ele>311</ele>
        <time>2021-04-04T08:35:26.028Z</time>
      </trkpt>
      <trkpt lat="45.56779" lon="5.35609">
        <ele>310</ele>
        <time>2021-04-04T08:35:27.027Z</time>
      </trkpt>
      <trkpt lat="45.5678" lon="5.3562">
        <ele>310</ele>
        <time>2021-04-04T08:35:28.027Z</time>
      </trkpt>
      <trkpt lat="45.56782" lon="5.35635">
        <ele>310</ele>
        <time>2021-04-04T08:35:29.028Z</time>
      </trkpt>
      <trkpt lat="45.56783" lon="5.35648">
        <ele>310</ele>
        <time>2021-04-04T08:35:30.028Z</time>
      </trkpt>
      <trkpt lat="45.56784" lon="5.35661">
        <ele>310</ele>
        <time>2021-04-04T08:35:31.028Z</time>
      </trkpt>
      <trkpt lat="45.56785" lon="5.35672">
        <ele>309</ele>
        <time>2021-04-04T08:35:32.028Z</time>
      </trkpt>
      <trkpt lat="45.56787" lon="5.35685">
        <ele>309</ele>
        <time>2021-04-04T08:35:33.027Z</time>
      </trkpt>
      <trkpt lat="45.56788" lon="5.357">
        <ele>309</ele>
        <time>2021-04-04T08:35:34.028Z</time>
      </trkpt>
      <trkpt lat="45.56789" lon="5.35713">
        <ele>310</ele>
        <time>2021-04-04T08:35:35.028Z</time>
      </trkpt>
      <trkpt lat="45.5679" lon="5.35726">
        <ele>310</ele>
        <time>2021-04-04T08:35:36.028Z</time>
      </trkpt>
      <trkpt lat="45.56791" lon="5.35736">
        <ele>310</ele>
        <time>2021-04-04T08:35:37.027Z</time>
      </trkpt>
      <trkpt lat="45.56793" lon="5.35749">
        <ele>310</ele>
        <time>2021-04-04T08:35:38.028Z</time>
      </trkpt>
      <trkpt lat="45.56794" lon="5.35765">
        <ele>310</ele>
        <time>2021-04-04T08:35:39.028Z</time>
      </trkpt>
      <trkpt lat="45.56795" lon="5.35778">
        <ele>311</ele>
        <time>2021-04-04T08:35:40.028Z</time>
      </trkpt>
      <trkpt lat="45.56797" lon="5.3579">
        <ele>311</ele>
        <time>2021-04-04T08:35:41.028Z</time>
      </trkpt>
      <trkpt lat="45.56798" lon="5.358">
        <ele>311</ele>
        <time>2021-04-04T08:35:42.027Z</time>
      </trkpt>
      <trkpt lat="45.56799" lon="5.35813">
        <ele>312</ele>
        <time>2021-04-04T08:35:43.028Z</time>
      </trkpt>
      <trkpt lat="45.568" lon="5.35829">
        <ele>312</ele>
        <time>2021-04-04T08:35:44.028Z</time>
      </trkpt>
      <trkpt lat="45.56801" lon="5.35842">
        <ele>312</ele>
        <time>2021-04-04T08:35:45.027Z</time>
      </trkpt>
      <trkpt lat="45.56802" lon="5.35854">
        <ele>312</ele>
        <time>2021-04-04T08:35:46.028Z</time>
      </trkpt>
      <trkpt lat="45.56803" lon="5.35867">
        <ele>312</ele>
        <time>2021-04-04T08:35:47.027Z</time>
      </trkpt>
      <trkpt lat="45.56804" lon="5.35878">
        <ele>312</ele>
        <time>2021-04-04T08:35:48.028Z</time>
      </trkpt>
      <trkpt lat="45.56805" lon="5.35893">
        <ele>312</ele>
        <time>2021-04-04T08:35:49.028Z</time>
      </trkpt>
      <trkpt lat="45.56805" lon="5.35907">
        <ele>312</ele>
        <time>2021-04-04T08:35:50.028Z</time>
      </trkpt>
      <trkpt lat="45.56806" lon="5.3592">
        <ele>312</ele>
        <time>2021-04-04T08:35:51.028Z</time>
      </trkpt>
      <trkpt lat="45.56807" lon="5.35933">
        <ele>311</ele>
        <time>2021-04-04T08:35:52.028Z</time>
      </trkpt>
      <trkpt lat="45.56809" lon="5.35946">
        <ele>311</ele>
        <time>2021-04-04T08:35:53.027Z</time>
      </trkpt>
      <trkpt lat="45.5681" lon="5.3596">
        <ele>310</ele>
        <time>2021-04-04T08:35:54.027Z</time>
      </trkpt>
      <trkpt lat="45.5681" lon="5.35973">
        <ele>310</ele>
        <time>2021-04-04T08:35:55.028Z</time>
      </trkpt>
      <trkpt lat="45.56812" lon="5.35987">
        <ele>310</ele>
        <time>2021-04-04T08:35:56.028Z</time>
      </trkpt>
      <trkpt lat="45.56813" lon="5.36">
        <ele>309</ele>
        <time>2021-04-04T08:35:57.028Z</time>
      </trkpt>
      <trkpt lat="45.56813" lon="5.36013">
        <ele>309</ele>
        <time>2021-04-04T08:35:58.027Z</time>
      </trkpt>
      <trkpt lat="45.56814" lon="5.36026">
        <ele>308</ele>
        <time>2021-04-04T08:35:59.028Z</time>
      </trkpt>
      <trkpt lat="45.56814" lon="5.3604">
        <ele>308</ele>
        <time>2021-04-04T08:36:00.028Z</time>
      </trkpt>
      <trkpt lat="45.56815" lon="5.36053">
        <ele>309</ele>
        <time>2021-04-04T08:36:01.028Z</time>
      </trkpt>
      <trkpt lat="45.56815" lon="5.36067">
        <ele>309</ele>
        <time>2021-04-04T08:36:02.028Z</time>
      </trkpt>
      <trkpt lat="45.56814" lon="5.3608">
        <ele>309</ele>
        <time>2021-04-04T08:36:03.028Z</time>
      </trkpt>
      <trkpt lat="45.56814" lon="5.36093">
        <ele>309</ele>
        <time>2021-04-04T08:36:04.028Z</time>
      </trkpt>
      <trkpt lat="45.56814" lon="5.36106">
        <ele>309</ele>
        <time>2021-04-04T08:36:05.027Z</time>
      </trkpt>
      <trkpt lat="45.56813" lon="5.36119">
        <ele>309</ele>
        <time>2021-04-04T08:36:06.027Z</time>
      </trkpt>
      <trkpt lat="45.56813" lon="5.36132">
        <ele>309</ele>
        <time>2021-04-04T08:36:07.028Z</time>
      </trkpt>
      <trkpt lat="45.56812" lon="5.36145">
        <ele>308</ele>
        <time>2021-04-04T08:36:08.028Z</time>
      </trkpt>
      <trkpt lat="45.56812" lon="5.36157">
        <ele>308</ele>
        <time>2021-04-04T08:36:09.028Z</time>
      </trkpt>
      <trkpt lat="45.56811" lon="5.3617">
        <ele>308</ele>
        <time>2021-04-04T08:36:10.027Z</time>
      </trkpt>
      <trkpt lat="45.56811" lon="5.36182">
        <ele>307</ele>
        <time>2021-04-04T08:36:11.027Z</time>
      </trkpt>
      <trkpt lat="45.5681" lon="5.36195">
        <ele>308</ele>
        <time>2021-04-04T08:36:12.028Z</time>
      </trkpt>
      <trkpt lat="45.5681" lon="5.36208">
        <ele>307</ele>
        <time>2021-04-04T08:36:13.028Z</time>
      </trkpt>
      <trkpt lat="45.5681" lon="5.3622">
        <ele>307</ele>
        <time>2021-04-04T08:36:14.027Z</time>
      </trkpt>
      <trkpt lat="45.56809" lon="5.36232">
        <ele>306</ele>
        <time>2021-04-04T08:36:15.028Z</time>
      </trkpt>
      <trkpt lat="45.56809" lon="5.36245">
        <ele>306</ele>
        <time>2021-04-04T08:36:16.028Z</time>
      </trkpt>
      <trkpt lat="45.56809" lon="5.36257">
        <ele>306</ele>
        <time>2021-04-04T08:36:17.028Z</time>
      </trkpt>
      <trkpt lat="45.56809" lon="5.3627">
        <ele>305</ele>
        <time>2021-04-04T08:36:18.028Z</time>
      </trkpt>
      <trkpt lat="45.56808" lon="5.36282">
        <ele>305</ele>
        <time>2021-04-04T08:36:19.028Z</time>
      </trkpt>
      <trkpt lat="45.56808" lon="5.36295">
        <ele>305</ele>
        <time>2021-04-04T08:36:20.028Z</time>
      </trkpt>
      <trkpt lat="45.56807" lon="5.36308">
        <ele>306</ele>
        <time>2021-04-04T08:36:21.028Z</time>
      </trkpt>
      <trkpt lat="45.56807" lon="5.36321">
        <ele>306</ele>
        <time>2021-04-04T08:36:22.027Z</time>
      </trkpt>
      <trkpt lat="45.56807" lon="5.36334">
        <ele>307</ele>
        <time>2021-04-04T08:36:23.027Z</time>
      </trkpt>
      <trkpt lat="45.56806" lon="5.36347">
        <ele>307</ele>
        <time>2021-04-04T08:36:24.028Z</time>
      </trkpt>
      <trkpt lat="45.56806" lon="5.3636">
        <ele>307</ele>
        <time>2021-04-04T08:36:25.028Z</time>
      </trkpt>
      <trkpt lat="45.56806" lon="5.36373">
        <ele>307</ele>
        <time>2021-04-04T08:36:26.028Z</time>
      </trkpt>
      <trkpt lat="45.56805" lon="5.36387">
        <ele>307</ele>
        <time>2021-04-04T08:36:27.027Z</time>
      </trkpt>
      <trkpt lat="45.56805" lon="5.364">
        <ele>306</ele>
        <time>2021-04-04T08:36:28.028Z</time>
      </trkpt>
      <trkpt lat="45.56805" lon="5.36413">
        <ele>306</ele>
        <time>2021-04-04T08:36:29.028Z</time>
      </trkpt>
      <trkpt lat="45.56804" lon="5.36426">
        <ele>306</ele>
        <time>2021-04-04T08:36:30.027Z</time>
      </trkpt>
      <trkpt lat="45.56803" lon="5.36439">
        <ele>306</ele>
        <time>2021-04-04T08:36:31.028Z</time>
      </trkpt>
      <trkpt lat="45.56803" lon="5.36452">
        <ele>306</ele>
        <time>2021-04-04T08:36:32.027Z</time>
      </trkpt>
      <trkpt lat="45.56802" lon="5.36465">
        <ele>305</ele>
        <time>2021-04-04T08:36:33.028Z</time>
      </trkpt>
      <trkpt lat="45.56801" lon="5.36478">
        <ele>305</ele>
        <time>2021-04-04T08:36:34.028Z</time>
      </trkpt>
      <trkpt lat="45.56801" lon="5.36491">
        <ele>305</ele>
        <time>2021-04-04T08:36:35.027Z</time>
      </trkpt>
      <trkpt lat="45.568" lon="5.36504">
        <ele>305</ele>
        <time>2021-04-04T08:36:36.027Z</time>
      </trkpt>
      <trkpt lat="45.56799" lon="5.36516">
        <ele>305</ele>
        <time>2021-04-04T08:36:37.028Z</time>
      </trkpt>
      <trkpt lat="45.56797" lon="5.36529">
        <ele>306</ele>
        <time>2021-04-04T08:36:38.027Z</time>
      </trkpt>
      <trkpt lat="45.56796" lon="5.36543">
        <ele>307</ele>
        <time>2021-04-04T08:36:39.028Z</time>
      </trkpt>
      <trkpt lat="45.56795" lon="5.36555">
        <ele>307</ele>
        <time>2021-04-04T08:36:40.028Z</time>
      </trkpt>
      <trkpt lat="45.56793" lon="5.36568">
        <ele>308</ele>
        <time>2021-04-04T08:36:41.028Z</time>
      </trkpt>
      <trkpt lat="45.56791" lon="5.3658">
        <ele>308</ele>
        <time>2021-04-04T08:36:42.028Z</time>
      </trkpt>
      <trkpt lat="45.56789" lon="5.36593">
        <ele>309</ele>
        <time>2021-04-04T08:36:43.028Z</time>
      </trkpt>
      <trkpt lat="45.56787" lon="5.36607">
        <ele>309</ele>
        <time>2021-04-04T08:36:44.027Z</time>
      </trkpt>
      <trkpt lat="45.56785" lon="5.3662">
        <ele>310</ele>
        <time>2021-04-04T08:36:45.028Z</time>
      </trkpt>
      <trkpt lat="45.56784" lon="5.36633">
        <ele>310</ele>
        <time>2021-04-04T08:36:46.028Z</time>
      </trkpt>
      <trkpt lat="45.56783" lon="5.36646">
        <ele>311</ele>
        <time>2021-04-04T08:36:47.027Z</time>
      </trkpt>
      <trkpt lat="45.56781" lon="5.36659">
        <ele>311</ele>
        <time>2021-04-04T08:36:48.027Z</time>
      </trkpt>
      <trkpt lat="45.5678" lon="5.36671">
        <ele>311</ele>
        <time>2021-04-04T08:36:49.027Z</time>
      </trkpt>
      <trkpt lat="45.56779" lon="5.36684">
        <ele>310</ele>
        <time>2021-04-04T08:36:50.028Z</time>
      </trkpt>
      <trkpt lat="45.56778" lon="5.36696">
        <ele>309</ele>
        <time>2021-04-04T08:36:51.027Z</time>
      </trkpt>
      <trkpt lat="45.56776" lon="5.36709">
        <ele>308</ele>
        <time>2021-04-04T08:36:52.027Z</time>
      </trkpt>
      <trkpt lat="45.56775" lon="5.36721">
        <ele>308</ele>
        <time>2021-04-04T08:36:53.028Z</time>
      </trkpt>
      <trkpt lat="45.56773" lon="5.36734">
        <ele>308</ele>
        <time>2021-04-04T08:36:54.027Z</time>
      </trkpt>
      <trkpt lat="45.56772" lon="5.36746">
        <ele>307</ele>
        <time>2021-04-04T08:36:55.027Z</time>
      </trkpt>
      <trkpt lat="45.56771" lon="5.36759">
        <ele>307</ele>
        <time>2021-04-04T08:36:56.028Z</time>
      </trkpt>
      <trkpt lat="45.56769" lon="5.36772">
        <ele>306</ele>
        <time>2021-04-04T08:36:57.027Z</time>
      </trkpt>
      <trkpt lat="45.56768" lon="5.36785">
        <ele>306</ele>
        <time>2021-04-04T08:36:58.028Z</time>
      </trkpt>
      <trkpt lat="45.56766" lon="5.36798">
        <ele>306</ele>
        <time>2021-04-04T08:36:59.028Z</time>
      </trkpt>
      <trkpt lat="45.56765" lon="5.36811">
        <ele>306</ele>
        <time>2021-04-04T08:37:00.028Z</time>
      </trkpt>
      <trkpt lat="45.56764" lon="5.36823">
        <ele>306</ele>
        <time>2021-04-04T08:37:01.028Z</time>
      </trkpt>
      <trkpt lat="45.56762" lon="5.36836">
        <ele>306</ele>
        <time>2021-04-04T08:37:02.027Z</time>
      </trkpt>
      <trkpt lat="45.56761" lon="5.36849">
        <ele>306</ele>
        <time>2021-04-04T08:37:03.028Z</time>
      </trkpt>
      <trkpt lat="45.56759" lon="5.36861">
        <ele>305</ele>
        <time>2021-04-04T08:37:04.027Z</time>
      </trkpt>
      <trkpt lat="45.56758" lon="5.36874">
        <ele>305</ele>
        <time>2021-04-04T08:37:05.027Z</time>
      </trkpt>
      <trkpt lat="45.56757" lon="5.36887">
        <ele>304</ele>
        <time>2021-04-04T08:37:06.028Z</time>
      </trkpt>
      <trkpt lat="45.56755" lon="5.369">
        <ele>304</ele>
        <time>2021-04-04T08:37:07.027Z</time>
      </trkpt>
      <trkpt lat="45.56754" lon="5.36913">
        <ele>304</ele>
        <time>2021-04-04T08:37:08.027Z</time>
      </trkpt>
      <trkpt lat="45.56752" lon="5.36925">
        <ele>305</ele>
        <time>2021-04-04T08:37:09.028Z</time>
      </trkpt>
      <trkpt lat="45.56749" lon="5.36937">
        <ele>304</ele>
        <time>2021-04-04T08:37:10.027Z</time>
      </trkpt>
      <trkpt lat="45.56747" lon="5.3695">
        <ele>304</ele>
        <time>2021-04-04T08:37:11.028Z</time>
      </trkpt>
      <trkpt lat="45.56746" lon="5.36962">
        <ele>304</ele>
        <time>2021-04-04T08:37:12.027Z</time>
      </trkpt>
      <trkpt lat="45.56745" lon="5.36974">
        <ele>304</ele>
        <time>2021-04-04T08:37:13.028Z</time>
      </trkpt>
      <trkpt lat="45.56744" lon="5.36987">
        <ele>304</ele>
        <time>2021-04-04T08:37:14.028Z</time>
      </trkpt>
      <trkpt lat="45.56743" lon="5.36999">
        <ele>304</ele>
        <time>2021-04-04T08:37:15.027Z</time>
      </trkpt>
      <trkpt lat="45.56743" lon="5.37012">
        <ele>304</ele>
        <time>2021-04-04T08:37:16.028Z</time>
      </trkpt>
      <trkpt lat="45.56742" lon="5.37025">
        <ele>304</ele>
        <time>2021-04-04T08:37:17.027Z</time>
      </trkpt>
      <trkpt lat="45.56741" lon="5.37037">
        <ele>303</ele>
        <time>2021-04-04T08:37:18.027Z</time>
      </trkpt>
      <trkpt lat="45.56739" lon="5.37049">
        <ele>303</ele>
        <time>2021-04-04T08:37:19.028Z</time>
      </trkpt>
      <trkpt lat="45.56737" lon="5.37061">
        <ele>304</ele>
        <time>2021-04-04T08:37:20.028Z</time>
      </trkpt>
      <trkpt lat="45.56734" lon="5.37073">
        <ele>304</ele>
        <time>2021-04-04T08:37:21.028Z</time>
      </trkpt>
      <trkpt lat="45.56732" lon="5.37082">
        <ele>305</ele>
        <time>2021-04-04T08:37:22.027Z</time>
      </trkpt>
      <trkpt lat="45.56729" lon="5.37096">
        <ele>305</ele>
        <time>2021-04-04T08:37:23.028Z</time>
      </trkpt>
      <trkpt lat="45.56726" lon="5.37107">
        <ele>305</ele>
        <time>2021-04-04T08:37:24.028Z</time>
      </trkpt>
      <trkpt lat="45.56723" lon="5.37118">
        <ele>305</ele>
        <time>2021-04-04T08:37:25.028Z</time>
      </trkpt>
      <trkpt lat="45.5672" lon="5.37129">
        <ele>305</ele>
        <time>2021-04-04T08:37:26.028Z</time>
      </trkpt>
      <trkpt lat="45.56717" lon="5.3714">
        <ele>304</ele>
        <time>2021-04-04T08:37:27.027Z</time>
      </trkpt>
      <trkpt lat="45.56714" lon="5.37151">
        <ele>304</ele>
        <time>2021-04-04T08:37:28.027Z</time>
      </trkpt>
      <trkpt lat="45.56712" lon="5.37161">
        <ele>304</ele>
        <time>2021-04-04T08:37:29.027Z</time>
      </trkpt>
      <trkpt lat="45.56709" lon="5.37172">
        <ele>304</ele>
        <time>2021-04-04T08:37:30.028Z</time>
      </trkpt>
      <trkpt lat="45.56706" lon="5.37182">
        <ele>304</ele>
        <time>2021-04-04T08:37:31.028Z</time>
      </trkpt>
      <trkpt lat="45.56703" lon="5.3719">
        <ele>303</ele>
        <time>2021-04-04T08:37:32.027Z</time>
      </trkpt>
      <trkpt lat="45.56699" lon="5.37203">
        <ele>304</ele>
        <time>2021-04-04T08:37:33.028Z</time>
      </trkpt>
      <trkpt lat="45.56697" lon="5.37213">
        <ele>304</ele>
        <time>2021-04-04T08:37:34.028Z</time>
      </trkpt>
      <trkpt lat="45.56694" lon="5.37222">
        <ele>304</ele>
        <time>2021-04-04T08:37:35.027Z</time>
      </trkpt>
      <trkpt lat="45.56691" lon="5.37232">
        <ele>304</ele>
        <time>2021-04-04T08:37:36.027Z</time>
      </trkpt>
      <trkpt lat="45.56689" lon="5.37242">
        <ele>304</ele>
        <time>2021-04-04T08:37:37.028Z</time>
      </trkpt>
      <trkpt lat="45.56686" lon="5.37252">
        <ele>304</ele>
        <time>2021-04-04T08:37:38.027Z</time>
      </trkpt>
      <trkpt lat="45.56684" lon="5.37263">
        <ele>303</ele>
        <time>2021-04-04T08:37:39.028Z</time>
      </trkpt>
      <trkpt lat="45.56683" lon="5.37273">
        <ele>304</ele>
        <time>2021-04-04T08:37:40.028Z</time>
      </trkpt>
      <trkpt lat="45.56682" lon="5.37284">
        <ele>304</ele>
        <time>2021-04-04T08:37:41.027Z</time>
      </trkpt>
      <trkpt lat="45.56682" lon="5.37296">
        <ele>305</ele>
        <time>2021-04-04T08:37:42.028Z</time>
      </trkpt>
      <trkpt lat="45.56683" lon="5.37308">
        <ele>305</ele>
        <time>2021-04-04T08:37:43.027Z</time>
      </trkpt>
      <trkpt lat="45.56685" lon="5.37319">
        <ele>305</ele>
        <time>2021-04-04T08:37:44.028Z</time>
      </trkpt>
      <trkpt lat="45.56688" lon="5.3733">
        <ele>305</ele>
        <time>2021-04-04T08:37:45.027Z</time>
      </trkpt>
      <trkpt lat="45.56692" lon="5.3734">
        <ele>305</ele>
        <time>2021-04-04T08:37:46.027Z</time>
      </trkpt>
      <trkpt lat="45.56696" lon="5.3735">
        <ele>305</ele>
        <time>2021-04-04T08:37:47.027Z</time>
      </trkpt>
      <trkpt lat="45.56702" lon="5.37359">
        <ele>305</ele>
        <time>2021-04-04T08:37:48.027Z</time>
      </trkpt>
      <trkpt lat="45.56707" lon="5.37367">
        <ele>305</ele>
        <time>2021-04-04T08:37:49.027Z</time>
      </trkpt>
      <trkpt lat="45.56712" lon="5.37376">
        <ele>305</ele>
        <time>2021-04-04T08:37:50.028Z</time>
      </trkpt>
      <trkpt lat="45.56717" lon="5.37386">
        <ele>305</ele>
        <time>2021-04-04T08:37:51.027Z</time>
      </trkpt>
      <trkpt lat="45.56721" lon="5.37397">
        <ele>305</ele>
        <time>2021-04-04T08:37:52.028Z</time>
      </trkpt>
      <trkpt lat="45.56723" lon="5.37408">
        <ele>305</ele>
        <time>2021-04-04T08:37:53.028Z</time>
      </trkpt>
      <trkpt lat="45.56725" lon="5.3742">
        <ele>305</ele>
        <time>2021-04-04T08:37:54.027Z</time>
      </trkpt>
      <trkpt lat="45.56726" lon="5.37431">
        <ele>305</ele>
        <time>2021-04-04T08:37:55.028Z</time>
      </trkpt>
      <trkpt lat="45.56726" lon="5.37443">
        <ele>305</ele>
        <time>2021-04-04T08:37:56.028Z</time>
      </trkpt>
      <trkpt lat="45.56725" lon="5.37453">
        <ele>305</ele>
        <time>2021-04-04T08:37:57.028Z</time>
      </trkpt>
      <trkpt lat="45.56725" lon="5.37462">
        <ele>306</ele>
        <time>2021-04-04T08:37:58.028Z</time>
      </trkpt>
      <trkpt lat="45.56724" lon="5.37469">
        <ele>306</ele>
        <time>2021-04-04T08:37:59.028Z</time>
      </trkpt>
      <trkpt lat="45.56724" lon="5.37475">
        <ele>307</ele>
        <time>2021-04-04T08:38:00.028Z</time>
      </trkpt>
      <trkpt lat="45.56723" lon="5.37481">
        <ele>308</ele>
        <time>2021-04-04T08:38:01.028Z</time>
      </trkpt>
      <trkpt lat="45.56722" lon="5.37487">
        <ele>308</ele>
        <time>2021-04-04T08:38:02.028Z</time>
      </trkpt>
      <trkpt lat="45.56722" lon="5.37493">
        <ele>309</ele>
        <time>2021-04-04T08:38:03.028Z</time>
      </trkpt>
      <trkpt lat="45.56721" lon="5.375">
        <ele>309</ele>
        <time>2021-04-04T08:38:04.028Z</time>
      </trkpt>
      <trkpt lat="45.56721" lon="5.37508">
        <ele>310</ele>
        <time>2021-04-04T08:38:05.028Z</time>
      </trkpt>
      <trkpt lat="45.5672" lon="5.37517">
        <ele>311</ele>
        <time>2021-04-04T08:38:06.027Z</time>
      </trkpt>
      <trkpt lat="45.56718" lon="5.37522">
        <ele>311</ele>
        <time>2021-04-04T08:38:07.028Z</time>
      </trkpt>
      <trkpt lat="45.56716" lon="5.37529">
        <ele>311</ele>
        <time>2021-04-04T08:38:08.028Z</time>
      </trkpt>
      <trkpt lat="45.56715" lon="5.37537">
        <ele>310</ele>
        <time>2021-04-04T08:38:09.028Z</time>
      </trkpt>
      <trkpt lat="45.56713" lon="5.37545">
        <ele>309</ele>
        <time>2021-04-04T08:38:10.027Z</time>
      </trkpt>
      <trkpt lat="45.56712" lon="5.37553">
        <ele>309</ele>
        <time>2021-04-04T08:38:11.028Z</time>
      </trkpt>
      <trkpt lat="45.56711" lon="5.37562">
        <ele>309</ele>
        <time>2021-04-04T08:38:12.027Z</time>
      </trkpt>
      <trkpt lat="45.5671" lon="5.3757">
        <ele>309</ele>
        <time>2021-04-04T08:38:13.028Z</time>
      </trkpt>
      <trkpt lat="45.56709" lon="5.37579">
        <ele>309</ele>
        <time>2021-04-04T08:38:14.027Z</time>
      </trkpt>
      <trkpt lat="45.56708" lon="5.37588">
        <ele>309</ele>
        <time>2021-04-04T08:38:15.028Z</time>
      </trkpt>
      <trkpt lat="45.56707" lon="5.37597">
        <ele>309</ele>
        <time>2021-04-04T08:38:16.028Z</time>
      </trkpt>
      <trkpt lat="45.56707" lon="5.37606">
        <ele>309</ele>
        <time>2021-04-04T08:38:17.028Z</time>
      </trkpt>
      <trkpt lat="45.56706" lon="5.37616">
        <ele>309</ele>
        <time>2021-04-04T08:38:18.027Z</time>
      </trkpt>
      <trkpt lat="45.56705" lon="5.37627">
        <ele>310</ele>
        <time>2021-04-04T08:38:19.028Z</time>
      </trkpt>
      <trkpt lat="45.56705" lon="5.37636">
        <ele>310</ele>
        <time>2021-04-04T08:38:20.028Z</time>
      </trkpt>
      <trkpt lat="45.56705" lon="5.37646">
        <ele>311</ele>
        <time>2021-04-04T08:38:21.027Z</time>
      </trkpt>
      <trkpt lat="45.56704" lon="5.37655">
        <ele>311</ele>
        <time>2021-04-04T08:38:22.027Z</time>
      </trkpt>
      <trkpt lat="45.56705" lon="5.37664">
        <ele>312</ele>
        <time>2021-04-04T08:38:23.027Z</time>
      </trkpt>
      <trkpt lat="45.56706" lon="5.37674">
        <ele>312</ele>
        <time>2021-04-04T08:38:24.027Z</time>
      </trkpt>
      <trkpt lat="45.56707" lon="5.37683">
        <ele>313</ele>
        <time>2021-04-04T08:38:25.028Z</time>
      </trkpt>
      <trkpt lat="45.56708" lon="5.37692">
        <ele>313</ele>
        <time>2021-04-04T08:38:26.028Z</time>
      </trkpt>
      <trkpt lat="45.56709" lon="5.37701">
        <ele>313</ele>
        <time>2021-04-04T08:38:27.028Z</time>
      </trkpt>
      <trkpt lat="45.5671" lon="5.37709">
        <ele>312</ele>
        <time>2021-04-04T08:38:28.028Z</time>
      </trkpt>
      <trkpt lat="45.56711" lon="5.37718">
        <ele>311</ele>
        <time>2021-04-04T08:38:29.028Z</time>
      </trkpt>
      <trkpt lat="45.56712" lon="5.37727">
        <ele>310</ele>
        <time>2021-04-04T08:38:30.027Z</time>
      </trkpt>
      <trkpt lat="45.56712" lon="5.37736">
        <ele>310</ele>
        <time>2021-04-04T08:38:31.028Z</time>
      </trkpt>
      <trkpt lat="45.56713" lon="5.37746">
        <ele>309</ele>
        <time>2021-04-04T08:38:32.027Z</time>
      </trkpt>
      <trkpt lat="45.56714" lon="5.37755">
        <ele>309</ele>
        <time>2021-04-04T08:38:33.028Z</time>
      </trkpt>
      <trkpt lat="45.56716" lon="5.37765">
        <ele>309</ele>
        <time>2021-04-04T08:38:34.028Z</time>
      </trkpt>
      <trkpt lat="45.56717" lon="5.37773">
        <ele>308</ele>
        <time>2021-04-04T08:38:35.027Z</time>
      </trkpt>
      <trkpt lat="45.56719" lon="5.37781">
        <ele>308</ele>
        <time>2021-04-04T08:38:36.028Z</time>
      </trkpt>
      <trkpt lat="45.5672" lon="5.37788">
        <ele>308</ele>
        <time>2021-04-04T08:38:37.028Z</time>
      </trkpt>
      <trkpt lat="45.56721" lon="5.37796">
        <ele>308</ele>
        <time>2021-04-04T08:38:38.028Z</time>
      </trkpt>
      <trkpt lat="45.56723" lon="5.37807">
        <ele>308</ele>
        <time>2021-04-04T08:38:39.027Z</time>
      </trkpt>
      <trkpt lat="45.56725" lon="5.37815">
        <ele>308</ele>
        <time>2021-04-04T08:38:40.028Z</time>
      </trkpt>
      <trkpt lat="45.56726" lon="5.37822">
        <ele>308</ele>
        <time>2021-04-04T08:38:41.027Z</time>
      </trkpt>
      <trkpt lat="45.56727" lon="5.37831">
        <ele>307</ele>
        <time>2021-04-04T08:38:42.028Z</time>
      </trkpt>
      <trkpt lat="45.56727" lon="5.37841">
        <ele>306</ele>
        <time>2021-04-04T08:38:43.028Z</time>
      </trkpt>
      <trkpt lat="45.56727" lon="5.3785">
        <ele>306</ele>
        <time>2021-04-04T08:38:44.028Z</time>
      </trkpt>
      <trkpt lat="45.56726" lon="5.3786">
        <ele>305</ele>
        <time>2021-04-04T08:38:45.027Z</time>
      </trkpt>
      <trkpt lat="45.56725" lon="5.37869">
        <ele>305</ele>
        <time>2021-04-04T08:38:46.027Z</time>
      </trkpt>
      <trkpt lat="45.56725" lon="5.37879">
        <ele>305</ele>
        <time>2021-04-04T08:38:47.028Z</time>
      </trkpt>
      <trkpt lat="45.56724" lon="5.37888">
        <ele>305</ele>
        <time>2021-04-04T08:38:48.028Z</time>
      </trkpt>
      <trkpt lat="45.56724" lon="5.37898">
        <ele>305</ele>
        <time>2021-04-04T08:38:49.028Z</time>
      </trkpt>
      <trkpt lat="45.56723" lon="5.37907">
        <ele>305</ele>
        <time>2021-04-04T08:38:50.028Z</time>
      </trkpt>
      <trkpt lat="45.56722" lon="5.37917">
        <ele>305</ele>
        <time>2021-04-04T08:38:51.027Z</time>
      </trkpt>
      <trkpt lat="45.56722" lon="5.37926">
        <ele>306</ele>
        <time>2021-04-04T08:38:52.028Z</time>
      </trkpt>
      <trkpt lat="45.56721" lon="5.37936">
        <ele>306</ele>
        <time>2021-04-04T08:38:53.028Z</time>
      </trkpt>
      <trkpt lat="45.5672" lon="5.37945">
        <ele>306</ele>
        <time>2021-04-04T08:38:54.028Z</time>
      </trkpt>
      <trkpt lat="45.5672" lon="5.37955">
        <ele>306</ele>
        <time>2021-04-04T08:38:55.027Z</time>
      </trkpt>
      <trkpt lat="45.56719" lon="5.37964">
        <ele>306</ele>
        <time>2021-04-04T08:38:56.028Z</time>
      </trkpt>
      <trkpt lat="45.56719" lon="5.37974">
        <ele>306</ele>
        <time>2021-04-04T08:38:57.028Z</time>
      </trkpt>
      <trkpt lat="45.5672" lon="5.37983">
        <ele>307</ele>
        <time>2021-04-04T08:38:58.027Z</time>
      </trkpt>
      <trkpt lat="45.56721" lon="5.37992">
        <ele>307</ele>
        <time>2021-04-04T08:38:59.028Z</time>
      </trkpt>
      <trkpt lat="45.56722" lon="5.38001">
        <ele>306</ele>
        <time>2021-04-04T08:39:00.028Z</time>
      </trkpt>
      <trkpt lat="45.56723" lon="5.3801">
        <ele>306</ele>
        <time>2021-04-04T08:39:01.028Z</time>
      </trkpt>
      <trkpt lat="45.56724" lon="5.3802">
        <ele>306</ele>
        <time>2021-04-04T08:39:02.028Z</time>
      </trkpt>
      <trkpt lat="45.56724" lon="5.38029">
        <ele>306</ele>
        <time>2021-04-04T08:39:03.027Z</time>
      </trkpt>
      <trkpt lat="45.56725" lon="5.38039">
        <ele>306</ele>
        <time>2021-04-04T08:39:04.028Z</time>
      </trkpt>
      <trkpt lat="45.56724" lon="5.38048">
        <ele>305</ele>
        <time>2021-04-04T08:39:05.028Z</time>
      </trkpt>
      <trkpt lat="45.56723" lon="5.38058">
        <ele>305</ele>
        <time>2021-04-04T08:39:06.028Z</time>
      </trkpt>
      <trkpt lat="45.56722" lon="5.38067">
        <ele>305</ele>
        <time>2021-04-04T08:39:07.028Z</time>
      </trkpt>
      <trkpt lat="45.56721" lon="5.38074">
        <ele>305</ele>
        <time>2021-04-04T08:39:08.028Z</time>
      </trkpt>
      <trkpt lat="45.56718" lon="5.38085">
        <ele>304</ele>
        <time>2021-04-04T08:39:09.027Z</time>
      </trkpt>
      <trkpt lat="45.56715" lon="5.38094">
        <ele>304</ele>
        <time>2021-04-04T08:39:10.028Z</time>
      </trkpt>
      <trkpt lat="45.56713" lon="5.38102">
        <ele>304</ele>
        <time>2021-04-04T08:39:11.028Z</time>
      </trkpt>
      <trkpt lat="45.5671" lon="5.38111">
        <ele>303</ele>
        <time>2021-04-04T08:39:12.027Z</time>
      </trkpt>
      <trkpt lat="45.56707" lon="5.3812">
        <ele>303</ele>
        <time>2021-04-04T08:39:13.027Z</time>
      </trkpt>
      <trkpt lat="45.56704" lon="5.38129">
        <ele>303</ele>
        <time>2021-04-04T08:39:14.028Z</time>
      </trkpt>
      <trkpt lat="45.56701" lon="5.38138">
        <ele>303</ele>
        <time>2021-04-04T08:39:15.027Z</time>
      </trkpt>
      <trkpt lat="45.56698" lon="5.38146">
        <ele>302</ele>
        <time>2021-04-04T08:39:16.027Z</time>
      </trkpt>
      <trkpt lat="45.56696" lon="5.38155">
        <ele>302</ele>
        <time>2021-04-04T08:39:17.028Z</time>
      </trkpt>
      <trkpt lat="45.56694" lon="5.38164">
        <ele>303</ele>
        <time>2021-04-04T08:39:18.028Z</time>
      </trkpt>
      <trkpt lat="45.56692" lon="5.38173">
        <ele>303</ele>
        <time>2021-04-04T08:39:19.027Z</time>
      </trkpt>
      <trkpt lat="45.56691" lon="5.38182">
        <ele>303</ele>
        <time>2021-04-04T08:39:20.028Z</time>
      </trkpt>
      <trkpt lat="45.5669" lon="5.38191">
        <ele>303</ele>
        <time>2021-04-04T08:39:21.028Z</time>
      </trkpt>
      <trkpt lat="45.56689" lon="5.382">
        <ele>303</ele>
        <time>2021-04-04T08:39:22.028Z</time>
      </trkpt>
      <trkpt lat="45.5669" lon="5.38209">
        <ele>303</ele>
        <time>2021-04-04T08:39:23.028Z</time>
      </trkpt>
      <trkpt lat="45.56693" lon="5.38217">
        <ele>304</ele>
        <time>2021-04-04T08:39:24.027Z</time>
      </trkpt>
      <trkpt lat="45.56696" lon="5.38224">
        <ele>304</ele>
        <time>2021-04-04T08:39:25.027Z</time>
      </trkpt>
      <trkpt lat="45.56699" lon="5.38231">
        <ele>305</ele>
        <time>2021-04-04T08:39:26.028Z</time>
      </trkpt>
      <trkpt lat="45.56702" lon="5.38236">
        <ele>306</ele>
        <time>2021-04-04T08:39:27.028Z</time>
      </trkpt>
      <trkpt lat="45.56705" lon="5.38242">
        <ele>307</ele>
        <time>2021-04-04T08:39:28.028Z</time>
      </trkpt>
      <trkpt lat="45.56707" lon="5.38247">
        <ele>307</ele>
        <time>2021-04-04T08:39:29.027Z</time>
      </trkpt>
      <trkpt lat="45.56708" lon="5.38253">
        <ele>308</ele>
        <time>2021-04-04T08:39:30.028Z</time>
      </trkpt>
      <trkpt lat="45.5671" lon="5.38258">
        <ele>309</ele>
        <time>2021-04-04T08:39:31.028Z</time>
      </trkpt>
      <trkpt lat="45.56711" lon="5.38263">
        <ele>309</ele>
        <time>2021-04-04T08:39:32.028Z</time>
      </trkpt>
      <trkpt lat="45.56712" lon="5.38269">
        <ele>310</ele>
        <time>2021-04-04T08:39:33.028Z</time>
      </trkpt>
      <trkpt lat="45.56713" lon="5.38274">
        <ele>311</ele>
        <time>2021-04-04T08:39:34.028Z</time>
      </trkpt>
      <trkpt lat="45.56714" lon="5.38279">
        <ele>311</ele>
        <time>2021-04-04T08:39:35.027Z</time>
      </trkpt>
      <trkpt lat="45.56714" lon="5.38284">
        <ele>312</ele>
        <time>2021-04-04T08:39:36.027Z</time>
      </trkpt>
      <trkpt lat="45.56715" lon="5.38289">
        <ele>313</ele>
        <time>2021-04-04T08:39:37.028Z</time>
      </trkpt>
      <trkpt lat="45.56715" lon="5.38294">
        <ele>314</ele>
        <time>2021-04-04T08:39:38.028Z</time>
      </trkpt>
      <trkpt lat="45.56715" lon="5.38299">
        <ele>315</ele>
        <time>2021-04-04T08:39:39.028Z</time>
      </trkpt>
      <trkpt lat="45.56715" lon="5.38304">
        <ele>315</ele>
        <time>2021-04-04T08:39:40.027Z</time>
      </trkpt>
      <trkpt lat="45.56716" lon="5.38309">
        <ele>316</ele>
        <time>2021-04-04T08:39:41.027Z</time>
      </trkpt>
      <trkpt lat="45.56717" lon="5.38313">
        <ele>317</ele>
        <time>2021-04-04T08:39:42.028Z</time>
      </trkpt>
      <trkpt lat="45.56717" lon="5.38318">
        <ele>317</ele>
        <time>2021-04-04T08:39:43.028Z</time>
      </trkpt>
      <trkpt lat="45.56717" lon="5.38324">
        <ele>318</ele>
        <time>2021-04-04T08:39:44.028Z</time>
      </trkpt>
      <trkpt lat="45.56718" lon="5.38329">
        <ele>318</ele>
        <time>2021-04-04T08:39:45.027Z</time>
      </trkpt>
      <trkpt lat="45.56718" lon="5.38334">
        <ele>319</ele>
        <time>2021-04-04T08:39:46.028Z</time>
      </trkpt>
      <trkpt lat="45.56718" lon="5.38339">
        <ele>319</ele>
        <time>2021-04-04T08:39:47.028Z</time>
      </trkpt>
      <trkpt lat="45.56718" lon="5.38344">
        <ele>320</ele>
        <time>2021-04-04T08:39:48.028Z</time>
      </trkpt>
      <trkpt lat="45.56718" lon="5.38349">
        <ele>321</ele>
        <time>2021-04-04T08:39:49.028Z</time>
      </trkpt>
      <trkpt lat="45.56718" lon="5.38354">
        <ele>321</ele>
        <time>2021-04-04T08:39:50.027Z</time>
      </trkpt>
      <trkpt lat="45.56717" lon="5.38358">
        <ele>322</ele>
        <time>2021-04-04T08:39:51.028Z</time>
      </trkpt>
      <trkpt lat="45.56717" lon="5.38363">
        <ele>323</ele>
        <time>2021-04-04T08:39:52.028Z</time>
      </trkpt>
      <trkpt lat="45.56716" lon="5.38367">
        <ele>324</ele>
        <time>2021-04-04T08:39:53.028Z</time>
      </trkpt>
      <trkpt lat="45.56716" lon="5.38371">
        <ele>324</ele>
        <time>2021-04-04T08:39:54.028Z</time>
      </trkpt>
      <trkpt lat="45.56716" lon="5.38376">
        <ele>325</ele>
        <time>2021-04-04T08:39:55.027Z</time>
      </trkpt>
      <trkpt lat="45.56716" lon="5.3838">
        <ele>326</ele>
        <time>2021-04-04T08:39:56.027Z</time>
      </trkpt>
      <trkpt lat="45.56715" lon="5.38385">
        <ele>326</ele>
        <time>2021-04-04T08:39:57.028Z</time>
      </trkpt>
      <trkpt lat="45.56715" lon="5.3839">
        <ele>326</ele>
        <time>2021-04-04T08:39:58.028Z</time>
      </trkpt>
      <trkpt lat="45.56714" lon="5.38394">
        <ele>327</ele>
        <time>2021-04-04T08:39:59.028Z</time>
      </trkpt>
      <trkpt lat="45.56714" lon="5.38399">
        <ele>327</ele>
        <time>2021-04-04T08:40:00.028Z</time>
      </trkpt>
      <trkpt lat="45.56714" lon="5.38403">
        <ele>327</ele>
        <time>2021-04-04T08:40:01.027Z</time>
      </trkpt>
      <trkpt lat="45.56713" lon="5.38407">
        <ele>327</ele>
        <time>2021-04-04T08:40:02.028Z</time>
      </trkpt>
      <trkpt lat="45.56713" lon="5.38411">
        <ele>327</ele>
        <time>2021-04-04T08:40:03.028Z</time>
      </trkpt>
      <trkpt lat="45.56712" lon="5.38415">
        <ele>326</ele>
        <time>2021-04-04T08:40:04.028Z</time>
      </trkpt>
      <trkpt lat="45.56711" lon="5.3842">
        <ele>326</ele>
        <time>2021-04-04T08:40:05.027Z</time>
      </trkpt>
      <trkpt lat="45.5671" lon="5.38424">
        <ele>326</ele>
        <time>2021-04-04T08:40:06.028Z</time>
      </trkpt>
      <trkpt lat="45.56709" lon="5.38428">
        <ele>327</ele>
        <time>2021-04-04T08:40:07.028Z</time>
      </trkpt>
      <trkpt lat="45.56709" lon="5.38433">
        <ele>327</ele>
        <time>2021-04-04T08:40:08.028Z</time>
      </trkpt>
      <trkpt lat="45.56708" lon="5.38438">
        <ele>327</ele>
        <time>2021-04-04T08:40:09.028Z</time>
      </trkpt>
      <trkpt lat="45.56708" lon="5.38442">
        <ele>327</ele>
        <time>2021-04-04T08:40:10.027Z</time>
      </trkpt>
      <trkpt lat="45.56707" lon="5.38449">
        <ele>327</ele>
        <time>2021-04-04T08:40:11.028Z</time>
      </trkpt>
      <trkpt lat="45.56705" lon="5.38455">
        <ele>327</ele>
        <time>2021-04-04T08:40:12.028Z</time>
      </trkpt>
      <trkpt lat="45.56704" lon="5.38459">
        <ele>327</ele>
        <time>2021-04-04T08:40:13.028Z</time>
      </trkpt>
      <trkpt lat="45.56703" lon="5.38464">
        <ele>327</ele>
        <time>2021-04-04T08:40:14.027Z</time>
      </trkpt>
      <trkpt lat="45.56703" lon="5.38469">
        <ele>327</ele>
        <time>2021-04-04T08:40:15.027Z</time>
      </trkpt>
      <trkpt lat="45.56702" lon="5.38474">
        <ele>327</ele>
        <time>2021-04-04T08:40:16.028Z</time>
      </trkpt>
      <trkpt lat="45.56702" lon="5.38477">
        <ele>327</ele>
        <time>2021-04-04T08:40:17.028Z</time>
      </trkpt>
      <trkpt lat="45.56701" lon="5.38482">
        <ele>327</ele>
        <time>2021-04-04T08:40:18.028Z</time>
      </trkpt>
      <trkpt lat="45.56701" lon="5.38488">
        <ele>327</ele>
        <time>2021-04-04T08:40:19.028Z</time>
      </trkpt>
      <trkpt lat="45.56701" lon="5.38494">
        <ele>327</ele>
        <time>2021-04-04T08:40:20.028Z</time>
      </trkpt>
      <trkpt lat="45.56701" lon="5.385">
        <ele>327</ele>
        <time>2021-04-04T08:40:21.027Z</time>
      </trkpt>
      <trkpt lat="45.567" lon="5.38504">
        <ele>327</ele>
        <time>2021-04-04T08:40:22.027Z</time>
      </trkpt>
      <trkpt lat="45.56699" lon="5.38509">
        <ele>327</ele>
        <time>2021-04-04T08:40:23.028Z</time>
      </trkpt>
      <trkpt lat="45.56699" lon="5.38514">
        <ele>327</ele>
        <time>2021-04-04T08:40:24.028Z</time>
      </trkpt>
      <trkpt lat="45.56698" lon="5.38518">
        <ele>327</ele>
        <time>2021-04-04T08:40:25.028Z</time>
      </trkpt>
      <trkpt lat="45.56698" lon="5.38523">
        <ele>327</ele>
        <time>2021-04-04T08:40:26.028Z</time>
      </trkpt>
      <trkpt lat="45.56698" lon="5.38527">
        <ele>327</ele>
        <time>2021-04-04T08:40:27.028Z</time>
      </trkpt>
      <trkpt lat="45.56698" lon="5.38532">
        <ele>328</ele>
        <time>2021-04-04T08:40:28.028Z</time>
      </trkpt>
      <trkpt lat="45.56698" lon="5.38536">
        <ele>327</ele>
        <time>2021-04-04T08:40:29.028Z</time>
      </trkpt>
      <trkpt lat="45.56699" lon="5.38541">
        <ele>327</ele>
        <time>2021-04-04T08:40:30.027Z</time>
      </trkpt>
      <trkpt lat="45.56699" lon="5.38545">
        <ele>327</ele>
        <time>2021-04-04T08:40:31.028Z</time>
      </trkpt>
      <trkpt lat="45.567" lon="5.38549">
        <ele>327</ele>
        <time>2021-04-04T08:40:32.028Z</time>
      </trkpt>
      <trkpt lat="45.56702" lon="5.38554">
        <ele>327</ele>
        <time>2021-04-04T08:40:33.028Z</time>
      </trkpt>
      <trkpt lat="45.56703" lon="5.38558">
        <ele>327</ele>
        <time>2021-04-04T08:40:34.027Z</time>
      </trkpt>
      <trkpt lat="45.56705" lon="5.38562">
        <ele>328</ele>
        <time>2021-04-04T08:40:35.028Z</time>
      </trkpt>
      <trkpt lat="45.56706" lon="5.38566">
        <ele>328</ele>
        <time>2021-04-04T08:40:36.028Z</time>
      </trkpt>
      <trkpt lat="45.56708" lon="5.3857">
        <ele>329</ele>
        <time>2021-04-04T08:40:37.028Z</time>
      </trkpt>
      <trkpt lat="45.5671" lon="5.38573">
        <ele>329</ele>
        <time>2021-04-04T08:40:38.028Z</time>
      </trkpt>
      <trkpt lat="45.56711" lon="5.38576">
        <ele>329</ele>
        <time>2021-04-04T08:40:39.028Z</time>
      </trkpt>
      <trkpt lat="45.56714" lon="5.3858">
        <ele>330</ele>
        <time>2021-04-04T08:40:40.028Z</time>
      </trkpt>
      <trkpt lat="45.56716" lon="5.38583">
        <ele>330</ele>
        <time>2021-04-04T08:40:41.028Z</time>
      </trkpt>
      <trkpt lat="45.56718" lon="5.38585">
        <ele>331</ele>
        <time>2021-04-04T08:40:42.028Z</time>
      </trkpt>
      <trkpt lat="45.56721" lon="5.38588">
        <ele>331</ele>
        <time>2021-04-04T08:40:43.027Z</time>
      </trkpt>
      <trkpt lat="45.56724" lon="5.38589">
        <ele>331</ele>
        <time>2021-04-04T08:40:44.028Z</time>
      </trkpt>
      <trkpt lat="45.56727" lon="5.38591">
        <ele>332</ele>
        <time>2021-04-04T08:40:45.028Z</time>
      </trkpt>
      <trkpt lat="45.5673" lon="5.38593">
        <ele>333</ele>
        <time>2021-04-04T08:40:46.028Z</time>
      </trkpt>
      <trkpt lat="45.56733" lon="5.38594">
        <ele>334</ele>
        <time>2021-04-04T08:40:47.028Z</time>
      </trkpt>
      <trkpt lat="45.56736" lon="5.38596">
        <ele>335</ele>
        <time>2021-04-04T08:40:48.028Z</time>
      </trkpt>
      <trkpt lat="45.56739" lon="5.38597">
        <ele>335</ele>
        <time>2021-04-04T08:40:49.028Z</time>
      </trkpt>
      <trkpt lat="45.56743" lon="5.38598">
        <ele>336</ele>
        <time>2021-04-04T08:40:50.027Z</time>
      </trkpt>
      <trkpt lat="45.56747" lon="5.38599">
        <ele>337</ele>
        <time>2021-04-04T08:40:51.028Z</time>
      </trkpt>
      <trkpt lat="45.5675" lon="5.38599">
        <ele>337</ele>
        <time>2021-04-04T08:40:52.028Z</time>
      </trkpt>
      <trkpt lat="45.56753" lon="5.38599">
        <ele>338</ele>
        <time>2021-04-04T08:40:53.028Z</time>
      </trkpt>
      <trkpt lat="45.56757" lon="5.38601">
        <ele>339</ele>
        <time>2021-04-04T08:40:54.027Z</time>
      </trkpt>
      <trkpt lat="45.5676" lon="5.38602">
        <ele>339</ele>
        <time>2021-04-04T08:40:55.028Z</time>
      </trkpt>
      <trkpt lat="45.56763" lon="5.38604">
        <ele>340</ele>
        <time>2021-04-04T08:40:56.028Z</time>
      </trkpt>
      <trkpt lat="45.56766" lon="5.38604">
        <ele>341</ele>
        <time>2021-04-04T08:40:57.028Z</time>
      </trkpt>
      <trkpt lat="45.5677" lon="5.38604">
        <ele>341</ele>
        <time>2021-04-04T08:40:58.028Z</time>
      </trkpt>
      <trkpt lat="45.56774" lon="5.38605">
        <ele>342</ele>
        <time>2021-04-04T08:40:59.028Z</time>
      </trkpt>
      <trkpt lat="45.56778" lon="5.38606">
        <ele>342</ele>
        <time>2021-04-04T08:41:00.028Z</time>
      </trkpt>
      <trkpt lat="45.56781" lon="5.38607">
        <ele>343</ele>
        <time>2021-04-04T08:41:01.027Z</time>
      </trkpt>
      <trkpt lat="45.56784" lon="5.38608">
        <ele>344</ele>
        <time>2021-04-04T08:41:02.028Z</time>
      </trkpt>
      <trkpt lat="45.56787" lon="5.3861">
        <ele>344</ele>
        <time>2021-04-04T08:41:03.028Z</time>
      </trkpt>
      <trkpt lat="45.5679" lon="5.38613">
        <ele>344</ele>
        <time>2021-04-04T08:41:04.028Z</time>
      </trkpt>
      <trkpt lat="45.56792" lon="5.38616">
        <ele>344</ele>
        <time>2021-04-04T08:41:05.027Z</time>
      </trkpt>
      <trkpt lat="45.56794" lon="5.38619">
        <ele>345</ele>
        <time>2021-04-04T08:41:06.028Z</time>
      </trkpt>
      <trkpt lat="45.56796" lon="5.38623">
        <ele>345</ele>
        <time>2021-04-04T08:41:07.028Z</time>
      </trkpt>
      <trkpt lat="45.56797" lon="5.3863">
        <ele>346</ele>
        <time>2021-04-04T08:41:08.028Z</time>
      </trkpt>
      <trkpt lat="45.56798" lon="5.38635">
        <ele>346</ele>
        <time>2021-04-04T08:41:09.028Z</time>
      </trkpt>
      <trkpt lat="45.56798" lon="5.38641">
        <ele>347</ele>
        <time>2021-04-04T08:41:10.028Z</time>
      </trkpt>
      <trkpt lat="45.56797" lon="5.38646">
        <ele>347</ele>
        <time>2021-04-04T08:41:11.028Z</time>
      </trkpt>
      <trkpt lat="45.56795" lon="5.38651">
        <ele>346</ele>
        <time>2021-04-04T08:41:12.027Z</time>
      </trkpt>
      <trkpt lat="45.56793" lon="5.38655">
        <ele>347</ele>
        <time>2021-04-04T08:41:13.028Z</time>
      </trkpt>
      <trkpt lat="45.5679" lon="5.38658">
        <ele>347</ele>
        <time>2021-04-04T08:41:14.028Z</time>
      </trkpt>
      <trkpt lat="45.56788" lon="5.3866">
        <ele>346</ele>
        <time>2021-04-04T08:41:15.028Z</time>
      </trkpt>
      <trkpt lat="45.56785" lon="5.38663">
        <ele>346</ele>
        <time>2021-04-04T08:41:16.028Z</time>
      </trkpt>
      <trkpt lat="45.56782" lon="5.38666">
        <ele>346</ele>
        <time>2021-04-04T08:41:17.028Z</time>
      </trkpt>
      <trkpt lat="45.56779" lon="5.38669">
        <ele>346</ele>
        <time>2021-04-04T08:41:18.028Z</time>
      </trkpt>
      <trkpt lat="45.56776" lon="5.38672">
        <ele>346</ele>
        <time>2021-04-04T08:41:19.028Z</time>
      </trkpt>
      <trkpt lat="45.56773" lon="5.38674">
        <ele>346</ele>
        <time>2021-04-04T08:41:20.028Z</time>
      </trkpt>
      <trkpt lat="45.5677" lon="5.38677">
        <ele>346</ele>
        <time>2021-04-04T08:41:21.028Z</time>
      </trkpt>
      <trkpt lat="45.56768" lon="5.38679">
        <ele>346</ele>
        <time>2021-04-04T08:41:22.027Z</time>
      </trkpt>
      <trkpt lat="45.56765" lon="5.38681">
        <ele>347</ele>
        <time>2021-04-04T08:41:23.027Z</time>
      </trkpt>
      <trkpt lat="45.56763" lon="5.38684">
        <ele>347</ele>
        <time>2021-04-04T08:41:24.028Z</time>
      </trkpt>
      <trkpt lat="45.56761" lon="5.38687">
        <ele>348</ele>
        <time>2021-04-04T08:41:25.028Z</time>
      </trkpt>
      <trkpt lat="45.56759" lon="5.3869">
        <ele>348</ele>
        <time>2021-04-04T08:41:26.027Z</time>
      </trkpt>
      <trkpt lat="45.56757" lon="5.38694">
        <ele>349</ele>
        <time>2021-04-04T08:41:27.027Z</time>
      </trkpt>
      <trkpt lat="45.56755" lon="5.38698">
        <ele>349</ele>
        <time>2021-04-04T08:41:28.027Z</time>
      </trkpt>
      <trkpt lat="45.56754" lon="5.38702">
        <ele>350</ele>
        <time>2021-04-04T08:41:29.027Z</time>
      </trkpt>
      <trkpt lat="45.56754" lon="5.38706">
        <ele>351</ele>
        <time>2021-04-04T08:41:30.027Z</time>
      </trkpt>
      <trkpt lat="45.56753" lon="5.38709">
        <ele>352</ele>
        <time>2021-04-04T08:41:31.027Z</time>
      </trkpt>
      <trkpt lat="45.56753" lon="5.38713">
        <ele>353</ele>
        <time>2021-04-04T08:41:32.027Z</time>
      </trkpt>
      <trkpt lat="45.56753" lon="5.38717">
        <ele>354</ele>
        <time>2021-04-04T08:41:33.027Z</time>
      </trkpt>
      <trkpt lat="45.56754" lon="5.3872">
        <ele>354</ele>
        <time>2021-04-04T08:41:34.028Z</time>
      </trkpt>
      <trkpt lat="45.56755" lon="5.38723">
        <ele>355</ele>
        <time>2021-04-04T08:41:35.028Z</time>
      </trkpt>
      <trkpt lat="45.56757" lon="5.38725">
        <ele>356</ele>
        <time>2021-04-04T08:41:36.028Z</time>
      </trkpt>
      <trkpt lat="45.56758" lon="5.38727">
        <ele>357</ele>
        <time>2021-04-04T08:41:37.027Z</time>
      </trkpt>
      <trkpt lat="45.5676" lon="5.38729">
        <ele>357</ele>
        <time>2021-04-04T08:41:38.027Z</time>
      </trkpt>
      <trkpt lat="45.56762" lon="5.38731">
        <ele>358</ele>
        <time>2021-04-04T08:41:39.028Z</time>
      </trkpt>
      <trkpt lat="45.56765" lon="5.38733">
        <ele>359</ele>
        <time>2021-04-04T08:41:40.027Z</time>
      </trkpt>
      <trkpt lat="45.56768" lon="5.38735">
        <ele>360</ele>
        <time>2021-04-04T08:41:41.027Z</time>
      </trkpt>
      <trkpt lat="45.5677" lon="5.38736">
        <ele>360</ele>
        <time>2021-04-04T08:41:42.027Z</time>
      </trkpt>
      <trkpt lat="45.56773" lon="5.38738">
        <ele>361</ele>
        <time>2021-04-04T08:41:43.028Z</time>
      </trkpt>
      <trkpt lat="45.56776" lon="5.38739">
        <ele>362</ele>
        <time>2021-04-04T08:41:44.028Z</time>
      </trkpt>
      <trkpt lat="45.5678" lon="5.38741">
        <ele>362</ele>
        <time>2021-04-04T08:41:45.028Z</time>
      </trkpt>
      <trkpt lat="45.56783" lon="5.38742">
        <ele>363</ele>
        <time>2021-04-04T08:41:46.028Z</time>
      </trkpt>
      <trkpt lat="45.56786" lon="5.38743">
        <ele>364</ele>
        <time>2021-04-04T08:41:47.027Z</time>
      </trkpt>
      <trkpt lat="45.5679" lon="5.38744">
        <ele>364</ele>
        <time>2021-04-04T08:41:48.027Z</time>
      </trkpt>
      <trkpt lat="45.56793" lon="5.38743">
        <ele>365</ele>
        <time>2021-04-04T08:41:49.028Z</time>
      </trkpt>
      <trkpt lat="45.56797" lon="5.38745">
        <ele>366</ele>
        <time>2021-04-04T08:41:50.027Z</time>
      </trkpt>
      <trkpt lat="45.568" lon="5.38746">
        <ele>367</ele>
        <time>2021-04-04T08:41:51.028Z</time>
      </trkpt>
      <trkpt lat="45.56803" lon="5.38748">
        <ele>368</ele>
        <time>2021-04-04T08:41:52.027Z</time>
      </trkpt>
      <trkpt lat="45.56806" lon="5.38749">
        <ele>368</ele>
        <time>2021-04-04T08:41:53.027Z</time>
      </trkpt>
      <trkpt lat="45.56809" lon="5.38752">
        <ele>369</ele>
        <time>2021-04-04T08:41:54.028Z</time>
      </trkpt>
      <trkpt lat="45.56812" lon="5.38754">
        <ele>370</ele>
        <time>2021-04-04T08:41:55.028Z</time>
      </trkpt>
      <trkpt lat="45.56815" lon="5.38757">
        <ele>370</ele>
        <time>2021-04-04T08:41:56.028Z</time>
      </trkpt>
      <trkpt lat="45.56818" lon="5.38759">
        <ele>371</ele>
        <time>2021-04-04T08:41:57.027Z</time>
      </trkpt>
      <trkpt lat="45.56821" lon="5.38762">
        <ele>372</ele>
        <time>2021-04-04T08:41:58.027Z</time>
      </trkpt>
      <trkpt lat="45.56824" lon="5.38764">
        <ele>372</ele>
        <time>2021-04-04T08:41:59.028Z</time>
      </trkpt>
      <trkpt lat="45.56826" lon="5.38767">
        <ele>373</ele>
        <time>2021-04-04T08:42:00.028Z</time>
      </trkpt>
      <trkpt lat="45.56829" lon="5.38769">
        <ele>374</ele>
        <time>2021-04-04T08:42:01.028Z</time>
      </trkpt>
      <trkpt lat="45.56831" lon="5.38771">
        <ele>375</ele>
        <time>2021-04-04T08:42:02.027Z</time>
      </trkpt>
      <trkpt lat="45.56833" lon="5.38773">
        <ele>376</ele>
        <time>2021-04-04T08:42:03.027Z</time>
      </trkpt>
      <trkpt lat="45.56835" lon="5.38775">
        <ele>376</ele>
        <time>2021-04-04T08:42:04.028Z</time>
      </trkpt>
      <trkpt lat="45.56838" lon="5.38777">
        <ele>376</ele>
        <time>2021-04-04T08:42:05.028Z</time>
      </trkpt>
      <trkpt lat="45.56841" lon="5.3878">
        <ele>376</ele>
        <time>2021-04-04T08:42:06.027Z</time>
      </trkpt>
      <trkpt lat="45.56844" lon="5.38782">
        <ele>376</ele>
        <time>2021-04-04T08:42:07.027Z</time>
      </trkpt>
      <trkpt lat="45.56846" lon="5.38782">
        <ele>376</ele>
        <time>2021-04-04T08:42:08.027Z</time>
      </trkpt>
      <trkpt lat="45.56849" lon="5.38783">
        <ele>376</ele>
        <time>2021-04-04T08:42:09.028Z</time>
      </trkpt>
      <trkpt lat="45.56853" lon="5.38783">
        <ele>376</ele>
        <time>2021-04-04T08:42:10.027Z</time>
      </trkpt>
      <trkpt lat="45.56856" lon="5.38782">
        <ele>376</ele>
        <time>2021-04-04T08:42:11.027Z</time>
      </trkpt>
      <trkpt lat="45.56858" lon="5.3878">
        <ele>377</ele>
        <time>2021-04-04T08:42:12.028Z</time>
      </trkpt>
      <trkpt lat="45.56861" lon="5.38778">
        <ele>377</ele>
        <time>2021-04-04T08:42:13.027Z</time>
      </trkpt>
      <trkpt lat="45.56863" lon="5.38776">
        <ele>377</ele>
        <time>2021-04-04T08:42:14.027Z</time>
      </trkpt>
      <trkpt lat="45.56864" lon="5.38773">
        <ele>377</ele>
        <time>2021-04-04T08:42:15.027Z</time>
      </trkpt>
      <trkpt lat="45.56865" lon="5.38769">
        <ele>377</ele>
        <time>2021-04-04T08:42:16.027Z</time>
      </trkpt>
      <trkpt lat="45.56866" lon="5.38766">
        <ele>377</ele>
        <time>2021-04-04T08:42:17.027Z</time>
      </trkpt>
      <trkpt lat="45.56867" lon="5.38761">
        <ele>377</ele>
        <time>2021-04-04T08:42:18.027Z</time>
      </trkpt>
      <trkpt lat="45.56867" lon="5.38757">
        <ele>377</ele>
        <time>2021-04-04T08:42:19.028Z</time>
      </trkpt>
      <trkpt lat="45.56867" lon="5.38753">
        <ele>377</ele>
        <time>2021-04-04T08:42:20.028Z</time>
      </trkpt>
      <trkpt lat="45.56867" lon="5.38748">
        <ele>377</ele>
        <time>2021-04-04T08:42:21.027Z</time>
      </trkpt>
      <trkpt lat="45.56867" lon="5.38744">
        <ele>377</ele>
        <time>2021-04-04T08:42:22.027Z</time>
      </trkpt>
      <trkpt lat="45.56867" lon="5.3874">
        <ele>377</ele>
        <time>2021-04-04T08:42:23.027Z</time>
      </trkpt>
      <trkpt lat="45.56867" lon="5.38737">
        <ele>377</ele>
        <time>2021-04-04T08:42:24.028Z</time>
      </trkpt>
      <trkpt lat="45.56867" lon="5.38733">
        <ele>377</ele>
        <time>2021-04-04T08:42:25.028Z</time>
      </trkpt>
      <trkpt lat="45.56868" lon="5.38729">
        <ele>377</ele>
        <time>2021-04-04T08:42:26.027Z</time>
      </trkpt>
      <trkpt lat="45.56868" lon="5.38725">
        <ele>377</ele>
        <time>2021-04-04T08:42:27.027Z</time>
      </trkpt>
      <trkpt lat="45.56869" lon="5.38721">
        <ele>377</ele>
        <time>2021-04-04T08:42:28.027Z</time>
      </trkpt>
      <trkpt lat="45.56869" lon="5.38718">
        <ele>377</ele>
        <time>2021-04-04T08:42:29.027Z</time>
      </trkpt>
      <trkpt lat="45.56871" lon="5.38713">
        <ele>377</ele>
        <time>2021-04-04T08:42:30.027Z</time>
      </trkpt>
      <trkpt lat="45.56872" lon="5.38709">
        <ele>377</ele>
        <time>2021-04-04T08:42:31.027Z</time>
      </trkpt>
      <trkpt lat="45.56874" lon="5.38706">
        <ele>376</ele>
        <time>2021-04-04T08:42:32.027Z</time>
      </trkpt>
      <trkpt lat="45.56876" lon="5.38703">
        <ele>376</ele>
        <time>2021-04-04T08:42:33.027Z</time>
      </trkpt>
      <trkpt lat="45.56878" lon="5.387">
        <ele>376</ele>
        <time>2021-04-04T08:42:34.027Z</time>
      </trkpt>
      <trkpt lat="45.56881" lon="5.38698">
        <ele>376</ele>
        <time>2021-04-04T08:42:35.027Z</time>
      </trkpt>
      <trkpt lat="45.56884" lon="5.38697">
        <ele>376</ele>
        <time>2021-04-04T08:42:36.027Z</time>
      </trkpt>
      <trkpt lat="45.56886" lon="5.38697">
        <ele>377</ele>
        <time>2021-04-04T08:42:37.028Z</time>
      </trkpt>
      <trkpt lat="45.56889" lon="5.38696">
        <ele>377</ele>
        <time>2021-04-04T08:42:38.027Z</time>
      </trkpt>
      <trkpt lat="45.56892" lon="5.38696">
        <ele>377</ele>
        <time>2021-04-04T08:42:39.027Z</time>
      </trkpt>
      <trkpt lat="45.56896" lon="5.38696">
        <ele>377</ele>
        <time>2021-04-04T08:42:40.027Z</time>
      </trkpt>
      <trkpt lat="45.56899" lon="5.38696">
        <ele>378</ele>
        <time>2021-04-04T08:42:41.028Z</time>
      </trkpt>
      <trkpt lat="45.56902" lon="5.38697">
        <ele>378</ele>
        <time>2021-04-04T08:42:42.028Z</time>
      </trkpt>
      <trkpt lat="45.56905" lon="5.38697">
        <ele>378</ele>
        <time>2021-04-04T08:42:43.027Z</time>
      </trkpt>
      <trkpt lat="45.56908" lon="5.38698">
        <ele>378</ele>
        <time>2021-04-04T08:42:44.027Z</time>
      </trkpt>
      <trkpt lat="45.56912" lon="5.38698">
        <ele>378</ele>
        <time>2021-04-04T08:42:45.027Z</time>
      </trkpt>
      <trkpt lat="45.56916" lon="5.38698">
        <ele>379</ele>
        <time>2021-04-04T08:42:46.027Z</time>
      </trkpt>
      <trkpt lat="45.56919" lon="5.38699">
        <ele>379</ele>
        <time>2021-04-04T08:42:47.027Z</time>
      </trkpt>
      <trkpt lat="45.56922" lon="5.387">
        <ele>379</ele>
        <time>2021-04-04T08:42:48.027Z</time>
      </trkpt>
      <trkpt lat="45.56925" lon="5.38701">
        <ele>379</ele>
        <time>2021-04-04T08:42:49.028Z</time>
      </trkpt>
      <trkpt lat="45.56928" lon="5.38702">
        <ele>379</ele>
        <time>2021-04-04T08:42:50.028Z</time>
      </trkpt>
      <trkpt lat="45.56932" lon="5.38703">
        <ele>379</ele>
        <time>2021-04-04T08:42:51.027Z</time>
      </trkpt>
      <trkpt lat="45.56935" lon="5.38703">
        <ele>380</ele>
        <time>2021-04-04T08:42:52.027Z</time>
      </trkpt>
      <trkpt lat="45.56938" lon="5.38704">
        <ele>381</ele>
        <time>2021-04-04T08:42:53.027Z</time>
      </trkpt>
      <trkpt lat="45.56942" lon="5.38704">
        <ele>381</ele>
        <time>2021-04-04T08:42:54.027Z</time>
      </trkpt>
      <trkpt lat="45.56945" lon="5.38704">
        <ele>381</ele>
        <time>2021-04-04T08:42:55.027Z</time>
      </trkpt>
      <trkpt lat="45.56948" lon="5.38704">
        <ele>382</ele>
        <time>2021-04-04T08:42:56.027Z</time>
      </trkpt>
      <trkpt lat="45.56951" lon="5.38704">
        <ele>382</ele>
        <time>2021-04-04T08:42:57.028Z</time>
      </trkpt>
      <trkpt lat="45.56955" lon="5.38704">
        <ele>383</ele>
        <time>2021-04-04T08:42:58.027Z</time>
      </trkpt>
      <trkpt lat="45.56957" lon="5.38704">
        <ele>384</ele>
        <time>2021-04-04T08:42:59.027Z</time>
      </trkpt>
      <trkpt lat="45.56961" lon="5.38704">
        <ele>384</ele>
        <time>2021-04-04T08:43:00.028Z</time>
      </trkpt>
      <trkpt lat="45.56964" lon="5.38704">
        <ele>385</ele>
        <time>2021-04-04T08:43:01.028Z</time>
      </trkpt>
      <trkpt lat="45.56967" lon="5.38704">
        <ele>386</ele>
        <time>2021-04-04T08:43:02.028Z</time>
      </trkpt>
      <trkpt lat="45.56971" lon="5.38703">
        <ele>386</ele>
        <time>2021-04-04T08:43:03.027Z</time>
      </trkpt>
      <trkpt lat="45.56974" lon="5.38702">
        <ele>387</ele>
        <time>2021-04-04T08:43:04.028Z</time>
      </trkpt>
      <trkpt lat="45.56977" lon="5.38702">
        <ele>387</ele>
        <time>2021-04-04T08:43:05.027Z</time>
      </trkpt>
      <trkpt lat="45.5698" lon="5.38701">
        <ele>387</ele>
        <time>2021-04-04T08:43:06.027Z</time>
      </trkpt>
      <trkpt lat="45.56983" lon="5.38699">
        <ele>388</ele>
        <time>2021-04-04T08:43:07.028Z</time>
      </trkpt>
      <trkpt lat="45.56987" lon="5.38698">
        <ele>388</ele>
        <time>2021-04-04T08:43:08.028Z</time>
      </trkpt>
      <trkpt lat="45.5699" lon="5.38696">
        <ele>388</ele>
        <time>2021-04-04T08:43:09.028Z</time>
      </trkpt>
      <trkpt lat="45.56993" lon="5.38695">
        <ele>389</ele>
        <time>2021-04-04T08:43:10.028Z</time>
      </trkpt>
      <trkpt lat="45.56996" lon="5.38693">
        <ele>389</ele>
        <time>2021-04-04T08:43:11.028Z</time>
      </trkpt>
      <trkpt lat="45.56999" lon="5.38691">
        <ele>389</ele>
        <time>2021-04-04T08:43:12.027Z</time>
      </trkpt>
      <trkpt lat="45.57002" lon="5.38689">
        <ele>389</ele>
        <time>2021-04-04T08:43:13.028Z</time>
      </trkpt>
      <trkpt lat="45.57005" lon="5.38686">
        <ele>389</ele>
        <time>2021-04-04T08:43:14.028Z</time>
      </trkpt>
      <trkpt lat="45.57007" lon="5.38684">
        <ele>389</ele>
        <time>2021-04-04T08:43:15.028Z</time>
      </trkpt>
      <trkpt lat="45.5701" lon="5.38681">
        <ele>389</ele>
        <time>2021-04-04T08:43:16.028Z</time>
      </trkpt>
      <trkpt lat="45.57013" lon="5.38678">
        <ele>389</ele>
        <time>2021-04-04T08:43:17.028Z</time>
      </trkpt>
      <trkpt lat="45.57015" lon="5.38676">
        <ele>389</ele>
        <time>2021-04-04T08:43:18.028Z</time>
      </trkpt>
      <trkpt lat="45.57018" lon="5.38673">
        <ele>389</ele>
        <time>2021-04-04T08:43:19.028Z</time>
      </trkpt>
      <trkpt lat="45.5702" lon="5.3867">
        <ele>388</ele>
        <time>2021-04-04T08:43:20.027Z</time>
      </trkpt>
      <trkpt lat="45.57022" lon="5.38667">
        <ele>388</ele>
        <time>2021-04-04T08:43:21.027Z</time>
      </trkpt>
      <trkpt lat="45.57025" lon="5.38664">
        <ele>388</ele>
        <time>2021-04-04T08:43:22.028Z</time>
      </trkpt>
      <trkpt lat="45.57027" lon="5.38661">
        <ele>388</ele>
        <time>2021-04-04T08:43:23.028Z</time>
      </trkpt>
      <trkpt lat="45.57029" lon="5.38658">
        <ele>389</ele>
        <time>2021-04-04T08:43:24.027Z</time>
      </trkpt>
      <trkpt lat="45.57031" lon="5.38655">
        <ele>389</ele>
        <time>2021-04-04T08:43:25.028Z</time>
      </trkpt>
      <trkpt lat="45.57033" lon="5.38652">
        <ele>389</ele>
        <time>2021-04-04T08:43:26.028Z</time>
      </trkpt>
      <trkpt lat="45.57036" lon="5.38648">
        <ele>389</ele>
        <time>2021-04-04T08:43:27.028Z</time>
      </trkpt>
      <trkpt lat="45.57038" lon="5.38645">
        <ele>389</ele>
        <time>2021-04-04T08:43:28.027Z</time>
      </trkpt>
      <trkpt lat="45.5704" lon="5.38642">
        <ele>389</ele>
        <time>2021-04-04T08:43:29.027Z</time>
      </trkpt>
      <trkpt lat="45.57042" lon="5.38639">
        <ele>389</ele>
        <time>2021-04-04T08:43:30.028Z</time>
      </trkpt>
      <trkpt lat="45.57044" lon="5.38635">
        <ele>390</ele>
        <time>2021-04-04T08:43:31.027Z</time>
      </trkpt>
      <trkpt lat="45.57047" lon="5.38632">
        <ele>390</ele>
        <time>2021-04-04T08:43:32.028Z</time>
      </trkpt>
      <trkpt lat="45.57049" lon="5.38628">
        <ele>390</ele>
        <time>2021-04-04T08:43:33.027Z</time>
      </trkpt>
      <trkpt lat="45.57051" lon="5.38626">
        <ele>391</ele>
        <time>2021-04-04T08:43:34.027Z</time>
      </trkpt>
      <trkpt lat="45.57054" lon="5.38622">
        <ele>392</ele>
        <time>2021-04-04T08:43:35.027Z</time>
      </trkpt>
      <trkpt lat="45.57057" lon="5.38619">
        <ele>392</ele>
        <time>2021-04-04T08:43:36.028Z</time>
      </trkpt>
      <trkpt lat="45.5706" lon="5.38616">
        <ele>393</ele>
        <time>2021-04-04T08:43:37.027Z</time>
      </trkpt>
      <trkpt lat="45.57063" lon="5.38613">
        <ele>393</ele>
        <time>2021-04-04T08:43:38.028Z</time>
      </trkpt>
      <trkpt lat="45.57065" lon="5.38611">
        <ele>393</ele>
        <time>2021-04-04T08:43:39.028Z</time>
      </trkpt>
      <trkpt lat="45.57068" lon="5.38608">
        <ele>394</ele>
        <time>2021-04-04T08:43:40.027Z</time>
      </trkpt>
      <trkpt lat="45.5707" lon="5.38605">
        <ele>394</ele>
        <time>2021-04-04T08:43:41.028Z</time>
      </trkpt>
      <trkpt lat="45.57073" lon="5.38602">
        <ele>394</ele>
        <time>2021-04-04T08:43:42.028Z</time>
      </trkpt>
      <trkpt lat="45.57076" lon="5.386">
        <ele>394</ele>
        <time>2021-04-04T08:43:43.027Z</time>
      </trkpt>
      <trkpt lat="45.57079" lon="5.38597">
        <ele>394</ele>
        <time>2021-04-04T08:43:44.028Z</time>
      </trkpt>
      <trkpt lat="45.57081" lon="5.38594">
        <ele>394</ele>
        <time>2021-04-04T08:43:45.027Z</time>
      </trkpt>
      <trkpt lat="45.57084" lon="5.38591">
        <ele>394</ele>
        <time>2021-04-04T08:43:46.028Z</time>
      </trkpt>
      <trkpt lat="45.57086" lon="5.38588">
        <ele>394</ele>
        <time>2021-04-04T08:43:47.028Z</time>
      </trkpt>
      <trkpt lat="45.57089" lon="5.38585">
        <ele>394</ele>
        <time>2021-04-04T08:43:48.027Z</time>
      </trkpt>
      <trkpt lat="45.57091" lon="5.38582">
        <ele>394</ele>
        <time>2021-04-04T08:43:49.027Z</time>
      </trkpt>
      <trkpt lat="45.57094" lon="5.38579">
        <ele>394</ele>
        <time>2021-04-04T08:43:50.028Z</time>
      </trkpt>
      <trkpt lat="45.57096" lon="5.38575">
        <ele>395</ele>
        <time>2021-04-04T08:43:51.028Z</time>
      </trkpt>
      <trkpt lat="45.57099" lon="5.38572">
        <ele>395</ele>
        <time>2021-04-04T08:43:52.028Z</time>
      </trkpt>
      <trkpt lat="45.57101" lon="5.38569">
        <ele>395</ele>
        <time>2021-04-04T08:43:53.028Z</time>
      </trkpt>
      <trkpt lat="45.57103" lon="5.38565">
        <ele>396</ele>
        <time>2021-04-04T08:43:54.027Z</time>
      </trkpt>
      <trkpt lat="45.57105" lon="5.38562">
        <ele>395</ele>
        <time>2021-04-04T08:43:55.028Z</time>
      </trkpt>
      <trkpt lat="45.57108" lon="5.38559">
        <ele>395</ele>
        <time>2021-04-04T08:43:56.028Z</time>
      </trkpt>
      <trkpt lat="45.57109" lon="5.38555">
        <ele>396</ele>
        <time>2021-04-04T08:43:57.027Z</time>
      </trkpt>
      <trkpt lat="45.57111" lon="5.38551">
        <ele>396</ele>
        <time>2021-04-04T08:43:58.027Z</time>
      </trkpt>
      <trkpt lat="45.57113" lon="5.38546">
        <ele>397</ele>
        <time>2021-04-04T08:43:59.028Z</time>
      </trkpt>
      <trkpt lat="45.57114" lon="5.38542">
        <ele>398</ele>
        <time>2021-04-04T08:44:00.028Z</time>
      </trkpt>
      <trkpt lat="45.57115" lon="5.38538">
        <ele>398</ele>
        <time>2021-04-04T08:44:01.028Z</time>
      </trkpt>
      <trkpt lat="45.57115" lon="5.38533">
        <ele>399</ele>
        <time>2021-04-04T08:44:02.028Z</time>
      </trkpt>
      <trkpt lat="45.57116" lon="5.38529">
        <ele>399</ele>
        <time>2021-04-04T08:44:03.028Z</time>
      </trkpt>
      <trkpt lat="45.57116" lon="5.38524">
        <ele>400</ele>
        <time>2021-04-04T08:44:04.028Z</time>
      </trkpt>
      <trkpt lat="45.57115" lon="5.3852">
        <ele>400</ele>
        <time>2021-04-04T08:44:05.028Z</time>
      </trkpt>
      <trkpt lat="45.57115" lon="5.38515">
        <ele>401</ele>
        <time>2021-04-04T08:44:06.028Z</time>
      </trkpt>
      <trkpt lat="45.57113" lon="5.38511">
        <ele>401</ele>
        <time>2021-04-04T08:44:07.027Z</time>
      </trkpt>
      <trkpt lat="45.57112" lon="5.38507">
        <ele>401</ele>
        <time>2021-04-04T08:44:08.027Z</time>
      </trkpt>
      <trkpt lat="45.57111" lon="5.38503">
        <ele>401</ele>
        <time>2021-04-04T08:44:09.028Z</time>
      </trkpt>
      <trkpt lat="45.57109" lon="5.38499">
        <ele>402</ele>
        <time>2021-04-04T08:44:10.027Z</time>
      </trkpt>
      <trkpt lat="45.57106" lon="5.38496">
        <ele>402</ele>
        <time>2021-04-04T08:44:11.028Z</time>
      </trkpt>
      <trkpt lat="45.57104" lon="5.38493">
        <ele>402</ele>
        <time>2021-04-04T08:44:12.027Z</time>
      </trkpt>
      <trkpt lat="45.57101" lon="5.38491">
        <ele>402</ele>
        <time>2021-04-04T08:44:13.028Z</time>
      </trkpt>
      <trkpt lat="45.57098" lon="5.38489">
        <ele>402</ele>
        <time>2021-04-04T08:44:14.027Z</time>
      </trkpt>
      <trkpt lat="45.57096" lon="5.38487">
        <ele>402</ele>
        <time>2021-04-04T08:44:15.028Z</time>
      </trkpt>
      <trkpt lat="45.57093" lon="5.38485">
        <ele>401</ele>
        <time>2021-04-04T08:44:16.028Z</time>
      </trkpt>
      <trkpt lat="45.5709" lon="5.38483">
        <ele>401</ele>
        <time>2021-04-04T08:44:17.027Z</time>
      </trkpt>
      <trkpt lat="45.57087" lon="5.38482">
        <ele>401</ele>
        <time>2021-04-04T08:44:18.028Z</time>
      </trkpt>
      <trkpt lat="45.57083" lon="5.38482">
        <ele>401</ele>
        <time>2021-04-04T08:44:19.027Z</time>
      </trkpt>
      <trkpt lat="45.5708" lon="5.38481">
        <ele>402</ele>
        <time>2021-04-04T08:44:20.027Z</time>
      </trkpt>
      <trkpt lat="45.57077" lon="5.38481">
        <ele>402</ele>
        <time>2021-04-04T08:44:21.028Z</time>
      </trkpt>
      <trkpt lat="45.57073" lon="5.38481">
        <ele>403</ele>
        <time>2021-04-04T08:44:22.027Z</time>
      </trkpt>
      <trkpt lat="45.5707" lon="5.38481">
        <ele>404</ele>
        <time>2021-04-04T08:44:23.028Z</time>
      </trkpt>
      <trkpt lat="45.57066" lon="5.38481">
        <ele>406</ele>
        <time>2021-04-04T08:44:24.028Z</time>
      </trkpt>
      <trkpt lat="45.57063" lon="5.38482">
        <ele>407</ele>
        <time>2021-04-04T08:44:25.028Z</time>
      </trkpt>
      <trkpt lat="45.57059" lon="5.38482">
        <ele>408</ele>
        <time>2021-04-04T08:44:26.027Z</time>
      </trkpt>
      <trkpt lat="45.57056" lon="5.38483">
        <ele>408</ele>
        <time>2021-04-04T08:44:27.027Z</time>
      </trkpt>
      <trkpt lat="45.57053" lon="5.38483">
        <ele>409</ele>
        <time>2021-04-04T08:44:28.028Z</time>
      </trkpt>
      <trkpt lat="45.57049" lon="5.38484">
        <ele>410</ele>
        <time>2021-04-04T08:44:29.028Z</time>
      </trkpt>
      <trkpt lat="45.57045" lon="5.38485">
        <ele>411</ele>
        <time>2021-04-04T08:44:30.028Z</time>
      </trkpt>
      <trkpt lat="45.57042" lon="5.38486">
        <ele>412</ele>
        <time>2021-04-04T08:44:31.028Z</time>
      </trkpt>
      <trkpt lat="45.57039" lon="5.38487">
        <ele>414</ele>
        <time>2021-04-04T08:44:32.028Z</time>
      </trkpt>
      <trkpt lat="45.57036" lon="5.38488">
        <ele>415</ele>
        <time>2021-04-04T08:44:33.028Z</time>
      </trkpt>
      <trkpt lat="45.57033" lon="5.38489">
        <ele>416</ele>
        <time>2021-04-04T08:44:34.028Z</time>
      </trkpt>
      <trkpt lat="45.57029" lon="5.3849">
        <ele>417</ele>
        <time>2021-04-04T08:44:35.028Z</time>
      </trkpt>
      <trkpt lat="45.57026" lon="5.38491">
        <ele>418</ele>
        <time>2021-04-04T08:44:36.027Z</time>
      </trkpt>
      <trkpt lat="45.57023" lon="5.38492">
        <ele>419</ele>
        <time>2021-04-04T08:44:37.028Z</time>
      </trkpt>
      <trkpt lat="45.57019" lon="5.38494">
        <ele>420</ele>
        <time>2021-04-04T08:44:38.028Z</time>
      </trkpt>
      <trkpt lat="45.57015" lon="5.38497">
        <ele>421</ele>
        <time>2021-04-04T08:44:39.027Z</time>
      </trkpt>
      <trkpt lat="45.57012" lon="5.38499">
        <ele>422</ele>
        <time>2021-04-04T08:44:40.028Z</time>
      </trkpt>
      <trkpt lat="45.57008" lon="5.385">
        <ele>422</ele>
        <time>2021-04-04T08:44:41.028Z</time>
      </trkpt>
      <trkpt lat="45.57005" lon="5.38502">
        <ele>422</ele>
        <time>2021-04-04T08:44:42.027Z</time>
      </trkpt>
      <trkpt lat="45.57001" lon="5.38504">
        <ele>423</ele>
        <time>2021-04-04T08:44:43.028Z</time>
      </trkpt>
      <trkpt lat="45.56998" lon="5.38505">
        <ele>423</ele>
        <time>2021-04-04T08:44:44.027Z</time>
      </trkpt>
      <trkpt lat="45.56995" lon="5.38506">
        <ele>423</ele>
        <time>2021-04-04T08:44:45.027Z</time>
      </trkpt>
      <trkpt lat="45.56992" lon="5.38507">
        <ele>423</ele>
        <time>2021-04-04T08:44:46.028Z</time>
      </trkpt>
      <trkpt lat="45.56988" lon="5.38509">
        <ele>423</ele>
        <time>2021-04-04T08:44:47.028Z</time>
      </trkpt>
      <trkpt lat="45.56985" lon="5.3851">
        <ele>422</ele>
        <time>2021-04-04T08:44:48.028Z</time>
      </trkpt>
      <trkpt lat="45.56982" lon="5.38511">
        <ele>422</ele>
        <time>2021-04-04T08:44:49.027Z</time>
      </trkpt>
      <trkpt lat="45.56979" lon="5.3851">
        <ele>422</ele>
        <time>2021-04-04T08:44:50.028Z</time>
      </trkpt>
      <trkpt lat="45.56976" lon="5.38509">
        <ele>421</ele>
        <time>2021-04-04T08:44:51.027Z</time>
      </trkpt>
      <trkpt lat="45.56973" lon="5.38507">
        <ele>420</ele>
        <time>2021-04-04T08:44:52.027Z</time>
      </trkpt>
      <trkpt lat="45.5697" lon="5.38505">
        <ele>419</ele>
        <time>2021-04-04T08:44:53.027Z</time>
      </trkpt>
      <trkpt lat="45.56968" lon="5.38502">
        <ele>419</ele>
        <time>2021-04-04T08:44:54.028Z</time>
      </trkpt>
      <trkpt lat="45.56966" lon="5.38497">
        <ele>418</ele>
        <time>2021-04-04T08:44:55.027Z</time>
      </trkpt>
      <trkpt lat="45.56964" lon="5.38493">
        <ele>417</ele>
        <time>2021-04-04T08:44:56.028Z</time>
      </trkpt>
      <trkpt lat="45.56963" lon="5.38488">
        <ele>417</ele>
        <time>2021-04-04T08:44:57.027Z</time>
      </trkpt>
      <trkpt lat="45.56961" lon="5.38484">
        <ele>416</ele>
        <time>2021-04-04T08:44:58.028Z</time>
      </trkpt>
      <trkpt lat="45.56961" lon="5.3848">
        <ele>416</ele>
        <time>2021-04-04T08:44:59.028Z</time>
      </trkpt>
      <trkpt lat="45.5696" lon="5.38474">
        <ele>416</ele>
        <time>2021-04-04T08:45:00.028Z</time>
      </trkpt>
      <trkpt lat="45.5696" lon="5.38469">
        <ele>415</ele>
        <time>2021-04-04T08:45:01.028Z</time>
      </trkpt>
      <trkpt lat="45.56959" lon="5.38463">
        <ele>415</ele>
        <time>2021-04-04T08:45:02.028Z</time>
      </trkpt>
      <trkpt lat="45.56959" lon="5.38457">
        <ele>415</ele>
        <time>2021-04-04T08:45:03.028Z</time>
      </trkpt>
      <trkpt lat="45.5696" lon="5.38453">
        <ele>415</ele>
        <time>2021-04-04T08:45:04.027Z</time>
      </trkpt>
      <trkpt lat="45.5696" lon="5.38448">
        <ele>415</ele>
        <time>2021-04-04T08:45:05.028Z</time>
      </trkpt>
      <trkpt lat="45.56961" lon="5.38443">
        <ele>415</ele>
        <time>2021-04-04T08:45:06.027Z</time>
      </trkpt>
      <trkpt lat="45.56962" lon="5.38438">
        <ele>415</ele>
        <time>2021-04-04T08:45:07.028Z</time>
      </trkpt>
      <trkpt lat="45.56963" lon="5.38433">
        <ele>415</ele>
        <time>2021-04-04T08:45:08.027Z</time>
      </trkpt>
      <trkpt lat="45.56964" lon="5.38429">
        <ele>415</ele>
        <time>2021-04-04T08:45:09.028Z</time>
      </trkpt>
      <trkpt lat="45.56966" lon="5.38425">
        <ele>415</ele>
        <time>2021-04-04T08:45:10.028Z</time>
      </trkpt>
      <trkpt lat="45.56968" lon="5.38421">
        <ele>415</ele>
        <time>2021-04-04T08:45:11.027Z</time>
      </trkpt>
      <trkpt lat="45.56971" lon="5.38417">
        <ele>415</ele>
        <time>2021-04-04T08:45:12.028Z</time>
      </trkpt>
      <trkpt lat="45.56974" lon="5.38414">
        <ele>415</ele>
        <time>2021-04-04T08:45:13.028Z</time>
      </trkpt>
      <trkpt lat="45.56976" lon="5.38411">
        <ele>415</ele>
        <time>2021-04-04T08:45:14.028Z</time>
      </trkpt>
      <trkpt lat="45.56979" lon="5.38408">
        <ele>415</ele>
        <time>2021-04-04T08:45:15.028Z</time>
      </trkpt>
      <trkpt lat="45.56981" lon="5.38405">
        <ele>415</ele>
        <time>2021-04-04T08:45:16.028Z</time>
      </trkpt>
      <trkpt lat="45.56985" lon="5.38402">
        <ele>415</ele>
        <time>2021-04-04T08:45:17.028Z</time>
      </trkpt>
      <trkpt lat="45.56988" lon="5.384">
        <ele>415</ele>
        <time>2021-04-04T08:45:18.028Z</time>
      </trkpt>
      <trkpt lat="45.56991" lon="5.38399">
        <ele>415</ele>
        <time>2021-04-04T08:45:19.028Z</time>
      </trkpt>
      <trkpt lat="45.56994" lon="5.38397">
        <ele>415</ele>
        <time>2021-04-04T08:45:20.027Z</time>
      </trkpt>
      <trkpt lat="45.56998" lon="5.38395">
        <ele>415</ele>
        <time>2021-04-04T08:45:21.028Z</time>
      </trkpt>
      <trkpt lat="45.57001" lon="5.38392">
        <ele>416</ele>
        <time>2021-04-04T08:45:22.028Z</time>
      </trkpt>
      <trkpt lat="45.57005" lon="5.3839">
        <ele>416</ele>
        <time>2021-04-04T08:45:23.028Z</time>
      </trkpt>
      <trkpt lat="45.57008" lon="5.38387">
        <ele>417</ele>
        <time>2021-04-04T08:45:24.028Z</time>
      </trkpt>
      <trkpt lat="45.5701" lon="5.38385">
        <ele>417</ele>
        <time>2021-04-04T08:45:25.028Z</time>
      </trkpt>
      <trkpt lat="45.57013" lon="5.38382">
        <ele>418</ele>
        <time>2021-04-04T08:45:26.028Z</time>
      </trkpt>
      <trkpt lat="45.57017" lon="5.38378">
        <ele>419</ele>
        <time>2021-04-04T08:45:27.028Z</time>
      </trkpt>
      <trkpt lat="45.5702" lon="5.38375">
        <ele>419</ele>
        <time>2021-04-04T08:45:28.028Z</time>
      </trkpt>
      <trkpt lat="45.57022" lon="5.38372">
        <ele>419</ele>
        <time>2021-04-04T08:45:29.028Z</time>
      </trkpt>
      <trkpt lat="45.57025" lon="5.38368">
        <ele>419</ele>
        <time>2021-04-04T08:45:30.027Z</time>
      </trkpt>
      <trkpt lat="45.57028" lon="5.38364">
        <ele>419</ele>
        <time>2021-04-04T08:45:31.028Z</time>
      </trkpt>
      <trkpt lat="45.5703" lon="5.38361">
        <ele>420</ele>
        <time>2021-04-04T08:45:32.028Z</time>
      </trkpt>
      <trkpt lat="45.57033" lon="5.38357">
        <ele>420</ele>
        <time>2021-04-04T08:45:33.028Z</time>
      </trkpt>
      <trkpt lat="45.57035" lon="5.38353">
        <ele>420</ele>
        <time>2021-04-04T08:45:34.027Z</time>
      </trkpt>
      <trkpt lat="45.57038" lon="5.3835">
        <ele>421</ele>
        <time>2021-04-04T08:45:35.028Z</time>
      </trkpt>
      <trkpt lat="45.57041" lon="5.38347">
        <ele>421</ele>
        <time>2021-04-04T08:45:36.028Z</time>
      </trkpt>
      <trkpt lat="45.57043" lon="5.38343">
        <ele>421</ele>
        <time>2021-04-04T08:45:37.028Z</time>
      </trkpt>
      <trkpt lat="45.57046" lon="5.38339">
        <ele>421</ele>
        <time>2021-04-04T08:45:38.028Z</time>
      </trkpt>
      <trkpt lat="45.57047" lon="5.38336">
        <ele>422</ele>
        <time>2021-04-04T08:45:39.028Z</time>
      </trkpt>
      <trkpt lat="45.5705" lon="5.38331">
        <ele>422</ele>
        <time>2021-04-04T08:45:40.028Z</time>
      </trkpt>
      <trkpt lat="45.57052" lon="5.38327">
        <ele>423</ele>
        <time>2021-04-04T08:45:41.028Z</time>
      </trkpt>
      <trkpt lat="45.57054" lon="5.38323">
        <ele>423</ele>
        <time>2021-04-04T08:45:42.028Z</time>
      </trkpt>
      <trkpt lat="45.57056" lon="5.38319">
        <ele>423</ele>
        <time>2021-04-04T08:45:43.028Z</time>
      </trkpt>
      <trkpt lat="45.57058" lon="5.38315">
        <ele>424</ele>
        <time>2021-04-04T08:45:44.027Z</time>
      </trkpt>
      <trkpt lat="45.5706" lon="5.38312">
        <ele>424</ele>
        <time>2021-04-04T08:45:45.027Z</time>
      </trkpt>
      <trkpt lat="45.57063" lon="5.3831">
        <ele>425</ele>
        <time>2021-04-04T08:45:46.027Z</time>
      </trkpt>
      <trkpt lat="45.57066" lon="5.3831">
        <ele>426</ele>
        <time>2021-04-04T08:45:47.028Z</time>
      </trkpt>
      <trkpt lat="45.57068" lon="5.38313">
        <ele>427</ele>
        <time>2021-04-04T08:45:48.028Z</time>
      </trkpt>
      <trkpt lat="45.57069" lon="5.38317">
        <ele>428</ele>
        <time>2021-04-04T08:45:49.027Z</time>
      </trkpt>
      <trkpt lat="45.57068" lon="5.3832">
        <ele>429</ele>
        <time>2021-04-04T08:45:50.028Z</time>
      </trkpt>
      <trkpt lat="45.57066" lon="5.38326">
        <ele>430</ele>
        <time>2021-04-04T08:45:51.027Z</time>
      </trkpt>
      <trkpt lat="45.57064" lon="5.38333">
        <ele>430</ele>
        <time>2021-04-04T08:45:52.027Z</time>
      </trkpt>
      <trkpt lat="45.57062" lon="5.38338">
        <ele>431</ele>
        <time>2021-04-04T08:45:53.027Z</time>
      </trkpt>
      <trkpt lat="45.5706" lon="5.38343">
        <ele>432</ele>
        <time>2021-04-04T08:45:54.028Z</time>
      </trkpt>
      <trkpt lat="45.57058" lon="5.38349">
        <ele>433</ele>
        <time>2021-04-04T08:45:55.028Z</time>
      </trkpt>
      <trkpt lat="45.57056" lon="5.38354">
        <ele>434</ele>
        <time>2021-04-04T08:45:56.027Z</time>
      </trkpt>
      <trkpt lat="45.57054" lon="5.38359">
        <ele>435</ele>
        <time>2021-04-04T08:45:57.028Z</time>
      </trkpt>
      <trkpt lat="45.57052" lon="5.38364">
        <ele>435</ele>
        <time>2021-04-04T08:45:58.028Z</time>
      </trkpt>
      <trkpt lat="45.57051" lon="5.38368">
        <ele>435</ele>
        <time>2021-04-04T08:45:59.027Z</time>
      </trkpt>
      <trkpt lat="45.57049" lon="5.38372">
        <ele>435</ele>
        <time>2021-04-04T08:46:00.028Z</time>
      </trkpt>
      <trkpt lat="45.57048" lon="5.38377">
        <ele>435</ele>
        <time>2021-04-04T08:46:01.028Z</time>
      </trkpt>
      <trkpt lat="45.57047" lon="5.38382">
        <ele>435</ele>
        <time>2021-04-04T08:46:02.028Z</time>
      </trkpt>
      <trkpt lat="45.57047" lon="5.38387">
        <ele>435</ele>
        <time>2021-04-04T08:46:03.027Z</time>
      </trkpt>
      <trkpt lat="45.57047" lon="5.38392">
        <ele>435</ele>
        <time>2021-04-04T08:46:04.028Z</time>
      </trkpt>
      <trkpt lat="45.57048" lon="5.38396">
        <ele>435</ele>
        <time>2021-04-04T08:46:05.028Z</time>
      </trkpt>
      <trkpt lat="45.5705" lon="5.38399">
        <ele>435</ele>
        <time>2021-04-04T08:46:06.028Z</time>
      </trkpt>
      <trkpt lat="45.57052" lon="5.384">
        <ele>435</ele>
        <time>2021-04-04T08:46:07.028Z</time>
      </trkpt>
      <trkpt lat="45.57056" lon="5.38401">
        <ele>435</ele>
        <time>2021-04-04T08:46:08.028Z</time>
      </trkpt>
      <trkpt lat="45.5706" lon="5.384">
        <ele>435</ele>
        <time>2021-04-04T08:46:09.027Z</time>
      </trkpt>
      <trkpt lat="45.57063" lon="5.38398">
        <ele>435</ele>
        <time>2021-04-04T08:46:10.027Z</time>
      </trkpt>
      <trkpt lat="45.57066" lon="5.38397">
        <ele>435</ele>
        <time>2021-04-04T08:46:11.027Z</time>
      </trkpt>
      <trkpt lat="45.5707" lon="5.38396">
        <ele>435</ele>
        <time>2021-04-04T08:46:12.028Z</time>
      </trkpt>
      <trkpt lat="45.57073" lon="5.38395">
        <ele>436</ele>
        <time>2021-04-04T08:46:13.027Z</time>
      </trkpt>
      <trkpt lat="45.57077" lon="5.38394">
        <ele>437</ele>
        <time>2021-04-04T08:46:14.027Z</time>
      </trkpt>
      <trkpt lat="45.5708" lon="5.38393">
        <ele>437</ele>
        <time>2021-04-04T08:46:15.028Z</time>
      </trkpt>
      <trkpt lat="45.57084" lon="5.38392">
        <ele>438</ele>
        <time>2021-04-04T08:46:16.028Z</time>
      </trkpt>
      <trkpt lat="45.57087" lon="5.38392">
        <ele>440</ele>
        <time>2021-04-04T08:46:17.028Z</time>
      </trkpt>
      <trkpt lat="45.57091" lon="5.38392">
        <ele>441</ele>
        <time>2021-04-04T08:46:18.027Z</time>
      </trkpt>
      <trkpt lat="45.57095" lon="5.38392">
        <ele>442</ele>
        <time>2021-04-04T08:46:19.028Z</time>
      </trkpt>
      <trkpt lat="45.57098" lon="5.38391">
        <ele>443</ele>
        <time>2021-04-04T08:46:20.028Z</time>
      </trkpt>
      <trkpt lat="45.57101" lon="5.38391">
        <ele>445</ele>
        <time>2021-04-04T08:46:21.028Z</time>
      </trkpt>
      <trkpt lat="45.57104" lon="5.38391">
        <ele>446</ele>
        <time>2021-04-04T08:46:22.028Z</time>
      </trkpt>
      <trkpt lat="45.57108" lon="5.3839">
        <ele>447</ele>
        <time>2021-04-04T08:46:23.027Z</time>
      </trkpt>
      <trkpt lat="45.57112" lon="5.38389">
        <ele>448</ele>
        <time>2021-04-04T08:46:24.028Z</time>
      </trkpt>
      <trkpt lat="45.57115" lon="5.38388">
        <ele>449</ele>
        <time>2021-04-04T08:46:25.028Z</time>
      </trkpt>
      <trkpt lat="45.57118" lon="5.38387">
        <ele>450</ele>
        <time>2021-04-04T08:46:26.028Z</time>
      </trkpt>
      <trkpt lat="45.57122" lon="5.38386">
        <ele>450</ele>
        <time>2021-04-04T08:46:27.028Z</time>
      </trkpt>
      <trkpt lat="45.57125" lon="5.38384">
        <ele>451</ele>
        <time>2021-04-04T08:46:28.028Z</time>
      </trkpt>
      <trkpt lat="45.57129" lon="5.38382">
        <ele>451</ele>
        <time>2021-04-04T08:46:29.028Z</time>
      </trkpt>
      <trkpt lat="45.57132" lon="5.38381">
        <ele>451</ele>
        <time>2021-04-04T08:46:30.028Z</time>
      </trkpt>
      <trkpt lat="45.57135" lon="5.38379">
        <ele>451</ele>
        <time>2021-04-04T08:46:31.027Z</time>
      </trkpt>
      <trkpt lat="45.57138" lon="5.38377">
        <ele>451</ele>
        <time>2021-04-04T08:46:32.027Z</time>
      </trkpt>
      <trkpt lat="45.57141" lon="5.38375">
        <ele>452</ele>
        <time>2021-04-04T08:46:33.027Z</time>
      </trkpt>
      <trkpt lat="45.57144" lon="5.38372">
        <ele>452</ele>
        <time>2021-04-04T08:46:34.028Z</time>
      </trkpt>
      <trkpt lat="45.57147" lon="5.3837">
        <ele>453</ele>
        <time>2021-04-04T08:46:35.028Z</time>
      </trkpt>
      <trkpt lat="45.5715" lon="5.38367">
        <ele>453</ele>
        <time>2021-04-04T08:46:36.027Z</time>
      </trkpt>
      <trkpt lat="45.57153" lon="5.38363">
        <ele>452</ele>
        <time>2021-04-04T08:46:37.027Z</time>
      </trkpt>
      <trkpt lat="45.57155" lon="5.3836">
        <ele>452</ele>
        <time>2021-04-04T08:46:38.027Z</time>
      </trkpt>
      <trkpt lat="45.57157" lon="5.38357">
        <ele>452</ele>
        <time>2021-04-04T08:46:39.027Z</time>
      </trkpt>
      <trkpt lat="45.57159" lon="5.38353">
        <ele>451</ele>
        <time>2021-04-04T08:46:40.027Z</time>
      </trkpt>
      <trkpt lat="45.57161" lon="5.38348">
        <ele>451</ele>
        <time>2021-04-04T08:46:41.028Z</time>
      </trkpt>
      <trkpt lat="45.57163" lon="5.38344">
        <ele>450</ele>
        <time>2021-04-04T08:46:42.028Z</time>
      </trkpt>
      <trkpt lat="45.57164" lon="5.3834">
        <ele>450</ele>
        <time>2021-04-04T08:46:43.028Z</time>
      </trkpt>
      <trkpt lat="45.57166" lon="5.38335">
        <ele>451</ele>
        <time>2021-04-04T08:46:44.028Z</time>
      </trkpt>
      <trkpt lat="45.57168" lon="5.38331">
        <ele>451</ele>
        <time>2021-04-04T08:46:45.027Z</time>
      </trkpt>
      <trkpt lat="45.5717" lon="5.38327">
        <ele>451</ele>
        <time>2021-04-04T08:46:46.027Z</time>
      </trkpt>
      <trkpt lat="45.57171" lon="5.38323">
        <ele>451</ele>
        <time>2021-04-04T08:46:47.028Z</time>
      </trkpt>
      <trkpt lat="45.57173" lon="5.38319">
        <ele>451</ele>
        <time>2021-04-04T08:46:48.028Z</time>
      </trkpt>
      <trkpt lat="45.57175" lon="5.38315">
        <ele>451</ele>
        <time>2021-04-04T08:46:49.028Z</time>
      </trkpt>
      <trkpt lat="45.57178" lon="5.38312">
        <ele>451</ele>
        <time>2021-04-04T08:46:50.028Z</time>
      </trkpt>
      <trkpt lat="45.5718" lon="5.38309">
        <ele>452</ele>
        <time>2021-04-04T08:46:51.028Z</time>
      </trkpt>
      <trkpt lat="45.57183" lon="5.38305">
        <ele>452</ele>
        <time>2021-04-04T08:46:52.028Z</time>
      </trkpt>
      <trkpt lat="45.57186" lon="5.38302">
        <ele>452</ele>
        <time>2021-04-04T08:46:53.028Z</time>
      </trkpt>
      <trkpt lat="45.57189" lon="5.38299">
        <ele>452</ele>
        <time>2021-04-04T08:46:54.027Z</time>
      </trkpt>
      <trkpt lat="45.57192" lon="5.38296">
        <ele>452</ele>
        <time>2021-04-04T08:46:55.027Z</time>
      </trkpt>
      <trkpt lat="45.57195" lon="5.38294">
        <ele>453</ele>
        <time>2021-04-04T08:46:56.027Z</time>
      </trkpt>
      <trkpt lat="45.57198" lon="5.38291">
        <ele>454</ele>
        <time>2021-04-04T08:46:57.028Z</time>
      </trkpt>
      <trkpt lat="45.57201" lon="5.38289">
        <ele>455</ele>
        <time>2021-04-04T08:46:58.028Z</time>
      </trkpt>
      <trkpt lat="45.57204" lon="5.38287">
        <ele>455</ele>
        <time>2021-04-04T08:46:59.027Z</time>
      </trkpt>
      <trkpt lat="45.57207" lon="5.38285">
        <ele>455</ele>
        <time>2021-04-04T08:47:00.028Z</time>
      </trkpt>
      <trkpt lat="45.5721" lon="5.38283">
        <ele>455</ele>
        <time>2021-04-04T08:47:01.028Z</time>
      </trkpt>
      <trkpt lat="45.57214" lon="5.3828">
        <ele>455</ele>
        <time>2021-04-04T08:47:02.028Z</time>
      </trkpt>
      <trkpt lat="45.57217" lon="5.38278">
        <ele>455</ele>
        <time>2021-04-04T08:47:03.028Z</time>
      </trkpt>
      <trkpt lat="45.5722" lon="5.38277">
        <ele>455</ele>
        <time>2021-04-04T08:47:04.028Z</time>
      </trkpt>
      <trkpt lat="45.57224" lon="5.38276">
        <ele>455</ele>
        <time>2021-04-04T08:47:05.028Z</time>
      </trkpt>
      <trkpt lat="45.57227" lon="5.38276">
        <ele>456</ele>
        <time>2021-04-04T08:47:06.028Z</time>
      </trkpt>
      <trkpt lat="45.57231" lon="5.38276">
        <ele>457</ele>
        <time>2021-04-04T08:47:07.027Z</time>
      </trkpt>
      <trkpt lat="45.57235" lon="5.38275">
        <ele>458</ele>
        <time>2021-04-04T08:47:08.028Z</time>
      </trkpt>
      <trkpt lat="45.57239" lon="5.38275">
        <ele>459</ele>
        <time>2021-04-04T08:47:09.027Z</time>
      </trkpt>
      <trkpt lat="45.57242" lon="5.38276">
        <ele>460</ele>
        <time>2021-04-04T08:47:10.028Z</time>
      </trkpt>
      <trkpt lat="45.57245" lon="5.38277">
        <ele>461</ele>
        <time>2021-04-04T08:47:11.028Z</time>
      </trkpt>
      <trkpt lat="45.57249" lon="5.38278">
        <ele>462</ele>
        <time>2021-04-04T08:47:12.028Z</time>
      </trkpt>
      <trkpt lat="45.57253" lon="5.3828">
        <ele>462</ele>
        <time>2021-04-04T08:47:13.028Z</time>
      </trkpt>
      <trkpt lat="45.57256" lon="5.38282">
        <ele>463</ele>
        <time>2021-04-04T08:47:14.027Z</time>
      </trkpt>
      <trkpt lat="45.57259" lon="5.38285">
        <ele>463</ele>
        <time>2021-04-04T08:47:15.028Z</time>
      </trkpt>
      <trkpt lat="45.57263" lon="5.38286">
        <ele>464</ele>
        <time>2021-04-04T08:47:16.028Z</time>
      </trkpt>
      <trkpt lat="45.57267" lon="5.38288">
        <ele>464</ele>
        <time>2021-04-04T08:47:17.027Z</time>
      </trkpt>
      <trkpt lat="45.57271" lon="5.3829">
        <ele>464</ele>
        <time>2021-04-04T08:47:18.028Z</time>
      </trkpt>
      <trkpt lat="45.57275" lon="5.38292">
        <ele>465</ele>
        <time>2021-04-04T08:47:19.027Z</time>
      </trkpt>
      <trkpt lat="45.57278" lon="5.38294">
        <ele>465</ele>
        <time>2021-04-04T08:47:20.028Z</time>
      </trkpt>
      <trkpt lat="45.57281" lon="5.38296">
        <ele>466</ele>
        <time>2021-04-04T08:47:21.028Z</time>
      </trkpt>
      <trkpt lat="45.57285" lon="5.38299">
        <ele>466</ele>
        <time>2021-04-04T08:47:22.028Z</time>
      </trkpt>
      <trkpt lat="45.57287" lon="5.383">
        <ele>467</ele>
        <time>2021-04-04T08:47:23.027Z</time>
      </trkpt>
      <trkpt lat="45.5729" lon="5.38303">
        <ele>467</ele>
        <time>2021-04-04T08:47:24.028Z</time>
      </trkpt>
      <trkpt lat="45.57293" lon="5.38305">
        <ele>467</ele>
        <time>2021-04-04T08:47:25.028Z</time>
      </trkpt>
      <trkpt lat="45.57296" lon="5.38308">
        <ele>468</ele>
        <time>2021-04-04T08:47:26.028Z</time>
      </trkpt>
      <trkpt lat="45.57299" lon="5.38311">
        <ele>468</ele>
        <time>2021-04-04T08:47:27.028Z</time>
      </trkpt>
      <trkpt lat="45.57302" lon="5.38314">
        <ele>468</ele>
        <time>2021-04-04T08:47:28.028Z</time>
      </trkpt>
      <trkpt lat="45.57305" lon="5.38317">
        <ele>468</ele>
        <time>2021-04-04T08:47:29.028Z</time>
      </trkpt>
      <trkpt lat="45.57307" lon="5.38321">
        <ele>467</ele>
        <time>2021-04-04T08:47:30.028Z</time>
      </trkpt>
      <trkpt lat="45.57309" lon="5.38325">
        <ele>467</ele>
        <time>2021-04-04T08:47:31.028Z</time>
      </trkpt>
      <trkpt lat="45.57311" lon="5.38328">
        <ele>467</ele>
        <time>2021-04-04T08:47:32.028Z</time>
      </trkpt>
      <trkpt lat="45.57313" lon="5.38332">
        <ele>467</ele>
        <time>2021-04-04T08:47:33.027Z</time>
      </trkpt>
      <trkpt lat="45.57315" lon="5.38336">
        <ele>467</ele>
        <time>2021-04-04T08:47:34.028Z</time>
      </trkpt>
      <trkpt lat="45.57318" lon="5.38338">
        <ele>468</ele>
        <time>2021-04-04T08:47:35.028Z</time>
      </trkpt>
      <trkpt lat="45.5732" lon="5.3834">
        <ele>468</ele>
        <time>2021-04-04T08:47:36.028Z</time>
      </trkpt>
      <trkpt lat="45.57324" lon="5.38342">
        <ele>469</ele>
        <time>2021-04-04T08:47:37.027Z</time>
      </trkpt>
      <trkpt lat="45.57327" lon="5.38343">
        <ele>469</ele>
        <time>2021-04-04T08:47:38.028Z</time>
      </trkpt>
      <trkpt lat="45.57331" lon="5.38344">
        <ele>469</ele>
        <time>2021-04-04T08:47:39.028Z</time>
      </trkpt>
      <trkpt lat="45.57334" lon="5.38344">
        <ele>470</ele>
        <time>2021-04-04T08:47:40.028Z</time>
      </trkpt>
      <trkpt lat="45.57337" lon="5.38345">
        <ele>470</ele>
        <time>2021-04-04T08:47:41.028Z</time>
      </trkpt>
      <trkpt lat="45.57341" lon="5.38346">
        <ele>471</ele>
        <time>2021-04-04T08:47:42.027Z</time>
      </trkpt>
      <trkpt lat="45.57345" lon="5.38347">
        <ele>471</ele>
        <time>2021-04-04T08:47:43.027Z</time>
      </trkpt>
      <trkpt lat="45.57348" lon="5.38347">
        <ele>472</ele>
        <time>2021-04-04T08:47:44.028Z</time>
      </trkpt>
      <trkpt lat="45.57352" lon="5.38348">
        <ele>472</ele>
        <time>2021-04-04T08:47:45.027Z</time>
      </trkpt>
      <trkpt lat="45.57356" lon="5.38349">
        <ele>472</ele>
        <time>2021-04-04T08:47:46.027Z</time>
      </trkpt>
      <trkpt lat="45.57359" lon="5.3835">
        <ele>473</ele>
        <time>2021-04-04T08:47:47.028Z</time>
      </trkpt>
      <trkpt lat="45.57363" lon="5.38351">
        <ele>473</ele>
        <time>2021-04-04T08:47:48.028Z</time>
      </trkpt>
      <trkpt lat="45.57366" lon="5.38352">
        <ele>474</ele>
        <time>2021-04-04T08:47:49.028Z</time>
      </trkpt>
      <trkpt lat="45.5737" lon="5.38353">
        <ele>474</ele>
        <time>2021-04-04T08:47:50.028Z</time>
      </trkpt>
      <trkpt lat="45.57374" lon="5.38354">
        <ele>475</ele>
        <time>2021-04-04T08:47:51.028Z</time>
      </trkpt>
      <trkpt lat="45.57377" lon="5.38355">
        <ele>475</ele>
        <time>2021-04-04T08:47:52.028Z</time>
      </trkpt>
      <trkpt lat="45.57381" lon="5.38357">
        <ele>476</ele>
        <time>2021-04-04T08:47:53.028Z</time>
      </trkpt>
      <trkpt lat="45.57384" lon="5.38358">
        <ele>476</ele>
        <time>2021-04-04T08:47:54.028Z</time>
      </trkpt>
      <trkpt lat="45.57387" lon="5.38358">
        <ele>477</ele>
        <time>2021-04-04T08:47:55.028Z</time>
      </trkpt>
      <trkpt lat="45.57391" lon="5.38359">
        <ele>477</ele>
        <time>2021-04-04T08:47:56.028Z</time>
      </trkpt>
      <trkpt lat="45.57394" lon="5.38361">
        <ele>477</ele>
        <time>2021-04-04T08:47:57.028Z</time>
      </trkpt>
      <trkpt lat="45.57398" lon="5.38363">
        <ele>478</ele>
        <time>2021-04-04T08:47:58.028Z</time>
      </trkpt>
      <trkpt lat="45.57401" lon="5.38364">
        <ele>478</ele>
        <time>2021-04-04T08:47:59.027Z</time>
      </trkpt>
      <trkpt lat="45.57404" lon="5.38366">
        <ele>478</ele>
        <time>2021-04-04T08:48:00.028Z</time>
      </trkpt>
      <trkpt lat="45.57407" lon="5.38369">
        <ele>479</ele>
        <time>2021-04-04T08:48:01.028Z</time>
      </trkpt>
      <trkpt lat="45.5741" lon="5.38371">
        <ele>479</ele>
        <time>2021-04-04T08:48:02.028Z</time>
      </trkpt>
      <trkpt lat="45.57413" lon="5.38373">
        <ele>480</ele>
        <time>2021-04-04T08:48:03.028Z</time>
      </trkpt>
      <trkpt lat="45.57416" lon="5.38375">
        <ele>481</ele>
        <time>2021-04-04T08:48:04.028Z</time>
      </trkpt>
      <trkpt lat="45.57419" lon="5.38378">
        <ele>482</ele>
        <time>2021-04-04T08:48:05.027Z</time>
      </trkpt>
      <trkpt lat="45.57422" lon="5.38381">
        <ele>483</ele>
        <time>2021-04-04T08:48:06.028Z</time>
      </trkpt>
      <trkpt lat="45.57426" lon="5.38384">
        <ele>483</ele>
        <time>2021-04-04T08:48:07.027Z</time>
      </trkpt>
      <trkpt lat="45.57428" lon="5.38387">
        <ele>483</ele>
        <time>2021-04-04T08:48:08.027Z</time>
      </trkpt>
      <trkpt lat="45.57431" lon="5.3839">
        <ele>483</ele>
        <time>2021-04-04T08:48:09.028Z</time>
      </trkpt>
      <trkpt lat="45.57433" lon="5.38394">
        <ele>484</ele>
        <time>2021-04-04T08:48:10.027Z</time>
      </trkpt>
      <trkpt lat="45.57436" lon="5.38398">
        <ele>483</ele>
        <time>2021-04-04T08:48:11.028Z</time>
      </trkpt>
      <trkpt lat="45.57438" lon="5.38402">
        <ele>483</ele>
        <time>2021-04-04T08:48:12.028Z</time>
      </trkpt>
      <trkpt lat="45.57441" lon="5.38406">
        <ele>483</ele>
        <time>2021-04-04T08:48:13.028Z</time>
      </trkpt>
      <trkpt lat="45.57443" lon="5.3841">
        <ele>483</ele>
        <time>2021-04-04T08:48:14.028Z</time>
      </trkpt>
      <trkpt lat="45.57446" lon="5.38414">
        <ele>482</ele>
        <time>2021-04-04T08:48:15.028Z</time>
      </trkpt>
      <trkpt lat="45.57449" lon="5.38418">
        <ele>482</ele>
        <time>2021-04-04T08:48:16.028Z</time>
      </trkpt>
      <trkpt lat="45.57451" lon="5.38422">
        <ele>482</ele>
        <time>2021-04-04T08:48:17.028Z</time>
      </trkpt>
      <trkpt lat="45.57454" lon="5.38425">
        <ele>483</ele>
        <time>2021-04-04T08:48:18.028Z</time>
      </trkpt>
      <trkpt lat="45.57457" lon="5.38428">
        <ele>483</ele>
        <time>2021-04-04T08:48:19.028Z</time>
      </trkpt>
      <trkpt lat="45.57461" lon="5.38431">
        <ele>484</ele>
        <time>2021-04-04T08:48:20.028Z</time>
      </trkpt>
      <trkpt lat="45.57464" lon="5.38434">
        <ele>485</ele>
        <time>2021-04-04T08:48:21.028Z</time>
      </trkpt>
      <trkpt lat="45.57468" lon="5.38437">
        <ele>486</ele>
        <time>2021-04-04T08:48:22.028Z</time>
      </trkpt>
      <trkpt lat="45.57471" lon="5.38439">
        <ele>487</ele>
        <time>2021-04-04T08:48:23.028Z</time>
      </trkpt>
      <trkpt lat="45.57475" lon="5.3844">
        <ele>488</ele>
        <time>2021-04-04T08:48:24.028Z</time>
      </trkpt>
      <trkpt lat="45.57479" lon="5.38441">
        <ele>489</ele>
        <time>2021-04-04T08:48:25.027Z</time>
      </trkpt>
      <trkpt lat="45.57482" lon="5.38442">
        <ele>490</ele>
        <time>2021-04-04T08:48:26.027Z</time>
      </trkpt>
      <trkpt lat="45.57486" lon="5.38443">
        <ele>490</ele>
        <time>2021-04-04T08:48:27.028Z</time>
      </trkpt>
      <trkpt lat="45.5749" lon="5.38444">
        <ele>491</ele>
        <time>2021-04-04T08:48:28.028Z</time>
      </trkpt>
      <trkpt lat="45.57493" lon="5.38444">
        <ele>491</ele>
        <time>2021-04-04T08:48:29.028Z</time>
      </trkpt>
      <trkpt lat="45.57497" lon="5.38444">
        <ele>490</ele>
        <time>2021-04-04T08:48:30.027Z</time>
      </trkpt>
      <trkpt lat="45.57501" lon="5.38444">
        <ele>490</ele>
        <time>2021-04-04T08:48:31.027Z</time>
      </trkpt>
      <trkpt lat="45.57505" lon="5.38445">
        <ele>490</ele>
        <time>2021-04-04T08:48:32.027Z</time>
      </trkpt>
      <trkpt lat="45.57508" lon="5.38445">
        <ele>490</ele>
        <time>2021-04-04T08:48:33.027Z</time>
      </trkpt>
      <trkpt lat="45.57512" lon="5.38445">
        <ele>490</ele>
        <time>2021-04-04T08:48:34.028Z</time>
      </trkpt>
      <trkpt lat="45.57516" lon="5.38444">
        <ele>490</ele>
        <time>2021-04-04T08:48:35.028Z</time>
      </trkpt>
      <trkpt lat="45.57519" lon="5.38445">
        <ele>490</ele>
        <time>2021-04-04T08:48:36.028Z</time>
      </trkpt>
      <trkpt lat="45.57523" lon="5.38445">
        <ele>489</ele>
        <time>2021-04-04T08:48:37.028Z</time>
      </trkpt>
      <trkpt lat="45.57527" lon="5.38445">
        <ele>489</ele>
        <time>2021-04-04T08:48:38.028Z</time>
      </trkpt>
      <trkpt lat="45.57531" lon="5.38445">
        <ele>489</ele>
        <time>2021-04-04T08:48:39.028Z</time>
      </trkpt>
      <trkpt lat="45.57535" lon="5.38445">
        <ele>489</ele>
        <time>2021-04-04T08:48:40.028Z</time>
      </trkpt>
      <trkpt lat="45.57539" lon="5.38445">
        <ele>488</ele>
        <time>2021-04-04T08:48:41.028Z</time>
      </trkpt>
      <trkpt lat="45.57542" lon="5.38445">
        <ele>488</ele>
        <time>2021-04-04T08:48:42.028Z</time>
      </trkpt>
      <trkpt lat="45.57546" lon="5.38445">
        <ele>489</ele>
        <time>2021-04-04T08:48:43.028Z</time>
      </trkpt>
      <trkpt lat="45.57549" lon="5.38445">
        <ele>489</ele>
        <time>2021-04-04T08:48:44.028Z</time>
      </trkpt>
      <trkpt lat="45.57553" lon="5.38446">
        <ele>489</ele>
        <time>2021-04-04T08:48:45.028Z</time>
      </trkpt>
      <trkpt lat="45.57557" lon="5.38446">
        <ele>489</ele>
        <time>2021-04-04T08:48:46.028Z</time>
      </trkpt>
      <trkpt lat="45.5756" lon="5.38446">
        <ele>489</ele>
        <time>2021-04-04T08:48:47.028Z</time>
      </trkpt>
      <trkpt lat="45.57564" lon="5.38446">
        <ele>489</ele>
        <time>2021-04-04T08:48:48.028Z</time>
      </trkpt>
      <trkpt lat="45.57567" lon="5.38446">
        <ele>489</ele>
        <time>2021-04-04T08:48:49.027Z</time>
      </trkpt>
      <trkpt lat="45.5757" lon="5.38448">
        <ele>489</ele>
        <time>2021-04-04T08:48:50.028Z</time>
      </trkpt>
      <trkpt lat="45.57572" lon="5.38451">
        <ele>489</ele>
        <time>2021-04-04T08:48:51.027Z</time>
      </trkpt>
      <trkpt lat="45.57573" lon="5.38456">
        <ele>489</ele>
        <time>2021-04-04T08:48:52.027Z</time>
      </trkpt>
      <trkpt lat="45.57573" lon="5.38461">
        <ele>488</ele>
        <time>2021-04-04T08:48:53.028Z</time>
      </trkpt>
      <trkpt lat="45.57573" lon="5.38467">
        <ele>488</ele>
        <time>2021-04-04T08:48:54.028Z</time>
      </trkpt>
      <trkpt lat="45.57573" lon="5.38473">
        <ele>488</ele>
        <time>2021-04-04T08:48:55.028Z</time>
      </trkpt>
      <trkpt lat="45.57573" lon="5.38479">
        <ele>488</ele>
        <time>2021-04-04T08:48:56.027Z</time>
      </trkpt>
      <trkpt lat="45.57572" lon="5.38485">
        <ele>489</ele>
        <time>2021-04-04T08:48:57.027Z</time>
      </trkpt>
      <trkpt lat="45.57572" lon="5.38492">
        <ele>490</ele>
        <time>2021-04-04T08:48:58.028Z</time>
      </trkpt>
      <trkpt lat="45.57571" lon="5.38498">
        <ele>490</ele>
        <time>2021-04-04T08:48:59.027Z</time>
      </trkpt>
      <trkpt lat="45.57571" lon="5.38504">
        <ele>491</ele>
        <time>2021-04-04T08:49:00.028Z</time>
      </trkpt>
      <trkpt lat="45.5757" lon="5.38509">
        <ele>490</ele>
        <time>2021-04-04T08:49:01.027Z</time>
      </trkpt>
      <trkpt lat="45.57569" lon="5.38515">
        <ele>490</ele>
        <time>2021-04-04T08:49:02.028Z</time>
      </trkpt>
      <trkpt lat="45.57568" lon="5.38521">
        <ele>490</ele>
        <time>2021-04-04T08:49:03.027Z</time>
      </trkpt>
      <trkpt lat="45.57567" lon="5.38526">
        <ele>490</ele>
        <time>2021-04-04T08:49:04.028Z</time>
      </trkpt>
      <trkpt lat="45.57566" lon="5.38531">
        <ele>490</ele>
        <time>2021-04-04T08:49:05.028Z</time>
      </trkpt>
      <trkpt lat="45.57564" lon="5.38538">
        <ele>490</ele>
        <time>2021-04-04T08:49:06.028Z</time>
      </trkpt>
      <trkpt lat="45.57562" lon="5.38543">
        <ele>489</ele>
        <time>2021-04-04T08:49:07.028Z</time>
      </trkpt>
      <trkpt lat="45.5756" lon="5.38548">
        <ele>489</ele>
        <time>2021-04-04T08:49:08.028Z</time>
      </trkpt>
      <trkpt lat="45.57558" lon="5.38554">
        <ele>489</ele>
        <time>2021-04-04T08:49:09.027Z</time>
      </trkpt>
      <trkpt lat="45.57556" lon="5.3856">
        <ele>489</ele>
        <time>2021-04-04T08:49:10.028Z</time>
      </trkpt>
      <trkpt lat="45.57554" lon="5.38564">
        <ele>489</ele>
        <time>2021-04-04T08:49:11.028Z</time>
      </trkpt>
      <trkpt lat="45.57551" lon="5.38571">
        <ele>489</ele>
        <time>2021-04-04T08:49:12.028Z</time>
      </trkpt>
      <trkpt lat="45.57548" lon="5.38576">
        <ele>488</ele>
        <time>2021-04-04T08:49:13.028Z</time>
      </trkpt>
      <trkpt lat="45.57546" lon="5.38581">
        <ele>488</ele>
        <time>2021-04-04T08:49:14.028Z</time>
      </trkpt>
      <trkpt lat="45.57543" lon="5.38586">
        <ele>488</ele>
        <time>2021-04-04T08:49:15.028Z</time>
      </trkpt>
      <trkpt lat="45.57541" lon="5.38592">
        <ele>487</ele>
        <time>2021-04-04T08:49:16.028Z</time>
      </trkpt>
      <trkpt lat="45.57538" lon="5.38597">
        <ele>487</ele>
        <time>2021-04-04T08:49:17.027Z</time>
      </trkpt>
      <trkpt lat="45.57536" lon="5.38602">
        <ele>487</ele>
        <time>2021-04-04T08:49:18.028Z</time>
      </trkpt>
      <trkpt lat="45.57533" lon="5.38607">
        <ele>487</ele>
        <time>2021-04-04T08:49:19.028Z</time>
      </trkpt>
      <trkpt lat="45.57531" lon="5.38612">
        <ele>487</ele>
        <time>2021-04-04T08:49:20.027Z</time>
      </trkpt>
      <trkpt lat="45.57528" lon="5.38617">
        <ele>487</ele>
        <time>2021-04-04T08:49:21.027Z</time>
      </trkpt>
      <trkpt lat="45.57525" lon="5.38622">
        <ele>488</ele>
        <time>2021-04-04T08:49:22.028Z</time>
      </trkpt>
      <trkpt lat="45.57522" lon="5.38627">
        <ele>488</ele>
        <time>2021-04-04T08:49:23.028Z</time>
      </trkpt>
      <trkpt lat="45.5752" lon="5.38632">
        <ele>489</ele>
        <time>2021-04-04T08:49:24.027Z</time>
      </trkpt>
      <trkpt lat="45.57517" lon="5.38638">
        <ele>489</ele>
        <time>2021-04-04T08:49:25.028Z</time>
      </trkpt>
      <trkpt lat="45.57514" lon="5.38643">
        <ele>489</ele>
        <time>2021-04-04T08:49:26.028Z</time>
      </trkpt>
      <trkpt lat="45.57511" lon="5.38647">
        <ele>489</ele>
        <time>2021-04-04T08:49:27.028Z</time>
      </trkpt>
      <trkpt lat="45.57508" lon="5.38652">
        <ele>489</ele>
        <time>2021-04-04T08:49:28.028Z</time>
      </trkpt>
      <trkpt lat="45.57505" lon="5.38657">
        <ele>490</ele>
        <time>2021-04-04T08:49:29.028Z</time>
      </trkpt>
      <trkpt lat="45.57502" lon="5.38663">
        <ele>490</ele>
        <time>2021-04-04T08:49:30.028Z</time>
      </trkpt>
      <trkpt lat="45.57499" lon="5.38668">
        <ele>489</ele>
        <time>2021-04-04T08:49:31.027Z</time>
      </trkpt>
      <trkpt lat="45.57496" lon="5.38674">
        <ele>489</ele>
        <time>2021-04-04T08:49:32.028Z</time>
      </trkpt>
      <trkpt lat="45.57493" lon="5.3868">
        <ele>489</ele>
        <time>2021-04-04T08:49:33.028Z</time>
      </trkpt>
      <trkpt lat="45.5749" lon="5.38687">
        <ele>489</ele>
        <time>2021-04-04T08:49:34.028Z</time>
      </trkpt>
      <trkpt lat="45.57488" lon="5.38695">
        <ele>489</ele>
        <time>2021-04-04T08:49:35.027Z</time>
      </trkpt>
      <trkpt lat="45.57486" lon="5.38701">
        <ele>489</ele>
        <time>2021-04-04T08:49:36.028Z</time>
      </trkpt>
      <trkpt lat="45.57483" lon="5.3871">
        <ele>489</ele>
        <time>2021-04-04T08:49:37.028Z</time>
      </trkpt>
      <trkpt lat="45.57481" lon="5.38717">
        <ele>489</ele>
        <time>2021-04-04T08:49:38.028Z</time>
      </trkpt>
      <trkpt lat="45.5748" lon="5.38725">
        <ele>489</ele>
        <time>2021-04-04T08:49:39.028Z</time>
      </trkpt>
      <trkpt lat="45.57478" lon="5.38734">
        <ele>489</ele>
        <time>2021-04-04T08:49:40.028Z</time>
      </trkpt>
      <trkpt lat="45.57476" lon="5.38742">
        <ele>489</ele>
        <time>2021-04-04T08:49:41.027Z</time>
      </trkpt>
      <trkpt lat="45.57474" lon="5.3875">
        <ele>488</ele>
        <time>2021-04-04T08:49:42.028Z</time>
      </trkpt>
      <trkpt lat="45.57473" lon="5.38758">
        <ele>488</ele>
        <time>2021-04-04T08:49:43.027Z</time>
      </trkpt>
      <trkpt lat="45.57471" lon="5.38767">
        <ele>489</ele>
        <time>2021-04-04T08:49:44.028Z</time>
      </trkpt>
      <trkpt lat="45.5747" lon="5.38776">
        <ele>489</ele>
        <time>2021-04-04T08:49:45.028Z</time>
      </trkpt>
      <trkpt lat="45.57469" lon="5.38785">
        <ele>489</ele>
        <time>2021-04-04T08:49:46.028Z</time>
      </trkpt>
      <trkpt lat="45.57469" lon="5.38794">
        <ele>489</ele>
        <time>2021-04-04T08:49:47.028Z</time>
      </trkpt>
      <trkpt lat="45.57468" lon="5.38803">
        <ele>489</ele>
        <time>2021-04-04T08:49:48.027Z</time>
      </trkpt>
      <trkpt lat="45.57468" lon="5.38813">
        <ele>489</ele>
        <time>2021-04-04T08:49:49.027Z</time>
      </trkpt>
      <trkpt lat="45.57467" lon="5.38822">
        <ele>489</ele>
        <time>2021-04-04T08:49:50.028Z</time>
      </trkpt>
      <trkpt lat="45.57466" lon="5.38832">
        <ele>489</ele>
        <time>2021-04-04T08:49:51.028Z</time>
      </trkpt>
      <trkpt lat="45.57466" lon="5.38842">
        <ele>489</ele>
        <time>2021-04-04T08:49:52.027Z</time>
      </trkpt>
      <trkpt lat="45.57465" lon="5.38852">
        <ele>489</ele>
        <time>2021-04-04T08:49:53.027Z</time>
      </trkpt>
      <trkpt lat="45.57464" lon="5.38862">
        <ele>489</ele>
        <time>2021-04-04T08:49:54.028Z</time>
      </trkpt>
      <trkpt lat="45.57463" lon="5.3887">
        <ele>489</ele>
        <time>2021-04-04T08:49:55.028Z</time>
      </trkpt>
      <trkpt lat="45.57462" lon="5.38881">
        <ele>489</ele>
        <time>2021-04-04T08:49:56.028Z</time>
      </trkpt>
      <trkpt lat="45.57461" lon="5.38891">
        <ele>489</ele>
        <time>2021-04-04T08:49:57.028Z</time>
      </trkpt>
      <trkpt lat="45.5746" lon="5.38903">
        <ele>488</ele>
        <time>2021-04-04T08:49:58.028Z</time>
      </trkpt>
      <trkpt lat="45.57459" lon="5.38913">
        <ele>488</ele>
        <time>2021-04-04T08:49:59.028Z</time>
      </trkpt>
      <trkpt lat="45.57458" lon="5.38923">
        <ele>488</ele>
        <time>2021-04-04T08:50:00.028Z</time>
      </trkpt>
      <trkpt lat="45.57457" lon="5.38931">
        <ele>488</ele>
        <time>2021-04-04T08:50:01.028Z</time>
      </trkpt>
      <trkpt lat="45.57456" lon="5.38943">
        <ele>488</ele>
        <time>2021-04-04T08:50:02.028Z</time>
      </trkpt>
      <trkpt lat="45.57455" lon="5.38953">
        <ele>488</ele>
        <time>2021-04-04T08:50:03.028Z</time>
      </trkpt>
      <trkpt lat="45.57453" lon="5.38962">
        <ele>488</ele>
        <time>2021-04-04T08:50:04.028Z</time>
      </trkpt>
      <trkpt lat="45.57452" lon="5.38972">
        <ele>488</ele>
        <time>2021-04-04T08:50:05.028Z</time>
      </trkpt>
      <trkpt lat="45.5745" lon="5.38982">
        <ele>488</ele>
        <time>2021-04-04T08:50:06.028Z</time>
      </trkpt>
      <trkpt lat="45.57448" lon="5.38992">
        <ele>488</ele>
        <time>2021-04-04T08:50:07.028Z</time>
      </trkpt>
      <trkpt lat="45.57446" lon="5.39002">
        <ele>488</ele>
        <time>2021-04-04T08:50:08.028Z</time>
      </trkpt>
      <trkpt lat="45.57444" lon="5.39009">
        <ele>488</ele>
        <time>2021-04-04T08:50:09.028Z</time>
      </trkpt>
      <trkpt lat="45.57442" lon="5.39018">
        <ele>488</ele>
        <time>2021-04-04T08:50:10.028Z</time>
      </trkpt>
      <trkpt lat="45.5744" lon="5.39028">
        <ele>488</ele>
        <time>2021-04-04T08:50:11.028Z</time>
      </trkpt>
      <trkpt lat="45.57437" lon="5.39037">
        <ele>488</ele>
        <time>2021-04-04T08:50:12.028Z</time>
      </trkpt>
      <trkpt lat="45.57434" lon="5.39049">
        <ele>488</ele>
        <time>2021-04-04T08:50:13.027Z</time>
      </trkpt>
      <trkpt lat="45.57431" lon="5.39058">
        <ele>488</ele>
        <time>2021-04-04T08:50:14.028Z</time>
      </trkpt>
      <trkpt lat="45.57429" lon="5.39066">
        <ele>488</ele>
        <time>2021-04-04T08:50:15.027Z</time>
      </trkpt>
      <trkpt lat="45.57427" lon="5.39076">
        <ele>488</ele>
        <time>2021-04-04T08:50:16.027Z</time>
      </trkpt>
      <trkpt lat="45.57424" lon="5.39087">
        <ele>488</ele>
        <time>2021-04-04T08:50:17.027Z</time>
      </trkpt>
      <trkpt lat="45.57421" lon="5.39097">
        <ele>488</ele>
        <time>2021-04-04T08:50:18.028Z</time>
      </trkpt>
      <trkpt lat="45.57418" lon="5.39107">
        <ele>488</ele>
        <time>2021-04-04T08:50:19.028Z</time>
      </trkpt>
      <trkpt lat="45.57416" lon="5.39115">
        <ele>488</ele>
        <time>2021-04-04T08:50:20.028Z</time>
      </trkpt>
      <trkpt lat="45.57413" lon="5.39127">
        <ele>487</ele>
        <time>2021-04-04T08:50:21.028Z</time>
      </trkpt>
      <trkpt lat="45.57411" lon="5.39135">
        <ele>487</ele>
        <time>2021-04-04T08:50:22.028Z</time>
      </trkpt>
      <trkpt lat="45.57408" lon="5.39147">
        <ele>487</ele>
        <time>2021-04-04T08:50:23.028Z</time>
      </trkpt>
      <trkpt lat="45.57406" lon="5.39157">
        <ele>486</ele>
        <time>2021-04-04T08:50:24.028Z</time>
      </trkpt>
      <trkpt lat="45.57403" lon="5.39167">
        <ele>486</ele>
        <time>2021-04-04T08:50:25.028Z</time>
      </trkpt>
      <trkpt lat="45.57401" lon="5.39178">
        <ele>485</ele>
        <time>2021-04-04T08:50:26.028Z</time>
      </trkpt>
      <trkpt lat="45.57399" lon="5.39186">
        <ele>485</ele>
        <time>2021-04-04T08:50:27.027Z</time>
      </trkpt>
      <trkpt lat="45.57397" lon="5.39198">
        <ele>484</ele>
        <time>2021-04-04T08:50:28.027Z</time>
      </trkpt>
      <trkpt lat="45.57395" lon="5.39208">
        <ele>484</ele>
        <time>2021-04-04T08:50:29.027Z</time>
      </trkpt>
      <trkpt lat="45.57394" lon="5.39219">
        <ele>484</ele>
        <time>2021-04-04T08:50:30.027Z</time>
      </trkpt>
      <trkpt lat="45.57394" lon="5.39227">
        <ele>484</ele>
        <time>2021-04-04T08:50:31.027Z</time>
      </trkpt>
      <trkpt lat="45.57393" lon="5.39238">
        <ele>485</ele>
        <time>2021-04-04T08:50:32.028Z</time>
      </trkpt>
      <trkpt lat="45.57393" lon="5.39249">
        <ele>485</ele>
        <time>2021-04-04T08:50:33.028Z</time>
      </trkpt>
      <trkpt lat="45.57392" lon="5.39262">
        <ele>485</ele>
        <time>2021-04-04T08:50:34.028Z</time>
      </trkpt>
      <trkpt lat="45.57392" lon="5.39273">
        <ele>485</ele>
        <time>2021-04-04T08:50:35.027Z</time>
      </trkpt>
      <trkpt lat="45.57392" lon="5.39282">
        <ele>485</ele>
        <time>2021-04-04T08:50:36.028Z</time>
      </trkpt>
      <trkpt lat="45.57392" lon="5.39295">
        <ele>485</ele>
        <time>2021-04-04T08:50:37.028Z</time>
      </trkpt>
      <trkpt lat="45.57392" lon="5.39304">
        <ele>485</ele>
        <time>2021-04-04T08:50:38.027Z</time>
      </trkpt>
      <trkpt lat="45.57392" lon="5.39318">
        <ele>485</ele>
        <time>2021-04-04T08:50:39.028Z</time>
      </trkpt>
      <trkpt lat="45.57393" lon="5.3933">
        <ele>485</ele>
        <time>2021-04-04T08:50:40.028Z</time>
      </trkpt>
      <trkpt lat="45.57393" lon="5.39339">
        <ele>485</ele>
        <time>2021-04-04T08:50:41.028Z</time>
      </trkpt>
      <trkpt lat="45.57395" lon="5.39352">
        <ele>485</ele>
        <time>2021-04-04T08:50:42.028Z</time>
      </trkpt>
      <trkpt lat="45.57398" lon="5.39362">
        <ele>485</ele>
        <time>2021-04-04T08:50:43.028Z</time>
      </trkpt>
      <trkpt lat="45.57402" lon="5.39372">
        <ele>485</ele>
        <time>2021-04-04T08:50:44.028Z</time>
      </trkpt>
      <trkpt lat="45.57405" lon="5.39382">
        <ele>485</ele>
        <time>2021-04-04T08:50:45.028Z</time>
      </trkpt>
      <trkpt lat="45.57409" lon="5.39391">
        <ele>486</ele>
        <time>2021-04-04T08:50:46.028Z</time>
      </trkpt>
      <trkpt lat="45.57412" lon="5.39401">
        <ele>486</ele>
        <time>2021-04-04T08:50:47.027Z</time>
      </trkpt>
      <trkpt lat="45.57416" lon="5.3941">
        <ele>487</ele>
        <time>2021-04-04T08:50:48.028Z</time>
      </trkpt>
      <trkpt lat="45.57421" lon="5.39419">
        <ele>487</ele>
        <time>2021-04-04T08:50:49.028Z</time>
      </trkpt>
      <trkpt lat="45.57425" lon="5.39428">
        <ele>487</ele>
        <time>2021-04-04T08:50:50.028Z</time>
      </trkpt>
      <trkpt lat="45.57429" lon="5.39437">
        <ele>487</ele>
        <time>2021-04-04T08:50:51.028Z</time>
      </trkpt>
      <trkpt lat="45.57433" lon="5.39446">
        <ele>488</ele>
        <time>2021-04-04T08:50:52.028Z</time>
      </trkpt>
      <trkpt lat="45.57437" lon="5.39453">
        <ele>488</ele>
        <time>2021-04-04T08:50:53.027Z</time>
      </trkpt>
      <trkpt lat="45.57443" lon="5.39463">
        <ele>488</ele>
        <time>2021-04-04T08:50:54.028Z</time>
      </trkpt>
      <trkpt lat="45.57448" lon="5.39472">
        <ele>488</ele>
        <time>2021-04-04T08:50:55.028Z</time>
      </trkpt>
      <trkpt lat="45.57453" lon="5.3948">
        <ele>487</ele>
        <time>2021-04-04T08:50:56.028Z</time>
      </trkpt>
      <trkpt lat="45.57457" lon="5.39487">
        <ele>487</ele>
        <time>2021-04-04T08:50:57.028Z</time>
      </trkpt>
      <trkpt lat="45.57463" lon="5.39496">
        <ele>487</ele>
        <time>2021-04-04T08:50:58.028Z</time>
      </trkpt>
      <trkpt lat="45.57467" lon="5.39503">
        <ele>488</ele>
        <time>2021-04-04T08:50:59.027Z</time>
      </trkpt>
      <trkpt lat="45.57474" lon="5.39513">
        <ele>488</ele>
        <time>2021-04-04T08:51:00.028Z</time>
      </trkpt>
      <trkpt lat="45.57479" lon="5.39521">
        <ele>487</ele>
        <time>2021-04-04T08:51:01.027Z</time>
      </trkpt>
      <trkpt lat="45.57485" lon="5.3953">
        <ele>487</ele>
        <time>2021-04-04T08:51:02.027Z</time>
      </trkpt>
      <trkpt lat="45.5749" lon="5.39536">
        <ele>487</ele>
        <time>2021-04-04T08:51:03.027Z</time>
      </trkpt>
      <trkpt lat="45.57495" lon="5.39544">
        <ele>486</ele>
        <time>2021-04-04T08:51:04.027Z</time>
      </trkpt>
      <trkpt lat="45.57501" lon="5.39551">
        <ele>486</ele>
        <time>2021-04-04T08:51:05.027Z</time>
      </trkpt>
      <trkpt lat="45.57506" lon="5.39558">
        <ele>486</ele>
        <time>2021-04-04T08:51:06.027Z</time>
      </trkpt>
      <trkpt lat="45.57512" lon="5.39565">
        <ele>487</ele>
        <time>2021-04-04T08:51:07.028Z</time>
      </trkpt>
      <trkpt lat="45.57517" lon="5.39572">
        <ele>487</ele>
        <time>2021-04-04T08:51:08.027Z</time>
      </trkpt>
      <trkpt lat="45.57523" lon="5.39579">
        <ele>487</ele>
        <time>2021-04-04T08:51:09.027Z</time>
      </trkpt>
      <trkpt lat="45.57529" lon="5.39585">
        <ele>487</ele>
        <time>2021-04-04T08:51:10.028Z</time>
      </trkpt>
      <trkpt lat="45.57534" lon="5.39592">
        <ele>487</ele>
        <time>2021-04-04T08:51:11.028Z</time>
      </trkpt>
      <trkpt lat="45.57538" lon="5.39596">
        <ele>487</ele>
        <time>2021-04-04T08:51:12.028Z</time>
      </trkpt>
      <trkpt lat="45.57544" lon="5.39604">
        <ele>487</ele>
        <time>2021-04-04T08:51:13.028Z</time>
      </trkpt>
      <trkpt lat="45.57549" lon="5.3961">
        <ele>487</ele>
        <time>2021-04-04T08:51:14.028Z</time>
      </trkpt>
      <trkpt lat="45.57553" lon="5.39616">
        <ele>487</ele>
        <time>2021-04-04T08:51:15.028Z</time>
      </trkpt>
      <trkpt lat="45.57557" lon="5.39623">
        <ele>487</ele>
        <time>2021-04-04T08:51:16.027Z</time>
      </trkpt>
      <trkpt lat="45.57561" lon="5.3963">
        <ele>488</ele>
        <time>2021-04-04T08:51:17.028Z</time>
      </trkpt>
      <trkpt lat="45.57565" lon="5.39637">
        <ele>488</ele>
        <time>2021-04-04T08:51:18.028Z</time>
      </trkpt>
      <trkpt lat="45.57568" lon="5.39645">
        <ele>488</ele>
        <time>2021-04-04T08:51:19.028Z</time>
      </trkpt>
      <trkpt lat="45.57572" lon="5.39653">
        <ele>489</ele>
        <time>2021-04-04T08:51:20.027Z</time>
      </trkpt>
      <trkpt lat="45.57575" lon="5.3966">
        <ele>489</ele>
        <time>2021-04-04T08:51:21.028Z</time>
      </trkpt>
      <trkpt lat="45.57578" lon="5.39668">
        <ele>489</ele>
        <time>2021-04-04T08:51:22.028Z</time>
      </trkpt>
      <trkpt lat="45.57581" lon="5.39676">
        <ele>489</ele>
        <time>2021-04-04T08:51:23.028Z</time>
      </trkpt>
      <trkpt lat="45.57585" lon="5.39684">
        <ele>490</ele>
        <time>2021-04-04T08:51:24.028Z</time>
      </trkpt>
      <trkpt lat="45.57588" lon="5.39692">
        <ele>490</ele>
        <time>2021-04-04T08:51:25.028Z</time>
      </trkpt>
      <trkpt lat="45.57592" lon="5.397">
        <ele>490</ele>
        <time>2021-04-04T08:51:26.028Z</time>
      </trkpt>
      <trkpt lat="45.57596" lon="5.39709">
        <ele>490</ele>
        <time>2021-04-04T08:51:27.028Z</time>
      </trkpt>
      <trkpt lat="45.57601" lon="5.39717">
        <ele>490</ele>
        <time>2021-04-04T08:51:28.027Z</time>
      </trkpt>
      <trkpt lat="45.57606" lon="5.39725">
        <ele>489</ele>
        <time>2021-04-04T08:51:29.028Z</time>
      </trkpt>
      <trkpt lat="45.5761" lon="5.39734">
        <ele>490</ele>
        <time>2021-04-04T08:51:30.028Z</time>
      </trkpt>
      <trkpt lat="45.57615" lon="5.39743">
        <ele>489</ele>
        <time>2021-04-04T08:51:31.028Z</time>
      </trkpt>
      <trkpt lat="45.5762" lon="5.39752">
        <ele>489</ele>
        <time>2021-04-04T08:51:32.027Z</time>
      </trkpt>
      <trkpt lat="45.57624" lon="5.39762">
        <ele>489</ele>
        <time>2021-04-04T08:51:33.028Z</time>
      </trkpt>
      <trkpt lat="45.57627" lon="5.39772">
        <ele>488</ele>
        <time>2021-04-04T08:51:34.028Z</time>
      </trkpt>
      <trkpt lat="45.57631" lon="5.39783">
        <ele>488</ele>
        <time>2021-04-04T08:51:35.028Z</time>
      </trkpt>
      <trkpt lat="45.57634" lon="5.39793">
        <ele>488</ele>
        <time>2021-04-04T08:51:36.028Z</time>
      </trkpt>
      <trkpt lat="45.57636" lon="5.39804">
        <ele>487</ele>
        <time>2021-04-04T08:51:37.028Z</time>
      </trkpt>
      <trkpt lat="45.57639" lon="5.39815">
        <ele>487</ele>
        <time>2021-04-04T08:51:38.028Z</time>
      </trkpt>
      <trkpt lat="45.57641" lon="5.39826">
        <ele>487</ele>
        <time>2021-04-04T08:51:39.028Z</time>
      </trkpt>
      <trkpt lat="45.57643" lon="5.39837">
        <ele>487</ele>
        <time>2021-04-04T08:51:40.027Z</time>
      </trkpt>
      <trkpt lat="45.57646" lon="5.39848">
        <ele>487</ele>
        <time>2021-04-04T08:51:41.027Z</time>
      </trkpt>
      <trkpt lat="45.57648" lon="5.3986">
        <ele>487</ele>
        <time>2021-04-04T08:51:42.028Z</time>
      </trkpt>
      <trkpt lat="45.5765" lon="5.39872">
        <ele>486</ele>
        <time>2021-04-04T08:51:43.027Z</time>
      </trkpt>
      <trkpt lat="45.57653" lon="5.39883">
        <ele>486</ele>
        <time>2021-04-04T08:51:44.027Z</time>
      </trkpt>
      <trkpt lat="45.57655" lon="5.39895">
        <ele>485</ele>
        <time>2021-04-04T08:51:45.028Z</time>
      </trkpt>
      <trkpt lat="45.57658" lon="5.39907">
        <ele>485</ele>
        <time>2021-04-04T08:51:46.027Z</time>
      </trkpt>
      <trkpt lat="45.57661" lon="5.39919">
        <ele>484</ele>
        <time>2021-04-04T08:51:47.028Z</time>
      </trkpt>
      <trkpt lat="45.57666" lon="5.39933">
        <ele>484</ele>
        <time>2021-04-04T08:51:48.028Z</time>
      </trkpt>
      <trkpt lat="45.5767" lon="5.39941">
        <ele>483</ele>
        <time>2021-04-04T08:51:49.027Z</time>
      </trkpt>
      <trkpt lat="45.57676" lon="5.39954">
        <ele>483</ele>
        <time>2021-04-04T08:51:50.028Z</time>
      </trkpt>
      <trkpt lat="45.57681" lon="5.39964">
        <ele>482</ele>
        <time>2021-04-04T08:51:51.028Z</time>
      </trkpt>
      <trkpt lat="45.57687" lon="5.39975">
        <ele>481</ele>
        <time>2021-04-04T08:51:52.028Z</time>
      </trkpt>
      <trkpt lat="45.57692" lon="5.39983">
        <ele>481</ele>
        <time>2021-04-04T08:51:53.028Z</time>
      </trkpt>
      <trkpt lat="45.577" lon="5.39996">
        <ele>480</ele>
        <time>2021-04-04T08:51:54.028Z</time>
      </trkpt>
      <trkpt lat="45.57707" lon="5.40007">
        <ele>480</ele>
        <time>2021-04-04T08:51:55.027Z</time>
      </trkpt>
      <trkpt lat="45.57714" lon="5.40018">
        <ele>479</ele>
        <time>2021-04-04T08:51:56.027Z</time>
      </trkpt>
      <trkpt lat="45.5772" lon="5.40027">
        <ele>479</ele>
        <time>2021-04-04T08:51:57.028Z</time>
      </trkpt>
      <trkpt lat="45.57728" lon="5.40037">
        <ele>478</ele>
        <time>2021-04-04T08:51:58.027Z</time>
      </trkpt>
      <trkpt lat="45.57737" lon="5.40049">
        <ele>477</ele>
        <time>2021-04-04T08:51:59.028Z</time>
      </trkpt>
      <trkpt lat="45.57743" lon="5.40057">
        <ele>477</ele>
        <time>2021-04-04T08:52:00.028Z</time>
      </trkpt>
      <trkpt lat="45.57751" lon="5.40067">
        <ele>476</ele>
        <time>2021-04-04T08:52:01.028Z</time>
      </trkpt>
      <trkpt lat="45.57757" lon="5.40078">
        <ele>475</ele>
        <time>2021-04-04T08:52:02.028Z</time>
      </trkpt>
      <trkpt lat="45.57762" lon="5.40088">
        <ele>474</ele>
        <time>2021-04-04T08:52:03.028Z</time>
      </trkpt>
      <trkpt lat="45.57765" lon="5.40099">
        <ele>473</ele>
        <time>2021-04-04T08:52:04.028Z</time>
      </trkpt>
      <trkpt lat="45.57767" lon="5.40112">
        <ele>471</ele>
        <time>2021-04-04T08:52:05.028Z</time>
      </trkpt>
      <trkpt lat="45.57767" lon="5.40123">
        <ele>470</ele>
        <time>2021-04-04T08:52:06.027Z</time>
      </trkpt>
      <trkpt lat="45.57767" lon="5.40135">
        <ele>470</ele>
        <time>2021-04-04T08:52:07.028Z</time>
      </trkpt>
      <trkpt lat="45.57766" lon="5.40144">
        <ele>469</ele>
        <time>2021-04-04T08:52:08.027Z</time>
      </trkpt>
      <trkpt lat="45.57765" lon="5.40159">
        <ele>468</ele>
        <time>2021-04-04T08:52:09.028Z</time>
      </trkpt>
      <trkpt lat="45.57764" lon="5.40171">
        <ele>468</ele>
        <time>2021-04-04T08:52:10.028Z</time>
      </trkpt>
      <trkpt lat="45.57762" lon="5.40183">
        <ele>467</ele>
        <time>2021-04-04T08:52:11.028Z</time>
      </trkpt>
      <trkpt lat="45.57761" lon="5.40193">
        <ele>467</ele>
        <time>2021-04-04T08:52:12.028Z</time>
      </trkpt>
      <trkpt lat="45.5776" lon="5.40205">
        <ele>466</ele>
        <time>2021-04-04T08:52:13.027Z</time>
      </trkpt>
      <trkpt lat="45.5776" lon="5.40217">
        <ele>465</ele>
        <time>2021-04-04T08:52:14.028Z</time>
      </trkpt>
      <trkpt lat="45.57759" lon="5.40231">
        <ele>464</ele>
        <time>2021-04-04T08:52:15.028Z</time>
      </trkpt>
      <trkpt lat="45.57758" lon="5.40242">
        <ele>463</ele>
        <time>2021-04-04T08:52:16.027Z</time>
      </trkpt>
      <trkpt lat="45.57757" lon="5.40252">
        <ele>462</ele>
        <time>2021-04-04T08:52:17.027Z</time>
      </trkpt>
      <trkpt lat="45.57756" lon="5.40265">
        <ele>462</ele>
        <time>2021-04-04T08:52:18.027Z</time>
      </trkpt>
      <trkpt lat="45.57755" lon="5.40274">
        <ele>462</ele>
        <time>2021-04-04T08:52:19.028Z</time>
      </trkpt>
      <trkpt lat="45.57754" lon="5.40287">
        <ele>462</ele>
        <time>2021-04-04T08:52:20.028Z</time>
      </trkpt>
      <trkpt lat="45.57754" lon="5.40296">
        <ele>462</ele>
        <time>2021-04-04T08:52:21.028Z</time>
      </trkpt>
      <trkpt lat="45.57753" lon="5.40307">
        <ele>461</ele>
        <time>2021-04-04T08:52:22.028Z</time>
      </trkpt>
      <trkpt lat="45.57752" lon="5.40317">
        <ele>461</ele>
        <time>2021-04-04T08:52:23.028Z</time>
      </trkpt>
      <trkpt lat="45.5775" lon="5.40328">
        <ele>460</ele>
        <time>2021-04-04T08:52:24.028Z</time>
      </trkpt>
      <trkpt lat="45.57749" lon="5.4034">
        <ele>460</ele>
        <time>2021-04-04T08:52:25.028Z</time>
      </trkpt>
      <trkpt lat="45.57748" lon="5.40348">
        <ele>460</ele>
        <time>2021-04-04T08:52:26.028Z</time>
      </trkpt>
      <trkpt lat="45.57747" lon="5.40358">
        <ele>460</ele>
        <time>2021-04-04T08:52:27.028Z</time>
      </trkpt>
      <trkpt lat="45.57745" lon="5.40371">
        <ele>459</ele>
        <time>2021-04-04T08:52:28.027Z</time>
      </trkpt>
      <trkpt lat="45.57745" lon="5.40379">
        <ele>459</ele>
        <time>2021-04-04T08:52:29.028Z</time>
      </trkpt>
      <trkpt lat="45.57744" lon="5.4039">
        <ele>459</ele>
        <time>2021-04-04T08:52:30.028Z</time>
      </trkpt>
      <trkpt lat="45.57743" lon="5.404">
        <ele>459</ele>
        <time>2021-04-04T08:52:31.028Z</time>
      </trkpt>
      <trkpt lat="45.57743" lon="5.40411">
        <ele>459</ele>
        <time>2021-04-04T08:52:32.028Z</time>
      </trkpt>
      <trkpt lat="45.57742" lon="5.40421">
        <ele>459</ele>
        <time>2021-04-04T08:52:33.028Z</time>
      </trkpt>
      <trkpt lat="45.57742" lon="5.40431">
        <ele>459</ele>
        <time>2021-04-04T08:52:34.027Z</time>
      </trkpt>
      <trkpt lat="45.57741" lon="5.40442">
        <ele>460</ele>
        <time>2021-04-04T08:52:35.028Z</time>
      </trkpt>
      <trkpt lat="45.5774" lon="5.40452">
        <ele>460</ele>
        <time>2021-04-04T08:52:36.028Z</time>
      </trkpt>
      <trkpt lat="45.57739" lon="5.40463">
        <ele>460</ele>
        <time>2021-04-04T08:52:37.028Z</time>
      </trkpt>
      <trkpt lat="45.57738" lon="5.40473">
        <ele>460</ele>
        <time>2021-04-04T08:52:38.028Z</time>
      </trkpt>
      <trkpt lat="45.57737" lon="5.40483">
        <ele>460</ele>
        <time>2021-04-04T08:52:39.028Z</time>
      </trkpt>
      <trkpt lat="45.57736" lon="5.40493">
        <ele>460</ele>
        <time>2021-04-04T08:52:40.028Z</time>
      </trkpt>
      <trkpt lat="45.57735" lon="5.40504">
        <ele>461</ele>
        <time>2021-04-04T08:52:41.028Z</time>
      </trkpt>
      <trkpt lat="45.57735" lon="5.40514">
        <ele>461</ele>
        <time>2021-04-04T08:52:42.028Z</time>
      </trkpt>
      <trkpt lat="45.57734" lon="5.40524">
        <ele>461</ele>
        <time>2021-04-04T08:52:43.028Z</time>
      </trkpt>
      <trkpt lat="45.57734" lon="5.40534">
        <ele>461</ele>
        <time>2021-04-04T08:52:44.028Z</time>
      </trkpt>
      <trkpt lat="45.57733" lon="5.40544">
        <ele>461</ele>
        <time>2021-04-04T08:52:45.027Z</time>
      </trkpt>
      <trkpt lat="45.57732" lon="5.40553">
        <ele>461</ele>
        <time>2021-04-04T08:52:46.028Z</time>
      </trkpt>
      <trkpt lat="45.57732" lon="5.40562">
        <ele>461</ele>
        <time>2021-04-04T08:52:47.028Z</time>
      </trkpt>
      <trkpt lat="45.57731" lon="5.40574">
        <ele>461</ele>
        <time>2021-04-04T08:52:48.028Z</time>
      </trkpt>
      <trkpt lat="45.5773" lon="5.40584">
        <ele>461</ele>
        <time>2021-04-04T08:52:49.027Z</time>
      </trkpt>
      <trkpt lat="45.57729" lon="5.40594">
        <ele>461</ele>
        <time>2021-04-04T08:52:50.028Z</time>
      </trkpt>
      <trkpt lat="45.57728" lon="5.40603">
        <ele>461</ele>
        <time>2021-04-04T08:52:51.028Z</time>
      </trkpt>
      <trkpt lat="45.57727" lon="5.40612">
        <ele>462</ele>
        <time>2021-04-04T08:52:52.028Z</time>
      </trkpt>
      <trkpt lat="45.57726" lon="5.40619">
        <ele>462</ele>
        <time>2021-04-04T08:52:53.028Z</time>
      </trkpt>
      <trkpt lat="45.57724" lon="5.40629">
        <ele>463</ele>
        <time>2021-04-04T08:52:54.028Z</time>
      </trkpt>
      <trkpt lat="45.57723" lon="5.40637">
        <ele>463</ele>
        <time>2021-04-04T08:52:55.027Z</time>
      </trkpt>
      <trkpt lat="45.57723" lon="5.40644">
        <ele>463</ele>
        <time>2021-04-04T08:52:56.027Z</time>
      </trkpt>
      <trkpt lat="45.57722" lon="5.4065">
        <ele>463</ele>
        <time>2021-04-04T08:52:57.028Z</time>
      </trkpt>
      <trkpt lat="45.57722" lon="5.40657">
        <ele>463</ele>
        <time>2021-04-04T08:52:58.027Z</time>
      </trkpt>
      <trkpt lat="45.57721" lon="5.40664">
        <ele>463</ele>
        <time>2021-04-04T08:52:59.028Z</time>
      </trkpt>
      <trkpt lat="45.57721" lon="5.40672">
        <ele>463</ele>
        <time>2021-04-04T08:53:00.028Z</time>
      </trkpt>
      <trkpt lat="45.5772" lon="5.4068">
        <ele>463</ele>
        <time>2021-04-04T08:53:01.028Z</time>
      </trkpt>
      <trkpt lat="45.5772" lon="5.4069">
        <ele>463</ele>
        <time>2021-04-04T08:53:02.028Z</time>
      </trkpt>
      <trkpt lat="45.57719" lon="5.407">
        <ele>463</ele>
        <time>2021-04-04T08:53:03.028Z</time>
      </trkpt>
      <trkpt lat="45.57719" lon="5.40711">
        <ele>463</ele>
        <time>2021-04-04T08:53:04.028Z</time>
      </trkpt>
      <trkpt lat="45.57719" lon="5.40723">
        <ele>463</ele>
        <time>2021-04-04T08:53:05.027Z</time>
      </trkpt>
      <trkpt lat="45.57719" lon="5.40737">
        <ele>464</ele>
        <time>2021-04-04T08:53:06.027Z</time>
      </trkpt>
      <trkpt lat="45.57719" lon="5.4075">
        <ele>463</ele>
        <time>2021-04-04T08:53:07.028Z</time>
      </trkpt>
      <trkpt lat="45.57719" lon="5.40765">
        <ele>463</ele>
        <time>2021-04-04T08:53:08.028Z</time>
      </trkpt>
      <trkpt lat="45.57718" lon="5.4078">
        <ele>463</ele>
        <time>2021-04-04T08:53:09.028Z</time>
      </trkpt>
      <trkpt lat="45.57718" lon="5.40794">
        <ele>462</ele>
        <time>2021-04-04T08:53:10.028Z</time>
      </trkpt>
      <trkpt lat="45.57718" lon="5.40809">
        <ele>462</ele>
        <time>2021-04-04T08:53:11.027Z</time>
      </trkpt>
      <trkpt lat="45.57717" lon="5.40821">
        <ele>461</ele>
        <time>2021-04-04T08:53:12.028Z</time>
      </trkpt>
      <trkpt lat="45.57716" lon="5.40838">
        <ele>460</ele>
        <time>2021-04-04T08:53:13.027Z</time>
      </trkpt>
      <trkpt lat="45.57716" lon="5.40851">
        <ele>459</ele>
        <time>2021-04-04T08:53:14.027Z</time>
      </trkpt>
      <trkpt lat="45.57715" lon="5.40864">
        <ele>458</ele>
        <time>2021-04-04T08:53:15.028Z</time>
      </trkpt>
      <trkpt lat="45.57716" lon="5.40876">
        <ele>457</ele>
        <time>2021-04-04T08:53:16.028Z</time>
      </trkpt>
      <trkpt lat="45.57717" lon="5.40887">
        <ele>456</ele>
        <time>2021-04-04T08:53:17.028Z</time>
      </trkpt>
      <trkpt lat="45.57721" lon="5.40896">
        <ele>455</ele>
        <time>2021-04-04T08:53:18.027Z</time>
      </trkpt>
      <trkpt lat="45.57727" lon="5.40901">
        <ele>454</ele>
        <time>2021-04-04T08:53:19.028Z</time>
      </trkpt>
      <trkpt lat="45.57734" lon="5.40905">
        <ele>454</ele>
        <time>2021-04-04T08:53:20.027Z</time>
      </trkpt>
      <trkpt lat="45.57742" lon="5.40907">
        <ele>453</ele>
        <time>2021-04-04T08:53:21.028Z</time>
      </trkpt>
      <trkpt lat="45.57751" lon="5.40909">
        <ele>452</ele>
        <time>2021-04-04T08:53:22.028Z</time>
      </trkpt>
      <trkpt lat="45.57761" lon="5.40909">
        <ele>452</ele>
        <time>2021-04-04T08:53:23.028Z</time>
      </trkpt>
      <trkpt lat="45.57771" lon="5.40909">
        <ele>451</ele>
        <time>2021-04-04T08:53:24.028Z</time>
      </trkpt>
      <trkpt lat="45.5778" lon="5.4091">
        <ele>451</ele>
        <time>2021-04-04T08:53:25.028Z</time>
      </trkpt>
      <trkpt lat="45.5779" lon="5.40911">
        <ele>450</ele>
        <time>2021-04-04T08:53:26.028Z</time>
      </trkpt>
      <trkpt lat="45.57797" lon="5.40911">
        <ele>449</ele>
        <time>2021-04-04T08:53:27.028Z</time>
      </trkpt>
      <trkpt lat="45.57808" lon="5.40912">
        <ele>448</ele>
        <time>2021-04-04T08:53:28.028Z</time>
      </trkpt>
      <trkpt lat="45.57817" lon="5.40913">
        <ele>448</ele>
        <time>2021-04-04T08:53:29.028Z</time>
      </trkpt>
      <trkpt lat="45.57827" lon="5.40914">
        <ele>447</ele>
        <time>2021-04-04T08:53:30.027Z</time>
      </trkpt>
      <trkpt lat="45.57835" lon="5.40916">
        <ele>447</ele>
        <time>2021-04-04T08:53:31.027Z</time>
      </trkpt>
      <trkpt lat="45.57842" lon="5.40918">
        <ele>446</ele>
        <time>2021-04-04T08:53:32.028Z</time>
      </trkpt>
      <trkpt lat="45.57852" lon="5.40922">
        <ele>446</ele>
        <time>2021-04-04T08:53:33.027Z</time>
      </trkpt>
      <trkpt lat="45.5786" lon="5.40926">
        <ele>446</ele>
        <time>2021-04-04T08:53:34.027Z</time>
      </trkpt>
      <trkpt lat="45.57867" lon="5.40931">
        <ele>446</ele>
        <time>2021-04-04T08:53:35.028Z</time>
      </trkpt>
      <trkpt lat="45.57873" lon="5.40935">
        <ele>446</ele>
        <time>2021-04-04T08:53:36.028Z</time>
      </trkpt>
      <trkpt lat="45.5788" lon="5.4094">
        <ele>445</ele>
        <time>2021-04-04T08:53:37.028Z</time>
      </trkpt>
      <trkpt lat="45.57885" lon="5.40944">
        <ele>445</ele>
        <time>2021-04-04T08:53:38.028Z</time>
      </trkpt>
      <trkpt lat="45.5789" lon="5.40947">
        <ele>445</ele>
        <time>2021-04-04T08:53:39.028Z</time>
      </trkpt>
      <trkpt lat="45.57895" lon="5.40951">
        <ele>444</ele>
        <time>2021-04-04T08:53:40.028Z</time>
      </trkpt>
      <trkpt lat="45.579" lon="5.40955">
        <ele>444</ele>
        <time>2021-04-04T08:53:41.027Z</time>
      </trkpt>
      <trkpt lat="45.57906" lon="5.40959">
        <ele>444</ele>
        <time>2021-04-04T08:53:42.028Z</time>
      </trkpt>
      <trkpt lat="45.57911" lon="5.40964">
        <ele>444</ele>
        <time>2021-04-04T08:53:43.027Z</time>
      </trkpt>
      <trkpt lat="45.57916" lon="5.40969">
        <ele>443</ele>
        <time>2021-04-04T08:53:44.028Z</time>
      </trkpt>
      <trkpt lat="45.57923" lon="5.40976">
        <ele>443</ele>
        <time>2021-04-04T08:53:45.028Z</time>
      </trkpt>
      <trkpt lat="45.57928" lon="5.40981">
        <ele>442</ele>
        <time>2021-04-04T08:53:46.028Z</time>
      </trkpt>
      <trkpt lat="45.57934" lon="5.40987">
        <ele>441</ele>
        <time>2021-04-04T08:53:47.028Z</time>
      </trkpt>
      <trkpt lat="45.57941" lon="5.40992">
        <ele>441</ele>
        <time>2021-04-04T08:53:48.028Z</time>
      </trkpt>
      <trkpt lat="45.57948" lon="5.40998">
        <ele>441</ele>
        <time>2021-04-04T08:53:49.028Z</time>
      </trkpt>
      <trkpt lat="45.57955" lon="5.41004">
        <ele>441</ele>
        <time>2021-04-04T08:53:50.028Z</time>
      </trkpt>
      <trkpt lat="45.57962" lon="5.4101">
        <ele>440</ele>
        <time>2021-04-04T08:53:51.028Z</time>
      </trkpt>
      <trkpt lat="45.57969" lon="5.41017">
        <ele>440</ele>
        <time>2021-04-04T08:53:52.028Z</time>
      </trkpt>
      <trkpt lat="45.57975" lon="5.41023">
        <ele>440</ele>
        <time>2021-04-04T08:53:53.027Z</time>
      </trkpt>
      <trkpt lat="45.57981" lon="5.4103">
        <ele>440</ele>
        <time>2021-04-04T08:53:54.028Z</time>
      </trkpt>
      <trkpt lat="45.57987" lon="5.41037">
        <ele>440</ele>
        <time>2021-04-04T08:53:55.028Z</time>
      </trkpt>
      <trkpt lat="45.57993" lon="5.41044">
        <ele>440</ele>
        <time>2021-04-04T08:53:56.028Z</time>
      </trkpt>
      <trkpt lat="45.57998" lon="5.41052">
        <ele>440</ele>
        <time>2021-04-04T08:53:57.028Z</time>
      </trkpt>
      <trkpt lat="45.58002" lon="5.41059">
        <ele>440</ele>
        <time>2021-04-04T08:53:58.027Z</time>
      </trkpt>
      <trkpt lat="45.58007" lon="5.41068">
        <ele>440</ele>
        <time>2021-04-04T08:53:59.028Z</time>
      </trkpt>
      <trkpt lat="45.58011" lon="5.41076">
        <ele>440</ele>
        <time>2021-04-04T08:54:00.027Z</time>
      </trkpt>
      <trkpt lat="45.58015" lon="5.41085">
        <ele>439</ele>
        <time>2021-04-04T08:54:01.027Z</time>
      </trkpt>
      <trkpt lat="45.58019" lon="5.41093">
        <ele>439</ele>
        <time>2021-04-04T08:54:02.028Z</time>
      </trkpt>
      <trkpt lat="45.58022" lon="5.41102">
        <ele>438</ele>
        <time>2021-04-04T08:54:03.028Z</time>
      </trkpt>
      <trkpt lat="45.58026" lon="5.4111">
        <ele>438</ele>
        <time>2021-04-04T08:54:04.028Z</time>
      </trkpt>
      <trkpt lat="45.5803" lon="5.41119">
        <ele>438</ele>
        <time>2021-04-04T08:54:05.027Z</time>
      </trkpt>
      <trkpt lat="45.58033" lon="5.41127">
        <ele>438</ele>
        <time>2021-04-04T08:54:06.027Z</time>
      </trkpt>
      <trkpt lat="45.58036" lon="5.41134">
        <ele>438</ele>
        <time>2021-04-04T08:54:07.028Z</time>
      </trkpt>
      <trkpt lat="45.58039" lon="5.41141">
        <ele>438</ele>
        <time>2021-04-04T08:54:08.028Z</time>
      </trkpt>
      <trkpt lat="45.58042" lon="5.41148">
        <ele>438</ele>
        <time>2021-04-04T08:54:09.027Z</time>
      </trkpt>
      <trkpt lat="45.58045" lon="5.41156">
        <ele>439</ele>
        <time>2021-04-04T08:54:10.028Z</time>
      </trkpt>
      <trkpt lat="45.58047" lon="5.41161">
        <ele>439</ele>
        <time>2021-04-04T08:54:11.027Z</time>
      </trkpt>
      <trkpt lat="45.58049" lon="5.41166">
        <ele>440</ele>
        <time>2021-04-04T08:54:12.027Z</time>
      </trkpt>
      <trkpt lat="45.58052" lon="5.41171">
        <ele>440</ele>
        <time>2021-04-04T08:54:13.027Z</time>
      </trkpt>
      <trkpt lat="45.58054" lon="5.41175">
        <ele>440</ele>
        <time>2021-04-04T08:54:14.027Z</time>
      </trkpt>
      <trkpt lat="45.58058" lon="5.41178">
        <ele>440</ele>
        <time>2021-04-04T08:54:15.028Z</time>
      </trkpt>
      <trkpt lat="45.58063" lon="5.41179">
        <ele>441</ele>
        <time>2021-04-04T08:54:16.027Z</time>
      </trkpt>
      <trkpt lat="45.58068" lon="5.4118">
        <ele>441</ele>
        <time>2021-04-04T08:54:17.028Z</time>
      </trkpt>
      <trkpt lat="45.58073" lon="5.41181">
        <ele>441</ele>
        <time>2021-04-04T08:54:18.028Z</time>
      </trkpt>
      <trkpt lat="45.58078" lon="5.41181">
        <ele>442</ele>
        <time>2021-04-04T08:54:19.028Z</time>
      </trkpt>
      <trkpt lat="45.58083" lon="5.41181">
        <ele>443</ele>
        <time>2021-04-04T08:54:20.027Z</time>
      </trkpt>
      <trkpt lat="45.58088" lon="5.41182">
        <ele>443</ele>
        <time>2021-04-04T08:54:21.028Z</time>
      </trkpt>
      <trkpt lat="45.58094" lon="5.41182">
        <ele>444</ele>
        <time>2021-04-04T08:54:22.028Z</time>
      </trkpt>
      <trkpt lat="45.581" lon="5.41182">
        <ele>444</ele>
        <time>2021-04-04T08:54:23.028Z</time>
      </trkpt>
      <trkpt lat="45.58105" lon="5.41182">
        <ele>445</ele>
        <time>2021-04-04T08:54:24.027Z</time>
      </trkpt>
      <trkpt lat="45.5811" lon="5.41183">
        <ele>445</ele>
        <time>2021-04-04T08:54:25.028Z</time>
      </trkpt>
      <trkpt lat="45.58116" lon="5.41183">
        <ele>445</ele>
        <time>2021-04-04T08:54:26.028Z</time>
      </trkpt>
      <trkpt lat="45.58122" lon="5.41183">
        <ele>445</ele>
        <time>2021-04-04T08:54:27.028Z</time>
      </trkpt>
      <trkpt lat="45.58127" lon="5.41184">
        <ele>445</ele>
        <time>2021-04-04T08:54:28.028Z</time>
      </trkpt>
      <trkpt lat="45.58133" lon="5.41184">
        <ele>445</ele>
        <time>2021-04-04T08:54:29.028Z</time>
      </trkpt>
      <trkpt lat="45.58138" lon="5.41184">
        <ele>446</ele>
        <time>2021-04-04T08:54:30.027Z</time>
      </trkpt>
      <trkpt lat="45.58143" lon="5.41185">
        <ele>446</ele>
        <time>2021-04-04T08:54:31.028Z</time>
      </trkpt>
      <trkpt lat="45.5815" lon="5.41186">
        <ele>446</ele>
        <time>2021-04-04T08:54:32.028Z</time>
      </trkpt>
      <trkpt lat="45.58156" lon="5.41186">
        <ele>446</ele>
        <time>2021-04-04T08:54:33.027Z</time>
      </trkpt>
      <trkpt lat="45.58161" lon="5.41187">
        <ele>446</ele>
        <time>2021-04-04T08:54:34.027Z</time>
      </trkpt>
      <trkpt lat="45.58166" lon="5.41188">
        <ele>446</ele>
        <time>2021-04-04T08:54:35.028Z</time>
      </trkpt>
      <trkpt lat="45.58173" lon="5.41189">
        <ele>446</ele>
        <time>2021-04-04T08:54:36.027Z</time>
      </trkpt>
      <trkpt lat="45.58178" lon="5.41189">
        <ele>447</ele>
        <time>2021-04-04T08:54:37.028Z</time>
      </trkpt>
      <trkpt lat="45.58184" lon="5.4119">
        <ele>448</ele>
        <time>2021-04-04T08:54:38.028Z</time>
      </trkpt>
      <trkpt lat="45.5819" lon="5.4119">
        <ele>449</ele>
        <time>2021-04-04T08:54:39.028Z</time>
      </trkpt>
      <trkpt lat="45.58194" lon="5.4119">
        <ele>449</ele>
        <time>2021-04-04T08:54:40.027Z</time>
      </trkpt>
      <trkpt lat="45.582" lon="5.41191">
        <ele>449</ele>
        <time>2021-04-04T08:54:41.028Z</time>
      </trkpt>
      <trkpt lat="45.58205" lon="5.41192">
        <ele>450</ele>
        <time>2021-04-04T08:54:42.028Z</time>
      </trkpt>
      <trkpt lat="45.58212" lon="5.41193">
        <ele>450</ele>
        <time>2021-04-04T08:54:43.028Z</time>
      </trkpt>
      <trkpt lat="45.58218" lon="5.41194">
        <ele>450</ele>
        <time>2021-04-04T08:54:44.028Z</time>
      </trkpt>
      <trkpt lat="45.58222" lon="5.41195">
        <ele>450</ele>
        <time>2021-04-04T08:54:45.028Z</time>
      </trkpt>
      <trkpt lat="45.58227" lon="5.41196">
        <ele>450</ele>
        <time>2021-04-04T08:54:46.028Z</time>
      </trkpt>
      <trkpt lat="45.58232" lon="5.41197">
        <ele>450</ele>
        <time>2021-04-04T08:54:47.028Z</time>
      </trkpt>
      <trkpt lat="45.58238" lon="5.41199">
        <ele>450</ele>
        <time>2021-04-04T08:54:48.028Z</time>
      </trkpt>
      <trkpt lat="45.58242" lon="5.412">
        <ele>450</ele>
        <time>2021-04-04T08:54:49.027Z</time>
      </trkpt>
      <trkpt lat="45.58245" lon="5.41201">
        <ele>450</ele>
        <time>2021-04-04T08:54:50.028Z</time>
      </trkpt>
      <trkpt lat="45.58248" lon="5.41203">
        <ele>450</ele>
        <time>2021-04-04T08:54:51.028Z</time>
      </trkpt>
      <trkpt lat="45.58249" lon="5.41203">
        <ele>450</ele>
        <time>2021-04-04T08:54:52.027Z</time>
      </trkpt>
      <trkpt lat="45.58251" lon="5.41205">
        <ele>450</ele>
        <time>2021-04-04T08:54:53.028Z</time>
      </trkpt>
      <trkpt lat="45.58253" lon="5.41206">
        <ele>450</ele>
        <time>2021-04-04T08:54:54.028Z</time>
      </trkpt>
      <trkpt lat="45.58255" lon="5.41206">
        <ele>450</ele>
        <time>2021-04-04T08:54:55.028Z</time>
      </trkpt>
      <trkpt lat="45.58257" lon="5.41206">
        <ele>451</ele>
        <time>2021-04-04T08:54:56.028Z</time>
      </trkpt>
      <trkpt lat="45.58259" lon="5.41204">
        <ele>451</ele>
        <time>2021-04-04T08:54:57.027Z</time>
      </trkpt>
      <trkpt lat="45.58262" lon="5.41201">
        <ele>450</ele>
        <time>2021-04-04T08:54:58.028Z</time>
      </trkpt>
      <trkpt lat="45.58265" lon="5.41195">
        <ele>451</ele>
        <time>2021-04-04T08:54:59.027Z</time>
      </trkpt>
      <trkpt lat="45.58267" lon="5.4119">
        <ele>451</ele>
        <time>2021-04-04T08:55:00.028Z</time>
      </trkpt>
      <trkpt lat="45.58269" lon="5.41184">
        <ele>451</ele>
        <time>2021-04-04T08:55:01.028Z</time>
      </trkpt>
      <trkpt lat="45.58272" lon="5.41177">
        <ele>451</ele>
        <time>2021-04-04T08:55:02.028Z</time>
      </trkpt>
      <trkpt lat="45.58276" lon="5.41169">
        <ele>451</ele>
        <time>2021-04-04T08:55:03.028Z</time>
      </trkpt>
      <trkpt lat="45.5828" lon="5.41163">
        <ele>451</ele>
        <time>2021-04-04T08:55:04.027Z</time>
      </trkpt>
      <trkpt lat="45.58284" lon="5.41153">
        <ele>451</ele>
        <time>2021-04-04T08:55:05.028Z</time>
      </trkpt>
      <trkpt lat="45.58286" lon="5.41147">
        <ele>452</ele>
        <time>2021-04-04T08:55:06.027Z</time>
      </trkpt>
      <trkpt lat="45.58289" lon="5.4114">
        <ele>452</ele>
        <time>2021-04-04T08:55:07.028Z</time>
      </trkpt>
      <trkpt lat="45.58293" lon="5.41134">
        <ele>452</ele>
        <time>2021-04-04T08:55:08.028Z</time>
      </trkpt>
      <trkpt lat="45.58297" lon="5.41129">
        <ele>452</ele>
        <time>2021-04-04T08:55:09.028Z</time>
      </trkpt>
      <trkpt lat="45.58302" lon="5.41124">
        <ele>453</ele>
        <time>2021-04-04T08:55:10.028Z</time>
      </trkpt>
      <trkpt lat="45.58306" lon="5.41119">
        <ele>453</ele>
        <time>2021-04-04T08:55:11.028Z</time>
      </trkpt>
      <trkpt lat="45.58311" lon="5.41115">
        <ele>453</ele>
        <time>2021-04-04T08:55:12.028Z</time>
      </trkpt>
      <trkpt lat="45.58316" lon="5.4111">
        <ele>453</ele>
        <time>2021-04-04T08:55:13.028Z</time>
      </trkpt>
      <trkpt lat="45.58322" lon="5.41104">
        <ele>453</ele>
        <time>2021-04-04T08:55:14.028Z</time>
      </trkpt>
      <trkpt lat="45.58326" lon="5.411">
        <ele>453</ele>
        <time>2021-04-04T08:55:15.028Z</time>
      </trkpt>
      <trkpt lat="45.5833" lon="5.41096">
        <ele>453</ele>
        <time>2021-04-04T08:55:16.027Z</time>
      </trkpt>
      <trkpt lat="45.58334" lon="5.41091">
        <ele>454</ele>
        <time>2021-04-04T08:55:17.028Z</time>
      </trkpt>
      <trkpt lat="45.58339" lon="5.41087">
        <ele>454</ele>
        <time>2021-04-04T08:55:18.028Z</time>
      </trkpt>
      <trkpt lat="45.58344" lon="5.41081">
        <ele>454</ele>
        <time>2021-04-04T08:55:19.028Z</time>
      </trkpt>
      <trkpt lat="45.58349" lon="5.41076">
        <ele>454</ele>
        <time>2021-04-04T08:55:20.027Z</time>
      </trkpt>
      <trkpt lat="45.58353" lon="5.41071">
        <ele>453</ele>
        <time>2021-04-04T08:55:21.028Z</time>
      </trkpt>
      <trkpt lat="45.58357" lon="5.41067">
        <ele>453</ele>
        <time>2021-04-04T08:55:22.027Z</time>
      </trkpt>
      <trkpt lat="45.58361" lon="5.41061">
        <ele>453</ele>
        <time>2021-04-04T08:55:23.027Z</time>
      </trkpt>
      <trkpt lat="45.58365" lon="5.41055">
        <ele>453</ele>
        <time>2021-04-04T08:55:24.027Z</time>
      </trkpt>
      <trkpt lat="45.58369" lon="5.41049">
        <ele>453</ele>
        <time>2021-04-04T08:55:25.028Z</time>
      </trkpt>
      <trkpt lat="45.58372" lon="5.41045">
        <ele>453</ele>
        <time>2021-04-04T08:55:26.027Z</time>
      </trkpt>
      <trkpt lat="45.58376" lon="5.41039">
        <ele>453</ele>
        <time>2021-04-04T08:55:27.028Z</time>
      </trkpt>
      <trkpt lat="45.5838" lon="5.41032">
        <ele>453</ele>
        <time>2021-04-04T08:55:28.028Z</time>
      </trkpt>
      <trkpt lat="45.58383" lon="5.41027">
        <ele>453</ele>
        <time>2021-04-04T08:55:29.027Z</time>
      </trkpt>
      <trkpt lat="45.58386" lon="5.41021">
        <ele>453</ele>
        <time>2021-04-04T08:55:30.028Z</time>
      </trkpt>
      <trkpt lat="45.58389" lon="5.41015">
        <ele>453</ele>
        <time>2021-04-04T08:55:31.028Z</time>
      </trkpt>
      <trkpt lat="45.58392" lon="5.41009">
        <ele>453</ele>
        <time>2021-04-04T08:55:32.028Z</time>
      </trkpt>
      <trkpt lat="45.58394" lon="5.41004">
        <ele>453</ele>
        <time>2021-04-04T08:55:33.027Z</time>
      </trkpt>
      <trkpt lat="45.58398" lon="5.40997">
        <ele>454</ele>
        <time>2021-04-04T08:55:34.027Z</time>
      </trkpt>
      <trkpt lat="45.584" lon="5.40991">
        <ele>454</ele>
        <time>2021-04-04T08:55:35.028Z</time>
      </trkpt>
      <trkpt lat="45.58403" lon="5.40985">
        <ele>454</ele>
        <time>2021-04-04T08:55:36.028Z</time>
      </trkpt>
      <trkpt lat="45.58406" lon="5.4098">
        <ele>455</ele>
        <time>2021-04-04T08:55:37.027Z</time>
      </trkpt>
      <trkpt lat="45.58409" lon="5.40974">
        <ele>455</ele>
        <time>2021-04-04T08:55:38.028Z</time>
      </trkpt>
      <trkpt lat="45.58411" lon="5.40968">
        <ele>455</ele>
        <time>2021-04-04T08:55:39.028Z</time>
      </trkpt>
      <trkpt lat="45.58414" lon="5.40962">
        <ele>455</ele>
        <time>2021-04-04T08:55:40.027Z</time>
      </trkpt>
      <trkpt lat="45.58416" lon="5.40956">
        <ele>455</ele>
        <time>2021-04-04T08:55:41.028Z</time>
      </trkpt>
      <trkpt lat="45.58419" lon="5.40951">
        <ele>455</ele>
        <time>2021-04-04T08:55:42.028Z</time>
      </trkpt>
      <trkpt lat="45.58421" lon="5.40946">
        <ele>455</ele>
        <time>2021-04-04T08:55:43.028Z</time>
      </trkpt>
      <trkpt lat="45.58424" lon="5.4094">
        <ele>455</ele>
        <time>2021-04-04T08:55:44.027Z</time>
      </trkpt>
      <trkpt lat="45.58426" lon="5.40934">
        <ele>456</ele>
        <time>2021-04-04T08:55:45.027Z</time>
      </trkpt>
      <trkpt lat="45.58429" lon="5.40929">
        <ele>457</ele>
        <time>2021-04-04T08:55:46.027Z</time>
      </trkpt>
      <trkpt lat="45.58431" lon="5.40923">
        <ele>457</ele>
        <time>2021-04-04T08:55:47.028Z</time>
      </trkpt>
      <trkpt lat="45.58433" lon="5.40919">
        <ele>457</ele>
        <time>2021-04-04T08:55:48.027Z</time>
      </trkpt>
      <trkpt lat="45.58436" lon="5.40913">
        <ele>457</ele>
        <time>2021-04-04T08:55:49.027Z</time>
      </trkpt>
      <trkpt lat="45.58439" lon="5.40907">
        <ele>458</ele>
        <time>2021-04-04T08:55:50.028Z</time>
      </trkpt>
      <trkpt lat="45.58441" lon="5.40902">
        <ele>458</ele>
        <time>2021-04-04T08:55:51.028Z</time>
      </trkpt>
      <trkpt lat="45.58444" lon="5.40897">
        <ele>459</ele>
        <time>2021-04-04T08:55:52.027Z</time>
      </trkpt>
      <trkpt lat="45.58446" lon="5.40891">
        <ele>459</ele>
        <time>2021-04-04T08:55:53.028Z</time>
      </trkpt>
      <trkpt lat="45.58448" lon="5.40886">
        <ele>459</ele>
        <time>2021-04-04T08:55:54.028Z</time>
      </trkpt>
      <trkpt lat="45.58451" lon="5.40881">
        <ele>460</ele>
        <time>2021-04-04T08:55:55.028Z</time>
      </trkpt>
      <trkpt lat="45.58453" lon="5.40875">
        <ele>460</ele>
        <time>2021-04-04T08:55:56.028Z</time>
      </trkpt>
      <trkpt lat="45.58456" lon="5.4087">
        <ele>461</ele>
        <time>2021-04-04T08:55:57.028Z</time>
      </trkpt>
      <trkpt lat="45.58458" lon="5.40866">
        <ele>461</ele>
        <time>2021-04-04T08:55:58.028Z</time>
      </trkpt>
      <trkpt lat="45.58461" lon="5.40861">
        <ele>461</ele>
        <time>2021-04-04T08:55:59.028Z</time>
      </trkpt>
      <trkpt lat="45.58463" lon="5.40854">
        <ele>462</ele>
        <time>2021-04-04T08:56:00.028Z</time>
      </trkpt>
      <trkpt lat="45.58466" lon="5.40848">
        <ele>462</ele>
        <time>2021-04-04T08:56:01.028Z</time>
      </trkpt>
      <trkpt lat="45.58468" lon="5.40843">
        <ele>462</ele>
        <time>2021-04-04T08:56:02.028Z</time>
      </trkpt>
      <trkpt lat="45.58471" lon="5.40837">
        <ele>462</ele>
        <time>2021-04-04T08:56:03.028Z</time>
      </trkpt>
      <trkpt lat="45.58473" lon="5.40832">
        <ele>462</ele>
        <time>2021-04-04T08:56:04.027Z</time>
      </trkpt>
      <trkpt lat="45.58475" lon="5.40827">
        <ele>462</ele>
        <time>2021-04-04T08:56:05.027Z</time>
      </trkpt>
      <trkpt lat="45.58478" lon="5.40821">
        <ele>462</ele>
        <time>2021-04-04T08:56:06.028Z</time>
      </trkpt>
      <trkpt lat="45.5848" lon="5.40816">
        <ele>462</ele>
        <time>2021-04-04T08:56:07.028Z</time>
      </trkpt>
      <trkpt lat="45.58483" lon="5.40811">
        <ele>462</ele>
        <time>2021-04-04T08:56:08.027Z</time>
      </trkpt>
      <trkpt lat="45.58485" lon="5.40805">
        <ele>462</ele>
        <time>2021-04-04T08:56:09.027Z</time>
      </trkpt>
      <trkpt lat="45.58487" lon="5.408">
        <ele>462</ele>
        <time>2021-04-04T08:56:10.028Z</time>
      </trkpt>
      <trkpt lat="45.5849" lon="5.40795">
        <ele>462</ele>
        <time>2021-04-04T08:56:11.027Z</time>
      </trkpt>
      <trkpt lat="45.58492" lon="5.4079">
        <ele>463</ele>
        <time>2021-04-04T08:56:12.028Z</time>
      </trkpt>
      <trkpt lat="45.58495" lon="5.40785">
        <ele>463</ele>
        <time>2021-04-04T08:56:13.027Z</time>
      </trkpt>
      <trkpt lat="45.58497" lon="5.4078">
        <ele>463</ele>
        <time>2021-04-04T08:56:14.028Z</time>
      </trkpt>
      <trkpt lat="45.585" lon="5.40775">
        <ele>464</ele>
        <time>2021-04-04T08:56:15.028Z</time>
      </trkpt>
      <trkpt lat="45.58502" lon="5.4077">
        <ele>464</ele>
        <time>2021-04-04T08:56:16.028Z</time>
      </trkpt>
      <trkpt lat="45.58504" lon="5.40765">
        <ele>464</ele>
        <time>2021-04-04T08:56:17.028Z</time>
      </trkpt>
      <trkpt lat="45.58507" lon="5.40759">
        <ele>464</ele>
        <time>2021-04-04T08:56:18.028Z</time>
      </trkpt>
      <trkpt lat="45.58509" lon="5.40754">
        <ele>465</ele>
        <time>2021-04-04T08:56:19.028Z</time>
      </trkpt>
      <trkpt lat="45.58512" lon="5.40749">
        <ele>465</ele>
        <time>2021-04-04T08:56:20.028Z</time>
      </trkpt>
      <trkpt lat="45.58514" lon="5.40743">
        <ele>465</ele>
        <time>2021-04-04T08:56:21.027Z</time>
      </trkpt>
      <trkpt lat="45.58517" lon="5.40738">
        <ele>466</ele>
        <time>2021-04-04T08:56:22.027Z</time>
      </trkpt>
      <trkpt lat="45.58519" lon="5.40732">
        <ele>466</ele>
        <time>2021-04-04T08:56:23.028Z</time>
      </trkpt>
      <trkpt lat="45.58522" lon="5.40727">
        <ele>466</ele>
        <time>2021-04-04T08:56:24.027Z</time>
      </trkpt>
      <trkpt lat="45.58524" lon="5.40723">
        <ele>466</ele>
        <time>2021-04-04T08:56:25.028Z</time>
      </trkpt>
      <trkpt lat="45.58527" lon="5.40716">
        <ele>467</ele>
        <time>2021-04-04T08:56:26.027Z</time>
      </trkpt>
      <trkpt lat="45.5853" lon="5.40711">
        <ele>467</ele>
        <time>2021-04-04T08:56:27.028Z</time>
      </trkpt>
      <trkpt lat="45.58532" lon="5.40707">
        <ele>467</ele>
        <time>2021-04-04T08:56:28.028Z</time>
      </trkpt>
      <trkpt lat="45.58535" lon="5.407">
        <ele>467</ele>
        <time>2021-04-04T08:56:29.028Z</time>
      </trkpt>
      <trkpt lat="45.58537" lon="5.40695">
        <ele>467</ele>
        <time>2021-04-04T08:56:30.028Z</time>
      </trkpt>
      <trkpt lat="45.58539" lon="5.40688">
        <ele>467</ele>
        <time>2021-04-04T08:56:31.028Z</time>
      </trkpt>
      <trkpt lat="45.58542" lon="5.40683">
        <ele>468</ele>
        <time>2021-04-04T08:56:32.028Z</time>
      </trkpt>
      <trkpt lat="45.58543" lon="5.40678">
        <ele>468</ele>
        <time>2021-04-04T08:56:33.028Z</time>
      </trkpt>
      <trkpt lat="45.58546" lon="5.40672">
        <ele>468</ele>
        <time>2021-04-04T08:56:34.028Z</time>
      </trkpt>
      <trkpt lat="45.58548" lon="5.40667">
        <ele>469</ele>
        <time>2021-04-04T08:56:35.028Z</time>
      </trkpt>
      <trkpt lat="45.5855" lon="5.4066">
        <ele>469</ele>
        <time>2021-04-04T08:56:36.028Z</time>
      </trkpt>
      <trkpt lat="45.58552" lon="5.40654">
        <ele>469</ele>
        <time>2021-04-04T08:56:37.027Z</time>
      </trkpt>
      <trkpt lat="45.58554" lon="5.40649">
        <ele>469</ele>
        <time>2021-04-04T08:56:38.027Z</time>
      </trkpt>
      <trkpt lat="45.58555" lon="5.40643">
        <ele>469</ele>
        <time>2021-04-04T08:56:39.028Z</time>
      </trkpt>
      <trkpt lat="45.58557" lon="5.40636">
        <ele>469</ele>
        <time>2021-04-04T08:56:40.028Z</time>
      </trkpt>
      <trkpt lat="45.58559" lon="5.40629">
        <ele>469</ele>
        <time>2021-04-04T08:56:41.028Z</time>
      </trkpt>
      <trkpt lat="45.5856" lon="5.40622">
        <ele>469</ele>
        <time>2021-04-04T08:56:42.028Z</time>
      </trkpt>
      <trkpt lat="45.58562" lon="5.40615">
        <ele>469</ele>
        <time>2021-04-04T08:56:43.028Z</time>
      </trkpt>
      <trkpt lat="45.58563" lon="5.4061">
        <ele>469</ele>
        <time>2021-04-04T08:56:44.028Z</time>
      </trkpt>
      <trkpt lat="45.58564" lon="5.40603">
        <ele>469</ele>
        <time>2021-04-04T08:56:45.027Z</time>
      </trkpt>
      <trkpt lat="45.58566" lon="5.40595">
        <ele>470</ele>
        <time>2021-04-04T08:56:46.028Z</time>
      </trkpt>
      <trkpt lat="45.58567" lon="5.40588">
        <ele>470</ele>
        <time>2021-04-04T08:56:47.027Z</time>
      </trkpt>
      <trkpt lat="45.58568" lon="5.4058">
        <ele>470</ele>
        <time>2021-04-04T08:56:48.028Z</time>
      </trkpt>
      <trkpt lat="45.58569" lon="5.40575">
        <ele>471</ele>
        <time>2021-04-04T08:56:49.027Z</time>
      </trkpt>
      <trkpt lat="45.5857" lon="5.40568">
        <ele>471</ele>
        <time>2021-04-04T08:56:50.028Z</time>
      </trkpt>
      <trkpt lat="45.58572" lon="5.40561">
        <ele>471</ele>
        <time>2021-04-04T08:56:51.028Z</time>
      </trkpt>
      <trkpt lat="45.58573" lon="5.40552">
        <ele>471</ele>
        <time>2021-04-04T08:56:52.027Z</time>
      </trkpt>
      <trkpt lat="45.58574" lon="5.40545">
        <ele>472</ele>
        <time>2021-04-04T08:56:53.028Z</time>
      </trkpt>
      <trkpt lat="45.58575" lon="5.40539">
        <ele>472</ele>
        <time>2021-04-04T08:56:54.028Z</time>
      </trkpt>
      <trkpt lat="45.58576" lon="5.40532">
        <ele>472</ele>
        <time>2021-04-04T08:56:55.028Z</time>
      </trkpt>
      <trkpt lat="45.58577" lon="5.40525">
        <ele>473</ele>
        <time>2021-04-04T08:56:56.028Z</time>
      </trkpt>
      <trkpt lat="45.58578" lon="5.40516">
        <ele>473</ele>
        <time>2021-04-04T08:56:57.028Z</time>
      </trkpt>
      <trkpt lat="45.58579" lon="5.40508">
        <ele>473</ele>
        <time>2021-04-04T08:56:58.028Z</time>
      </trkpt>
      <trkpt lat="45.5858" lon="5.40501">
        <ele>473</ele>
        <time>2021-04-04T08:56:59.027Z</time>
      </trkpt>
      <trkpt lat="45.58581" lon="5.40495">
        <ele>474</ele>
        <time>2021-04-04T08:57:00.028Z</time>
      </trkpt>
      <trkpt lat="45.58582" lon="5.40487">
        <ele>475</ele>
        <time>2021-04-04T08:57:01.028Z</time>
      </trkpt>
      <trkpt lat="45.58583" lon="5.40478">
        <ele>475</ele>
        <time>2021-04-04T08:57:02.028Z</time>
      </trkpt>
      <trkpt lat="45.58584" lon="5.4047">
        <ele>475</ele>
        <time>2021-04-04T08:57:03.027Z</time>
      </trkpt>
      <trkpt lat="45.58585" lon="5.40462">
        <ele>475</ele>
        <time>2021-04-04T08:57:04.028Z</time>
      </trkpt>
      <trkpt lat="45.58586" lon="5.40456">
        <ele>475</ele>
        <time>2021-04-04T08:57:05.028Z</time>
      </trkpt>
      <trkpt lat="45.58587" lon="5.40448">
        <ele>475</ele>
        <time>2021-04-04T08:57:06.028Z</time>
      </trkpt>
      <trkpt lat="45.58588" lon="5.40441">
        <ele>475</ele>
        <time>2021-04-04T08:57:07.028Z</time>
      </trkpt>
      <trkpt lat="45.5859" lon="5.40431">
        <ele>475</ele>
        <time>2021-04-04T08:57:08.027Z</time>
      </trkpt>
      <trkpt lat="45.58591" lon="5.40423">
        <ele>475</ele>
        <time>2021-04-04T08:57:09.028Z</time>
      </trkpt>
      <trkpt lat="45.58592" lon="5.40416">
        <ele>475</ele>
        <time>2021-04-04T08:57:10.028Z</time>
      </trkpt>
      <trkpt lat="45.58593" lon="5.40409">
        <ele>475</ele>
        <time>2021-04-04T08:57:11.028Z</time>
      </trkpt>
      <trkpt lat="45.58594" lon="5.40401">
        <ele>475</ele>
        <time>2021-04-04T08:57:12.028Z</time>
      </trkpt>
      <trkpt lat="45.58595" lon="5.40392">
        <ele>475</ele>
        <time>2021-04-04T08:57:13.028Z</time>
      </trkpt>
      <trkpt lat="45.58596" lon="5.40384">
        <ele>475</ele>
        <time>2021-04-04T08:57:14.028Z</time>
      </trkpt>
      <trkpt lat="45.58597" lon="5.40377">
        <ele>475</ele>
        <time>2021-04-04T08:57:15.028Z</time>
      </trkpt>
      <trkpt lat="45.58598" lon="5.40369">
        <ele>475</ele>
        <time>2021-04-04T08:57:16.028Z</time>
      </trkpt>
      <trkpt lat="45.586" lon="5.40361">
        <ele>474</ele>
        <time>2021-04-04T08:57:17.027Z</time>
      </trkpt>
      <trkpt lat="45.58601" lon="5.40351">
        <ele>474</ele>
        <time>2021-04-04T08:57:18.028Z</time>
      </trkpt>
      <trkpt lat="45.58602" lon="5.40343">
        <ele>474</ele>
        <time>2021-04-04T08:57:19.028Z</time>
      </trkpt>
      <trkpt lat="45.58603" lon="5.40336">
        <ele>474</ele>
        <time>2021-04-04T08:57:20.027Z</time>
      </trkpt>
      <trkpt lat="45.58605" lon="5.40328">
        <ele>475</ele>
        <time>2021-04-04T08:57:21.027Z</time>
      </trkpt>
      <trkpt lat="45.58606" lon="5.40319">
        <ele>475</ele>
        <time>2021-04-04T08:57:22.028Z</time>
      </trkpt>
      <trkpt lat="45.58607" lon="5.40309">
        <ele>475</ele>
        <time>2021-04-04T08:57:23.028Z</time>
      </trkpt>
      <trkpt lat="45.58608" lon="5.40301">
        <ele>475</ele>
        <time>2021-04-04T08:57:24.027Z</time>
      </trkpt>
      <trkpt lat="45.58609" lon="5.40294">
        <ele>475</ele>
        <time>2021-04-04T08:57:25.028Z</time>
      </trkpt>
      <trkpt lat="45.58611" lon="5.40285">
        <ele>476</ele>
        <time>2021-04-04T08:57:26.028Z</time>
      </trkpt>
      <trkpt lat="45.58612" lon="5.40277">
        <ele>476</ele>
        <time>2021-04-04T08:57:27.027Z</time>
      </trkpt>
      <trkpt lat="45.58614" lon="5.40266">
        <ele>476</ele>
        <time>2021-04-04T08:57:28.028Z</time>
      </trkpt>
      <trkpt lat="45.58615" lon="5.40257">
        <ele>476</ele>
        <time>2021-04-04T08:57:29.027Z</time>
      </trkpt>
      <trkpt lat="45.58617" lon="5.40248">
        <ele>476</ele>
        <time>2021-04-04T08:57:30.028Z</time>
      </trkpt>
      <trkpt lat="45.58618" lon="5.40239">
        <ele>476</ele>
        <time>2021-04-04T08:57:31.028Z</time>
      </trkpt>
      <trkpt lat="45.58619" lon="5.40231">
        <ele>476</ele>
        <time>2021-04-04T08:57:32.027Z</time>
      </trkpt>
      <trkpt lat="45.5862" lon="5.40221">
        <ele>476</ele>
        <time>2021-04-04T08:57:33.028Z</time>
      </trkpt>
      <trkpt lat="45.58621" lon="5.40213">
        <ele>477</ele>
        <time>2021-04-04T08:57:34.028Z</time>
      </trkpt>
      <trkpt lat="45.58623" lon="5.40204">
        <ele>477</ele>
        <time>2021-04-04T08:57:35.028Z</time>
      </trkpt>
      <trkpt lat="45.58624" lon="5.40197">
        <ele>477</ele>
        <time>2021-04-04T08:57:36.028Z</time>
      </trkpt>
      <trkpt lat="45.58626" lon="5.40188">
        <ele>477</ele>
        <time>2021-04-04T08:57:37.028Z</time>
      </trkpt>
      <trkpt lat="45.58628" lon="5.40177">
        <ele>477</ele>
        <time>2021-04-04T08:57:38.028Z</time>
      </trkpt>
      <trkpt lat="45.58629" lon="5.40168">
        <ele>477</ele>
        <time>2021-04-04T08:57:39.028Z</time>
      </trkpt>
      <trkpt lat="45.5863" lon="5.40159">
        <ele>477</ele>
        <time>2021-04-04T08:57:40.027Z</time>
      </trkpt>
      <trkpt lat="45.58632" lon="5.40152">
        <ele>478</ele>
        <time>2021-04-04T08:57:41.028Z</time>
      </trkpt>
      <trkpt lat="45.58633" lon="5.40143">
        <ele>478</ele>
        <time>2021-04-04T08:57:42.028Z</time>
      </trkpt>
      <trkpt lat="45.58635" lon="5.40134">
        <ele>478</ele>
        <time>2021-04-04T08:57:43.027Z</time>
      </trkpt>
      <trkpt lat="45.58636" lon="5.40123">
        <ele>478</ele>
        <time>2021-04-04T08:57:44.028Z</time>
      </trkpt>
      <trkpt lat="45.58638" lon="5.40115">
        <ele>478</ele>
        <time>2021-04-04T08:57:45.028Z</time>
      </trkpt>
      <trkpt lat="45.58639" lon="5.40107">
        <ele>479</ele>
        <time>2021-04-04T08:57:46.028Z</time>
      </trkpt>
      <trkpt lat="45.58641" lon="5.40098">
        <ele>479</ele>
        <time>2021-04-04T08:57:47.028Z</time>
      </trkpt>
      <trkpt lat="45.58642" lon="5.4009">
        <ele>478</ele>
        <time>2021-04-04T08:57:48.028Z</time>
      </trkpt>
      <trkpt lat="45.58644" lon="5.40079">
        <ele>478</ele>
        <time>2021-04-04T08:57:49.027Z</time>
      </trkpt>
      <trkpt lat="45.58645" lon="5.40071">
        <ele>478</ele>
        <time>2021-04-04T08:57:50.028Z</time>
      </trkpt>
      <trkpt lat="45.58646" lon="5.40063">
        <ele>477</ele>
        <time>2021-04-04T08:57:51.027Z</time>
      </trkpt>
      <trkpt lat="45.58648" lon="5.40055">
        <ele>477</ele>
        <time>2021-04-04T08:57:52.028Z</time>
      </trkpt>
      <trkpt lat="45.58649" lon="5.40046">
        <ele>476</ele>
        <time>2021-04-04T08:57:53.028Z</time>
      </trkpt>
      <trkpt lat="45.58651" lon="5.40035">
        <ele>475</ele>
        <time>2021-04-04T08:57:54.028Z</time>
      </trkpt>
      <trkpt lat="45.58653" lon="5.40026">
        <ele>475</ele>
        <time>2021-04-04T08:57:55.028Z</time>
      </trkpt>
      <trkpt lat="45.58654" lon="5.40017">
        <ele>475</ele>
        <time>2021-04-04T08:57:56.028Z</time>
      </trkpt>
      <trkpt lat="45.58655" lon="5.40011">
        <ele>475</ele>
        <time>2021-04-04T08:57:57.028Z</time>
      </trkpt>
      <trkpt lat="45.58657" lon="5.40002">
        <ele>475</ele>
        <time>2021-04-04T08:57:58.028Z</time>
      </trkpt>
      <trkpt lat="45.58658" lon="5.39992">
        <ele>475</ele>
        <time>2021-04-04T08:57:59.028Z</time>
      </trkpt>
      <trkpt lat="45.5866" lon="5.39983">
        <ele>476</ele>
        <time>2021-04-04T08:58:00.028Z</time>
      </trkpt>
      <trkpt lat="45.58661" lon="5.39974">
        <ele>476</ele>
        <time>2021-04-04T08:58:01.028Z</time>
      </trkpt>
      <trkpt lat="45.58662" lon="5.39966">
        <ele>477</ele>
        <time>2021-04-04T08:58:02.028Z</time>
      </trkpt>
      <trkpt lat="45.58663" lon="5.39959">
        <ele>477</ele>
        <time>2021-04-04T08:58:03.028Z</time>
      </trkpt>
      <trkpt lat="45.58664" lon="5.39949">
        <ele>477</ele>
        <time>2021-04-04T08:58:04.028Z</time>
      </trkpt>
      <trkpt lat="45.58665" lon="5.3994">
        <ele>478</ele>
        <time>2021-04-04T08:58:05.028Z</time>
      </trkpt>
      <trkpt lat="45.58665" lon="5.39932">
        <ele>478</ele>
        <time>2021-04-04T08:58:06.027Z</time>
      </trkpt>
      <trkpt lat="45.58666" lon="5.39925">
        <ele>478</ele>
        <time>2021-04-04T08:58:07.028Z</time>
      </trkpt>
      <trkpt lat="45.58666" lon="5.39914">
        <ele>478</ele>
        <time>2021-04-04T08:58:08.028Z</time>
      </trkpt>
      <trkpt lat="45.58666" lon="5.39907">
        <ele>478</ele>
        <time>2021-04-04T08:58:09.028Z</time>
      </trkpt>
      <trkpt lat="45.58666" lon="5.39897">
        <ele>478</ele>
        <time>2021-04-04T08:58:10.028Z</time>
      </trkpt>
      <trkpt lat="45.58665" lon="5.39888">
        <ele>478</ele>
        <time>2021-04-04T08:58:11.028Z</time>
      </trkpt>
      <trkpt lat="45.58664" lon="5.39881">
        <ele>479</ele>
        <time>2021-04-04T08:58:12.028Z</time>
      </trkpt>
      <trkpt lat="45.58663" lon="5.39873">
        <ele>479</ele>
        <time>2021-04-04T08:58:13.027Z</time>
      </trkpt>
      <trkpt lat="45.58662" lon="5.39864">
        <ele>479</ele>
        <time>2021-04-04T08:58:14.027Z</time>
      </trkpt>
      <trkpt lat="45.58661" lon="5.39854">
        <ele>480</ele>
        <time>2021-04-04T08:58:15.028Z</time>
      </trkpt>
      <trkpt lat="45.5866" lon="5.39845">
        <ele>481</ele>
        <time>2021-04-04T08:58:16.027Z</time>
      </trkpt>
      <trkpt lat="45.5866" lon="5.39838">
        <ele>481</ele>
        <time>2021-04-04T08:58:17.028Z</time>
      </trkpt>
      <trkpt lat="45.58659" lon="5.39828">
        <ele>482</ele>
        <time>2021-04-04T08:58:18.028Z</time>
      </trkpt>
      <trkpt lat="45.58659" lon="5.39819">
        <ele>482</ele>
        <time>2021-04-04T08:58:19.028Z</time>
      </trkpt>
      <trkpt lat="45.58659" lon="5.39807">
        <ele>483</ele>
        <time>2021-04-04T08:58:20.028Z</time>
      </trkpt>
      <trkpt lat="45.58659" lon="5.39797">
        <ele>484</ele>
        <time>2021-04-04T08:58:21.028Z</time>
      </trkpt>
      <trkpt lat="45.58659" lon="5.39788">
        <ele>484</ele>
        <time>2021-04-04T08:58:22.027Z</time>
      </trkpt>
      <trkpt lat="45.5866" lon="5.39778">
        <ele>484</ele>
        <time>2021-04-04T08:58:23.027Z</time>
      </trkpt>
      <trkpt lat="45.58661" lon="5.39767">
        <ele>483</ele>
        <time>2021-04-04T08:58:24.028Z</time>
      </trkpt>
      <trkpt lat="45.58662" lon="5.39754">
        <ele>483</ele>
        <time>2021-04-04T08:58:25.027Z</time>
      </trkpt>
      <trkpt lat="45.58663" lon="5.39742">
        <ele>482</ele>
        <time>2021-04-04T08:58:26.028Z</time>
      </trkpt>
      <trkpt lat="45.58664" lon="5.39733">
        <ele>481</ele>
        <time>2021-04-04T08:58:27.028Z</time>
      </trkpt>
      <trkpt lat="45.58666" lon="5.39722">
        <ele>481</ele>
        <time>2021-04-04T08:58:28.027Z</time>
      </trkpt>
      <trkpt lat="45.58668" lon="5.3971">
        <ele>480</ele>
        <time>2021-04-04T08:58:29.028Z</time>
      </trkpt>
      <trkpt lat="45.58669" lon="5.39694">
        <ele>480</ele>
        <time>2021-04-04T08:58:30.028Z</time>
      </trkpt>
      <trkpt lat="45.58671" lon="5.39681">
        <ele>480</ele>
        <time>2021-04-04T08:58:31.028Z</time>
      </trkpt>
      <trkpt lat="45.58672" lon="5.39668">
        <ele>479</ele>
        <time>2021-04-04T08:58:32.028Z</time>
      </trkpt>
      <trkpt lat="45.58674" lon="5.39657">
        <ele>478</ele>
        <time>2021-04-04T08:58:33.027Z</time>
      </trkpt>
      <trkpt lat="45.58676" lon="5.3964">
        <ele>478</ele>
        <time>2021-04-04T08:58:34.028Z</time>
      </trkpt>
      <trkpt lat="45.58678" lon="5.39626">
        <ele>476</ele>
        <time>2021-04-04T08:58:35.028Z</time>
      </trkpt>
      <trkpt lat="45.5868" lon="5.39611">
        <ele>475</ele>
        <time>2021-04-04T08:58:36.028Z</time>
      </trkpt>
      <trkpt lat="45.58682" lon="5.39596">
        <ele>474</ele>
        <time>2021-04-04T08:58:37.027Z</time>
      </trkpt>
      <trkpt lat="45.58684" lon="5.39581">
        <ele>473</ele>
        <time>2021-04-04T08:58:38.028Z</time>
      </trkpt>
      <trkpt lat="45.58687" lon="5.39566">
        <ele>473</ele>
        <time>2021-04-04T08:58:39.027Z</time>
      </trkpt>
      <trkpt lat="45.58689" lon="5.3955">
        <ele>473</ele>
        <time>2021-04-04T08:58:40.028Z</time>
      </trkpt>
      <trkpt lat="45.58691" lon="5.39535">
        <ele>473</ele>
        <time>2021-04-04T08:58:41.027Z</time>
      </trkpt>
      <trkpt lat="45.58693" lon="5.39519">
        <ele>473</ele>
        <time>2021-04-04T08:58:42.028Z</time>
      </trkpt>
      <trkpt lat="45.58695" lon="5.39503">
        <ele>473</ele>
        <time>2021-04-04T08:58:43.027Z</time>
      </trkpt>
      <trkpt lat="45.58697" lon="5.39487">
        <ele>472</ele>
        <time>2021-04-04T08:58:44.028Z</time>
      </trkpt>
      <trkpt lat="45.58699" lon="5.39472">
        <ele>472</ele>
        <time>2021-04-04T08:58:45.028Z</time>
      </trkpt>
      <trkpt lat="45.58701" lon="5.39456">
        <ele>472</ele>
        <time>2021-04-04T08:58:46.028Z</time>
      </trkpt>
      <trkpt lat="45.58703" lon="5.39441">
        <ele>471</ele>
        <time>2021-04-04T08:58:47.028Z</time>
      </trkpt>
      <trkpt lat="45.58704" lon="5.39426">
        <ele>470</ele>
        <time>2021-04-04T08:58:48.028Z</time>
      </trkpt>
      <trkpt lat="45.58706" lon="5.39412">
        <ele>469</ele>
        <time>2021-04-04T08:58:49.028Z</time>
      </trkpt>
      <trkpt lat="45.58707" lon="5.39397">
        <ele>469</ele>
        <time>2021-04-04T08:58:50.028Z</time>
      </trkpt>
      <trkpt lat="45.58708" lon="5.39382">
        <ele>468</ele>
        <time>2021-04-04T08:58:51.027Z</time>
      </trkpt>
      <trkpt lat="45.58709" lon="5.39367">
        <ele>467</ele>
        <time>2021-04-04T08:58:52.028Z</time>
      </trkpt>
      <trkpt lat="45.5871" lon="5.39356">
        <ele>467</ele>
        <time>2021-04-04T08:58:53.027Z</time>
      </trkpt>
      <trkpt lat="45.58712" lon="5.39342">
        <ele>467</ele>
        <time>2021-04-04T08:58:54.028Z</time>
      </trkpt>
      <trkpt lat="45.58713" lon="5.39325">
        <ele>467</ele>
        <time>2021-04-04T08:58:55.027Z</time>
      </trkpt>
      <trkpt lat="45.58713" lon="5.3931">
        <ele>467</ele>
        <time>2021-04-04T08:58:56.028Z</time>
      </trkpt>
      <trkpt lat="45.58714" lon="5.39297">
        <ele>466</ele>
        <time>2021-04-04T08:58:57.028Z</time>
      </trkpt>
      <trkpt lat="45.58715" lon="5.39283">
        <ele>466</ele>
        <time>2021-04-04T08:58:58.028Z</time>
      </trkpt>
      <trkpt lat="45.58716" lon="5.3927">
        <ele>465</ele>
        <time>2021-04-04T08:58:59.027Z</time>
      </trkpt>
      <trkpt lat="45.58717" lon="5.39257">
        <ele>465</ele>
        <time>2021-04-04T08:59:00.027Z</time>
      </trkpt>
      <trkpt lat="45.58717" lon="5.39244">
        <ele>465</ele>
        <time>2021-04-04T08:59:01.027Z</time>
      </trkpt>
      <trkpt lat="45.58718" lon="5.39232">
        <ele>465</ele>
        <time>2021-04-04T08:59:02.028Z</time>
      </trkpt>
      <trkpt lat="45.58718" lon="5.39219">
        <ele>465</ele>
        <time>2021-04-04T08:59:03.027Z</time>
      </trkpt>
      <trkpt lat="45.58719" lon="5.39206">
        <ele>465</ele>
        <time>2021-04-04T08:59:04.027Z</time>
      </trkpt>
      <trkpt lat="45.58719" lon="5.39193">
        <ele>465</ele>
        <time>2021-04-04T08:59:05.027Z</time>
      </trkpt>
      <trkpt lat="45.58719" lon="5.3918">
        <ele>465</ele>
        <time>2021-04-04T08:59:06.028Z</time>
      </trkpt>
      <trkpt lat="45.58719" lon="5.39168">
        <ele>465</ele>
        <time>2021-04-04T08:59:07.027Z</time>
      </trkpt>
      <trkpt lat="45.5872" lon="5.39155">
        <ele>465</ele>
        <time>2021-04-04T08:59:08.028Z</time>
      </trkpt>
      <trkpt lat="45.5872" lon="5.39143">
        <ele>465</ele>
        <time>2021-04-04T08:59:09.028Z</time>
      </trkpt>
      <trkpt lat="45.58721" lon="5.3913">
        <ele>465</ele>
        <time>2021-04-04T08:59:10.028Z</time>
      </trkpt>
      <trkpt lat="45.58721" lon="5.39117">
        <ele>465</ele>
        <time>2021-04-04T08:59:11.027Z</time>
      </trkpt>
      <trkpt lat="45.58722" lon="5.39105">
        <ele>464</ele>
        <time>2021-04-04T08:59:12.028Z</time>
      </trkpt>
      <trkpt lat="45.58722" lon="5.39092">
        <ele>464</ele>
        <time>2021-04-04T08:59:13.028Z</time>
      </trkpt>
      <trkpt lat="45.58722" lon="5.39079">
        <ele>464</ele>
        <time>2021-04-04T08:59:14.027Z</time>
      </trkpt>
      <trkpt lat="45.58723" lon="5.39067">
        <ele>464</ele>
        <time>2021-04-04T08:59:15.028Z</time>
      </trkpt>
      <trkpt lat="45.58723" lon="5.39054">
        <ele>464</ele>
        <time>2021-04-04T08:59:16.027Z</time>
      </trkpt>
      <trkpt lat="45.58723" lon="5.39042">
        <ele>464</ele>
        <time>2021-04-04T08:59:17.028Z</time>
      </trkpt>
      <trkpt lat="45.58724" lon="5.39032">
        <ele>464</ele>
        <time>2021-04-04T08:59:18.028Z</time>
      </trkpt>
      <trkpt lat="45.58724" lon="5.39018">
        <ele>464</ele>
        <time>2021-04-04T08:59:19.027Z</time>
      </trkpt>
      <trkpt lat="45.58724" lon="5.39008">
        <ele>465</ele>
        <time>2021-04-04T08:59:20.028Z</time>
      </trkpt>
      <trkpt lat="45.58725" lon="5.38994">
        <ele>465</ele>
        <time>2021-04-04T08:59:21.028Z</time>
      </trkpt>
      <trkpt lat="45.58725" lon="5.38982">
        <ele>465</ele>
        <time>2021-04-04T08:59:22.028Z</time>
      </trkpt>
      <trkpt lat="45.58725" lon="5.38972">
        <ele>465</ele>
        <time>2021-04-04T08:59:23.028Z</time>
      </trkpt>
      <trkpt lat="45.58726" lon="5.38961">
        <ele>465</ele>
        <time>2021-04-04T08:59:24.027Z</time>
      </trkpt>
      <trkpt lat="45.58726" lon="5.3895">
        <ele>465</ele>
        <time>2021-04-04T08:59:25.028Z</time>
      </trkpt>
      <trkpt lat="45.58726" lon="5.38938">
        <ele>465</ele>
        <time>2021-04-04T08:59:26.028Z</time>
      </trkpt>
      <trkpt lat="45.58726" lon="5.38925">
        <ele>465</ele>
        <time>2021-04-04T08:59:27.027Z</time>
      </trkpt>
      <trkpt lat="45.58727" lon="5.38916">
        <ele>464</ele>
        <time>2021-04-04T08:59:28.028Z</time>
      </trkpt>
      <trkpt lat="45.58727" lon="5.38904">
        <ele>465</ele>
        <time>2021-04-04T08:59:29.028Z</time>
      </trkpt>
      <trkpt lat="45.58727" lon="5.38893">
        <ele>465</ele>
        <time>2021-04-04T08:59:30.027Z</time>
      </trkpt>
      <trkpt lat="45.58727" lon="5.38879">
        <ele>465</ele>
        <time>2021-04-04T08:59:31.028Z</time>
      </trkpt>
      <trkpt lat="45.58727" lon="5.38868">
        <ele>465</ele>
        <time>2021-04-04T08:59:32.028Z</time>
      </trkpt>
      <trkpt lat="45.58726" lon="5.38859">
        <ele>465</ele>
        <time>2021-04-04T08:59:33.028Z</time>
      </trkpt>
      <trkpt lat="45.58726" lon="5.38848">
        <ele>466</ele>
        <time>2021-04-04T08:59:34.027Z</time>
      </trkpt>
      <trkpt lat="45.58725" lon="5.38837">
        <ele>466</ele>
        <time>2021-04-04T08:59:35.028Z</time>
      </trkpt>
      <trkpt lat="45.58724" lon="5.38824">
        <ele>467</ele>
        <time>2021-04-04T08:59:36.028Z</time>
      </trkpt>
      <trkpt lat="45.58722" lon="5.38813">
        <ele>468</ele>
        <time>2021-04-04T08:59:37.027Z</time>
      </trkpt>
      <trkpt lat="45.58721" lon="5.38803">
        <ele>468</ele>
        <time>2021-04-04T08:59:38.028Z</time>
      </trkpt>
      <trkpt lat="45.5872" lon="5.38792">
        <ele>469</ele>
        <time>2021-04-04T08:59:39.028Z</time>
      </trkpt>
      <trkpt lat="45.58719" lon="5.38781">
        <ele>469</ele>
        <time>2021-04-04T08:59:40.027Z</time>
      </trkpt>
      <trkpt lat="45.58718" lon="5.38767">
        <ele>469</ele>
        <time>2021-04-04T08:59:41.028Z</time>
      </trkpt>
      <trkpt lat="45.58716" lon="5.38755">
        <ele>470</ele>
        <time>2021-04-04T08:59:42.028Z</time>
      </trkpt>
      <trkpt lat="45.58715" lon="5.38744">
        <ele>470</ele>
        <time>2021-04-04T08:59:43.028Z</time>
      </trkpt>
      <trkpt lat="45.58714" lon="5.38732">
        <ele>469</ele>
        <time>2021-04-04T08:59:44.027Z</time>
      </trkpt>
      <trkpt lat="45.58713" lon="5.3872">
        <ele>469</ele>
        <time>2021-04-04T08:59:45.027Z</time>
      </trkpt>
      <trkpt lat="45.58712" lon="5.38709">
        <ele>469</ele>
        <time>2021-04-04T08:59:46.028Z</time>
      </trkpt>
      <trkpt lat="45.58711" lon="5.38698">
        <ele>469</ele>
        <time>2021-04-04T08:59:47.027Z</time>
      </trkpt>
      <trkpt lat="45.5871" lon="5.38686">
        <ele>469</ele>
        <time>2021-04-04T08:59:48.028Z</time>
      </trkpt>
      <trkpt lat="45.58709" lon="5.38675">
        <ele>469</ele>
        <time>2021-04-04T08:59:49.028Z</time>
      </trkpt>
      <trkpt lat="45.58708" lon="5.38664">
        <ele>469</ele>
        <time>2021-04-04T08:59:50.028Z</time>
      </trkpt>
      <trkpt lat="45.58707" lon="5.38653">
        <ele>469</ele>
        <time>2021-04-04T08:59:51.028Z</time>
      </trkpt>
      <trkpt lat="45.58706" lon="5.38641">
        <ele>470</ele>
        <time>2021-04-04T08:59:52.028Z</time>
      </trkpt>
      <trkpt lat="45.58706" lon="5.3863">
        <ele>470</ele>
        <time>2021-04-04T08:59:53.028Z</time>
      </trkpt>
      <trkpt lat="45.58705" lon="5.38621">
        <ele>470</ele>
        <time>2021-04-04T08:59:54.028Z</time>
      </trkpt>
      <trkpt lat="45.58704" lon="5.38611">
        <ele>471</ele>
        <time>2021-04-04T08:59:55.028Z</time>
      </trkpt>
      <trkpt lat="45.58704" lon="5.38598">
        <ele>471</ele>
        <time>2021-04-04T08:59:56.028Z</time>
      </trkpt>
      <trkpt lat="45.58703" lon="5.38588">
        <ele>472</ele>
        <time>2021-04-04T08:59:57.028Z</time>
      </trkpt>
      <trkpt lat="45.58702" lon="5.38578">
        <ele>472</ele>
        <time>2021-04-04T08:59:58.028Z</time>
      </trkpt>
      <trkpt lat="45.58702" lon="5.3857">
        <ele>472</ele>
        <time>2021-04-04T08:59:59.027Z</time>
      </trkpt>
      <trkpt lat="45.58701" lon="5.38561">
        <ele>473</ele>
        <time>2021-04-04T09:00:00.027Z</time>
      </trkpt>
      <trkpt lat="45.58701" lon="5.38551">
        <ele>473</ele>
        <time>2021-04-04T09:00:01.028Z</time>
      </trkpt>
      <trkpt lat="45.58701" lon="5.3854">
        <ele>473</ele>
        <time>2021-04-04T09:00:02.027Z</time>
      </trkpt>
      <trkpt lat="45.58702" lon="5.38531">
        <ele>473</ele>
        <time>2021-04-04T09:00:03.028Z</time>
      </trkpt>
      <trkpt lat="45.58702" lon="5.38524">
        <ele>473</ele>
        <time>2021-04-04T09:00:04.028Z</time>
      </trkpt>
      <trkpt lat="45.58703" lon="5.38517">
        <ele>472</ele>
        <time>2021-04-04T09:00:05.028Z</time>
      </trkpt>
      <trkpt lat="45.58704" lon="5.38507">
        <ele>472</ele>
        <time>2021-04-04T09:00:06.028Z</time>
      </trkpt>
      <trkpt lat="45.58705" lon="5.385">
        <ele>472</ele>
        <time>2021-04-04T09:00:07.028Z</time>
      </trkpt>
      <trkpt lat="45.58706" lon="5.38492">
        <ele>471</ele>
        <time>2021-04-04T09:00:08.027Z</time>
      </trkpt>
      <trkpt lat="45.58707" lon="5.38485">
        <ele>471</ele>
        <time>2021-04-04T09:00:09.027Z</time>
      </trkpt>
      <trkpt lat="45.58708" lon="5.38477">
        <ele>471</ele>
        <time>2021-04-04T09:00:10.028Z</time>
      </trkpt>
      <trkpt lat="45.5871" lon="5.3847">
        <ele>470</ele>
        <time>2021-04-04T09:00:11.027Z</time>
      </trkpt>
      <trkpt lat="45.58712" lon="5.38461">
        <ele>470</ele>
        <time>2021-04-04T09:00:12.028Z</time>
      </trkpt>
      <trkpt lat="45.58714" lon="5.38453">
        <ele>470</ele>
        <time>2021-04-04T09:00:13.028Z</time>
      </trkpt>
      <trkpt lat="45.58715" lon="5.38447">
        <ele>470</ele>
        <time>2021-04-04T09:00:14.027Z</time>
      </trkpt>
      <trkpt lat="45.58717" lon="5.38438">
        <ele>470</ele>
        <time>2021-04-04T09:00:15.028Z</time>
      </trkpt>
      <trkpt lat="45.58719" lon="5.38431">
        <ele>470</ele>
        <time>2021-04-04T09:00:16.028Z</time>
      </trkpt>
      <trkpt lat="45.58721" lon="5.38424">
        <ele>470</ele>
        <time>2021-04-04T09:00:17.028Z</time>
      </trkpt>
      <trkpt lat="45.58723" lon="5.38417">
        <ele>470</ele>
        <time>2021-04-04T09:00:18.028Z</time>
      </trkpt>
      <trkpt lat="45.58724" lon="5.3841">
        <ele>470</ele>
        <time>2021-04-04T09:00:19.028Z</time>
      </trkpt>
      <trkpt lat="45.58726" lon="5.38403">
        <ele>470</ele>
        <time>2021-04-04T09:00:20.028Z</time>
      </trkpt>
      <trkpt lat="45.58727" lon="5.38397">
        <ele>470</ele>
        <time>2021-04-04T09:00:21.028Z</time>
      </trkpt>
      <trkpt lat="45.58729" lon="5.38389">
        <ele>470</ele>
        <time>2021-04-04T09:00:22.028Z</time>
      </trkpt>
      <trkpt lat="45.58731" lon="5.38382">
        <ele>471</ele>
        <time>2021-04-04T09:00:23.028Z</time>
      </trkpt>
      <trkpt lat="45.58733" lon="5.38374">
        <ele>471</ele>
        <time>2021-04-04T09:00:24.028Z</time>
      </trkpt>
      <trkpt lat="45.58734" lon="5.38367">
        <ele>471</ele>
        <time>2021-04-04T09:00:25.028Z</time>
      </trkpt>
      <trkpt lat="45.58736" lon="5.38359">
        <ele>471</ele>
        <time>2021-04-04T09:00:26.028Z</time>
      </trkpt>
      <trkpt lat="45.58738" lon="5.38352">
        <ele>472</ele>
        <time>2021-04-04T09:00:27.027Z</time>
      </trkpt>
      <trkpt lat="45.58739" lon="5.38344">
        <ele>472</ele>
        <time>2021-04-04T09:00:28.028Z</time>
      </trkpt>
      <trkpt lat="45.58741" lon="5.38337">
        <ele>472</ele>
        <time>2021-04-04T09:00:29.028Z</time>
      </trkpt>
      <trkpt lat="45.58743" lon="5.38329">
        <ele>472</ele>
        <time>2021-04-04T09:00:30.028Z</time>
      </trkpt>
      <trkpt lat="45.58744" lon="5.38321">
        <ele>472</ele>
        <time>2021-04-04T09:00:31.028Z</time>
      </trkpt>
      <trkpt lat="45.58746" lon="5.38313">
        <ele>472</ele>
        <time>2021-04-04T09:00:32.028Z</time>
      </trkpt>
      <trkpt lat="45.58748" lon="5.38305">
        <ele>472</ele>
        <time>2021-04-04T09:00:33.028Z</time>
      </trkpt>
      <trkpt lat="45.58749" lon="5.38296">
        <ele>473</ele>
        <time>2021-04-04T09:00:34.028Z</time>
      </trkpt>
      <trkpt lat="45.5875" lon="5.38288">
        <ele>474</ele>
        <time>2021-04-04T09:00:35.028Z</time>
      </trkpt>
      <trkpt lat="45.58752" lon="5.3828">
        <ele>474</ele>
        <time>2021-04-04T09:00:36.028Z</time>
      </trkpt>
      <trkpt lat="45.58753" lon="5.38271">
        <ele>475</ele>
        <time>2021-04-04T09:00:37.028Z</time>
      </trkpt>
      <trkpt lat="45.58754" lon="5.38262">
        <ele>476</ele>
        <time>2021-04-04T09:00:38.027Z</time>
      </trkpt>
      <trkpt lat="45.58756" lon="5.38253">
        <ele>477</ele>
        <time>2021-04-04T09:00:39.027Z</time>
      </trkpt>
      <trkpt lat="45.58757" lon="5.38244">
        <ele>478</ele>
        <time>2021-04-04T09:00:40.028Z</time>
      </trkpt>
      <trkpt lat="45.58758" lon="5.38234">
        <ele>478</ele>
        <time>2021-04-04T09:00:41.028Z</time>
      </trkpt>
      <trkpt lat="45.5876" lon="5.38224">
        <ele>478</ele>
        <time>2021-04-04T09:00:42.028Z</time>
      </trkpt>
      <trkpt lat="45.58761" lon="5.38214">
        <ele>478</ele>
        <time>2021-04-04T09:00:43.028Z</time>
      </trkpt>
      <trkpt lat="45.58762" lon="5.38204">
        <ele>478</ele>
        <time>2021-04-04T09:00:44.028Z</time>
      </trkpt>
      <trkpt lat="45.58764" lon="5.38193">
        <ele>478</ele>
        <time>2021-04-04T09:00:45.027Z</time>
      </trkpt>
      <trkpt lat="45.58765" lon="5.38183">
        <ele>478</ele>
        <time>2021-04-04T09:00:46.028Z</time>
      </trkpt>
      <trkpt lat="45.58767" lon="5.38172">
        <ele>478</ele>
        <time>2021-04-04T09:00:47.027Z</time>
      </trkpt>
      <trkpt lat="45.58768" lon="5.38161">
        <ele>478</ele>
        <time>2021-04-04T09:00:48.027Z</time>
      </trkpt>
      <trkpt lat="45.5877" lon="5.38151">
        <ele>478</ele>
        <time>2021-04-04T09:00:49.028Z</time>
      </trkpt>
      <trkpt lat="45.58771" lon="5.3814">
        <ele>478</ele>
        <time>2021-04-04T09:00:50.028Z</time>
      </trkpt>
      <trkpt lat="45.58773" lon="5.3813">
        <ele>478</ele>
        <time>2021-04-04T09:00:51.028Z</time>
      </trkpt>
      <trkpt lat="45.58774" lon="5.38119">
        <ele>478</ele>
        <time>2021-04-04T09:00:52.028Z</time>
      </trkpt>
      <trkpt lat="45.58775" lon="5.38108">
        <ele>478</ele>
        <time>2021-04-04T09:00:53.028Z</time>
      </trkpt>
      <trkpt lat="45.58775" lon="5.38097">
        <ele>478</ele>
        <time>2021-04-04T09:00:54.027Z</time>
      </trkpt>
      <trkpt lat="45.58776" lon="5.38086">
        <ele>478</ele>
        <time>2021-04-04T09:00:55.027Z</time>
      </trkpt>
      <trkpt lat="45.58777" lon="5.38075">
        <ele>478</ele>
        <time>2021-04-04T09:00:56.028Z</time>
      </trkpt>
      <trkpt lat="45.58777" lon="5.38064">
        <ele>477</ele>
        <time>2021-04-04T09:00:57.028Z</time>
      </trkpt>
      <trkpt lat="45.58778" lon="5.38054">
        <ele>477</ele>
        <time>2021-04-04T09:00:58.028Z</time>
      </trkpt>
      <trkpt lat="45.58779" lon="5.38043">
        <ele>477</ele>
        <time>2021-04-04T09:00:59.028Z</time>
      </trkpt>
      <trkpt lat="45.58779" lon="5.38034">
        <ele>476</ele>
        <time>2021-04-04T09:01:00.027Z</time>
      </trkpt>
      <trkpt lat="45.5878" lon="5.38024">
        <ele>476</ele>
        <time>2021-04-04T09:01:01.028Z</time>
      </trkpt>
      <trkpt lat="45.5878" lon="5.38014">
        <ele>476</ele>
        <time>2021-04-04T09:01:02.028Z</time>
      </trkpt>
      <trkpt lat="45.5878" lon="5.38005">
        <ele>476</ele>
        <time>2021-04-04T09:01:03.027Z</time>
      </trkpt>
      <trkpt lat="45.58781" lon="5.37997">
        <ele>476</ele>
        <time>2021-04-04T09:01:04.027Z</time>
      </trkpt>
      <trkpt lat="45.58781" lon="5.37989">
        <ele>475</ele>
        <time>2021-04-04T09:01:05.028Z</time>
      </trkpt>
      <trkpt lat="45.58781" lon="5.37981">
        <ele>475</ele>
        <time>2021-04-04T09:01:06.028Z</time>
      </trkpt>
      <trkpt lat="45.58781" lon="5.37973">
        <ele>474</ele>
        <time>2021-04-04T09:01:07.028Z</time>
      </trkpt>
      <trkpt lat="45.58781" lon="5.37965">
        <ele>474</ele>
        <time>2021-04-04T09:01:08.027Z</time>
      </trkpt>
      <trkpt lat="45.5878" lon="5.37957">
        <ele>474</ele>
        <time>2021-04-04T09:01:09.028Z</time>
      </trkpt>
      <trkpt lat="45.5878" lon="5.37948">
        <ele>474</ele>
        <time>2021-04-04T09:01:10.028Z</time>
      </trkpt>
      <trkpt lat="45.5878" lon="5.37939">
        <ele>473</ele>
        <time>2021-04-04T09:01:11.028Z</time>
      </trkpt>
      <trkpt lat="45.5878" lon="5.3793">
        <ele>473</ele>
        <time>2021-04-04T09:01:12.028Z</time>
      </trkpt>
      <trkpt lat="45.5878" lon="5.3792">
        <ele>473</ele>
        <time>2021-04-04T09:01:13.027Z</time>
      </trkpt>
      <trkpt lat="45.5878" lon="5.3791">
        <ele>474</ele>
        <time>2021-04-04T09:01:14.028Z</time>
      </trkpt>
      <trkpt lat="45.5878" lon="5.379">
        <ele>473</ele>
        <time>2021-04-04T09:01:15.028Z</time>
      </trkpt>
      <trkpt lat="45.5878" lon="5.3789">
        <ele>473</ele>
        <time>2021-04-04T09:01:16.028Z</time>
      </trkpt>
      <trkpt lat="45.5878" lon="5.3788">
        <ele>473</ele>
        <time>2021-04-04T09:01:17.027Z</time>
      </trkpt>
      <trkpt lat="45.5878" lon="5.37871">
        <ele>473</ele>
        <time>2021-04-04T09:01:18.028Z</time>
      </trkpt>
      <trkpt lat="45.5878" lon="5.37861">
        <ele>472</ele>
        <time>2021-04-04T09:01:19.028Z</time>
      </trkpt>
      <trkpt lat="45.5878" lon="5.37851">
        <ele>472</ele>
        <time>2021-04-04T09:01:20.027Z</time>
      </trkpt>
      <trkpt lat="45.5878" lon="5.37841">
        <ele>472</ele>
        <time>2021-04-04T09:01:21.027Z</time>
      </trkpt>
      <trkpt lat="45.5878" lon="5.3783">
        <ele>472</ele>
        <time>2021-04-04T09:01:22.028Z</time>
      </trkpt>
      <trkpt lat="45.5878" lon="5.37819">
        <ele>472</ele>
        <time>2021-04-04T09:01:23.028Z</time>
      </trkpt>
      <trkpt lat="45.58779" lon="5.37808">
        <ele>472</ele>
        <time>2021-04-04T09:01:24.027Z</time>
      </trkpt>
      <trkpt lat="45.58779" lon="5.37797">
        <ele>471</ele>
        <time>2021-04-04T09:01:25.027Z</time>
      </trkpt>
      <trkpt lat="45.58779" lon="5.37787">
        <ele>471</ele>
        <time>2021-04-04T09:01:26.028Z</time>
      </trkpt>
      <trkpt lat="45.58778" lon="5.37776">
        <ele>470</ele>
        <time>2021-04-04T09:01:27.028Z</time>
      </trkpt>
      <trkpt lat="45.58778" lon="5.37766">
        <ele>470</ele>
        <time>2021-04-04T09:01:28.028Z</time>
      </trkpt>
      <trkpt lat="45.58778" lon="5.37756">
        <ele>470</ele>
        <time>2021-04-04T09:01:29.028Z</time>
      </trkpt>
      <trkpt lat="45.58779" lon="5.37746">
        <ele>470</ele>
        <time>2021-04-04T09:01:30.028Z</time>
      </trkpt>
      <trkpt lat="45.58779" lon="5.37736">
        <ele>470</ele>
        <time>2021-04-04T09:01:31.027Z</time>
      </trkpt>
      <trkpt lat="45.58779" lon="5.37727">
        <ele>470</ele>
        <time>2021-04-04T09:01:32.028Z</time>
      </trkpt>
      <trkpt lat="45.58779" lon="5.37719">
        <ele>470</ele>
        <time>2021-04-04T09:01:33.028Z</time>
      </trkpt>
      <trkpt lat="45.5878" lon="5.37713">
        <ele>470</ele>
        <time>2021-04-04T09:01:34.027Z</time>
      </trkpt>
      <trkpt lat="45.58781" lon="5.3771">
        <ele>470</ele>
        <time>2021-04-04T09:01:35.028Z</time>
      </trkpt>
      <trkpt lat="45.58783" lon="5.37709">
        <ele>471</ele>
        <time>2021-04-04T09:01:36.028Z</time>
      </trkpt>
      <trkpt lat="45.58783" lon="5.37711">
        <ele>471</ele>
        <time>2021-04-04T09:01:37.028Z</time>
      </trkpt>
      <trkpt lat="45.58784" lon="5.37713">
        <ele>471</ele>
        <time>2021-04-04T09:01:38.027Z</time>
      </trkpt>
      <trkpt lat="45.58784" lon="5.37715">
        <ele>472</ele>
        <time>2021-04-04T09:01:39.028Z</time>
      </trkpt>
      <trkpt lat="45.58784" lon="5.37717">
        <ele>472</ele>
        <time>2021-04-04T09:01:40.028Z</time>
      </trkpt>
      <trkpt lat="45.58783" lon="5.3772">
        <ele>472</ele>
        <time>2021-04-04T09:01:41.027Z</time>
      </trkpt>
      <trkpt lat="45.58783" lon="5.3772">
        <ele>472</ele>
        <time>2021-04-04T09:01:42.028Z</time>
      </trkpt>
      <trkpt lat="45.58784" lon="5.3772">
        <ele>472</ele>
        <time>2021-04-04T09:01:43.027Z</time>
      </trkpt>
      <trkpt lat="45.58784" lon="5.37718">
        <ele>472</ele>
        <time>2021-04-04T09:01:44.028Z</time>
      </trkpt>
      <trkpt lat="45.58784" lon="5.37716">
        <ele>472</ele>
        <time>2021-04-04T09:01:45.028Z</time>
      </trkpt>
      <trkpt lat="45.58782" lon="5.37717">
        <ele>472</ele>
        <time>2021-04-04T09:01:46.027Z</time>
      </trkpt>
      <trkpt lat="45.58781" lon="5.37717">
        <ele>472</ele>
        <time>2021-04-04T09:01:47.028Z</time>
      </trkpt>
      <trkpt lat="45.58779" lon="5.37719">
        <ele>472</ele>
        <time>2021-04-04T09:01:48.027Z</time>
      </trkpt>
      <trkpt lat="45.58778" lon="5.37722">
        <ele>472</ele>
        <time>2021-04-04T09:01:49.028Z</time>
      </trkpt>
      <trkpt lat="45.58777" lon="5.37725">
        <ele>472</ele>
        <time>2021-04-04T09:01:50.027Z</time>
      </trkpt>
      <trkpt lat="45.58777" lon="5.37728">
        <ele>472</ele>
        <time>2021-04-04T09:01:51.028Z</time>
      </trkpt>
      <trkpt lat="45.58776" lon="5.37731">
        <ele>473</ele>
        <time>2021-04-04T09:01:52.028Z</time>
      </trkpt>
      <trkpt lat="45.58776" lon="5.37733">
        <ele>473</ele>
        <time>2021-04-04T09:01:53.028Z</time>
      </trkpt>
      <trkpt lat="45.58777" lon="5.37736">
        <ele>474</ele>
        <time>2021-04-04T09:01:54.028Z</time>
      </trkpt>
      <trkpt lat="45.5878" lon="5.37737">
        <ele>474</ele>
        <time>2021-04-04T09:01:55.028Z</time>
      </trkpt>
      <trkpt lat="45.58784" lon="5.37739">
        <ele>475</ele>
        <time>2021-04-04T09:01:56.028Z</time>
      </trkpt>
      <trkpt lat="45.58788" lon="5.3774">
        <ele>476</ele>
        <time>2021-04-04T09:01:57.028Z</time>
      </trkpt>
      <trkpt lat="45.58793" lon="5.37741">
        <ele>476</ele>
        <time>2021-04-04T09:01:58.027Z</time>
      </trkpt>
      <trkpt lat="45.58797" lon="5.37742">
        <ele>477</ele>
        <time>2021-04-04T09:01:59.028Z</time>
      </trkpt>
      <trkpt lat="45.58802" lon="5.37743">
        <ele>477</ele>
        <time>2021-04-04T09:02:00.028Z</time>
      </trkpt>
      <trkpt lat="45.58807" lon="5.37744">
        <ele>477</ele>
        <time>2021-04-04T09:02:01.028Z</time>
      </trkpt>
      <trkpt lat="45.58812" lon="5.37746">
        <ele>477</ele>
        <time>2021-04-04T09:02:02.028Z</time>
      </trkpt>
      <trkpt lat="45.58818" lon="5.37747">
        <ele>477</ele>
        <time>2021-04-04T09:02:03.028Z</time>
      </trkpt>
      <trkpt lat="45.58823" lon="5.37749">
        <ele>477</ele>
        <time>2021-04-04T09:02:04.028Z</time>
      </trkpt>
      <trkpt lat="45.58828" lon="5.37749">
        <ele>477</ele>
        <time>2021-04-04T09:02:05.027Z</time>
      </trkpt>
      <trkpt lat="45.58833" lon="5.3775">
        <ele>477</ele>
        <time>2021-04-04T09:02:06.028Z</time>
      </trkpt>
      <trkpt lat="45.58837" lon="5.37749">
        <ele>477</ele>
        <time>2021-04-04T09:02:07.028Z</time>
      </trkpt>
      <trkpt lat="45.58842" lon="5.37749">
        <ele>477</ele>
        <time>2021-04-04T09:02:08.027Z</time>
      </trkpt>
      <trkpt lat="45.58847" lon="5.37749">
        <ele>477</ele>
        <time>2021-04-04T09:02:09.028Z</time>
      </trkpt>
      <trkpt lat="45.58852" lon="5.37748">
        <ele>476</ele>
        <time>2021-04-04T09:02:10.027Z</time>
      </trkpt>
      <trkpt lat="45.58857" lon="5.37748">
        <ele>476</ele>
        <time>2021-04-04T09:02:11.028Z</time>
      </trkpt>
      <trkpt lat="45.58862" lon="5.37747">
        <ele>477</ele>
        <time>2021-04-04T09:02:12.028Z</time>
      </trkpt>
      <trkpt lat="45.58867" lon="5.37747">
        <ele>477</ele>
        <time>2021-04-04T09:02:13.028Z</time>
      </trkpt>
      <trkpt lat="45.58871" lon="5.37747">
        <ele>477</ele>
        <time>2021-04-04T09:02:14.028Z</time>
      </trkpt>
      <trkpt lat="45.58876" lon="5.37746">
        <ele>477</ele>
        <time>2021-04-04T09:02:15.027Z</time>
      </trkpt>
      <trkpt lat="45.58881" lon="5.37745">
        <ele>478</ele>
        <time>2021-04-04T09:02:16.027Z</time>
      </trkpt>
      <trkpt lat="45.58887" lon="5.37744">
        <ele>479</ele>
        <time>2021-04-04T09:02:17.027Z</time>
      </trkpt>
      <trkpt lat="45.58892" lon="5.37743">
        <ele>480</ele>
        <time>2021-04-04T09:02:18.028Z</time>
      </trkpt>
      <trkpt lat="45.58898" lon="5.37742">
        <ele>482</ele>
        <time>2021-04-04T09:02:19.028Z</time>
      </trkpt>
      <trkpt lat="45.58903" lon="5.3774">
        <ele>483</ele>
        <time>2021-04-04T09:02:20.028Z</time>
      </trkpt>
      <trkpt lat="45.58908" lon="5.37738">
        <ele>483</ele>
        <time>2021-04-04T09:02:21.028Z</time>
      </trkpt>
      <trkpt lat="45.58915" lon="5.37735">
        <ele>484</ele>
        <time>2021-04-04T09:02:22.027Z</time>
      </trkpt>
      <trkpt lat="45.58922" lon="5.37732">
        <ele>484</ele>
        <time>2021-04-04T09:02:23.028Z</time>
      </trkpt>
      <trkpt lat="45.58928" lon="5.37729">
        <ele>484</ele>
        <time>2021-04-04T09:02:24.028Z</time>
      </trkpt>
      <trkpt lat="45.58936" lon="5.37725">
        <ele>484</ele>
        <time>2021-04-04T09:02:25.028Z</time>
      </trkpt>
      <trkpt lat="45.58944" lon="5.37719">
        <ele>484</ele>
        <time>2021-04-04T09:02:26.027Z</time>
      </trkpt>
      <trkpt lat="45.58952" lon="5.37715">
        <ele>483</ele>
        <time>2021-04-04T09:02:27.027Z</time>
      </trkpt>
      <trkpt lat="45.58961" lon="5.3771">
        <ele>483</ele>
        <time>2021-04-04T09:02:28.027Z</time>
      </trkpt>
      <trkpt lat="45.58969" lon="5.37705">
        <ele>482</ele>
        <time>2021-04-04T09:02:29.028Z</time>
      </trkpt>
      <trkpt lat="45.58978" lon="5.377">
        <ele>482</ele>
        <time>2021-04-04T09:02:30.027Z</time>
      </trkpt>
      <trkpt lat="45.58986" lon="5.37694">
        <ele>482</ele>
        <time>2021-04-04T09:02:31.027Z</time>
      </trkpt>
      <trkpt lat="45.58994" lon="5.3769">
        <ele>481</ele>
        <time>2021-04-04T09:02:32.028Z</time>
      </trkpt>
      <trkpt lat="45.59002" lon="5.37684">
        <ele>481</ele>
        <time>2021-04-04T09:02:33.027Z</time>
      </trkpt>
      <trkpt lat="45.59009" lon="5.37679">
        <ele>480</ele>
        <time>2021-04-04T09:02:34.028Z</time>
      </trkpt>
      <trkpt lat="45.59017" lon="5.37673">
        <ele>480</ele>
        <time>2021-04-04T09:02:35.028Z</time>
      </trkpt>
      <trkpt lat="45.59025" lon="5.37666">
        <ele>480</ele>
        <time>2021-04-04T09:02:36.027Z</time>
      </trkpt>
      <trkpt lat="45.59032" lon="5.37659">
        <ele>480</ele>
        <time>2021-04-04T09:02:37.028Z</time>
      </trkpt>
      <trkpt lat="45.5904" lon="5.37651">
        <ele>480</ele>
        <time>2021-04-04T09:02:38.028Z</time>
      </trkpt>
      <trkpt lat="45.59047" lon="5.37642">
        <ele>480</ele>
        <time>2021-04-04T09:02:39.027Z</time>
      </trkpt>
      <trkpt lat="45.59055" lon="5.37633">
        <ele>479</ele>
        <time>2021-04-04T09:02:40.028Z</time>
      </trkpt>
      <trkpt lat="45.59063" lon="5.37625">
        <ele>479</ele>
        <time>2021-04-04T09:02:41.028Z</time>
      </trkpt>
      <trkpt lat="45.59071" lon="5.37616">
        <ele>478</ele>
        <time>2021-04-04T09:02:42.028Z</time>
      </trkpt>
      <trkpt lat="45.59079" lon="5.37606">
        <ele>477</ele>
        <time>2021-04-04T09:02:43.027Z</time>
      </trkpt>
      <trkpt lat="45.59087" lon="5.37597">
        <ele>476</ele>
        <time>2021-04-04T09:02:44.027Z</time>
      </trkpt>
      <trkpt lat="45.59095" lon="5.37587">
        <ele>475</ele>
        <time>2021-04-04T09:02:45.028Z</time>
      </trkpt>
      <trkpt lat="45.59103" lon="5.37577">
        <ele>474</ele>
        <time>2021-04-04T09:02:46.027Z</time>
      </trkpt>
      <trkpt lat="45.59111" lon="5.37567">
        <ele>473</ele>
        <time>2021-04-04T09:02:47.028Z</time>
      </trkpt>
      <trkpt lat="45.59119" lon="5.37558">
        <ele>472</ele>
        <time>2021-04-04T09:02:48.028Z</time>
      </trkpt>
      <trkpt lat="45.59127" lon="5.37549">
        <ele>471</ele>
        <time>2021-04-04T09:02:49.027Z</time>
      </trkpt>
      <trkpt lat="45.59135" lon="5.37542">
        <ele>471</ele>
        <time>2021-04-04T09:02:50.028Z</time>
      </trkpt>
      <trkpt lat="45.59143" lon="5.37536">
        <ele>470</ele>
        <time>2021-04-04T09:02:51.028Z</time>
      </trkpt>
      <trkpt lat="45.5915" lon="5.3753">
        <ele>469</ele>
        <time>2021-04-04T09:02:52.027Z</time>
      </trkpt>
      <trkpt lat="45.59158" lon="5.37524">
        <ele>469</ele>
        <time>2021-04-04T09:02:53.027Z</time>
      </trkpt>
      <trkpt lat="45.59166" lon="5.37518">
        <ele>468</ele>
        <time>2021-04-04T09:02:54.027Z</time>
      </trkpt>
      <trkpt lat="45.59175" lon="5.37515">
        <ele>467</ele>
        <time>2021-04-04T09:02:55.027Z</time>
      </trkpt>
      <trkpt lat="45.59184" lon="5.37512">
        <ele>466</ele>
        <time>2021-04-04T09:02:56.027Z</time>
      </trkpt>
      <trkpt lat="45.59194" lon="5.37511">
        <ele>466</ele>
        <time>2021-04-04T09:02:57.028Z</time>
      </trkpt>
      <trkpt lat="45.59204" lon="5.37511">
        <ele>465</ele>
        <time>2021-04-04T09:02:58.028Z</time>
      </trkpt>
      <trkpt lat="45.59214" lon="5.37513">
        <ele>464</ele>
        <time>2021-04-04T09:02:59.027Z</time>
      </trkpt>
      <trkpt lat="45.59224" lon="5.37517">
        <ele>463</ele>
        <time>2021-04-04T09:03:00.028Z</time>
      </trkpt>
      <trkpt lat="45.59233" lon="5.37521">
        <ele>463</ele>
        <time>2021-04-04T09:03:01.027Z</time>
      </trkpt>
      <trkpt lat="45.59242" lon="5.37525">
        <ele>462</ele>
        <time>2021-04-04T09:03:02.027Z</time>
      </trkpt>
      <trkpt lat="45.59251" lon="5.37529">
        <ele>461</ele>
        <time>2021-04-04T09:03:03.027Z</time>
      </trkpt>
      <trkpt lat="45.59259" lon="5.37533">
        <ele>460</ele>
        <time>2021-04-04T09:03:04.028Z</time>
      </trkpt>
      <trkpt lat="45.59268" lon="5.37535">
        <ele>459</ele>
        <time>2021-04-04T09:03:05.028Z</time>
      </trkpt>
      <trkpt lat="45.59277" lon="5.37537">
        <ele>458</ele>
        <time>2021-04-04T09:03:06.027Z</time>
      </trkpt>
      <trkpt lat="45.59286" lon="5.37538">
        <ele>457</ele>
        <time>2021-04-04T09:03:07.028Z</time>
      </trkpt>
      <trkpt lat="45.59296" lon="5.37538">
        <ele>456</ele>
        <time>2021-04-04T09:03:08.027Z</time>
      </trkpt>
      <trkpt lat="45.59305" lon="5.37536">
        <ele>455</ele>
        <time>2021-04-04T09:03:09.028Z</time>
      </trkpt>
      <trkpt lat="45.59314" lon="5.37533">
        <ele>455</ele>
        <time>2021-04-04T09:03:10.027Z</time>
      </trkpt>
      <trkpt lat="45.59322" lon="5.3753">
        <ele>454</ele>
        <time>2021-04-04T09:03:11.027Z</time>
      </trkpt>
      <trkpt lat="45.5933" lon="5.37525">
        <ele>454</ele>
        <time>2021-04-04T09:03:12.027Z</time>
      </trkpt>
      <trkpt lat="45.59338" lon="5.3752">
        <ele>454</ele>
        <time>2021-04-04T09:03:13.028Z</time>
      </trkpt>
      <trkpt lat="45.59346" lon="5.37515">
        <ele>453</ele>
        <time>2021-04-04T09:03:14.028Z</time>
      </trkpt>
      <trkpt lat="45.59354" lon="5.3751">
        <ele>453</ele>
        <time>2021-04-04T09:03:15.027Z</time>
      </trkpt>
      <trkpt lat="45.59361" lon="5.37505">
        <ele>453</ele>
        <time>2021-04-04T09:03:16.028Z</time>
      </trkpt>
      <trkpt lat="45.59369" lon="5.375">
        <ele>453</ele>
        <time>2021-04-04T09:03:17.028Z</time>
      </trkpt>
      <trkpt lat="45.59377" lon="5.37495">
        <ele>452</ele>
        <time>2021-04-04T09:03:18.027Z</time>
      </trkpt>
      <trkpt lat="45.59385" lon="5.37488">
        <ele>451</ele>
        <time>2021-04-04T09:03:19.028Z</time>
      </trkpt>
      <trkpt lat="45.59393" lon="5.37483">
        <ele>450</ele>
        <time>2021-04-04T09:03:20.028Z</time>
      </trkpt>
      <trkpt lat="45.59402" lon="5.37479">
        <ele>449</ele>
        <time>2021-04-04T09:03:21.028Z</time>
      </trkpt>
      <trkpt lat="45.59411" lon="5.37475">
        <ele>448</ele>
        <time>2021-04-04T09:03:22.027Z</time>
      </trkpt>
      <trkpt lat="45.5942" lon="5.37472">
        <ele>448</ele>
        <time>2021-04-04T09:03:23.027Z</time>
      </trkpt>
      <trkpt lat="45.59428" lon="5.3747">
        <ele>447</ele>
        <time>2021-04-04T09:03:24.027Z</time>
      </trkpt>
      <trkpt lat="45.59435" lon="5.37468">
        <ele>447</ele>
        <time>2021-04-04T09:03:25.028Z</time>
      </trkpt>
      <trkpt lat="45.59442" lon="5.37467">
        <ele>447</ele>
        <time>2021-04-04T09:03:26.028Z</time>
      </trkpt>
      <trkpt lat="45.59449" lon="5.37466">
        <ele>446</ele>
        <time>2021-04-04T09:03:27.028Z</time>
      </trkpt>
      <trkpt lat="45.59455" lon="5.37466">
        <ele>446</ele>
        <time>2021-04-04T09:03:28.028Z</time>
      </trkpt>
      <trkpt lat="45.59461" lon="5.37465">
        <ele>447</ele>
        <time>2021-04-04T09:03:29.028Z</time>
      </trkpt>
      <trkpt lat="45.59467" lon="5.37464">
        <ele>447</ele>
        <time>2021-04-04T09:03:30.027Z</time>
      </trkpt>
      <trkpt lat="45.59473" lon="5.37463">
        <ele>447</ele>
        <time>2021-04-04T09:03:31.028Z</time>
      </trkpt>
      <trkpt lat="45.5948" lon="5.37461">
        <ele>447</ele>
        <time>2021-04-04T09:03:32.028Z</time>
      </trkpt>
      <trkpt lat="45.59487" lon="5.37459">
        <ele>446</ele>
        <time>2021-04-04T09:03:33.028Z</time>
      </trkpt>
      <trkpt lat="45.59493" lon="5.37458">
        <ele>446</ele>
        <time>2021-04-04T09:03:34.028Z</time>
      </trkpt>
      <trkpt lat="45.59501" lon="5.37456">
        <ele>445</ele>
        <time>2021-04-04T09:03:35.028Z</time>
      </trkpt>
      <trkpt lat="45.59509" lon="5.37455">
        <ele>445</ele>
        <time>2021-04-04T09:03:36.027Z</time>
      </trkpt>
      <trkpt lat="45.59517" lon="5.37454">
        <ele>444</ele>
        <time>2021-04-04T09:03:37.027Z</time>
      </trkpt>
      <trkpt lat="45.59526" lon="5.37454">
        <ele>444</ele>
        <time>2021-04-04T09:03:38.028Z</time>
      </trkpt>
      <trkpt lat="45.59535" lon="5.37453">
        <ele>443</ele>
        <time>2021-04-04T09:03:39.028Z</time>
      </trkpt>
      <trkpt lat="45.59544" lon="5.37452">
        <ele>443</ele>
        <time>2021-04-04T09:03:40.027Z</time>
      </trkpt>
      <trkpt lat="45.59554" lon="5.37451">
        <ele>442</ele>
        <time>2021-04-04T09:03:41.027Z</time>
      </trkpt>
      <trkpt lat="45.59564" lon="5.3745">
        <ele>442</ele>
        <time>2021-04-04T09:03:42.027Z</time>
      </trkpt>
      <trkpt lat="45.59574" lon="5.37448">
        <ele>442</ele>
        <time>2021-04-04T09:03:43.027Z</time>
      </trkpt>
      <trkpt lat="45.59584" lon="5.37446">
        <ele>442</ele>
        <time>2021-04-04T09:03:44.027Z</time>
      </trkpt>
      <trkpt lat="45.59594" lon="5.37442">
        <ele>441</ele>
        <time>2021-04-04T09:03:45.028Z</time>
      </trkpt>
      <trkpt lat="45.59602" lon="5.37438">
        <ele>440</ele>
        <time>2021-04-04T09:03:46.028Z</time>
      </trkpt>
      <trkpt lat="45.59611" lon="5.37433">
        <ele>440</ele>
        <time>2021-04-04T09:03:47.028Z</time>
      </trkpt>
      <trkpt lat="45.59619" lon="5.37427">
        <ele>439</ele>
        <time>2021-04-04T09:03:48.028Z</time>
      </trkpt>
      <trkpt lat="45.59626" lon="5.3742">
        <ele>439</ele>
        <time>2021-04-04T09:03:49.027Z</time>
      </trkpt>
      <trkpt lat="45.59632" lon="5.37412">
        <ele>438</ele>
        <time>2021-04-04T09:03:50.028Z</time>
      </trkpt>
      <trkpt lat="45.59637" lon="5.37403">
        <ele>437</ele>
        <time>2021-04-04T09:03:51.028Z</time>
      </trkpt>
      <trkpt lat="45.59642" lon="5.37394">
        <ele>436</ele>
        <time>2021-04-04T09:03:52.027Z</time>
      </trkpt>
      <trkpt lat="45.59646" lon="5.37384">
        <ele>435</ele>
        <time>2021-04-04T09:03:53.028Z</time>
      </trkpt>
      <trkpt lat="45.59651" lon="5.37374">
        <ele>435</ele>
        <time>2021-04-04T09:03:54.027Z</time>
      </trkpt>
      <trkpt lat="45.59655" lon="5.37365">
        <ele>434</ele>
        <time>2021-04-04T09:03:55.028Z</time>
      </trkpt>
      <trkpt lat="45.59658" lon="5.37355">
        <ele>434</ele>
        <time>2021-04-04T09:03:56.028Z</time>
      </trkpt>
      <trkpt lat="45.59662" lon="5.37345">
        <ele>435</ele>
        <time>2021-04-04T09:03:57.028Z</time>
      </trkpt>
      <trkpt lat="45.59665" lon="5.37334">
        <ele>435</ele>
        <time>2021-04-04T09:03:58.027Z</time>
      </trkpt>
      <trkpt lat="45.59669" lon="5.37324">
        <ele>435</ele>
        <time>2021-04-04T09:03:59.028Z</time>
      </trkpt>
      <trkpt lat="45.59672" lon="5.37313">
        <ele>435</ele>
        <time>2021-04-04T09:04:00.028Z</time>
      </trkpt>
      <trkpt lat="45.59675" lon="5.37302">
        <ele>435</ele>
        <time>2021-04-04T09:04:01.028Z</time>
      </trkpt>
      <trkpt lat="45.59678" lon="5.37291">
        <ele>435</ele>
        <time>2021-04-04T09:04:02.028Z</time>
      </trkpt>
      <trkpt lat="45.59681" lon="5.37278">
        <ele>434</ele>
        <time>2021-04-04T09:04:03.028Z</time>
      </trkpt>
      <trkpt lat="45.59685" lon="5.37266">
        <ele>434</ele>
        <time>2021-04-04T09:04:04.028Z</time>
      </trkpt>
      <trkpt lat="45.59688" lon="5.37254">
        <ele>433</ele>
        <time>2021-04-04T09:04:05.027Z</time>
      </trkpt>
      <trkpt lat="45.59692" lon="5.37241">
        <ele>433</ele>
        <time>2021-04-04T09:04:06.028Z</time>
      </trkpt>
      <trkpt lat="45.59697" lon="5.37229">
        <ele>432</ele>
        <time>2021-04-04T09:04:07.028Z</time>
      </trkpt>
      <trkpt lat="45.59701" lon="5.37218">
        <ele>432</ele>
        <time>2021-04-04T09:04:08.028Z</time>
      </trkpt>
      <trkpt lat="45.59706" lon="5.37206">
        <ele>431</ele>
        <time>2021-04-04T09:04:09.028Z</time>
      </trkpt>
      <trkpt lat="45.59711" lon="5.37194">
        <ele>431</ele>
        <time>2021-04-04T09:04:10.028Z</time>
      </trkpt>
      <trkpt lat="45.59716" lon="5.37182">
        <ele>430</ele>
        <time>2021-04-04T09:04:11.028Z</time>
      </trkpt>
      <trkpt lat="45.59721" lon="5.37171">
        <ele>430</ele>
        <time>2021-04-04T09:04:12.028Z</time>
      </trkpt>
      <trkpt lat="45.59727" lon="5.37161">
        <ele>429</ele>
        <time>2021-04-04T09:04:13.028Z</time>
      </trkpt>
      <trkpt lat="45.59733" lon="5.37151">
        <ele>428</ele>
        <time>2021-04-04T09:04:14.027Z</time>
      </trkpt>
      <trkpt lat="45.59739" lon="5.3714">
        <ele>427</ele>
        <time>2021-04-04T09:04:15.028Z</time>
      </trkpt>
      <trkpt lat="45.59745" lon="5.37129">
        <ele>426</ele>
        <time>2021-04-04T09:04:16.028Z</time>
      </trkpt>
      <trkpt lat="45.59752" lon="5.37118">
        <ele>425</ele>
        <time>2021-04-04T09:04:17.028Z</time>
      </trkpt>
      <trkpt lat="45.59758" lon="5.37108">
        <ele>424</ele>
        <time>2021-04-04T09:04:18.028Z</time>
      </trkpt>
      <trkpt lat="45.59764" lon="5.37099">
        <ele>423</ele>
        <time>2021-04-04T09:04:19.028Z</time>
      </trkpt>
      <trkpt lat="45.59769" lon="5.37089">
        <ele>422</ele>
        <time>2021-04-04T09:04:20.028Z</time>
      </trkpt>
      <trkpt lat="45.59774" lon="5.37081">
        <ele>421</ele>
        <time>2021-04-04T09:04:21.028Z</time>
      </trkpt>
      <trkpt lat="45.59781" lon="5.37073">
        <ele>420</ele>
        <time>2021-04-04T09:04:22.028Z</time>
      </trkpt>
      <trkpt lat="45.59788" lon="5.37064">
        <ele>419</ele>
        <time>2021-04-04T09:04:23.028Z</time>
      </trkpt>
      <trkpt lat="45.59794" lon="5.37055">
        <ele>418</ele>
        <time>2021-04-04T09:04:24.028Z</time>
      </trkpt>
      <trkpt lat="45.59799" lon="5.37045">
        <ele>417</ele>
        <time>2021-04-04T09:04:25.028Z</time>
      </trkpt>
      <trkpt lat="45.59805" lon="5.37036">
        <ele>416</ele>
        <time>2021-04-04T09:04:26.027Z</time>
      </trkpt>
      <trkpt lat="45.5981" lon="5.37026">
        <ele>416</ele>
        <time>2021-04-04T09:04:27.027Z</time>
      </trkpt>
      <trkpt lat="45.59816" lon="5.37016">
        <ele>415</ele>
        <time>2021-04-04T09:04:28.028Z</time>
      </trkpt>
      <trkpt lat="45.59821" lon="5.37007">
        <ele>414</ele>
        <time>2021-04-04T09:04:29.027Z</time>
      </trkpt>
      <trkpt lat="45.59826" lon="5.36999">
        <ele>414</ele>
        <time>2021-04-04T09:04:30.027Z</time>
      </trkpt>
      <trkpt lat="45.5983" lon="5.36992">
        <ele>413</ele>
        <time>2021-04-04T09:04:31.028Z</time>
      </trkpt>
      <trkpt lat="45.59834" lon="5.36984">
        <ele>413</ele>
        <time>2021-04-04T09:04:32.028Z</time>
      </trkpt>
      <trkpt lat="45.59839" lon="5.36975">
        <ele>413</ele>
        <time>2021-04-04T09:04:33.028Z</time>
      </trkpt>
      <trkpt lat="45.59843" lon="5.36966">
        <ele>412</ele>
        <time>2021-04-04T09:04:34.027Z</time>
      </trkpt>
      <trkpt lat="45.59848" lon="5.36956">
        <ele>411</ele>
        <time>2021-04-04T09:04:35.027Z</time>
      </trkpt>
      <trkpt lat="45.59853" lon="5.36946">
        <ele>411</ele>
        <time>2021-04-04T09:04:36.027Z</time>
      </trkpt>
      <trkpt lat="45.59858" lon="5.36937">
        <ele>410</ele>
        <time>2021-04-04T09:04:37.028Z</time>
      </trkpt>
      <trkpt lat="45.59864" lon="5.36927">
        <ele>409</ele>
        <time>2021-04-04T09:04:38.027Z</time>
      </trkpt>
      <trkpt lat="45.59869" lon="5.36916">
        <ele>408</ele>
        <time>2021-04-04T09:04:39.028Z</time>
      </trkpt>
      <trkpt lat="45.59875" lon="5.36906">
        <ele>407</ele>
        <time>2021-04-04T09:04:40.027Z</time>
      </trkpt>
      <trkpt lat="45.5988" lon="5.36895">
        <ele>406</ele>
        <time>2021-04-04T09:04:41.028Z</time>
      </trkpt>
      <trkpt lat="45.59885" lon="5.36886">
        <ele>405</ele>
        <time>2021-04-04T09:04:42.028Z</time>
      </trkpt>
      <trkpt lat="45.59891" lon="5.36875">
        <ele>404</ele>
        <time>2021-04-04T09:04:43.027Z</time>
      </trkpt>
      <trkpt lat="45.59896" lon="5.36865">
        <ele>403</ele>
        <time>2021-04-04T09:04:44.028Z</time>
      </trkpt>
      <trkpt lat="45.59902" lon="5.36856">
        <ele>403</ele>
        <time>2021-04-04T09:04:45.028Z</time>
      </trkpt>
      <trkpt lat="45.59908" lon="5.36846">
        <ele>402</ele>
        <time>2021-04-04T09:04:46.027Z</time>
      </trkpt>
      <trkpt lat="45.59914" lon="5.36837">
        <ele>400</ele>
        <time>2021-04-04T09:04:47.028Z</time>
      </trkpt>
      <trkpt lat="45.5992" lon="5.36829">
        <ele>399</ele>
        <time>2021-04-04T09:04:48.028Z</time>
      </trkpt>
      <trkpt lat="45.59925" lon="5.3682">
        <ele>398</ele>
        <time>2021-04-04T09:04:49.028Z</time>
      </trkpt>
      <trkpt lat="45.5993" lon="5.36813">
        <ele>396</ele>
        <time>2021-04-04T09:04:50.027Z</time>
      </trkpt>
      <trkpt lat="45.59934" lon="5.36807">
        <ele>395</ele>
        <time>2021-04-04T09:04:51.027Z</time>
      </trkpt>
      <trkpt lat="45.59937" lon="5.36802">
        <ele>394</ele>
        <time>2021-04-04T09:04:52.028Z</time>
      </trkpt>
      <trkpt lat="45.5994" lon="5.36799">
        <ele>393</ele>
        <time>2021-04-04T09:04:53.028Z</time>
      </trkpt>
      <trkpt lat="45.59942" lon="5.36797">
        <ele>392</ele>
        <time>2021-04-04T09:04:54.027Z</time>
      </trkpt>
      <trkpt lat="45.59944" lon="5.36794">
        <ele>391</ele>
        <time>2021-04-04T09:04:55.028Z</time>
      </trkpt>
      <trkpt lat="45.59947" lon="5.3679">
        <ele>390</ele>
        <time>2021-04-04T09:04:56.028Z</time>
      </trkpt>
      <trkpt lat="45.59949" lon="5.36786">
        <ele>389</ele>
        <time>2021-04-04T09:04:57.028Z</time>
      </trkpt>
      <trkpt lat="45.59951" lon="5.36781">
        <ele>388</ele>
        <time>2021-04-04T09:04:58.028Z</time>
      </trkpt>
      <trkpt lat="45.59953" lon="5.36775">
        <ele>388</ele>
        <time>2021-04-04T09:04:59.027Z</time>
      </trkpt>
      <trkpt lat="45.59955" lon="5.36768">
        <ele>387</ele>
        <time>2021-04-04T09:05:00.028Z</time>
      </trkpt>
      <trkpt lat="45.59957" lon="5.3676">
        <ele>387</ele>
        <time>2021-04-04T09:05:01.028Z</time>
      </trkpt>
      <trkpt lat="45.59959" lon="5.36754">
        <ele>387</ele>
        <time>2021-04-04T09:05:02.027Z</time>
      </trkpt>
      <trkpt lat="45.59961" lon="5.36747">
        <ele>386</ele>
        <time>2021-04-04T09:05:03.028Z</time>
      </trkpt>
      <trkpt lat="45.59964" lon="5.3674">
        <ele>386</ele>
        <time>2021-04-04T09:05:04.028Z</time>
      </trkpt>
      <trkpt lat="45.59967" lon="5.36733">
        <ele>386</ele>
        <time>2021-04-04T09:05:05.027Z</time>
      </trkpt>
      <trkpt lat="45.5997" lon="5.36726">
        <ele>386</ele>
        <time>2021-04-04T09:05:06.028Z</time>
      </trkpt>
      <trkpt lat="45.59973" lon="5.36719">
        <ele>386</ele>
        <time>2021-04-04T09:05:07.028Z</time>
      </trkpt>
      <trkpt lat="45.59977" lon="5.36711">
        <ele>386</ele>
        <time>2021-04-04T09:05:08.028Z</time>
      </trkpt>
      <trkpt lat="45.59982" lon="5.36702">
        <ele>385</ele>
        <time>2021-04-04T09:05:09.028Z</time>
      </trkpt>
      <trkpt lat="45.59987" lon="5.36694">
        <ele>385</ele>
        <time>2021-04-04T09:05:10.028Z</time>
      </trkpt>
      <trkpt lat="45.59992" lon="5.36686">
        <ele>384</ele>
        <time>2021-04-04T09:05:11.028Z</time>
      </trkpt>
      <trkpt lat="45.59997" lon="5.36676">
        <ele>383</ele>
        <time>2021-04-04T09:05:12.028Z</time>
      </trkpt>
      <trkpt lat="45.60001" lon="5.36666">
        <ele>382</ele>
        <time>2021-04-04T09:05:13.028Z</time>
      </trkpt>
      <trkpt lat="45.60004" lon="5.36656">
        <ele>382</ele>
        <time>2021-04-04T09:05:14.028Z</time>
      </trkpt>
      <trkpt lat="45.60007" lon="5.36644">
        <ele>381</ele>
        <time>2021-04-04T09:05:15.027Z</time>
      </trkpt>
      <trkpt lat="45.6001" lon="5.36633">
        <ele>381</ele>
        <time>2021-04-04T09:05:16.027Z</time>
      </trkpt>
      <trkpt lat="45.60012" lon="5.36621">
        <ele>381</ele>
        <time>2021-04-04T09:05:17.028Z</time>
      </trkpt>
      <trkpt lat="45.60014" lon="5.36609">
        <ele>381</ele>
        <time>2021-04-04T09:05:18.028Z</time>
      </trkpt>
      <trkpt lat="45.60015" lon="5.36597">
        <ele>382</ele>
        <time>2021-04-04T09:05:19.028Z</time>
      </trkpt>
      <trkpt lat="45.60016" lon="5.36584">
        <ele>382</ele>
        <time>2021-04-04T09:05:20.028Z</time>
      </trkpt>
      <trkpt lat="45.60017" lon="5.36571">
        <ele>382</ele>
        <time>2021-04-04T09:05:21.028Z</time>
      </trkpt>
      <trkpt lat="45.60017" lon="5.36558">
        <ele>383</ele>
        <time>2021-04-04T09:05:22.028Z</time>
      </trkpt>
      <trkpt lat="45.60018" lon="5.36546">
        <ele>383</ele>
        <time>2021-04-04T09:05:23.028Z</time>
      </trkpt>
      <trkpt lat="45.60018" lon="5.36534">
        <ele>383</ele>
        <time>2021-04-04T09:05:24.028Z</time>
      </trkpt>
      <trkpt lat="45.60019" lon="5.36522">
        <ele>383</ele>
        <time>2021-04-04T09:05:25.028Z</time>
      </trkpt>
      <trkpt lat="45.60019" lon="5.36511">
        <ele>383</ele>
        <time>2021-04-04T09:05:26.028Z</time>
      </trkpt>
      <trkpt lat="45.60019" lon="5.36499">
        <ele>384</ele>
        <time>2021-04-04T09:05:27.028Z</time>
      </trkpt>
      <trkpt lat="45.6002" lon="5.36488">
        <ele>384</ele>
        <time>2021-04-04T09:05:28.028Z</time>
      </trkpt>
      <trkpt lat="45.6002" lon="5.36476">
        <ele>384</ele>
        <time>2021-04-04T09:05:29.028Z</time>
      </trkpt>
      <trkpt lat="45.6002" lon="5.36465">
        <ele>383</ele>
        <time>2021-04-04T09:05:30.028Z</time>
      </trkpt>
      <trkpt lat="45.60021" lon="5.36455">
        <ele>383</ele>
        <time>2021-04-04T09:05:31.028Z</time>
      </trkpt>
      <trkpt lat="45.60021" lon="5.36444">
        <ele>383</ele>
        <time>2021-04-04T09:05:32.028Z</time>
      </trkpt>
      <trkpt lat="45.60021" lon="5.36434">
        <ele>382</ele>
        <time>2021-04-04T09:05:33.027Z</time>
      </trkpt>
      <trkpt lat="45.60021" lon="5.36425">
        <ele>382</ele>
        <time>2021-04-04T09:05:34.028Z</time>
      </trkpt>
      <trkpt lat="45.60022" lon="5.36418">
        <ele>382</ele>
        <time>2021-04-04T09:05:35.028Z</time>
      </trkpt>
      <trkpt lat="45.60023" lon="5.36411">
        <ele>381</ele>
        <time>2021-04-04T09:05:36.027Z</time>
      </trkpt>
      <trkpt lat="45.60025" lon="5.36407">
        <ele>381</ele>
        <time>2021-04-04T09:05:37.027Z</time>
      </trkpt>
      <trkpt lat="45.60028" lon="5.36405">
        <ele>381</ele>
        <time>2021-04-04T09:05:38.028Z</time>
      </trkpt>
      <trkpt lat="45.60031" lon="5.36405">
        <ele>381</ele>
        <time>2021-04-04T09:05:39.028Z</time>
      </trkpt>
      <trkpt lat="45.60035" lon="5.36408">
        <ele>381</ele>
        <time>2021-04-04T09:05:40.028Z</time>
      </trkpt>
      <trkpt lat="45.60039" lon="5.36411">
        <ele>381</ele>
        <time>2021-04-04T09:05:41.028Z</time>
      </trkpt>
      <trkpt lat="45.60044" lon="5.36417">
        <ele>381</ele>
        <time>2021-04-04T09:05:42.028Z</time>
      </trkpt>
      <trkpt lat="45.6005" lon="5.36422">
        <ele>381</ele>
        <time>2021-04-04T09:05:43.028Z</time>
      </trkpt>
      <trkpt lat="45.60055" lon="5.36428">
        <ele>381</ele>
        <time>2021-04-04T09:05:44.027Z</time>
      </trkpt>
      <trkpt lat="45.60061" lon="5.36434">
        <ele>381</ele>
        <time>2021-04-04T09:05:45.028Z</time>
      </trkpt>
      <trkpt lat="45.60068" lon="5.3644">
        <ele>381</ele>
        <time>2021-04-04T09:05:46.028Z</time>
      </trkpt>
      <trkpt lat="45.60075" lon="5.36446">
        <ele>382</ele>
        <time>2021-04-04T09:05:47.027Z</time>
      </trkpt>
      <trkpt lat="45.60082" lon="5.36452">
        <ele>382</ele>
        <time>2021-04-04T09:05:48.027Z</time>
      </trkpt>
      <trkpt lat="45.60088" lon="5.36458">
        <ele>382</ele>
        <time>2021-04-04T09:05:49.028Z</time>
      </trkpt>
      <trkpt lat="45.60095" lon="5.36464">
        <ele>382</ele>
        <time>2021-04-04T09:05:50.027Z</time>
      </trkpt>
      <trkpt lat="45.60101" lon="5.36469">
        <ele>382</ele>
        <time>2021-04-04T09:05:51.028Z</time>
      </trkpt>
      <trkpt lat="45.60108" lon="5.36475">
        <ele>382</ele>
        <time>2021-04-04T09:05:52.028Z</time>
      </trkpt>
      <trkpt lat="45.60115" lon="5.3648">
        <ele>382</ele>
        <time>2021-04-04T09:05:53.027Z</time>
      </trkpt>
      <trkpt lat="45.60121" lon="5.36485">
        <ele>382</ele>
        <time>2021-04-04T09:05:54.028Z</time>
      </trkpt>
      <trkpt lat="45.60128" lon="5.36488">
        <ele>382</ele>
        <time>2021-04-04T09:05:55.028Z</time>
      </trkpt>
      <trkpt lat="45.60135" lon="5.3649">
        <ele>382</ele>
        <time>2021-04-04T09:05:56.028Z</time>
      </trkpt>
      <trkpt lat="45.60142" lon="5.36489">
        <ele>382</ele>
        <time>2021-04-04T09:05:57.027Z</time>
      </trkpt>
      <trkpt lat="45.60148" lon="5.36487">
        <ele>381</ele>
        <time>2021-04-04T09:05:58.028Z</time>
      </trkpt>
      <trkpt lat="45.60154" lon="5.36484">
        <ele>381</ele>
        <time>2021-04-04T09:05:59.028Z</time>
      </trkpt>
      <trkpt lat="45.6016" lon="5.36479">
        <ele>381</ele>
        <time>2021-04-04T09:06:00.028Z</time>
      </trkpt>
      <trkpt lat="45.60165" lon="5.36474">
        <ele>380</ele>
        <time>2021-04-04T09:06:01.027Z</time>
      </trkpt>
      <trkpt lat="45.6017" lon="5.36469">
        <ele>380</ele>
        <time>2021-04-04T09:06:02.028Z</time>
      </trkpt>
      <trkpt lat="45.60175" lon="5.36466">
        <ele>380</ele>
        <time>2021-04-04T09:06:03.028Z</time>
      </trkpt>
      <trkpt lat="45.60179" lon="5.36462">
        <ele>380</ele>
        <time>2021-04-04T09:06:04.028Z</time>
      </trkpt>
      <trkpt lat="45.60184" lon="5.36458">
        <ele>380</ele>
        <time>2021-04-04T09:06:05.028Z</time>
      </trkpt>
      <trkpt lat="45.60188" lon="5.36453">
        <ele>381</ele>
        <time>2021-04-04T09:06:06.028Z</time>
      </trkpt>
      <trkpt lat="45.60192" lon="5.36449">
        <ele>381</ele>
        <time>2021-04-04T09:06:07.027Z</time>
      </trkpt>
      <trkpt lat="45.60197" lon="5.36444">
        <ele>381</ele>
        <time>2021-04-04T09:06:08.028Z</time>
      </trkpt>
      <trkpt lat="45.60201" lon="5.3644">
        <ele>381</ele>
        <time>2021-04-04T09:06:09.028Z</time>
      </trkpt>
      <trkpt lat="45.60205" lon="5.36434">
        <ele>381</ele>
        <time>2021-04-04T09:06:10.027Z</time>
      </trkpt>
      <trkpt lat="45.60209" lon="5.36429">
        <ele>382</ele>
        <time>2021-04-04T09:06:11.027Z</time>
      </trkpt>
      <trkpt lat="45.60213" lon="5.36423">
        <ele>382</ele>
        <time>2021-04-04T09:06:12.027Z</time>
      </trkpt>
      <trkpt lat="45.60217" lon="5.36418">
        <ele>382</ele>
        <time>2021-04-04T09:06:13.027Z</time>
      </trkpt>
      <trkpt lat="45.60222" lon="5.36412">
        <ele>382</ele>
        <time>2021-04-04T09:06:14.028Z</time>
      </trkpt>
      <trkpt lat="45.60226" lon="5.36407">
        <ele>382</ele>
        <time>2021-04-04T09:06:15.028Z</time>
      </trkpt>
      <trkpt lat="45.60231" lon="5.36401">
        <ele>382</ele>
        <time>2021-04-04T09:06:16.028Z</time>
      </trkpt>
      <trkpt lat="45.60235" lon="5.36396">
        <ele>382</ele>
        <time>2021-04-04T09:06:17.028Z</time>
      </trkpt>
      <trkpt lat="45.6024" lon="5.36391">
        <ele>382</ele>
        <time>2021-04-04T09:06:18.028Z</time>
      </trkpt>
      <trkpt lat="45.60245" lon="5.36385">
        <ele>382</ele>
        <time>2021-04-04T09:06:19.028Z</time>
      </trkpt>
      <trkpt lat="45.6025" lon="5.3638">
        <ele>382</ele>
        <time>2021-04-04T09:06:20.028Z</time>
      </trkpt>
      <trkpt lat="45.60255" lon="5.36374">
        <ele>382</ele>
        <time>2021-04-04T09:06:21.027Z</time>
      </trkpt>
      <trkpt lat="45.60261" lon="5.36369">
        <ele>382</ele>
        <time>2021-04-04T09:06:22.027Z</time>
      </trkpt>
      <trkpt lat="45.60266" lon="5.36363">
        <ele>382</ele>
        <time>2021-04-04T09:06:23.028Z</time>
      </trkpt>
      <trkpt lat="45.60271" lon="5.36357">
        <ele>383</ele>
        <time>2021-04-04T09:06:24.028Z</time>
      </trkpt>
      <trkpt lat="45.60277" lon="5.36352">
        <ele>383</ele>
        <time>2021-04-04T09:06:25.028Z</time>
      </trkpt>
      <trkpt lat="45.60282" lon="5.36347">
        <ele>383</ele>
        <time>2021-04-04T09:06:26.027Z</time>
      </trkpt>
      <trkpt lat="45.60288" lon="5.36343">
        <ele>383</ele>
        <time>2021-04-04T09:06:27.027Z</time>
      </trkpt>
      <trkpt lat="45.60295" lon="5.3634">
        <ele>383</ele>
        <time>2021-04-04T09:06:28.028Z</time>
      </trkpt>
      <trkpt lat="45.60301" lon="5.36337">
        <ele>383</ele>
        <time>2021-04-04T09:06:29.028Z</time>
      </trkpt>
      <trkpt lat="45.60307" lon="5.36334">
        <ele>384</ele>
        <time>2021-04-04T09:06:30.027Z</time>
      </trkpt>
      <trkpt lat="45.60313" lon="5.36332">
        <ele>384</ele>
        <time>2021-04-04T09:06:31.028Z</time>
      </trkpt>
      <trkpt lat="45.6032" lon="5.36329">
        <ele>385</ele>
        <time>2021-04-04T09:06:32.028Z</time>
      </trkpt>
      <trkpt lat="45.60326" lon="5.36326">
        <ele>385</ele>
        <time>2021-04-04T09:06:33.028Z</time>
      </trkpt>
      <trkpt lat="45.60332" lon="5.36323">
        <ele>386</ele>
        <time>2021-04-04T09:06:34.027Z</time>
      </trkpt>
      <trkpt lat="45.60338" lon="5.3632">
        <ele>386</ele>
        <time>2021-04-04T09:06:35.028Z</time>
      </trkpt>
      <trkpt lat="45.60344" lon="5.36317">
        <ele>387</ele>
        <time>2021-04-04T09:06:36.027Z</time>
      </trkpt>
      <trkpt lat="45.6035" lon="5.36315">
        <ele>387</ele>
        <time>2021-04-04T09:06:37.028Z</time>
      </trkpt>
      <trkpt lat="45.60356" lon="5.36312">
        <ele>386</ele>
        <time>2021-04-04T09:06:38.027Z</time>
      </trkpt>
      <trkpt lat="45.60362" lon="5.36308">
        <ele>386</ele>
        <time>2021-04-04T09:06:39.027Z</time>
      </trkpt>
      <trkpt lat="45.60368" lon="5.36305">
        <ele>386</ele>
        <time>2021-04-04T09:06:40.027Z</time>
      </trkpt>
      <trkpt lat="45.60374" lon="5.36302">
        <ele>386</ele>
        <time>2021-04-04T09:06:41.027Z</time>
      </trkpt>
      <trkpt lat="45.6038" lon="5.36298">
        <ele>386</ele>
        <time>2021-04-04T09:06:42.027Z</time>
      </trkpt>
      <trkpt lat="45.60385" lon="5.36294">
        <ele>386</ele>
        <time>2021-04-04T09:06:43.028Z</time>
      </trkpt>
      <trkpt lat="45.60391" lon="5.3629">
        <ele>385</ele>
        <time>2021-04-04T09:06:44.028Z</time>
      </trkpt>
      <trkpt lat="45.60397" lon="5.36285">
        <ele>385</ele>
        <time>2021-04-04T09:06:45.028Z</time>
      </trkpt>
      <trkpt lat="45.60402" lon="5.3628">
        <ele>385</ele>
        <time>2021-04-04T09:06:46.027Z</time>
      </trkpt>
      <trkpt lat="45.60407" lon="5.36275">
        <ele>385</ele>
        <time>2021-04-04T09:06:47.028Z</time>
      </trkpt>
      <trkpt lat="45.60413" lon="5.3627">
        <ele>385</ele>
        <time>2021-04-04T09:06:48.028Z</time>
      </trkpt>
      <trkpt lat="45.60418" lon="5.36265">
        <ele>385</ele>
        <time>2021-04-04T09:06:49.028Z</time>
      </trkpt>
      <trkpt lat="45.60423" lon="5.36259">
        <ele>386</ele>
        <time>2021-04-04T09:06:50.028Z</time>
      </trkpt>
      <trkpt lat="45.60428" lon="5.36254">
        <ele>386</ele>
        <time>2021-04-04T09:06:51.028Z</time>
      </trkpt>
      <trkpt lat="45.60433" lon="5.36249">
        <ele>386</ele>
        <time>2021-04-04T09:06:52.027Z</time>
      </trkpt>
      <trkpt lat="45.60438" lon="5.36243">
        <ele>386</ele>
        <time>2021-04-04T09:06:53.028Z</time>
      </trkpt>
      <trkpt lat="45.60443" lon="5.36238">
        <ele>386</ele>
        <time>2021-04-04T09:06:54.028Z</time>
      </trkpt>
      <trkpt lat="45.60448" lon="5.36232">
        <ele>386</ele>
        <time>2021-04-04T09:06:55.028Z</time>
      </trkpt>
      <trkpt lat="45.60452" lon="5.36226">
        <ele>386</ele>
        <time>2021-04-04T09:06:56.028Z</time>
      </trkpt>
      <trkpt lat="45.60457" lon="5.36221">
        <ele>386</ele>
        <time>2021-04-04T09:06:57.027Z</time>
      </trkpt>
      <trkpt lat="45.60462" lon="5.36215">
        <ele>386</ele>
        <time>2021-04-04T09:06:58.028Z</time>
      </trkpt>
      <trkpt lat="45.60466" lon="5.36208">
        <ele>385</ele>
        <time>2021-04-04T09:06:59.027Z</time>
      </trkpt>
      <trkpt lat="45.60471" lon="5.36202">
        <ele>385</ele>
        <time>2021-04-04T09:07:00.028Z</time>
      </trkpt>
      <trkpt lat="45.60476" lon="5.36196">
        <ele>385</ele>
        <time>2021-04-04T09:07:01.027Z</time>
      </trkpt>
      <trkpt lat="45.60481" lon="5.3619">
        <ele>384</ele>
        <time>2021-04-04T09:07:02.028Z</time>
      </trkpt>
      <trkpt lat="45.60485" lon="5.36183">
        <ele>384</ele>
        <time>2021-04-04T09:07:03.027Z</time>
      </trkpt>
      <trkpt lat="45.6049" lon="5.36176">
        <ele>384</ele>
        <time>2021-04-04T09:07:04.028Z</time>
      </trkpt>
      <trkpt lat="45.60494" lon="5.3617">
        <ele>384</ele>
        <time>2021-04-04T09:07:05.028Z</time>
      </trkpt>
      <trkpt lat="45.60499" lon="5.36163">
        <ele>383</ele>
        <time>2021-04-04T09:07:06.028Z</time>
      </trkpt>
      <trkpt lat="45.60504" lon="5.36156">
        <ele>383</ele>
        <time>2021-04-04T09:07:07.027Z</time>
      </trkpt>
      <trkpt lat="45.60509" lon="5.36149">
        <ele>382</ele>
        <time>2021-04-04T09:07:08.028Z</time>
      </trkpt>
      <trkpt lat="45.60514" lon="5.36142">
        <ele>382</ele>
        <time>2021-04-04T09:07:09.027Z</time>
      </trkpt>
      <trkpt lat="45.60519" lon="5.36135">
        <ele>382</ele>
        <time>2021-04-04T09:07:10.027Z</time>
      </trkpt>
      <trkpt lat="45.60524" lon="5.36128">
        <ele>381</ele>
        <time>2021-04-04T09:07:11.027Z</time>
      </trkpt>
      <trkpt lat="45.60528" lon="5.36122">
        <ele>381</ele>
        <time>2021-04-04T09:07:12.028Z</time>
      </trkpt>
      <trkpt lat="45.60533" lon="5.36114">
        <ele>381</ele>
        <time>2021-04-04T09:07:13.028Z</time>
      </trkpt>
      <trkpt lat="45.60539" lon="5.36107">
        <ele>381</ele>
        <time>2021-04-04T09:07:14.027Z</time>
      </trkpt>
      <trkpt lat="45.60544" lon="5.36099">
        <ele>381</ele>
        <time>2021-04-04T09:07:15.027Z</time>
      </trkpt>
      <trkpt lat="45.6055" lon="5.36092">
        <ele>381</ele>
        <time>2021-04-04T09:07:16.027Z</time>
      </trkpt>
      <trkpt lat="45.60556" lon="5.36084">
        <ele>381</ele>
        <time>2021-04-04T09:07:17.027Z</time>
      </trkpt>
      <trkpt lat="45.60561" lon="5.36076">
        <ele>380</ele>
        <time>2021-04-04T09:07:18.027Z</time>
      </trkpt>
      <trkpt lat="45.60567" lon="5.36069">
        <ele>380</ele>
        <time>2021-04-04T09:07:19.027Z</time>
      </trkpt>
      <trkpt lat="45.60573" lon="5.36061">
        <ele>380</ele>
        <time>2021-04-04T09:07:20.028Z</time>
      </trkpt>
      <trkpt lat="45.60579" lon="5.36054">
        <ele>380</ele>
        <time>2021-04-04T09:07:21.027Z</time>
      </trkpt>
      <trkpt lat="45.60585" lon="5.36047">
        <ele>380</ele>
        <time>2021-04-04T09:07:22.027Z</time>
      </trkpt>
      <trkpt lat="45.60591" lon="5.36039">
        <ele>380</ele>
        <time>2021-04-04T09:07:23.027Z</time>
      </trkpt>
      <trkpt lat="45.60596" lon="5.36032">
        <ele>379</ele>
        <time>2021-04-04T09:07:24.028Z</time>
      </trkpt>
      <trkpt lat="45.60602" lon="5.36025">
        <ele>379</ele>
        <time>2021-04-04T09:07:25.027Z</time>
      </trkpt>
      <trkpt lat="45.60607" lon="5.36018">
        <ele>379</ele>
        <time>2021-04-04T09:07:26.028Z</time>
      </trkpt>
      <trkpt lat="45.60612" lon="5.3601">
        <ele>378</ele>
        <time>2021-04-04T09:07:27.028Z</time>
      </trkpt>
      <trkpt lat="45.60615" lon="5.36001">
        <ele>378</ele>
        <time>2021-04-04T09:07:28.027Z</time>
      </trkpt>
      <trkpt lat="45.60618" lon="5.35992">
        <ele>378</ele>
        <time>2021-04-04T09:07:29.028Z</time>
      </trkpt>
      <trkpt lat="45.6062" lon="5.35982">
        <ele>379</ele>
        <time>2021-04-04T09:07:30.028Z</time>
      </trkpt>
      <trkpt lat="45.60621" lon="5.35971">
        <ele>379</ele>
        <time>2021-04-04T09:07:31.027Z</time>
      </trkpt>
      <trkpt lat="45.60623" lon="5.3596">
        <ele>379</ele>
        <time>2021-04-04T09:07:32.027Z</time>
      </trkpt>
      <trkpt lat="45.60624" lon="5.35949">
        <ele>379</ele>
        <time>2021-04-04T09:07:33.028Z</time>
      </trkpt>
      <trkpt lat="45.60625" lon="5.35938">
        <ele>379</ele>
        <time>2021-04-04T09:07:34.028Z</time>
      </trkpt>
      <trkpt lat="45.60626" lon="5.35927">
        <ele>379</ele>
        <time>2021-04-04T09:07:35.028Z</time>
      </trkpt>
      <trkpt lat="45.60627" lon="5.35916">
        <ele>379</ele>
        <time>2021-04-04T09:07:36.028Z</time>
      </trkpt>
      <trkpt lat="45.60628" lon="5.35905">
        <ele>379</ele>
        <time>2021-04-04T09:07:37.028Z</time>
      </trkpt>
      <trkpt lat="45.6063" lon="5.35894">
        <ele>380</ele>
        <time>2021-04-04T09:07:38.028Z</time>
      </trkpt>
      <trkpt lat="45.60631" lon="5.35883">
        <ele>380</ele>
        <time>2021-04-04T09:07:39.028Z</time>
      </trkpt>
      <trkpt lat="45.60633" lon="5.35872">
        <ele>380</ele>
        <time>2021-04-04T09:07:40.027Z</time>
      </trkpt>
      <trkpt lat="45.60634" lon="5.35861">
        <ele>380</ele>
        <time>2021-04-04T09:07:41.028Z</time>
      </trkpt>
      <trkpt lat="45.60635" lon="5.3585">
        <ele>380</ele>
        <time>2021-04-04T09:07:42.027Z</time>
      </trkpt>
      <trkpt lat="45.60637" lon="5.35839">
        <ele>380</ele>
        <time>2021-04-04T09:07:43.028Z</time>
      </trkpt>
      <trkpt lat="45.60638" lon="5.35828">
        <ele>380</ele>
        <time>2021-04-04T09:07:44.028Z</time>
      </trkpt>
      <trkpt lat="45.60639" lon="5.35817">
        <ele>381</ele>
        <time>2021-04-04T09:07:45.028Z</time>
      </trkpt>
      <trkpt lat="45.6064" lon="5.35806">
        <ele>381</ele>
        <time>2021-04-04T09:07:46.028Z</time>
      </trkpt>
      <trkpt lat="45.60641" lon="5.35796">
        <ele>381</ele>
        <time>2021-04-04T09:07:47.028Z</time>
      </trkpt>
      <trkpt lat="45.60642" lon="5.35785">
        <ele>381</ele>
        <time>2021-04-04T09:07:48.028Z</time>
      </trkpt>
      <trkpt lat="45.60643" lon="5.35775">
        <ele>381</ele>
        <time>2021-04-04T09:07:49.028Z</time>
      </trkpt>
      <trkpt lat="45.60644" lon="5.35764">
        <ele>381</ele>
        <time>2021-04-04T09:07:50.028Z</time>
      </trkpt>
      <trkpt lat="45.60645" lon="5.35753">
        <ele>381</ele>
        <time>2021-04-04T09:07:51.028Z</time>
      </trkpt>
      <trkpt lat="45.60646" lon="5.35743">
        <ele>381</ele>
        <time>2021-04-04T09:07:52.028Z</time>
      </trkpt>
      <trkpt lat="45.60647" lon="5.35732">
        <ele>380</ele>
        <time>2021-04-04T09:07:53.027Z</time>
      </trkpt>
      <trkpt lat="45.60648" lon="5.35721">
        <ele>380</ele>
        <time>2021-04-04T09:07:54.027Z</time>
      </trkpt>
      <trkpt lat="45.60648" lon="5.35711">
        <ele>380</ele>
        <time>2021-04-04T09:07:55.027Z</time>
      </trkpt>
      <trkpt lat="45.60649" lon="5.35701">
        <ele>380</ele>
        <time>2021-04-04T09:07:56.028Z</time>
      </trkpt>
      <trkpt lat="45.60649" lon="5.3569">
        <ele>379</ele>
        <time>2021-04-04T09:07:57.027Z</time>
      </trkpt>
      <trkpt lat="45.60649" lon="5.3568">
        <ele>379</ele>
        <time>2021-04-04T09:07:58.028Z</time>
      </trkpt>
      <trkpt lat="45.60649" lon="5.35669">
        <ele>379</ele>
        <time>2021-04-04T09:07:59.028Z</time>
      </trkpt>
      <trkpt lat="45.60648" lon="5.35659">
        <ele>378</ele>
        <time>2021-04-04T09:08:00.028Z</time>
      </trkpt>
      <trkpt lat="45.60646" lon="5.35648">
        <ele>378</ele>
        <time>2021-04-04T09:08:01.028Z</time>
      </trkpt>
      <trkpt lat="45.60645" lon="5.35638">
        <ele>378</ele>
        <time>2021-04-04T09:08:02.028Z</time>
      </trkpt>
      <trkpt lat="45.60642" lon="5.35628">
        <ele>377</ele>
        <time>2021-04-04T09:08:03.028Z</time>
      </trkpt>
      <trkpt lat="45.60639" lon="5.35618">
        <ele>377</ele>
        <time>2021-04-04T09:08:04.027Z</time>
      </trkpt>
      <trkpt lat="45.60636" lon="5.35608">
        <ele>377</ele>
        <time>2021-04-04T09:08:05.028Z</time>
      </trkpt>
      <trkpt lat="45.60633" lon="5.35599">
        <ele>377</ele>
        <time>2021-04-04T09:08:06.028Z</time>
      </trkpt>
      <trkpt lat="45.6063" lon="5.35591">
        <ele>377</ele>
        <time>2021-04-04T09:08:07.027Z</time>
      </trkpt>
      <trkpt lat="45.60626" lon="5.3558">
        <ele>377</ele>
        <time>2021-04-04T09:08:08.028Z</time>
      </trkpt>
      <trkpt lat="45.60623" lon="5.3557">
        <ele>377</ele>
        <time>2021-04-04T09:08:09.027Z</time>
      </trkpt>
      <trkpt lat="45.60619" lon="5.3556">
        <ele>378</ele>
        <time>2021-04-04T09:08:10.027Z</time>
      </trkpt>
      <trkpt lat="45.60616" lon="5.35551">
        <ele>378</ele>
        <time>2021-04-04T09:08:11.028Z</time>
      </trkpt>
      <trkpt lat="45.60613" lon="5.35542">
        <ele>378</ele>
        <time>2021-04-04T09:08:12.027Z</time>
      </trkpt>
      <trkpt lat="45.6061" lon="5.35533">
        <ele>378</ele>
        <time>2021-04-04T09:08:13.028Z</time>
      </trkpt>
      <trkpt lat="45.60608" lon="5.35524">
        <ele>379</ele>
        <time>2021-04-04T09:08:14.028Z</time>
      </trkpt>
      <trkpt lat="45.60606" lon="5.35515">
        <ele>379</ele>
        <time>2021-04-04T09:08:15.028Z</time>
      </trkpt>
      <trkpt lat="45.60605" lon="5.35506">
        <ele>379</ele>
        <time>2021-04-04T09:08:16.028Z</time>
      </trkpt>
      <trkpt lat="45.60605" lon="5.35498">
        <ele>379</ele>
        <time>2021-04-04T09:08:17.027Z</time>
      </trkpt>
      <trkpt lat="45.60605" lon="5.3549">
        <ele>378</ele>
        <time>2021-04-04T09:08:18.028Z</time>
      </trkpt>
      <trkpt lat="45.60606" lon="5.35481">
        <ele>378</ele>
        <time>2021-04-04T09:08:19.027Z</time>
      </trkpt>
      <trkpt lat="45.60608" lon="5.35474">
        <ele>378</ele>
        <time>2021-04-04T09:08:20.027Z</time>
      </trkpt>
      <trkpt lat="45.6061" lon="5.35467">
        <ele>378</ele>
        <time>2021-04-04T09:08:21.028Z</time>
      </trkpt>
      <trkpt lat="45.60612" lon="5.3546">
        <ele>378</ele>
        <time>2021-04-04T09:08:22.027Z</time>
      </trkpt>
      <trkpt lat="45.60615" lon="5.35453">
        <ele>378</ele>
        <time>2021-04-04T09:08:23.028Z</time>
      </trkpt>
      <trkpt lat="45.60617" lon="5.35446">
        <ele>378</ele>
        <time>2021-04-04T09:08:24.027Z</time>
      </trkpt>
      <trkpt lat="45.6062" lon="5.35439">
        <ele>378</ele>
        <time>2021-04-04T09:08:25.028Z</time>
      </trkpt>
      <trkpt lat="45.60623" lon="5.35432">
        <ele>379</ele>
        <time>2021-04-04T09:08:26.028Z</time>
      </trkpt>
      <trkpt lat="45.60625" lon="5.35426">
        <ele>379</ele>
        <time>2021-04-04T09:08:27.028Z</time>
      </trkpt>
      <trkpt lat="45.60628" lon="5.35419">
        <ele>380</ele>
        <time>2021-04-04T09:08:28.027Z</time>
      </trkpt>
      <trkpt lat="45.60631" lon="5.35412">
        <ele>381</ele>
        <time>2021-04-04T09:08:29.028Z</time>
      </trkpt>
      <trkpt lat="45.60634" lon="5.35406">
        <ele>381</ele>
        <time>2021-04-04T09:08:30.027Z</time>
      </trkpt>
      <trkpt lat="45.60636" lon="5.35399">
        <ele>382</ele>
        <time>2021-04-04T09:08:31.027Z</time>
      </trkpt>
      <trkpt lat="45.60639" lon="5.35392">
        <ele>383</ele>
        <time>2021-04-04T09:08:32.027Z</time>
      </trkpt>
      <trkpt lat="45.60641" lon="5.35384">
        <ele>383</ele>
        <time>2021-04-04T09:08:33.027Z</time>
      </trkpt>
      <trkpt lat="45.60643" lon="5.35377">
        <ele>384</ele>
        <time>2021-04-04T09:08:34.027Z</time>
      </trkpt>
      <trkpt lat="45.60645" lon="5.35369">
        <ele>384</ele>
        <time>2021-04-04T09:08:35.028Z</time>
      </trkpt>
      <trkpt lat="45.60646" lon="5.35361">
        <ele>384</ele>
        <time>2021-04-04T09:08:36.028Z</time>
      </trkpt>
      <trkpt lat="45.60647" lon="5.35352">
        <ele>385</ele>
        <time>2021-04-04T09:08:37.028Z</time>
      </trkpt>
      <trkpt lat="45.60647" lon="5.35343">
        <ele>385</ele>
        <time>2021-04-04T09:08:38.028Z</time>
      </trkpt>
      <trkpt lat="45.60647" lon="5.35335">
        <ele>385</ele>
        <time>2021-04-04T09:08:39.028Z</time>
      </trkpt>
      <trkpt lat="45.60647" lon="5.35326">
        <ele>385</ele>
        <time>2021-04-04T09:08:40.028Z</time>
      </trkpt>
      <trkpt lat="45.60647" lon="5.35317">
        <ele>384</ele>
        <time>2021-04-04T09:08:41.028Z</time>
      </trkpt>
      <trkpt lat="45.60647" lon="5.35309">
        <ele>385</ele>
        <time>2021-04-04T09:08:42.027Z</time>
      </trkpt>
      <trkpt lat="45.60646" lon="5.353">
        <ele>385</ele>
        <time>2021-04-04T09:08:43.028Z</time>
      </trkpt>
      <trkpt lat="45.60646" lon="5.35291">
        <ele>385</ele>
        <time>2021-04-04T09:08:44.028Z</time>
      </trkpt>
      <trkpt lat="45.60646" lon="5.35283">
        <ele>385</ele>
        <time>2021-04-04T09:08:45.028Z</time>
      </trkpt>
      <trkpt lat="45.60646" lon="5.35274">
        <ele>385</ele>
        <time>2021-04-04T09:08:46.027Z</time>
      </trkpt>
      <trkpt lat="45.60646" lon="5.35265">
        <ele>385</ele>
        <time>2021-04-04T09:08:47.028Z</time>
      </trkpt>
      <trkpt lat="45.60646" lon="5.35257">
        <ele>386</ele>
        <time>2021-04-04T09:08:48.028Z</time>
      </trkpt>
      <trkpt lat="45.60647" lon="5.35247">
        <ele>386</ele>
        <time>2021-04-04T09:08:49.028Z</time>
      </trkpt>
      <trkpt lat="45.60647" lon="5.35238">
        <ele>386</ele>
        <time>2021-04-04T09:08:50.028Z</time>
      </trkpt>
      <trkpt lat="45.60648" lon="5.35229">
        <ele>387</ele>
        <time>2021-04-04T09:08:51.028Z</time>
      </trkpt>
      <trkpt lat="45.60649" lon="5.3522">
        <ele>387</ele>
        <time>2021-04-04T09:08:52.028Z</time>
      </trkpt>
      <trkpt lat="45.60649" lon="5.3521">
        <ele>387</ele>
        <time>2021-04-04T09:08:53.028Z</time>
      </trkpt>
      <trkpt lat="45.6065" lon="5.35201">
        <ele>387</ele>
        <time>2021-04-04T09:08:54.028Z</time>
      </trkpt>
      <trkpt lat="45.60651" lon="5.35192">
        <ele>387</ele>
        <time>2021-04-04T09:08:55.027Z</time>
      </trkpt>
      <trkpt lat="45.60652" lon="5.35183">
        <ele>388</ele>
        <time>2021-04-04T09:08:56.028Z</time>
      </trkpt>
      <trkpt lat="45.60653" lon="5.35173">
        <ele>388</ele>
        <time>2021-04-04T09:08:57.027Z</time>
      </trkpt>
      <trkpt lat="45.60655" lon="5.35163">
        <ele>388</ele>
        <time>2021-04-04T09:08:58.028Z</time>
      </trkpt>
      <trkpt lat="45.60656" lon="5.35153">
        <ele>388</ele>
        <time>2021-04-04T09:08:59.027Z</time>
      </trkpt>
      <trkpt lat="45.60657" lon="5.35143">
        <ele>387</ele>
        <time>2021-04-04T09:09:00.028Z</time>
      </trkpt>
      <trkpt lat="45.60659" lon="5.35132">
        <ele>387</ele>
        <time>2021-04-04T09:09:01.027Z</time>
      </trkpt>
      <trkpt lat="45.6066" lon="5.35121">
        <ele>387</ele>
        <time>2021-04-04T09:09:02.028Z</time>
      </trkpt>
      <trkpt lat="45.60662" lon="5.3511">
        <ele>386</ele>
        <time>2021-04-04T09:09:03.027Z</time>
      </trkpt>
      <trkpt lat="45.60663" lon="5.35099">
        <ele>386</ele>
        <time>2021-04-04T09:09:04.028Z</time>
      </trkpt>
      <trkpt lat="45.60665" lon="5.35088">
        <ele>386</ele>
        <time>2021-04-04T09:09:05.028Z</time>
      </trkpt>
      <trkpt lat="45.60667" lon="5.35077">
        <ele>386</ele>
        <time>2021-04-04T09:09:06.027Z</time>
      </trkpt>
      <trkpt lat="45.60669" lon="5.35065">
        <ele>386</ele>
        <time>2021-04-04T09:09:07.028Z</time>
      </trkpt>
      <trkpt lat="45.60672" lon="5.35054">
        <ele>386</ele>
        <time>2021-04-04T09:09:08.028Z</time>
      </trkpt>
      <trkpt lat="45.60674" lon="5.35042">
        <ele>386</ele>
        <time>2021-04-04T09:09:09.027Z</time>
      </trkpt>
      <trkpt lat="45.60677" lon="5.3503">
        <ele>385</ele>
        <time>2021-04-04T09:09:10.028Z</time>
      </trkpt>
      <trkpt lat="45.60679" lon="5.35018">
        <ele>385</ele>
        <time>2021-04-04T09:09:11.027Z</time>
      </trkpt>
      <trkpt lat="45.60682" lon="5.35006">
        <ele>385</ele>
        <time>2021-04-04T09:09:12.028Z</time>
      </trkpt>
      <trkpt lat="45.60684" lon="5.34995">
        <ele>385</ele>
        <time>2021-04-04T09:09:13.027Z</time>
      </trkpt>
      <trkpt lat="45.60687" lon="5.34983">
        <ele>385</ele>
        <time>2021-04-04T09:09:14.028Z</time>
      </trkpt>
      <trkpt lat="45.6069" lon="5.34971">
        <ele>384</ele>
        <time>2021-04-04T09:09:15.027Z</time>
      </trkpt>
      <trkpt lat="45.60693" lon="5.34959">
        <ele>384</ele>
        <time>2021-04-04T09:09:16.028Z</time>
      </trkpt>
      <trkpt lat="45.60696" lon="5.34947">
        <ele>384</ele>
        <time>2021-04-04T09:09:17.028Z</time>
      </trkpt>
      <trkpt lat="45.60699" lon="5.34935">
        <ele>383</ele>
        <time>2021-04-04T09:09:18.028Z</time>
      </trkpt>
      <trkpt lat="45.60701" lon="5.34922">
        <ele>383</ele>
        <time>2021-04-04T09:09:19.028Z</time>
      </trkpt>
      <trkpt lat="45.60704" lon="5.3491">
        <ele>383</ele>
        <time>2021-04-04T09:09:20.028Z</time>
      </trkpt>
      <trkpt lat="45.60707" lon="5.34897">
        <ele>383</ele>
        <time>2021-04-04T09:09:21.028Z</time>
      </trkpt>
      <trkpt lat="45.6071" lon="5.34884">
        <ele>382</ele>
        <time>2021-04-04T09:09:22.028Z</time>
      </trkpt>
      <trkpt lat="45.60713" lon="5.34872">
        <ele>382</ele>
        <time>2021-04-04T09:09:23.027Z</time>
      </trkpt>
      <trkpt lat="45.60715" lon="5.34859">
        <ele>382</ele>
        <time>2021-04-04T09:09:24.028Z</time>
      </trkpt>
      <trkpt lat="45.60718" lon="5.34847">
        <ele>381</ele>
        <time>2021-04-04T09:09:25.028Z</time>
      </trkpt>
      <trkpt lat="45.6072" lon="5.34834">
        <ele>381</ele>
        <time>2021-04-04T09:09:26.028Z</time>
      </trkpt>
      <trkpt lat="45.60722" lon="5.34822">
        <ele>380</ele>
        <time>2021-04-04T09:09:27.027Z</time>
      </trkpt>
      <trkpt lat="45.60725" lon="5.3481">
        <ele>380</ele>
        <time>2021-04-04T09:09:28.027Z</time>
      </trkpt>
      <trkpt lat="45.60727" lon="5.34798">
        <ele>380</ele>
        <time>2021-04-04T09:09:29.027Z</time>
      </trkpt>
      <trkpt lat="45.60729" lon="5.34786">
        <ele>380</ele>
        <time>2021-04-04T09:09:30.028Z</time>
      </trkpt>
      <trkpt lat="45.60731" lon="5.34774">
        <ele>380</ele>
        <time>2021-04-04T09:09:31.028Z</time>
      </trkpt>
      <trkpt lat="45.60733" lon="5.34761">
        <ele>381</ele>
        <time>2021-04-04T09:09:32.028Z</time>
      </trkpt>
      <trkpt lat="45.60735" lon="5.34749">
        <ele>380</ele>
        <time>2021-04-04T09:09:33.028Z</time>
      </trkpt>
      <trkpt lat="45.60737" lon="5.34737">
        <ele>380</ele>
        <time>2021-04-04T09:09:34.028Z</time>
      </trkpt>
      <trkpt lat="45.60738" lon="5.34725">
        <ele>380</ele>
        <time>2021-04-04T09:09:35.028Z</time>
      </trkpt>
      <trkpt lat="45.6074" lon="5.34712">
        <ele>380</ele>
        <time>2021-04-04T09:09:36.027Z</time>
      </trkpt>
      <trkpt lat="45.60742" lon="5.347">
        <ele>379</ele>
        <time>2021-04-04T09:09:37.028Z</time>
      </trkpt>
      <trkpt lat="45.60744" lon="5.34688">
        <ele>379</ele>
        <time>2021-04-04T09:09:38.027Z</time>
      </trkpt>
      <trkpt lat="45.60746" lon="5.34675">
        <ele>378</ele>
        <time>2021-04-04T09:09:39.028Z</time>
      </trkpt>
      <trkpt lat="45.60749" lon="5.34663">
        <ele>378</ele>
        <time>2021-04-04T09:09:40.028Z</time>
      </trkpt>
      <trkpt lat="45.60752" lon="5.34652">
        <ele>378</ele>
        <time>2021-04-04T09:09:41.027Z</time>
      </trkpt>
      <trkpt lat="45.60755" lon="5.3464">
        <ele>378</ele>
        <time>2021-04-04T09:09:42.028Z</time>
      </trkpt>
      <trkpt lat="45.60758" lon="5.34628">
        <ele>378</ele>
        <time>2021-04-04T09:09:43.028Z</time>
      </trkpt>
      <trkpt lat="45.60761" lon="5.34616">
        <ele>377</ele>
        <time>2021-04-04T09:09:44.028Z</time>
      </trkpt>
      <trkpt lat="45.60764" lon="5.34605">
        <ele>377</ele>
        <time>2021-04-04T09:09:45.028Z</time>
      </trkpt>
      <trkpt lat="45.60767" lon="5.34593">
        <ele>377</ele>
        <time>2021-04-04T09:09:46.028Z</time>
      </trkpt>
      <trkpt lat="45.6077" lon="5.34581">
        <ele>377</ele>
        <time>2021-04-04T09:09:47.027Z</time>
      </trkpt>
      <trkpt lat="45.60774" lon="5.3457">
        <ele>377</ele>
        <time>2021-04-04T09:09:48.028Z</time>
      </trkpt>
      <trkpt lat="45.60778" lon="5.34558">
        <ele>377</ele>
        <time>2021-04-04T09:09:49.028Z</time>
      </trkpt>
      <trkpt lat="45.60782" lon="5.34547">
        <ele>377</ele>
        <time>2021-04-04T09:09:50.027Z</time>
      </trkpt>
      <trkpt lat="45.60787" lon="5.34537">
        <ele>377</ele>
        <time>2021-04-04T09:09:51.028Z</time>
      </trkpt>
      <trkpt lat="45.60792" lon="5.34526">
        <ele>377</ele>
        <time>2021-04-04T09:09:52.028Z</time>
      </trkpt>
      <trkpt lat="45.60797" lon="5.34516">
        <ele>376</ele>
        <time>2021-04-04T09:09:53.027Z</time>
      </trkpt>
      <trkpt lat="45.60802" lon="5.34505">
        <ele>376</ele>
        <time>2021-04-04T09:09:54.028Z</time>
      </trkpt>
      <trkpt lat="45.60807" lon="5.34496">
        <ele>376</ele>
        <time>2021-04-04T09:09:55.027Z</time>
      </trkpt>
      <trkpt lat="45.60812" lon="5.34486">
        <ele>376</ele>
        <time>2021-04-04T09:09:56.028Z</time>
      </trkpt>
      <trkpt lat="45.60818" lon="5.34477">
        <ele>376</ele>
        <time>2021-04-04T09:09:57.028Z</time>
      </trkpt>
      <trkpt lat="45.60824" lon="5.34467">
        <ele>376</ele>
        <time>2021-04-04T09:09:58.028Z</time>
      </trkpt>
      <trkpt lat="45.60831" lon="5.34457">
        <ele>375</ele>
        <time>2021-04-04T09:09:59.028Z</time>
      </trkpt>
      <trkpt lat="45.60837" lon="5.34447">
        <ele>375</ele>
        <time>2021-04-04T09:10:00.028Z</time>
      </trkpt>
      <trkpt lat="45.60843" lon="5.34438">
        <ele>374</ele>
        <time>2021-04-04T09:10:01.028Z</time>
      </trkpt>
      <trkpt lat="45.60849" lon="5.34429">
        <ele>374</ele>
        <time>2021-04-04T09:10:02.028Z</time>
      </trkpt>
      <trkpt lat="45.60856" lon="5.3442">
        <ele>373</ele>
        <time>2021-04-04T09:10:03.028Z</time>
      </trkpt>
      <trkpt lat="45.60862" lon="5.34411">
        <ele>373</ele>
        <time>2021-04-04T09:10:04.027Z</time>
      </trkpt>
      <trkpt lat="45.60868" lon="5.34402">
        <ele>372</ele>
        <time>2021-04-04T09:10:05.027Z</time>
      </trkpt>
      <trkpt lat="45.60874" lon="5.34393">
        <ele>372</ele>
        <time>2021-04-04T09:10:06.028Z</time>
      </trkpt>
      <trkpt lat="45.60879" lon="5.34384">
        <ele>372</ele>
        <time>2021-04-04T09:10:07.028Z</time>
      </trkpt>
      <trkpt lat="45.60884" lon="5.34375">
        <ele>372</ele>
        <time>2021-04-04T09:10:08.028Z</time>
      </trkpt>
      <trkpt lat="45.60889" lon="5.34366">
        <ele>372</ele>
        <time>2021-04-04T09:10:09.028Z</time>
      </trkpt>
      <trkpt lat="45.60894" lon="5.34356">
        <ele>371</ele>
        <time>2021-04-04T09:10:10.027Z</time>
      </trkpt>
      <trkpt lat="45.60898" lon="5.34347">
        <ele>370</ele>
        <time>2021-04-04T09:10:11.028Z</time>
      </trkpt>
      <trkpt lat="45.60903" lon="5.34338">
        <ele>369</ele>
        <time>2021-04-04T09:10:12.028Z</time>
      </trkpt>
      <trkpt lat="45.60906" lon="5.34329">
        <ele>369</ele>
        <time>2021-04-04T09:10:13.027Z</time>
      </trkpt>
      <trkpt lat="45.6091" lon="5.3432">
        <ele>368</ele>
        <time>2021-04-04T09:10:14.028Z</time>
      </trkpt>
      <trkpt lat="45.60914" lon="5.34311">
        <ele>367</ele>
        <time>2021-04-04T09:10:15.027Z</time>
      </trkpt>
      <trkpt lat="45.60917" lon="5.34303">
        <ele>367</ele>
        <time>2021-04-04T09:10:16.028Z</time>
      </trkpt>
      <trkpt lat="45.60921" lon="5.34294">
        <ele>367</ele>
        <time>2021-04-04T09:10:17.028Z</time>
      </trkpt>
      <trkpt lat="45.60924" lon="5.34285">
        <ele>367</ele>
        <time>2021-04-04T09:10:18.028Z</time>
      </trkpt>
      <trkpt lat="45.60927" lon="5.34276">
        <ele>366</ele>
        <time>2021-04-04T09:10:19.028Z</time>
      </trkpt>
      <trkpt lat="45.6093" lon="5.34267">
        <ele>366</ele>
        <time>2021-04-04T09:10:20.027Z</time>
      </trkpt>
      <trkpt lat="45.60933" lon="5.34259">
        <ele>366</ele>
        <time>2021-04-04T09:10:21.028Z</time>
      </trkpt>
      <trkpt lat="45.60936" lon="5.3425">
        <ele>366</ele>
        <time>2021-04-04T09:10:22.028Z</time>
      </trkpt>
      <trkpt lat="45.60939" lon="5.34241">
        <ele>367</ele>
        <time>2021-04-04T09:10:23.028Z</time>
      </trkpt>
      <trkpt lat="45.60942" lon="5.34232">
        <ele>367</ele>
        <time>2021-04-04T09:10:24.028Z</time>
      </trkpt>
      <trkpt lat="45.60945" lon="5.34224">
        <ele>367</ele>
        <time>2021-04-04T09:10:25.027Z</time>
      </trkpt>
      <trkpt lat="45.60948" lon="5.34215">
        <ele>367</ele>
        <time>2021-04-04T09:10:26.027Z</time>
      </trkpt>
      <trkpt lat="45.60951" lon="5.34207">
        <ele>368</ele>
        <time>2021-04-04T09:10:27.028Z</time>
      </trkpt>
      <trkpt lat="45.60953" lon="5.34198">
        <ele>368</ele>
        <time>2021-04-04T09:10:28.028Z</time>
      </trkpt>
      <trkpt lat="45.60956" lon="5.3419">
        <ele>368</ele>
        <time>2021-04-04T09:10:29.028Z</time>
      </trkpt>
      <trkpt lat="45.60959" lon="5.34182">
        <ele>368</ele>
        <time>2021-04-04T09:10:30.028Z</time>
      </trkpt>
      <trkpt lat="45.60962" lon="5.34174">
        <ele>368</ele>
        <time>2021-04-04T09:10:31.028Z</time>
      </trkpt>
      <trkpt lat="45.60964" lon="5.34166">
        <ele>368</ele>
        <time>2021-04-04T09:10:32.028Z</time>
      </trkpt>
      <trkpt lat="45.60967" lon="5.34159">
        <ele>369</ele>
        <time>2021-04-04T09:10:33.028Z</time>
      </trkpt>
      <trkpt lat="45.60969" lon="5.34153">
        <ele>369</ele>
        <time>2021-04-04T09:10:34.027Z</time>
      </trkpt>
      <trkpt lat="45.60972" lon="5.34147">
        <ele>369</ele>
        <time>2021-04-04T09:10:35.028Z</time>
      </trkpt>
      <trkpt lat="45.60975" lon="5.34141">
        <ele>370</ele>
        <time>2021-04-04T09:10:36.027Z</time>
      </trkpt>
      <trkpt lat="45.60978" lon="5.34135">
        <ele>370</ele>
        <time>2021-04-04T09:10:37.027Z</time>
      </trkpt>
      <trkpt lat="45.60982" lon="5.34129">
        <ele>371</ele>
        <time>2021-04-04T09:10:38.027Z</time>
      </trkpt>
      <trkpt lat="45.60986" lon="5.34122">
        <ele>372</ele>
        <time>2021-04-04T09:10:39.028Z</time>
      </trkpt>
      <trkpt lat="45.6099" lon="5.34115">
        <ele>372</ele>
        <time>2021-04-04T09:10:40.027Z</time>
      </trkpt>
      <trkpt lat="45.60994" lon="5.34109">
        <ele>373</ele>
        <time>2021-04-04T09:10:41.028Z</time>
      </trkpt>
      <trkpt lat="45.60998" lon="5.34102">
        <ele>373</ele>
        <time>2021-04-04T09:10:42.027Z</time>
      </trkpt>
      <trkpt lat="45.61003" lon="5.34095">
        <ele>373</ele>
        <time>2021-04-04T09:10:43.028Z</time>
      </trkpt>
      <trkpt lat="45.61007" lon="5.34089">
        <ele>374</ele>
        <time>2021-04-04T09:10:44.028Z</time>
      </trkpt>
      <trkpt lat="45.61011" lon="5.34082">
        <ele>374</ele>
        <time>2021-04-04T09:10:45.027Z</time>
      </trkpt>
      <trkpt lat="45.61016" lon="5.34076">
        <ele>374</ele>
        <time>2021-04-04T09:10:46.028Z</time>
      </trkpt>
      <trkpt lat="45.61021" lon="5.34069">
        <ele>374</ele>
        <time>2021-04-04T09:10:47.027Z</time>
      </trkpt>
      <trkpt lat="45.61025" lon="5.34062">
        <ele>374</ele>
        <time>2021-04-04T09:10:48.027Z</time>
      </trkpt>
      <trkpt lat="45.6103" lon="5.34055">
        <ele>373</ele>
        <time>2021-04-04T09:10:49.028Z</time>
      </trkpt>
      <trkpt lat="45.61034" lon="5.3405">
        <ele>373</ele>
        <time>2021-04-04T09:10:50.028Z</time>
      </trkpt>
      <trkpt lat="45.61039" lon="5.34044">
        <ele>373</ele>
        <time>2021-04-04T09:10:51.028Z</time>
      </trkpt>
      <trkpt lat="45.61043" lon="5.34039">
        <ele>373</ele>
        <time>2021-04-04T09:10:52.027Z</time>
      </trkpt>
      <trkpt lat="45.61048" lon="5.34034">
        <ele>374</ele>
        <time>2021-04-04T09:10:53.027Z</time>
      </trkpt>
      <trkpt lat="45.61052" lon="5.3403">
        <ele>374</ele>
        <time>2021-04-04T09:10:54.028Z</time>
      </trkpt>
      <trkpt lat="45.61057" lon="5.34024">
        <ele>373</ele>
        <time>2021-04-04T09:10:55.028Z</time>
      </trkpt>
      <trkpt lat="45.61061" lon="5.34018">
        <ele>373</ele>
        <time>2021-04-04T09:10:56.028Z</time>
      </trkpt>
      <trkpt lat="45.61065" lon="5.34012">
        <ele>373</ele>
        <time>2021-04-04T09:10:57.028Z</time>
      </trkpt>
      <trkpt lat="45.61069" lon="5.34005">
        <ele>372</ele>
        <time>2021-04-04T09:10:58.027Z</time>
      </trkpt>
      <trkpt lat="45.61074" lon="5.33997">
        <ele>372</ele>
        <time>2021-04-04T09:10:59.027Z</time>
      </trkpt>
      <trkpt lat="45.61079" lon="5.3399">
        <ele>372</ele>
        <time>2021-04-04T09:11:00.028Z</time>
      </trkpt>
      <trkpt lat="45.61084" lon="5.33983">
        <ele>371</ele>
        <time>2021-04-04T09:11:01.028Z</time>
      </trkpt>
      <trkpt lat="45.61089" lon="5.33976">
        <ele>371</ele>
        <time>2021-04-04T09:11:02.027Z</time>
      </trkpt>
      <trkpt lat="45.61094" lon="5.33969">
        <ele>371</ele>
        <time>2021-04-04T09:11:03.027Z</time>
      </trkpt>
      <trkpt lat="45.611" lon="5.33961">
        <ele>370</ele>
        <time>2021-04-04T09:11:04.028Z</time>
      </trkpt>
      <trkpt lat="45.61105" lon="5.33953">
        <ele>370</ele>
        <time>2021-04-04T09:11:05.028Z</time>
      </trkpt>
      <trkpt lat="45.6111" lon="5.33945">
        <ele>369</ele>
        <time>2021-04-04T09:11:06.028Z</time>
      </trkpt>
      <trkpt lat="45.61114" lon="5.33936">
        <ele>370</ele>
        <time>2021-04-04T09:11:07.027Z</time>
      </trkpt>
      <trkpt lat="45.61119" lon="5.33927">
        <ele>369</ele>
        <time>2021-04-04T09:11:08.027Z</time>
      </trkpt>
      <trkpt lat="45.61123" lon="5.33917">
        <ele>369</ele>
        <time>2021-04-04T09:11:09.028Z</time>
      </trkpt>
      <trkpt lat="45.61127" lon="5.33908">
        <ele>369</ele>
        <time>2021-04-04T09:11:10.027Z</time>
      </trkpt>
      <trkpt lat="45.61132" lon="5.33898">
        <ele>370</ele>
        <time>2021-04-04T09:11:11.028Z</time>
      </trkpt>
      <trkpt lat="45.61136" lon="5.33889">
        <ele>370</ele>
        <time>2021-04-04T09:11:12.028Z</time>
      </trkpt>
      <trkpt lat="45.61141" lon="5.3388">
        <ele>370</ele>
        <time>2021-04-04T09:11:13.028Z</time>
      </trkpt>
      <trkpt lat="45.61146" lon="5.33871">
        <ele>370</ele>
        <time>2021-04-04T09:11:14.027Z</time>
      </trkpt>
      <trkpt lat="45.61151" lon="5.33862">
        <ele>370</ele>
        <time>2021-04-04T09:11:15.028Z</time>
      </trkpt>
      <trkpt lat="45.61156" lon="5.33854">
        <ele>370</ele>
        <time>2021-04-04T09:11:16.028Z</time>
      </trkpt>
      <trkpt lat="45.61162" lon="5.33847">
        <ele>370</ele>
        <time>2021-04-04T09:11:17.028Z</time>
      </trkpt>
      <trkpt lat="45.61168" lon="5.33839">
        <ele>370</ele>
        <time>2021-04-04T09:11:18.028Z</time>
      </trkpt>
      <trkpt lat="45.61174" lon="5.33831">
        <ele>369</ele>
        <time>2021-04-04T09:11:19.028Z</time>
      </trkpt>
      <trkpt lat="45.6118" lon="5.33824">
        <ele>369</ele>
        <time>2021-04-04T09:11:20.027Z</time>
      </trkpt>
      <trkpt lat="45.61186" lon="5.33816">
        <ele>369</ele>
        <time>2021-04-04T09:11:21.028Z</time>
      </trkpt>
      <trkpt lat="45.61192" lon="5.33809">
        <ele>368</ele>
        <time>2021-04-04T09:11:22.028Z</time>
      </trkpt>
      <trkpt lat="45.61198" lon="5.33801">
        <ele>368</ele>
        <time>2021-04-04T09:11:23.028Z</time>
      </trkpt>
      <trkpt lat="45.61204" lon="5.33793">
        <ele>368</ele>
        <time>2021-04-04T09:11:24.027Z</time>
      </trkpt>
      <trkpt lat="45.6121" lon="5.33785">
        <ele>368</ele>
        <time>2021-04-04T09:11:25.027Z</time>
      </trkpt>
      <trkpt lat="45.61216" lon="5.33777">
        <ele>369</ele>
        <time>2021-04-04T09:11:26.028Z</time>
      </trkpt>
      <trkpt lat="45.61222" lon="5.33769">
        <ele>369</ele>
        <time>2021-04-04T09:11:27.028Z</time>
      </trkpt>
      <trkpt lat="45.61228" lon="5.33761">
        <ele>369</ele>
        <time>2021-04-04T09:11:28.028Z</time>
      </trkpt>
      <trkpt lat="45.61235" lon="5.33754">
        <ele>369</ele>
        <time>2021-04-04T09:11:29.027Z</time>
      </trkpt>
      <trkpt lat="45.61241" lon="5.33747">
        <ele>369</ele>
        <time>2021-04-04T09:11:30.028Z</time>
      </trkpt>
      <trkpt lat="45.61248" lon="5.33741">
        <ele>369</ele>
        <time>2021-04-04T09:11:31.028Z</time>
      </trkpt>
      <trkpt lat="45.61254" lon="5.33735">
        <ele>369</ele>
        <time>2021-04-04T09:11:32.027Z</time>
      </trkpt>
      <trkpt lat="45.61261" lon="5.33729">
        <ele>369</ele>
        <time>2021-04-04T09:11:33.027Z</time>
      </trkpt>
      <trkpt lat="45.61267" lon="5.33723">
        <ele>368</ele>
        <time>2021-04-04T09:11:34.028Z</time>
      </trkpt>
      <trkpt lat="45.61273" lon="5.33717">
        <ele>368</ele>
        <time>2021-04-04T09:11:35.028Z</time>
      </trkpt>
      <trkpt lat="45.61279" lon="5.33711">
        <ele>368</ele>
        <time>2021-04-04T09:11:36.028Z</time>
      </trkpt>
      <trkpt lat="45.61285" lon="5.33705">
        <ele>368</ele>
        <time>2021-04-04T09:11:37.027Z</time>
      </trkpt>
      <trkpt lat="45.6129" lon="5.33701">
        <ele>368</ele>
        <time>2021-04-04T09:11:38.027Z</time>
      </trkpt>
      <trkpt lat="45.61294" lon="5.33698">
        <ele>368</ele>
        <time>2021-04-04T09:11:39.028Z</time>
      </trkpt>
      <trkpt lat="45.61299" lon="5.33694">
        <ele>368</ele>
        <time>2021-04-04T09:11:40.027Z</time>
      </trkpt>
      <trkpt lat="45.61302" lon="5.33691">
        <ele>368</ele>
        <time>2021-04-04T09:11:41.028Z</time>
      </trkpt>
      <trkpt lat="45.61305" lon="5.33686">
        <ele>368</ele>
        <time>2021-04-04T09:11:42.028Z</time>
      </trkpt>
      <trkpt lat="45.61308" lon="5.33681">
        <ele>367</ele>
        <time>2021-04-04T09:11:43.028Z</time>
      </trkpt>
      <trkpt lat="45.61311" lon="5.33674">
        <ele>367</ele>
        <time>2021-04-04T09:11:44.027Z</time>
      </trkpt>
      <trkpt lat="45.61313" lon="5.33669">
        <ele>367</ele>
        <time>2021-04-04T09:11:45.027Z</time>
      </trkpt>
      <trkpt lat="45.61316" lon="5.33662">
        <ele>367</ele>
        <time>2021-04-04T09:11:46.028Z</time>
      </trkpt>
      <trkpt lat="45.61319" lon="5.33655">
        <ele>367</ele>
        <time>2021-04-04T09:11:47.028Z</time>
      </trkpt>
      <trkpt lat="45.61322" lon="5.33647">
        <ele>367</ele>
        <time>2021-04-04T09:11:48.027Z</time>
      </trkpt>
      <trkpt lat="45.61326" lon="5.33638">
        <ele>367</ele>
        <time>2021-04-04T09:11:49.027Z</time>
      </trkpt>
      <trkpt lat="45.6133" lon="5.33629">
        <ele>367</ele>
        <time>2021-04-04T09:11:50.027Z</time>
      </trkpt>
      <trkpt lat="45.61334" lon="5.33619">
        <ele>367</ele>
        <time>2021-04-04T09:11:51.027Z</time>
      </trkpt>
      <trkpt lat="45.61337" lon="5.3361">
        <ele>367</ele>
        <time>2021-04-04T09:11:52.028Z</time>
      </trkpt>
      <trkpt lat="45.6134" lon="5.336">
        <ele>367</ele>
        <time>2021-04-04T09:11:53.027Z</time>
      </trkpt>
      <trkpt lat="45.61344" lon="5.3359">
        <ele>367</ele>
        <time>2021-04-04T09:11:54.027Z</time>
      </trkpt>
      <trkpt lat="45.61347" lon="5.3358">
        <ele>367</ele>
        <time>2021-04-04T09:11:55.028Z</time>
      </trkpt>
      <trkpt lat="45.61351" lon="5.3357">
        <ele>367</ele>
        <time>2021-04-04T09:11:56.028Z</time>
      </trkpt>
      <trkpt lat="45.61354" lon="5.3356">
        <ele>367</ele>
        <time>2021-04-04T09:11:57.027Z</time>
      </trkpt>
      <trkpt lat="45.61358" lon="5.33551">
        <ele>367</ele>
        <time>2021-04-04T09:11:58.027Z</time>
      </trkpt>
      <trkpt lat="45.61361" lon="5.33541">
        <ele>367</ele>
        <time>2021-04-04T09:11:59.027Z</time>
      </trkpt>
      <trkpt lat="45.61365" lon="5.3353">
        <ele>366</ele>
        <time>2021-04-04T09:12:00.027Z</time>
      </trkpt>
      <trkpt lat="45.61368" lon="5.3352">
        <ele>366</ele>
        <time>2021-04-04T09:12:01.027Z</time>
      </trkpt>
      <trkpt lat="45.61372" lon="5.3351">
        <ele>366</ele>
        <time>2021-04-04T09:12:02.027Z</time>
      </trkpt>
      <trkpt lat="45.61375" lon="5.335">
        <ele>366</ele>
        <time>2021-04-04T09:12:03.027Z</time>
      </trkpt>
      <trkpt lat="45.61379" lon="5.3349">
        <ele>366</ele>
        <time>2021-04-04T09:12:04.027Z</time>
      </trkpt>
      <trkpt lat="45.61382" lon="5.3348">
        <ele>366</ele>
        <time>2021-04-04T09:12:05.027Z</time>
      </trkpt>
      <trkpt lat="45.61385" lon="5.3347">
        <ele>366</ele>
        <time>2021-04-04T09:12:06.028Z</time>
      </trkpt>
      <trkpt lat="45.61388" lon="5.3346">
        <ele>365</ele>
        <time>2021-04-04T09:12:07.027Z</time>
      </trkpt>
      <trkpt lat="45.61391" lon="5.33451">
        <ele>365</ele>
        <time>2021-04-04T09:12:08.027Z</time>
      </trkpt>
      <trkpt lat="45.61395" lon="5.33441">
        <ele>365</ele>
        <time>2021-04-04T09:12:09.027Z</time>
      </trkpt>
      <trkpt lat="45.61398" lon="5.33431">
        <ele>364</ele>
        <time>2021-04-04T09:12:10.028Z</time>
      </trkpt>
      <trkpt lat="45.61402" lon="5.33421">
        <ele>364</ele>
        <time>2021-04-04T09:12:11.028Z</time>
      </trkpt>
      <trkpt lat="45.61405" lon="5.33412">
        <ele>364</ele>
        <time>2021-04-04T09:12:12.027Z</time>
      </trkpt>
      <trkpt lat="45.61409" lon="5.33402">
        <ele>363</ele>
        <time>2021-04-04T09:12:13.028Z</time>
      </trkpt>
      <trkpt lat="45.61412" lon="5.33393">
        <ele>363</ele>
        <time>2021-04-04T09:12:14.027Z</time>
      </trkpt>
      <trkpt lat="45.61416" lon="5.33384">
        <ele>363</ele>
        <time>2021-04-04T09:12:15.028Z</time>
      </trkpt>
      <trkpt lat="45.61419" lon="5.33375">
        <ele>363</ele>
        <time>2021-04-04T09:12:16.027Z</time>
      </trkpt>
      <trkpt lat="45.61422" lon="5.33366">
        <ele>363</ele>
        <time>2021-04-04T09:12:17.027Z</time>
      </trkpt>
      <trkpt lat="45.61426" lon="5.33357">
        <ele>363</ele>
        <time>2021-04-04T09:12:18.028Z</time>
      </trkpt>
      <trkpt lat="45.61429" lon="5.33349">
        <ele>363</ele>
        <time>2021-04-04T09:12:19.027Z</time>
      </trkpt>
      <trkpt lat="45.61432" lon="5.3334">
        <ele>362</ele>
        <time>2021-04-04T09:12:20.028Z</time>
      </trkpt>
      <trkpt lat="45.61434" lon="5.33331">
        <ele>363</ele>
        <time>2021-04-04T09:12:21.027Z</time>
      </trkpt>
      <trkpt lat="45.61437" lon="5.33322">
        <ele>363</ele>
        <time>2021-04-04T09:12:22.027Z</time>
      </trkpt>
      <trkpt lat="45.6144" lon="5.33314">
        <ele>363</ele>
        <time>2021-04-04T09:12:23.027Z</time>
      </trkpt>
      <trkpt lat="45.61443" lon="5.33305">
        <ele>363</ele>
        <time>2021-04-04T09:12:24.027Z</time>
      </trkpt>
      <trkpt lat="45.61446" lon="5.33296">
        <ele>363</ele>
        <time>2021-04-04T09:12:25.027Z</time>
      </trkpt>
      <trkpt lat="45.61449" lon="5.33286">
        <ele>363</ele>
        <time>2021-04-04T09:12:26.027Z</time>
      </trkpt>
      <trkpt lat="45.61451" lon="5.33277">
        <ele>363</ele>
        <time>2021-04-04T09:12:27.027Z</time>
      </trkpt>
      <trkpt lat="45.61454" lon="5.33267">
        <ele>363</ele>
        <time>2021-04-04T09:12:28.027Z</time>
      </trkpt>
      <trkpt lat="45.61457" lon="5.33258">
        <ele>363</ele>
        <time>2021-04-04T09:12:29.027Z</time>
      </trkpt>
      <trkpt lat="45.6146" lon="5.33249">
        <ele>363</ele>
        <time>2021-04-04T09:12:30.027Z</time>
      </trkpt>
      <trkpt lat="45.61463" lon="5.3324">
        <ele>363</ele>
        <time>2021-04-04T09:12:31.027Z</time>
      </trkpt>
      <trkpt lat="45.61466" lon="5.33231">
        <ele>363</ele>
        <time>2021-04-04T09:12:32.028Z</time>
      </trkpt>
      <trkpt lat="45.61469" lon="5.33222">
        <ele>363</ele>
        <time>2021-04-04T09:12:33.028Z</time>
      </trkpt>
      <trkpt lat="45.61473" lon="5.33213">
        <ele>363</ele>
        <time>2021-04-04T09:12:34.027Z</time>
      </trkpt>
      <trkpt lat="45.61476" lon="5.33204">
        <ele>363</ele>
        <time>2021-04-04T09:12:35.027Z</time>
      </trkpt>
      <trkpt lat="45.6148" lon="5.33194">
        <ele>362</ele>
        <time>2021-04-04T09:12:36.027Z</time>
      </trkpt>
      <trkpt lat="45.61483" lon="5.33185">
        <ele>362</ele>
        <time>2021-04-04T09:12:37.027Z</time>
      </trkpt>
      <trkpt lat="45.61488" lon="5.33176">
        <ele>362</ele>
        <time>2021-04-04T09:12:38.028Z</time>
      </trkpt>
      <trkpt lat="45.61492" lon="5.33166">
        <ele>361</ele>
        <time>2021-04-04T09:12:39.028Z</time>
      </trkpt>
      <trkpt lat="45.61496" lon="5.33156">
        <ele>361</ele>
        <time>2021-04-04T09:12:40.027Z</time>
      </trkpt>
      <trkpt lat="45.61501" lon="5.33146">
        <ele>360</ele>
        <time>2021-04-04T09:12:41.028Z</time>
      </trkpt>
      <trkpt lat="45.61506" lon="5.33136">
        <ele>360</ele>
        <time>2021-04-04T09:12:42.028Z</time>
      </trkpt>
      <trkpt lat="45.61511" lon="5.33126">
        <ele>359</ele>
        <time>2021-04-04T09:12:43.027Z</time>
      </trkpt>
      <trkpt lat="45.61515" lon="5.33115">
        <ele>359</ele>
        <time>2021-04-04T09:12:44.028Z</time>
      </trkpt>
      <trkpt lat="45.6152" lon="5.33104">
        <ele>358</ele>
        <time>2021-04-04T09:12:45.027Z</time>
      </trkpt>
      <trkpt lat="45.61525" lon="5.33093">
        <ele>358</ele>
        <time>2021-04-04T09:12:46.028Z</time>
      </trkpt>
      <trkpt lat="45.6153" lon="5.33082">
        <ele>358</ele>
        <time>2021-04-04T09:12:47.028Z</time>
      </trkpt>
      <trkpt lat="45.61535" lon="5.3307">
        <ele>357</ele>
        <time>2021-04-04T09:12:48.028Z</time>
      </trkpt>
      <trkpt lat="45.61541" lon="5.33059">
        <ele>357</ele>
        <time>2021-04-04T09:12:49.028Z</time>
      </trkpt>
      <trkpt lat="45.61546" lon="5.33048">
        <ele>356</ele>
        <time>2021-04-04T09:12:50.028Z</time>
      </trkpt>
      <trkpt lat="45.61551" lon="5.33036">
        <ele>355</ele>
        <time>2021-04-04T09:12:51.028Z</time>
      </trkpt>
      <trkpt lat="45.61557" lon="5.33024">
        <ele>354</ele>
        <time>2021-04-04T09:12:52.027Z</time>
      </trkpt>
      <trkpt lat="45.61563" lon="5.33012">
        <ele>354</ele>
        <time>2021-04-04T09:12:53.028Z</time>
      </trkpt>
      <trkpt lat="45.61568" lon="5.33">
        <ele>353</ele>
        <time>2021-04-04T09:12:54.028Z</time>
      </trkpt>
      <trkpt lat="45.61574" lon="5.32988">
        <ele>353</ele>
        <time>2021-04-04T09:12:55.027Z</time>
      </trkpt>
      <trkpt lat="45.6158" lon="5.32975">
        <ele>353</ele>
        <time>2021-04-04T09:12:56.027Z</time>
      </trkpt>
      <trkpt lat="45.61586" lon="5.32963">
        <ele>352</ele>
        <time>2021-04-04T09:12:57.028Z</time>
      </trkpt>
      <trkpt lat="45.61592" lon="5.32951">
        <ele>352</ele>
        <time>2021-04-04T09:12:58.028Z</time>
      </trkpt>
      <trkpt lat="45.61598" lon="5.32939">
        <ele>352</ele>
        <time>2021-04-04T09:12:59.028Z</time>
      </trkpt>
      <trkpt lat="45.61603" lon="5.32926">
        <ele>351</ele>
        <time>2021-04-04T09:13:00.028Z</time>
      </trkpt>
      <trkpt lat="45.61609" lon="5.32914">
        <ele>351</ele>
        <time>2021-04-04T09:13:01.027Z</time>
      </trkpt>
      <trkpt lat="45.61614" lon="5.32903">
        <ele>350</ele>
        <time>2021-04-04T09:13:02.028Z</time>
      </trkpt>
      <trkpt lat="45.61619" lon="5.32891">
        <ele>350</ele>
        <time>2021-04-04T09:13:03.028Z</time>
      </trkpt>
      <trkpt lat="45.61624" lon="5.32879">
        <ele>350</ele>
        <time>2021-04-04T09:13:04.027Z</time>
      </trkpt>
      <trkpt lat="45.61629" lon="5.32868">
        <ele>350</ele>
        <time>2021-04-04T09:13:05.027Z</time>
      </trkpt>
      <trkpt lat="45.61633" lon="5.32857">
        <ele>349</ele>
        <time>2021-04-04T09:13:06.028Z</time>
      </trkpt>
      <trkpt lat="45.61637" lon="5.32846">
        <ele>349</ele>
        <time>2021-04-04T09:13:07.027Z</time>
      </trkpt>
      <trkpt lat="45.61641" lon="5.32835">
        <ele>349</ele>
        <time>2021-04-04T09:13:08.028Z</time>
      </trkpt>
      <trkpt lat="45.61644" lon="5.32824">
        <ele>348</ele>
        <time>2021-04-04T09:13:09.028Z</time>
      </trkpt>
      <trkpt lat="45.61648" lon="5.32813">
        <ele>348</ele>
        <time>2021-04-04T09:13:10.028Z</time>
      </trkpt>
      <trkpt lat="45.61651" lon="5.32802">
        <ele>348</ele>
        <time>2021-04-04T09:13:11.027Z</time>
      </trkpt>
      <trkpt lat="45.61654" lon="5.32791">
        <ele>347</ele>
        <time>2021-04-04T09:13:12.028Z</time>
      </trkpt>
      <trkpt lat="45.61658" lon="5.32781">
        <ele>347</ele>
        <time>2021-04-04T09:13:13.028Z</time>
      </trkpt>
      <trkpt lat="45.61661" lon="5.32771">
        <ele>347</ele>
        <time>2021-04-04T09:13:14.028Z</time>
      </trkpt>
      <trkpt lat="45.61664" lon="5.32761">
        <ele>347</ele>
        <time>2021-04-04T09:13:15.028Z</time>
      </trkpt>
      <trkpt lat="45.61667" lon="5.32751">
        <ele>347</ele>
        <time>2021-04-04T09:13:16.027Z</time>
      </trkpt>
      <trkpt lat="45.6167" lon="5.32741">
        <ele>346</ele>
        <time>2021-04-04T09:13:17.028Z</time>
      </trkpt>
      <trkpt lat="45.61673" lon="5.32731">
        <ele>346</ele>
        <time>2021-04-04T09:13:18.028Z</time>
      </trkpt>
      <trkpt lat="45.61676" lon="5.32721">
        <ele>346</ele>
        <time>2021-04-04T09:13:19.028Z</time>
      </trkpt>
      <trkpt lat="45.61678" lon="5.32711">
        <ele>347</ele>
        <time>2021-04-04T09:13:20.028Z</time>
      </trkpt>
      <trkpt lat="45.6168" lon="5.327">
        <ele>347</ele>
        <time>2021-04-04T09:13:21.028Z</time>
      </trkpt>
      <trkpt lat="45.61682" lon="5.3269">
        <ele>347</ele>
        <time>2021-04-04T09:13:22.027Z</time>
      </trkpt>
      <trkpt lat="45.61684" lon="5.3268">
        <ele>347</ele>
        <time>2021-04-04T09:13:23.028Z</time>
      </trkpt>
      <trkpt lat="45.61686" lon="5.3267">
        <ele>347</ele>
        <time>2021-04-04T09:13:24.028Z</time>
      </trkpt>
      <trkpt lat="45.61688" lon="5.32659">
        <ele>347</ele>
        <time>2021-04-04T09:13:25.028Z</time>
      </trkpt>
      <trkpt lat="45.6169" lon="5.32649">
        <ele>347</ele>
        <time>2021-04-04T09:13:26.028Z</time>
      </trkpt>
      <trkpt lat="45.61692" lon="5.32639">
        <ele>346</ele>
        <time>2021-04-04T09:13:27.028Z</time>
      </trkpt>
      <trkpt lat="45.61693" lon="5.32629">
        <ele>346</ele>
        <time>2021-04-04T09:13:28.028Z</time>
      </trkpt>
      <trkpt lat="45.61695" lon="5.32619">
        <ele>346</ele>
        <time>2021-04-04T09:13:29.028Z</time>
      </trkpt>
      <trkpt lat="45.61697" lon="5.32609">
        <ele>345</ele>
        <time>2021-04-04T09:13:30.028Z</time>
      </trkpt>
      <trkpt lat="45.617" lon="5.32601">
        <ele>345</ele>
        <time>2021-04-04T09:13:31.028Z</time>
      </trkpt>
      <trkpt lat="45.61702" lon="5.32594">
        <ele>345</ele>
        <time>2021-04-04T09:13:32.028Z</time>
      </trkpt>
      <trkpt lat="45.61703" lon="5.32589">
        <ele>345</ele>
        <time>2021-04-04T09:13:33.027Z</time>
      </trkpt>
      <trkpt lat="45.61705" lon="5.32585">
        <ele>345</ele>
        <time>2021-04-04T09:13:34.028Z</time>
      </trkpt>
      <trkpt lat="45.61706" lon="5.32581">
        <ele>345</ele>
        <time>2021-04-04T09:13:35.028Z</time>
      </trkpt>
      <trkpt lat="45.61707" lon="5.32577">
        <ele>345</ele>
        <time>2021-04-04T09:13:36.028Z</time>
      </trkpt>
      <trkpt lat="45.61708" lon="5.32573">
        <ele>345</ele>
        <time>2021-04-04T09:13:37.028Z</time>
      </trkpt>
      <trkpt lat="45.6171" lon="5.32569">
        <ele>345</ele>
        <time>2021-04-04T09:13:38.028Z</time>
      </trkpt>
      <trkpt lat="45.61712" lon="5.32565">
        <ele>346</ele>
        <time>2021-04-04T09:13:39.028Z</time>
      </trkpt>
      <trkpt lat="45.61714" lon="5.3256">
        <ele>346</ele>
        <time>2021-04-04T09:13:40.027Z</time>
      </trkpt>
      <trkpt lat="45.61717" lon="5.32555">
        <ele>347</ele>
        <time>2021-04-04T09:13:41.027Z</time>
      </trkpt>
      <trkpt lat="45.6172" lon="5.3255">
        <ele>347</ele>
        <time>2021-04-04T09:13:42.028Z</time>
      </trkpt>
      <trkpt lat="45.61723" lon="5.32544">
        <ele>347</ele>
        <time>2021-04-04T09:13:43.028Z</time>
      </trkpt>
      <trkpt lat="45.61726" lon="5.32538">
        <ele>346</ele>
        <time>2021-04-04T09:13:44.028Z</time>
      </trkpt>
      <trkpt lat="45.6173" lon="5.32532">
        <ele>346</ele>
        <time>2021-04-04T09:13:45.028Z</time>
      </trkpt>
      <trkpt lat="45.61733" lon="5.32526">
        <ele>346</ele>
        <time>2021-04-04T09:13:46.028Z</time>
      </trkpt>
      <trkpt lat="45.61736" lon="5.32521">
        <ele>346</ele>
        <time>2021-04-04T09:13:47.028Z</time>
      </trkpt>
      <trkpt lat="45.61739" lon="5.32517">
        <ele>346</ele>
        <time>2021-04-04T09:13:48.027Z</time>
      </trkpt>
      <trkpt lat="45.61742" lon="5.32512">
        <ele>346</ele>
        <time>2021-04-04T09:13:49.028Z</time>
      </trkpt>
      <trkpt lat="45.61744" lon="5.32508">
        <ele>345</ele>
        <time>2021-04-04T09:13:50.027Z</time>
      </trkpt>
      <trkpt lat="45.61747" lon="5.32503">
        <ele>345</ele>
        <time>2021-04-04T09:13:51.028Z</time>
      </trkpt>
      <trkpt lat="45.6175" lon="5.32499">
        <ele>346</ele>
        <time>2021-04-04T09:13:52.028Z</time>
      </trkpt>
      <trkpt lat="45.61753" lon="5.32495">
        <ele>346</ele>
        <time>2021-04-04T09:13:53.028Z</time>
      </trkpt>
      <trkpt lat="45.61755" lon="5.32492">
        <ele>346</ele>
        <time>2021-04-04T09:13:54.028Z</time>
      </trkpt>
      <trkpt lat="45.61757" lon="5.32488">
        <ele>346</ele>
        <time>2021-04-04T09:13:55.027Z</time>
      </trkpt>
      <trkpt lat="45.6176" lon="5.32484">
        <ele>346</ele>
        <time>2021-04-04T09:13:56.028Z</time>
      </trkpt>
      <trkpt lat="45.61762" lon="5.32481">
        <ele>347</ele>
        <time>2021-04-04T09:13:57.028Z</time>
      </trkpt>
      <trkpt lat="45.61765" lon="5.32476">
        <ele>347</ele>
        <time>2021-04-04T09:13:58.028Z</time>
      </trkpt>
      <trkpt lat="45.61767" lon="5.32471">
        <ele>347</ele>
        <time>2021-04-04T09:13:59.028Z</time>
      </trkpt>
      <trkpt lat="45.61769" lon="5.32464">
        <ele>348</ele>
        <time>2021-04-04T09:14:00.028Z</time>
      </trkpt>
      <trkpt lat="45.61771" lon="5.32457">
        <ele>349</ele>
        <time>2021-04-04T09:14:01.027Z</time>
      </trkpt>
      <trkpt lat="45.61771" lon="5.32448">
        <ele>349</ele>
        <time>2021-04-04T09:14:02.027Z</time>
      </trkpt>
      <trkpt lat="45.61771" lon="5.3244">
        <ele>349</ele>
        <time>2021-04-04T09:14:03.028Z</time>
      </trkpt>
      <trkpt lat="45.6177" lon="5.32432">
        <ele>349</ele>
        <time>2021-04-04T09:14:04.028Z</time>
      </trkpt>
      <trkpt lat="45.61769" lon="5.32424">
        <ele>349</ele>
        <time>2021-04-04T09:14:05.027Z</time>
      </trkpt>
      <trkpt lat="45.61767" lon="5.32415">
        <ele>348</ele>
        <time>2021-04-04T09:14:06.028Z</time>
      </trkpt>
      <trkpt lat="45.61766" lon="5.32406">
        <ele>348</ele>
        <time>2021-04-04T09:14:07.027Z</time>
      </trkpt>
      <trkpt lat="45.61765" lon="5.32397">
        <ele>348</ele>
        <time>2021-04-04T09:14:08.028Z</time>
      </trkpt>
      <trkpt lat="45.61764" lon="5.32389">
        <ele>348</ele>
        <time>2021-04-04T09:14:09.027Z</time>
      </trkpt>
      <trkpt lat="45.61763" lon="5.32379">
        <ele>348</ele>
        <time>2021-04-04T09:14:10.028Z</time>
      </trkpt>
      <trkpt lat="45.61763" lon="5.3237">
        <ele>348</ele>
        <time>2021-04-04T09:14:11.028Z</time>
      </trkpt>
      <trkpt lat="45.61762" lon="5.3236">
        <ele>348</ele>
        <time>2021-04-04T09:14:12.028Z</time>
      </trkpt>
      <trkpt lat="45.6176" lon="5.32351">
        <ele>348</ele>
        <time>2021-04-04T09:14:13.028Z</time>
      </trkpt>
      <trkpt lat="45.61759" lon="5.32342">
        <ele>348</ele>
        <time>2021-04-04T09:14:14.028Z</time>
      </trkpt>
      <trkpt lat="45.61756" lon="5.32332">
        <ele>349</ele>
        <time>2021-04-04T09:14:15.027Z</time>
      </trkpt>
      <trkpt lat="45.61753" lon="5.32322">
        <ele>348</ele>
        <time>2021-04-04T09:14:16.028Z</time>
      </trkpt>
      <trkpt lat="45.6175" lon="5.32313">
        <ele>348</ele>
        <time>2021-04-04T09:14:17.028Z</time>
      </trkpt>
      <trkpt lat="45.61746" lon="5.32304">
        <ele>348</ele>
        <time>2021-04-04T09:14:18.028Z</time>
      </trkpt>
      <trkpt lat="45.61743" lon="5.32294">
        <ele>348</ele>
        <time>2021-04-04T09:14:19.027Z</time>
      </trkpt>
      <trkpt lat="45.61741" lon="5.32283">
        <ele>348</ele>
        <time>2021-04-04T09:14:20.027Z</time>
      </trkpt>
      <trkpt lat="45.6174" lon="5.32272">
        <ele>348</ele>
        <time>2021-04-04T09:14:21.028Z</time>
      </trkpt>
      <trkpt lat="45.61739" lon="5.32261">
        <ele>347</ele>
        <time>2021-04-04T09:14:22.027Z</time>
      </trkpt>
      <trkpt lat="45.61739" lon="5.3225">
        <ele>346</ele>
        <time>2021-04-04T09:14:23.027Z</time>
      </trkpt>
      <trkpt lat="45.61739" lon="5.32239">
        <ele>345</ele>
        <time>2021-04-04T09:14:24.027Z</time>
      </trkpt>
      <trkpt lat="45.61739" lon="5.32229">
        <ele>344</ele>
        <time>2021-04-04T09:14:25.028Z</time>
      </trkpt>
      <trkpt lat="45.61741" lon="5.3222">
        <ele>344</ele>
        <time>2021-04-04T09:14:26.027Z</time>
      </trkpt>
      <trkpt lat="45.61744" lon="5.32212">
        <ele>343</ele>
        <time>2021-04-04T09:14:27.028Z</time>
      </trkpt>
      <trkpt lat="45.61747" lon="5.32204">
        <ele>342</ele>
        <time>2021-04-04T09:14:28.027Z</time>
      </trkpt>
      <trkpt lat="45.61753" lon="5.32197">
        <ele>342</ele>
        <time>2021-04-04T09:14:29.028Z</time>
      </trkpt>
      <trkpt lat="45.61759" lon="5.32189">
        <ele>342</ele>
        <time>2021-04-04T09:14:30.027Z</time>
      </trkpt>
      <trkpt lat="45.61766" lon="5.32181">
        <ele>341</ele>
        <time>2021-04-04T09:14:31.028Z</time>
      </trkpt>
      <trkpt lat="45.61774" lon="5.32173">
        <ele>341</ele>
        <time>2021-04-04T09:14:32.028Z</time>
      </trkpt>
      <trkpt lat="45.61782" lon="5.32164">
        <ele>341</ele>
        <time>2021-04-04T09:14:33.028Z</time>
      </trkpt>
      <trkpt lat="45.61788" lon="5.32154">
        <ele>341</ele>
        <time>2021-04-04T09:14:34.027Z</time>
      </trkpt>
      <trkpt lat="45.61793" lon="5.32142">
        <ele>341</ele>
        <time>2021-04-04T09:14:35.028Z</time>
      </trkpt>
      <trkpt lat="45.61798" lon="5.32129">
        <ele>341</ele>
        <time>2021-04-04T09:14:36.028Z</time>
      </trkpt>
      <trkpt lat="45.61803" lon="5.32116">
        <ele>340</ele>
        <time>2021-04-04T09:14:37.028Z</time>
      </trkpt>
      <trkpt lat="45.61808" lon="5.32103">
        <ele>340</ele>
        <time>2021-04-04T09:14:38.027Z</time>
      </trkpt>
      <trkpt lat="45.61814" lon="5.32091">
        <ele>339</ele>
        <time>2021-04-04T09:14:39.028Z</time>
      </trkpt>
      <trkpt lat="45.61822" lon="5.32081">
        <ele>339</ele>
        <time>2021-04-04T09:14:40.028Z</time>
      </trkpt>
      <trkpt lat="45.6183" lon="5.3207">
        <ele>338</ele>
        <time>2021-04-04T09:14:41.028Z</time>
      </trkpt>
      <trkpt lat="45.61837" lon="5.3206">
        <ele>338</ele>
        <time>2021-04-04T09:14:42.028Z</time>
      </trkpt>
      <trkpt lat="45.61845" lon="5.32049">
        <ele>337</ele>
        <time>2021-04-04T09:14:43.027Z</time>
      </trkpt>
      <trkpt lat="45.61852" lon="5.32037">
        <ele>336</ele>
        <time>2021-04-04T09:14:44.028Z</time>
      </trkpt>
      <trkpt lat="45.6186" lon="5.32027">
        <ele>336</ele>
        <time>2021-04-04T09:14:45.028Z</time>
      </trkpt>
      <trkpt lat="45.61869" lon="5.32017">
        <ele>335</ele>
        <time>2021-04-04T09:14:46.028Z</time>
      </trkpt>
      <trkpt lat="45.61878" lon="5.32009">
        <ele>334</ele>
        <time>2021-04-04T09:14:47.028Z</time>
      </trkpt>
      <trkpt lat="45.61888" lon="5.32001">
        <ele>334</ele>
        <time>2021-04-04T09:14:48.028Z</time>
      </trkpt>
      <trkpt lat="45.61898" lon="5.31994">
        <ele>333</ele>
        <time>2021-04-04T09:14:49.027Z</time>
      </trkpt>
      <trkpt lat="45.61908" lon="5.31988">
        <ele>333</ele>
        <time>2021-04-04T09:14:50.028Z</time>
      </trkpt>
      <trkpt lat="45.61918" lon="5.31983">
        <ele>333</ele>
        <time>2021-04-04T09:14:51.027Z</time>
      </trkpt>
      <trkpt lat="45.61927" lon="5.31979">
        <ele>332</ele>
        <time>2021-04-04T09:14:52.028Z</time>
      </trkpt>
      <trkpt lat="45.61936" lon="5.31978">
        <ele>332</ele>
        <time>2021-04-04T09:14:53.027Z</time>
      </trkpt>
      <trkpt lat="45.61945" lon="5.31979">
        <ele>331</ele>
        <time>2021-04-04T09:14:54.028Z</time>
      </trkpt>
      <trkpt lat="45.61953" lon="5.31984">
        <ele>331</ele>
        <time>2021-04-04T09:14:55.028Z</time>
      </trkpt>
      <trkpt lat="45.6196" lon="5.31991">
        <ele>331</ele>
        <time>2021-04-04T09:14:56.028Z</time>
      </trkpt>
      <trkpt lat="45.61964" lon="5.32002">
        <ele>330</ele>
        <time>2021-04-04T09:14:57.028Z</time>
      </trkpt>
      <trkpt lat="45.61966" lon="5.32014">
        <ele>330</ele>
        <time>2021-04-04T09:14:58.028Z</time>
      </trkpt>
      <trkpt lat="45.61964" lon="5.32029">
        <ele>329</ele>
        <time>2021-04-04T09:14:59.028Z</time>
      </trkpt>
      <trkpt lat="45.61959" lon="5.32043">
        <ele>329</ele>
        <time>2021-04-04T09:15:00.027Z</time>
      </trkpt>
      <trkpt lat="45.61953" lon="5.32056">
        <ele>329</ele>
        <time>2021-04-04T09:15:01.027Z</time>
      </trkpt>
      <trkpt lat="45.61947" lon="5.32069">
        <ele>329</ele>
        <time>2021-04-04T09:15:02.028Z</time>
      </trkpt>
      <trkpt lat="45.6194" lon="5.32081">
        <ele>329</ele>
        <time>2021-04-04T09:15:03.027Z</time>
      </trkpt>
      <trkpt lat="45.61933" lon="5.32092">
        <ele>329</ele>
        <time>2021-04-04T09:15:04.028Z</time>
      </trkpt>
      <trkpt lat="45.61926" lon="5.32103">
        <ele>329</ele>
        <time>2021-04-04T09:15:05.028Z</time>
      </trkpt>
      <trkpt lat="45.6192" lon="5.32113">
        <ele>329</ele>
        <time>2021-04-04T09:15:06.028Z</time>
      </trkpt>
      <trkpt lat="45.61915" lon="5.32123">
        <ele>329</ele>
        <time>2021-04-04T09:15:07.027Z</time>
      </trkpt>
      <trkpt lat="45.61912" lon="5.32133">
        <ele>329</ele>
        <time>2021-04-04T09:15:08.028Z</time>
      </trkpt>
      <trkpt lat="45.61911" lon="5.32141">
        <ele>328</ele>
        <time>2021-04-04T09:15:09.027Z</time>
      </trkpt>
      <trkpt lat="45.61912" lon="5.32149">
        <ele>328</ele>
        <time>2021-04-04T09:15:10.028Z</time>
      </trkpt>
      <trkpt lat="45.61917" lon="5.32153">
        <ele>328</ele>
        <time>2021-04-04T09:15:11.028Z</time>
      </trkpt>
      <trkpt lat="45.61922" lon="5.32152">
        <ele>328</ele>
        <time>2021-04-04T09:15:12.028Z</time>
      </trkpt>
      <trkpt lat="45.61927" lon="5.32148">
        <ele>327</ele>
        <time>2021-04-04T09:15:13.028Z</time>
      </trkpt>
      <trkpt lat="45.61932" lon="5.32141">
        <ele>327</ele>
        <time>2021-04-04T09:15:14.027Z</time>
      </trkpt>
      <trkpt lat="45.61937" lon="5.32134">
        <ele>326</ele>
        <time>2021-04-04T09:15:15.027Z</time>
      </trkpt>
      <trkpt lat="45.61941" lon="5.32125">
        <ele>325</ele>
        <time>2021-04-04T09:15:16.028Z</time>
      </trkpt>
      <trkpt lat="45.61946" lon="5.32115">
        <ele>324</ele>
        <time>2021-04-04T09:15:17.028Z</time>
      </trkpt>
      <trkpt lat="45.61952" lon="5.32104">
        <ele>323</ele>
        <time>2021-04-04T09:15:18.027Z</time>
      </trkpt>
      <trkpt lat="45.6196" lon="5.32093">
        <ele>323</ele>
        <time>2021-04-04T09:15:19.028Z</time>
      </trkpt>
      <trkpt lat="45.61968" lon="5.32082">
        <ele>322</ele>
        <time>2021-04-04T09:15:20.028Z</time>
      </trkpt>
      <trkpt lat="45.61976" lon="5.32072">
        <ele>321</ele>
        <time>2021-04-04T09:15:21.028Z</time>
      </trkpt>
      <trkpt lat="45.61985" lon="5.32062">
        <ele>320</ele>
        <time>2021-04-04T09:15:22.028Z</time>
      </trkpt>
      <trkpt lat="45.61994" lon="5.32052">
        <ele>319</ele>
        <time>2021-04-04T09:15:23.027Z</time>
      </trkpt>
      <trkpt lat="45.62002" lon="5.3204">
        <ele>318</ele>
        <time>2021-04-04T09:15:24.028Z</time>
      </trkpt>
      <trkpt lat="45.6201" lon="5.32028">
        <ele>317</ele>
        <time>2021-04-04T09:15:25.027Z</time>
      </trkpt>
      <trkpt lat="45.62017" lon="5.32015">
        <ele>316</ele>
        <time>2021-04-04T09:15:26.027Z</time>
      </trkpt>
      <trkpt lat="45.62022" lon="5.32002">
        <ele>315</ele>
        <time>2021-04-04T09:15:27.028Z</time>
      </trkpt>
      <trkpt lat="45.62026" lon="5.31989">
        <ele>314</ele>
        <time>2021-04-04T09:15:28.028Z</time>
      </trkpt>
      <trkpt lat="45.62028" lon="5.31975">
        <ele>314</ele>
        <time>2021-04-04T09:15:29.027Z</time>
      </trkpt>
      <trkpt lat="45.62026" lon="5.31963">
        <ele>313</ele>
        <time>2021-04-04T09:15:30.028Z</time>
      </trkpt>
      <trkpt lat="45.62022" lon="5.31952">
        <ele>312</ele>
        <time>2021-04-04T09:15:31.028Z</time>
      </trkpt>
      <trkpt lat="45.62016" lon="5.31943">
        <ele>311</ele>
        <time>2021-04-04T09:15:32.027Z</time>
      </trkpt>
      <trkpt lat="45.62008" lon="5.31937">
        <ele>311</ele>
        <time>2021-04-04T09:15:33.028Z</time>
      </trkpt>
      <trkpt lat="45.62" lon="5.31933">
        <ele>310</ele>
        <time>2021-04-04T09:15:34.027Z</time>
      </trkpt>
      <trkpt lat="45.61992" lon="5.31928">
        <ele>310</ele>
        <time>2021-04-04T09:15:35.028Z</time>
      </trkpt>
      <trkpt lat="45.61987" lon="5.31922">
        <ele>309</ele>
        <time>2021-04-04T09:15:36.028Z</time>
      </trkpt>
      <trkpt lat="45.61984" lon="5.31915">
        <ele>309</ele>
        <time>2021-04-04T09:15:37.028Z</time>
      </trkpt>
      <trkpt lat="45.61985" lon="5.31909">
        <ele>309</ele>
        <time>2021-04-04T09:15:38.028Z</time>
      </trkpt>
      <trkpt lat="45.61989" lon="5.31905">
        <ele>308</ele>
        <time>2021-04-04T09:15:39.028Z</time>
      </trkpt>
      <trkpt lat="45.61994" lon="5.31904">
        <ele>308</ele>
        <time>2021-04-04T09:15:40.027Z</time>
      </trkpt>
      <trkpt lat="45.62" lon="5.31905">
        <ele>308</ele>
        <time>2021-04-04T09:15:41.028Z</time>
      </trkpt>
      <trkpt lat="45.62007" lon="5.31907">
        <ele>307</ele>
        <time>2021-04-04T09:15:42.028Z</time>
      </trkpt>
      <trkpt lat="45.62015" lon="5.31911">
        <ele>307</ele>
        <time>2021-04-04T09:15:43.028Z</time>
      </trkpt>
      <trkpt lat="45.62023" lon="5.31918">
        <ele>307</ele>
        <time>2021-04-04T09:15:44.027Z</time>
      </trkpt>
      <trkpt lat="45.6203" lon="5.31926">
        <ele>306</ele>
        <time>2021-04-04T09:15:45.028Z</time>
      </trkpt>
      <trkpt lat="45.62038" lon="5.31936">
        <ele>306</ele>
        <time>2021-04-04T09:15:46.028Z</time>
      </trkpt>
      <trkpt lat="45.62044" lon="5.31948">
        <ele>305</ele>
        <time>2021-04-04T09:15:47.028Z</time>
      </trkpt>
      <trkpt lat="45.62049" lon="5.31962">
        <ele>304</ele>
        <time>2021-04-04T09:15:48.028Z</time>
      </trkpt>
      <trkpt lat="45.62053" lon="5.31976">
        <ele>303</ele>
        <time>2021-04-04T09:15:49.028Z</time>
      </trkpt>
      <trkpt lat="45.62054" lon="5.31992">
        <ele>303</ele>
        <time>2021-04-04T09:15:50.027Z</time>
      </trkpt>
      <trkpt lat="45.62054" lon="5.32007">
        <ele>302</ele>
        <time>2021-04-04T09:15:51.028Z</time>
      </trkpt>
      <trkpt lat="45.62055" lon="5.32024">
        <ele>301</ele>
        <time>2021-04-04T09:15:52.028Z</time>
      </trkpt>
      <trkpt lat="45.62056" lon="5.3204">
        <ele>300</ele>
        <time>2021-04-04T09:15:53.028Z</time>
      </trkpt>
      <trkpt lat="45.62058" lon="5.32057">
        <ele>299</ele>
        <time>2021-04-04T09:15:54.028Z</time>
      </trkpt>
      <trkpt lat="45.62061" lon="5.32074">
        <ele>298</ele>
        <time>2021-04-04T09:15:55.028Z</time>
      </trkpt>
      <trkpt lat="45.62065" lon="5.3209">
        <ele>297</ele>
        <time>2021-04-04T09:15:56.028Z</time>
      </trkpt>
      <trkpt lat="45.62066" lon="5.32105">
        <ele>295</ele>
        <time>2021-04-04T09:15:57.028Z</time>
      </trkpt>
      <trkpt lat="45.62067" lon="5.3212">
        <ele>294</ele>
        <time>2021-04-04T09:15:58.028Z</time>
      </trkpt>
      <trkpt lat="45.62068" lon="5.32133">
        <ele>293</ele>
        <time>2021-04-04T09:15:59.028Z</time>
      </trkpt>
      <trkpt lat="45.62071" lon="5.32143">
        <ele>292</ele>
        <time>2021-04-04T09:16:00.028Z</time>
      </trkpt>
      <trkpt lat="45.62075" lon="5.32151">
        <ele>291</ele>
        <time>2021-04-04T09:16:01.028Z</time>
      </trkpt>
      <trkpt lat="45.62081" lon="5.32154">
        <ele>290</ele>
        <time>2021-04-04T09:16:02.028Z</time>
      </trkpt>
      <trkpt lat="45.62087" lon="5.32153">
        <ele>290</ele>
        <time>2021-04-04T09:16:03.028Z</time>
      </trkpt>
      <trkpt lat="45.62092" lon="5.32147">
        <ele>289</ele>
        <time>2021-04-04T09:16:04.028Z</time>
      </trkpt>
      <trkpt lat="45.62096" lon="5.32139">
        <ele>289</ele>
        <time>2021-04-04T09:16:05.027Z</time>
      </trkpt>
      <trkpt lat="45.62099" lon="5.32128">
        <ele>288</ele>
        <time>2021-04-04T09:16:06.028Z</time>
      </trkpt>
      <trkpt lat="45.62101" lon="5.32117">
        <ele>287</ele>
        <time>2021-04-04T09:16:07.028Z</time>
      </trkpt>
      <trkpt lat="45.62104" lon="5.32105">
        <ele>287</ele>
        <time>2021-04-04T09:16:08.028Z</time>
      </trkpt>
      <trkpt lat="45.62106" lon="5.32092">
        <ele>286</ele>
        <time>2021-04-04T09:16:09.027Z</time>
      </trkpt>
      <trkpt lat="45.62108" lon="5.32079">
        <ele>285</ele>
        <time>2021-04-04T09:16:10.027Z</time>
      </trkpt>
      <trkpt lat="45.6211" lon="5.32065">
        <ele>284</ele>
        <time>2021-04-04T09:16:11.028Z</time>
      </trkpt>
      <trkpt lat="45.62112" lon="5.32051">
        <ele>283</ele>
        <time>2021-04-04T09:16:12.028Z</time>
      </trkpt>
      <trkpt lat="45.62114" lon="5.32035">
        <ele>283</ele>
        <time>2021-04-04T09:16:13.028Z</time>
      </trkpt>
      <trkpt lat="45.62116" lon="5.32023">
        <ele>282</ele>
        <time>2021-04-04T09:16:14.027Z</time>
      </trkpt>
      <trkpt lat="45.62118" lon="5.32008">
        <ele>281</ele>
        <time>2021-04-04T09:16:15.028Z</time>
      </trkpt>
      <trkpt lat="45.62119" lon="5.31993">
        <ele>280</ele>
        <time>2021-04-04T09:16:16.028Z</time>
      </trkpt>
      <trkpt lat="45.62119" lon="5.31978">
        <ele>279</ele>
        <time>2021-04-04T09:16:17.028Z</time>
      </trkpt>
      <trkpt lat="45.62118" lon="5.31962">
        <ele>278</ele>
        <time>2021-04-04T09:16:18.028Z</time>
      </trkpt>
      <trkpt lat="45.62115" lon="5.31945">
        <ele>277</ele>
        <time>2021-04-04T09:16:19.027Z</time>
      </trkpt>
      <trkpt lat="45.62113" lon="5.31929">
        <ele>276</ele>
        <time>2021-04-04T09:16:20.028Z</time>
      </trkpt>
      <trkpt lat="45.62112" lon="5.31912">
        <ele>276</ele>
        <time>2021-04-04T09:16:21.027Z</time>
      </trkpt>
      <trkpt lat="45.62113" lon="5.31895">
        <ele>275</ele>
        <time>2021-04-04T09:16:22.028Z</time>
      </trkpt>
      <trkpt lat="45.62115" lon="5.31879">
        <ele>275</ele>
        <time>2021-04-04T09:16:23.028Z</time>
      </trkpt>
      <trkpt lat="45.62119" lon="5.31863">
        <ele>274</ele>
        <time>2021-04-04T09:16:24.028Z</time>
      </trkpt>
      <trkpt lat="45.62125" lon="5.31848">
        <ele>273</ele>
        <time>2021-04-04T09:16:25.028Z</time>
      </trkpt>
      <trkpt lat="45.62132" lon="5.31835">
        <ele>272</ele>
        <time>2021-04-04T09:16:26.028Z</time>
      </trkpt>
      <trkpt lat="45.62138" lon="5.31822">
        <ele>272</ele>
        <time>2021-04-04T09:16:27.028Z</time>
      </trkpt>
      <trkpt lat="45.62146" lon="5.31811">
        <ele>271</ele>
        <time>2021-04-04T09:16:28.028Z</time>
      </trkpt>
      <trkpt lat="45.62154" lon="5.31802">
        <ele>271</ele>
        <time>2021-04-04T09:16:29.028Z</time>
      </trkpt>
      <trkpt lat="45.62163" lon="5.31796">
        <ele>270</ele>
        <time>2021-04-04T09:16:30.027Z</time>
      </trkpt>
      <trkpt lat="45.62174" lon="5.31791">
        <ele>270</ele>
        <time>2021-04-04T09:16:31.028Z</time>
      </trkpt>
      <trkpt lat="45.62185" lon="5.31788">
        <ele>269</ele>
        <time>2021-04-04T09:16:32.028Z</time>
      </trkpt>
      <trkpt lat="45.62196" lon="5.31785">
        <ele>268</ele>
        <time>2021-04-04T09:16:33.027Z</time>
      </trkpt>
      <trkpt lat="45.62207" lon="5.31783">
        <ele>268</ele>
        <time>2021-04-04T09:16:34.028Z</time>
      </trkpt>
      <trkpt lat="45.62217" lon="5.31781">
        <ele>268</ele>
        <time>2021-04-04T09:16:35.028Z</time>
      </trkpt>
      <trkpt lat="45.62228" lon="5.3178">
        <ele>267</ele>
        <time>2021-04-04T09:16:36.028Z</time>
      </trkpt>
      <trkpt lat="45.62238" lon="5.31779">
        <ele>266</ele>
        <time>2021-04-04T09:16:37.027Z</time>
      </trkpt>
      <trkpt lat="45.62249" lon="5.31777">
        <ele>266</ele>
        <time>2021-04-04T09:16:38.028Z</time>
      </trkpt>
      <trkpt lat="45.6226" lon="5.31776">
        <ele>265</ele>
        <time>2021-04-04T09:16:39.027Z</time>
      </trkpt>
      <trkpt lat="45.62271" lon="5.31775">
        <ele>265</ele>
        <time>2021-04-04T09:16:40.027Z</time>
      </trkpt>
      <trkpt lat="45.62281" lon="5.31774">
        <ele>264</ele>
        <time>2021-04-04T09:16:41.028Z</time>
      </trkpt>
      <trkpt lat="45.62291" lon="5.31773">
        <ele>263</ele>
        <time>2021-04-04T09:16:42.027Z</time>
      </trkpt>
      <trkpt lat="45.623" lon="5.31772">
        <ele>262</ele>
        <time>2021-04-04T09:16:43.028Z</time>
      </trkpt>
      <trkpt lat="45.6231" lon="5.3177">
        <ele>261</ele>
        <time>2021-04-04T09:16:44.028Z</time>
      </trkpt>
      <trkpt lat="45.62319" lon="5.31769">
        <ele>260</ele>
        <time>2021-04-04T09:16:45.028Z</time>
      </trkpt>
      <trkpt lat="45.62329" lon="5.31769">
        <ele>259</ele>
        <time>2021-04-04T09:16:46.027Z</time>
      </trkpt>
      <trkpt lat="45.62339" lon="5.31769">
        <ele>258</ele>
        <time>2021-04-04T09:16:47.027Z</time>
      </trkpt>
      <trkpt lat="45.62349" lon="5.31769">
        <ele>258</ele>
        <time>2021-04-04T09:16:48.027Z</time>
      </trkpt>
      <trkpt lat="45.62359" lon="5.31769">
        <ele>257</ele>
        <time>2021-04-04T09:16:49.027Z</time>
      </trkpt>
      <trkpt lat="45.62369" lon="5.3177">
        <ele>256</ele>
        <time>2021-04-04T09:16:50.027Z</time>
      </trkpt>
      <trkpt lat="45.6238" lon="5.31771">
        <ele>256</ele>
        <time>2021-04-04T09:16:51.028Z</time>
      </trkpt>
      <trkpt lat="45.6239" lon="5.31772">
        <ele>255</ele>
        <time>2021-04-04T09:16:52.028Z</time>
      </trkpt>
      <trkpt lat="45.62401" lon="5.31773">
        <ele>255</ele>
        <time>2021-04-04T09:16:53.027Z</time>
      </trkpt>
      <trkpt lat="45.6241" lon="5.31774">
        <ele>254</ele>
        <time>2021-04-04T09:16:54.028Z</time>
      </trkpt>
      <trkpt lat="45.62419" lon="5.31775">
        <ele>254</ele>
        <time>2021-04-04T09:16:55.028Z</time>
      </trkpt>
      <trkpt lat="45.62428" lon="5.31776">
        <ele>253</ele>
        <time>2021-04-04T09:16:56.028Z</time>
      </trkpt>
      <trkpt lat="45.62436" lon="5.31776">
        <ele>253</ele>
        <time>2021-04-04T09:16:57.028Z</time>
      </trkpt>
      <trkpt lat="45.62444" lon="5.31776">
        <ele>252</ele>
        <time>2021-04-04T09:16:58.028Z</time>
      </trkpt>
      <trkpt lat="45.6245" lon="5.31775">
        <ele>251</ele>
        <time>2021-04-04T09:16:59.028Z</time>
      </trkpt>
      <trkpt lat="45.62457" lon="5.31774">
        <ele>250</ele>
        <time>2021-04-04T09:17:00.028Z</time>
      </trkpt>
      <trkpt lat="45.62462" lon="5.31774">
        <ele>250</ele>
        <time>2021-04-04T09:17:01.028Z</time>
      </trkpt>
      <trkpt lat="45.62465" lon="5.31773">
        <ele>249</ele>
        <time>2021-04-04T09:17:02.028Z</time>
      </trkpt>
      <trkpt lat="45.62468" lon="5.31774">
        <ele>249</ele>
        <time>2021-04-04T09:17:03.028Z</time>
      </trkpt>
      <trkpt lat="45.62471" lon="5.31774">
        <ele>248</ele>
        <time>2021-04-04T09:17:04.028Z</time>
      </trkpt>
      <trkpt lat="45.62473" lon="5.31775">
        <ele>247</ele>
        <time>2021-04-04T09:17:05.028Z</time>
      </trkpt>
      <trkpt lat="45.62475" lon="5.31774">
        <ele>247</ele>
        <time>2021-04-04T09:17:06.028Z</time>
      </trkpt>
      <trkpt lat="45.62478" lon="5.31772">
        <ele>246</ele>
        <time>2021-04-04T09:17:07.028Z</time>
      </trkpt>
      <trkpt lat="45.6248" lon="5.31768">
        <ele>245</ele>
        <time>2021-04-04T09:17:08.028Z</time>
      </trkpt>
      <trkpt lat="45.62482" lon="5.31763">
        <ele>244</ele>
        <time>2021-04-04T09:17:09.027Z</time>
      </trkpt>
      <trkpt lat="45.62484" lon="5.31755">
        <ele>243</ele>
        <time>2021-04-04T09:17:10.028Z</time>
      </trkpt>
      <trkpt lat="45.62485" lon="5.31748">
        <ele>242</ele>
        <time>2021-04-04T09:17:11.027Z</time>
      </trkpt>
      <trkpt lat="45.62486" lon="5.31739">
        <ele>241</ele>
        <time>2021-04-04T09:17:12.028Z</time>
      </trkpt>
      <trkpt lat="45.62488" lon="5.31727">
        <ele>241</ele>
        <time>2021-04-04T09:17:13.028Z</time>
      </trkpt>
      <trkpt lat="45.62488" lon="5.31719">
        <ele>240</ele>
        <time>2021-04-04T09:17:14.027Z</time>
      </trkpt>
      <trkpt lat="45.62489" lon="5.31707">
        <ele>239</ele>
        <time>2021-04-04T09:17:15.027Z</time>
      </trkpt>
      <trkpt lat="45.6249" lon="5.31697">
        <ele>239</ele>
        <time>2021-04-04T09:17:16.028Z</time>
      </trkpt>
      <trkpt lat="45.62491" lon="5.31686">
        <ele>238</ele>
        <time>2021-04-04T09:17:17.028Z</time>
      </trkpt>
      <trkpt lat="45.62492" lon="5.31676">
        <ele>238</ele>
        <time>2021-04-04T09:17:18.027Z</time>
      </trkpt>
      <trkpt lat="45.62493" lon="5.31665">
        <ele>237</ele>
        <time>2021-04-04T09:17:19.027Z</time>
      </trkpt>
      <trkpt lat="45.62494" lon="5.31655">
        <ele>237</ele>
        <time>2021-04-04T09:17:20.027Z</time>
      </trkpt>
      <trkpt lat="45.62494" lon="5.31645">
        <ele>236</ele>
        <time>2021-04-04T09:17:21.028Z</time>
      </trkpt>
      <trkpt lat="45.62495" lon="5.31635">
        <ele>236</ele>
        <time>2021-04-04T09:17:22.027Z</time>
      </trkpt>
      <trkpt lat="45.62496" lon="5.31627">
        <ele>236</ele>
        <time>2021-04-04T09:17:23.027Z</time>
      </trkpt>
      <trkpt lat="45.62497" lon="5.31615">
        <ele>236</ele>
        <time>2021-04-04T09:17:24.028Z</time>
      </trkpt>
      <trkpt lat="45.62498" lon="5.31605">
        <ele>236</ele>
        <time>2021-04-04T09:17:25.028Z</time>
      </trkpt>
      <trkpt lat="45.625" lon="5.31596">
        <ele>235</ele>
        <time>2021-04-04T09:17:26.028Z</time>
      </trkpt>
      <trkpt lat="45.62503" lon="5.31588">
        <ele>235</ele>
        <time>2021-04-04T09:17:27.028Z</time>
      </trkpt>
      <trkpt lat="45.62506" lon="5.31583">
        <ele>234</ele>
        <time>2021-04-04T09:17:28.028Z</time>
      </trkpt>
      <trkpt lat="45.62513" lon="5.31578">
        <ele>234</ele>
        <time>2021-04-04T09:17:29.028Z</time>
      </trkpt>
      <trkpt lat="45.62519" lon="5.31576">
        <ele>234</ele>
        <time>2021-04-04T09:17:30.028Z</time>
      </trkpt>
      <trkpt lat="45.62525" lon="5.31575">
        <ele>234</ele>
        <time>2021-04-04T09:17:31.028Z</time>
      </trkpt>
      <trkpt lat="45.6253" lon="5.31574">
        <ele>234</ele>
        <time>2021-04-04T09:17:32.028Z</time>
      </trkpt>
      <trkpt lat="45.62537" lon="5.31573">
        <ele>234</ele>
        <time>2021-04-04T09:17:33.028Z</time>
      </trkpt>
      <trkpt lat="45.62544" lon="5.31573">
        <ele>234</ele>
        <time>2021-04-04T09:17:34.028Z</time>
      </trkpt>
      <trkpt lat="45.62552" lon="5.31572">
        <ele>234</ele>
        <time>2021-04-04T09:17:35.027Z</time>
      </trkpt>
      <trkpt lat="45.62558" lon="5.31572">
        <ele>234</ele>
        <time>2021-04-04T09:17:36.028Z</time>
      </trkpt>
      <trkpt lat="45.62563" lon="5.31572">
        <ele>234</ele>
        <time>2021-04-04T09:17:37.028Z</time>
      </trkpt>
      <trkpt lat="45.62571" lon="5.31571">
        <ele>235</ele>
        <time>2021-04-04T09:17:38.028Z</time>
      </trkpt>
      <trkpt lat="45.62577" lon="5.31571">
        <ele>235</ele>
        <time>2021-04-04T09:17:39.028Z</time>
      </trkpt>
      <trkpt lat="45.62583" lon="5.31571">
        <ele>235</ele>
        <time>2021-04-04T09:17:40.027Z</time>
      </trkpt>
      <trkpt lat="45.62589" lon="5.31571">
        <ele>236</ele>
        <time>2021-04-04T09:17:41.028Z</time>
      </trkpt>
      <trkpt lat="45.62594" lon="5.3157">
        <ele>236</ele>
        <time>2021-04-04T09:17:42.028Z</time>
      </trkpt>
      <trkpt lat="45.62601" lon="5.31569">
        <ele>236</ele>
        <time>2021-04-04T09:17:43.028Z</time>
      </trkpt>
      <trkpt lat="45.62608" lon="5.31568">
        <ele>236</ele>
        <time>2021-04-04T09:17:44.027Z</time>
      </trkpt>
      <trkpt lat="45.62614" lon="5.31567">
        <ele>236</ele>
        <time>2021-04-04T09:17:45.028Z</time>
      </trkpt>
      <trkpt lat="45.62619" lon="5.31567">
        <ele>236</ele>
        <time>2021-04-04T09:17:46.028Z</time>
      </trkpt>
      <trkpt lat="45.62625" lon="5.31566">
        <ele>236</ele>
        <time>2021-04-04T09:17:47.028Z</time>
      </trkpt>
      <trkpt lat="45.62632" lon="5.31564">
        <ele>236</ele>
        <time>2021-04-04T09:17:48.028Z</time>
      </trkpt>
      <trkpt lat="45.62638" lon="5.31563">
        <ele>236</ele>
        <time>2021-04-04T09:17:49.027Z</time>
      </trkpt>
      <trkpt lat="45.62643" lon="5.31562">
        <ele>236</ele>
        <time>2021-04-04T09:17:50.028Z</time>
      </trkpt>
      <trkpt lat="45.62648" lon="5.31559">
        <ele>237</ele>
        <time>2021-04-04T09:17:51.027Z</time>
      </trkpt>
      <trkpt lat="45.62653" lon="5.31557">
        <ele>237</ele>
        <time>2021-04-04T09:17:52.027Z</time>
      </trkpt>
      <trkpt lat="45.62658" lon="5.31553">
        <ele>238</ele>
        <time>2021-04-04T09:17:53.028Z</time>
      </trkpt>
      <trkpt lat="45.62662" lon="5.3155">
        <ele>238</ele>
        <time>2021-04-04T09:17:54.028Z</time>
      </trkpt>
      <trkpt lat="45.62666" lon="5.31545">
        <ele>238</ele>
        <time>2021-04-04T09:17:55.028Z</time>
      </trkpt>
      <trkpt lat="45.62669" lon="5.31541">
        <ele>237</ele>
        <time>2021-04-04T09:17:56.028Z</time>
      </trkpt>
      <trkpt lat="45.62674" lon="5.31535">
        <ele>236</ele>
        <time>2021-04-04T09:17:57.028Z</time>
      </trkpt>
      <trkpt lat="45.62677" lon="5.31529">
        <ele>236</ele>
        <time>2021-04-04T09:17:58.027Z</time>
      </trkpt>
      <trkpt lat="45.6268" lon="5.31523">
        <ele>236</ele>
        <time>2021-04-04T09:17:59.028Z</time>
      </trkpt>
      <trkpt lat="45.62683" lon="5.31517">
        <ele>236</ele>
        <time>2021-04-04T09:18:00.028Z</time>
      </trkpt>
      <trkpt lat="45.62686" lon="5.31512">
        <ele>236</ele>
        <time>2021-04-04T09:18:01.028Z</time>
      </trkpt>
      <trkpt lat="45.62689" lon="5.31505">
        <ele>236</ele>
        <time>2021-04-04T09:18:02.028Z</time>
      </trkpt>
      <trkpt lat="45.62692" lon="5.31498">
        <ele>235</ele>
        <time>2021-04-04T09:18:03.028Z</time>
      </trkpt>
      <trkpt lat="45.62695" lon="5.31492">
        <ele>236</ele>
        <time>2021-04-04T09:18:04.028Z</time>
      </trkpt>
      <trkpt lat="45.62698" lon="5.31487">
        <ele>236</ele>
        <time>2021-04-04T09:18:05.027Z</time>
      </trkpt>
      <trkpt lat="45.62701" lon="5.3148">
        <ele>236</ele>
        <time>2021-04-04T09:18:06.028Z</time>
      </trkpt>
      <trkpt lat="45.62704" lon="5.31472">
        <ele>236</ele>
        <time>2021-04-04T09:18:07.028Z</time>
      </trkpt>
      <trkpt lat="45.62707" lon="5.31466">
        <ele>236</ele>
        <time>2021-04-04T09:18:08.027Z</time>
      </trkpt>
      <trkpt lat="45.62711" lon="5.31459">
        <ele>236</ele>
        <time>2021-04-04T09:18:09.028Z</time>
      </trkpt>
      <trkpt lat="45.62714" lon="5.31453">
        <ele>237</ele>
        <time>2021-04-04T09:18:10.027Z</time>
      </trkpt>
      <trkpt lat="45.62717" lon="5.31446">
        <ele>237</ele>
        <time>2021-04-04T09:18:11.028Z</time>
      </trkpt>
      <trkpt lat="45.6272" lon="5.31439">
        <ele>237</ele>
        <time>2021-04-04T09:18:12.028Z</time>
      </trkpt>
      <trkpt lat="45.62723" lon="5.31433">
        <ele>237</ele>
        <time>2021-04-04T09:18:13.028Z</time>
      </trkpt>
      <trkpt lat="45.62726" lon="5.31426">
        <ele>237</ele>
        <time>2021-04-04T09:18:14.028Z</time>
      </trkpt>
      <trkpt lat="45.62729" lon="5.31419">
        <ele>237</ele>
        <time>2021-04-04T09:18:15.028Z</time>
      </trkpt>
      <trkpt lat="45.62732" lon="5.31413">
        <ele>238</ele>
        <time>2021-04-04T09:18:16.027Z</time>
      </trkpt>
      <trkpt lat="45.62736" lon="5.31408">
        <ele>238</ele>
        <time>2021-04-04T09:18:17.027Z</time>
      </trkpt>
      <trkpt lat="45.6274" lon="5.31404">
        <ele>238</ele>
        <time>2021-04-04T09:18:18.028Z</time>
      </trkpt>
      <trkpt lat="45.62743" lon="5.314">
        <ele>238</ele>
        <time>2021-04-04T09:18:19.028Z</time>
      </trkpt>
      <trkpt lat="45.62747" lon="5.31397">
        <ele>238</ele>
        <time>2021-04-04T09:18:20.028Z</time>
      </trkpt>
      <trkpt lat="45.62752" lon="5.31395">
        <ele>238</ele>
        <time>2021-04-04T09:18:21.028Z</time>
      </trkpt>
      <trkpt lat="45.62756" lon="5.31395">
        <ele>238</ele>
        <time>2021-04-04T09:18:22.028Z</time>
      </trkpt>
      <trkpt lat="45.6276" lon="5.31395">
        <ele>238</ele>
        <time>2021-04-04T09:18:23.027Z</time>
      </trkpt>
      <trkpt lat="45.62765" lon="5.31397">
        <ele>239</ele>
        <time>2021-04-04T09:18:24.028Z</time>
      </trkpt>
      <trkpt lat="45.62769" lon="5.31399">
        <ele>239</ele>
        <time>2021-04-04T09:18:25.027Z</time>
      </trkpt>
      <trkpt lat="45.62774" lon="5.31401">
        <ele>239</ele>
        <time>2021-04-04T09:18:26.027Z</time>
      </trkpt>
      <trkpt lat="45.62778" lon="5.31403">
        <ele>240</ele>
        <time>2021-04-04T09:18:27.028Z</time>
      </trkpt>
      <trkpt lat="45.62783" lon="5.31405">
        <ele>240</ele>
        <time>2021-04-04T09:18:28.028Z</time>
      </trkpt>
      <trkpt lat="45.62787" lon="5.31407">
        <ele>241</ele>
        <time>2021-04-04T09:18:29.028Z</time>
      </trkpt>
      <trkpt lat="45.62792" lon="5.31408">
        <ele>241</ele>
        <time>2021-04-04T09:18:30.028Z</time>
      </trkpt>
      <trkpt lat="45.62796" lon="5.3141">
        <ele>241</ele>
        <time>2021-04-04T09:18:31.028Z</time>
      </trkpt>
      <trkpt lat="45.62799" lon="5.31411">
        <ele>242</ele>
        <time>2021-04-04T09:18:32.028Z</time>
      </trkpt>
      <trkpt lat="45.62804" lon="5.31413">
        <ele>242</ele>
        <time>2021-04-04T09:18:33.028Z</time>
      </trkpt>
      <trkpt lat="45.62808" lon="5.31416">
        <ele>242</ele>
        <time>2021-04-04T09:18:34.028Z</time>
      </trkpt>
      <trkpt lat="45.62812" lon="5.31417">
        <ele>243</ele>
        <time>2021-04-04T09:18:35.027Z</time>
      </trkpt>
      <trkpt lat="45.62816" lon="5.31419">
        <ele>243</ele>
        <time>2021-04-04T09:18:36.027Z</time>
      </trkpt>
      <trkpt lat="45.6282" lon="5.31421">
        <ele>243</ele>
        <time>2021-04-04T09:18:37.028Z</time>
      </trkpt>
      <trkpt lat="45.62824" lon="5.31424">
        <ele>244</ele>
        <time>2021-04-04T09:18:38.028Z</time>
      </trkpt>
      <trkpt lat="45.62828" lon="5.31428">
        <ele>244</ele>
        <time>2021-04-04T09:18:39.027Z</time>
      </trkpt>
      <trkpt lat="45.62831" lon="5.31432">
        <ele>245</ele>
        <time>2021-04-04T09:18:40.028Z</time>
      </trkpt>
      <trkpt lat="45.62833" lon="5.31437">
        <ele>245</ele>
        <time>2021-04-04T09:18:41.028Z</time>
      </trkpt>
      <trkpt lat="45.62835" lon="5.31443">
        <ele>245</ele>
        <time>2021-04-04T09:18:42.027Z</time>
      </trkpt>
      <trkpt lat="45.62836" lon="5.31449">
        <ele>245</ele>
        <time>2021-04-04T09:18:43.028Z</time>
      </trkpt>
      <trkpt lat="45.62836" lon="5.31455">
        <ele>246</ele>
        <time>2021-04-04T09:18:44.027Z</time>
      </trkpt>
      <trkpt lat="45.62836" lon="5.31461">
        <ele>247</ele>
        <time>2021-04-04T09:18:45.028Z</time>
      </trkpt>
      <trkpt lat="45.62836" lon="5.31466">
        <ele>247</ele>
        <time>2021-04-04T09:18:46.027Z</time>
      </trkpt>
      <trkpt lat="45.62836" lon="5.31472">
        <ele>248</ele>
        <time>2021-04-04T09:18:47.028Z</time>
      </trkpt>
      <trkpt lat="45.62835" lon="5.31479">
        <ele>248</ele>
        <time>2021-04-04T09:18:48.028Z</time>
      </trkpt>
      <trkpt lat="45.62835" lon="5.31485">
        <ele>249</ele>
        <time>2021-04-04T09:18:49.027Z</time>
      </trkpt>
      <trkpt lat="45.62835" lon="5.31491">
        <ele>249</ele>
        <time>2021-04-04T09:18:50.028Z</time>
      </trkpt>
      <trkpt lat="45.62834" lon="5.31498">
        <ele>249</ele>
        <time>2021-04-04T09:18:51.028Z</time>
      </trkpt>
      <trkpt lat="45.62834" lon="5.31504">
        <ele>250</ele>
        <time>2021-04-04T09:18:52.027Z</time>
      </trkpt>
      <trkpt lat="45.62835" lon="5.3151">
        <ele>250</ele>
        <time>2021-04-04T09:18:53.028Z</time>
      </trkpt>
      <trkpt lat="45.62836" lon="5.31516">
        <ele>251</ele>
        <time>2021-04-04T09:18:54.027Z</time>
      </trkpt>
      <trkpt lat="45.62839" lon="5.31522">
        <ele>251</ele>
        <time>2021-04-04T09:18:55.027Z</time>
      </trkpt>
      <trkpt lat="45.62842" lon="5.31528">
        <ele>251</ele>
        <time>2021-04-04T09:18:56.027Z</time>
      </trkpt>
      <trkpt lat="45.62845" lon="5.31532">
        <ele>252</ele>
        <time>2021-04-04T09:18:57.027Z</time>
      </trkpt>
      <trkpt lat="45.62849" lon="5.31535">
        <ele>252</ele>
        <time>2021-04-04T09:18:58.027Z</time>
      </trkpt>
      <trkpt lat="45.62853" lon="5.31538">
        <ele>253</ele>
        <time>2021-04-04T09:18:59.027Z</time>
      </trkpt>
      <trkpt lat="45.62857" lon="5.31541">
        <ele>253</ele>
        <time>2021-04-04T09:19:00.027Z</time>
      </trkpt>
      <trkpt lat="45.62861" lon="5.31544">
        <ele>254</ele>
        <time>2021-04-04T09:19:01.028Z</time>
      </trkpt>
      <trkpt lat="45.62865" lon="5.31547">
        <ele>254</ele>
        <time>2021-04-04T09:19:02.028Z</time>
      </trkpt>
      <trkpt lat="45.62869" lon="5.31549">
        <ele>254</ele>
        <time>2021-04-04T09:19:03.028Z</time>
      </trkpt>
      <trkpt lat="45.62873" lon="5.31552">
        <ele>254</ele>
        <time>2021-04-04T09:19:04.027Z</time>
      </trkpt>
      <trkpt lat="45.62877" lon="5.31554">
        <ele>254</ele>
        <time>2021-04-04T09:19:05.027Z</time>
      </trkpt>
      <trkpt lat="45.62883" lon="5.31556">
        <ele>254</ele>
        <time>2021-04-04T09:19:06.027Z</time>
      </trkpt>
      <trkpt lat="45.62887" lon="5.31559">
        <ele>254</ele>
        <time>2021-04-04T09:19:07.027Z</time>
      </trkpt>
      <trkpt lat="45.62892" lon="5.31561">
        <ele>254</ele>
        <time>2021-04-04T09:19:08.028Z</time>
      </trkpt>
      <trkpt lat="45.62895" lon="5.31564">
        <ele>254</ele>
        <time>2021-04-04T09:19:09.028Z</time>
      </trkpt>
      <trkpt lat="45.62899" lon="5.31566">
        <ele>255</ele>
        <time>2021-04-04T09:19:10.028Z</time>
      </trkpt>
      <trkpt lat="45.62904" lon="5.3157">
        <ele>255</ele>
        <time>2021-04-04T09:19:11.027Z</time>
      </trkpt>
      <trkpt lat="45.62908" lon="5.31574">
        <ele>255</ele>
        <time>2021-04-04T09:19:12.028Z</time>
      </trkpt>
      <trkpt lat="45.62911" lon="5.31577">
        <ele>256</ele>
        <time>2021-04-04T09:19:13.027Z</time>
      </trkpt>
      <trkpt lat="45.62914" lon="5.31583">
        <ele>256</ele>
        <time>2021-04-04T09:19:14.028Z</time>
      </trkpt>
      <trkpt lat="45.62917" lon="5.31588">
        <ele>256</ele>
        <time>2021-04-04T09:19:15.028Z</time>
      </trkpt>
      <trkpt lat="45.62919" lon="5.31594">
        <ele>257</ele>
        <time>2021-04-04T09:19:16.028Z</time>
      </trkpt>
      <trkpt lat="45.6292" lon="5.316">
        <ele>257</ele>
        <time>2021-04-04T09:19:17.028Z</time>
      </trkpt>
      <trkpt lat="45.62921" lon="5.31605">
        <ele>257</ele>
        <time>2021-04-04T09:19:18.028Z</time>
      </trkpt>
      <trkpt lat="45.62921" lon="5.31611">
        <ele>258</ele>
        <time>2021-04-04T09:19:19.027Z</time>
      </trkpt>
      <trkpt lat="45.62921" lon="5.31617">
        <ele>258</ele>
        <time>2021-04-04T09:19:20.028Z</time>
      </trkpt>
      <trkpt lat="45.6292" lon="5.31623">
        <ele>258</ele>
        <time>2021-04-04T09:19:21.028Z</time>
      </trkpt>
      <trkpt lat="45.62919" lon="5.31628">
        <ele>259</ele>
        <time>2021-04-04T09:19:22.028Z</time>
      </trkpt>
      <trkpt lat="45.62919" lon="5.31633">
        <ele>259</ele>
        <time>2021-04-04T09:19:23.028Z</time>
      </trkpt>
      <trkpt lat="45.62918" lon="5.31638">
        <ele>259</ele>
        <time>2021-04-04T09:19:24.027Z</time>
      </trkpt>
      <trkpt lat="45.62917" lon="5.31643">
        <ele>259</ele>
        <time>2021-04-04T09:19:25.028Z</time>
      </trkpt>
      <trkpt lat="45.62916" lon="5.31649">
        <ele>259</ele>
        <time>2021-04-04T09:19:26.028Z</time>
      </trkpt>
      <trkpt lat="45.62915" lon="5.31654">
        <ele>259</ele>
        <time>2021-04-04T09:19:27.028Z</time>
      </trkpt>
      <trkpt lat="45.62914" lon="5.31658">
        <ele>260</ele>
        <time>2021-04-04T09:19:28.028Z</time>
      </trkpt>
      <trkpt lat="45.62913" lon="5.31663">
        <ele>260</ele>
        <time>2021-04-04T09:19:29.028Z</time>
      </trkpt>
      <trkpt lat="45.62912" lon="5.31668">
        <ele>260</ele>
        <time>2021-04-04T09:19:30.028Z</time>
      </trkpt>
      <trkpt lat="45.62911" lon="5.31673">
        <ele>261</ele>
        <time>2021-04-04T09:19:31.027Z</time>
      </trkpt>
      <trkpt lat="45.6291" lon="5.31678">
        <ele>261</ele>
        <time>2021-04-04T09:19:32.027Z</time>
      </trkpt>
      <trkpt lat="45.62909" lon="5.31683">
        <ele>262</ele>
        <time>2021-04-04T09:19:33.028Z</time>
      </trkpt>
      <trkpt lat="45.62908" lon="5.31688">
        <ele>262</ele>
        <time>2021-04-04T09:19:34.027Z</time>
      </trkpt>
      <trkpt lat="45.62907" lon="5.31693">
        <ele>263</ele>
        <time>2021-04-04T09:19:35.028Z</time>
      </trkpt>
      <trkpt lat="45.62905" lon="5.31698">
        <ele>264</ele>
        <time>2021-04-04T09:19:36.027Z</time>
      </trkpt>
      <trkpt lat="45.62904" lon="5.31703">
        <ele>264</ele>
        <time>2021-04-04T09:19:37.028Z</time>
      </trkpt>
      <trkpt lat="45.62902" lon="5.31708">
        <ele>265</ele>
        <time>2021-04-04T09:19:38.028Z</time>
      </trkpt>
      <trkpt lat="45.629" lon="5.31712">
        <ele>265</ele>
        <time>2021-04-04T09:19:39.028Z</time>
      </trkpt>
      <trkpt lat="45.62897" lon="5.31716">
        <ele>265</ele>
        <time>2021-04-04T09:19:40.028Z</time>
      </trkpt>
      <trkpt lat="45.62895" lon="5.31721">
        <ele>265</ele>
        <time>2021-04-04T09:19:41.028Z</time>
      </trkpt>
      <trkpt lat="45.62892" lon="5.31724">
        <ele>265</ele>
        <time>2021-04-04T09:19:42.028Z</time>
      </trkpt>
      <trkpt lat="45.62889" lon="5.31727">
        <ele>266</ele>
        <time>2021-04-04T09:19:43.028Z</time>
      </trkpt>
      <trkpt lat="45.62886" lon="5.3173">
        <ele>266</ele>
        <time>2021-04-04T09:19:44.027Z</time>
      </trkpt>
      <trkpt lat="45.62882" lon="5.31733">
        <ele>267</ele>
        <time>2021-04-04T09:19:45.028Z</time>
      </trkpt>
      <trkpt lat="45.62879" lon="5.31735">
        <ele>268</ele>
        <time>2021-04-04T09:19:46.028Z</time>
      </trkpt>
      <trkpt lat="45.62875" lon="5.31737">
        <ele>268</ele>
        <time>2021-04-04T09:19:47.028Z</time>
      </trkpt>
      <trkpt lat="45.62872" lon="5.3174">
        <ele>268</ele>
        <time>2021-04-04T09:19:48.028Z</time>
      </trkpt>
      <trkpt lat="45.62869" lon="5.31742">
        <ele>268</ele>
        <time>2021-04-04T09:19:49.028Z</time>
      </trkpt>
      <trkpt lat="45.62866" lon="5.31745">
        <ele>268</ele>
        <time>2021-04-04T09:19:50.028Z</time>
      </trkpt>
      <trkpt lat="45.62863" lon="5.31749">
        <ele>269</ele>
        <time>2021-04-04T09:19:51.027Z</time>
      </trkpt>
      <trkpt lat="45.62861" lon="5.31753">
        <ele>269</ele>
        <time>2021-04-04T09:19:52.028Z</time>
      </trkpt>
      <trkpt lat="45.6286" lon="5.31758">
        <ele>269</ele>
        <time>2021-04-04T09:19:53.028Z</time>
      </trkpt>
      <trkpt lat="45.62859" lon="5.31763">
        <ele>269</ele>
        <time>2021-04-04T09:19:54.027Z</time>
      </trkpt>
      <trkpt lat="45.6286" lon="5.31769">
        <ele>269</ele>
        <time>2021-04-04T09:19:55.028Z</time>
      </trkpt>
      <trkpt lat="45.62861" lon="5.31773">
        <ele>269</ele>
        <time>2021-04-04T09:19:56.027Z</time>
      </trkpt>
      <trkpt lat="45.62864" lon="5.31776">
        <ele>269</ele>
        <time>2021-04-04T09:19:57.027Z</time>
      </trkpt>
      <trkpt lat="45.62867" lon="5.31779">
        <ele>269</ele>
        <time>2021-04-04T09:19:58.028Z</time>
      </trkpt>
      <trkpt lat="45.62871" lon="5.31779">
        <ele>270</ele>
        <time>2021-04-04T09:19:59.028Z</time>
      </trkpt>
      <trkpt lat="45.62874" lon="5.31779">
        <ele>270</ele>
        <time>2021-04-04T09:20:00.028Z</time>
      </trkpt>
      <trkpt lat="45.62878" lon="5.31777">
        <ele>270</ele>
        <time>2021-04-04T09:20:01.028Z</time>
      </trkpt>
      <trkpt lat="45.62882" lon="5.31776">
        <ele>270</ele>
        <time>2021-04-04T09:20:02.028Z</time>
      </trkpt>
      <trkpt lat="45.62887" lon="5.31773">
        <ele>270</ele>
        <time>2021-04-04T09:20:03.028Z</time>
      </trkpt>
      <trkpt lat="45.62891" lon="5.3177">
        <ele>270</ele>
        <time>2021-04-04T09:20:04.027Z</time>
      </trkpt>
      <trkpt lat="45.62895" lon="5.31767">
        <ele>270</ele>
        <time>2021-04-04T09:20:05.027Z</time>
      </trkpt>
      <trkpt lat="45.62898" lon="5.31765">
        <ele>270</ele>
        <time>2021-04-04T09:20:06.028Z</time>
      </trkpt>
      <trkpt lat="45.62902" lon="5.31763">
        <ele>270</ele>
        <time>2021-04-04T09:20:07.028Z</time>
      </trkpt>
      <trkpt lat="45.62905" lon="5.3176">
        <ele>270</ele>
        <time>2021-04-04T09:20:08.028Z</time>
      </trkpt>
      <trkpt lat="45.6291" lon="5.31758">
        <ele>270</ele>
        <time>2021-04-04T09:20:09.028Z</time>
      </trkpt>
      <trkpt lat="45.62912" lon="5.31756">
        <ele>270</ele>
        <time>2021-04-04T09:20:10.028Z</time>
      </trkpt>
      <trkpt lat="45.62916" lon="5.31754">
        <ele>270</ele>
        <time>2021-04-04T09:20:11.028Z</time>
      </trkpt>
      <trkpt lat="45.6292" lon="5.31752">
        <ele>270</ele>
        <time>2021-04-04T09:20:12.027Z</time>
      </trkpt>
      <trkpt lat="45.62923" lon="5.3175">
        <ele>270</ele>
        <time>2021-04-04T09:20:13.027Z</time>
      </trkpt>
      <trkpt lat="45.62927" lon="5.31749">
        <ele>271</ele>
        <time>2021-04-04T09:20:14.028Z</time>
      </trkpt>
      <trkpt lat="45.62931" lon="5.31747">
        <ele>271</ele>
        <time>2021-04-04T09:20:15.028Z</time>
      </trkpt>
      <trkpt lat="45.62934" lon="5.31746">
        <ele>271</ele>
        <time>2021-04-04T09:20:16.028Z</time>
      </trkpt>
      <trkpt lat="45.62938" lon="5.31745">
        <ele>272</ele>
        <time>2021-04-04T09:20:17.028Z</time>
      </trkpt>
      <trkpt lat="45.62941" lon="5.31745">
        <ele>273</ele>
        <time>2021-04-04T09:20:18.028Z</time>
      </trkpt>
      <trkpt lat="45.62944" lon="5.31744">
        <ele>273</ele>
        <time>2021-04-04T09:20:19.028Z</time>
      </trkpt>
      <trkpt lat="45.62948" lon="5.31743">
        <ele>274</ele>
        <time>2021-04-04T09:20:20.028Z</time>
      </trkpt>
      <trkpt lat="45.62951" lon="5.31742">
        <ele>275</ele>
        <time>2021-04-04T09:20:21.027Z</time>
      </trkpt>
      <trkpt lat="45.62955" lon="5.31741">
        <ele>275</ele>
        <time>2021-04-04T09:20:22.028Z</time>
      </trkpt>
      <trkpt lat="45.62959" lon="5.3174">
        <ele>275</ele>
        <time>2021-04-04T09:20:23.028Z</time>
      </trkpt>
      <trkpt lat="45.62962" lon="5.31739">
        <ele>275</ele>
        <time>2021-04-04T09:20:24.028Z</time>
      </trkpt>
      <trkpt lat="45.62966" lon="5.31738">
        <ele>275</ele>
        <time>2021-04-04T09:20:25.027Z</time>
      </trkpt>
      <trkpt lat="45.6297" lon="5.31737">
        <ele>275</ele>
        <time>2021-04-04T09:20:26.028Z</time>
      </trkpt>
      <trkpt lat="45.62974" lon="5.31736">
        <ele>275</ele>
        <time>2021-04-04T09:20:27.028Z</time>
      </trkpt>
      <trkpt lat="45.62978" lon="5.31736">
        <ele>275</ele>
        <time>2021-04-04T09:20:28.027Z</time>
      </trkpt>
      <trkpt lat="45.62981" lon="5.31735">
        <ele>275</ele>
        <time>2021-04-04T09:20:29.027Z</time>
      </trkpt>
      <trkpt lat="45.62985" lon="5.31733">
        <ele>275</ele>
        <time>2021-04-04T09:20:30.028Z</time>
      </trkpt>
      <trkpt lat="45.62989" lon="5.31732">
        <ele>275</ele>
        <time>2021-04-04T09:20:31.028Z</time>
      </trkpt>
      <trkpt lat="45.62993" lon="5.31731">
        <ele>276</ele>
        <time>2021-04-04T09:20:32.028Z</time>
      </trkpt>
      <trkpt lat="45.62997" lon="5.31729">
        <ele>276</ele>
        <time>2021-04-04T09:20:33.027Z</time>
      </trkpt>
      <trkpt lat="45.63" lon="5.31727">
        <ele>276</ele>
        <time>2021-04-04T09:20:34.028Z</time>
      </trkpt>
      <trkpt lat="45.63004" lon="5.31725">
        <ele>276</ele>
        <time>2021-04-04T09:20:35.028Z</time>
      </trkpt>
      <trkpt lat="45.63007" lon="5.31723">
        <ele>277</ele>
        <time>2021-04-04T09:20:36.028Z</time>
      </trkpt>
      <trkpt lat="45.63011" lon="5.31721">
        <ele>277</ele>
        <time>2021-04-04T09:20:37.028Z</time>
      </trkpt>
      <trkpt lat="45.63014" lon="5.31719">
        <ele>278</ele>
        <time>2021-04-04T09:20:38.028Z</time>
      </trkpt>
      <trkpt lat="45.63018" lon="5.31717">
        <ele>278</ele>
        <time>2021-04-04T09:20:39.028Z</time>
      </trkpt>
      <trkpt lat="45.63022" lon="5.31715">
        <ele>278</ele>
        <time>2021-04-04T09:20:40.028Z</time>
      </trkpt>
      <trkpt lat="45.63025" lon="5.31713">
        <ele>278</ele>
        <time>2021-04-04T09:20:41.028Z</time>
      </trkpt>
      <trkpt lat="45.63029" lon="5.31711">
        <ele>278</ele>
        <time>2021-04-04T09:20:42.027Z</time>
      </trkpt>
      <trkpt lat="45.63032" lon="5.31709">
        <ele>279</ele>
        <time>2021-04-04T09:20:43.028Z</time>
      </trkpt>
      <trkpt lat="45.63036" lon="5.31708">
        <ele>279</ele>
        <time>2021-04-04T09:20:44.027Z</time>
      </trkpt>
      <trkpt lat="45.63039" lon="5.31706">
        <ele>279</ele>
        <time>2021-04-04T09:20:45.028Z</time>
      </trkpt>
      <trkpt lat="45.63043" lon="5.31703">
        <ele>279</ele>
        <time>2021-04-04T09:20:46.028Z</time>
      </trkpt>
      <trkpt lat="45.63047" lon="5.31702">
        <ele>279</ele>
        <time>2021-04-04T09:20:47.028Z</time>
      </trkpt>
      <trkpt lat="45.6305" lon="5.317">
        <ele>279</ele>
        <time>2021-04-04T09:20:48.028Z</time>
      </trkpt>
      <trkpt lat="45.63054" lon="5.31698">
        <ele>280</ele>
        <time>2021-04-04T09:20:49.028Z</time>
      </trkpt>
      <trkpt lat="45.63057" lon="5.31696">
        <ele>280</ele>
        <time>2021-04-04T09:20:50.028Z</time>
      </trkpt>
      <trkpt lat="45.63061" lon="5.31694">
        <ele>281</ele>
        <time>2021-04-04T09:20:51.028Z</time>
      </trkpt>
      <trkpt lat="45.63065" lon="5.31693">
        <ele>282</ele>
        <time>2021-04-04T09:20:52.028Z</time>
      </trkpt>
      <trkpt lat="45.63068" lon="5.31691">
        <ele>282</ele>
        <time>2021-04-04T09:20:53.028Z</time>
      </trkpt>
      <trkpt lat="45.63072" lon="5.3169">
        <ele>282</ele>
        <time>2021-04-04T09:20:54.028Z</time>
      </trkpt>
      <trkpt lat="45.63076" lon="5.31689">
        <ele>283</ele>
        <time>2021-04-04T09:20:55.028Z</time>
      </trkpt>
      <trkpt lat="45.63079" lon="5.31688">
        <ele>283</ele>
        <time>2021-04-04T09:20:56.028Z</time>
      </trkpt>
      <trkpt lat="45.63083" lon="5.31687">
        <ele>284</ele>
        <time>2021-04-04T09:20:57.028Z</time>
      </trkpt>
      <trkpt lat="45.63086" lon="5.31687">
        <ele>285</ele>
        <time>2021-04-04T09:20:58.028Z</time>
      </trkpt>
      <trkpt lat="45.6309" lon="5.31687">
        <ele>286</ele>
        <time>2021-04-04T09:20:59.028Z</time>
      </trkpt>
      <trkpt lat="45.63094" lon="5.31687">
        <ele>287</ele>
        <time>2021-04-04T09:21:00.028Z</time>
      </trkpt>
      <trkpt lat="45.63098" lon="5.31688">
        <ele>288</ele>
        <time>2021-04-04T09:21:01.028Z</time>
      </trkpt>
      <trkpt lat="45.63102" lon="5.31689">
        <ele>288</ele>
        <time>2021-04-04T09:21:02.027Z</time>
      </trkpt>
      <trkpt lat="45.63105" lon="5.3169">
        <ele>289</ele>
        <time>2021-04-04T09:21:03.027Z</time>
      </trkpt>
      <trkpt lat="45.63109" lon="5.31691">
        <ele>289</ele>
        <time>2021-04-04T09:21:04.028Z</time>
      </trkpt>
      <trkpt lat="45.63112" lon="5.31692">
        <ele>289</ele>
        <time>2021-04-04T09:21:05.027Z</time>
      </trkpt>
      <trkpt lat="45.63116" lon="5.31693">
        <ele>289</ele>
        <time>2021-04-04T09:21:06.028Z</time>
      </trkpt>
      <trkpt lat="45.63119" lon="5.31694">
        <ele>290</ele>
        <time>2021-04-04T09:21:07.027Z</time>
      </trkpt>
      <trkpt lat="45.63123" lon="5.31696">
        <ele>290</ele>
        <time>2021-04-04T09:21:08.027Z</time>
      </trkpt>
      <trkpt lat="45.63126" lon="5.31697">
        <ele>290</ele>
        <time>2021-04-04T09:21:09.028Z</time>
      </trkpt>
      <trkpt lat="45.63129" lon="5.31699">
        <ele>290</ele>
        <time>2021-04-04T09:21:10.027Z</time>
      </trkpt>
      <trkpt lat="45.63132" lon="5.317">
        <ele>290</ele>
        <time>2021-04-04T09:21:11.028Z</time>
      </trkpt>
      <trkpt lat="45.63136" lon="5.31702">
        <ele>291</ele>
        <time>2021-04-04T09:21:12.028Z</time>
      </trkpt>
      <trkpt lat="45.6314" lon="5.31703">
        <ele>291</ele>
        <time>2021-04-04T09:21:13.027Z</time>
      </trkpt>
      <trkpt lat="45.63144" lon="5.31704">
        <ele>292</ele>
        <time>2021-04-04T09:21:14.028Z</time>
      </trkpt>
      <trkpt lat="45.63147" lon="5.31706">
        <ele>292</ele>
        <time>2021-04-04T09:21:15.027Z</time>
      </trkpt>
      <trkpt lat="45.63152" lon="5.31707">
        <ele>293</ele>
        <time>2021-04-04T09:21:16.028Z</time>
      </trkpt>
      <trkpt lat="45.63155" lon="5.31707">
        <ele>294</ele>
        <time>2021-04-04T09:21:17.028Z</time>
      </trkpt>
      <trkpt lat="45.6316" lon="5.31708">
        <ele>295</ele>
        <time>2021-04-04T09:21:18.027Z</time>
      </trkpt>
      <trkpt lat="45.63164" lon="5.31709">
        <ele>295</ele>
        <time>2021-04-04T09:21:19.027Z</time>
      </trkpt>
      <trkpt lat="45.63168" lon="5.3171">
        <ele>296</ele>
        <time>2021-04-04T09:21:20.028Z</time>
      </trkpt>
      <trkpt lat="45.63173" lon="5.3171">
        <ele>297</ele>
        <time>2021-04-04T09:21:21.028Z</time>
      </trkpt>
      <trkpt lat="45.63178" lon="5.31709">
        <ele>297</ele>
        <time>2021-04-04T09:21:22.028Z</time>
      </trkpt>
      <trkpt lat="45.63182" lon="5.31707">
        <ele>298</ele>
        <time>2021-04-04T09:21:23.028Z</time>
      </trkpt>
      <trkpt lat="45.63187" lon="5.31706">
        <ele>299</ele>
        <time>2021-04-04T09:21:24.028Z</time>
      </trkpt>
      <trkpt lat="45.63192" lon="5.31705">
        <ele>299</ele>
        <time>2021-04-04T09:21:25.028Z</time>
      </trkpt>
      <trkpt lat="45.63197" lon="5.31704">
        <ele>300</ele>
        <time>2021-04-04T09:21:26.028Z</time>
      </trkpt>
      <trkpt lat="45.63202" lon="5.31703">
        <ele>301</ele>
        <time>2021-04-04T09:21:27.028Z</time>
      </trkpt>
      <trkpt lat="45.63206" lon="5.31702">
        <ele>302</ele>
        <time>2021-04-04T09:21:28.027Z</time>
      </trkpt>
      <trkpt lat="45.6321" lon="5.317">
        <ele>302</ele>
        <time>2021-04-04T09:21:29.028Z</time>
      </trkpt>
      <trkpt lat="45.63214" lon="5.31698">
        <ele>303</ele>
        <time>2021-04-04T09:21:30.028Z</time>
      </trkpt>
      <trkpt lat="45.63218" lon="5.31697">
        <ele>304</ele>
        <time>2021-04-04T09:21:31.027Z</time>
      </trkpt>
      <trkpt lat="45.63221" lon="5.31697">
        <ele>304</ele>
        <time>2021-04-04T09:21:32.028Z</time>
      </trkpt>
      <trkpt lat="45.63225" lon="5.31696">
        <ele>304</ele>
        <time>2021-04-04T09:21:33.027Z</time>
      </trkpt>
      <trkpt lat="45.63228" lon="5.31695">
        <ele>304</ele>
        <time>2021-04-04T09:21:34.027Z</time>
      </trkpt>
      <trkpt lat="45.63231" lon="5.31693">
        <ele>305</ele>
        <time>2021-04-04T09:21:35.028Z</time>
      </trkpt>
      <trkpt lat="45.63235" lon="5.31691">
        <ele>305</ele>
        <time>2021-04-04T09:21:36.027Z</time>
      </trkpt>
      <trkpt lat="45.63238" lon="5.31689">
        <ele>306</ele>
        <time>2021-04-04T09:21:37.027Z</time>
      </trkpt>
      <trkpt lat="45.63241" lon="5.31687">
        <ele>306</ele>
        <time>2021-04-04T09:21:38.027Z</time>
      </trkpt>
      <trkpt lat="45.63244" lon="5.31686">
        <ele>307</ele>
        <time>2021-04-04T09:21:39.028Z</time>
      </trkpt>
      <trkpt lat="45.63247" lon="5.31685">
        <ele>308</ele>
        <time>2021-04-04T09:21:40.027Z</time>
      </trkpt>
      <trkpt lat="45.6325" lon="5.31684">
        <ele>308</ele>
        <time>2021-04-04T09:21:41.028Z</time>
      </trkpt>
      <trkpt lat="45.63253" lon="5.31682">
        <ele>309</ele>
        <time>2021-04-04T09:21:42.027Z</time>
      </trkpt>
      <trkpt lat="45.63257" lon="5.3168">
        <ele>309</ele>
        <time>2021-04-04T09:21:43.028Z</time>
      </trkpt>
      <trkpt lat="45.6326" lon="5.31679">
        <ele>309</ele>
        <time>2021-04-04T09:21:44.027Z</time>
      </trkpt>
      <trkpt lat="45.63263" lon="5.31679">
        <ele>310</ele>
        <time>2021-04-04T09:21:45.028Z</time>
      </trkpt>
      <trkpt lat="45.63267" lon="5.3168">
        <ele>311</ele>
        <time>2021-04-04T09:21:46.027Z</time>
      </trkpt>
      <trkpt lat="45.63269" lon="5.31683">
        <ele>311</ele>
        <time>2021-04-04T09:21:47.028Z</time>
      </trkpt>
      <trkpt lat="45.63269" lon="5.31688">
        <ele>312</ele>
        <time>2021-04-04T09:21:48.028Z</time>
      </trkpt>
      <trkpt lat="45.63269" lon="5.31692">
        <ele>312</ele>
        <time>2021-04-04T09:21:49.028Z</time>
      </trkpt>
      <trkpt lat="45.63269" lon="5.31695">
        <ele>313</ele>
        <time>2021-04-04T09:21:50.028Z</time>
      </trkpt>
      <trkpt lat="45.63267" lon="5.31698">
        <ele>314</ele>
        <time>2021-04-04T09:21:51.028Z</time>
      </trkpt>
      <trkpt lat="45.63265" lon="5.317">
        <ele>314</ele>
        <time>2021-04-04T09:21:52.028Z</time>
      </trkpt>
      <trkpt lat="45.63262" lon="5.31702">
        <ele>314</ele>
        <time>2021-04-04T09:21:53.027Z</time>
      </trkpt>
      <trkpt lat="45.63259" lon="5.31704">
        <ele>314</ele>
        <time>2021-04-04T09:21:54.027Z</time>
      </trkpt>
      <trkpt lat="45.63255" lon="5.31706">
        <ele>314</ele>
        <time>2021-04-04T09:21:55.028Z</time>
      </trkpt>
      <trkpt lat="45.63252" lon="5.31706">
        <ele>315</ele>
        <time>2021-04-04T09:21:56.027Z</time>
      </trkpt>
      <trkpt lat="45.63249" lon="5.31707">
        <ele>316</ele>
        <time>2021-04-04T09:21:57.027Z</time>
      </trkpt>
      <trkpt lat="45.63246" lon="5.31708">
        <ele>316</ele>
        <time>2021-04-04T09:21:58.028Z</time>
      </trkpt>
      <trkpt lat="45.63243" lon="5.31708">
        <ele>317</ele>
        <time>2021-04-04T09:21:59.027Z</time>
      </trkpt>
      <trkpt lat="45.6324" lon="5.3171">
        <ele>318</ele>
        <time>2021-04-04T09:22:00.028Z</time>
      </trkpt>
      <trkpt lat="45.63237" lon="5.31711">
        <ele>319</ele>
        <time>2021-04-04T09:22:01.027Z</time>
      </trkpt>
      <trkpt lat="45.63235" lon="5.31713">
        <ele>319</ele>
        <time>2021-04-04T09:22:02.028Z</time>
      </trkpt>
      <trkpt lat="45.63233" lon="5.31715">
        <ele>320</ele>
        <time>2021-04-04T09:22:03.027Z</time>
      </trkpt>
      <trkpt lat="45.63231" lon="5.3172">
        <ele>321</ele>
        <time>2021-04-04T09:22:04.028Z</time>
      </trkpt>
      <trkpt lat="45.63231" lon="5.31724">
        <ele>321</ele>
        <time>2021-04-04T09:22:05.027Z</time>
      </trkpt>
      <trkpt lat="45.63232" lon="5.31729">
        <ele>321</ele>
        <time>2021-04-04T09:22:06.028Z</time>
      </trkpt>
      <trkpt lat="45.63234" lon="5.31732">
        <ele>321</ele>
        <time>2021-04-04T09:22:07.028Z</time>
      </trkpt>
      <trkpt lat="45.63237" lon="5.31733">
        <ele>322</ele>
        <time>2021-04-04T09:22:08.028Z</time>
      </trkpt>
      <trkpt lat="45.6324" lon="5.31734">
        <ele>322</ele>
        <time>2021-04-04T09:22:09.028Z</time>
      </trkpt>
      <trkpt lat="45.63242" lon="5.31734">
        <ele>322</ele>
        <time>2021-04-04T09:22:10.027Z</time>
      </trkpt>
      <trkpt lat="45.63245" lon="5.31732">
        <ele>322</ele>
        <time>2021-04-04T09:22:11.028Z</time>
      </trkpt>
      <trkpt lat="45.63248" lon="5.31731">
        <ele>322</ele>
        <time>2021-04-04T09:22:12.028Z</time>
      </trkpt>
      <trkpt lat="45.63252" lon="5.31729">
        <ele>322</ele>
        <time>2021-04-04T09:22:13.028Z</time>
      </trkpt>
      <trkpt lat="45.63254" lon="5.31728">
        <ele>322</ele>
        <time>2021-04-04T09:22:14.028Z</time>
      </trkpt>
      <trkpt lat="45.63258" lon="5.31726">
        <ele>322</ele>
        <time>2021-04-04T09:22:15.028Z</time>
      </trkpt>
      <trkpt lat="45.63261" lon="5.31725">
        <ele>321</ele>
        <time>2021-04-04T09:22:16.028Z</time>
      </trkpt>
      <trkpt lat="45.63264" lon="5.31723">
        <ele>321</ele>
        <time>2021-04-04T09:22:17.028Z</time>
      </trkpt>
      <trkpt lat="45.63268" lon="5.31721">
        <ele>321</ele>
        <time>2021-04-04T09:22:18.028Z</time>
      </trkpt>
      <trkpt lat="45.63272" lon="5.31719">
        <ele>321</ele>
        <time>2021-04-04T09:22:19.028Z</time>
      </trkpt>
      <trkpt lat="45.63275" lon="5.31718">
        <ele>320</ele>
        <time>2021-04-04T09:22:20.028Z</time>
      </trkpt>
      <trkpt lat="45.63279" lon="5.31717">
        <ele>320</ele>
        <time>2021-04-04T09:22:21.027Z</time>
      </trkpt>
      <trkpt lat="45.63283" lon="5.31715">
        <ele>320</ele>
        <time>2021-04-04T09:22:22.027Z</time>
      </trkpt>
      <trkpt lat="45.63286" lon="5.31715">
        <ele>319</ele>
        <time>2021-04-04T09:22:23.028Z</time>
      </trkpt>
      <trkpt lat="45.63289" lon="5.31714">
        <ele>319</ele>
        <time>2021-04-04T09:22:24.028Z</time>
      </trkpt>
      <trkpt lat="45.63292" lon="5.31715">
        <ele>319</ele>
        <time>2021-04-04T09:22:25.028Z</time>
      </trkpt>
      <trkpt lat="45.63295" lon="5.31714">
        <ele>319</ele>
        <time>2021-04-04T09:22:26.028Z</time>
      </trkpt>
      <trkpt lat="45.63299" lon="5.31713">
        <ele>319</ele>
        <time>2021-04-04T09:22:27.028Z</time>
      </trkpt>
      <trkpt lat="45.63304" lon="5.31712">
        <ele>319</ele>
        <time>2021-04-04T09:22:28.028Z</time>
      </trkpt>
      <trkpt lat="45.63308" lon="5.31712">
        <ele>319</ele>
        <time>2021-04-04T09:22:29.028Z</time>
      </trkpt>
      <trkpt lat="45.63312" lon="5.31712">
        <ele>319</ele>
        <time>2021-04-04T09:22:30.028Z</time>
      </trkpt>
      <trkpt lat="45.63317" lon="5.31711">
        <ele>319</ele>
        <time>2021-04-04T09:22:31.028Z</time>
      </trkpt>
      <trkpt lat="45.63321" lon="5.3171">
        <ele>319</ele>
        <time>2021-04-04T09:22:32.027Z</time>
      </trkpt>
      <trkpt lat="45.63324" lon="5.31709">
        <ele>319</ele>
        <time>2021-04-04T09:22:33.028Z</time>
      </trkpt>
      <trkpt lat="45.63329" lon="5.31707">
        <ele>320</ele>
        <time>2021-04-04T09:22:34.027Z</time>
      </trkpt>
      <trkpt lat="45.63332" lon="5.31703">
        <ele>320</ele>
        <time>2021-04-04T09:22:35.028Z</time>
      </trkpt>
      <trkpt lat="45.63335" lon="5.317">
        <ele>320</ele>
        <time>2021-04-04T09:22:36.028Z</time>
      </trkpt>
      <trkpt lat="45.63338" lon="5.31695">
        <ele>320</ele>
        <time>2021-04-04T09:22:37.027Z</time>
      </trkpt>
      <trkpt lat="45.6334" lon="5.31691">
        <ele>320</ele>
        <time>2021-04-04T09:22:38.027Z</time>
      </trkpt>
      <trkpt lat="45.63343" lon="5.31687">
        <ele>321</ele>
        <time>2021-04-04T09:22:39.027Z</time>
      </trkpt>
      <trkpt lat="45.63345" lon="5.31683">
        <ele>321</ele>
        <time>2021-04-04T09:22:40.028Z</time>
      </trkpt>
      <trkpt lat="45.63346" lon="5.3168">
        <ele>321</ele>
        <time>2021-04-04T09:22:41.028Z</time>
      </trkpt>
      <trkpt lat="45.63348" lon="5.31676">
        <ele>321</ele>
        <time>2021-04-04T09:22:42.028Z</time>
      </trkpt>
      <trkpt lat="45.63351" lon="5.31672">
        <ele>321</ele>
        <time>2021-04-04T09:22:43.027Z</time>
      </trkpt>
      <trkpt lat="45.63353" lon="5.31667">
        <ele>321</ele>
        <time>2021-04-04T09:22:44.027Z</time>
      </trkpt>
      <trkpt lat="45.63355" lon="5.31663">
        <ele>321</ele>
        <time>2021-04-04T09:22:45.028Z</time>
      </trkpt>
      <trkpt lat="45.63357" lon="5.31659">
        <ele>321</ele>
        <time>2021-04-04T09:22:46.027Z</time>
      </trkpt>
      <trkpt lat="45.63359" lon="5.31654">
        <ele>321</ele>
        <time>2021-04-04T09:22:47.028Z</time>
      </trkpt>
      <trkpt lat="45.63362" lon="5.31648">
        <ele>321</ele>
        <time>2021-04-04T09:22:48.027Z</time>
      </trkpt>
      <trkpt lat="45.63364" lon="5.31645">
        <ele>321</ele>
        <time>2021-04-04T09:22:49.028Z</time>
      </trkpt>
      <trkpt lat="45.63366" lon="5.31641">
        <ele>321</ele>
        <time>2021-04-04T09:22:50.027Z</time>
      </trkpt>
      <trkpt lat="45.63369" lon="5.31637">
        <ele>321</ele>
        <time>2021-04-04T09:22:51.028Z</time>
      </trkpt>
      <trkpt lat="45.63371" lon="5.31633">
        <ele>322</ele>
        <time>2021-04-04T09:22:52.028Z</time>
      </trkpt>
      <trkpt lat="45.63373" lon="5.31629">
        <ele>322</ele>
        <time>2021-04-04T09:22:53.028Z</time>
      </trkpt>
      <trkpt lat="45.63375" lon="5.31626">
        <ele>323</ele>
        <time>2021-04-04T09:22:54.027Z</time>
      </trkpt>
      <trkpt lat="45.63378" lon="5.31622">
        <ele>323</ele>
        <time>2021-04-04T09:22:55.028Z</time>
      </trkpt>
      <trkpt lat="45.6338" lon="5.31619">
        <ele>324</ele>
        <time>2021-04-04T09:22:56.028Z</time>
      </trkpt>
      <trkpt lat="45.63382" lon="5.31616">
        <ele>324</ele>
        <time>2021-04-04T09:22:57.027Z</time>
      </trkpt>
      <trkpt lat="45.63385" lon="5.31612">
        <ele>324</ele>
        <time>2021-04-04T09:22:58.028Z</time>
      </trkpt>
      <trkpt lat="45.63388" lon="5.31609">
        <ele>324</ele>
        <time>2021-04-04T09:22:59.027Z</time>
      </trkpt>
      <trkpt lat="45.63391" lon="5.31606">
        <ele>324</ele>
        <time>2021-04-04T09:23:00.028Z</time>
      </trkpt>
      <trkpt lat="45.63393" lon="5.31602">
        <ele>324</ele>
        <time>2021-04-04T09:23:01.028Z</time>
      </trkpt>
      <trkpt lat="45.63396" lon="5.31598">
        <ele>324</ele>
        <time>2021-04-04T09:23:02.027Z</time>
      </trkpt>
      <trkpt lat="45.63398" lon="5.31594">
        <ele>324</ele>
        <time>2021-04-04T09:23:03.028Z</time>
      </trkpt>
      <trkpt lat="45.634" lon="5.31589">
        <ele>325</ele>
        <time>2021-04-04T09:23:04.027Z</time>
      </trkpt>
      <trkpt lat="45.63402" lon="5.31585">
        <ele>325</ele>
        <time>2021-04-04T09:23:05.027Z</time>
      </trkpt>
      <trkpt lat="45.63404" lon="5.31581">
        <ele>325</ele>
        <time>2021-04-04T09:23:06.028Z</time>
      </trkpt>
      <trkpt lat="45.63405" lon="5.31576">
        <ele>325</ele>
        <time>2021-04-04T09:23:07.028Z</time>
      </trkpt>
      <trkpt lat="45.63406" lon="5.31571">
        <ele>325</ele>
        <time>2021-04-04T09:23:08.028Z</time>
      </trkpt>
      <trkpt lat="45.63408" lon="5.31566">
        <ele>325</ele>
        <time>2021-04-04T09:23:09.028Z</time>
      </trkpt>
      <trkpt lat="45.63409" lon="5.31561">
        <ele>325</ele>
        <time>2021-04-04T09:23:10.028Z</time>
      </trkpt>
      <trkpt lat="45.63409" lon="5.31555">
        <ele>325</ele>
        <time>2021-04-04T09:23:11.027Z</time>
      </trkpt>
      <trkpt lat="45.63409" lon="5.31551">
        <ele>325</ele>
        <time>2021-04-04T09:23:12.028Z</time>
      </trkpt>
      <trkpt lat="45.6341" lon="5.31547">
        <ele>325</ele>
        <time>2021-04-04T09:23:13.028Z</time>
      </trkpt>
      <trkpt lat="45.6341" lon="5.31541">
        <ele>325</ele>
        <time>2021-04-04T09:23:14.027Z</time>
      </trkpt>
      <trkpt lat="45.6341" lon="5.31536">
        <ele>325</ele>
        <time>2021-04-04T09:23:15.028Z</time>
      </trkpt>
      <trkpt lat="45.6341" lon="5.3153">
        <ele>325</ele>
        <time>2021-04-04T09:23:16.027Z</time>
      </trkpt>
      <trkpt lat="45.6341" lon="5.31525">
        <ele>324</ele>
        <time>2021-04-04T09:23:17.028Z</time>
      </trkpt>
      <trkpt lat="45.63409" lon="5.3152">
        <ele>324</ele>
        <time>2021-04-04T09:23:18.028Z</time>
      </trkpt>
      <trkpt lat="45.63408" lon="5.31514">
        <ele>325</ele>
        <time>2021-04-04T09:23:19.028Z</time>
      </trkpt>
      <trkpt lat="45.63407" lon="5.31509">
        <ele>325</ele>
        <time>2021-04-04T09:23:20.028Z</time>
      </trkpt>
      <trkpt lat="45.63406" lon="5.31503">
        <ele>326</ele>
        <time>2021-04-04T09:23:21.028Z</time>
      </trkpt>
      <trkpt lat="45.63405" lon="5.31498">
        <ele>326</ele>
        <time>2021-04-04T09:23:22.028Z</time>
      </trkpt>
      <trkpt lat="45.63403" lon="5.31493">
        <ele>326</ele>
        <time>2021-04-04T09:23:23.027Z</time>
      </trkpt>
      <trkpt lat="45.63402" lon="5.31488">
        <ele>327</ele>
        <time>2021-04-04T09:23:24.027Z</time>
      </trkpt>
      <trkpt lat="45.634" lon="5.31483">
        <ele>327</ele>
        <time>2021-04-04T09:23:25.028Z</time>
      </trkpt>
      <trkpt lat="45.63398" lon="5.31477">
        <ele>327</ele>
        <time>2021-04-04T09:23:26.028Z</time>
      </trkpt>
      <trkpt lat="45.63397" lon="5.31471">
        <ele>328</ele>
        <time>2021-04-04T09:23:27.028Z</time>
      </trkpt>
      <trkpt lat="45.63397" lon="5.31465">
        <ele>328</ele>
        <time>2021-04-04T09:23:28.027Z</time>
      </trkpt>
      <trkpt lat="45.63398" lon="5.31459">
        <ele>329</ele>
        <time>2021-04-04T09:23:29.028Z</time>
      </trkpt>
      <trkpt lat="45.634" lon="5.31454">
        <ele>329</ele>
        <time>2021-04-04T09:23:30.028Z</time>
      </trkpt>
      <trkpt lat="45.63403" lon="5.3145">
        <ele>330</ele>
        <time>2021-04-04T09:23:31.028Z</time>
      </trkpt>
      <trkpt lat="45.63406" lon="5.31449">
        <ele>331</ele>
        <time>2021-04-04T09:23:32.028Z</time>
      </trkpt>
      <trkpt lat="45.6341" lon="5.31449">
        <ele>331</ele>
        <time>2021-04-04T09:23:33.028Z</time>
      </trkpt>
      <trkpt lat="45.63413" lon="5.31452">
        <ele>331</ele>
        <time>2021-04-04T09:23:34.027Z</time>
      </trkpt>
      <trkpt lat="45.63416" lon="5.31455">
        <ele>332</ele>
        <time>2021-04-04T09:23:35.028Z</time>
      </trkpt>
      <trkpt lat="45.63419" lon="5.31459">
        <ele>332</ele>
        <time>2021-04-04T09:23:36.027Z</time>
      </trkpt>
      <trkpt lat="45.63422" lon="5.31464">
        <ele>332</ele>
        <time>2021-04-04T09:23:37.028Z</time>
      </trkpt>
      <trkpt lat="45.63425" lon="5.31469">
        <ele>332</ele>
        <time>2021-04-04T09:23:38.028Z</time>
      </trkpt>
      <trkpt lat="45.63427" lon="5.31474">
        <ele>332</ele>
        <time>2021-04-04T09:23:39.028Z</time>
      </trkpt>
      <trkpt lat="45.63429" lon="5.31481">
        <ele>333</ele>
        <time>2021-04-04T09:23:40.027Z</time>
      </trkpt>
      <trkpt lat="45.63431" lon="5.31488">
        <ele>333</ele>
        <time>2021-04-04T09:23:41.027Z</time>
      </trkpt>
      <trkpt lat="45.63433" lon="5.31494">
        <ele>333</ele>
        <time>2021-04-04T09:23:42.028Z</time>
      </trkpt>
      <trkpt lat="45.63434" lon="5.315">
        <ele>334</ele>
        <time>2021-04-04T09:23:43.027Z</time>
      </trkpt>
      <trkpt lat="45.63436" lon="5.31506">
        <ele>334</ele>
        <time>2021-04-04T09:23:44.027Z</time>
      </trkpt>
      <trkpt lat="45.63438" lon="5.31511">
        <ele>335</ele>
        <time>2021-04-04T09:23:45.028Z</time>
      </trkpt>
      <trkpt lat="45.63441" lon="5.31516">
        <ele>335</ele>
        <time>2021-04-04T09:23:46.027Z</time>
      </trkpt>
      <trkpt lat="45.63442" lon="5.31521">
        <ele>335</ele>
        <time>2021-04-04T09:23:47.028Z</time>
      </trkpt>
      <trkpt lat="45.63443" lon="5.31527">
        <ele>335</ele>
        <time>2021-04-04T09:23:48.027Z</time>
      </trkpt>
      <trkpt lat="45.63443" lon="5.31533">
        <ele>335</ele>
        <time>2021-04-04T09:23:49.027Z</time>
      </trkpt>
      <trkpt lat="45.63443" lon="5.31539">
        <ele>336</ele>
        <time>2021-04-04T09:23:50.027Z</time>
      </trkpt>
      <trkpt lat="45.63443" lon="5.31545">
        <ele>336</ele>
        <time>2021-04-04T09:23:51.028Z</time>
      </trkpt>
      <trkpt lat="45.63442" lon="5.3155">
        <ele>336</ele>
        <time>2021-04-04T09:23:52.028Z</time>
      </trkpt>
      <trkpt lat="45.63441" lon="5.31555">
        <ele>336</ele>
        <time>2021-04-04T09:23:53.028Z</time>
      </trkpt>
      <trkpt lat="45.6344" lon="5.3156">
        <ele>337</ele>
        <time>2021-04-04T09:23:54.028Z</time>
      </trkpt>
      <trkpt lat="45.63438" lon="5.31566">
        <ele>337</ele>
        <time>2021-04-04T09:23:55.028Z</time>
      </trkpt>
      <trkpt lat="45.63437" lon="5.3157">
        <ele>338</ele>
        <time>2021-04-04T09:23:56.027Z</time>
      </trkpt>
      <trkpt lat="45.63435" lon="5.31575">
        <ele>338</ele>
        <time>2021-04-04T09:23:57.027Z</time>
      </trkpt>
      <trkpt lat="45.63433" lon="5.3158">
        <ele>339</ele>
        <time>2021-04-04T09:23:58.028Z</time>
      </trkpt>
      <trkpt lat="45.63431" lon="5.31586">
        <ele>339</ele>
        <time>2021-04-04T09:23:59.027Z</time>
      </trkpt>
      <trkpt lat="45.6343" lon="5.31591">
        <ele>339</ele>
        <time>2021-04-04T09:24:00.027Z</time>
      </trkpt>
      <trkpt lat="45.63429" lon="5.31596">
        <ele>340</ele>
        <time>2021-04-04T09:24:01.028Z</time>
      </trkpt>
      <trkpt lat="45.63428" lon="5.31602">
        <ele>340</ele>
        <time>2021-04-04T09:24:02.028Z</time>
      </trkpt>
      <trkpt lat="45.63427" lon="5.31607">
        <ele>340</ele>
        <time>2021-04-04T09:24:03.027Z</time>
      </trkpt>
      <trkpt lat="45.63427" lon="5.31613">
        <ele>340</ele>
        <time>2021-04-04T09:24:04.028Z</time>
      </trkpt>
      <trkpt lat="45.63428" lon="5.31619">
        <ele>341</ele>
        <time>2021-04-04T09:24:05.027Z</time>
      </trkpt>
      <trkpt lat="45.63428" lon="5.31625">
        <ele>341</ele>
        <time>2021-04-04T09:24:06.028Z</time>
      </trkpt>
      <trkpt lat="45.63429" lon="5.3163">
        <ele>342</ele>
        <time>2021-04-04T09:24:07.028Z</time>
      </trkpt>
      <trkpt lat="45.6343" lon="5.31636">
        <ele>342</ele>
        <time>2021-04-04T09:24:08.027Z</time>
      </trkpt>
      <trkpt lat="45.6343" lon="5.31642">
        <ele>343</ele>
        <time>2021-04-04T09:24:09.028Z</time>
      </trkpt>
      <trkpt lat="45.6343" lon="5.31648">
        <ele>343</ele>
        <time>2021-04-04T09:24:10.027Z</time>
      </trkpt>
      <trkpt lat="45.63429" lon="5.31653">
        <ele>343</ele>
        <time>2021-04-04T09:24:11.027Z</time>
      </trkpt>
      <trkpt lat="45.63428" lon="5.31658">
        <ele>344</ele>
        <time>2021-04-04T09:24:12.028Z</time>
      </trkpt>
      <trkpt lat="45.63426" lon="5.31663">
        <ele>344</ele>
        <time>2021-04-04T09:24:13.028Z</time>
      </trkpt>
      <trkpt lat="45.63424" lon="5.31667">
        <ele>344</ele>
        <time>2021-04-04T09:24:14.028Z</time>
      </trkpt>
      <trkpt lat="45.63422" lon="5.31671">
        <ele>345</ele>
        <time>2021-04-04T09:24:15.028Z</time>
      </trkpt>
      <trkpt lat="45.63419" lon="5.31675">
        <ele>345</ele>
        <time>2021-04-04T09:24:16.028Z</time>
      </trkpt>
      <trkpt lat="45.63417" lon="5.31679">
        <ele>346</ele>
        <time>2021-04-04T09:24:17.028Z</time>
      </trkpt>
      <trkpt lat="45.63416" lon="5.31683">
        <ele>346</ele>
        <time>2021-04-04T09:24:18.028Z</time>
      </trkpt>
      <trkpt lat="45.63414" lon="5.31688">
        <ele>346</ele>
        <time>2021-04-04T09:24:19.028Z</time>
      </trkpt>
      <trkpt lat="45.63414" lon="5.31694">
        <ele>346</ele>
        <time>2021-04-04T09:24:20.027Z</time>
      </trkpt>
      <trkpt lat="45.63413" lon="5.31699">
        <ele>346</ele>
        <time>2021-04-04T09:24:21.027Z</time>
      </trkpt>
      <trkpt lat="45.63412" lon="5.31705">
        <ele>347</ele>
        <time>2021-04-04T09:24:22.027Z</time>
      </trkpt>
      <trkpt lat="45.63411" lon="5.31711">
        <ele>347</ele>
        <time>2021-04-04T09:24:23.028Z</time>
      </trkpt>
      <trkpt lat="45.6341" lon="5.31716">
        <ele>347</ele>
        <time>2021-04-04T09:24:24.028Z</time>
      </trkpt>
      <trkpt lat="45.6341" lon="5.31722">
        <ele>347</ele>
        <time>2021-04-04T09:24:25.027Z</time>
      </trkpt>
      <trkpt lat="45.63409" lon="5.31728">
        <ele>348</ele>
        <time>2021-04-04T09:24:26.028Z</time>
      </trkpt>
      <trkpt lat="45.63409" lon="5.31733">
        <ele>348</ele>
        <time>2021-04-04T09:24:27.028Z</time>
      </trkpt>
      <trkpt lat="45.63409" lon="5.31739">
        <ele>348</ele>
        <time>2021-04-04T09:24:28.027Z</time>
      </trkpt>
      <trkpt lat="45.63409" lon="5.31745">
        <ele>348</ele>
        <time>2021-04-04T09:24:29.027Z</time>
      </trkpt>
      <trkpt lat="45.63408" lon="5.31751">
        <ele>348</ele>
        <time>2021-04-04T09:24:30.027Z</time>
      </trkpt>
      <trkpt lat="45.63409" lon="5.31757">
        <ele>348</ele>
        <time>2021-04-04T09:24:31.027Z</time>
      </trkpt>
      <trkpt lat="45.6341" lon="5.31763">
        <ele>348</ele>
        <time>2021-04-04T09:24:32.027Z</time>
      </trkpt>
      <trkpt lat="45.63411" lon="5.31769">
        <ele>349</ele>
        <time>2021-04-04T09:24:33.028Z</time>
      </trkpt>
      <trkpt lat="45.63413" lon="5.31775">
        <ele>349</ele>
        <time>2021-04-04T09:24:34.028Z</time>
      </trkpt>
      <trkpt lat="45.63414" lon="5.3178">
        <ele>350</ele>
        <time>2021-04-04T09:24:35.028Z</time>
      </trkpt>
      <trkpt lat="45.63416" lon="5.31785">
        <ele>350</ele>
        <time>2021-04-04T09:24:36.027Z</time>
      </trkpt>
      <trkpt lat="45.6342" lon="5.31789">
        <ele>350</ele>
        <time>2021-04-04T09:24:37.027Z</time>
      </trkpt>
      <trkpt lat="45.63423" lon="5.31792">
        <ele>351</ele>
        <time>2021-04-04T09:24:38.027Z</time>
      </trkpt>
      <trkpt lat="45.63426" lon="5.31795">
        <ele>351</ele>
        <time>2021-04-04T09:24:39.028Z</time>
      </trkpt>
      <trkpt lat="45.63429" lon="5.31798">
        <ele>351</ele>
        <time>2021-04-04T09:24:40.027Z</time>
      </trkpt>
      <trkpt lat="45.63433" lon="5.31801">
        <ele>352</ele>
        <time>2021-04-04T09:24:41.028Z</time>
      </trkpt>
      <trkpt lat="45.63436" lon="5.31804">
        <ele>352</ele>
        <time>2021-04-04T09:24:42.027Z</time>
      </trkpt>
      <trkpt lat="45.63439" lon="5.31806">
        <ele>352</ele>
        <time>2021-04-04T09:24:43.028Z</time>
      </trkpt>
      <trkpt lat="45.63442" lon="5.31807">
        <ele>352</ele>
        <time>2021-04-04T09:24:44.028Z</time>
      </trkpt>
      <trkpt lat="45.63445" lon="5.31805">
        <ele>352</ele>
        <time>2021-04-04T09:24:45.028Z</time>
      </trkpt>
      <trkpt lat="45.63447" lon="5.31803">
        <ele>352</ele>
        <time>2021-04-04T09:24:46.027Z</time>
      </trkpt>
      <trkpt lat="45.63449" lon="5.31798">
        <ele>352</ele>
        <time>2021-04-04T09:24:47.028Z</time>
      </trkpt>
      <trkpt lat="45.63451" lon="5.31793">
        <ele>351</ele>
        <time>2021-04-04T09:24:48.027Z</time>
      </trkpt>
      <trkpt lat="45.63452" lon="5.31788">
        <ele>351</ele>
        <time>2021-04-04T09:24:49.028Z</time>
      </trkpt>
      <trkpt lat="45.63453" lon="5.31782">
        <ele>351</ele>
        <time>2021-04-04T09:24:50.027Z</time>
      </trkpt>
      <trkpt lat="45.63454" lon="5.31777">
        <ele>351</ele>
        <time>2021-04-04T09:24:51.028Z</time>
      </trkpt>
      <trkpt lat="45.63455" lon="5.31771">
        <ele>351</ele>
        <time>2021-04-04T09:24:52.028Z</time>
      </trkpt>
      <trkpt lat="45.63457" lon="5.31766">
        <ele>351</ele>
        <time>2021-04-04T09:24:53.028Z</time>
      </trkpt>
      <trkpt lat="45.63458" lon="5.3176">
        <ele>351</ele>
        <time>2021-04-04T09:24:54.027Z</time>
      </trkpt>
      <trkpt lat="45.63459" lon="5.31754">
        <ele>351</ele>
        <time>2021-04-04T09:24:55.028Z</time>
      </trkpt>
      <trkpt lat="45.63461" lon="5.31749">
        <ele>351</ele>
        <time>2021-04-04T09:24:56.028Z</time>
      </trkpt>
      <trkpt lat="45.63462" lon="5.31743">
        <ele>351</ele>
        <time>2021-04-04T09:24:57.028Z</time>
      </trkpt>
      <trkpt lat="45.63463" lon="5.31737">
        <ele>350</ele>
        <time>2021-04-04T09:24:58.028Z</time>
      </trkpt>
      <trkpt lat="45.63465" lon="5.31731">
        <ele>350</ele>
        <time>2021-04-04T09:24:59.028Z</time>
      </trkpt>
      <trkpt lat="45.63467" lon="5.31725">
        <ele>350</ele>
        <time>2021-04-04T09:25:00.028Z</time>
      </trkpt>
      <trkpt lat="45.63468" lon="5.3172">
        <ele>349</ele>
        <time>2021-04-04T09:25:01.027Z</time>
      </trkpt>
      <trkpt lat="45.6347" lon="5.31714">
        <ele>349</ele>
        <time>2021-04-04T09:25:02.028Z</time>
      </trkpt>
      <trkpt lat="45.63471" lon="5.31708">
        <ele>349</ele>
        <time>2021-04-04T09:25:03.028Z</time>
      </trkpt>
      <trkpt lat="45.63473" lon="5.31702">
        <ele>349</ele>
        <time>2021-04-04T09:25:04.027Z</time>
      </trkpt>
      <trkpt lat="45.63474" lon="5.31697">
        <ele>349</ele>
        <time>2021-04-04T09:25:05.028Z</time>
      </trkpt>
      <trkpt lat="45.63476" lon="5.31691">
        <ele>350</ele>
        <time>2021-04-04T09:25:06.027Z</time>
      </trkpt>
      <trkpt lat="45.63477" lon="5.31685">
        <ele>350</ele>
        <time>2021-04-04T09:25:07.028Z</time>
      </trkpt>
      <trkpt lat="45.63479" lon="5.3168">
        <ele>350</ele>
        <time>2021-04-04T09:25:08.028Z</time>
      </trkpt>
      <trkpt lat="45.6348" lon="5.31674">
        <ele>350</ele>
        <time>2021-04-04T09:25:09.028Z</time>
      </trkpt>
      <trkpt lat="45.63482" lon="5.31668">
        <ele>350</ele>
        <time>2021-04-04T09:25:10.027Z</time>
      </trkpt>
      <trkpt lat="45.63483" lon="5.31663">
        <ele>350</ele>
        <time>2021-04-04T09:25:11.028Z</time>
      </trkpt>
      <trkpt lat="45.63484" lon="5.31657">
        <ele>351</ele>
        <time>2021-04-04T09:25:12.028Z</time>
      </trkpt>
      <trkpt lat="45.63486" lon="5.31651">
        <ele>351</ele>
        <time>2021-04-04T09:25:13.028Z</time>
      </trkpt>
      <trkpt lat="45.63487" lon="5.31645">
        <ele>351</ele>
        <time>2021-04-04T09:25:14.028Z</time>
      </trkpt>
      <trkpt lat="45.63488" lon="5.3164">
        <ele>351</ele>
        <time>2021-04-04T09:25:15.028Z</time>
      </trkpt>
      <trkpt lat="45.6349" lon="5.31634">
        <ele>352</ele>
        <time>2021-04-04T09:25:16.028Z</time>
      </trkpt>
      <trkpt lat="45.63491" lon="5.31629">
        <ele>352</ele>
        <time>2021-04-04T09:25:17.028Z</time>
      </trkpt>
      <trkpt lat="45.63493" lon="5.31623">
        <ele>352</ele>
        <time>2021-04-04T09:25:18.028Z</time>
      </trkpt>
      <trkpt lat="45.63495" lon="5.31618">
        <ele>353</ele>
        <time>2021-04-04T09:25:19.028Z</time>
      </trkpt>
      <trkpt lat="45.63496" lon="5.31612">
        <ele>353</ele>
        <time>2021-04-04T09:25:20.028Z</time>
      </trkpt>
      <trkpt lat="45.63498" lon="5.31606">
        <ele>354</ele>
        <time>2021-04-04T09:25:21.028Z</time>
      </trkpt>
      <trkpt lat="45.635" lon="5.31601">
        <ele>355</ele>
        <time>2021-04-04T09:25:22.027Z</time>
      </trkpt>
      <trkpt lat="45.63502" lon="5.31595">
        <ele>355</ele>
        <time>2021-04-04T09:25:23.027Z</time>
      </trkpt>
      <trkpt lat="45.63504" lon="5.3159">
        <ele>355</ele>
        <time>2021-04-04T09:25:24.028Z</time>
      </trkpt>
      <trkpt lat="45.63507" lon="5.31585">
        <ele>355</ele>
        <time>2021-04-04T09:25:25.028Z</time>
      </trkpt>
      <trkpt lat="45.63509" lon="5.31579">
        <ele>355</ele>
        <time>2021-04-04T09:25:26.028Z</time>
      </trkpt>
      <trkpt lat="45.63512" lon="5.31574">
        <ele>355</ele>
        <time>2021-04-04T09:25:27.028Z</time>
      </trkpt>
      <trkpt lat="45.63515" lon="5.31569">
        <ele>355</ele>
        <time>2021-04-04T09:25:28.027Z</time>
      </trkpt>
      <trkpt lat="45.63517" lon="5.31564">
        <ele>355</ele>
        <time>2021-04-04T09:25:29.027Z</time>
      </trkpt>
      <trkpt lat="45.6352" lon="5.31558">
        <ele>355</ele>
        <time>2021-04-04T09:25:30.028Z</time>
      </trkpt>
      <trkpt lat="45.63522" lon="5.31553">
        <ele>355</ele>
        <time>2021-04-04T09:25:31.028Z</time>
      </trkpt>
      <trkpt lat="45.63525" lon="5.31548">
        <ele>355</ele>
        <time>2021-04-04T09:25:32.028Z</time>
      </trkpt>
      <trkpt lat="45.63527" lon="5.31542">
        <ele>356</ele>
        <time>2021-04-04T09:25:33.028Z</time>
      </trkpt>
      <trkpt lat="45.6353" lon="5.31537">
        <ele>356</ele>
        <time>2021-04-04T09:25:34.028Z</time>
      </trkpt>
      <trkpt lat="45.63532" lon="5.31531">
        <ele>356</ele>
        <time>2021-04-04T09:25:35.028Z</time>
      </trkpt>
      <trkpt lat="45.63534" lon="5.31526">
        <ele>357</ele>
        <time>2021-04-04T09:25:36.028Z</time>
      </trkpt>
      <trkpt lat="45.63537" lon="5.3152">
        <ele>357</ele>
        <time>2021-04-04T09:25:37.028Z</time>
      </trkpt>
      <trkpt lat="45.63539" lon="5.31515">
        <ele>357</ele>
        <time>2021-04-04T09:25:38.028Z</time>
      </trkpt>
      <trkpt lat="45.63542" lon="5.31511">
        <ele>357</ele>
        <time>2021-04-04T09:25:39.027Z</time>
      </trkpt>
      <trkpt lat="45.63544" lon="5.31506">
        <ele>357</ele>
        <time>2021-04-04T09:25:40.027Z</time>
      </trkpt>
      <trkpt lat="45.63547" lon="5.31501">
        <ele>356</ele>
        <time>2021-04-04T09:25:41.027Z</time>
      </trkpt>
      <trkpt lat="45.63549" lon="5.31496">
        <ele>356</ele>
        <time>2021-04-04T09:25:42.028Z</time>
      </trkpt>
      <trkpt lat="45.63551" lon="5.31491">
        <ele>356</ele>
        <time>2021-04-04T09:25:43.027Z</time>
      </trkpt>
      <trkpt lat="45.63553" lon="5.31486">
        <ele>356</ele>
        <time>2021-04-04T09:25:44.028Z</time>
      </trkpt>
      <trkpt lat="45.63556" lon="5.31481">
        <ele>356</ele>
        <time>2021-04-04T09:25:45.028Z</time>
      </trkpt>
      <trkpt lat="45.63558" lon="5.31476">
        <ele>356</ele>
        <time>2021-04-04T09:25:46.028Z</time>
      </trkpt>
      <trkpt lat="45.6356" lon="5.3147">
        <ele>357</ele>
        <time>2021-04-04T09:25:47.028Z</time>
      </trkpt>
      <trkpt lat="45.63562" lon="5.31465">
        <ele>358</ele>
        <time>2021-04-04T09:25:48.028Z</time>
      </trkpt>
      <trkpt lat="45.63564" lon="5.3146">
        <ele>358</ele>
        <time>2021-04-04T09:25:49.028Z</time>
      </trkpt>
      <trkpt lat="45.63566" lon="5.31455">
        <ele>359</ele>
        <time>2021-04-04T09:25:50.027Z</time>
      </trkpt>
      <trkpt lat="45.63568" lon="5.3145">
        <ele>359</ele>
        <time>2021-04-04T09:25:51.028Z</time>
      </trkpt>
      <trkpt lat="45.6357" lon="5.31445">
        <ele>359</ele>
        <time>2021-04-04T09:25:52.028Z</time>
      </trkpt>
      <trkpt lat="45.63572" lon="5.31439">
        <ele>360</ele>
        <time>2021-04-04T09:25:53.028Z</time>
      </trkpt>
      <trkpt lat="45.63574" lon="5.31433">
        <ele>360</ele>
        <time>2021-04-04T09:25:54.028Z</time>
      </trkpt>
      <trkpt lat="45.63575" lon="5.31427">
        <ele>360</ele>
        <time>2021-04-04T09:25:55.028Z</time>
      </trkpt>
      <trkpt lat="45.63577" lon="5.31421">
        <ele>361</ele>
        <time>2021-04-04T09:25:56.027Z</time>
      </trkpt>
      <trkpt lat="45.63579" lon="5.31415">
        <ele>361</ele>
        <time>2021-04-04T09:25:57.028Z</time>
      </trkpt>
      <trkpt lat="45.6358" lon="5.31409">
        <ele>361</ele>
        <time>2021-04-04T09:25:58.027Z</time>
      </trkpt>
      <trkpt lat="45.63582" lon="5.31403">
        <ele>361</ele>
        <time>2021-04-04T09:25:59.028Z</time>
      </trkpt>
      <trkpt lat="45.63584" lon="5.31396">
        <ele>362</ele>
        <time>2021-04-04T09:26:00.027Z</time>
      </trkpt>
      <trkpt lat="45.63585" lon="5.31389">
        <ele>362</ele>
        <time>2021-04-04T09:26:01.027Z</time>
      </trkpt>
      <trkpt lat="45.63587" lon="5.31383">
        <ele>362</ele>
        <time>2021-04-04T09:26:02.028Z</time>
      </trkpt>
      <trkpt lat="45.63588" lon="5.31376">
        <ele>362</ele>
        <time>2021-04-04T09:26:03.028Z</time>
      </trkpt>
      <trkpt lat="45.63589" lon="5.31369">
        <ele>363</ele>
        <time>2021-04-04T09:26:04.028Z</time>
      </trkpt>
      <trkpt lat="45.63591" lon="5.31361">
        <ele>363</ele>
        <time>2021-04-04T09:26:05.027Z</time>
      </trkpt>
      <trkpt lat="45.63593" lon="5.31354">
        <ele>363</ele>
        <time>2021-04-04T09:26:06.027Z</time>
      </trkpt>
      <trkpt lat="45.63594" lon="5.31347">
        <ele>364</ele>
        <time>2021-04-04T09:26:07.028Z</time>
      </trkpt>
      <trkpt lat="45.63596" lon="5.3134">
        <ele>364</ele>
        <time>2021-04-04T09:26:08.027Z</time>
      </trkpt>
      <trkpt lat="45.63598" lon="5.31332">
        <ele>364</ele>
        <time>2021-04-04T09:26:09.027Z</time>
      </trkpt>
      <trkpt lat="45.63599" lon="5.31325">
        <ele>364</ele>
        <time>2021-04-04T09:26:10.028Z</time>
      </trkpt>
      <trkpt lat="45.63601" lon="5.31317">
        <ele>365</ele>
        <time>2021-04-04T09:26:11.028Z</time>
      </trkpt>
      <trkpt lat="45.63602" lon="5.3131">
        <ele>365</ele>
        <time>2021-04-04T09:26:12.027Z</time>
      </trkpt>
      <trkpt lat="45.63604" lon="5.31302">
        <ele>365</ele>
        <time>2021-04-04T09:26:13.028Z</time>
      </trkpt>
      <trkpt lat="45.63605" lon="5.31295">
        <ele>365</ele>
        <time>2021-04-04T09:26:14.028Z</time>
      </trkpt>
      <trkpt lat="45.63607" lon="5.31287">
        <ele>365</ele>
        <time>2021-04-04T09:26:15.028Z</time>
      </trkpt>
      <trkpt lat="45.63608" lon="5.3128">
        <ele>365</ele>
        <time>2021-04-04T09:26:16.027Z</time>
      </trkpt>
      <trkpt lat="45.63609" lon="5.31273">
        <ele>365</ele>
        <time>2021-04-04T09:26:17.028Z</time>
      </trkpt>
      <trkpt lat="45.63611" lon="5.31266">
        <ele>365</ele>
        <time>2021-04-04T09:26:18.027Z</time>
      </trkpt>
      <trkpt lat="45.63613" lon="5.31259">
        <ele>365</ele>
        <time>2021-04-04T09:26:19.028Z</time>
      </trkpt>
      <trkpt lat="45.63614" lon="5.31252">
        <ele>365</ele>
        <time>2021-04-04T09:26:20.028Z</time>
      </trkpt>
      <trkpt lat="45.63616" lon="5.31246">
        <ele>365</ele>
        <time>2021-04-04T09:26:21.028Z</time>
      </trkpt>
      <trkpt lat="45.63618" lon="5.31239">
        <ele>365</ele>
        <time>2021-04-04T09:26:22.028Z</time>
      </trkpt>
      <trkpt lat="45.6362" lon="5.31233">
        <ele>365</ele>
        <time>2021-04-04T09:26:23.028Z</time>
      </trkpt>
      <trkpt lat="45.63623" lon="5.31227">
        <ele>365</ele>
        <time>2021-04-04T09:26:24.028Z</time>
      </trkpt>
      <trkpt lat="45.63625" lon="5.31221">
        <ele>365</ele>
        <time>2021-04-04T09:26:25.028Z</time>
      </trkpt>
      <trkpt lat="45.63628" lon="5.31216">
        <ele>365</ele>
        <time>2021-04-04T09:26:26.028Z</time>
      </trkpt>
      <trkpt lat="45.63631" lon="5.3121">
        <ele>366</ele>
        <time>2021-04-04T09:26:27.028Z</time>
      </trkpt>
      <trkpt lat="45.63635" lon="5.31204">
        <ele>366</ele>
        <time>2021-04-04T09:26:28.028Z</time>
      </trkpt>
      <trkpt lat="45.63638" lon="5.312">
        <ele>366</ele>
        <time>2021-04-04T09:26:29.028Z</time>
      </trkpt>
      <trkpt lat="45.63642" lon="5.31195">
        <ele>366</ele>
        <time>2021-04-04T09:26:30.028Z</time>
      </trkpt>
      <trkpt lat="45.63648" lon="5.3119">
        <ele>366</ele>
        <time>2021-04-04T09:26:31.027Z</time>
      </trkpt>
      <trkpt lat="45.63653" lon="5.31185">
        <ele>366</ele>
        <time>2021-04-04T09:26:32.028Z</time>
      </trkpt>
      <trkpt lat="45.63658" lon="5.31181">
        <ele>366</ele>
        <time>2021-04-04T09:26:33.028Z</time>
      </trkpt>
      <trkpt lat="45.63662" lon="5.31177">
        <ele>367</ele>
        <time>2021-04-04T09:26:34.028Z</time>
      </trkpt>
      <trkpt lat="45.63667" lon="5.31171">
        <ele>367</ele>
        <time>2021-04-04T09:26:35.028Z</time>
      </trkpt>
      <trkpt lat="45.63672" lon="5.31167">
        <ele>368</ele>
        <time>2021-04-04T09:26:36.028Z</time>
      </trkpt>
      <trkpt lat="45.63676" lon="5.31163">
        <ele>368</ele>
        <time>2021-04-04T09:26:37.028Z</time>
      </trkpt>
      <trkpt lat="45.63679" lon="5.31159">
        <ele>369</ele>
        <time>2021-04-04T09:26:38.028Z</time>
      </trkpt>
      <trkpt lat="45.63683" lon="5.31156">
        <ele>369</ele>
        <time>2021-04-04T09:26:39.028Z</time>
      </trkpt>
      <trkpt lat="45.63688" lon="5.31151">
        <ele>369</ele>
        <time>2021-04-04T09:26:40.028Z</time>
      </trkpt>
      <trkpt lat="45.63692" lon="5.31148">
        <ele>369</ele>
        <time>2021-04-04T09:26:41.027Z</time>
      </trkpt>
      <trkpt lat="45.63697" lon="5.31144">
        <ele>369</ele>
        <time>2021-04-04T09:26:42.028Z</time>
      </trkpt>
      <trkpt lat="45.637" lon="5.31141">
        <ele>370</ele>
        <time>2021-04-04T09:26:43.028Z</time>
      </trkpt>
      <trkpt lat="45.63704" lon="5.31137">
        <ele>370</ele>
        <time>2021-04-04T09:26:44.027Z</time>
      </trkpt>
      <trkpt lat="45.6371" lon="5.31132">
        <ele>370</ele>
        <time>2021-04-04T09:26:45.028Z</time>
      </trkpt>
      <trkpt lat="45.63714" lon="5.31129">
        <ele>371</ele>
        <time>2021-04-04T09:26:46.028Z</time>
      </trkpt>
      <trkpt lat="45.6372" lon="5.31125">
        <ele>371</ele>
        <time>2021-04-04T09:26:47.027Z</time>
      </trkpt>
      <trkpt lat="45.63724" lon="5.31123">
        <ele>371</ele>
        <time>2021-04-04T09:26:48.028Z</time>
      </trkpt>
      <trkpt lat="45.6373" lon="5.3112">
        <ele>371</ele>
        <time>2021-04-04T09:26:49.028Z</time>
      </trkpt>
      <trkpt lat="45.63736" lon="5.31117">
        <ele>370</ele>
        <time>2021-04-04T09:26:50.028Z</time>
      </trkpt>
      <trkpt lat="45.63741" lon="5.31116">
        <ele>370</ele>
        <time>2021-04-04T09:26:51.028Z</time>
      </trkpt>
      <trkpt lat="45.63745" lon="5.31115">
        <ele>370</ele>
        <time>2021-04-04T09:26:52.028Z</time>
      </trkpt>
      <trkpt lat="45.63748" lon="5.31114">
        <ele>369</ele>
        <time>2021-04-04T09:26:53.028Z</time>
      </trkpt>
      <trkpt lat="45.63752" lon="5.31113">
        <ele>369</ele>
        <time>2021-04-04T09:26:54.028Z</time>
      </trkpt>
      <trkpt lat="45.63755" lon="5.31113">
        <ele>369</ele>
        <time>2021-04-04T09:26:55.028Z</time>
      </trkpt>
      <trkpt lat="45.63758" lon="5.31114">
        <ele>369</ele>
        <time>2021-04-04T09:26:56.028Z</time>
      </trkpt>
      <trkpt lat="45.6376" lon="5.31116">
        <ele>369</ele>
        <time>2021-04-04T09:26:57.028Z</time>
      </trkpt>
      <trkpt lat="45.63763" lon="5.31119">
        <ele>369</ele>
        <time>2021-04-04T09:26:58.028Z</time>
      </trkpt>
      <trkpt lat="45.63764" lon="5.31124">
        <ele>369</ele>
        <time>2021-04-04T09:26:59.028Z</time>
      </trkpt>
      <trkpt lat="45.63765" lon="5.3113">
        <ele>369</ele>
        <time>2021-04-04T09:27:00.028Z</time>
      </trkpt>
      <trkpt lat="45.63766" lon="5.31134">
        <ele>369</ele>
        <time>2021-04-04T09:27:01.028Z</time>
      </trkpt>
      <trkpt lat="45.63766" lon="5.31141">
        <ele>369</ele>
        <time>2021-04-04T09:27:02.028Z</time>
      </trkpt>
      <trkpt lat="45.63766" lon="5.31147">
        <ele>369</ele>
        <time>2021-04-04T09:27:03.028Z</time>
      </trkpt>
      <trkpt lat="45.63766" lon="5.31154">
        <ele>369</ele>
        <time>2021-04-04T09:27:04.027Z</time>
      </trkpt>
      <trkpt lat="45.63767" lon="5.31159">
        <ele>369</ele>
        <time>2021-04-04T09:27:05.028Z</time>
      </trkpt>
      <trkpt lat="45.63768" lon="5.31164">
        <ele>369</ele>
        <time>2021-04-04T09:27:06.028Z</time>
      </trkpt>
      <trkpt lat="45.6377" lon="5.3117">
        <ele>369</ele>
        <time>2021-04-04T09:27:07.028Z</time>
      </trkpt>
      <trkpt lat="45.63772" lon="5.31173">
        <ele>369</ele>
        <time>2021-04-04T09:27:08.027Z</time>
      </trkpt>
      <trkpt lat="45.63775" lon="5.31176">
        <ele>369</ele>
        <time>2021-04-04T09:27:09.028Z</time>
      </trkpt>
      <trkpt lat="45.63778" lon="5.31178">
        <ele>369</ele>
        <time>2021-04-04T09:27:10.028Z</time>
      </trkpt>
      <trkpt lat="45.63782" lon="5.3118">
        <ele>369</ele>
        <time>2021-04-04T09:27:11.027Z</time>
      </trkpt>
      <trkpt lat="45.63788" lon="5.31182">
        <ele>368</ele>
        <time>2021-04-04T09:27:12.028Z</time>
      </trkpt>
      <trkpt lat="45.63793" lon="5.31183">
        <ele>369</ele>
        <time>2021-04-04T09:27:13.028Z</time>
      </trkpt>
      <trkpt lat="45.63797" lon="5.31183">
        <ele>368</ele>
        <time>2021-04-04T09:27:14.028Z</time>
      </trkpt>
      <trkpt lat="45.63803" lon="5.31183">
        <ele>368</ele>
        <time>2021-04-04T09:27:15.027Z</time>
      </trkpt>
      <trkpt lat="45.6381" lon="5.31184">
        <ele>368</ele>
        <time>2021-04-04T09:27:16.027Z</time>
      </trkpt>
      <trkpt lat="45.63815" lon="5.31185">
        <ele>368</ele>
        <time>2021-04-04T09:27:17.028Z</time>
      </trkpt>
      <trkpt lat="45.63822" lon="5.31185">
        <ele>368</ele>
        <time>2021-04-04T09:27:18.028Z</time>
      </trkpt>
      <trkpt lat="45.63827" lon="5.31186">
        <ele>367</ele>
        <time>2021-04-04T09:27:19.028Z</time>
      </trkpt>
      <trkpt lat="45.63834" lon="5.31186">
        <ele>367</ele>
        <time>2021-04-04T09:27:20.028Z</time>
      </trkpt>
      <trkpt lat="45.63842" lon="5.31187">
        <ele>367</ele>
        <time>2021-04-04T09:27:21.028Z</time>
      </trkpt>
      <trkpt lat="45.63849" lon="5.31189">
        <ele>367</ele>
        <time>2021-04-04T09:27:22.028Z</time>
      </trkpt>
      <trkpt lat="45.63857" lon="5.3119">
        <ele>366</ele>
        <time>2021-04-04T09:27:23.028Z</time>
      </trkpt>
      <trkpt lat="45.63862" lon="5.3119">
        <ele>366</ele>
        <time>2021-04-04T09:27:24.028Z</time>
      </trkpt>
      <trkpt lat="45.6387" lon="5.31191">
        <ele>365</ele>
        <time>2021-04-04T09:27:25.028Z</time>
      </trkpt>
      <trkpt lat="45.63879" lon="5.31192">
        <ele>365</ele>
        <time>2021-04-04T09:27:26.028Z</time>
      </trkpt>
      <trkpt lat="45.63885" lon="5.31192">
        <ele>365</ele>
        <time>2021-04-04T09:27:27.028Z</time>
      </trkpt>
      <trkpt lat="45.63892" lon="5.31193">
        <ele>365</ele>
        <time>2021-04-04T09:27:28.028Z</time>
      </trkpt>
      <trkpt lat="45.639" lon="5.31193">
        <ele>364</ele>
        <time>2021-04-04T09:27:29.028Z</time>
      </trkpt>
      <trkpt lat="45.63909" lon="5.31194">
        <ele>364</ele>
        <time>2021-04-04T09:27:30.028Z</time>
      </trkpt>
      <trkpt lat="45.63916" lon="5.31194">
        <ele>364</ele>
        <time>2021-04-04T09:27:31.027Z</time>
      </trkpt>
      <trkpt lat="45.63923" lon="5.31195">
        <ele>364</ele>
        <time>2021-04-04T09:27:32.028Z</time>
      </trkpt>
      <trkpt lat="45.63928" lon="5.31197">
        <ele>364</ele>
        <time>2021-04-04T09:27:33.028Z</time>
      </trkpt>
      <trkpt lat="45.63935" lon="5.312">
        <ele>363</ele>
        <time>2021-04-04T09:27:34.028Z</time>
      </trkpt>
      <trkpt lat="45.6394" lon="5.31205">
        <ele>363</ele>
        <time>2021-04-04T09:27:35.027Z</time>
      </trkpt>
      <trkpt lat="45.63942" lon="5.3121">
        <ele>362</ele>
        <time>2021-04-04T09:27:36.028Z</time>
      </trkpt>
      <trkpt lat="45.63944" lon="5.31217">
        <ele>362</ele>
        <time>2021-04-04T09:27:37.027Z</time>
      </trkpt>
      <trkpt lat="45.63944" lon="5.31225">
        <ele>361</ele>
        <time>2021-04-04T09:27:38.028Z</time>
      </trkpt>
      <trkpt lat="45.63944" lon="5.31233">
        <ele>361</ele>
        <time>2021-04-04T09:27:39.028Z</time>
      </trkpt>
      <trkpt lat="45.63944" lon="5.31243">
        <ele>361</ele>
        <time>2021-04-04T09:27:40.028Z</time>
      </trkpt>
      <trkpt lat="45.63944" lon="5.31251">
        <ele>361</ele>
        <time>2021-04-04T09:27:41.028Z</time>
      </trkpt>
      <trkpt lat="45.63943" lon="5.31258">
        <ele>361</ele>
        <time>2021-04-04T09:27:42.028Z</time>
      </trkpt>
      <trkpt lat="45.63943" lon="5.31268">
        <ele>361</ele>
        <time>2021-04-04T09:27:43.028Z</time>
      </trkpt>
      <trkpt lat="45.63942" lon="5.31275">
        <ele>361</ele>
        <time>2021-04-04T09:27:44.028Z</time>
      </trkpt>
      <trkpt lat="45.63942" lon="5.31283">
        <ele>361</ele>
        <time>2021-04-04T09:27:45.027Z</time>
      </trkpt>
      <trkpt lat="45.63941" lon="5.31292">
        <ele>361</ele>
        <time>2021-04-04T09:27:46.027Z</time>
      </trkpt>
      <trkpt lat="45.63941" lon="5.313">
        <ele>361</ele>
        <time>2021-04-04T09:27:47.028Z</time>
      </trkpt>
      <trkpt lat="45.6394" lon="5.31309">
        <ele>361</ele>
        <time>2021-04-04T09:27:48.028Z</time>
      </trkpt>
      <trkpt lat="45.63939" lon="5.31319">
        <ele>360</ele>
        <time>2021-04-04T09:27:49.028Z</time>
      </trkpt>
      <trkpt lat="45.63939" lon="5.31327">
        <ele>360</ele>
        <time>2021-04-04T09:27:50.028Z</time>
      </trkpt>
      <trkpt lat="45.63939" lon="5.31333">
        <ele>360</ele>
        <time>2021-04-04T09:27:51.028Z</time>
      </trkpt>
      <trkpt lat="45.63939" lon="5.31342">
        <ele>360</ele>
        <time>2021-04-04T09:27:52.028Z</time>
      </trkpt>
      <trkpt lat="45.63938" lon="5.31352">
        <ele>360</ele>
        <time>2021-04-04T09:27:53.028Z</time>
      </trkpt>
      <trkpt lat="45.63938" lon="5.3136">
        <ele>360</ele>
        <time>2021-04-04T09:27:54.028Z</time>
      </trkpt>
      <trkpt lat="45.63938" lon="5.31366">
        <ele>360</ele>
        <time>2021-04-04T09:27:55.028Z</time>
      </trkpt>
      <trkpt lat="45.63937" lon="5.31374">
        <ele>360</ele>
        <time>2021-04-04T09:27:56.027Z</time>
      </trkpt>
      <trkpt lat="45.63937" lon="5.31383">
        <ele>359</ele>
        <time>2021-04-04T09:27:57.028Z</time>
      </trkpt>
      <trkpt lat="45.63936" lon="5.31391">
        <ele>359</ele>
        <time>2021-04-04T09:27:58.028Z</time>
      </trkpt>
      <trkpt lat="45.63936" lon="5.314">
        <ele>360</ele>
        <time>2021-04-04T09:27:59.028Z</time>
      </trkpt>
      <trkpt lat="45.63937" lon="5.31407">
        <ele>360</ele>
        <time>2021-04-04T09:28:00.028Z</time>
      </trkpt>
      <trkpt lat="45.63937" lon="5.31414">
        <ele>360</ele>
        <time>2021-04-04T09:28:01.028Z</time>
      </trkpt>
      <trkpt lat="45.63937" lon="5.31422">
        <ele>360</ele>
        <time>2021-04-04T09:28:02.028Z</time>
      </trkpt>
      <trkpt lat="45.63937" lon="5.3143">
        <ele>360</ele>
        <time>2021-04-04T09:28:03.028Z</time>
      </trkpt>
      <trkpt lat="45.63937" lon="5.31435">
        <ele>360</ele>
        <time>2021-04-04T09:28:04.027Z</time>
      </trkpt>
      <trkpt lat="45.63937" lon="5.3144">
        <ele>360</ele>
        <time>2021-04-04T09:28:05.027Z</time>
      </trkpt>
      <trkpt lat="45.63937" lon="5.31446">
        <ele>360</ele>
        <time>2021-04-04T09:28:06.027Z</time>
      </trkpt>
      <trkpt lat="45.63937" lon="5.31448">
        <ele>360</ele>
        <time>2021-04-04T09:28:07.028Z</time>
      </trkpt>
      <trkpt lat="45.63937" lon="5.31449">
        <ele>360</ele>
        <time>2021-04-04T09:28:08.028Z</time>
      </trkpt>
      <trkpt lat="45.63938" lon="5.3145">
        <ele>360</ele>
        <time>2021-04-04T09:28:09.027Z</time>
      </trkpt>
      <trkpt lat="45.63938" lon="5.31449">
        <ele>360</ele>
        <time>2021-04-04T09:28:10.028Z</time>
      </trkpt>
      <trkpt lat="45.63939" lon="5.31447">
        <ele>360</ele>
        <time>2021-04-04T09:28:11.028Z</time>
      </trkpt>
      <trkpt lat="45.63939" lon="5.31444">
        <ele>360</ele>
        <time>2021-04-04T09:28:12.028Z</time>
      </trkpt>
      <trkpt lat="45.63939" lon="5.31442">
        <ele>360</ele>
        <time>2021-04-04T09:28:13.028Z</time>
      </trkpt>
      <trkpt lat="45.63939" lon="5.31439">
        <ele>360</ele>
        <time>2021-04-04T09:28:14.027Z</time>
      </trkpt>
      <trkpt lat="45.63938" lon="5.31434">
        <ele>360</ele>
        <time>2021-04-04T09:28:15.028Z</time>
      </trkpt>
      <trkpt lat="45.63938" lon="5.31429">
        <ele>360</ele>
        <time>2021-04-04T09:28:16.028Z</time>
      </trkpt>
      <trkpt lat="45.63938" lon="5.31423">
        <ele>360</ele>
        <time>2021-04-04T09:28:17.028Z</time>
      </trkpt>
      <trkpt lat="45.63938" lon="5.31418">
        <ele>360</ele>
        <time>2021-04-04T09:28:18.028Z</time>
      </trkpt>
      <trkpt lat="45.63937" lon="5.31411">
        <ele>359</ele>
        <time>2021-04-04T09:28:19.028Z</time>
      </trkpt>
      <trkpt lat="45.63937" lon="5.31401">
        <ele>359</ele>
        <time>2021-04-04T09:28:20.028Z</time>
      </trkpt>
      <trkpt lat="45.63937" lon="5.31392">
        <ele>359</ele>
        <time>2021-04-04T09:28:21.028Z</time>
      </trkpt>
      <trkpt lat="45.63937" lon="5.31383">
        <ele>359</ele>
        <time>2021-04-04T09:28:22.027Z</time>
      </trkpt>
      <trkpt lat="45.63937" lon="5.31376">
        <ele>358</ele>
        <time>2021-04-04T09:28:23.028Z</time>
      </trkpt>
      <trkpt lat="45.63937" lon="5.31368">
        <ele>358</ele>
        <time>2021-04-04T09:28:24.027Z</time>
      </trkpt>
      <trkpt lat="45.63937" lon="5.31358">
        <ele>358</ele>
        <time>2021-04-04T09:28:25.027Z</time>
      </trkpt>
      <trkpt lat="45.63937" lon="5.31349">
        <ele>358</ele>
        <time>2021-04-04T09:28:26.028Z</time>
      </trkpt>
      <trkpt lat="45.63936" lon="5.31342">
        <ele>358</ele>
        <time>2021-04-04T09:28:27.028Z</time>
      </trkpt>
      <trkpt lat="45.63936" lon="5.31333">
        <ele>359</ele>
        <time>2021-04-04T09:28:28.027Z</time>
      </trkpt>
      <trkpt lat="45.63936" lon="5.31323">
        <ele>359</ele>
        <time>2021-04-04T09:28:29.028Z</time>
      </trkpt>
      <trkpt lat="45.63936" lon="5.31315">
        <ele>359</ele>
        <time>2021-04-04T09:28:30.028Z</time>
      </trkpt>
      <trkpt lat="45.63936" lon="5.31306">
        <ele>359</ele>
        <time>2021-04-04T09:28:31.028Z</time>
      </trkpt>
      <trkpt lat="45.63936" lon="5.31298">
        <ele>359</ele>
        <time>2021-04-04T09:28:32.028Z</time>
      </trkpt>
      <trkpt lat="45.63937" lon="5.31288">
        <ele>359</ele>
        <time>2021-04-04T09:28:33.028Z</time>
      </trkpt>
      <trkpt lat="45.63938" lon="5.31279">
        <ele>359</ele>
        <time>2021-04-04T09:28:34.027Z</time>
      </trkpt>
      <trkpt lat="45.63938" lon="5.31272">
        <ele>359</ele>
        <time>2021-04-04T09:28:35.027Z</time>
      </trkpt>
      <trkpt lat="45.63939" lon="5.31263">
        <ele>358</ele>
        <time>2021-04-04T09:28:36.028Z</time>
      </trkpt>
      <trkpt lat="45.63939" lon="5.31254">
        <ele>358</ele>
        <time>2021-04-04T09:28:37.027Z</time>
      </trkpt>
      <trkpt lat="45.63939" lon="5.31243">
        <ele>358</ele>
        <time>2021-04-04T09:28:38.028Z</time>
      </trkpt>
      <trkpt lat="45.6394" lon="5.31234">
        <ele>357</ele>
        <time>2021-04-04T09:28:39.027Z</time>
      </trkpt>
      <trkpt lat="45.6394" lon="5.31227">
        <ele>357</ele>
        <time>2021-04-04T09:28:40.027Z</time>
      </trkpt>
      <trkpt lat="45.63939" lon="5.31218">
        <ele>356</ele>
        <time>2021-04-04T09:28:41.027Z</time>
      </trkpt>
      <trkpt lat="45.63938" lon="5.3121">
        <ele>356</ele>
        <time>2021-04-04T09:28:42.027Z</time>
      </trkpt>
      <trkpt lat="45.63935" lon="5.31201">
        <ele>356</ele>
        <time>2021-04-04T09:28:43.028Z</time>
      </trkpt>
      <trkpt lat="45.63932" lon="5.31196">
        <ele>356</ele>
        <time>2021-04-04T09:28:44.028Z</time>
      </trkpt>
      <trkpt lat="45.63928" lon="5.31192">
        <ele>357</ele>
        <time>2021-04-04T09:28:45.027Z</time>
      </trkpt>
      <trkpt lat="45.63924" lon="5.31191">
        <ele>357</ele>
        <time>2021-04-04T09:28:46.028Z</time>
      </trkpt>
      <trkpt lat="45.63918" lon="5.31189">
        <ele>357</ele>
        <time>2021-04-04T09:28:47.027Z</time>
      </trkpt>
      <trkpt lat="45.63912" lon="5.31188">
        <ele>358</ele>
        <time>2021-04-04T09:28:48.027Z</time>
      </trkpt>
      <trkpt lat="45.63908" lon="5.31188">
        <ele>358</ele>
        <time>2021-04-04T09:28:49.028Z</time>
      </trkpt>
      <trkpt lat="45.63901" lon="5.31188">
        <ele>359</ele>
        <time>2021-04-04T09:28:50.027Z</time>
      </trkpt>
      <trkpt lat="45.63895" lon="5.31189">
        <ele>359</ele>
        <time>2021-04-04T09:28:51.028Z</time>
      </trkpt>
      <trkpt lat="45.63887" lon="5.3119">
        <ele>360</ele>
        <time>2021-04-04T09:28:52.028Z</time>
      </trkpt>
      <trkpt lat="45.6388" lon="5.3119">
        <ele>360</ele>
        <time>2021-04-04T09:28:53.027Z</time>
      </trkpt>
      <trkpt lat="45.63875" lon="5.31189">
        <ele>361</ele>
        <time>2021-04-04T09:28:54.028Z</time>
      </trkpt>
      <trkpt lat="45.63869" lon="5.31189">
        <ele>361</ele>
        <time>2021-04-04T09:28:55.027Z</time>
      </trkpt>
      <trkpt lat="45.63863" lon="5.31188">
        <ele>361</ele>
        <time>2021-04-04T09:28:56.027Z</time>
      </trkpt>
      <trkpt lat="45.63857" lon="5.31188">
        <ele>362</ele>
        <time>2021-04-04T09:28:57.028Z</time>
      </trkpt>
      <trkpt lat="45.6385" lon="5.31188">
        <ele>363</ele>
        <time>2021-04-04T09:28:58.027Z</time>
      </trkpt>
      <trkpt lat="45.63844" lon="5.31187">
        <ele>364</ele>
        <time>2021-04-04T09:28:59.028Z</time>
      </trkpt>
      <trkpt lat="45.63838" lon="5.31186">
        <ele>364</ele>
        <time>2021-04-04T09:29:00.027Z</time>
      </trkpt>
      <trkpt lat="45.63831" lon="5.31185">
        <ele>364</ele>
        <time>2021-04-04T09:29:01.027Z</time>
      </trkpt>
      <trkpt lat="45.63826" lon="5.31184">
        <ele>364</ele>
        <time>2021-04-04T09:29:02.028Z</time>
      </trkpt>
      <trkpt lat="45.63819" lon="5.31183">
        <ele>364</ele>
        <time>2021-04-04T09:29:03.028Z</time>
      </trkpt>
      <trkpt lat="45.63814" lon="5.31183">
        <ele>364</ele>
        <time>2021-04-04T09:29:04.028Z</time>
      </trkpt>
      <trkpt lat="45.63808" lon="5.31182">
        <ele>364</ele>
        <time>2021-04-04T09:29:05.027Z</time>
      </trkpt>
      <trkpt lat="45.63801" lon="5.31182">
        <ele>364</ele>
        <time>2021-04-04T09:29:06.028Z</time>
      </trkpt>
      <trkpt lat="45.63794" lon="5.31182">
        <ele>364</ele>
        <time>2021-04-04T09:29:07.028Z</time>
      </trkpt>
      <trkpt lat="45.63789" lon="5.31181">
        <ele>364</ele>
        <time>2021-04-04T09:29:08.027Z</time>
      </trkpt>
      <trkpt lat="45.63783" lon="5.31181">
        <ele>365</ele>
        <time>2021-04-04T09:29:09.028Z</time>
      </trkpt>
      <trkpt lat="45.63776" lon="5.3118">
        <ele>366</ele>
        <time>2021-04-04T09:29:10.028Z</time>
      </trkpt>
      <trkpt lat="45.63772" lon="5.31178">
        <ele>366</ele>
        <time>2021-04-04T09:29:11.028Z</time>
      </trkpt>
      <trkpt lat="45.63767" lon="5.31175">
        <ele>366</ele>
        <time>2021-04-04T09:29:12.028Z</time>
      </trkpt>
      <trkpt lat="45.63763" lon="5.3117">
        <ele>366</ele>
        <time>2021-04-04T09:29:13.027Z</time>
      </trkpt>
      <trkpt lat="45.6376" lon="5.31164">
        <ele>366</ele>
        <time>2021-04-04T09:29:14.027Z</time>
      </trkpt>
      <trkpt lat="45.63758" lon="5.31157">
        <ele>366</ele>
        <time>2021-04-04T09:29:15.027Z</time>
      </trkpt>
      <trkpt lat="45.63758" lon="5.31148">
        <ele>366</ele>
        <time>2021-04-04T09:29:16.028Z</time>
      </trkpt>
      <trkpt lat="45.63757" lon="5.31141">
        <ele>366</ele>
        <time>2021-04-04T09:29:17.027Z</time>
      </trkpt>
      <trkpt lat="45.63757" lon="5.31134">
        <ele>366</ele>
        <time>2021-04-04T09:29:18.028Z</time>
      </trkpt>
      <trkpt lat="45.63754" lon="5.31125">
        <ele>366</ele>
        <time>2021-04-04T09:29:19.027Z</time>
      </trkpt>
      <trkpt lat="45.63752" lon="5.31121">
        <ele>366</ele>
        <time>2021-04-04T09:29:20.028Z</time>
      </trkpt>
      <trkpt lat="45.63748" lon="5.31118">
        <ele>367</ele>
        <time>2021-04-04T09:29:21.028Z</time>
      </trkpt>
      <trkpt lat="45.63743" lon="5.31117">
        <ele>367</ele>
        <time>2021-04-04T09:29:22.028Z</time>
      </trkpt>
      <trkpt lat="45.63739" lon="5.31116">
        <ele>367</ele>
        <time>2021-04-04T09:29:23.028Z</time>
      </trkpt>
      <trkpt lat="45.63732" lon="5.31118">
        <ele>367</ele>
        <time>2021-04-04T09:29:24.027Z</time>
      </trkpt>
      <trkpt lat="45.63728" lon="5.31119">
        <ele>368</ele>
        <time>2021-04-04T09:29:25.028Z</time>
      </trkpt>
      <trkpt lat="45.63723" lon="5.31122">
        <ele>369</ele>
        <time>2021-04-04T09:29:26.028Z</time>
      </trkpt>
      <trkpt lat="45.63718" lon="5.31125">
        <ele>369</ele>
        <time>2021-04-04T09:29:27.028Z</time>
      </trkpt>
      <trkpt lat="45.63712" lon="5.31127">
        <ele>369</ele>
        <time>2021-04-04T09:29:28.027Z</time>
      </trkpt>
      <trkpt lat="45.63707" lon="5.31131">
        <ele>370</ele>
        <time>2021-04-04T09:29:29.027Z</time>
      </trkpt>
      <trkpt lat="45.63702" lon="5.31134">
        <ele>370</ele>
        <time>2021-04-04T09:29:30.028Z</time>
      </trkpt>
      <trkpt lat="45.63696" lon="5.3114">
        <ele>370</ele>
        <time>2021-04-04T09:29:31.028Z</time>
      </trkpt>
      <trkpt lat="45.6369" lon="5.31145">
        <ele>370</ele>
        <time>2021-04-04T09:29:32.028Z</time>
      </trkpt>
      <trkpt lat="45.63685" lon="5.3115">
        <ele>370</ele>
        <time>2021-04-04T09:29:33.028Z</time>
      </trkpt>
      <trkpt lat="45.6368" lon="5.31155">
        <ele>370</ele>
        <time>2021-04-04T09:29:34.028Z</time>
      </trkpt>
      <trkpt lat="45.63675" lon="5.3116">
        <ele>371</ele>
        <time>2021-04-04T09:29:35.028Z</time>
      </trkpt>
      <trkpt lat="45.6367" lon="5.31164">
        <ele>371</ele>
        <time>2021-04-04T09:29:36.028Z</time>
      </trkpt>
      <trkpt lat="45.63665" lon="5.31169">
        <ele>371</ele>
        <time>2021-04-04T09:29:37.028Z</time>
      </trkpt>
      <trkpt lat="45.6366" lon="5.31174">
        <ele>371</ele>
        <time>2021-04-04T09:29:38.027Z</time>
      </trkpt>
      <trkpt lat="45.63654" lon="5.3118">
        <ele>371</ele>
        <time>2021-04-04T09:29:39.027Z</time>
      </trkpt>
      <trkpt lat="45.6365" lon="5.31184">
        <ele>372</ele>
        <time>2021-04-04T09:29:40.027Z</time>
      </trkpt>
      <trkpt lat="45.63644" lon="5.3119">
        <ele>372</ele>
        <time>2021-04-04T09:29:41.028Z</time>
      </trkpt>
      <trkpt lat="45.63639" lon="5.31196">
        <ele>372</ele>
        <time>2021-04-04T09:29:42.028Z</time>
      </trkpt>
      <trkpt lat="45.63633" lon="5.31202">
        <ele>372</ele>
        <time>2021-04-04T09:29:43.028Z</time>
      </trkpt>
      <trkpt lat="45.63628" lon="5.31209">
        <ele>373</ele>
        <time>2021-04-04T09:29:44.027Z</time>
      </trkpt>
      <trkpt lat="45.63622" lon="5.31217">
        <ele>373</ele>
        <time>2021-04-04T09:29:45.028Z</time>
      </trkpt>
      <trkpt lat="45.63617" lon="5.31226">
        <ele>373</ele>
        <time>2021-04-04T09:29:46.028Z</time>
      </trkpt>
      <trkpt lat="45.63613" lon="5.31237">
        <ele>373</ele>
        <time>2021-04-04T09:29:47.028Z</time>
      </trkpt>
      <trkpt lat="45.63609" lon="5.31248">
        <ele>373</ele>
        <time>2021-04-04T09:29:48.028Z</time>
      </trkpt>
      <trkpt lat="45.63605" lon="5.3126">
        <ele>373</ele>
        <time>2021-04-04T09:29:49.027Z</time>
      </trkpt>
      <trkpt lat="45.63602" lon="5.31274">
        <ele>372</ele>
        <time>2021-04-04T09:29:50.028Z</time>
      </trkpt>
      <trkpt lat="45.63599" lon="5.31287">
        <ele>372</ele>
        <time>2021-04-04T09:29:51.028Z</time>
      </trkpt>
      <trkpt lat="45.63596" lon="5.313">
        <ele>371</ele>
        <time>2021-04-04T09:29:52.028Z</time>
      </trkpt>
      <trkpt lat="45.63593" lon="5.31315">
        <ele>370</ele>
        <time>2021-04-04T09:29:53.028Z</time>
      </trkpt>
      <trkpt lat="45.63591" lon="5.31325">
        <ele>370</ele>
        <time>2021-04-04T09:29:54.028Z</time>
      </trkpt>
      <trkpt lat="45.63589" lon="5.31338">
        <ele>369</ele>
        <time>2021-04-04T09:29:55.028Z</time>
      </trkpt>
      <trkpt lat="45.63586" lon="5.3135">
        <ele>369</ele>
        <time>2021-04-04T09:29:56.027Z</time>
      </trkpt>
      <trkpt lat="45.63584" lon="5.31362">
        <ele>368</ele>
        <time>2021-04-04T09:29:57.028Z</time>
      </trkpt>
      <trkpt lat="45.63581" lon="5.31374">
        <ele>368</ele>
        <time>2021-04-04T09:29:58.027Z</time>
      </trkpt>
      <trkpt lat="45.63578" lon="5.31386">
        <ele>368</ele>
        <time>2021-04-04T09:29:59.028Z</time>
      </trkpt>
      <trkpt lat="45.63575" lon="5.31398">
        <ele>368</ele>
        <time>2021-04-04T09:30:00.027Z</time>
      </trkpt>
      <trkpt lat="45.63573" lon="5.3141">
        <ele>368</ele>
        <time>2021-04-04T09:30:01.028Z</time>
      </trkpt>
      <trkpt lat="45.63569" lon="5.31422">
        <ele>368</ele>
        <time>2021-04-04T09:30:02.028Z</time>
      </trkpt>
      <trkpt lat="45.63566" lon="5.31434">
        <ele>367</ele>
        <time>2021-04-04T09:30:03.028Z</time>
      </trkpt>
      <trkpt lat="45.63563" lon="5.31446">
        <ele>367</ele>
        <time>2021-04-04T09:30:04.027Z</time>
      </trkpt>
      <trkpt lat="45.63559" lon="5.31457">
        <ele>367</ele>
        <time>2021-04-04T09:30:05.027Z</time>
      </trkpt>
      <trkpt lat="45.63555" lon="5.31468">
        <ele>367</ele>
        <time>2021-04-04T09:30:06.028Z</time>
      </trkpt>
      <trkpt lat="45.63549" lon="5.31482">
        <ele>366</ele>
        <time>2021-04-04T09:30:07.028Z</time>
      </trkpt>
      <trkpt lat="45.63545" lon="5.31494">
        <ele>366</ele>
        <time>2021-04-04T09:30:08.027Z</time>
      </trkpt>
      <trkpt lat="45.63541" lon="5.31503">
        <ele>366</ele>
        <time>2021-04-04T09:30:09.028Z</time>
      </trkpt>
      <trkpt lat="45.63536" lon="5.31514">
        <ele>365</ele>
        <time>2021-04-04T09:30:10.027Z</time>
      </trkpt>
      <trkpt lat="45.63531" lon="5.31525">
        <ele>365</ele>
        <time>2021-04-04T09:30:11.027Z</time>
      </trkpt>
      <trkpt lat="45.63525" lon="5.31539">
        <ele>364</ele>
        <time>2021-04-04T09:30:12.027Z</time>
      </trkpt>
      <trkpt lat="45.63521" lon="5.31548">
        <ele>364</ele>
        <time>2021-04-04T09:30:13.028Z</time>
      </trkpt>
      <trkpt lat="45.63515" lon="5.3156">
        <ele>363</ele>
        <time>2021-04-04T09:30:14.027Z</time>
      </trkpt>
      <trkpt lat="45.63509" lon="5.31573">
        <ele>363</ele>
        <time>2021-04-04T09:30:15.027Z</time>
      </trkpt>
      <trkpt lat="45.63504" lon="5.31584">
        <ele>363</ele>
        <time>2021-04-04T09:30:16.028Z</time>
      </trkpt>
      <trkpt lat="45.635" lon="5.31593">
        <ele>362</ele>
        <time>2021-04-04T09:30:17.027Z</time>
      </trkpt>
      <trkpt lat="45.63495" lon="5.31604">
        <ele>362</ele>
        <time>2021-04-04T09:30:18.028Z</time>
      </trkpt>
      <trkpt lat="45.63491" lon="5.31615">
        <ele>362</ele>
        <time>2021-04-04T09:30:19.028Z</time>
      </trkpt>
      <trkpt lat="45.63487" lon="5.31627">
        <ele>362</ele>
        <time>2021-04-04T09:30:20.028Z</time>
      </trkpt>
      <trkpt lat="45.63483" lon="5.31639">
        <ele>361</ele>
        <time>2021-04-04T09:30:21.028Z</time>
      </trkpt>
      <trkpt lat="45.6348" lon="5.31651">
        <ele>361</ele>
        <time>2021-04-04T09:30:22.027Z</time>
      </trkpt>
      <trkpt lat="45.63476" lon="5.31663">
        <ele>361</ele>
        <time>2021-04-04T09:30:23.028Z</time>
      </trkpt>
      <trkpt lat="45.63473" lon="5.31676">
        <ele>361</ele>
        <time>2021-04-04T09:30:24.028Z</time>
      </trkpt>
      <trkpt lat="45.6347" lon="5.31689">
        <ele>361</ele>
        <time>2021-04-04T09:30:25.027Z</time>
      </trkpt>
      <trkpt lat="45.63467" lon="5.31702">
        <ele>360</ele>
        <time>2021-04-04T09:30:26.028Z</time>
      </trkpt>
      <trkpt lat="45.63464" lon="5.31715">
        <ele>360</ele>
        <time>2021-04-04T09:30:27.028Z</time>
      </trkpt>
      <trkpt lat="45.6346" lon="5.31727">
        <ele>360</ele>
        <time>2021-04-04T09:30:28.027Z</time>
      </trkpt>
      <trkpt lat="45.63456" lon="5.31743">
        <ele>359</ele>
        <time>2021-04-04T09:30:29.028Z</time>
      </trkpt>
      <trkpt lat="45.63454" lon="5.31753">
        <ele>359</ele>
        <time>2021-04-04T09:30:30.028Z</time>
      </trkpt>
      <trkpt lat="45.63451" lon="5.31767">
        <ele>359</ele>
        <time>2021-04-04T09:30:31.027Z</time>
      </trkpt>
      <trkpt lat="45.63449" lon="5.31776">
        <ele>358</ele>
        <time>2021-04-04T09:30:32.028Z</time>
      </trkpt>
      <trkpt lat="45.63447" lon="5.31787">
        <ele>358</ele>
        <time>2021-04-04T09:30:33.028Z</time>
      </trkpt>
      <trkpt lat="45.63444" lon="5.31797">
        <ele>358</ele>
        <time>2021-04-04T09:30:34.028Z</time>
      </trkpt>
      <trkpt lat="45.63442" lon="5.31807">
        <ele>357</ele>
        <time>2021-04-04T09:30:35.028Z</time>
      </trkpt>
      <trkpt lat="45.63439" lon="5.31817">
        <ele>357</ele>
        <time>2021-04-04T09:30:36.028Z</time>
      </trkpt>
      <trkpt lat="45.63436" lon="5.31828">
        <ele>357</ele>
        <time>2021-04-04T09:30:37.028Z</time>
      </trkpt>
      <trkpt lat="45.63434" lon="5.31838">
        <ele>357</ele>
        <time>2021-04-04T09:30:38.028Z</time>
      </trkpt>
      <trkpt lat="45.63431" lon="5.31847">
        <ele>357</ele>
        <time>2021-04-04T09:30:39.028Z</time>
      </trkpt>
      <trkpt lat="45.63428" lon="5.31857">
        <ele>356</ele>
        <time>2021-04-04T09:30:40.028Z</time>
      </trkpt>
      <trkpt lat="45.63426" lon="5.31867">
        <ele>357</ele>
        <time>2021-04-04T09:30:41.028Z</time>
      </trkpt>
      <trkpt lat="45.63423" lon="5.31877">
        <ele>357</ele>
        <time>2021-04-04T09:30:42.028Z</time>
      </trkpt>
      <trkpt lat="45.63419" lon="5.31887">
        <ele>357</ele>
        <time>2021-04-04T09:30:43.027Z</time>
      </trkpt>
      <trkpt lat="45.63416" lon="5.31896">
        <ele>356</ele>
        <time>2021-04-04T09:30:44.028Z</time>
      </trkpt>
      <trkpt lat="45.63413" lon="5.31905">
        <ele>356</ele>
        <time>2021-04-04T09:30:45.027Z</time>
      </trkpt>
      <trkpt lat="45.6341" lon="5.31912">
        <ele>356</ele>
        <time>2021-04-04T09:30:46.027Z</time>
      </trkpt>
      <trkpt lat="45.63408" lon="5.3192">
        <ele>356</ele>
        <time>2021-04-04T09:30:47.028Z</time>
      </trkpt>
      <trkpt lat="45.63405" lon="5.31927">
        <ele>355</ele>
        <time>2021-04-04T09:30:48.028Z</time>
      </trkpt>
      <trkpt lat="45.63402" lon="5.31935">
        <ele>355</ele>
        <time>2021-04-04T09:30:49.028Z</time>
      </trkpt>
      <trkpt lat="45.634" lon="5.31943">
        <ele>355</ele>
        <time>2021-04-04T09:30:50.027Z</time>
      </trkpt>
      <trkpt lat="45.63397" lon="5.31952">
        <ele>355</ele>
        <time>2021-04-04T09:30:51.028Z</time>
      </trkpt>
      <trkpt lat="45.63393" lon="5.31961">
        <ele>354</ele>
        <time>2021-04-04T09:30:52.028Z</time>
      </trkpt>
      <trkpt lat="45.6339" lon="5.31971">
        <ele>355</ele>
        <time>2021-04-04T09:30:53.027Z</time>
      </trkpt>
      <trkpt lat="45.63387" lon="5.31982">
        <ele>354</ele>
        <time>2021-04-04T09:30:54.028Z</time>
      </trkpt>
      <trkpt lat="45.63384" lon="5.31992">
        <ele>354</ele>
        <time>2021-04-04T09:30:55.028Z</time>
      </trkpt>
      <trkpt lat="45.63381" lon="5.32003">
        <ele>353</ele>
        <time>2021-04-04T09:30:56.028Z</time>
      </trkpt>
      <trkpt lat="45.63378" lon="5.32014">
        <ele>353</ele>
        <time>2021-04-04T09:30:57.028Z</time>
      </trkpt>
      <trkpt lat="45.63375" lon="5.32024">
        <ele>353</ele>
        <time>2021-04-04T09:30:58.027Z</time>
      </trkpt>
      <trkpt lat="45.63373" lon="5.32035">
        <ele>353</ele>
        <time>2021-04-04T09:30:59.028Z</time>
      </trkpt>
      <trkpt lat="45.6337" lon="5.32045">
        <ele>353</ele>
        <time>2021-04-04T09:31:00.028Z</time>
      </trkpt>
      <trkpt lat="45.63367" lon="5.32056">
        <ele>353</ele>
        <time>2021-04-04T09:31:01.028Z</time>
      </trkpt>
      <trkpt lat="45.63364" lon="5.32067">
        <ele>353</ele>
        <time>2021-04-04T09:31:02.028Z</time>
      </trkpt>
      <trkpt lat="45.63362" lon="5.32078">
        <ele>353</ele>
        <time>2021-04-04T09:31:03.028Z</time>
      </trkpt>
      <trkpt lat="45.63359" lon="5.32089">
        <ele>353</ele>
        <time>2021-04-04T09:31:04.028Z</time>
      </trkpt>
      <trkpt lat="45.63357" lon="5.321">
        <ele>353</ele>
        <time>2021-04-04T09:31:05.027Z</time>
      </trkpt>
      <trkpt lat="45.63355" lon="5.32112">
        <ele>353</ele>
        <time>2021-04-04T09:31:06.028Z</time>
      </trkpt>
      <trkpt lat="45.63352" lon="5.32123">
        <ele>353</ele>
        <time>2021-04-04T09:31:07.028Z</time>
      </trkpt>
      <trkpt lat="45.63351" lon="5.32135">
        <ele>353</ele>
        <time>2021-04-04T09:31:08.027Z</time>
      </trkpt>
      <trkpt lat="45.63348" lon="5.32147">
        <ele>353</ele>
        <time>2021-04-04T09:31:09.027Z</time>
      </trkpt>
      <trkpt lat="45.63346" lon="5.32159">
        <ele>353</ele>
        <time>2021-04-04T09:31:10.028Z</time>
      </trkpt>
      <trkpt lat="45.63344" lon="5.3217">
        <ele>353</ele>
        <time>2021-04-04T09:31:11.027Z</time>
      </trkpt>
      <trkpt lat="45.63342" lon="5.32182">
        <ele>353</ele>
        <time>2021-04-04T09:31:12.028Z</time>
      </trkpt>
      <trkpt lat="45.63339" lon="5.32194">
        <ele>353</ele>
        <time>2021-04-04T09:31:13.027Z</time>
      </trkpt>
      <trkpt lat="45.63336" lon="5.32205">
        <ele>352</ele>
        <time>2021-04-04T09:31:14.027Z</time>
      </trkpt>
      <trkpt lat="45.63334" lon="5.32217">
        <ele>352</ele>
        <time>2021-04-04T09:31:15.028Z</time>
      </trkpt>
      <trkpt lat="45.63331" lon="5.3223">
        <ele>352</ele>
        <time>2021-04-04T09:31:16.028Z</time>
      </trkpt>
      <trkpt lat="45.63328" lon="5.32242">
        <ele>352</ele>
        <time>2021-04-04T09:31:17.028Z</time>
      </trkpt>
      <trkpt lat="45.63327" lon="5.32251">
        <ele>352</ele>
        <time>2021-04-04T09:31:18.028Z</time>
      </trkpt>
      <trkpt lat="45.63324" lon="5.32262">
        <ele>352</ele>
        <time>2021-04-04T09:31:19.027Z</time>
      </trkpt>
      <trkpt lat="45.63322" lon="5.32273">
        <ele>352</ele>
        <time>2021-04-04T09:31:20.028Z</time>
      </trkpt>
      <trkpt lat="45.63319" lon="5.32284">
        <ele>352</ele>
        <time>2021-04-04T09:31:21.027Z</time>
      </trkpt>
      <trkpt lat="45.63316" lon="5.32297">
        <ele>352</ele>
        <time>2021-04-04T09:31:22.028Z</time>
      </trkpt>
      <trkpt lat="45.63313" lon="5.32306">
        <ele>352</ele>
        <time>2021-04-04T09:31:23.028Z</time>
      </trkpt>
      <trkpt lat="45.6331" lon="5.32317">
        <ele>353</ele>
        <time>2021-04-04T09:31:24.027Z</time>
      </trkpt>
      <trkpt lat="45.63307" lon="5.32329">
        <ele>353</ele>
        <time>2021-04-04T09:31:25.028Z</time>
      </trkpt>
      <trkpt lat="45.63305" lon="5.32337">
        <ele>353</ele>
        <time>2021-04-04T09:31:26.028Z</time>
      </trkpt>
      <trkpt lat="45.63302" lon="5.3235">
        <ele>354</ele>
        <time>2021-04-04T09:31:27.027Z</time>
      </trkpt>
      <trkpt lat="45.633" lon="5.32359">
        <ele>354</ele>
        <time>2021-04-04T09:31:28.028Z</time>
      </trkpt>
      <trkpt lat="45.63297" lon="5.32369">
        <ele>353</ele>
        <time>2021-04-04T09:31:29.028Z</time>
      </trkpt>
      <trkpt lat="45.63294" lon="5.3238">
        <ele>353</ele>
        <time>2021-04-04T09:31:30.027Z</time>
      </trkpt>
      <trkpt lat="45.63292" lon="5.3239">
        <ele>353</ele>
        <time>2021-04-04T09:31:31.028Z</time>
      </trkpt>
      <trkpt lat="45.63289" lon="5.32401">
        <ele>353</ele>
        <time>2021-04-04T09:31:32.028Z</time>
      </trkpt>
      <trkpt lat="45.63286" lon="5.32411">
        <ele>352</ele>
        <time>2021-04-04T09:31:33.028Z</time>
      </trkpt>
      <trkpt lat="45.63284" lon="5.32421">
        <ele>352</ele>
        <time>2021-04-04T09:31:34.027Z</time>
      </trkpt>
      <trkpt lat="45.63281" lon="5.32431">
        <ele>353</ele>
        <time>2021-04-04T09:31:35.028Z</time>
      </trkpt>
      <trkpt lat="45.63279" lon="5.32441">
        <ele>353</ele>
        <time>2021-04-04T09:31:36.027Z</time>
      </trkpt>
      <trkpt lat="45.63277" lon="5.32451">
        <ele>353</ele>
        <time>2021-04-04T09:31:37.028Z</time>
      </trkpt>
      <trkpt lat="45.63274" lon="5.3246">
        <ele>353</ele>
        <time>2021-04-04T09:31:38.028Z</time>
      </trkpt>
      <trkpt lat="45.63271" lon="5.3247">
        <ele>353</ele>
        <time>2021-04-04T09:31:39.028Z</time>
      </trkpt>
      <trkpt lat="45.63268" lon="5.32479">
        <ele>352</ele>
        <time>2021-04-04T09:31:40.028Z</time>
      </trkpt>
      <trkpt lat="45.63265" lon="5.32489">
        <ele>352</ele>
        <time>2021-04-04T09:31:41.027Z</time>
      </trkpt>
      <trkpt lat="45.63263" lon="5.32499">
        <ele>352</ele>
        <time>2021-04-04T09:31:42.028Z</time>
      </trkpt>
      <trkpt lat="45.6326" lon="5.32508">
        <ele>352</ele>
        <time>2021-04-04T09:31:43.028Z</time>
      </trkpt>
      <trkpt lat="45.63257" lon="5.32518">
        <ele>352</ele>
        <time>2021-04-04T09:31:44.028Z</time>
      </trkpt>
      <trkpt lat="45.63255" lon="5.32527">
        <ele>352</ele>
        <time>2021-04-04T09:31:45.028Z</time>
      </trkpt>
      <trkpt lat="45.63252" lon="5.32537">
        <ele>352</ele>
        <time>2021-04-04T09:31:46.028Z</time>
      </trkpt>
      <trkpt lat="45.63251" lon="5.32547">
        <ele>352</ele>
        <time>2021-04-04T09:31:47.028Z</time>
      </trkpt>
      <trkpt lat="45.63249" lon="5.32556">
        <ele>352</ele>
        <time>2021-04-04T09:31:48.027Z</time>
      </trkpt>
      <trkpt lat="45.63247" lon="5.32566">
        <ele>353</ele>
        <time>2021-04-04T09:31:49.028Z</time>
      </trkpt>
      <trkpt lat="45.63245" lon="5.32575">
        <ele>353</ele>
        <time>2021-04-04T09:31:50.028Z</time>
      </trkpt>
      <trkpt lat="45.63243" lon="5.32585">
        <ele>353</ele>
        <time>2021-04-04T09:31:51.027Z</time>
      </trkpt>
      <trkpt lat="45.63242" lon="5.32594">
        <ele>353</ele>
        <time>2021-04-04T09:31:52.027Z</time>
      </trkpt>
      <trkpt lat="45.63241" lon="5.32603">
        <ele>353</ele>
        <time>2021-04-04T09:31:53.028Z</time>
      </trkpt>
      <trkpt lat="45.6324" lon="5.32611">
        <ele>353</ele>
        <time>2021-04-04T09:31:54.027Z</time>
      </trkpt>
      <trkpt lat="45.63239" lon="5.3262">
        <ele>353</ele>
        <time>2021-04-04T09:31:55.028Z</time>
      </trkpt>
      <trkpt lat="45.63238" lon="5.32628">
        <ele>354</ele>
        <time>2021-04-04T09:31:56.027Z</time>
      </trkpt>
      <trkpt lat="45.63237" lon="5.32636">
        <ele>354</ele>
        <time>2021-04-04T09:31:57.028Z</time>
      </trkpt>
      <trkpt lat="45.63237" lon="5.32644">
        <ele>354</ele>
        <time>2021-04-04T09:31:58.028Z</time>
      </trkpt>
      <trkpt lat="45.63236" lon="5.32652">
        <ele>354</ele>
        <time>2021-04-04T09:31:59.028Z</time>
      </trkpt>
      <trkpt lat="45.63235" lon="5.32659">
        <ele>354</ele>
        <time>2021-04-04T09:32:00.027Z</time>
      </trkpt>
      <trkpt lat="45.63234" lon="5.32667">
        <ele>354</ele>
        <time>2021-04-04T09:32:01.028Z</time>
      </trkpt>
      <trkpt lat="45.63233" lon="5.32674">
        <ele>354</ele>
        <time>2021-04-04T09:32:02.028Z</time>
      </trkpt>
      <trkpt lat="45.63232" lon="5.32682">
        <ele>354</ele>
        <time>2021-04-04T09:32:03.027Z</time>
      </trkpt>
      <trkpt lat="45.63232" lon="5.32689">
        <ele>354</ele>
        <time>2021-04-04T09:32:04.028Z</time>
      </trkpt>
      <trkpt lat="45.63231" lon="5.32696">
        <ele>355</ele>
        <time>2021-04-04T09:32:05.028Z</time>
      </trkpt>
      <trkpt lat="45.63231" lon="5.32703">
        <ele>355</ele>
        <time>2021-04-04T09:32:06.028Z</time>
      </trkpt>
      <trkpt lat="45.6323" lon="5.3271">
        <ele>356</ele>
        <time>2021-04-04T09:32:07.028Z</time>
      </trkpt>
      <trkpt lat="45.6323" lon="5.32717">
        <ele>356</ele>
        <time>2021-04-04T09:32:08.028Z</time>
      </trkpt>
      <trkpt lat="45.6323" lon="5.32723">
        <ele>357</ele>
        <time>2021-04-04T09:32:09.028Z</time>
      </trkpt>
      <trkpt lat="45.63229" lon="5.3273">
        <ele>357</ele>
        <time>2021-04-04T09:32:10.028Z</time>
      </trkpt>
      <trkpt lat="45.63229" lon="5.32737">
        <ele>358</ele>
        <time>2021-04-04T09:32:11.027Z</time>
      </trkpt>
      <trkpt lat="45.63229" lon="5.32743">
        <ele>359</ele>
        <time>2021-04-04T09:32:12.028Z</time>
      </trkpt>
      <trkpt lat="45.63228" lon="5.3275">
        <ele>359</ele>
        <time>2021-04-04T09:32:13.028Z</time>
      </trkpt>
      <trkpt lat="45.63227" lon="5.32756">
        <ele>360</ele>
        <time>2021-04-04T09:32:14.027Z</time>
      </trkpt>
      <trkpt lat="45.63227" lon="5.32763">
        <ele>360</ele>
        <time>2021-04-04T09:32:15.028Z</time>
      </trkpt>
      <trkpt lat="45.63226" lon="5.3277">
        <ele>361</ele>
        <time>2021-04-04T09:32:16.028Z</time>
      </trkpt>
      <trkpt lat="45.63226" lon="5.32776">
        <ele>361</ele>
        <time>2021-04-04T09:32:17.027Z</time>
      </trkpt>
      <trkpt lat="45.63225" lon="5.32783">
        <ele>361</ele>
        <time>2021-04-04T09:32:18.028Z</time>
      </trkpt>
      <trkpt lat="45.63225" lon="5.3279">
        <ele>361</ele>
        <time>2021-04-04T09:32:19.028Z</time>
      </trkpt>
      <trkpt lat="45.63225" lon="5.32796">
        <ele>361</ele>
        <time>2021-04-04T09:32:20.028Z</time>
      </trkpt>
      <trkpt lat="45.63225" lon="5.32803">
        <ele>361</ele>
        <time>2021-04-04T09:32:21.028Z</time>
      </trkpt>
      <trkpt lat="45.63224" lon="5.3281">
        <ele>362</ele>
        <time>2021-04-04T09:32:22.027Z</time>
      </trkpt>
      <trkpt lat="45.63224" lon="5.32817">
        <ele>363</ele>
        <time>2021-04-04T09:32:23.028Z</time>
      </trkpt>
      <trkpt lat="45.63223" lon="5.32824">
        <ele>363</ele>
        <time>2021-04-04T09:32:24.028Z</time>
      </trkpt>
      <trkpt lat="45.63223" lon="5.32831">
        <ele>364</ele>
        <time>2021-04-04T09:32:25.027Z</time>
      </trkpt>
      <trkpt lat="45.63223" lon="5.32837">
        <ele>364</ele>
        <time>2021-04-04T09:32:26.028Z</time>
      </trkpt>
      <trkpt lat="45.63222" lon="5.32844">
        <ele>364</ele>
        <time>2021-04-04T09:32:27.028Z</time>
      </trkpt>
      <trkpt lat="45.63222" lon="5.3285">
        <ele>365</ele>
        <time>2021-04-04T09:32:28.028Z</time>
      </trkpt>
      <trkpt lat="45.63222" lon="5.32857">
        <ele>365</ele>
        <time>2021-04-04T09:32:29.028Z</time>
      </trkpt>
      <trkpt lat="45.63221" lon="5.32863">
        <ele>365</ele>
        <time>2021-04-04T09:32:30.028Z</time>
      </trkpt>
      <trkpt lat="45.63221" lon="5.3287">
        <ele>366</ele>
        <time>2021-04-04T09:32:31.028Z</time>
      </trkpt>
      <trkpt lat="45.6322" lon="5.32877">
        <ele>366</ele>
        <time>2021-04-04T09:32:32.028Z</time>
      </trkpt>
      <trkpt lat="45.63219" lon="5.32884">
        <ele>366</ele>
        <time>2021-04-04T09:32:33.028Z</time>
      </trkpt>
      <trkpt lat="45.63218" lon="5.3289">
        <ele>366</ele>
        <time>2021-04-04T09:32:34.027Z</time>
      </trkpt>
      <trkpt lat="45.63217" lon="5.32897">
        <ele>366</ele>
        <time>2021-04-04T09:32:35.028Z</time>
      </trkpt>
      <trkpt lat="45.63216" lon="5.32903">
        <ele>366</ele>
        <time>2021-04-04T09:32:36.028Z</time>
      </trkpt>
      <trkpt lat="45.63215" lon="5.3291">
        <ele>367</ele>
        <time>2021-04-04T09:32:37.028Z</time>
      </trkpt>
      <trkpt lat="45.63213" lon="5.32917">
        <ele>367</ele>
        <time>2021-04-04T09:32:38.028Z</time>
      </trkpt>
      <trkpt lat="45.63212" lon="5.32923">
        <ele>367</ele>
        <time>2021-04-04T09:32:39.028Z</time>
      </trkpt>
      <trkpt lat="45.63211" lon="5.3293">
        <ele>367</ele>
        <time>2021-04-04T09:32:40.028Z</time>
      </trkpt>
      <trkpt lat="45.6321" lon="5.32937">
        <ele>368</ele>
        <time>2021-04-04T09:32:41.028Z</time>
      </trkpt>
      <trkpt lat="45.63209" lon="5.32943">
        <ele>368</ele>
        <time>2021-04-04T09:32:42.027Z</time>
      </trkpt>
      <trkpt lat="45.63208" lon="5.3295">
        <ele>369</ele>
        <time>2021-04-04T09:32:43.027Z</time>
      </trkpt>
      <trkpt lat="45.63207" lon="5.32956">
        <ele>369</ele>
        <time>2021-04-04T09:32:44.028Z</time>
      </trkpt>
      <trkpt lat="45.63206" lon="5.32963">
        <ele>369</ele>
        <time>2021-04-04T09:32:45.028Z</time>
      </trkpt>
      <trkpt lat="45.63205" lon="5.3297">
        <ele>370</ele>
        <time>2021-04-04T09:32:46.028Z</time>
      </trkpt>
      <trkpt lat="45.63205" lon="5.32976">
        <ele>370</ele>
        <time>2021-04-04T09:32:47.028Z</time>
      </trkpt>
      <trkpt lat="45.63204" lon="5.32983">
        <ele>370</ele>
        <time>2021-04-04T09:32:48.028Z</time>
      </trkpt>
      <trkpt lat="45.63204" lon="5.32989">
        <ele>370</ele>
        <time>2021-04-04T09:32:49.027Z</time>
      </trkpt>
      <trkpt lat="45.63204" lon="5.32996">
        <ele>371</ele>
        <time>2021-04-04T09:32:50.028Z</time>
      </trkpt>
      <trkpt lat="45.63203" lon="5.33002">
        <ele>371</ele>
        <time>2021-04-04T09:32:51.028Z</time>
      </trkpt>
      <trkpt lat="45.63203" lon="5.33009">
        <ele>372</ele>
        <time>2021-04-04T09:32:52.028Z</time>
      </trkpt>
      <trkpt lat="45.63203" lon="5.33016">
        <ele>372</ele>
        <time>2021-04-04T09:32:53.027Z</time>
      </trkpt>
      <trkpt lat="45.63203" lon="5.33023">
        <ele>373</ele>
        <time>2021-04-04T09:32:54.027Z</time>
      </trkpt>
      <trkpt lat="45.63202" lon="5.3303">
        <ele>373</ele>
        <time>2021-04-04T09:32:55.028Z</time>
      </trkpt>
      <trkpt lat="45.63203" lon="5.33038">
        <ele>374</ele>
        <time>2021-04-04T09:32:56.028Z</time>
      </trkpt>
      <trkpt lat="45.63203" lon="5.33045">
        <ele>374</ele>
        <time>2021-04-04T09:32:57.028Z</time>
      </trkpt>
      <trkpt lat="45.63203" lon="5.33052">
        <ele>375</ele>
        <time>2021-04-04T09:32:58.028Z</time>
      </trkpt>
      <trkpt lat="45.63203" lon="5.33059">
        <ele>375</ele>
        <time>2021-04-04T09:32:59.028Z</time>
      </trkpt>
      <trkpt lat="45.63203" lon="5.33066">
        <ele>375</ele>
        <time>2021-04-04T09:33:00.028Z</time>
      </trkpt>
      <trkpt lat="45.63204" lon="5.33073">
        <ele>375</ele>
        <time>2021-04-04T09:33:01.027Z</time>
      </trkpt>
      <trkpt lat="45.63204" lon="5.33079">
        <ele>375</ele>
        <time>2021-04-04T09:33:02.027Z</time>
      </trkpt>
      <trkpt lat="45.63205" lon="5.33086">
        <ele>376</ele>
        <time>2021-04-04T09:33:03.027Z</time>
      </trkpt>
      <trkpt lat="45.63205" lon="5.33093">
        <ele>376</ele>
        <time>2021-04-04T09:33:04.027Z</time>
      </trkpt>
      <trkpt lat="45.63206" lon="5.331">
        <ele>376</ele>
        <time>2021-04-04T09:33:05.028Z</time>
      </trkpt>
      <trkpt lat="45.63207" lon="5.33106">
        <ele>377</ele>
        <time>2021-04-04T09:33:06.027Z</time>
      </trkpt>
      <trkpt lat="45.63207" lon="5.33113">
        <ele>377</ele>
        <time>2021-04-04T09:33:07.027Z</time>
      </trkpt>
      <trkpt lat="45.63207" lon="5.3312">
        <ele>378</ele>
        <time>2021-04-04T09:33:08.028Z</time>
      </trkpt>
      <trkpt lat="45.63208" lon="5.33126">
        <ele>378</ele>
        <time>2021-04-04T09:33:09.028Z</time>
      </trkpt>
      <trkpt lat="45.63208" lon="5.33133">
        <ele>378</ele>
        <time>2021-04-04T09:33:10.027Z</time>
      </trkpt>
      <trkpt lat="45.63209" lon="5.33139">
        <ele>378</ele>
        <time>2021-04-04T09:33:11.028Z</time>
      </trkpt>
      <trkpt lat="45.63209" lon="5.33146">
        <ele>379</ele>
        <time>2021-04-04T09:33:12.028Z</time>
      </trkpt>
      <trkpt lat="45.6321" lon="5.33152">
        <ele>379</ele>
        <time>2021-04-04T09:33:13.028Z</time>
      </trkpt>
      <trkpt lat="45.6321" lon="5.33159">
        <ele>379</ele>
        <time>2021-04-04T09:33:14.028Z</time>
      </trkpt>
      <trkpt lat="45.6321" lon="5.33165">
        <ele>379</ele>
        <time>2021-04-04T09:33:15.027Z</time>
      </trkpt>
      <trkpt lat="45.63211" lon="5.33171">
        <ele>379</ele>
        <time>2021-04-04T09:33:16.027Z</time>
      </trkpt>
      <trkpt lat="45.63212" lon="5.33177">
        <ele>379</ele>
        <time>2021-04-04T09:33:17.028Z</time>
      </trkpt>
      <trkpt lat="45.63212" lon="5.33184">
        <ele>379</ele>
        <time>2021-04-04T09:33:18.028Z</time>
      </trkpt>
      <trkpt lat="45.63213" lon="5.33191">
        <ele>379</ele>
        <time>2021-04-04T09:33:19.027Z</time>
      </trkpt>
      <trkpt lat="45.63214" lon="5.33197">
        <ele>379</ele>
        <time>2021-04-04T09:33:20.027Z</time>
      </trkpt>
      <trkpt lat="45.63215" lon="5.33203">
        <ele>379</ele>
        <time>2021-04-04T09:33:21.027Z</time>
      </trkpt>
      <trkpt lat="45.63216" lon="5.3321">
        <ele>380</ele>
        <time>2021-04-04T09:33:22.027Z</time>
      </trkpt>
      <trkpt lat="45.63217" lon="5.33216">
        <ele>380</ele>
        <time>2021-04-04T09:33:23.028Z</time>
      </trkpt>
      <trkpt lat="45.63218" lon="5.33223">
        <ele>380</ele>
        <time>2021-04-04T09:33:24.028Z</time>
      </trkpt>
      <trkpt lat="45.6322" lon="5.33229">
        <ele>381</ele>
        <time>2021-04-04T09:33:25.028Z</time>
      </trkpt>
      <trkpt lat="45.63221" lon="5.33236">
        <ele>381</ele>
        <time>2021-04-04T09:33:26.028Z</time>
      </trkpt>
      <trkpt lat="45.63223" lon="5.33243">
        <ele>381</ele>
        <time>2021-04-04T09:33:27.027Z</time>
      </trkpt>
      <trkpt lat="45.63224" lon="5.3325">
        <ele>381</ele>
        <time>2021-04-04T09:33:28.028Z</time>
      </trkpt>
      <trkpt lat="45.63226" lon="5.33257">
        <ele>381</ele>
        <time>2021-04-04T09:33:29.028Z</time>
      </trkpt>
      <trkpt lat="45.63227" lon="5.33264">
        <ele>381</ele>
        <time>2021-04-04T09:33:30.028Z</time>
      </trkpt>
      <trkpt lat="45.63229" lon="5.33272">
        <ele>381</ele>
        <time>2021-04-04T09:33:31.028Z</time>
      </trkpt>
      <trkpt lat="45.63231" lon="5.33278">
        <ele>381</ele>
        <time>2021-04-04T09:33:32.027Z</time>
      </trkpt>
      <trkpt lat="45.63233" lon="5.33285">
        <ele>381</ele>
        <time>2021-04-04T09:33:33.028Z</time>
      </trkpt>
      <trkpt lat="45.63234" lon="5.33292">
        <ele>382</ele>
        <time>2021-04-04T09:33:34.028Z</time>
      </trkpt>
      <trkpt lat="45.63236" lon="5.333">
        <ele>382</ele>
        <time>2021-04-04T09:33:35.028Z</time>
      </trkpt>
      <trkpt lat="45.63237" lon="5.33306">
        <ele>382</ele>
        <time>2021-04-04T09:33:36.028Z</time>
      </trkpt>
      <trkpt lat="45.63239" lon="5.33314">
        <ele>382</ele>
        <time>2021-04-04T09:33:37.028Z</time>
      </trkpt>
      <trkpt lat="45.63241" lon="5.33321">
        <ele>382</ele>
        <time>2021-04-04T09:33:38.028Z</time>
      </trkpt>
      <trkpt lat="45.63243" lon="5.3333">
        <ele>383</ele>
        <time>2021-04-04T09:33:39.028Z</time>
      </trkpt>
      <trkpt lat="45.63244" lon="5.33338">
        <ele>383</ele>
        <time>2021-04-04T09:33:40.027Z</time>
      </trkpt>
      <trkpt lat="45.63246" lon="5.33344">
        <ele>383</ele>
        <time>2021-04-04T09:33:41.028Z</time>
      </trkpt>
      <trkpt lat="45.63247" lon="5.33352">
        <ele>383</ele>
        <time>2021-04-04T09:33:42.028Z</time>
      </trkpt>
      <trkpt lat="45.63249" lon="5.3336">
        <ele>383</ele>
        <time>2021-04-04T09:33:43.028Z</time>
      </trkpt>
      <trkpt lat="45.6325" lon="5.33367">
        <ele>383</ele>
        <time>2021-04-04T09:33:44.028Z</time>
      </trkpt>
      <trkpt lat="45.63252" lon="5.33376">
        <ele>383</ele>
        <time>2021-04-04T09:33:45.028Z</time>
      </trkpt>
      <trkpt lat="45.63253" lon="5.33382">
        <ele>383</ele>
        <time>2021-04-04T09:33:46.028Z</time>
      </trkpt>
      <trkpt lat="45.63255" lon="5.33389">
        <ele>383</ele>
        <time>2021-04-04T09:33:47.028Z</time>
      </trkpt>
      <trkpt lat="45.63256" lon="5.33397">
        <ele>383</ele>
        <time>2021-04-04T09:33:48.027Z</time>
      </trkpt>
      <trkpt lat="45.63258" lon="5.33406">
        <ele>383</ele>
        <time>2021-04-04T09:33:49.028Z</time>
      </trkpt>
      <trkpt lat="45.6326" lon="5.33412">
        <ele>382</ele>
        <time>2021-04-04T09:33:50.028Z</time>
      </trkpt>
      <trkpt lat="45.63262" lon="5.3342">
        <ele>382</ele>
        <time>2021-04-04T09:33:51.028Z</time>
      </trkpt>
      <trkpt lat="45.63264" lon="5.33428">
        <ele>382</ele>
        <time>2021-04-04T09:33:52.028Z</time>
      </trkpt>
      <trkpt lat="45.63266" lon="5.33437">
        <ele>382</ele>
        <time>2021-04-04T09:33:53.028Z</time>
      </trkpt>
      <trkpt lat="45.63268" lon="5.33443">
        <ele>382</ele>
        <time>2021-04-04T09:33:54.028Z</time>
      </trkpt>
      <trkpt lat="45.63271" lon="5.33451">
        <ele>382</ele>
        <time>2021-04-04T09:33:55.028Z</time>
      </trkpt>
      <trkpt lat="45.63273" lon="5.33459">
        <ele>383</ele>
        <time>2021-04-04T09:33:56.027Z</time>
      </trkpt>
      <trkpt lat="45.63276" lon="5.33468">
        <ele>382</ele>
        <time>2021-04-04T09:33:57.028Z</time>
      </trkpt>
      <trkpt lat="45.63278" lon="5.33476">
        <ele>382</ele>
        <time>2021-04-04T09:33:58.027Z</time>
      </trkpt>
      <trkpt lat="45.6328" lon="5.33485">
        <ele>382</ele>
        <time>2021-04-04T09:33:59.027Z</time>
      </trkpt>
      <trkpt lat="45.63283" lon="5.33493">
        <ele>382</ele>
        <time>2021-04-04T09:34:00.027Z</time>
      </trkpt>
      <trkpt lat="45.63285" lon="5.33501">
        <ele>382</ele>
        <time>2021-04-04T09:34:01.028Z</time>
      </trkpt>
      <trkpt lat="45.63288" lon="5.3351">
        <ele>381</ele>
        <time>2021-04-04T09:34:02.028Z</time>
      </trkpt>
      <trkpt lat="45.6329" lon="5.33519">
        <ele>381</ele>
        <time>2021-04-04T09:34:03.027Z</time>
      </trkpt>
      <trkpt lat="45.63292" lon="5.33526">
        <ele>381</ele>
        <time>2021-04-04T09:34:04.027Z</time>
      </trkpt>
      <trkpt lat="45.63294" lon="5.33534">
        <ele>381</ele>
        <time>2021-04-04T09:34:05.027Z</time>
      </trkpt>
      <trkpt lat="45.63296" lon="5.33544">
        <ele>381</ele>
        <time>2021-04-04T09:34:06.028Z</time>
      </trkpt>
      <trkpt lat="45.63298" lon="5.33552">
        <ele>381</ele>
        <time>2021-04-04T09:34:07.028Z</time>
      </trkpt>
      <trkpt lat="45.63299" lon="5.3356">
        <ele>382</ele>
        <time>2021-04-04T09:34:08.028Z</time>
      </trkpt>
      <trkpt lat="45.633" lon="5.33567">
        <ele>381</ele>
        <time>2021-04-04T09:34:09.028Z</time>
      </trkpt>
      <trkpt lat="45.63301" lon="5.33575">
        <ele>381</ele>
        <time>2021-04-04T09:34:10.028Z</time>
      </trkpt>
      <trkpt lat="45.63302" lon="5.33583">
        <ele>381</ele>
        <time>2021-04-04T09:34:11.028Z</time>
      </trkpt>
      <trkpt lat="45.63302" lon="5.33591">
        <ele>381</ele>
        <time>2021-04-04T09:34:12.028Z</time>
      </trkpt>
      <trkpt lat="45.63303" lon="5.33599">
        <ele>382</ele>
        <time>2021-04-04T09:34:13.027Z</time>
      </trkpt>
      <trkpt lat="45.63303" lon="5.33607">
        <ele>382</ele>
        <time>2021-04-04T09:34:14.027Z</time>
      </trkpt>
      <trkpt lat="45.63302" lon="5.33616">
        <ele>382</ele>
        <time>2021-04-04T09:34:15.027Z</time>
      </trkpt>
      <trkpt lat="45.63302" lon="5.33623">
        <ele>383</ele>
        <time>2021-04-04T09:34:16.028Z</time>
      </trkpt>
      <trkpt lat="45.63301" lon="5.3363">
        <ele>383</ele>
        <time>2021-04-04T09:34:17.027Z</time>
      </trkpt>
      <trkpt lat="45.63301" lon="5.33638">
        <ele>383</ele>
        <time>2021-04-04T09:34:18.028Z</time>
      </trkpt>
      <trkpt lat="45.633" lon="5.33646">
        <ele>384</ele>
        <time>2021-04-04T09:34:19.028Z</time>
      </trkpt>
      <trkpt lat="45.63298" lon="5.33654">
        <ele>384</ele>
        <time>2021-04-04T09:34:20.028Z</time>
      </trkpt>
      <trkpt lat="45.63297" lon="5.33662">
        <ele>384</ele>
        <time>2021-04-04T09:34:21.027Z</time>
      </trkpt>
      <trkpt lat="45.63296" lon="5.3367">
        <ele>384</ele>
        <time>2021-04-04T09:34:22.028Z</time>
      </trkpt>
      <trkpt lat="45.63295" lon="5.33677">
        <ele>384</ele>
        <time>2021-04-04T09:34:23.028Z</time>
      </trkpt>
      <trkpt lat="45.63293" lon="5.33687">
        <ele>385</ele>
        <time>2021-04-04T09:34:24.028Z</time>
      </trkpt>
      <trkpt lat="45.63291" lon="5.33693">
        <ele>385</ele>
        <time>2021-04-04T09:34:25.027Z</time>
      </trkpt>
      <trkpt lat="45.63289" lon="5.33703">
        <ele>385</ele>
        <time>2021-04-04T09:34:26.028Z</time>
      </trkpt>
      <trkpt lat="45.63288" lon="5.33709">
        <ele>385</ele>
        <time>2021-04-04T09:34:27.028Z</time>
      </trkpt>
      <trkpt lat="45.63286" lon="5.33716">
        <ele>385</ele>
        <time>2021-04-04T09:34:28.028Z</time>
      </trkpt>
      <trkpt lat="45.63284" lon="5.33725">
        <ele>385</ele>
        <time>2021-04-04T09:34:29.027Z</time>
      </trkpt>
      <trkpt lat="45.63283" lon="5.33732">
        <ele>385</ele>
        <time>2021-04-04T09:34:30.027Z</time>
      </trkpt>
      <trkpt lat="45.63281" lon="5.33739">
        <ele>385</ele>
        <time>2021-04-04T09:34:31.028Z</time>
      </trkpt>
      <trkpt lat="45.6328" lon="5.33747">
        <ele>385</ele>
        <time>2021-04-04T09:34:32.027Z</time>
      </trkpt>
      <trkpt lat="45.63278" lon="5.33757">
        <ele>385</ele>
        <time>2021-04-04T09:34:33.027Z</time>
      </trkpt>
      <trkpt lat="45.63276" lon="5.33764">
        <ele>385</ele>
        <time>2021-04-04T09:34:34.028Z</time>
      </trkpt>
      <trkpt lat="45.63275" lon="5.33771">
        <ele>384</ele>
        <time>2021-04-04T09:34:35.027Z</time>
      </trkpt>
      <trkpt lat="45.63274" lon="5.33779">
        <ele>385</ele>
        <time>2021-04-04T09:34:36.028Z</time>
      </trkpt>
      <trkpt lat="45.63273" lon="5.33787">
        <ele>385</ele>
        <time>2021-04-04T09:34:37.028Z</time>
      </trkpt>
      <trkpt lat="45.63272" lon="5.33795">
        <ele>385</ele>
        <time>2021-04-04T09:34:38.028Z</time>
      </trkpt>
      <trkpt lat="45.63272" lon="5.33805">
        <ele>385</ele>
        <time>2021-04-04T09:34:39.028Z</time>
      </trkpt>
      <trkpt lat="45.63271" lon="5.33812">
        <ele>385</ele>
        <time>2021-04-04T09:34:40.028Z</time>
      </trkpt>
      <trkpt lat="45.63271" lon="5.3382">
        <ele>385</ele>
        <time>2021-04-04T09:34:41.027Z</time>
      </trkpt>
      <trkpt lat="45.63271" lon="5.33829">
        <ele>385</ele>
        <time>2021-04-04T09:34:42.028Z</time>
      </trkpt>
      <trkpt lat="45.6327" lon="5.33838">
        <ele>385</ele>
        <time>2021-04-04T09:34:43.027Z</time>
      </trkpt>
      <trkpt lat="45.6327" lon="5.33848">
        <ele>385</ele>
        <time>2021-04-04T09:34:44.028Z</time>
      </trkpt>
      <trkpt lat="45.6327" lon="5.33856">
        <ele>385</ele>
        <time>2021-04-04T09:34:45.028Z</time>
      </trkpt>
      <trkpt lat="45.6327" lon="5.33866">
        <ele>386</ele>
        <time>2021-04-04T09:34:46.027Z</time>
      </trkpt>
      <trkpt lat="45.6327" lon="5.33878">
        <ele>386</ele>
        <time>2021-04-04T09:34:47.028Z</time>
      </trkpt>
      <trkpt lat="45.6327" lon="5.33886">
        <ele>386</ele>
        <time>2021-04-04T09:34:48.027Z</time>
      </trkpt>
      <trkpt lat="45.63269" lon="5.33896">
        <ele>386</ele>
        <time>2021-04-04T09:34:49.027Z</time>
      </trkpt>
      <trkpt lat="45.63269" lon="5.33907">
        <ele>386</ele>
        <time>2021-04-04T09:34:50.027Z</time>
      </trkpt>
      <trkpt lat="45.63269" lon="5.33918">
        <ele>386</ele>
        <time>2021-04-04T09:34:51.028Z</time>
      </trkpt>
      <trkpt lat="45.63268" lon="5.33929">
        <ele>385</ele>
        <time>2021-04-04T09:34:52.028Z</time>
      </trkpt>
      <trkpt lat="45.63268" lon="5.33943">
        <ele>385</ele>
        <time>2021-04-04T09:34:53.028Z</time>
      </trkpt>
      <trkpt lat="45.63268" lon="5.33952">
        <ele>384</ele>
        <time>2021-04-04T09:34:54.028Z</time>
      </trkpt>
      <trkpt lat="45.63267" lon="5.33963">
        <ele>384</ele>
        <time>2021-04-04T09:34:55.027Z</time>
      </trkpt>
      <trkpt lat="45.63266" lon="5.33978">
        <ele>384</ele>
        <time>2021-04-04T09:34:56.027Z</time>
      </trkpt>
      <trkpt lat="45.63265" lon="5.33987">
        <ele>384</ele>
        <time>2021-04-04T09:34:57.028Z</time>
      </trkpt>
      <trkpt lat="45.63265" lon="5.33999">
        <ele>385</ele>
        <time>2021-04-04T09:34:58.028Z</time>
      </trkpt>
      <trkpt lat="45.63264" lon="5.34012">
        <ele>385</ele>
        <time>2021-04-04T09:34:59.027Z</time>
      </trkpt>
      <trkpt lat="45.63263" lon="5.34024">
        <ele>385</ele>
        <time>2021-04-04T09:35:00.028Z</time>
      </trkpt>
      <trkpt lat="45.63262" lon="5.34037">
        <ele>386</ele>
        <time>2021-04-04T09:35:01.028Z</time>
      </trkpt>
      <trkpt lat="45.63261" lon="5.34049">
        <ele>386</ele>
        <time>2021-04-04T09:35:02.027Z</time>
      </trkpt>
      <trkpt lat="45.6326" lon="5.34061">
        <ele>386</ele>
        <time>2021-04-04T09:35:03.028Z</time>
      </trkpt>
      <trkpt lat="45.6326" lon="5.34073">
        <ele>386</ele>
        <time>2021-04-04T09:35:04.028Z</time>
      </trkpt>
      <trkpt lat="45.63259" lon="5.34084">
        <ele>386</ele>
        <time>2021-04-04T09:35:05.028Z</time>
      </trkpt>
      <trkpt lat="45.63259" lon="5.34098">
        <ele>387</ele>
        <time>2021-04-04T09:35:06.028Z</time>
      </trkpt>
      <trkpt lat="45.63259" lon="5.34107">
        <ele>387</ele>
        <time>2021-04-04T09:35:07.027Z</time>
      </trkpt>
      <trkpt lat="45.63259" lon="5.34118">
        <ele>387</ele>
        <time>2021-04-04T09:35:08.028Z</time>
      </trkpt>
      <trkpt lat="45.63259" lon="5.34129">
        <ele>387</ele>
        <time>2021-04-04T09:35:09.028Z</time>
      </trkpt>
      <trkpt lat="45.63259" lon="5.34139">
        <ele>387</ele>
        <time>2021-04-04T09:35:10.028Z</time>
      </trkpt>
      <trkpt lat="45.6326" lon="5.3415">
        <ele>387</ele>
        <time>2021-04-04T09:35:11.028Z</time>
      </trkpt>
      <trkpt lat="45.63261" lon="5.34161">
        <ele>387</ele>
        <time>2021-04-04T09:35:12.027Z</time>
      </trkpt>
      <trkpt lat="45.63262" lon="5.34168">
        <ele>387</ele>
        <time>2021-04-04T09:35:13.028Z</time>
      </trkpt>
      <trkpt lat="45.63263" lon="5.34177">
        <ele>388</ele>
        <time>2021-04-04T09:35:14.028Z</time>
      </trkpt>
      <trkpt lat="45.63264" lon="5.34187">
        <ele>388</ele>
        <time>2021-04-04T09:35:15.027Z</time>
      </trkpt>
      <trkpt lat="45.63265" lon="5.34194">
        <ele>389</ele>
        <time>2021-04-04T09:35:16.028Z</time>
      </trkpt>
      <trkpt lat="45.63266" lon="5.34202">
        <ele>389</ele>
        <time>2021-04-04T09:35:17.028Z</time>
      </trkpt>
      <trkpt lat="45.63267" lon="5.3421">
        <ele>389</ele>
        <time>2021-04-04T09:35:18.028Z</time>
      </trkpt>
      <trkpt lat="45.63268" lon="5.34219">
        <ele>389</ele>
        <time>2021-04-04T09:35:19.028Z</time>
      </trkpt>
      <trkpt lat="45.63269" lon="5.34226">
        <ele>389</ele>
        <time>2021-04-04T09:35:20.028Z</time>
      </trkpt>
      <trkpt lat="45.6327" lon="5.34236">
        <ele>390</ele>
        <time>2021-04-04T09:35:21.028Z</time>
      </trkpt>
      <trkpt lat="45.63271" lon="5.34243">
        <ele>390</ele>
        <time>2021-04-04T09:35:22.027Z</time>
      </trkpt>
      <trkpt lat="45.63272" lon="5.34251">
        <ele>391</ele>
        <time>2021-04-04T09:35:23.027Z</time>
      </trkpt>
      <trkpt lat="45.63273" lon="5.3426">
        <ele>391</ele>
        <time>2021-04-04T09:35:24.028Z</time>
      </trkpt>
      <trkpt lat="45.63274" lon="5.34272">
        <ele>391</ele>
        <time>2021-04-04T09:35:25.028Z</time>
      </trkpt>
      <trkpt lat="45.63274" lon="5.3428">
        <ele>391</ele>
        <time>2021-04-04T09:35:26.028Z</time>
      </trkpt>
      <trkpt lat="45.63275" lon="5.34291">
        <ele>391</ele>
        <time>2021-04-04T09:35:27.027Z</time>
      </trkpt>
      <trkpt lat="45.63276" lon="5.34302">
        <ele>390</ele>
        <time>2021-04-04T09:35:28.027Z</time>
      </trkpt>
      <trkpt lat="45.63276" lon="5.34316">
        <ele>389</ele>
        <time>2021-04-04T09:35:29.028Z</time>
      </trkpt>
      <trkpt lat="45.63277" lon="5.34326">
        <ele>389</ele>
        <time>2021-04-04T09:35:30.028Z</time>
      </trkpt>
      <trkpt lat="45.63278" lon="5.34338">
        <ele>388</ele>
        <time>2021-04-04T09:35:31.027Z</time>
      </trkpt>
      <trkpt lat="45.63278" lon="5.3435">
        <ele>387</ele>
        <time>2021-04-04T09:35:32.028Z</time>
      </trkpt>
      <trkpt lat="45.63279" lon="5.34362">
        <ele>387</ele>
        <time>2021-04-04T09:35:33.028Z</time>
      </trkpt>
      <trkpt lat="45.6328" lon="5.34376">
        <ele>387</ele>
        <time>2021-04-04T09:35:34.028Z</time>
      </trkpt>
      <trkpt lat="45.6328" lon="5.34386">
        <ele>386</ele>
        <time>2021-04-04T09:35:35.028Z</time>
      </trkpt>
      <trkpt lat="45.63281" lon="5.34398">
        <ele>386</ele>
        <time>2021-04-04T09:35:36.028Z</time>
      </trkpt>
      <trkpt lat="45.63282" lon="5.34412">
        <ele>386</ele>
        <time>2021-04-04T09:35:37.028Z</time>
      </trkpt>
      <trkpt lat="45.63282" lon="5.34423">
        <ele>386</ele>
        <time>2021-04-04T09:35:38.028Z</time>
      </trkpt>
      <trkpt lat="45.63283" lon="5.34433">
        <ele>385</ele>
        <time>2021-04-04T09:35:39.028Z</time>
      </trkpt>
      <trkpt lat="45.63284" lon="5.34444">
        <ele>385</ele>
        <time>2021-04-04T09:35:40.027Z</time>
      </trkpt>
      <trkpt lat="45.63285" lon="5.34455">
        <ele>385</ele>
        <time>2021-04-04T09:35:41.028Z</time>
      </trkpt>
      <trkpt lat="45.63287" lon="5.34466">
        <ele>385</ele>
        <time>2021-04-04T09:35:42.027Z</time>
      </trkpt>
      <trkpt lat="45.63289" lon="5.34477">
        <ele>385</ele>
        <time>2021-04-04T09:35:43.027Z</time>
      </trkpt>
      <trkpt lat="45.63291" lon="5.34488">
        <ele>385</ele>
        <time>2021-04-04T09:35:44.027Z</time>
      </trkpt>
      <trkpt lat="45.63293" lon="5.345">
        <ele>385</ele>
        <time>2021-04-04T09:35:45.027Z</time>
      </trkpt>
      <trkpt lat="45.63296" lon="5.34511">
        <ele>385</ele>
        <time>2021-04-04T09:35:46.028Z</time>
      </trkpt>
      <trkpt lat="45.63298" lon="5.34522">
        <ele>384</ele>
        <time>2021-04-04T09:35:47.028Z</time>
      </trkpt>
      <trkpt lat="45.63301" lon="5.34534">
        <ele>384</ele>
        <time>2021-04-04T09:35:48.028Z</time>
      </trkpt>
      <trkpt lat="45.63303" lon="5.34546">
        <ele>384</ele>
        <time>2021-04-04T09:35:49.028Z</time>
      </trkpt>
      <trkpt lat="45.63305" lon="5.34557">
        <ele>383</ele>
        <time>2021-04-04T09:35:50.027Z</time>
      </trkpt>
      <trkpt lat="45.63308" lon="5.34568">
        <ele>383</ele>
        <time>2021-04-04T09:35:51.028Z</time>
      </trkpt>
      <trkpt lat="45.6331" lon="5.34579">
        <ele>382</ele>
        <time>2021-04-04T09:35:52.028Z</time>
      </trkpt>
      <trkpt lat="45.63312" lon="5.3459">
        <ele>382</ele>
        <time>2021-04-04T09:35:53.028Z</time>
      </trkpt>
      <trkpt lat="45.63314" lon="5.346">
        <ele>382</ele>
        <time>2021-04-04T09:35:54.028Z</time>
      </trkpt>
      <trkpt lat="45.63316" lon="5.34608">
        <ele>382</ele>
        <time>2021-04-04T09:35:55.028Z</time>
      </trkpt>
      <trkpt lat="45.63317" lon="5.34615">
        <ele>381</ele>
        <time>2021-04-04T09:35:56.027Z</time>
      </trkpt>
      <trkpt lat="45.63318" lon="5.34621">
        <ele>381</ele>
        <time>2021-04-04T09:35:57.028Z</time>
      </trkpt>
      <trkpt lat="45.63319" lon="5.34626">
        <ele>380</ele>
        <time>2021-04-04T09:35:58.028Z</time>
      </trkpt>
      <trkpt lat="45.63319" lon="5.34631">
        <ele>380</ele>
        <time>2021-04-04T09:35:59.028Z</time>
      </trkpt>
      <trkpt lat="45.63321" lon="5.34635">
        <ele>380</ele>
        <time>2021-04-04T09:36:00.027Z</time>
      </trkpt>
      <trkpt lat="45.63322" lon="5.34638">
        <ele>380</ele>
        <time>2021-04-04T09:36:01.028Z</time>
      </trkpt>
      <trkpt lat="45.63322" lon="5.34641">
        <ele>380</ele>
        <time>2021-04-04T09:36:02.028Z</time>
      </trkpt>
      <trkpt lat="45.63322" lon="5.34643">
        <ele>380</ele>
        <time>2021-04-04T09:36:03.027Z</time>
      </trkpt>
      <trkpt lat="45.63321" lon="5.34645">
        <ele>380</ele>
        <time>2021-04-04T09:36:04.027Z</time>
      </trkpt>
      <trkpt lat="45.6332" lon="5.34644">
        <ele>380</ele>
        <time>2021-04-04T09:36:05.027Z</time>
      </trkpt>
      <trkpt lat="45.6332" lon="5.34642">
        <ele>380</ele>
        <time>2021-04-04T09:36:06.028Z</time>
      </trkpt>
      <trkpt lat="45.6332" lon="5.34638">
        <ele>379</ele>
        <time>2021-04-04T09:36:07.028Z</time>
      </trkpt>
      <trkpt lat="45.6332" lon="5.34634">
        <ele>379</ele>
        <time>2021-04-04T09:36:08.027Z</time>
      </trkpt>
      <trkpt lat="45.63319" lon="5.34629">
        <ele>379</ele>
        <time>2021-04-04T09:36:09.027Z</time>
      </trkpt>
      <trkpt lat="45.63318" lon="5.34625">
        <ele>379</ele>
        <time>2021-04-04T09:36:10.027Z</time>
      </trkpt>
      <trkpt lat="45.63317" lon="5.34618">
        <ele>379</ele>
        <time>2021-04-04T09:36:11.028Z</time>
      </trkpt>
      <trkpt lat="45.63316" lon="5.34612">
        <ele>378</ele>
        <time>2021-04-04T09:36:12.028Z</time>
      </trkpt>
      <trkpt lat="45.63315" lon="5.34606">
        <ele>378</ele>
        <time>2021-04-04T09:36:13.028Z</time>
      </trkpt>
      <trkpt lat="45.63314" lon="5.34599">
        <ele>378</ele>
        <time>2021-04-04T09:36:14.028Z</time>
      </trkpt>
      <trkpt lat="45.63313" lon="5.34593">
        <ele>378</ele>
        <time>2021-04-04T09:36:15.027Z</time>
      </trkpt>
      <trkpt lat="45.63312" lon="5.34587">
        <ele>377</ele>
        <time>2021-04-04T09:36:16.028Z</time>
      </trkpt>
      <trkpt lat="45.63311" lon="5.3458">
        <ele>377</ele>
        <time>2021-04-04T09:36:17.028Z</time>
      </trkpt>
      <trkpt lat="45.6331" lon="5.34574">
        <ele>377</ele>
        <time>2021-04-04T09:36:18.027Z</time>
      </trkpt>
      <trkpt lat="45.63309" lon="5.34568">
        <ele>377</ele>
        <time>2021-04-04T09:36:19.028Z</time>
      </trkpt>
      <trkpt lat="45.63307" lon="5.34562">
        <ele>377</ele>
        <time>2021-04-04T09:36:20.028Z</time>
      </trkpt>
      <trkpt lat="45.63306" lon="5.34555">
        <ele>377</ele>
        <time>2021-04-04T09:36:21.027Z</time>
      </trkpt>
      <trkpt lat="45.63304" lon="5.34549">
        <ele>377</ele>
        <time>2021-04-04T09:36:22.028Z</time>
      </trkpt>
      <trkpt lat="45.63303" lon="5.34542">
        <ele>378</ele>
        <time>2021-04-04T09:36:23.028Z</time>
      </trkpt>
      <trkpt lat="45.63302" lon="5.34535">
        <ele>378</ele>
        <time>2021-04-04T09:36:24.027Z</time>
      </trkpt>
      <trkpt lat="45.633" lon="5.34528">
        <ele>378</ele>
        <time>2021-04-04T09:36:25.027Z</time>
      </trkpt>
      <trkpt lat="45.63299" lon="5.34522">
        <ele>378</ele>
        <time>2021-04-04T09:36:26.028Z</time>
      </trkpt>
      <trkpt lat="45.63298" lon="5.34515">
        <ele>377</ele>
        <time>2021-04-04T09:36:27.028Z</time>
      </trkpt>
      <trkpt lat="45.63297" lon="5.34509">
        <ele>377</ele>
        <time>2021-04-04T09:36:28.027Z</time>
      </trkpt>
      <trkpt lat="45.63295" lon="5.34502">
        <ele>378</ele>
        <time>2021-04-04T09:36:29.027Z</time>
      </trkpt>
      <trkpt lat="45.63293" lon="5.34494">
        <ele>378</ele>
        <time>2021-04-04T09:36:30.028Z</time>
      </trkpt>
      <trkpt lat="45.63292" lon="5.34487">
        <ele>378</ele>
        <time>2021-04-04T09:36:31.028Z</time>
      </trkpt>
      <trkpt lat="45.6329" lon="5.3448">
        <ele>379</ele>
        <time>2021-04-04T09:36:32.028Z</time>
      </trkpt>
      <trkpt lat="45.63289" lon="5.34473">
        <ele>379</ele>
        <time>2021-04-04T09:36:33.027Z</time>
      </trkpt>
      <trkpt lat="45.63288" lon="5.34468">
        <ele>379</ele>
        <time>2021-04-04T09:36:34.028Z</time>
      </trkpt>
      <trkpt lat="45.63286" lon="5.3446">
        <ele>379</ele>
        <time>2021-04-04T09:36:35.027Z</time>
      </trkpt>
      <trkpt lat="45.63285" lon="5.34453">
        <ele>379</ele>
        <time>2021-04-04T09:36:36.027Z</time>
      </trkpt>
      <trkpt lat="45.63284" lon="5.34445">
        <ele>379</ele>
        <time>2021-04-04T09:36:37.027Z</time>
      </trkpt>
      <trkpt lat="45.63284" lon="5.34439">
        <ele>379</ele>
        <time>2021-04-04T09:36:38.028Z</time>
      </trkpt>
      <trkpt lat="45.63283" lon="5.34432">
        <ele>380</ele>
        <time>2021-04-04T09:36:39.028Z</time>
      </trkpt>
      <trkpt lat="45.63282" lon="5.34423">
        <ele>380</ele>
        <time>2021-04-04T09:36:40.028Z</time>
      </trkpt>
      <trkpt lat="45.63281" lon="5.34416">
        <ele>380</ele>
        <time>2021-04-04T09:36:41.028Z</time>
      </trkpt>
      <trkpt lat="45.63281" lon="5.34409">
        <ele>380</ele>
        <time>2021-04-04T09:36:42.028Z</time>
      </trkpt>
      <trkpt lat="45.6328" lon="5.34402">
        <ele>381</ele>
        <time>2021-04-04T09:36:43.028Z</time>
      </trkpt>
      <trkpt lat="45.63279" lon="5.34395">
        <ele>381</ele>
        <time>2021-04-04T09:36:44.028Z</time>
      </trkpt>
      <trkpt lat="45.63279" lon="5.34388">
        <ele>381</ele>
        <time>2021-04-04T09:36:45.028Z</time>
      </trkpt>
      <trkpt lat="45.63278" lon="5.3438">
        <ele>381</ele>
        <time>2021-04-04T09:36:46.027Z</time>
      </trkpt>
      <trkpt lat="45.63278" lon="5.34375">
        <ele>381</ele>
        <time>2021-04-04T09:36:47.028Z</time>
      </trkpt>
      <trkpt lat="45.63277" lon="5.34368">
        <ele>382</ele>
        <time>2021-04-04T09:36:48.028Z</time>
      </trkpt>
      <trkpt lat="45.63277" lon="5.34361">
        <ele>382</ele>
        <time>2021-04-04T09:36:49.027Z</time>
      </trkpt>
      <trkpt lat="45.63276" lon="5.34352">
        <ele>382</ele>
        <time>2021-04-04T09:36:50.028Z</time>
      </trkpt>
      <trkpt lat="45.63276" lon="5.34345">
        <ele>382</ele>
        <time>2021-04-04T09:36:51.028Z</time>
      </trkpt>
      <trkpt lat="45.63276" lon="5.3434">
        <ele>382</ele>
        <time>2021-04-04T09:36:52.028Z</time>
      </trkpt>
      <trkpt lat="45.63276" lon="5.34333">
        <ele>382</ele>
        <time>2021-04-04T09:36:53.028Z</time>
      </trkpt>
      <trkpt lat="45.63275" lon="5.34326">
        <ele>382</ele>
        <time>2021-04-04T09:36:54.028Z</time>
      </trkpt>
      <trkpt lat="45.63275" lon="5.34318">
        <ele>382</ele>
        <time>2021-04-04T09:36:55.028Z</time>
      </trkpt>
      <trkpt lat="45.63274" lon="5.34311">
        <ele>382</ele>
        <time>2021-04-04T09:36:56.028Z</time>
      </trkpt>
      <trkpt lat="45.63274" lon="5.34304">
        <ele>382</ele>
        <time>2021-04-04T09:36:57.028Z</time>
      </trkpt>
      <trkpt lat="45.63274" lon="5.34297">
        <ele>382</ele>
        <time>2021-04-04T09:36:58.027Z</time>
      </trkpt>
      <trkpt lat="45.63274" lon="5.34291">
        <ele>382</ele>
        <time>2021-04-04T09:36:59.028Z</time>
      </trkpt>
      <trkpt lat="45.63273" lon="5.34283">
        <ele>382</ele>
        <time>2021-04-04T09:37:00.027Z</time>
      </trkpt>
      <trkpt lat="45.63273" lon="5.34276">
        <ele>382</ele>
        <time>2021-04-04T09:37:01.028Z</time>
      </trkpt>
      <trkpt lat="45.63272" lon="5.34271">
        <ele>383</ele>
        <time>2021-04-04T09:37:02.027Z</time>
      </trkpt>
      <trkpt lat="45.63271" lon="5.34263">
        <ele>383</ele>
        <time>2021-04-04T09:37:03.028Z</time>
      </trkpt>
      <trkpt lat="45.6327" lon="5.34257">
        <ele>384</ele>
        <time>2021-04-04T09:37:04.028Z</time>
      </trkpt>
      <trkpt lat="45.6327" lon="5.34249">
        <ele>384</ele>
        <time>2021-04-04T09:37:05.028Z</time>
      </trkpt>
      <trkpt lat="45.63269" lon="5.34242">
        <ele>384</ele>
        <time>2021-04-04T09:37:06.028Z</time>
      </trkpt>
      <trkpt lat="45.63269" lon="5.34236">
        <ele>384</ele>
        <time>2021-04-04T09:37:07.028Z</time>
      </trkpt>
      <trkpt lat="45.63268" lon="5.34229">
        <ele>384</ele>
        <time>2021-04-04T09:37:08.028Z</time>
      </trkpt>
      <trkpt lat="45.63268" lon="5.34222">
        <ele>384</ele>
        <time>2021-04-04T09:37:09.027Z</time>
      </trkpt>
      <trkpt lat="45.63267" lon="5.34215">
        <ele>383</ele>
        <time>2021-04-04T09:37:10.028Z</time>
      </trkpt>
      <trkpt lat="45.63266" lon="5.34208">
        <ele>383</ele>
        <time>2021-04-04T09:37:11.027Z</time>
      </trkpt>
      <trkpt lat="45.63266" lon="5.34202">
        <ele>383</ele>
        <time>2021-04-04T09:37:12.028Z</time>
      </trkpt>
      <trkpt lat="45.63265" lon="5.34195">
        <ele>383</ele>
        <time>2021-04-04T09:37:13.028Z</time>
      </trkpt>
      <trkpt lat="45.63265" lon="5.34189">
        <ele>383</ele>
        <time>2021-04-04T09:37:14.028Z</time>
      </trkpt>
      <trkpt lat="45.63264" lon="5.34183">
        <ele>383</ele>
        <time>2021-04-04T09:37:15.027Z</time>
      </trkpt>
      <trkpt lat="45.63265" lon="5.34178">
        <ele>383</ele>
        <time>2021-04-04T09:37:16.028Z</time>
      </trkpt>
      <trkpt lat="45.63265" lon="5.34175">
        <ele>384</ele>
        <time>2021-04-04T09:37:17.028Z</time>
      </trkpt>
      <trkpt lat="45.63266" lon="5.34171">
        <ele>384</ele>
        <time>2021-04-04T09:37:18.028Z</time>
      </trkpt>
      <trkpt lat="45.63267" lon="5.34168">
        <ele>384</ele>
        <time>2021-04-04T09:37:19.027Z</time>
      </trkpt>
      <trkpt lat="45.63268" lon="5.34165">
        <ele>384</ele>
        <time>2021-04-04T09:37:20.028Z</time>
      </trkpt>
      <trkpt lat="45.63269" lon="5.34164">
        <ele>384</ele>
        <time>2021-04-04T09:37:21.028Z</time>
      </trkpt>
      <trkpt lat="45.6327" lon="5.34163">
        <ele>384</ele>
        <time>2021-04-04T09:37:22.028Z</time>
      </trkpt>
      <trkpt lat="45.63271" lon="5.34163">
        <ele>383</ele>
        <time>2021-04-04T09:37:23.027Z</time>
      </trkpt>
      <trkpt lat="45.63274" lon="5.34164">
        <ele>384</ele>
        <time>2021-04-04T09:37:24.028Z</time>
      </trkpt>
      <trkpt lat="45.63277" lon="5.34165">
        <ele>384</ele>
        <time>2021-04-04T09:37:25.027Z</time>
      </trkpt>
      <trkpt lat="45.6328" lon="5.34166">
        <ele>384</ele>
        <time>2021-04-04T09:37:26.028Z</time>
      </trkpt>
      <trkpt lat="45.63284" lon="5.34167">
        <ele>384</ele>
        <time>2021-04-04T09:37:27.028Z</time>
      </trkpt>
      <trkpt lat="45.63287" lon="5.34168">
        <ele>384</ele>
        <time>2021-04-04T09:37:28.028Z</time>
      </trkpt>
      <trkpt lat="45.63292" lon="5.34169">
        <ele>383</ele>
        <time>2021-04-04T09:37:29.028Z</time>
      </trkpt>
      <trkpt lat="45.63298" lon="5.34169">
        <ele>383</ele>
        <time>2021-04-04T09:37:30.028Z</time>
      </trkpt>
      <trkpt lat="45.63304" lon="5.3417">
        <ele>383</ele>
        <time>2021-04-04T09:37:31.028Z</time>
      </trkpt>
      <trkpt lat="45.6331" lon="5.34171">
        <ele>383</ele>
        <time>2021-04-04T09:37:32.028Z</time>
      </trkpt>
      <trkpt lat="45.63316" lon="5.34172">
        <ele>383</ele>
        <time>2021-04-04T09:37:33.027Z</time>
      </trkpt>
      <trkpt lat="45.63324" lon="5.34172">
        <ele>383</ele>
        <time>2021-04-04T09:37:34.028Z</time>
      </trkpt>
      <trkpt lat="45.63332" lon="5.34173">
        <ele>383</ele>
        <time>2021-04-04T09:37:35.028Z</time>
      </trkpt>
      <trkpt lat="45.6334" lon="5.34174">
        <ele>382</ele>
        <time>2021-04-04T09:37:36.028Z</time>
      </trkpt>
      <trkpt lat="45.63348" lon="5.34176">
        <ele>382</ele>
        <time>2021-04-04T09:37:37.027Z</time>
      </trkpt>
      <trkpt lat="45.63356" lon="5.34177">
        <ele>381</ele>
        <time>2021-04-04T09:37:38.028Z</time>
      </trkpt>
      <trkpt lat="45.63367" lon="5.34178">
        <ele>381</ele>
        <time>2021-04-04T09:37:39.028Z</time>
      </trkpt>
      <trkpt lat="45.63376" lon="5.3418">
        <ele>380</ele>
        <time>2021-04-04T09:37:40.027Z</time>
      </trkpt>
      <trkpt lat="45.63386" lon="5.34181">
        <ele>380</ele>
        <time>2021-04-04T09:37:41.027Z</time>
      </trkpt>
      <trkpt lat="45.63395" lon="5.34183">
        <ele>379</ele>
        <time>2021-04-04T09:37:42.027Z</time>
      </trkpt>
      <trkpt lat="45.63405" lon="5.34184">
        <ele>378</ele>
        <time>2021-04-04T09:37:43.028Z</time>
      </trkpt>
      <trkpt lat="45.63414" lon="5.34186">
        <ele>378</ele>
        <time>2021-04-04T09:37:44.028Z</time>
      </trkpt>
      <trkpt lat="45.63424" lon="5.34187">
        <ele>377</ele>
        <time>2021-04-04T09:37:45.028Z</time>
      </trkpt>
      <trkpt lat="45.63431" lon="5.34188">
        <ele>376</ele>
        <time>2021-04-04T09:37:46.027Z</time>
      </trkpt>
      <trkpt lat="45.63441" lon="5.34189">
        <ele>376</ele>
        <time>2021-04-04T09:37:47.028Z</time>
      </trkpt>
      <trkpt lat="45.63448" lon="5.3419">
        <ele>375</ele>
        <time>2021-04-04T09:37:48.027Z</time>
      </trkpt>
      <trkpt lat="45.63456" lon="5.34191">
        <ele>374</ele>
        <time>2021-04-04T09:37:49.027Z</time>
      </trkpt>
      <trkpt lat="45.63464" lon="5.34192">
        <ele>374</ele>
        <time>2021-04-04T09:37:50.028Z</time>
      </trkpt>
      <trkpt lat="45.63471" lon="5.34193">
        <ele>373</ele>
        <time>2021-04-04T09:37:51.028Z</time>
      </trkpt>
      <trkpt lat="45.63477" lon="5.34194">
        <ele>372</ele>
        <time>2021-04-04T09:37:52.027Z</time>
      </trkpt>
      <trkpt lat="45.63483" lon="5.34196">
        <ele>372</ele>
        <time>2021-04-04T09:37:53.027Z</time>
      </trkpt>
      <trkpt lat="45.63491" lon="5.34198">
        <ele>371</ele>
        <time>2021-04-04T09:37:54.028Z</time>
      </trkpt>
      <trkpt lat="45.63497" lon="5.34201">
        <ele>371</ele>
        <time>2021-04-04T09:37:55.027Z</time>
      </trkpt>
      <trkpt lat="45.63503" lon="5.34203">
        <ele>370</ele>
        <time>2021-04-04T09:37:56.028Z</time>
      </trkpt>
      <trkpt lat="45.6351" lon="5.34206">
        <ele>369</ele>
        <time>2021-04-04T09:37:57.028Z</time>
      </trkpt>
      <trkpt lat="45.63516" lon="5.34208">
        <ele>369</ele>
        <time>2021-04-04T09:37:58.027Z</time>
      </trkpt>
      <trkpt lat="45.63525" lon="5.34211">
        <ele>369</ele>
        <time>2021-04-04T09:37:59.028Z</time>
      </trkpt>
      <trkpt lat="45.63533" lon="5.34214">
        <ele>368</ele>
        <time>2021-04-04T09:38:00.027Z</time>
      </trkpt>
      <trkpt lat="45.63541" lon="5.34217">
        <ele>368</ele>
        <time>2021-04-04T09:38:01.027Z</time>
      </trkpt>
      <trkpt lat="45.63549" lon="5.34221">
        <ele>367</ele>
        <time>2021-04-04T09:38:02.028Z</time>
      </trkpt>
      <trkpt lat="45.63556" lon="5.34225">
        <ele>367</ele>
        <time>2021-04-04T09:38:03.027Z</time>
      </trkpt>
      <trkpt lat="45.63564" lon="5.34229">
        <ele>366</ele>
        <time>2021-04-04T09:38:04.028Z</time>
      </trkpt>
      <trkpt lat="45.63572" lon="5.34233">
        <ele>366</ele>
        <time>2021-04-04T09:38:05.027Z</time>
      </trkpt>
      <trkpt lat="45.63578" lon="5.34237">
        <ele>365</ele>
        <time>2021-04-04T09:38:06.028Z</time>
      </trkpt>
      <trkpt lat="45.63588" lon="5.34242">
        <ele>364</ele>
        <time>2021-04-04T09:38:07.027Z</time>
      </trkpt>
      <trkpt lat="45.63596" lon="5.34246">
        <ele>364</ele>
        <time>2021-04-04T09:38:08.028Z</time>
      </trkpt>
      <trkpt lat="45.63603" lon="5.3425">
        <ele>363</ele>
        <time>2021-04-04T09:38:09.027Z</time>
      </trkpt>
      <trkpt lat="45.63611" lon="5.34254">
        <ele>362</ele>
        <time>2021-04-04T09:38:10.028Z</time>
      </trkpt>
      <trkpt lat="45.63619" lon="5.34258">
        <ele>361</ele>
        <time>2021-04-04T09:38:11.027Z</time>
      </trkpt>
      <trkpt lat="45.63628" lon="5.34262">
        <ele>361</ele>
        <time>2021-04-04T09:38:12.028Z</time>
      </trkpt>
      <trkpt lat="45.63636" lon="5.34267">
        <ele>360</ele>
        <time>2021-04-04T09:38:13.028Z</time>
      </trkpt>
      <trkpt lat="45.63643" lon="5.34271">
        <ele>359</ele>
        <time>2021-04-04T09:38:14.028Z</time>
      </trkpt>
      <trkpt lat="45.6365" lon="5.34276">
        <ele>359</ele>
        <time>2021-04-04T09:38:15.028Z</time>
      </trkpt>
      <trkpt lat="45.63656" lon="5.3428">
        <ele>358</ele>
        <time>2021-04-04T09:38:16.028Z</time>
      </trkpt>
      <trkpt lat="45.6366" lon="5.34285">
        <ele>358</ele>
        <time>2021-04-04T09:38:17.027Z</time>
      </trkpt>
      <trkpt lat="45.63663" lon="5.34289">
        <ele>357</ele>
        <time>2021-04-04T09:38:18.028Z</time>
      </trkpt>
      <trkpt lat="45.63666" lon="5.34292">
        <ele>356</ele>
        <time>2021-04-04T09:38:19.027Z</time>
      </trkpt>
      <trkpt lat="45.63668" lon="5.34294">
        <ele>356</ele>
        <time>2021-04-04T09:38:20.028Z</time>
      </trkpt>
      <trkpt lat="45.63669" lon="5.34295">
        <ele>355</ele>
        <time>2021-04-04T09:38:21.027Z</time>
      </trkpt>
      <trkpt lat="45.63671" lon="5.34295">
        <ele>355</ele>
        <time>2021-04-04T09:38:22.027Z</time>
      </trkpt>
      <trkpt lat="45.63672" lon="5.34294">
        <ele>354</ele>
        <time>2021-04-04T09:38:23.028Z</time>
      </trkpt>
      <trkpt lat="45.63673" lon="5.34293">
        <ele>354</ele>
        <time>2021-04-04T09:38:24.027Z</time>
      </trkpt>
      <trkpt lat="45.63675" lon="5.34289">
        <ele>353</ele>
        <time>2021-04-04T09:38:25.027Z</time>
      </trkpt>
      <trkpt lat="45.63677" lon="5.34285">
        <ele>352</ele>
        <time>2021-04-04T09:38:26.027Z</time>
      </trkpt>
      <trkpt lat="45.6368" lon="5.34279">
        <ele>351</ele>
        <time>2021-04-04T09:38:27.027Z</time>
      </trkpt>
      <trkpt lat="45.63683" lon="5.34274">
        <ele>351</ele>
        <time>2021-04-04T09:38:28.027Z</time>
      </trkpt>
      <trkpt lat="45.63686" lon="5.34268">
        <ele>350</ele>
        <time>2021-04-04T09:38:29.028Z</time>
      </trkpt>
      <trkpt lat="45.63687" lon="5.34261">
        <ele>350</ele>
        <time>2021-04-04T09:38:30.027Z</time>
      </trkpt>
      <trkpt lat="45.63688" lon="5.34253">
        <ele>350</ele>
        <time>2021-04-04T09:38:31.027Z</time>
      </trkpt>
      <trkpt lat="45.63689" lon="5.34246">
        <ele>349</ele>
        <time>2021-04-04T09:38:32.028Z</time>
      </trkpt>
      <trkpt lat="45.6369" lon="5.34238">
        <ele>349</ele>
        <time>2021-04-04T09:38:33.027Z</time>
      </trkpt>
      <trkpt lat="45.63692" lon="5.34232">
        <ele>348</ele>
        <time>2021-04-04T09:38:34.027Z</time>
      </trkpt>
      <trkpt lat="45.63695" lon="5.34226">
        <ele>348</ele>
        <time>2021-04-04T09:38:35.028Z</time>
      </trkpt>
      <trkpt lat="45.63699" lon="5.34222">
        <ele>347</ele>
        <time>2021-04-04T09:38:36.027Z</time>
      </trkpt>
      <trkpt lat="45.63704" lon="5.34219">
        <ele>347</ele>
        <time>2021-04-04T09:38:37.027Z</time>
      </trkpt>
      <trkpt lat="45.63709" lon="5.34218">
        <ele>347</ele>
        <time>2021-04-04T09:38:38.028Z</time>
      </trkpt>
      <trkpt lat="45.63714" lon="5.34218">
        <ele>346</ele>
        <time>2021-04-04T09:38:39.028Z</time>
      </trkpt>
      <trkpt lat="45.63719" lon="5.34218">
        <ele>346</ele>
        <time>2021-04-04T09:38:40.028Z</time>
      </trkpt>
      <trkpt lat="45.63725" lon="5.34219">
        <ele>346</ele>
        <time>2021-04-04T09:38:41.028Z</time>
      </trkpt>
      <trkpt lat="45.63731" lon="5.34218">
        <ele>345</ele>
        <time>2021-04-04T09:38:42.028Z</time>
      </trkpt>
      <trkpt lat="45.63737" lon="5.34218">
        <ele>345</ele>
        <time>2021-04-04T09:38:43.028Z</time>
      </trkpt>
      <trkpt lat="45.63745" lon="5.34217">
        <ele>345</ele>
        <time>2021-04-04T09:38:44.028Z</time>
      </trkpt>
      <trkpt lat="45.63752" lon="5.34216">
        <ele>344</ele>
        <time>2021-04-04T09:38:45.028Z</time>
      </trkpt>
      <trkpt lat="45.6376" lon="5.34214">
        <ele>344</ele>
        <time>2021-04-04T09:38:46.027Z</time>
      </trkpt>
      <trkpt lat="45.63768" lon="5.34211">
        <ele>343</ele>
        <time>2021-04-04T09:38:47.028Z</time>
      </trkpt>
      <trkpt lat="45.63777" lon="5.34208">
        <ele>342</ele>
        <time>2021-04-04T09:38:48.027Z</time>
      </trkpt>
      <trkpt lat="45.63785" lon="5.34204">
        <ele>341</ele>
        <time>2021-04-04T09:38:49.027Z</time>
      </trkpt>
      <trkpt lat="45.63794" lon="5.342">
        <ele>341</ele>
        <time>2021-04-04T09:38:50.027Z</time>
      </trkpt>
      <trkpt lat="45.63802" lon="5.34196">
        <ele>340</ele>
        <time>2021-04-04T09:38:51.028Z</time>
      </trkpt>
      <trkpt lat="45.63811" lon="5.34193">
        <ele>339</ele>
        <time>2021-04-04T09:38:52.028Z</time>
      </trkpt>
      <trkpt lat="45.63819" lon="5.34188">
        <ele>338</ele>
        <time>2021-04-04T09:38:53.027Z</time>
      </trkpt>
      <trkpt lat="45.63826" lon="5.34183">
        <ele>338</ele>
        <time>2021-04-04T09:38:54.027Z</time>
      </trkpt>
      <trkpt lat="45.63834" lon="5.34176">
        <ele>337</ele>
        <time>2021-04-04T09:38:55.028Z</time>
      </trkpt>
      <trkpt lat="45.6384" lon="5.34167">
        <ele>336</ele>
        <time>2021-04-04T09:38:56.027Z</time>
      </trkpt>
      <trkpt lat="45.63845" lon="5.34157">
        <ele>336</ele>
        <time>2021-04-04T09:38:57.028Z</time>
      </trkpt>
      <trkpt lat="45.63849" lon="5.34145">
        <ele>335</ele>
        <time>2021-04-04T09:38:58.027Z</time>
      </trkpt>
      <trkpt lat="45.63853" lon="5.34132">
        <ele>335</ele>
        <time>2021-04-04T09:38:59.028Z</time>
      </trkpt>
      <trkpt lat="45.63855" lon="5.34119">
        <ele>334</ele>
        <time>2021-04-04T09:39:00.028Z</time>
      </trkpt>
      <trkpt lat="45.63856" lon="5.34105">
        <ele>333</ele>
        <time>2021-04-04T09:39:01.028Z</time>
      </trkpt>
      <trkpt lat="45.63857" lon="5.34092">
        <ele>333</ele>
        <time>2021-04-04T09:39:02.027Z</time>
      </trkpt>
      <trkpt lat="45.63857" lon="5.34078">
        <ele>332</ele>
        <time>2021-04-04T09:39:03.028Z</time>
      </trkpt>
      <trkpt lat="45.63856" lon="5.34065">
        <ele>332</ele>
        <time>2021-04-04T09:39:04.028Z</time>
      </trkpt>
      <trkpt lat="45.63855" lon="5.34051">
        <ele>332</ele>
        <time>2021-04-04T09:39:05.028Z</time>
      </trkpt>
      <trkpt lat="45.63854" lon="5.34038">
        <ele>332</ele>
        <time>2021-04-04T09:39:06.028Z</time>
      </trkpt>
      <trkpt lat="45.63853" lon="5.34024">
        <ele>332</ele>
        <time>2021-04-04T09:39:07.028Z</time>
      </trkpt>
      <trkpt lat="45.63853" lon="5.34011">
        <ele>332</ele>
        <time>2021-04-04T09:39:08.028Z</time>
      </trkpt>
      <trkpt lat="45.63854" lon="5.34">
        <ele>332</ele>
        <time>2021-04-04T09:39:09.028Z</time>
      </trkpt>
      <trkpt lat="45.63855" lon="5.3399">
        <ele>332</ele>
        <time>2021-04-04T09:39:10.028Z</time>
      </trkpt>
      <trkpt lat="45.63857" lon="5.33982">
        <ele>331</ele>
        <time>2021-04-04T09:39:11.027Z</time>
      </trkpt>
      <trkpt lat="45.63861" lon="5.33977">
        <ele>331</ele>
        <time>2021-04-04T09:39:12.028Z</time>
      </trkpt>
      <trkpt lat="45.63865" lon="5.33974">
        <ele>330</ele>
        <time>2021-04-04T09:39:13.028Z</time>
      </trkpt>
      <trkpt lat="45.63867" lon="5.33976">
        <ele>330</ele>
        <time>2021-04-04T09:39:14.028Z</time>
      </trkpt>
      <trkpt lat="45.63869" lon="5.33978">
        <ele>330</ele>
        <time>2021-04-04T09:39:15.028Z</time>
      </trkpt>
      <trkpt lat="45.63868" lon="5.33984">
        <ele>329</ele>
        <time>2021-04-04T09:39:16.028Z</time>
      </trkpt>
      <trkpt lat="45.63865" lon="5.33992">
        <ele>329</ele>
        <time>2021-04-04T09:39:17.027Z</time>
      </trkpt>
      <trkpt lat="45.63863" lon="5.34">
        <ele>329</ele>
        <time>2021-04-04T09:39:18.028Z</time>
      </trkpt>
      <trkpt lat="45.63861" lon="5.34008">
        <ele>329</ele>
        <time>2021-04-04T09:39:19.027Z</time>
      </trkpt>
      <trkpt lat="45.6386" lon="5.34017">
        <ele>329</ele>
        <time>2021-04-04T09:39:20.027Z</time>
      </trkpt>
      <trkpt lat="45.63859" lon="5.34026">
        <ele>329</ele>
        <time>2021-04-04T09:39:21.028Z</time>
      </trkpt>
      <trkpt lat="45.6386" lon="5.34035">
        <ele>329</ele>
        <time>2021-04-04T09:39:22.028Z</time>
      </trkpt>
      <trkpt lat="45.6386" lon="5.34046">
        <ele>329</ele>
        <time>2021-04-04T09:39:23.027Z</time>
      </trkpt>
      <trkpt lat="45.63862" lon="5.34057">
        <ele>329</ele>
        <time>2021-04-04T09:39:24.028Z</time>
      </trkpt>
      <trkpt lat="45.63865" lon="5.34068">
        <ele>329</ele>
        <time>2021-04-04T09:39:25.028Z</time>
      </trkpt>
      <trkpt lat="45.63868" lon="5.34079">
        <ele>329</ele>
        <time>2021-04-04T09:39:26.028Z</time>
      </trkpt>
      <trkpt lat="45.63872" lon="5.3409">
        <ele>329</ele>
        <time>2021-04-04T09:39:27.028Z</time>
      </trkpt>
      <trkpt lat="45.63877" lon="5.34102">
        <ele>329</ele>
        <time>2021-04-04T09:39:28.028Z</time>
      </trkpt>
      <trkpt lat="45.63882" lon="5.34112">
        <ele>329</ele>
        <time>2021-04-04T09:39:29.027Z</time>
      </trkpt>
      <trkpt lat="45.63888" lon="5.34121">
        <ele>329</ele>
        <time>2021-04-04T09:39:30.028Z</time>
      </trkpt>
      <trkpt lat="45.63896" lon="5.34128">
        <ele>329</ele>
        <time>2021-04-04T09:39:31.028Z</time>
      </trkpt>
      <trkpt lat="45.63903" lon="5.34133">
        <ele>329</ele>
        <time>2021-04-04T09:39:32.028Z</time>
      </trkpt>
      <trkpt lat="45.6391" lon="5.34137">
        <ele>329</ele>
        <time>2021-04-04T09:39:33.028Z</time>
      </trkpt>
      <trkpt lat="45.63917" lon="5.34142">
        <ele>329</ele>
        <time>2021-04-04T09:39:34.028Z</time>
      </trkpt>
      <trkpt lat="45.63923" lon="5.34149">
        <ele>329</ele>
        <time>2021-04-04T09:39:35.028Z</time>
      </trkpt>
      <trkpt lat="45.63929" lon="5.34156">
        <ele>329</ele>
        <time>2021-04-04T09:39:36.028Z</time>
      </trkpt>
      <trkpt lat="45.63932" lon="5.34165">
        <ele>329</ele>
        <time>2021-04-04T09:39:37.027Z</time>
      </trkpt>
      <trkpt lat="45.63933" lon="5.34174">
        <ele>328</ele>
        <time>2021-04-04T09:39:38.027Z</time>
      </trkpt>
      <trkpt lat="45.63933" lon="5.34184">
        <ele>328</ele>
        <time>2021-04-04T09:39:39.027Z</time>
      </trkpt>
      <trkpt lat="45.63932" lon="5.34194">
        <ele>328</ele>
        <time>2021-04-04T09:39:40.028Z</time>
      </trkpt>
      <trkpt lat="45.63929" lon="5.34202">
        <ele>328</ele>
        <time>2021-04-04T09:39:41.028Z</time>
      </trkpt>
      <trkpt lat="45.63926" lon="5.3421">
        <ele>328</ele>
        <time>2021-04-04T09:39:42.027Z</time>
      </trkpt>
      <trkpt lat="45.63922" lon="5.34218">
        <ele>328</ele>
        <time>2021-04-04T09:39:43.027Z</time>
      </trkpt>
      <trkpt lat="45.63918" lon="5.34224">
        <ele>327</ele>
        <time>2021-04-04T09:39:44.028Z</time>
      </trkpt>
      <trkpt lat="45.63912" lon="5.3423">
        <ele>327</ele>
        <time>2021-04-04T09:39:45.028Z</time>
      </trkpt>
      <trkpt lat="45.63906" lon="5.34236">
        <ele>327</ele>
        <time>2021-04-04T09:39:46.028Z</time>
      </trkpt>
      <trkpt lat="45.639" lon="5.34243">
        <ele>326</ele>
        <time>2021-04-04T09:39:47.028Z</time>
      </trkpt>
      <trkpt lat="45.63895" lon="5.34249">
        <ele>326</ele>
        <time>2021-04-04T09:39:48.028Z</time>
      </trkpt>
      <trkpt lat="45.63893" lon="5.34255">
        <ele>326</ele>
        <time>2021-04-04T09:39:49.027Z</time>
      </trkpt>
      <trkpt lat="45.63893" lon="5.34259">
        <ele>325</ele>
        <time>2021-04-04T09:39:50.027Z</time>
      </trkpt>
      <trkpt lat="45.63895" lon="5.34263">
        <ele>324</ele>
        <time>2021-04-04T09:39:51.028Z</time>
      </trkpt>
      <trkpt lat="45.63898" lon="5.34266">
        <ele>324</ele>
        <time>2021-04-04T09:39:52.027Z</time>
      </trkpt>
      <trkpt lat="45.63901" lon="5.34266">
        <ele>323</ele>
        <time>2021-04-04T09:39:53.027Z</time>
      </trkpt>
      <trkpt lat="45.63904" lon="5.34264">
        <ele>322</ele>
        <time>2021-04-04T09:39:54.027Z</time>
      </trkpt>
      <trkpt lat="45.63907" lon="5.3426">
        <ele>322</ele>
        <time>2021-04-04T09:39:55.027Z</time>
      </trkpt>
      <trkpt lat="45.63911" lon="5.34255">
        <ele>321</ele>
        <time>2021-04-04T09:39:56.027Z</time>
      </trkpt>
      <trkpt lat="45.63914" lon="5.3425">
        <ele>320</ele>
        <time>2021-04-04T09:39:57.027Z</time>
      </trkpt>
      <trkpt lat="45.63919" lon="5.34244">
        <ele>319</ele>
        <time>2021-04-04T09:39:58.027Z</time>
      </trkpt>
      <trkpt lat="45.63924" lon="5.34237">
        <ele>318</ele>
        <time>2021-04-04T09:39:59.027Z</time>
      </trkpt>
      <trkpt lat="45.63929" lon="5.3423">
        <ele>317</ele>
        <time>2021-04-04T09:40:00.027Z</time>
      </trkpt>
      <trkpt lat="45.63934" lon="5.34222">
        <ele>316</ele>
        <time>2021-04-04T09:40:01.028Z</time>
      </trkpt>
      <trkpt lat="45.6394" lon="5.34213">
        <ele>315</ele>
        <time>2021-04-04T09:40:02.028Z</time>
      </trkpt>
      <trkpt lat="45.63946" lon="5.34204">
        <ele>315</ele>
        <time>2021-04-04T09:40:03.027Z</time>
      </trkpt>
      <trkpt lat="45.63952" lon="5.34196">
        <ele>314</ele>
        <time>2021-04-04T09:40:04.027Z</time>
      </trkpt>
      <trkpt lat="45.63957" lon="5.34187">
        <ele>313</ele>
        <time>2021-04-04T09:40:05.027Z</time>
      </trkpt>
      <trkpt lat="45.63962" lon="5.34177">
        <ele>312</ele>
        <time>2021-04-04T09:40:06.028Z</time>
      </trkpt>
      <trkpt lat="45.63964" lon="5.34167">
        <ele>312</ele>
        <time>2021-04-04T09:40:07.028Z</time>
      </trkpt>
      <trkpt lat="45.63965" lon="5.34157">
        <ele>311</ele>
        <time>2021-04-04T09:40:08.027Z</time>
      </trkpt>
      <trkpt lat="45.63963" lon="5.34147">
        <ele>310</ele>
        <time>2021-04-04T09:40:09.027Z</time>
      </trkpt>
      <trkpt lat="45.63959" lon="5.34137">
        <ele>309</ele>
        <time>2021-04-04T09:40:10.027Z</time>
      </trkpt>
      <trkpt lat="45.63955" lon="5.34127">
        <ele>309</ele>
        <time>2021-04-04T09:40:11.028Z</time>
      </trkpt>
      <trkpt lat="45.63951" lon="5.34118">
        <ele>308</ele>
        <time>2021-04-04T09:40:12.028Z</time>
      </trkpt>
      <trkpt lat="45.63947" lon="5.34109">
        <ele>307</ele>
        <time>2021-04-04T09:40:13.028Z</time>
      </trkpt>
      <trkpt lat="45.63942" lon="5.34099">
        <ele>306</ele>
        <time>2021-04-04T09:40:14.028Z</time>
      </trkpt>
      <trkpt lat="45.63938" lon="5.34088">
        <ele>305</ele>
        <time>2021-04-04T09:40:15.028Z</time>
      </trkpt>
      <trkpt lat="45.63936" lon="5.34077">
        <ele>305</ele>
        <time>2021-04-04T09:40:16.027Z</time>
      </trkpt>
      <trkpt lat="45.63936" lon="5.34066">
        <ele>304</ele>
        <time>2021-04-04T09:40:17.027Z</time>
      </trkpt>
      <trkpt lat="45.63939" lon="5.34055">
        <ele>304</ele>
        <time>2021-04-04T09:40:18.028Z</time>
      </trkpt>
      <trkpt lat="45.63944" lon="5.34045">
        <ele>303</ele>
        <time>2021-04-04T09:40:19.027Z</time>
      </trkpt>
      <trkpt lat="45.63951" lon="5.34036">
        <ele>302</ele>
        <time>2021-04-04T09:40:20.027Z</time>
      </trkpt>
      <trkpt lat="45.63958" lon="5.34027">
        <ele>302</ele>
        <time>2021-04-04T09:40:21.028Z</time>
      </trkpt>
      <trkpt lat="45.63966" lon="5.34018">
        <ele>301</ele>
        <time>2021-04-04T09:40:22.028Z</time>
      </trkpt>
      <trkpt lat="45.63974" lon="5.3401">
        <ele>300</ele>
        <time>2021-04-04T09:40:23.027Z</time>
      </trkpt>
      <trkpt lat="45.63981" lon="5.34001">
        <ele>300</ele>
        <time>2021-04-04T09:40:24.027Z</time>
      </trkpt>
      <trkpt lat="45.63988" lon="5.33992">
        <ele>299</ele>
        <time>2021-04-04T09:40:25.027Z</time>
      </trkpt>
      <trkpt lat="45.63995" lon="5.33982">
        <ele>298</ele>
        <time>2021-04-04T09:40:26.027Z</time>
      </trkpt>
      <trkpt lat="45.64001" lon="5.33971">
        <ele>297</ele>
        <time>2021-04-04T09:40:27.028Z</time>
      </trkpt>
      <trkpt lat="45.64005" lon="5.33961">
        <ele>296</ele>
        <time>2021-04-04T09:40:28.028Z</time>
      </trkpt>
      <trkpt lat="45.64009" lon="5.3395">
        <ele>295</ele>
        <time>2021-04-04T09:40:29.027Z</time>
      </trkpt>
      <trkpt lat="45.64012" lon="5.33938">
        <ele>295</ele>
        <time>2021-04-04T09:40:30.028Z</time>
      </trkpt>
      <trkpt lat="45.64014" lon="5.33926">
        <ele>294</ele>
        <time>2021-04-04T09:40:31.027Z</time>
      </trkpt>
      <trkpt lat="45.64014" lon="5.33914">
        <ele>294</ele>
        <time>2021-04-04T09:40:32.028Z</time>
      </trkpt>
      <trkpt lat="45.64013" lon="5.33902">
        <ele>293</ele>
        <time>2021-04-04T09:40:33.028Z</time>
      </trkpt>
      <trkpt lat="45.64011" lon="5.33891">
        <ele>292</ele>
        <time>2021-04-04T09:40:34.027Z</time>
      </trkpt>
      <trkpt lat="45.64013" lon="5.33881">
        <ele>291</ele>
        <time>2021-04-04T09:40:35.028Z</time>
      </trkpt>
      <trkpt lat="45.64016" lon="5.33874">
        <ele>290</ele>
        <time>2021-04-04T09:40:36.028Z</time>
      </trkpt>
      <trkpt lat="45.64019" lon="5.33868">
        <ele>289</ele>
        <time>2021-04-04T09:40:37.028Z</time>
      </trkpt>
      <trkpt lat="45.64023" lon="5.33866">
        <ele>287</ele>
        <time>2021-04-04T09:40:38.027Z</time>
      </trkpt>
      <trkpt lat="45.64026" lon="5.33867">
        <ele>286</ele>
        <time>2021-04-04T09:40:39.027Z</time>
      </trkpt>
      <trkpt lat="45.64028" lon="5.33873">
        <ele>285</ele>
        <time>2021-04-04T09:40:40.028Z</time>
      </trkpt>
      <trkpt lat="45.64029" lon="5.33879">
        <ele>285</ele>
        <time>2021-04-04T09:40:41.028Z</time>
      </trkpt>
      <trkpt lat="45.64029" lon="5.33887">
        <ele>284</ele>
        <time>2021-04-04T09:40:42.027Z</time>
      </trkpt>
      <trkpt lat="45.64028" lon="5.33896">
        <ele>283</ele>
        <time>2021-04-04T09:40:43.028Z</time>
      </trkpt>
      <trkpt lat="45.64027" lon="5.33905">
        <ele>283</ele>
        <time>2021-04-04T09:40:44.028Z</time>
      </trkpt>
      <trkpt lat="45.64026" lon="5.33916">
        <ele>282</ele>
        <time>2021-04-04T09:40:45.027Z</time>
      </trkpt>
      <trkpt lat="45.64026" lon="5.33926">
        <ele>282</ele>
        <time>2021-04-04T09:40:46.028Z</time>
      </trkpt>
      <trkpt lat="45.64027" lon="5.33937">
        <ele>281</ele>
        <time>2021-04-04T09:40:47.027Z</time>
      </trkpt>
      <trkpt lat="45.64028" lon="5.33948">
        <ele>281</ele>
        <time>2021-04-04T09:40:48.027Z</time>
      </trkpt>
      <trkpt lat="45.6403" lon="5.3396">
        <ele>281</ele>
        <time>2021-04-04T09:40:49.027Z</time>
      </trkpt>
      <trkpt lat="45.64031" lon="5.33973">
        <ele>281</ele>
        <time>2021-04-04T09:40:50.027Z</time>
      </trkpt>
      <trkpt lat="45.64032" lon="5.33985">
        <ele>281</ele>
        <time>2021-04-04T09:40:51.027Z</time>
      </trkpt>
      <trkpt lat="45.64033" lon="5.33997">
        <ele>280</ele>
        <time>2021-04-04T09:40:52.027Z</time>
      </trkpt>
      <trkpt lat="45.64034" lon="5.34011">
        <ele>280</ele>
        <time>2021-04-04T09:40:53.028Z</time>
      </trkpt>
      <trkpt lat="45.64036" lon="5.34025">
        <ele>280</ele>
        <time>2021-04-04T09:40:54.027Z</time>
      </trkpt>
      <trkpt lat="45.64039" lon="5.3404">
        <ele>280</ele>
        <time>2021-04-04T09:40:55.027Z</time>
      </trkpt>
      <trkpt lat="45.64043" lon="5.34054">
        <ele>280</ele>
        <time>2021-04-04T09:40:56.028Z</time>
      </trkpt>
      <trkpt lat="45.64049" lon="5.34068">
        <ele>280</ele>
        <time>2021-04-04T09:40:57.027Z</time>
      </trkpt>
      <trkpt lat="45.64053" lon="5.34082">
        <ele>280</ele>
        <time>2021-04-04T09:40:58.027Z</time>
      </trkpt>
      <trkpt lat="45.64057" lon="5.34096">
        <ele>280</ele>
        <time>2021-04-04T09:40:59.028Z</time>
      </trkpt>
      <trkpt lat="45.64062" lon="5.34107">
        <ele>280</ele>
        <time>2021-04-04T09:41:00.027Z</time>
      </trkpt>
      <trkpt lat="45.64069" lon="5.34119">
        <ele>280</ele>
        <time>2021-04-04T09:41:01.028Z</time>
      </trkpt>
      <trkpt lat="45.64075" lon="5.34129">
        <ele>279</ele>
        <time>2021-04-04T09:41:02.027Z</time>
      </trkpt>
      <trkpt lat="45.64079" lon="5.34142">
        <ele>279</ele>
        <time>2021-04-04T09:41:03.028Z</time>
      </trkpt>
      <trkpt lat="45.64083" lon="5.34154">
        <ele>278</ele>
        <time>2021-04-04T09:41:04.028Z</time>
      </trkpt>
      <trkpt lat="45.64087" lon="5.34168">
        <ele>278</ele>
        <time>2021-04-04T09:41:05.027Z</time>
      </trkpt>
      <trkpt lat="45.6409" lon="5.34181">
        <ele>277</ele>
        <time>2021-04-04T09:41:06.028Z</time>
      </trkpt>
      <trkpt lat="45.64092" lon="5.34194">
        <ele>277</ele>
        <time>2021-04-04T09:41:07.028Z</time>
      </trkpt>
      <trkpt lat="45.64096" lon="5.34207">
        <ele>276</ele>
        <time>2021-04-04T09:41:08.028Z</time>
      </trkpt>
      <trkpt lat="45.64098" lon="5.3422">
        <ele>276</ele>
        <time>2021-04-04T09:41:09.027Z</time>
      </trkpt>
      <trkpt lat="45.641" lon="5.34232">
        <ele>275</ele>
        <time>2021-04-04T09:41:10.028Z</time>
      </trkpt>
      <trkpt lat="45.641" lon="5.34243">
        <ele>275</ele>
        <time>2021-04-04T09:41:11.028Z</time>
      </trkpt>
      <trkpt lat="45.64099" lon="5.34253">
        <ele>274</ele>
        <time>2021-04-04T09:41:12.028Z</time>
      </trkpt>
      <trkpt lat="45.64096" lon="5.34264">
        <ele>273</ele>
        <time>2021-04-04T09:41:13.027Z</time>
      </trkpt>
      <trkpt lat="45.64094" lon="5.34273">
        <ele>272</ele>
        <time>2021-04-04T09:41:14.027Z</time>
      </trkpt>
      <trkpt lat="45.64093" lon="5.34282">
        <ele>271</ele>
        <time>2021-04-04T09:41:15.027Z</time>
      </trkpt>
      <trkpt lat="45.64092" lon="5.34289">
        <ele>270</ele>
        <time>2021-04-04T09:41:16.028Z</time>
      </trkpt>
      <trkpt lat="45.64093" lon="5.34294">
        <ele>270</ele>
        <time>2021-04-04T09:41:17.028Z</time>
      </trkpt>
      <trkpt lat="45.64094" lon="5.34298">
        <ele>269</ele>
        <time>2021-04-04T09:41:18.027Z</time>
      </trkpt>
      <trkpt lat="45.64096" lon="5.343">
        <ele>268</ele>
        <time>2021-04-04T09:41:19.027Z</time>
      </trkpt>
      <trkpt lat="45.64099" lon="5.34302">
        <ele>268</ele>
        <time>2021-04-04T09:41:20.028Z</time>
      </trkpt>
      <trkpt lat="45.64101" lon="5.34303">
        <ele>267</ele>
        <time>2021-04-04T09:41:21.028Z</time>
      </trkpt>
      <trkpt lat="45.64102" lon="5.34304">
        <ele>267</ele>
        <time>2021-04-04T09:41:22.027Z</time>
      </trkpt>
      <trkpt lat="45.64103" lon="5.34304">
        <ele>266</ele>
        <time>2021-04-04T09:41:23.028Z</time>
      </trkpt>
      <trkpt lat="45.64103" lon="5.34305">
        <ele>265</ele>
        <time>2021-04-04T09:41:24.027Z</time>
      </trkpt>
      <trkpt lat="45.64104" lon="5.34303">
        <ele>265</ele>
        <time>2021-04-04T09:41:25.027Z</time>
      </trkpt>
      <trkpt lat="45.64106" lon="5.34302">
        <ele>264</ele>
        <time>2021-04-04T09:41:26.028Z</time>
      </trkpt>
      <trkpt lat="45.64108" lon="5.343">
        <ele>264</ele>
        <time>2021-04-04T09:41:27.027Z</time>
      </trkpt>
      <trkpt lat="45.64109" lon="5.34299">
        <ele>263</ele>
        <time>2021-04-04T09:41:28.027Z</time>
      </trkpt>
      <trkpt lat="45.6411" lon="5.34296">
        <ele>262</ele>
        <time>2021-04-04T09:41:29.027Z</time>
      </trkpt>
      <trkpt lat="45.64111" lon="5.34293">
        <ele>262</ele>
        <time>2021-04-04T09:41:30.027Z</time>
      </trkpt>
      <trkpt lat="45.64112" lon="5.34288">
        <ele>261</ele>
        <time>2021-04-04T09:41:31.027Z</time>
      </trkpt>
      <trkpt lat="45.64112" lon="5.34283">
        <ele>260</ele>
        <time>2021-04-04T09:41:32.028Z</time>
      </trkpt>
      <trkpt lat="45.64113" lon="5.34276">
        <ele>260</ele>
        <time>2021-04-04T09:41:33.027Z</time>
      </trkpt>
      <trkpt lat="45.64114" lon="5.34268">
        <ele>259</ele>
        <time>2021-04-04T09:41:34.028Z</time>
      </trkpt>
      <trkpt lat="45.64116" lon="5.34257">
        <ele>258</ele>
        <time>2021-04-04T09:41:35.027Z</time>
      </trkpt>
      <trkpt lat="45.64117" lon="5.34249">
        <ele>258</ele>
        <time>2021-04-04T09:41:36.028Z</time>
      </trkpt>
      <trkpt lat="45.64119" lon="5.34237">
        <ele>257</ele>
        <time>2021-04-04T09:41:37.027Z</time>
      </trkpt>
      <trkpt lat="45.64122" lon="5.34225">
        <ele>256</ele>
        <time>2021-04-04T09:41:38.027Z</time>
      </trkpt>
      <trkpt lat="45.64124" lon="5.34213">
        <ele>256</ele>
        <time>2021-04-04T09:41:39.027Z</time>
      </trkpt>
      <trkpt lat="45.64126" lon="5.342">
        <ele>255</ele>
        <time>2021-04-04T09:41:40.027Z</time>
      </trkpt>
      <trkpt lat="45.64129" lon="5.34186">
        <ele>255</ele>
        <time>2021-04-04T09:41:41.028Z</time>
      </trkpt>
      <trkpt lat="45.64131" lon="5.34173">
        <ele>254</ele>
        <time>2021-04-04T09:41:42.028Z</time>
      </trkpt>
      <trkpt lat="45.64134" lon="5.34159">
        <ele>254</ele>
        <time>2021-04-04T09:41:43.028Z</time>
      </trkpt>
      <trkpt lat="45.64136" lon="5.34145">
        <ele>253</ele>
        <time>2021-04-04T09:41:44.028Z</time>
      </trkpt>
      <trkpt lat="45.64139" lon="5.3413">
        <ele>253</ele>
        <time>2021-04-04T09:41:45.027Z</time>
      </trkpt>
      <trkpt lat="45.64141" lon="5.34116">
        <ele>252</ele>
        <time>2021-04-04T09:41:46.027Z</time>
      </trkpt>
      <trkpt lat="45.64144" lon="5.34101">
        <ele>252</ele>
        <time>2021-04-04T09:41:47.028Z</time>
      </trkpt>
      <trkpt lat="45.64146" lon="5.34086">
        <ele>252</ele>
        <time>2021-04-04T09:41:48.028Z</time>
      </trkpt>
      <trkpt lat="45.64149" lon="5.34071">
        <ele>251</ele>
        <time>2021-04-04T09:41:49.028Z</time>
      </trkpt>
      <trkpt lat="45.64152" lon="5.34056">
        <ele>250</ele>
        <time>2021-04-04T09:41:50.028Z</time>
      </trkpt>
      <trkpt lat="45.64155" lon="5.34041">
        <ele>250</ele>
        <time>2021-04-04T09:41:51.027Z</time>
      </trkpt>
      <trkpt lat="45.64158" lon="5.34026">
        <ele>249</ele>
        <time>2021-04-04T09:41:52.027Z</time>
      </trkpt>
      <trkpt lat="45.6416" lon="5.3401">
        <ele>249</ele>
        <time>2021-04-04T09:41:53.028Z</time>
      </trkpt>
      <trkpt lat="45.64163" lon="5.33995">
        <ele>248</ele>
        <time>2021-04-04T09:41:54.027Z</time>
      </trkpt>
      <trkpt lat="45.64166" lon="5.3398">
        <ele>247</ele>
        <time>2021-04-04T09:41:55.027Z</time>
      </trkpt>
      <trkpt lat="45.64168" lon="5.33964">
        <ele>246</ele>
        <time>2021-04-04T09:41:56.027Z</time>
      </trkpt>
      <trkpt lat="45.64172" lon="5.33948">
        <ele>245</ele>
        <time>2021-04-04T09:41:57.027Z</time>
      </trkpt>
      <trkpt lat="45.64175" lon="5.33932">
        <ele>244</ele>
        <time>2021-04-04T09:41:58.028Z</time>
      </trkpt>
      <trkpt lat="45.64178" lon="5.33916">
        <ele>244</ele>
        <time>2021-04-04T09:41:59.027Z</time>
      </trkpt>
      <trkpt lat="45.64182" lon="5.339">
        <ele>243</ele>
        <time>2021-04-04T09:42:00.028Z</time>
      </trkpt>
      <trkpt lat="45.64186" lon="5.33885">
        <ele>242</ele>
        <time>2021-04-04T09:42:01.028Z</time>
      </trkpt>
      <trkpt lat="45.6419" lon="5.33869">
        <ele>242</ele>
        <time>2021-04-04T09:42:02.027Z</time>
      </trkpt>
      <trkpt lat="45.64193" lon="5.33854">
        <ele>241</ele>
        <time>2021-04-04T09:42:03.028Z</time>
      </trkpt>
      <trkpt lat="45.64197" lon="5.33838">
        <ele>240</ele>
        <time>2021-04-04T09:42:04.027Z</time>
      </trkpt>
      <trkpt lat="45.64201" lon="5.33823">
        <ele>240</ele>
        <time>2021-04-04T09:42:05.028Z</time>
      </trkpt>
      <trkpt lat="45.64205" lon="5.33808">
        <ele>239</ele>
        <time>2021-04-04T09:42:06.027Z</time>
      </trkpt>
      <trkpt lat="45.64209" lon="5.33793">
        <ele>238</ele>
        <time>2021-04-04T09:42:07.028Z</time>
      </trkpt>
      <trkpt lat="45.64212" lon="5.33778">
        <ele>238</ele>
        <time>2021-04-04T09:42:08.027Z</time>
      </trkpt>
      <trkpt lat="45.64216" lon="5.33764">
        <ele>238</ele>
        <time>2021-04-04T09:42:09.027Z</time>
      </trkpt>
      <trkpt lat="45.6422" lon="5.33749">
        <ele>238</ele>
        <time>2021-04-04T09:42:10.028Z</time>
      </trkpt>
      <trkpt lat="45.64223" lon="5.33735">
        <ele>238</ele>
        <time>2021-04-04T09:42:11.028Z</time>
      </trkpt>
      <trkpt lat="45.64227" lon="5.3372">
        <ele>237</ele>
        <time>2021-04-04T09:42:12.028Z</time>
      </trkpt>
      <trkpt lat="45.64231" lon="5.33706">
        <ele>237</ele>
        <time>2021-04-04T09:42:13.028Z</time>
      </trkpt>
      <trkpt lat="45.64234" lon="5.33692">
        <ele>236</ele>
        <time>2021-04-04T09:42:14.028Z</time>
      </trkpt>
      <trkpt lat="45.64237" lon="5.33678">
        <ele>236</ele>
        <time>2021-04-04T09:42:15.028Z</time>
      </trkpt>
      <trkpt lat="45.6424" lon="5.33664">
        <ele>236</ele>
        <time>2021-04-04T09:42:16.028Z</time>
      </trkpt>
      <trkpt lat="45.64243" lon="5.3365">
        <ele>236</ele>
        <time>2021-04-04T09:42:17.028Z</time>
      </trkpt>
      <trkpt lat="45.64245" lon="5.33636">
        <ele>236</ele>
        <time>2021-04-04T09:42:18.027Z</time>
      </trkpt>
      <trkpt lat="45.64247" lon="5.33623">
        <ele>235</ele>
        <time>2021-04-04T09:42:19.028Z</time>
      </trkpt>
      <trkpt lat="45.64249" lon="5.33606">
        <ele>235</ele>
        <time>2021-04-04T09:42:20.028Z</time>
      </trkpt>
      <trkpt lat="45.64249" lon="5.33595">
        <ele>235</ele>
        <time>2021-04-04T09:42:21.027Z</time>
      </trkpt>
      <trkpt lat="45.6425" lon="5.33582">
        <ele>235</ele>
        <time>2021-04-04T09:42:22.027Z</time>
      </trkpt>
      <trkpt lat="45.6425" lon="5.33569">
        <ele>235</ele>
        <time>2021-04-04T09:42:23.028Z</time>
      </trkpt>
      <trkpt lat="45.6425" lon="5.33556">
        <ele>235</ele>
        <time>2021-04-04T09:42:24.028Z</time>
      </trkpt>
      <trkpt lat="45.6425" lon="5.33543">
        <ele>235</ele>
        <time>2021-04-04T09:42:25.028Z</time>
      </trkpt>
      <trkpt lat="45.6425" lon="5.3353">
        <ele>235</ele>
        <time>2021-04-04T09:42:26.028Z</time>
      </trkpt>
      <trkpt lat="45.64251" lon="5.33517">
        <ele>235</ele>
        <time>2021-04-04T09:42:27.027Z</time>
      </trkpt>
      <trkpt lat="45.6425" lon="5.33504">
        <ele>235</ele>
        <time>2021-04-04T09:42:28.027Z</time>
      </trkpt>
      <trkpt lat="45.6425" lon="5.33492">
        <ele>235</ele>
        <time>2021-04-04T09:42:29.028Z</time>
      </trkpt>
      <trkpt lat="45.6425" lon="5.33479">
        <ele>236</ele>
        <time>2021-04-04T09:42:30.027Z</time>
      </trkpt>
      <trkpt lat="45.6425" lon="5.33467">
        <ele>236</ele>
        <time>2021-04-04T09:42:31.027Z</time>
      </trkpt>
      <trkpt lat="45.64251" lon="5.33452">
        <ele>236</ele>
        <time>2021-04-04T09:42:32.027Z</time>
      </trkpt>
      <trkpt lat="45.64251" lon="5.33441">
        <ele>236</ele>
        <time>2021-04-04T09:42:33.028Z</time>
      </trkpt>
      <trkpt lat="45.64252" lon="5.33428">
        <ele>236</ele>
        <time>2021-04-04T09:42:34.028Z</time>
      </trkpt>
      <trkpt lat="45.64252" lon="5.33416">
        <ele>237</ele>
        <time>2021-04-04T09:42:35.028Z</time>
      </trkpt>
      <trkpt lat="45.64252" lon="5.33406">
        <ele>237</ele>
        <time>2021-04-04T09:42:36.028Z</time>
      </trkpt>
      <trkpt lat="45.64253" lon="5.33395">
        <ele>237</ele>
        <time>2021-04-04T09:42:37.027Z</time>
      </trkpt>
      <trkpt lat="45.64253" lon="5.33384">
        <ele>237</ele>
        <time>2021-04-04T09:42:38.028Z</time>
      </trkpt>
      <trkpt lat="45.64254" lon="5.33372">
        <ele>237</ele>
        <time>2021-04-04T09:42:39.027Z</time>
      </trkpt>
      <trkpt lat="45.64254" lon="5.33361">
        <ele>237</ele>
        <time>2021-04-04T09:42:40.027Z</time>
      </trkpt>
      <trkpt lat="45.64254" lon="5.33349">
        <ele>238</ele>
        <time>2021-04-04T09:42:41.028Z</time>
      </trkpt>
      <trkpt lat="45.64255" lon="5.33337">
        <ele>238</ele>
        <time>2021-04-04T09:42:42.028Z</time>
      </trkpt>
      <trkpt lat="45.64255" lon="5.33326">
        <ele>238</ele>
        <time>2021-04-04T09:42:43.028Z</time>
      </trkpt>
      <trkpt lat="45.64256" lon="5.33314">
        <ele>238</ele>
        <time>2021-04-04T09:42:44.028Z</time>
      </trkpt>
      <trkpt lat="45.64257" lon="5.33303">
        <ele>237</ele>
        <time>2021-04-04T09:42:45.028Z</time>
      </trkpt>
      <trkpt lat="45.64257" lon="5.33292">
        <ele>237</ele>
        <time>2021-04-04T09:42:46.027Z</time>
      </trkpt>
      <trkpt lat="45.64258" lon="5.3328">
        <ele>237</ele>
        <time>2021-04-04T09:42:47.027Z</time>
      </trkpt>
      <trkpt lat="45.64258" lon="5.33268">
        <ele>237</ele>
        <time>2021-04-04T09:42:48.028Z</time>
      </trkpt>
      <trkpt lat="45.64259" lon="5.33256">
        <ele>237</ele>
        <time>2021-04-04T09:42:49.028Z</time>
      </trkpt>
      <trkpt lat="45.6426" lon="5.33245">
        <ele>236</ele>
        <time>2021-04-04T09:42:50.028Z</time>
      </trkpt>
      <trkpt lat="45.6426" lon="5.33234">
        <ele>236</ele>
        <time>2021-04-04T09:42:51.028Z</time>
      </trkpt>
      <trkpt lat="45.64261" lon="5.33222">
        <ele>236</ele>
        <time>2021-04-04T09:42:52.027Z</time>
      </trkpt>
      <trkpt lat="45.64261" lon="5.33211">
        <ele>236</ele>
        <time>2021-04-04T09:42:53.028Z</time>
      </trkpt>
      <trkpt lat="45.64261" lon="5.332">
        <ele>237</ele>
        <time>2021-04-04T09:42:54.027Z</time>
      </trkpt>
      <trkpt lat="45.64262" lon="5.33187">
        <ele>237</ele>
        <time>2021-04-04T09:42:55.028Z</time>
      </trkpt>
      <trkpt lat="45.64262" lon="5.33178">
        <ele>237</ele>
        <time>2021-04-04T09:42:56.028Z</time>
      </trkpt>
      <trkpt lat="45.64263" lon="5.33167">
        <ele>237</ele>
        <time>2021-04-04T09:42:57.028Z</time>
      </trkpt>
      <trkpt lat="45.64263" lon="5.33156">
        <ele>237</ele>
        <time>2021-04-04T09:42:58.028Z</time>
      </trkpt>
      <trkpt lat="45.64264" lon="5.33146">
        <ele>237</ele>
        <time>2021-04-04T09:42:59.028Z</time>
      </trkpt>
      <trkpt lat="45.64264" lon="5.33133">
        <ele>237</ele>
        <time>2021-04-04T09:43:00.028Z</time>
      </trkpt>
      <trkpt lat="45.64265" lon="5.33125">
        <ele>237</ele>
        <time>2021-04-04T09:43:01.027Z</time>
      </trkpt>
      <trkpt lat="45.64265" lon="5.33115">
        <ele>236</ele>
        <time>2021-04-04T09:43:02.028Z</time>
      </trkpt>
      <trkpt lat="45.64266" lon="5.33104">
        <ele>236</ele>
        <time>2021-04-04T09:43:03.027Z</time>
      </trkpt>
      <trkpt lat="45.64266" lon="5.33092">
        <ele>236</ele>
        <time>2021-04-04T09:43:04.028Z</time>
      </trkpt>
      <trkpt lat="45.64267" lon="5.33082">
        <ele>237</ele>
        <time>2021-04-04T09:43:05.028Z</time>
      </trkpt>
      <trkpt lat="45.64267" lon="5.33074">
        <ele>237</ele>
        <time>2021-04-04T09:43:06.027Z</time>
      </trkpt>
      <trkpt lat="45.64268" lon="5.33064">
        <ele>237</ele>
        <time>2021-04-04T09:43:07.028Z</time>
      </trkpt>
      <trkpt lat="45.64268" lon="5.33053">
        <ele>237</ele>
        <time>2021-04-04T09:43:08.028Z</time>
      </trkpt>
      <trkpt lat="45.6427" lon="5.33041">
        <ele>237</ele>
        <time>2021-04-04T09:43:09.027Z</time>
      </trkpt>
      <trkpt lat="45.64271" lon="5.33031">
        <ele>237</ele>
        <time>2021-04-04T09:43:10.027Z</time>
      </trkpt>
      <trkpt lat="45.64272" lon="5.33022">
        <ele>237</ele>
        <time>2021-04-04T09:43:11.027Z</time>
      </trkpt>
      <trkpt lat="45.64274" lon="5.33012">
        <ele>236</ele>
        <time>2021-04-04T09:43:12.027Z</time>
      </trkpt>
      <trkpt lat="45.64276" lon="5.32999">
        <ele>236</ele>
        <time>2021-04-04T09:43:13.028Z</time>
      </trkpt>
      <trkpt lat="45.64278" lon="5.32989">
        <ele>235</ele>
        <time>2021-04-04T09:43:14.028Z</time>
      </trkpt>
      <trkpt lat="45.6428" lon="5.32979">
        <ele>235</ele>
        <time>2021-04-04T09:43:15.027Z</time>
      </trkpt>
      <trkpt lat="45.64282" lon="5.32971">
        <ele>235</ele>
        <time>2021-04-04T09:43:16.027Z</time>
      </trkpt>
      <trkpt lat="45.64284" lon="5.32961">
        <ele>235</ele>
        <time>2021-04-04T09:43:17.027Z</time>
      </trkpt>
      <trkpt lat="45.64287" lon="5.32949">
        <ele>235</ele>
        <time>2021-04-04T09:43:18.028Z</time>
      </trkpt>
      <trkpt lat="45.64289" lon="5.3294">
        <ele>234</ele>
        <time>2021-04-04T09:43:19.027Z</time>
      </trkpt>
      <trkpt lat="45.64291" lon="5.3293">
        <ele>234</ele>
        <time>2021-04-04T09:43:20.028Z</time>
      </trkpt>
      <trkpt lat="45.64293" lon="5.32922">
        <ele>234</ele>
        <time>2021-04-04T09:43:21.027Z</time>
      </trkpt>
      <trkpt lat="45.64295" lon="5.32912">
        <ele>234</ele>
        <time>2021-04-04T09:43:22.028Z</time>
      </trkpt>
      <trkpt lat="45.64297" lon="5.32901">
        <ele>234</ele>
        <time>2021-04-04T09:43:23.027Z</time>
      </trkpt>
      <trkpt lat="45.64299" lon="5.32891">
        <ele>234</ele>
        <time>2021-04-04T09:43:24.028Z</time>
      </trkpt>
      <trkpt lat="45.64301" lon="5.32881">
        <ele>235</ele>
        <time>2021-04-04T09:43:25.027Z</time>
      </trkpt>
      <trkpt lat="45.64303" lon="5.32873">
        <ele>235</ele>
        <time>2021-04-04T09:43:26.028Z</time>
      </trkpt>
      <trkpt lat="45.64305" lon="5.32863">
        <ele>235</ele>
        <time>2021-04-04T09:43:27.027Z</time>
      </trkpt>
      <trkpt lat="45.64307" lon="5.32852">
        <ele>235</ele>
        <time>2021-04-04T09:43:28.028Z</time>
      </trkpt>
      <trkpt lat="45.6431" lon="5.3284">
        <ele>235</ele>
        <time>2021-04-04T09:43:29.028Z</time>
      </trkpt>
      <trkpt lat="45.64311" lon="5.32832">
        <ele>235</ele>
        <time>2021-04-04T09:43:30.028Z</time>
      </trkpt>
      <trkpt lat="45.64313" lon="5.32821">
        <ele>235</ele>
        <time>2021-04-04T09:43:31.028Z</time>
      </trkpt>
      <trkpt lat="45.64315" lon="5.3281">
        <ele>235</ele>
        <time>2021-04-04T09:43:32.027Z</time>
      </trkpt>
      <trkpt lat="45.64318" lon="5.32799">
        <ele>235</ele>
        <time>2021-04-04T09:43:33.028Z</time>
      </trkpt>
      <trkpt lat="45.6432" lon="5.32789">
        <ele>235</ele>
        <time>2021-04-04T09:43:34.028Z</time>
      </trkpt>
      <trkpt lat="45.64322" lon="5.32778">
        <ele>235</ele>
        <time>2021-04-04T09:43:35.028Z</time>
      </trkpt>
      <trkpt lat="45.64324" lon="5.32767">
        <ele>235</ele>
        <time>2021-04-04T09:43:36.027Z</time>
      </trkpt>
      <trkpt lat="45.64326" lon="5.32756">
        <ele>236</ele>
        <time>2021-04-04T09:43:37.028Z</time>
      </trkpt>
      <trkpt lat="45.64328" lon="5.32744">
        <ele>236</ele>
        <time>2021-04-04T09:43:38.028Z</time>
      </trkpt>
      <trkpt lat="45.64331" lon="5.32733">
        <ele>236</ele>
        <time>2021-04-04T09:43:39.028Z</time>
      </trkpt>
      <trkpt lat="45.64333" lon="5.32722">
        <ele>236</ele>
        <time>2021-04-04T09:43:40.028Z</time>
      </trkpt>
      <trkpt lat="45.64335" lon="5.32711">
        <ele>236</ele>
        <time>2021-04-04T09:43:41.027Z</time>
      </trkpt>
      <trkpt lat="45.64337" lon="5.32699">
        <ele>236</ele>
        <time>2021-04-04T09:43:42.028Z</time>
      </trkpt>
      <trkpt lat="45.64339" lon="5.32688">
        <ele>236</ele>
        <time>2021-04-04T09:43:43.028Z</time>
      </trkpt>
      <trkpt lat="45.64341" lon="5.32677">
        <ele>236</ele>
        <time>2021-04-04T09:43:44.028Z</time>
      </trkpt>
      <trkpt lat="45.64343" lon="5.32666">
        <ele>236</ele>
        <time>2021-04-04T09:43:45.028Z</time>
      </trkpt>
      <trkpt lat="45.64344" lon="5.32655">
        <ele>236</ele>
        <time>2021-04-04T09:43:46.028Z</time>
      </trkpt>
      <trkpt lat="45.64346" lon="5.32644">
        <ele>236</ele>
        <time>2021-04-04T09:43:47.028Z</time>
      </trkpt>
      <trkpt lat="45.64348" lon="5.32633">
        <ele>236</ele>
        <time>2021-04-04T09:43:48.027Z</time>
      </trkpt>
      <trkpt lat="45.64349" lon="5.32622">
        <ele>236</ele>
        <time>2021-04-04T09:43:49.028Z</time>
      </trkpt>
      <trkpt lat="45.6435" lon="5.32611">
        <ele>236</ele>
        <time>2021-04-04T09:43:50.028Z</time>
      </trkpt>
      <trkpt lat="45.64352" lon="5.326">
        <ele>236</ele>
        <time>2021-04-04T09:43:51.028Z</time>
      </trkpt>
      <trkpt lat="45.64353" lon="5.32589">
        <ele>236</ele>
        <time>2021-04-04T09:43:52.027Z</time>
      </trkpt>
      <trkpt lat="45.64354" lon="5.32577">
        <ele>236</ele>
        <time>2021-04-04T09:43:53.027Z</time>
      </trkpt>
      <trkpt lat="45.64355" lon="5.32566">
        <ele>236</ele>
        <time>2021-04-04T09:43:54.027Z</time>
      </trkpt>
      <trkpt lat="45.64356" lon="5.32555">
        <ele>237</ele>
        <time>2021-04-04T09:43:55.028Z</time>
      </trkpt>
      <trkpt lat="45.64358" lon="5.32543">
        <ele>237</ele>
        <time>2021-04-04T09:43:56.027Z</time>
      </trkpt>
      <trkpt lat="45.64359" lon="5.32532">
        <ele>236</ele>
        <time>2021-04-04T09:43:57.028Z</time>
      </trkpt>
      <trkpt lat="45.6436" lon="5.3252">
        <ele>236</ele>
        <time>2021-04-04T09:43:58.027Z</time>
      </trkpt>
      <trkpt lat="45.64362" lon="5.32508">
        <ele>236</ele>
        <time>2021-04-04T09:43:59.028Z</time>
      </trkpt>
      <trkpt lat="45.64363" lon="5.32496">
        <ele>236</ele>
        <time>2021-04-04T09:44:00.028Z</time>
      </trkpt>
      <trkpt lat="45.64364" lon="5.32484">
        <ele>236</ele>
        <time>2021-04-04T09:44:01.028Z</time>
      </trkpt>
      <trkpt lat="45.64366" lon="5.32472">
        <ele>236</ele>
        <time>2021-04-04T09:44:02.028Z</time>
      </trkpt>
      <trkpt lat="45.64367" lon="5.3246">
        <ele>237</ele>
        <time>2021-04-04T09:44:03.028Z</time>
      </trkpt>
      <trkpt lat="45.64368" lon="5.32448">
        <ele>237</ele>
        <time>2021-04-04T09:44:04.028Z</time>
      </trkpt>
      <trkpt lat="45.64369" lon="5.32436">
        <ele>237</ele>
        <time>2021-04-04T09:44:05.027Z</time>
      </trkpt>
      <trkpt lat="45.64371" lon="5.32424">
        <ele>237</ele>
        <time>2021-04-04T09:44:06.028Z</time>
      </trkpt>
      <trkpt lat="45.64372" lon="5.32412">
        <ele>238</ele>
        <time>2021-04-04T09:44:07.028Z</time>
      </trkpt>
      <trkpt lat="45.64373" lon="5.324">
        <ele>237</ele>
        <time>2021-04-04T09:44:08.027Z</time>
      </trkpt>
      <trkpt lat="45.64374" lon="5.32388">
        <ele>237</ele>
        <time>2021-04-04T09:44:09.028Z</time>
      </trkpt>
      <trkpt lat="45.64376" lon="5.32376">
        <ele>237</ele>
        <time>2021-04-04T09:44:10.028Z</time>
      </trkpt>
      <trkpt lat="45.64377" lon="5.32365">
        <ele>237</ele>
        <time>2021-04-04T09:44:11.028Z</time>
      </trkpt>
      <trkpt lat="45.64378" lon="5.32353">
        <ele>237</ele>
        <time>2021-04-04T09:44:12.028Z</time>
      </trkpt>
      <trkpt lat="45.64379" lon="5.32342">
        <ele>238</ele>
        <time>2021-04-04T09:44:13.028Z</time>
      </trkpt>
      <trkpt lat="45.6438" lon="5.3233">
        <ele>238</ele>
        <time>2021-04-04T09:44:14.028Z</time>
      </trkpt>
      <trkpt lat="45.64382" lon="5.32318">
        <ele>239</ele>
        <time>2021-04-04T09:44:15.028Z</time>
      </trkpt>
      <trkpt lat="45.64383" lon="5.32307">
        <ele>239</ele>
        <time>2021-04-04T09:44:16.028Z</time>
      </trkpt>
      <trkpt lat="45.64385" lon="5.32296">
        <ele>238</ele>
        <time>2021-04-04T09:44:17.028Z</time>
      </trkpt>
      <trkpt lat="45.64386" lon="5.32284">
        <ele>238</ele>
        <time>2021-04-04T09:44:18.027Z</time>
      </trkpt>
      <trkpt lat="45.64387" lon="5.32273">
        <ele>238</ele>
        <time>2021-04-04T09:44:19.028Z</time>
      </trkpt>
      <trkpt lat="45.64389" lon="5.32262">
        <ele>238</ele>
        <time>2021-04-04T09:44:20.028Z</time>
      </trkpt>
      <trkpt lat="45.6439" lon="5.32251">
        <ele>237</ele>
        <time>2021-04-04T09:44:21.027Z</time>
      </trkpt>
      <trkpt lat="45.64391" lon="5.3224">
        <ele>237</ele>
        <time>2021-04-04T09:44:22.028Z</time>
      </trkpt>
      <trkpt lat="45.64393" lon="5.32229">
        <ele>237</ele>
        <time>2021-04-04T09:44:23.027Z</time>
      </trkpt>
      <trkpt lat="45.64394" lon="5.32219">
        <ele>237</ele>
        <time>2021-04-04T09:44:24.028Z</time>
      </trkpt>
      <trkpt lat="45.64396" lon="5.32208">
        <ele>237</ele>
        <time>2021-04-04T09:44:25.027Z</time>
      </trkpt>
      <trkpt lat="45.64397" lon="5.32197">
        <ele>236</ele>
        <time>2021-04-04T09:44:26.028Z</time>
      </trkpt>
      <trkpt lat="45.64398" lon="5.32189">
        <ele>236</ele>
        <time>2021-04-04T09:44:27.028Z</time>
      </trkpt>
      <trkpt lat="45.644" lon="5.32176">
        <ele>236</ele>
        <time>2021-04-04T09:44:28.027Z</time>
      </trkpt>
      <trkpt lat="45.64401" lon="5.32166">
        <ele>236</ele>
        <time>2021-04-04T09:44:29.028Z</time>
      </trkpt>
      <trkpt lat="45.64402" lon="5.32155">
        <ele>236</ele>
        <time>2021-04-04T09:44:30.027Z</time>
      </trkpt>
      <trkpt lat="45.64403" lon="5.32147">
        <ele>236</ele>
        <time>2021-04-04T09:44:31.028Z</time>
      </trkpt>
      <trkpt lat="45.64405" lon="5.32134">
        <ele>236</ele>
        <time>2021-04-04T09:44:32.028Z</time>
      </trkpt>
      <trkpt lat="45.64406" lon="5.32124">
        <ele>236</ele>
        <time>2021-04-04T09:44:33.028Z</time>
      </trkpt>
      <trkpt lat="45.64407" lon="5.32113">
        <ele>235</ele>
        <time>2021-04-04T09:44:34.027Z</time>
      </trkpt>
      <trkpt lat="45.64409" lon="5.32102">
        <ele>235</ele>
        <time>2021-04-04T09:44:35.028Z</time>
      </trkpt>
      <trkpt lat="45.6441" lon="5.32091">
        <ele>235</ele>
        <time>2021-04-04T09:44:36.028Z</time>
      </trkpt>
      <trkpt lat="45.64412" lon="5.32081">
        <ele>235</ele>
        <time>2021-04-04T09:44:37.027Z</time>
      </trkpt>
      <trkpt lat="45.64413" lon="5.3207">
        <ele>235</ele>
        <time>2021-04-04T09:44:38.028Z</time>
      </trkpt>
      <trkpt lat="45.64414" lon="5.32059">
        <ele>235</ele>
        <time>2021-04-04T09:44:39.028Z</time>
      </trkpt>
      <trkpt lat="45.64415" lon="5.32048">
        <ele>235</ele>
        <time>2021-04-04T09:44:40.028Z</time>
      </trkpt>
      <trkpt lat="45.64416" lon="5.32037">
        <ele>235</ele>
        <time>2021-04-04T09:44:41.028Z</time>
      </trkpt>
      <trkpt lat="45.64417" lon="5.32026">
        <ele>236</ele>
        <time>2021-04-04T09:44:42.028Z</time>
      </trkpt>
      <trkpt lat="45.64417" lon="5.32014">
        <ele>236</ele>
        <time>2021-04-04T09:44:43.028Z</time>
      </trkpt>
      <trkpt lat="45.64418" lon="5.32002">
        <ele>236</ele>
        <time>2021-04-04T09:44:44.028Z</time>
      </trkpt>
      <trkpt lat="45.64418" lon="5.31991">
        <ele>236</ele>
        <time>2021-04-04T09:44:45.028Z</time>
      </trkpt>
      <trkpt lat="45.64418" lon="5.31979">
        <ele>237</ele>
        <time>2021-04-04T09:44:46.028Z</time>
      </trkpt>
      <trkpt lat="45.64418" lon="5.31967">
        <ele>237</ele>
        <time>2021-04-04T09:44:47.028Z</time>
      </trkpt>
      <trkpt lat="45.64418" lon="5.31955">
        <ele>237</ele>
        <time>2021-04-04T09:44:48.028Z</time>
      </trkpt>
      <trkpt lat="45.64418" lon="5.31944">
        <ele>237</ele>
        <time>2021-04-04T09:44:49.028Z</time>
      </trkpt>
      <trkpt lat="45.64418" lon="5.31933">
        <ele>238</ele>
        <time>2021-04-04T09:44:50.028Z</time>
      </trkpt>
      <trkpt lat="45.64419" lon="5.31922">
        <ele>238</ele>
        <time>2021-04-04T09:44:51.028Z</time>
      </trkpt>
      <trkpt lat="45.64418" lon="5.31911">
        <ele>238</ele>
        <time>2021-04-04T09:44:52.027Z</time>
      </trkpt>
      <trkpt lat="45.64418" lon="5.31902">
        <ele>239</ele>
        <time>2021-04-04T09:44:53.028Z</time>
      </trkpt>
      <trkpt lat="45.64419" lon="5.31889">
        <ele>240</ele>
        <time>2021-04-04T09:44:54.028Z</time>
      </trkpt>
      <trkpt lat="45.64419" lon="5.31878">
        <ele>240</ele>
        <time>2021-04-04T09:44:55.028Z</time>
      </trkpt>
      <trkpt lat="45.64419" lon="5.31867">
        <ele>241</ele>
        <time>2021-04-04T09:44:56.028Z</time>
      </trkpt>
      <trkpt lat="45.64419" lon="5.31857">
        <ele>241</ele>
        <time>2021-04-04T09:44:57.028Z</time>
      </trkpt>
      <trkpt lat="45.64419" lon="5.31846">
        <ele>242</ele>
        <time>2021-04-04T09:44:58.028Z</time>
      </trkpt>
      <trkpt lat="45.64419" lon="5.31836">
        <ele>242</ele>
        <time>2021-04-04T09:44:59.028Z</time>
      </trkpt>
      <trkpt lat="45.64419" lon="5.31825">
        <ele>242</ele>
        <time>2021-04-04T09:45:00.028Z</time>
      </trkpt>
      <trkpt lat="45.64419" lon="5.31815">
        <ele>243</ele>
        <time>2021-04-04T09:45:01.028Z</time>
      </trkpt>
      <trkpt lat="45.64419" lon="5.31805">
        <ele>243</ele>
        <time>2021-04-04T09:45:02.028Z</time>
      </trkpt>
      <trkpt lat="45.6442" lon="5.31795">
        <ele>244</ele>
        <time>2021-04-04T09:45:03.027Z</time>
      </trkpt>
      <trkpt lat="45.6442" lon="5.31784">
        <ele>244</ele>
        <time>2021-04-04T09:45:04.027Z</time>
      </trkpt>
      <trkpt lat="45.6442" lon="5.31775">
        <ele>245</ele>
        <time>2021-04-04T09:45:05.028Z</time>
      </trkpt>
      <trkpt lat="45.6442" lon="5.31765">
        <ele>245</ele>
        <time>2021-04-04T09:45:06.027Z</time>
      </trkpt>
      <trkpt lat="45.6442" lon="5.31755">
        <ele>245</ele>
        <time>2021-04-04T09:45:07.027Z</time>
      </trkpt>
      <trkpt lat="45.6442" lon="5.31745">
        <ele>244</ele>
        <time>2021-04-04T09:45:08.028Z</time>
      </trkpt>
      <trkpt lat="45.64421" lon="5.31734">
        <ele>244</ele>
        <time>2021-04-04T09:45:09.028Z</time>
      </trkpt>
      <trkpt lat="45.64421" lon="5.31724">
        <ele>243</ele>
        <time>2021-04-04T09:45:10.028Z</time>
      </trkpt>
      <trkpt lat="45.64421" lon="5.31714">
        <ele>242</ele>
        <time>2021-04-04T09:45:11.027Z</time>
      </trkpt>
      <trkpt lat="45.64422" lon="5.31703">
        <ele>241</ele>
        <time>2021-04-04T09:45:12.028Z</time>
      </trkpt>
      <trkpt lat="45.64422" lon="5.31692">
        <ele>241</ele>
        <time>2021-04-04T09:45:13.028Z</time>
      </trkpt>
      <trkpt lat="45.64422" lon="5.31681">
        <ele>241</ele>
        <time>2021-04-04T09:45:14.027Z</time>
      </trkpt>
      <trkpt lat="45.64423" lon="5.3167">
        <ele>240</ele>
        <time>2021-04-04T09:45:15.027Z</time>
      </trkpt>
      <trkpt lat="45.64423" lon="5.31659">
        <ele>240</ele>
        <time>2021-04-04T09:45:16.028Z</time>
      </trkpt>
      <trkpt lat="45.64423" lon="5.31647">
        <ele>240</ele>
        <time>2021-04-04T09:45:17.028Z</time>
      </trkpt>
      <trkpt lat="45.64423" lon="5.31636">
        <ele>240</ele>
        <time>2021-04-04T09:45:18.027Z</time>
      </trkpt>
      <trkpt lat="45.64423" lon="5.31625">
        <ele>240</ele>
        <time>2021-04-04T09:45:19.027Z</time>
      </trkpt>
      <trkpt lat="45.64423" lon="5.31613">
        <ele>240</ele>
        <time>2021-04-04T09:45:20.028Z</time>
      </trkpt>
      <trkpt lat="45.64424" lon="5.31602">
        <ele>240</ele>
        <time>2021-04-04T09:45:21.028Z</time>
      </trkpt>
      <trkpt lat="45.64424" lon="5.3159">
        <ele>239</ele>
        <time>2021-04-04T09:45:22.028Z</time>
      </trkpt>
      <trkpt lat="45.64424" lon="5.31577">
        <ele>239</ele>
        <time>2021-04-04T09:45:23.027Z</time>
      </trkpt>
      <trkpt lat="45.64424" lon="5.31565">
        <ele>239</ele>
        <time>2021-04-04T09:45:24.028Z</time>
      </trkpt>
      <trkpt lat="45.64425" lon="5.31552">
        <ele>239</ele>
        <time>2021-04-04T09:45:25.027Z</time>
      </trkpt>
      <trkpt lat="45.64425" lon="5.3154">
        <ele>239</ele>
        <time>2021-04-04T09:45:26.028Z</time>
      </trkpt>
      <trkpt lat="45.64425" lon="5.31527">
        <ele>239</ele>
        <time>2021-04-04T09:45:27.027Z</time>
      </trkpt>
      <trkpt lat="45.64426" lon="5.31514">
        <ele>238</ele>
        <time>2021-04-04T09:45:28.028Z</time>
      </trkpt>
      <trkpt lat="45.64426" lon="5.31501">
        <ele>237</ele>
        <time>2021-04-04T09:45:29.028Z</time>
      </trkpt>
      <trkpt lat="45.64426" lon="5.31488">
        <ele>237</ele>
        <time>2021-04-04T09:45:30.028Z</time>
      </trkpt>
      <trkpt lat="45.64426" lon="5.31475">
        <ele>236</ele>
        <time>2021-04-04T09:45:31.028Z</time>
      </trkpt>
      <trkpt lat="45.64426" lon="5.31463">
        <ele>235</ele>
        <time>2021-04-04T09:45:32.028Z</time>
      </trkpt>
      <trkpt lat="45.64427" lon="5.3145">
        <ele>235</ele>
        <time>2021-04-04T09:45:33.028Z</time>
      </trkpt>
      <trkpt lat="45.64427" lon="5.31438">
        <ele>235</ele>
        <time>2021-04-04T09:45:34.027Z</time>
      </trkpt>
      <trkpt lat="45.64427" lon="5.31426">
        <ele>234</ele>
        <time>2021-04-04T09:45:35.028Z</time>
      </trkpt>
      <trkpt lat="45.64427" lon="5.31414">
        <ele>233</ele>
        <time>2021-04-04T09:45:36.028Z</time>
      </trkpt>
      <trkpt lat="45.64427" lon="5.31401">
        <ele>232</ele>
        <time>2021-04-04T09:45:37.028Z</time>
      </trkpt>
      <trkpt lat="45.64428" lon="5.31389">
        <ele>232</ele>
        <time>2021-04-04T09:45:38.027Z</time>
      </trkpt>
      <trkpt lat="45.64428" lon="5.31377">
        <ele>232</ele>
        <time>2021-04-04T09:45:39.027Z</time>
      </trkpt>
      <trkpt lat="45.64428" lon="5.31365">
        <ele>232</ele>
        <time>2021-04-04T09:45:40.028Z</time>
      </trkpt>
      <trkpt lat="45.64428" lon="5.31353">
        <ele>233</ele>
        <time>2021-04-04T09:45:41.028Z</time>
      </trkpt>
      <trkpt lat="45.64428" lon="5.31341">
        <ele>233</ele>
        <time>2021-04-04T09:45:42.028Z</time>
      </trkpt>
      <trkpt lat="45.64428" lon="5.31329">
        <ele>233</ele>
        <time>2021-04-04T09:45:43.027Z</time>
      </trkpt>
      <trkpt lat="45.64429" lon="5.31318">
        <ele>233</ele>
        <time>2021-04-04T09:45:44.027Z</time>
      </trkpt>
      <trkpt lat="45.64429" lon="5.31306">
        <ele>233</ele>
        <time>2021-04-04T09:45:45.028Z</time>
      </trkpt>
      <trkpt lat="45.64429" lon="5.31295">
        <ele>233</ele>
        <time>2021-04-04T09:45:46.028Z</time>
      </trkpt>
      <trkpt lat="45.6443" lon="5.31282">
        <ele>232</ele>
        <time>2021-04-04T09:45:47.027Z</time>
      </trkpt>
      <trkpt lat="45.6443" lon="5.3127">
        <ele>232</ele>
        <time>2021-04-04T09:45:48.028Z</time>
      </trkpt>
      <trkpt lat="45.6443" lon="5.31258">
        <ele>233</ele>
        <time>2021-04-04T09:45:49.027Z</time>
      </trkpt>
      <trkpt lat="45.6443" lon="5.31247">
        <ele>232</ele>
        <time>2021-04-04T09:45:50.028Z</time>
      </trkpt>
      <trkpt lat="45.64431" lon="5.31235">
        <ele>232</ele>
        <time>2021-04-04T09:45:51.028Z</time>
      </trkpt>
      <trkpt lat="45.64431" lon="5.31223">
        <ele>232</ele>
        <time>2021-04-04T09:45:52.027Z</time>
      </trkpt>
      <trkpt lat="45.64431" lon="5.31212">
        <ele>231</ele>
        <time>2021-04-04T09:45:53.028Z</time>
      </trkpt>
      <trkpt lat="45.64431" lon="5.312">
        <ele>231</ele>
        <time>2021-04-04T09:45:54.028Z</time>
      </trkpt>
      <trkpt lat="45.64431" lon="5.31189">
        <ele>231</ele>
        <time>2021-04-04T09:45:55.027Z</time>
      </trkpt>
      <trkpt lat="45.64432" lon="5.31177">
        <ele>231</ele>
        <time>2021-04-04T09:45:56.027Z</time>
      </trkpt>
      <trkpt lat="45.64432" lon="5.31166">
        <ele>231</ele>
        <time>2021-04-04T09:45:57.028Z</time>
      </trkpt>
      <trkpt lat="45.64432" lon="5.31154">
        <ele>231</ele>
        <time>2021-04-04T09:45:58.028Z</time>
      </trkpt>
      <trkpt lat="45.64431" lon="5.31143">
        <ele>232</ele>
        <time>2021-04-04T09:45:59.028Z</time>
      </trkpt>
      <trkpt lat="45.64431" lon="5.31131">
        <ele>232</ele>
        <time>2021-04-04T09:46:00.028Z</time>
      </trkpt>
      <trkpt lat="45.6443" lon="5.3112">
        <ele>233</ele>
        <time>2021-04-04T09:46:01.028Z</time>
      </trkpt>
      <trkpt lat="45.64429" lon="5.31108">
        <ele>234</ele>
        <time>2021-04-04T09:46:02.028Z</time>
      </trkpt>
      <trkpt lat="45.64429" lon="5.31096">
        <ele>234</ele>
        <time>2021-04-04T09:46:03.027Z</time>
      </trkpt>
      <trkpt lat="45.64428" lon="5.31084">
        <ele>235</ele>
        <time>2021-04-04T09:46:04.028Z</time>
      </trkpt>
      <trkpt lat="45.64427" lon="5.31073">
        <ele>235</ele>
        <time>2021-04-04T09:46:05.028Z</time>
      </trkpt>
      <trkpt lat="45.64426" lon="5.31061">
        <ele>235</ele>
        <time>2021-04-04T09:46:06.028Z</time>
      </trkpt>
      <trkpt lat="45.64425" lon="5.31049">
        <ele>235</ele>
        <time>2021-04-04T09:46:07.028Z</time>
      </trkpt>
      <trkpt lat="45.64425" lon="5.31037">
        <ele>235</ele>
        <time>2021-04-04T09:46:08.028Z</time>
      </trkpt>
      <trkpt lat="45.64424" lon="5.31025">
        <ele>235</ele>
        <time>2021-04-04T09:46:09.028Z</time>
      </trkpt>
      <trkpt lat="45.64423" lon="5.31013">
        <ele>234</ele>
        <time>2021-04-04T09:46:10.027Z</time>
      </trkpt>
      <trkpt lat="45.64422" lon="5.31002">
        <ele>234</ele>
        <time>2021-04-04T09:46:11.028Z</time>
      </trkpt>
      <trkpt lat="45.64421" lon="5.3099">
        <ele>234</ele>
        <time>2021-04-04T09:46:12.028Z</time>
      </trkpt>
      <trkpt lat="45.6442" lon="5.30978">
        <ele>233</ele>
        <time>2021-04-04T09:46:13.027Z</time>
      </trkpt>
      <trkpt lat="45.64419" lon="5.30967">
        <ele>233</ele>
        <time>2021-04-04T09:46:14.028Z</time>
      </trkpt>
      <trkpt lat="45.64418" lon="5.30955">
        <ele>232</ele>
        <time>2021-04-04T09:46:15.027Z</time>
      </trkpt>
      <trkpt lat="45.64417" lon="5.30943">
        <ele>232</ele>
        <time>2021-04-04T09:46:16.028Z</time>
      </trkpt>
      <trkpt lat="45.64416" lon="5.30931">
        <ele>232</ele>
        <time>2021-04-04T09:46:17.028Z</time>
      </trkpt>
      <trkpt lat="45.64415" lon="5.30919">
        <ele>232</ele>
        <time>2021-04-04T09:46:18.027Z</time>
      </trkpt>
      <trkpt lat="45.64415" lon="5.30907">
        <ele>233</ele>
        <time>2021-04-04T09:46:19.028Z</time>
      </trkpt>
      <trkpt lat="45.64415" lon="5.30895">
        <ele>232</ele>
        <time>2021-04-04T09:46:20.027Z</time>
      </trkpt>
      <trkpt lat="45.64416" lon="5.30883">
        <ele>232</ele>
        <time>2021-04-04T09:46:21.027Z</time>
      </trkpt>
      <trkpt lat="45.64417" lon="5.30871">
        <ele>232</ele>
        <time>2021-04-04T09:46:22.028Z</time>
      </trkpt>
      <trkpt lat="45.64419" lon="5.30859">
        <ele>232</ele>
        <time>2021-04-04T09:46:23.028Z</time>
      </trkpt>
      <trkpt lat="45.6442" lon="5.30848">
        <ele>231</ele>
        <time>2021-04-04T09:46:24.027Z</time>
      </trkpt>
      <trkpt lat="45.64422" lon="5.30835">
        <ele>231</ele>
        <time>2021-04-04T09:46:25.027Z</time>
      </trkpt>
      <trkpt lat="45.64424" lon="5.30823">
        <ele>231</ele>
        <time>2021-04-04T09:46:26.027Z</time>
      </trkpt>
      <trkpt lat="45.64426" lon="5.30811">
        <ele>231</ele>
        <time>2021-04-04T09:46:27.028Z</time>
      </trkpt>
      <trkpt lat="45.64428" lon="5.30799">
        <ele>231</ele>
        <time>2021-04-04T09:46:28.028Z</time>
      </trkpt>
      <trkpt lat="45.6443" lon="5.30787">
        <ele>231</ele>
        <time>2021-04-04T09:46:29.028Z</time>
      </trkpt>
      <trkpt lat="45.64432" lon="5.30773">
        <ele>231</ele>
        <time>2021-04-04T09:46:30.028Z</time>
      </trkpt>
      <trkpt lat="45.64434" lon="5.3076">
        <ele>230</ele>
        <time>2021-04-04T09:46:31.027Z</time>
      </trkpt>
      <trkpt lat="45.64436" lon="5.30748">
        <ele>230</ele>
        <time>2021-04-04T09:46:32.028Z</time>
      </trkpt>
      <trkpt lat="45.64438" lon="5.30738">
        <ele>230</ele>
        <time>2021-04-04T09:46:33.028Z</time>
      </trkpt>
      <trkpt lat="45.6444" lon="5.30724">
        <ele>230</ele>
        <time>2021-04-04T09:46:34.027Z</time>
      </trkpt>
      <trkpt lat="45.64443" lon="5.30712">
        <ele>229</ele>
        <time>2021-04-04T09:46:35.027Z</time>
      </trkpt>
      <trkpt lat="45.64445" lon="5.30699">
        <ele>229</ele>
        <time>2021-04-04T09:46:36.027Z</time>
      </trkpt>
      <trkpt lat="45.64446" lon="5.30689">
        <ele>229</ele>
        <time>2021-04-04T09:46:37.028Z</time>
      </trkpt>
      <trkpt lat="45.64448" lon="5.30677">
        <ele>229</ele>
        <time>2021-04-04T09:46:38.027Z</time>
      </trkpt>
      <trkpt lat="45.6445" lon="5.30664">
        <ele>229</ele>
        <time>2021-04-04T09:46:39.028Z</time>
      </trkpt>
      <trkpt lat="45.64452" lon="5.30652">
        <ele>229</ele>
        <time>2021-04-04T09:46:40.028Z</time>
      </trkpt>
      <trkpt lat="45.64454" lon="5.30639">
        <ele>228</ele>
        <time>2021-04-04T09:46:41.028Z</time>
      </trkpt>
      <trkpt lat="45.64456" lon="5.30627">
        <ele>228</ele>
        <time>2021-04-04T09:46:42.027Z</time>
      </trkpt>
      <trkpt lat="45.64458" lon="5.30614">
        <ele>228</ele>
        <time>2021-04-04T09:46:43.027Z</time>
      </trkpt>
      <trkpt lat="45.6446" lon="5.30601">
        <ele>228</ele>
        <time>2021-04-04T09:46:44.027Z</time>
      </trkpt>
      <trkpt lat="45.64462" lon="5.30588">
        <ele>228</ele>
        <time>2021-04-04T09:46:45.028Z</time>
      </trkpt>
      <trkpt lat="45.64464" lon="5.30576">
        <ele>228</ele>
        <time>2021-04-04T09:46:46.027Z</time>
      </trkpt>
      <trkpt lat="45.64466" lon="5.30563">
        <ele>228</ele>
        <time>2021-04-04T09:46:47.028Z</time>
      </trkpt>
      <trkpt lat="45.64468" lon="5.3055">
        <ele>228</ele>
        <time>2021-04-04T09:46:48.028Z</time>
      </trkpt>
      <trkpt lat="45.6447" lon="5.30537">
        <ele>227</ele>
        <time>2021-04-04T09:46:49.028Z</time>
      </trkpt>
      <trkpt lat="45.64472" lon="5.30524">
        <ele>227</ele>
        <time>2021-04-04T09:46:50.028Z</time>
      </trkpt>
      <trkpt lat="45.64475" lon="5.30511">
        <ele>227</ele>
        <time>2021-04-04T09:46:51.028Z</time>
      </trkpt>
      <trkpt lat="45.64477" lon="5.30498">
        <ele>227</ele>
        <time>2021-04-04T09:46:52.028Z</time>
      </trkpt>
      <trkpt lat="45.64479" lon="5.30485">
        <ele>227</ele>
        <time>2021-04-04T09:46:53.028Z</time>
      </trkpt>
      <trkpt lat="45.64481" lon="5.30472">
        <ele>227</ele>
        <time>2021-04-04T09:46:54.028Z</time>
      </trkpt>
      <trkpt lat="45.64483" lon="5.30459">
        <ele>227</ele>
        <time>2021-04-04T09:46:55.028Z</time>
      </trkpt>
      <trkpt lat="45.64485" lon="5.30446">
        <ele>226</ele>
        <time>2021-04-04T09:46:56.028Z</time>
      </trkpt>
      <trkpt lat="45.64487" lon="5.30433">
        <ele>226</ele>
        <time>2021-04-04T09:46:57.028Z</time>
      </trkpt>
      <trkpt lat="45.64489" lon="5.3042">
        <ele>225</ele>
        <time>2021-04-04T09:46:58.027Z</time>
      </trkpt>
      <trkpt lat="45.64491" lon="5.30407">
        <ele>224</ele>
        <time>2021-04-04T09:46:59.027Z</time>
      </trkpt>
      <trkpt lat="45.64493" lon="5.30394">
        <ele>224</ele>
        <time>2021-04-04T09:47:00.027Z</time>
      </trkpt>
      <trkpt lat="45.64496" lon="5.30381">
        <ele>224</ele>
        <time>2021-04-04T09:47:01.028Z</time>
      </trkpt>
      <trkpt lat="45.64497" lon="5.30369">
        <ele>223</ele>
        <time>2021-04-04T09:47:02.027Z</time>
      </trkpt>
      <trkpt lat="45.64499" lon="5.30356">
        <ele>223</ele>
        <time>2021-04-04T09:47:03.027Z</time>
      </trkpt>
      <trkpt lat="45.64501" lon="5.30344">
        <ele>223</ele>
        <time>2021-04-04T09:47:04.028Z</time>
      </trkpt>
      <trkpt lat="45.64503" lon="5.30332">
        <ele>223</ele>
        <time>2021-04-04T09:47:05.028Z</time>
      </trkpt>
      <trkpt lat="45.64505" lon="5.30321">
        <ele>223</ele>
        <time>2021-04-04T09:47:06.028Z</time>
      </trkpt>
      <trkpt lat="45.64507" lon="5.30309">
        <ele>223</ele>
        <time>2021-04-04T09:47:07.028Z</time>
      </trkpt>
      <trkpt lat="45.64509" lon="5.30297">
        <ele>222</ele>
        <time>2021-04-04T09:47:08.028Z</time>
      </trkpt>
      <trkpt lat="45.64512" lon="5.30286">
        <ele>222</ele>
        <time>2021-04-04T09:47:09.028Z</time>
      </trkpt>
      <trkpt lat="45.64516" lon="5.30275">
        <ele>222</ele>
        <time>2021-04-04T09:47:10.027Z</time>
      </trkpt>
      <trkpt lat="45.64521" lon="5.30265">
        <ele>222</ele>
        <time>2021-04-04T09:47:11.028Z</time>
      </trkpt>
      <trkpt lat="45.64527" lon="5.30256">
        <ele>222</ele>
        <time>2021-04-04T09:47:12.028Z</time>
      </trkpt>
      <trkpt lat="45.64533" lon="5.30247">
        <ele>221</ele>
        <time>2021-04-04T09:47:13.027Z</time>
      </trkpt>
      <trkpt lat="45.64539" lon="5.3024">
        <ele>221</ele>
        <time>2021-04-04T09:47:14.028Z</time>
      </trkpt>
      <trkpt lat="45.64547" lon="5.30234">
        <ele>221</ele>
        <time>2021-04-04T09:47:15.028Z</time>
      </trkpt>
      <trkpt lat="45.64554" lon="5.30229">
        <ele>221</ele>
        <time>2021-04-04T09:47:16.027Z</time>
      </trkpt>
      <trkpt lat="45.64562" lon="5.30225">
        <ele>221</ele>
        <time>2021-04-04T09:47:17.027Z</time>
      </trkpt>
      <trkpt lat="45.6457" lon="5.30223">
        <ele>220</ele>
        <time>2021-04-04T09:47:18.028Z</time>
      </trkpt>
      <trkpt lat="45.64578" lon="5.30223">
        <ele>220</ele>
        <time>2021-04-04T09:47:19.028Z</time>
      </trkpt>
      <trkpt lat="45.64586" lon="5.30223">
        <ele>220</ele>
        <time>2021-04-04T09:47:20.028Z</time>
      </trkpt>
      <trkpt lat="45.64594" lon="5.30222">
        <ele>220</ele>
        <time>2021-04-04T09:47:21.027Z</time>
      </trkpt>
      <trkpt lat="45.646" lon="5.30219">
        <ele>220</ele>
        <time>2021-04-04T09:47:22.027Z</time>
      </trkpt>
      <trkpt lat="45.64606" lon="5.30214">
        <ele>220</ele>
        <time>2021-04-04T09:47:23.028Z</time>
      </trkpt>
      <trkpt lat="45.64609" lon="5.30206">
        <ele>220</ele>
        <time>2021-04-04T09:47:24.028Z</time>
      </trkpt>
      <trkpt lat="45.64611" lon="5.30197">
        <ele>219</ele>
        <time>2021-04-04T09:47:25.027Z</time>
      </trkpt>
      <trkpt lat="45.6461" lon="5.30188">
        <ele>219</ele>
        <time>2021-04-04T09:47:26.028Z</time>
      </trkpt>
      <trkpt lat="45.64606" lon="5.3018">
        <ele>220</ele>
        <time>2021-04-04T09:47:27.027Z</time>
      </trkpt>
      <trkpt lat="45.646" lon="5.30173">
        <ele>220</ele>
        <time>2021-04-04T09:47:28.028Z</time>
      </trkpt>
      <trkpt lat="45.64594" lon="5.30168">
        <ele>220</ele>
        <time>2021-04-04T09:47:29.028Z</time>
      </trkpt>
      <trkpt lat="45.64587" lon="5.30163">
        <ele>220</ele>
        <time>2021-04-04T09:47:30.028Z</time>
      </trkpt>
      <trkpt lat="45.64579" lon="5.30157">
        <ele>220</ele>
        <time>2021-04-04T09:47:31.028Z</time>
      </trkpt>
      <trkpt lat="45.64572" lon="5.3015">
        <ele>220</ele>
        <time>2021-04-04T09:47:32.028Z</time>
      </trkpt>
      <trkpt lat="45.64565" lon="5.30142">
        <ele>220</ele>
        <time>2021-04-04T09:47:33.027Z</time>
      </trkpt>
      <trkpt lat="45.64559" lon="5.30133">
        <ele>219</ele>
        <time>2021-04-04T09:47:34.028Z</time>
      </trkpt>
      <trkpt lat="45.64552" lon="5.30124">
        <ele>219</ele>
        <time>2021-04-04T09:47:35.028Z</time>
      </trkpt>
      <trkpt lat="45.64545" lon="5.30115">
        <ele>219</ele>
        <time>2021-04-04T09:47:36.028Z</time>
      </trkpt>
      <trkpt lat="45.64538" lon="5.30106">
        <ele>219</ele>
        <time>2021-04-04T09:47:37.028Z</time>
      </trkpt>
      <trkpt lat="45.64531" lon="5.30097">
        <ele>219</ele>
        <time>2021-04-04T09:47:38.028Z</time>
      </trkpt>
      <trkpt lat="45.64524" lon="5.30088">
        <ele>219</ele>
        <time>2021-04-04T09:47:39.028Z</time>
      </trkpt>
      <trkpt lat="45.64518" lon="5.30079">
        <ele>219</ele>
        <time>2021-04-04T09:47:40.027Z</time>
      </trkpt>
      <trkpt lat="45.64511" lon="5.3007">
        <ele>220</ele>
        <time>2021-04-04T09:47:41.027Z</time>
      </trkpt>
      <trkpt lat="45.64505" lon="5.30061">
        <ele>220</ele>
        <time>2021-04-04T09:47:42.027Z</time>
      </trkpt>
      <trkpt lat="45.64498" lon="5.30052">
        <ele>221</ele>
        <time>2021-04-04T09:47:43.028Z</time>
      </trkpt>
      <trkpt lat="45.64493" lon="5.30043">
        <ele>222</ele>
        <time>2021-04-04T09:47:44.027Z</time>
      </trkpt>
      <trkpt lat="45.64487" lon="5.30033">
        <ele>222</ele>
        <time>2021-04-04T09:47:45.028Z</time>
      </trkpt>
      <trkpt lat="45.64481" lon="5.30024">
        <ele>222</ele>
        <time>2021-04-04T09:47:46.028Z</time>
      </trkpt>
      <trkpt lat="45.64475" lon="5.30015">
        <ele>223</ele>
        <time>2021-04-04T09:47:47.028Z</time>
      </trkpt>
      <trkpt lat="45.64469" lon="5.30007">
        <ele>223</ele>
        <time>2021-04-04T09:47:48.028Z</time>
      </trkpt>
      <trkpt lat="45.64463" lon="5.29998">
        <ele>223</ele>
        <time>2021-04-04T09:47:49.028Z</time>
      </trkpt>
      <trkpt lat="45.64457" lon="5.29989">
        <ele>223</ele>
        <time>2021-04-04T09:47:50.027Z</time>
      </trkpt>
      <trkpt lat="45.64451" lon="5.29981">
        <ele>223</ele>
        <time>2021-04-04T09:47:51.028Z</time>
      </trkpt>
      <trkpt lat="45.64445" lon="5.29973">
        <ele>223</ele>
        <time>2021-04-04T09:47:52.027Z</time>
      </trkpt>
      <trkpt lat="45.6444" lon="5.29964">
        <ele>223</ele>
        <time>2021-04-04T09:47:53.028Z</time>
      </trkpt>
      <trkpt lat="45.64434" lon="5.29956">
        <ele>223</ele>
        <time>2021-04-04T09:47:54.028Z</time>
      </trkpt>
      <trkpt lat="45.64428" lon="5.29948">
        <ele>222</ele>
        <time>2021-04-04T09:47:55.028Z</time>
      </trkpt>
      <trkpt lat="45.64422" lon="5.2994">
        <ele>222</ele>
        <time>2021-04-04T09:47:56.027Z</time>
      </trkpt>
      <trkpt lat="45.64417" lon="5.29933">
        <ele>223</ele>
        <time>2021-04-04T09:47:57.028Z</time>
      </trkpt>
      <trkpt lat="45.64411" lon="5.29925">
        <ele>223</ele>
        <time>2021-04-04T09:47:58.028Z</time>
      </trkpt>
      <trkpt lat="45.64406" lon="5.29917">
        <ele>223</ele>
        <time>2021-04-04T09:47:59.028Z</time>
      </trkpt>
      <trkpt lat="45.644" lon="5.2991">
        <ele>223</ele>
        <time>2021-04-04T09:48:00.028Z</time>
      </trkpt>
      <trkpt lat="45.64395" lon="5.29902">
        <ele>223</ele>
        <time>2021-04-04T09:48:01.028Z</time>
      </trkpt>
      <trkpt lat="45.64389" lon="5.29894">
        <ele>223</ele>
        <time>2021-04-04T09:48:02.027Z</time>
      </trkpt>
      <trkpt lat="45.64384" lon="5.29886">
        <ele>223</ele>
        <time>2021-04-04T09:48:03.027Z</time>
      </trkpt>
      <trkpt lat="45.64378" lon="5.29878">
        <ele>223</ele>
        <time>2021-04-04T09:48:04.027Z</time>
      </trkpt>
      <trkpt lat="45.64372" lon="5.2987">
        <ele>222</ele>
        <time>2021-04-04T09:48:05.027Z</time>
      </trkpt>
      <trkpt lat="45.64366" lon="5.29861">
        <ele>222</ele>
        <time>2021-04-04T09:48:06.028Z</time>
      </trkpt>
      <trkpt lat="45.6436" lon="5.29853">
        <ele>222</ele>
        <time>2021-04-04T09:48:07.028Z</time>
      </trkpt>
      <trkpt lat="45.64354" lon="5.29845">
        <ele>221</ele>
        <time>2021-04-04T09:48:08.028Z</time>
      </trkpt>
      <trkpt lat="45.64348" lon="5.29837">
        <ele>222</ele>
        <time>2021-04-04T09:48:09.028Z</time>
      </trkpt>
      <trkpt lat="45.64343" lon="5.29828">
        <ele>222</ele>
        <time>2021-04-04T09:48:10.028Z</time>
      </trkpt>
      <trkpt lat="45.64337" lon="5.2982">
        <ele>222</ele>
        <time>2021-04-04T09:48:11.027Z</time>
      </trkpt>
      <trkpt lat="45.64331" lon="5.29812">
        <ele>222</ele>
        <time>2021-04-04T09:48:12.027Z</time>
      </trkpt>
      <trkpt lat="45.64325" lon="5.29804">
        <ele>222</ele>
        <time>2021-04-04T09:48:13.028Z</time>
      </trkpt>
      <trkpt lat="45.64319" lon="5.29796">
        <ele>221</ele>
        <time>2021-04-04T09:48:14.028Z</time>
      </trkpt>
      <trkpt lat="45.64313" lon="5.29787">
        <ele>221</ele>
        <time>2021-04-04T09:48:15.028Z</time>
      </trkpt>
      <trkpt lat="45.64308" lon="5.2978">
        <ele>221</ele>
        <time>2021-04-04T09:48:16.028Z</time>
      </trkpt>
      <trkpt lat="45.64302" lon="5.29772">
        <ele>221</ele>
        <time>2021-04-04T09:48:17.027Z</time>
      </trkpt>
      <trkpt lat="45.64296" lon="5.29764">
        <ele>221</ele>
        <time>2021-04-04T09:48:18.028Z</time>
      </trkpt>
      <trkpt lat="45.6429" lon="5.29756">
        <ele>222</ele>
        <time>2021-04-04T09:48:19.028Z</time>
      </trkpt>
      <trkpt lat="45.64284" lon="5.29749">
        <ele>221</ele>
        <time>2021-04-04T09:48:20.028Z</time>
      </trkpt>
      <trkpt lat="45.64277" lon="5.29741">
        <ele>221</ele>
        <time>2021-04-04T09:48:21.027Z</time>
      </trkpt>
      <trkpt lat="45.64271" lon="5.29734">
        <ele>221</ele>
        <time>2021-04-04T09:48:22.028Z</time>
      </trkpt>
      <trkpt lat="45.64264" lon="5.29727">
        <ele>221</ele>
        <time>2021-04-04T09:48:23.028Z</time>
      </trkpt>
      <trkpt lat="45.64257" lon="5.29721">
        <ele>222</ele>
        <time>2021-04-04T09:48:24.028Z</time>
      </trkpt>
      <trkpt lat="45.6425" lon="5.29715">
        <ele>221</ele>
        <time>2021-04-04T09:48:25.028Z</time>
      </trkpt>
      <trkpt lat="45.64243" lon="5.2971">
        <ele>221</ele>
        <time>2021-04-04T09:48:26.027Z</time>
      </trkpt>
      <trkpt lat="45.64236" lon="5.29705">
        <ele>222</ele>
        <time>2021-04-04T09:48:27.028Z</time>
      </trkpt>
      <trkpt lat="45.64229" lon="5.297">
        <ele>222</ele>
        <time>2021-04-04T09:48:28.028Z</time>
      </trkpt>
      <trkpt lat="45.64221" lon="5.29696">
        <ele>222</ele>
        <time>2021-04-04T09:48:29.028Z</time>
      </trkpt>
      <trkpt lat="45.64214" lon="5.29693">
        <ele>222</ele>
        <time>2021-04-04T09:48:30.028Z</time>
      </trkpt>
      <trkpt lat="45.64206" lon="5.2969">
        <ele>222</ele>
        <time>2021-04-04T09:48:31.027Z</time>
      </trkpt>
      <trkpt lat="45.64198" lon="5.29687">
        <ele>222</ele>
        <time>2021-04-04T09:48:32.028Z</time>
      </trkpt>
      <trkpt lat="45.6419" lon="5.29684">
        <ele>222</ele>
        <time>2021-04-04T09:48:33.028Z</time>
      </trkpt>
      <trkpt lat="45.64182" lon="5.29682">
        <ele>223</ele>
        <time>2021-04-04T09:48:34.028Z</time>
      </trkpt>
      <trkpt lat="45.64174" lon="5.2968">
        <ele>223</ele>
        <time>2021-04-04T09:48:35.028Z</time>
      </trkpt>
      <trkpt lat="45.64166" lon="5.29679">
        <ele>223</ele>
        <time>2021-04-04T09:48:36.028Z</time>
      </trkpt>
      <trkpt lat="45.64158" lon="5.29678">
        <ele>223</ele>
        <time>2021-04-04T09:48:37.027Z</time>
      </trkpt>
      <trkpt lat="45.64149" lon="5.29677">
        <ele>223</ele>
        <time>2021-04-04T09:48:38.028Z</time>
      </trkpt>
      <trkpt lat="45.64141" lon="5.29676">
        <ele>223</ele>
        <time>2021-04-04T09:48:39.028Z</time>
      </trkpt>
      <trkpt lat="45.64133" lon="5.29674">
        <ele>223</ele>
        <time>2021-04-04T09:48:40.028Z</time>
      </trkpt>
      <trkpt lat="45.64125" lon="5.29673">
        <ele>223</ele>
        <time>2021-04-04T09:48:41.027Z</time>
      </trkpt>
      <trkpt lat="45.64117" lon="5.29672">
        <ele>223</ele>
        <time>2021-04-04T09:48:42.028Z</time>
      </trkpt>
      <trkpt lat="45.64109" lon="5.29671">
        <ele>224</ele>
        <time>2021-04-04T09:48:43.028Z</time>
      </trkpt>
      <trkpt lat="45.64101" lon="5.2967">
        <ele>224</ele>
        <time>2021-04-04T09:48:44.028Z</time>
      </trkpt>
      <trkpt lat="45.64093" lon="5.29668">
        <ele>224</ele>
        <time>2021-04-04T09:48:45.028Z</time>
      </trkpt>
      <trkpt lat="45.64085" lon="5.29667">
        <ele>224</ele>
        <time>2021-04-04T09:48:46.028Z</time>
      </trkpt>
      <trkpt lat="45.64077" lon="5.29666">
        <ele>224</ele>
        <time>2021-04-04T09:48:47.027Z</time>
      </trkpt>
      <trkpt lat="45.6407" lon="5.29665">
        <ele>224</ele>
        <time>2021-04-04T09:48:48.028Z</time>
      </trkpt>
      <trkpt lat="45.64062" lon="5.29664">
        <ele>224</ele>
        <time>2021-04-04T09:48:49.028Z</time>
      </trkpt>
      <trkpt lat="45.64054" lon="5.29663">
        <ele>224</ele>
        <time>2021-04-04T09:48:50.028Z</time>
      </trkpt>
      <trkpt lat="45.64046" lon="5.29662">
        <ele>224</ele>
        <time>2021-04-04T09:48:51.028Z</time>
      </trkpt>
      <trkpt lat="45.64038" lon="5.29661">
        <ele>224</ele>
        <time>2021-04-04T09:48:52.028Z</time>
      </trkpt>
      <trkpt lat="45.6403" lon="5.2966">
        <ele>223</ele>
        <time>2021-04-04T09:48:53.028Z</time>
      </trkpt>
      <trkpt lat="45.64022" lon="5.29659">
        <ele>223</ele>
        <time>2021-04-04T09:48:54.028Z</time>
      </trkpt>
      <trkpt lat="45.64015" lon="5.29658">
        <ele>224</ele>
        <time>2021-04-04T09:48:55.028Z</time>
      </trkpt>
      <trkpt lat="45.64007" lon="5.29657">
        <ele>223</ele>
        <time>2021-04-04T09:48:56.028Z</time>
      </trkpt>
      <trkpt lat="45.63999" lon="5.29655">
        <ele>223</ele>
        <time>2021-04-04T09:48:57.028Z</time>
      </trkpt>
      <trkpt lat="45.63991" lon="5.29654">
        <ele>223</ele>
        <time>2021-04-04T09:48:58.027Z</time>
      </trkpt>
      <trkpt lat="45.63984" lon="5.29653">
        <ele>223</ele>
        <time>2021-04-04T09:48:59.028Z</time>
      </trkpt>
      <trkpt lat="45.63976" lon="5.29652">
        <ele>223</ele>
        <time>2021-04-04T09:49:00.028Z</time>
      </trkpt>
      <trkpt lat="45.63969" lon="5.29651">
        <ele>223</ele>
        <time>2021-04-04T09:49:01.028Z</time>
      </trkpt>
      <trkpt lat="45.63961" lon="5.2965">
        <ele>223</ele>
        <time>2021-04-04T09:49:02.028Z</time>
      </trkpt>
      <trkpt lat="45.63954" lon="5.29648">
        <ele>223</ele>
        <time>2021-04-04T09:49:03.028Z</time>
      </trkpt>
      <trkpt lat="45.63947" lon="5.29647">
        <ele>223</ele>
        <time>2021-04-04T09:49:04.027Z</time>
      </trkpt>
      <trkpt lat="45.63939" lon="5.29646">
        <ele>223</ele>
        <time>2021-04-04T09:49:05.028Z</time>
      </trkpt>
      <trkpt lat="45.63932" lon="5.29645">
        <ele>223</ele>
        <time>2021-04-04T09:49:06.028Z</time>
      </trkpt>
      <trkpt lat="45.63925" lon="5.29644">
        <ele>223</ele>
        <time>2021-04-04T09:49:07.027Z</time>
      </trkpt>
      <trkpt lat="45.63918" lon="5.29643">
        <ele>223</ele>
        <time>2021-04-04T09:49:08.028Z</time>
      </trkpt>
      <trkpt lat="45.6391" lon="5.29642">
        <ele>223</ele>
        <time>2021-04-04T09:49:09.028Z</time>
      </trkpt>
      <trkpt lat="45.63903" lon="5.29641">
        <ele>223</ele>
        <time>2021-04-04T09:49:10.028Z</time>
      </trkpt>
      <trkpt lat="45.63896" lon="5.2964">
        <ele>223</ele>
        <time>2021-04-04T09:49:11.028Z</time>
      </trkpt>
      <trkpt lat="45.63889" lon="5.29638">
        <ele>223</ele>
        <time>2021-04-04T09:49:12.028Z</time>
      </trkpt>
      <trkpt lat="45.63882" lon="5.29637">
        <ele>223</ele>
        <time>2021-04-04T09:49:13.027Z</time>
      </trkpt>
      <trkpt lat="45.63874" lon="5.29636">
        <ele>223</ele>
        <time>2021-04-04T09:49:14.028Z</time>
      </trkpt>
      <trkpt lat="45.63867" lon="5.29635">
        <ele>223</ele>
        <time>2021-04-04T09:49:15.028Z</time>
      </trkpt>
      <trkpt lat="45.6386" lon="5.29634">
        <ele>223</ele>
        <time>2021-04-04T09:49:16.027Z</time>
      </trkpt>
      <trkpt lat="45.63853" lon="5.29633">
        <ele>224</ele>
        <time>2021-04-04T09:49:17.027Z</time>
      </trkpt>
      <trkpt lat="45.63846" lon="5.29631">
        <ele>225</ele>
        <time>2021-04-04T09:49:18.028Z</time>
      </trkpt>
      <trkpt lat="45.63839" lon="5.2963">
        <ele>226</ele>
        <time>2021-04-04T09:49:19.028Z</time>
      </trkpt>
      <trkpt lat="45.63832" lon="5.29629">
        <ele>226</ele>
        <time>2021-04-04T09:49:20.028Z</time>
      </trkpt>
      <trkpt lat="45.63824" lon="5.29628">
        <ele>226</ele>
        <time>2021-04-04T09:49:21.028Z</time>
      </trkpt>
      <trkpt lat="45.63816" lon="5.29627">
        <ele>226</ele>
        <time>2021-04-04T09:49:22.028Z</time>
      </trkpt>
      <trkpt lat="45.6381" lon="5.29626">
        <ele>226</ele>
        <time>2021-04-04T09:49:23.028Z</time>
      </trkpt>
      <trkpt lat="45.63802" lon="5.29625">
        <ele>226</ele>
        <time>2021-04-04T09:49:24.027Z</time>
      </trkpt>
      <trkpt lat="45.63795" lon="5.29624">
        <ele>226</ele>
        <time>2021-04-04T09:49:25.028Z</time>
      </trkpt>
      <trkpt lat="45.63788" lon="5.29623">
        <ele>226</ele>
        <time>2021-04-04T09:49:26.028Z</time>
      </trkpt>
      <trkpt lat="45.63781" lon="5.29622">
        <ele>226</ele>
        <time>2021-04-04T09:49:27.028Z</time>
      </trkpt>
      <trkpt lat="45.63773" lon="5.29621">
        <ele>226</ele>
        <time>2021-04-04T09:49:28.028Z</time>
      </trkpt>
      <trkpt lat="45.63766" lon="5.2962">
        <ele>226</ele>
        <time>2021-04-04T09:49:29.027Z</time>
      </trkpt>
      <trkpt lat="45.63759" lon="5.29619">
        <ele>226</ele>
        <time>2021-04-04T09:49:30.028Z</time>
      </trkpt>
      <trkpt lat="45.63752" lon="5.29617">
        <ele>226</ele>
        <time>2021-04-04T09:49:31.027Z</time>
      </trkpt>
      <trkpt lat="45.63744" lon="5.29616">
        <ele>226</ele>
        <time>2021-04-04T09:49:32.028Z</time>
      </trkpt>
      <trkpt lat="45.63737" lon="5.29615">
        <ele>226</ele>
        <time>2021-04-04T09:49:33.028Z</time>
      </trkpt>
      <trkpt lat="45.6373" lon="5.29613">
        <ele>226</ele>
        <time>2021-04-04T09:49:34.028Z</time>
      </trkpt>
      <trkpt lat="45.63723" lon="5.29612">
        <ele>226</ele>
        <time>2021-04-04T09:49:35.028Z</time>
      </trkpt>
      <trkpt lat="45.63713" lon="5.29611">
        <ele>227</ele>
        <time>2021-04-04T09:49:36.028Z</time>
      </trkpt>
      <trkpt lat="45.63708" lon="5.2961">
        <ele>227</ele>
        <time>2021-04-04T09:49:37.027Z</time>
      </trkpt>
      <trkpt lat="45.637" lon="5.29609">
        <ele>227</ele>
        <time>2021-04-04T09:49:38.028Z</time>
      </trkpt>
      <trkpt lat="45.63693" lon="5.29607">
        <ele>227</ele>
        <time>2021-04-04T09:49:39.028Z</time>
      </trkpt>
      <trkpt lat="45.63685" lon="5.29606">
        <ele>227</ele>
        <time>2021-04-04T09:49:40.028Z</time>
      </trkpt>
      <trkpt lat="45.63678" lon="5.29605">
        <ele>227</ele>
        <time>2021-04-04T09:49:41.028Z</time>
      </trkpt>
      <trkpt lat="45.6367" lon="5.29605">
        <ele>227</ele>
        <time>2021-04-04T09:49:42.028Z</time>
      </trkpt>
      <trkpt lat="45.63663" lon="5.29604">
        <ele>228</ele>
        <time>2021-04-04T09:49:43.028Z</time>
      </trkpt>
      <trkpt lat="45.63656" lon="5.29602">
        <ele>228</ele>
        <time>2021-04-04T09:49:44.028Z</time>
      </trkpt>
      <trkpt lat="45.63648" lon="5.29601">
        <ele>228</ele>
        <time>2021-04-04T09:49:45.028Z</time>
      </trkpt>
      <trkpt lat="45.6364" lon="5.296">
        <ele>228</ele>
        <time>2021-04-04T09:49:46.028Z</time>
      </trkpt>
      <trkpt lat="45.63633" lon="5.29599">
        <ele>228</ele>
        <time>2021-04-04T09:49:47.028Z</time>
      </trkpt>
      <trkpt lat="45.63625" lon="5.29598">
        <ele>228</ele>
        <time>2021-04-04T09:49:48.027Z</time>
      </trkpt>
      <trkpt lat="45.63618" lon="5.29596">
        <ele>227</ele>
        <time>2021-04-04T09:49:49.028Z</time>
      </trkpt>
      <trkpt lat="45.6361" lon="5.29595">
        <ele>227</ele>
        <time>2021-04-04T09:49:50.028Z</time>
      </trkpt>
      <trkpt lat="45.63602" lon="5.29594">
        <ele>227</ele>
        <time>2021-04-04T09:49:51.028Z</time>
      </trkpt>
      <trkpt lat="45.63594" lon="5.29593">
        <ele>227</ele>
        <time>2021-04-04T09:49:52.027Z</time>
      </trkpt>
      <trkpt lat="45.63586" lon="5.29592">
        <ele>227</ele>
        <time>2021-04-04T09:49:53.027Z</time>
      </trkpt>
      <trkpt lat="45.63578" lon="5.2959">
        <ele>226</ele>
        <time>2021-04-04T09:49:54.028Z</time>
      </trkpt>
      <trkpt lat="45.6357" lon="5.29589">
        <ele>226</ele>
        <time>2021-04-04T09:49:55.027Z</time>
      </trkpt>
      <trkpt lat="45.63562" lon="5.29588">
        <ele>226</ele>
        <time>2021-04-04T09:49:56.027Z</time>
      </trkpt>
      <trkpt lat="45.63554" lon="5.29587">
        <ele>226</ele>
        <time>2021-04-04T09:49:57.028Z</time>
      </trkpt>
      <trkpt lat="45.63545" lon="5.29586">
        <ele>226</ele>
        <time>2021-04-04T09:49:58.028Z</time>
      </trkpt>
      <trkpt lat="45.63537" lon="5.29584">
        <ele>226</ele>
        <time>2021-04-04T09:49:59.028Z</time>
      </trkpt>
      <trkpt lat="45.63529" lon="5.29583">
        <ele>227</ele>
        <time>2021-04-04T09:50:00.028Z</time>
      </trkpt>
      <trkpt lat="45.63521" lon="5.29582">
        <ele>227</ele>
        <time>2021-04-04T09:50:01.028Z</time>
      </trkpt>
      <trkpt lat="45.63512" lon="5.29581">
        <ele>227</ele>
        <time>2021-04-04T09:50:02.028Z</time>
      </trkpt>
      <trkpt lat="45.63504" lon="5.29579">
        <ele>227</ele>
        <time>2021-04-04T09:50:03.028Z</time>
      </trkpt>
      <trkpt lat="45.63496" lon="5.29578">
        <ele>227</ele>
        <time>2021-04-04T09:50:04.027Z</time>
      </trkpt>
      <trkpt lat="45.63487" lon="5.29576">
        <ele>226</ele>
        <time>2021-04-04T09:50:05.028Z</time>
      </trkpt>
      <trkpt lat="45.63478" lon="5.29575">
        <ele>226</ele>
        <time>2021-04-04T09:50:06.028Z</time>
      </trkpt>
      <trkpt lat="45.6347" lon="5.29574">
        <ele>226</ele>
        <time>2021-04-04T09:50:07.028Z</time>
      </trkpt>
      <trkpt lat="45.63462" lon="5.29572">
        <ele>226</ele>
        <time>2021-04-04T09:50:08.028Z</time>
      </trkpt>
      <trkpt lat="45.63453" lon="5.2957">
        <ele>226</ele>
        <time>2021-04-04T09:50:09.028Z</time>
      </trkpt>
      <trkpt lat="45.63444" lon="5.29568">
        <ele>226</ele>
        <time>2021-04-04T09:50:10.027Z</time>
      </trkpt>
      <trkpt lat="45.63436" lon="5.29565">
        <ele>226</ele>
        <time>2021-04-04T09:50:11.027Z</time>
      </trkpt>
      <trkpt lat="45.63428" lon="5.29562">
        <ele>225</ele>
        <time>2021-04-04T09:50:12.027Z</time>
      </trkpt>
      <trkpt lat="45.6342" lon="5.29558">
        <ele>225</ele>
        <time>2021-04-04T09:50:13.027Z</time>
      </trkpt>
      <trkpt lat="45.63412" lon="5.29554">
        <ele>225</ele>
        <time>2021-04-04T09:50:14.028Z</time>
      </trkpt>
      <trkpt lat="45.63404" lon="5.29549">
        <ele>225</ele>
        <time>2021-04-04T09:50:15.028Z</time>
      </trkpt>
      <trkpt lat="45.63396" lon="5.29544">
        <ele>225</ele>
        <time>2021-04-04T09:50:16.028Z</time>
      </trkpt>
      <trkpt lat="45.63388" lon="5.29539">
        <ele>225</ele>
        <time>2021-04-04T09:50:17.028Z</time>
      </trkpt>
      <trkpt lat="45.63381" lon="5.29533">
        <ele>225</ele>
        <time>2021-04-04T09:50:18.028Z</time>
      </trkpt>
      <trkpt lat="45.63373" lon="5.29527">
        <ele>225</ele>
        <time>2021-04-04T09:50:19.028Z</time>
      </trkpt>
      <trkpt lat="45.63366" lon="5.29521">
        <ele>225</ele>
        <time>2021-04-04T09:50:20.027Z</time>
      </trkpt>
      <trkpt lat="45.63359" lon="5.29514">
        <ele>224</ele>
        <time>2021-04-04T09:50:21.027Z</time>
      </trkpt>
      <trkpt lat="45.63353" lon="5.29507">
        <ele>224</ele>
        <time>2021-04-04T09:50:22.028Z</time>
      </trkpt>
      <trkpt lat="45.63347" lon="5.295">
        <ele>224</ele>
        <time>2021-04-04T09:50:23.028Z</time>
      </trkpt>
      <trkpt lat="45.63341" lon="5.29493">
        <ele>223</ele>
        <time>2021-04-04T09:50:24.028Z</time>
      </trkpt>
      <trkpt lat="45.63335" lon="5.29486">
        <ele>223</ele>
        <time>2021-04-04T09:50:25.028Z</time>
      </trkpt>
      <trkpt lat="45.63328" lon="5.29479">
        <ele>223</ele>
        <time>2021-04-04T09:50:26.028Z</time>
      </trkpt>
      <trkpt lat="45.63322" lon="5.29472">
        <ele>223</ele>
        <time>2021-04-04T09:50:27.028Z</time>
      </trkpt>
      <trkpt lat="45.63316" lon="5.29465">
        <ele>222</ele>
        <time>2021-04-04T09:50:28.028Z</time>
      </trkpt>
      <trkpt lat="45.63309" lon="5.29458">
        <ele>222</ele>
        <time>2021-04-04T09:50:29.028Z</time>
      </trkpt>
      <trkpt lat="45.63303" lon="5.29451">
        <ele>221</ele>
        <time>2021-04-04T09:50:30.028Z</time>
      </trkpt>
      <trkpt lat="45.63297" lon="5.29445">
        <ele>221</ele>
        <time>2021-04-04T09:50:31.028Z</time>
      </trkpt>
      <trkpt lat="45.6329" lon="5.29438">
        <ele>220</ele>
        <time>2021-04-04T09:50:32.027Z</time>
      </trkpt>
      <trkpt lat="45.63284" lon="5.29431">
        <ele>220</ele>
        <time>2021-04-04T09:50:33.028Z</time>
      </trkpt>
      <trkpt lat="45.63278" lon="5.29425">
        <ele>220</ele>
        <time>2021-04-04T09:50:34.028Z</time>
      </trkpt>
      <trkpt lat="45.63271" lon="5.29418">
        <ele>219</ele>
        <time>2021-04-04T09:50:35.028Z</time>
      </trkpt>
      <trkpt lat="45.63265" lon="5.29411">
        <ele>218</ele>
        <time>2021-04-04T09:50:36.028Z</time>
      </trkpt>
      <trkpt lat="45.63259" lon="5.29405">
        <ele>217</ele>
        <time>2021-04-04T09:50:37.028Z</time>
      </trkpt>
      <trkpt lat="45.63253" lon="5.29397">
        <ele>216</ele>
        <time>2021-04-04T09:50:38.028Z</time>
      </trkpt>
      <trkpt lat="45.63246" lon="5.2939">
        <ele>216</ele>
        <time>2021-04-04T09:50:39.028Z</time>
      </trkpt>
      <trkpt lat="45.6324" lon="5.29383">
        <ele>215</ele>
        <time>2021-04-04T09:50:40.028Z</time>
      </trkpt>
      <trkpt lat="45.63234" lon="5.29375">
        <ele>215</ele>
        <time>2021-04-04T09:50:41.028Z</time>
      </trkpt>
      <trkpt lat="45.63227" lon="5.29368">
        <ele>215</ele>
        <time>2021-04-04T09:50:42.028Z</time>
      </trkpt>
      <trkpt lat="45.63221" lon="5.2936">
        <ele>215</ele>
        <time>2021-04-04T09:50:43.028Z</time>
      </trkpt>
      <trkpt lat="45.63215" lon="5.29353">
        <ele>215</ele>
        <time>2021-04-04T09:50:44.028Z</time>
      </trkpt>
      <trkpt lat="45.63209" lon="5.29345">
        <ele>216</ele>
        <time>2021-04-04T09:50:45.028Z</time>
      </trkpt>
      <trkpt lat="45.63203" lon="5.29337">
        <ele>216</ele>
        <time>2021-04-04T09:50:46.028Z</time>
      </trkpt>
      <trkpt lat="45.63197" lon="5.29329">
        <ele>217</ele>
        <time>2021-04-04T09:50:47.027Z</time>
      </trkpt>
      <trkpt lat="45.63191" lon="5.29322">
        <ele>217</ele>
        <time>2021-04-04T09:50:48.028Z</time>
      </trkpt>
      <trkpt lat="45.63185" lon="5.29314">
        <ele>218</ele>
        <time>2021-04-04T09:50:49.028Z</time>
      </trkpt>
      <trkpt lat="45.63179" lon="5.29306">
        <ele>218</ele>
        <time>2021-04-04T09:50:50.028Z</time>
      </trkpt>
      <trkpt lat="45.63173" lon="5.29299">
        <ele>217</ele>
        <time>2021-04-04T09:50:51.027Z</time>
      </trkpt>
      <trkpt lat="45.63167" lon="5.29291">
        <ele>217</ele>
        <time>2021-04-04T09:50:52.027Z</time>
      </trkpt>
      <trkpt lat="45.63162" lon="5.29284">
        <ele>217</ele>
        <time>2021-04-04T09:50:53.028Z</time>
      </trkpt>
      <trkpt lat="45.63156" lon="5.29276">
        <ele>217</ele>
        <time>2021-04-04T09:50:54.027Z</time>
      </trkpt>
      <trkpt lat="45.6315" lon="5.29269">
        <ele>218</ele>
        <time>2021-04-04T09:50:55.028Z</time>
      </trkpt>
      <trkpt lat="45.63144" lon="5.29261">
        <ele>218</ele>
        <time>2021-04-04T09:50:56.027Z</time>
      </trkpt>
      <trkpt lat="45.63138" lon="5.29254">
        <ele>218</ele>
        <time>2021-04-04T09:50:57.028Z</time>
      </trkpt>
      <trkpt lat="45.63133" lon="5.29247">
        <ele>218</ele>
        <time>2021-04-04T09:50:58.028Z</time>
      </trkpt>
      <trkpt lat="45.63127" lon="5.29239">
        <ele>217</ele>
        <time>2021-04-04T09:50:59.028Z</time>
      </trkpt>
      <trkpt lat="45.63121" lon="5.29232">
        <ele>217</ele>
        <time>2021-04-04T09:51:00.028Z</time>
      </trkpt>
      <trkpt lat="45.63116" lon="5.29225">
        <ele>217</ele>
        <time>2021-04-04T09:51:01.028Z</time>
      </trkpt>
      <trkpt lat="45.6311" lon="5.29218">
        <ele>216</ele>
        <time>2021-04-04T09:51:02.027Z</time>
      </trkpt>
      <trkpt lat="45.63104" lon="5.29211">
        <ele>216</ele>
        <time>2021-04-04T09:51:03.028Z</time>
      </trkpt>
      <trkpt lat="45.63098" lon="5.29204">
        <ele>216</ele>
        <time>2021-04-04T09:51:04.027Z</time>
      </trkpt>
      <trkpt lat="45.63093" lon="5.29196">
        <ele>216</ele>
        <time>2021-04-04T09:51:05.027Z</time>
      </trkpt>
      <trkpt lat="45.63087" lon="5.29189">
        <ele>216</ele>
        <time>2021-04-04T09:51:06.028Z</time>
      </trkpt>
      <trkpt lat="45.63081" lon="5.29182">
        <ele>216</ele>
        <time>2021-04-04T09:51:07.028Z</time>
      </trkpt>
      <trkpt lat="45.63076" lon="5.29175">
        <ele>215</ele>
        <time>2021-04-04T09:51:08.028Z</time>
      </trkpt>
      <trkpt lat="45.6307" lon="5.29168">
        <ele>216</ele>
        <time>2021-04-04T09:51:09.028Z</time>
      </trkpt>
      <trkpt lat="45.63065" lon="5.29161">
        <ele>216</ele>
        <time>2021-04-04T09:51:10.028Z</time>
      </trkpt>
      <trkpt lat="45.63059" lon="5.29153">
        <ele>217</ele>
        <time>2021-04-04T09:51:11.027Z</time>
      </trkpt>
      <trkpt lat="45.63054" lon="5.29146">
        <ele>218</ele>
        <time>2021-04-04T09:51:12.028Z</time>
      </trkpt>
      <trkpt lat="45.63048" lon="5.29138">
        <ele>218</ele>
        <time>2021-04-04T09:51:13.028Z</time>
      </trkpt>
      <trkpt lat="45.63042" lon="5.29131">
        <ele>219</ele>
        <time>2021-04-04T09:51:14.028Z</time>
      </trkpt>
      <trkpt lat="45.63036" lon="5.29123">
        <ele>219</ele>
        <time>2021-04-04T09:51:15.027Z</time>
      </trkpt>
      <trkpt lat="45.6303" lon="5.29116">
        <ele>219</ele>
        <time>2021-04-04T09:51:16.027Z</time>
      </trkpt>
      <trkpt lat="45.63025" lon="5.29108">
        <ele>219</ele>
        <time>2021-04-04T09:51:17.028Z</time>
      </trkpt>
      <trkpt lat="45.63019" lon="5.29101">
        <ele>218</ele>
        <time>2021-04-04T09:51:18.028Z</time>
      </trkpt>
      <trkpt lat="45.63013" lon="5.29094">
        <ele>218</ele>
        <time>2021-04-04T09:51:19.028Z</time>
      </trkpt>
      <trkpt lat="45.63007" lon="5.29086">
        <ele>218</ele>
        <time>2021-04-04T09:51:20.027Z</time>
      </trkpt>
      <trkpt lat="45.63001" lon="5.29079">
        <ele>218</ele>
        <time>2021-04-04T09:51:21.028Z</time>
      </trkpt>
      <trkpt lat="45.62995" lon="5.29071">
        <ele>218</ele>
        <time>2021-04-04T09:51:22.028Z</time>
      </trkpt>
      <trkpt lat="45.6299" lon="5.29064">
        <ele>218</ele>
        <time>2021-04-04T09:51:23.027Z</time>
      </trkpt>
      <trkpt lat="45.62984" lon="5.29057">
        <ele>218</ele>
        <time>2021-04-04T09:51:24.028Z</time>
      </trkpt>
      <trkpt lat="45.62979" lon="5.2905">
        <ele>217</ele>
        <time>2021-04-04T09:51:25.028Z</time>
      </trkpt>
      <trkpt lat="45.62973" lon="5.29042">
        <ele>217</ele>
        <time>2021-04-04T09:51:26.028Z</time>
      </trkpt>
      <trkpt lat="45.62968" lon="5.29036">
        <ele>217</ele>
        <time>2021-04-04T09:51:27.027Z</time>
      </trkpt>
      <trkpt lat="45.62961" lon="5.29027">
        <ele>217</ele>
        <time>2021-04-04T09:51:28.028Z</time>
      </trkpt>
      <trkpt lat="45.62956" lon="5.29021">
        <ele>217</ele>
        <time>2021-04-04T09:51:29.027Z</time>
      </trkpt>
      <trkpt lat="45.62948" lon="5.29012">
        <ele>217</ele>
        <time>2021-04-04T09:51:30.028Z</time>
      </trkpt>
      <trkpt lat="45.62943" lon="5.29005">
        <ele>217</ele>
        <time>2021-04-04T09:51:31.028Z</time>
      </trkpt>
      <trkpt lat="45.62937" lon="5.28997">
        <ele>217</ele>
        <time>2021-04-04T09:51:32.028Z</time>
      </trkpt>
      <trkpt lat="45.62932" lon="5.2899">
        <ele>217</ele>
        <time>2021-04-04T09:51:33.027Z</time>
      </trkpt>
      <trkpt lat="45.62925" lon="5.28983">
        <ele>217</ele>
        <time>2021-04-04T09:51:34.028Z</time>
      </trkpt>
      <trkpt lat="45.6292" lon="5.28975">
        <ele>217</ele>
        <time>2021-04-04T09:51:35.027Z</time>
      </trkpt>
      <trkpt lat="45.62914" lon="5.28967">
        <ele>218</ele>
        <time>2021-04-04T09:51:36.027Z</time>
      </trkpt>
      <trkpt lat="45.62908" lon="5.2896">
        <ele>218</ele>
        <time>2021-04-04T09:51:37.028Z</time>
      </trkpt>
      <trkpt lat="45.62902" lon="5.28951">
        <ele>218</ele>
        <time>2021-04-04T09:51:38.027Z</time>
      </trkpt>
      <trkpt lat="45.62896" lon="5.28944">
        <ele>218</ele>
        <time>2021-04-04T09:51:39.027Z</time>
      </trkpt>
      <trkpt lat="45.6289" lon="5.28936">
        <ele>218</ele>
        <time>2021-04-04T09:51:40.028Z</time>
      </trkpt>
      <trkpt lat="45.62884" lon="5.28929">
        <ele>218</ele>
        <time>2021-04-04T09:51:41.028Z</time>
      </trkpt>
      <trkpt lat="45.62878" lon="5.28921">
        <ele>218</ele>
        <time>2021-04-04T09:51:42.028Z</time>
      </trkpt>
      <trkpt lat="45.62874" lon="5.28915">
        <ele>218</ele>
        <time>2021-04-04T09:51:43.028Z</time>
      </trkpt>
      <trkpt lat="45.62867" lon="5.28905">
        <ele>217</ele>
        <time>2021-04-04T09:51:44.028Z</time>
      </trkpt>
      <trkpt lat="45.62861" lon="5.28898">
        <ele>217</ele>
        <time>2021-04-04T09:51:45.028Z</time>
      </trkpt>
      <trkpt lat="45.62855" lon="5.2889">
        <ele>216</ele>
        <time>2021-04-04T09:51:46.028Z</time>
      </trkpt>
      <trkpt lat="45.62849" lon="5.28882">
        <ele>216</ele>
        <time>2021-04-04T09:51:47.027Z</time>
      </trkpt>
      <trkpt lat="45.62842" lon="5.28874">
        <ele>216</ele>
        <time>2021-04-04T09:51:48.028Z</time>
      </trkpt>
      <trkpt lat="45.62836" lon="5.28866">
        <ele>216</ele>
        <time>2021-04-04T09:51:49.028Z</time>
      </trkpt>
      <trkpt lat="45.6283" lon="5.28858">
        <ele>216</ele>
        <time>2021-04-04T09:51:50.027Z</time>
      </trkpt>
      <trkpt lat="45.62824" lon="5.2885">
        <ele>217</ele>
        <time>2021-04-04T09:51:51.028Z</time>
      </trkpt>
      <trkpt lat="45.62817" lon="5.28842">
        <ele>217</ele>
        <time>2021-04-04T09:51:52.028Z</time>
      </trkpt>
      <trkpt lat="45.62811" lon="5.28835">
        <ele>218</ele>
        <time>2021-04-04T09:51:53.028Z</time>
      </trkpt>
      <trkpt lat="45.62804" lon="5.28827">
        <ele>218</ele>
        <time>2021-04-04T09:51:54.028Z</time>
      </trkpt>
      <trkpt lat="45.62798" lon="5.2882">
        <ele>218</ele>
        <time>2021-04-04T09:51:55.028Z</time>
      </trkpt>
      <trkpt lat="45.62792" lon="5.28812">
        <ele>218</ele>
        <time>2021-04-04T09:51:56.027Z</time>
      </trkpt>
      <trkpt lat="45.62786" lon="5.28804">
        <ele>219</ele>
        <time>2021-04-04T09:51:57.027Z</time>
      </trkpt>
      <trkpt lat="45.62779" lon="5.28796">
        <ele>219</ele>
        <time>2021-04-04T09:51:58.028Z</time>
      </trkpt>
      <trkpt lat="45.62773" lon="5.28789">
        <ele>219</ele>
        <time>2021-04-04T09:51:59.028Z</time>
      </trkpt>
      <trkpt lat="45.62768" lon="5.28783">
        <ele>218</ele>
        <time>2021-04-04T09:52:00.028Z</time>
      </trkpt>
      <trkpt lat="45.62762" lon="5.28775">
        <ele>218</ele>
        <time>2021-04-04T09:52:01.028Z</time>
      </trkpt>
      <trkpt lat="45.62755" lon="5.28767">
        <ele>218</ele>
        <time>2021-04-04T09:52:02.028Z</time>
      </trkpt>
      <trkpt lat="45.62749" lon="5.28759">
        <ele>218</ele>
        <time>2021-04-04T09:52:03.028Z</time>
      </trkpt>
      <trkpt lat="45.62743" lon="5.28752">
        <ele>218</ele>
        <time>2021-04-04T09:52:04.027Z</time>
      </trkpt>
      <trkpt lat="45.62737" lon="5.28744">
        <ele>218</ele>
        <time>2021-04-04T09:52:05.028Z</time>
      </trkpt>
      <trkpt lat="45.62732" lon="5.28737">
        <ele>218</ele>
        <time>2021-04-04T09:52:06.028Z</time>
      </trkpt>
      <trkpt lat="45.62726" lon="5.28731">
        <ele>218</ele>
        <time>2021-04-04T09:52:07.028Z</time>
      </trkpt>
      <trkpt lat="45.6272" lon="5.28724">
        <ele>219</ele>
        <time>2021-04-04T09:52:08.027Z</time>
      </trkpt>
      <trkpt lat="45.62714" lon="5.28718">
        <ele>219</ele>
        <time>2021-04-04T09:52:09.027Z</time>
      </trkpt>
      <trkpt lat="45.62707" lon="5.28713">
        <ele>219</ele>
        <time>2021-04-04T09:52:10.028Z</time>
      </trkpt>
      <trkpt lat="45.627" lon="5.28709">
        <ele>219</ele>
        <time>2021-04-04T09:52:11.027Z</time>
      </trkpt>
      <trkpt lat="45.62693" lon="5.28705">
        <ele>219</ele>
        <time>2021-04-04T09:52:12.027Z</time>
      </trkpt>
      <trkpt lat="45.62686" lon="5.28703">
        <ele>220</ele>
        <time>2021-04-04T09:52:13.027Z</time>
      </trkpt>
      <trkpt lat="45.6268" lon="5.28701">
        <ele>220</ele>
        <time>2021-04-04T09:52:14.028Z</time>
      </trkpt>
      <trkpt lat="45.6267" lon="5.28697">
        <ele>220</ele>
        <time>2021-04-04T09:52:15.028Z</time>
      </trkpt>
      <trkpt lat="45.62663" lon="5.28694">
        <ele>220</ele>
        <time>2021-04-04T09:52:16.028Z</time>
      </trkpt>
      <trkpt lat="45.62655" lon="5.28691">
        <ele>220</ele>
        <time>2021-04-04T09:52:17.028Z</time>
      </trkpt>
      <trkpt lat="45.62648" lon="5.28688">
        <ele>220</ele>
        <time>2021-04-04T09:52:18.028Z</time>
      </trkpt>
      <trkpt lat="45.6264" lon="5.28685">
        <ele>220</ele>
        <time>2021-04-04T09:52:19.028Z</time>
      </trkpt>
      <trkpt lat="45.62635" lon="5.28683">
        <ele>220</ele>
        <time>2021-04-04T09:52:20.027Z</time>
      </trkpt>
      <trkpt lat="45.62626" lon="5.28679">
        <ele>221</ele>
        <time>2021-04-04T09:52:21.028Z</time>
      </trkpt>
      <trkpt lat="45.62618" lon="5.28676">
        <ele>220</ele>
        <time>2021-04-04T09:52:22.028Z</time>
      </trkpt>
      <trkpt lat="45.62612" lon="5.28671">
        <ele>220</ele>
        <time>2021-04-04T09:52:23.028Z</time>
      </trkpt>
      <trkpt lat="45.62605" lon="5.28666">
        <ele>220</ele>
        <time>2021-04-04T09:52:24.028Z</time>
      </trkpt>
      <trkpt lat="45.62599" lon="5.28661">
        <ele>220</ele>
        <time>2021-04-04T09:52:25.027Z</time>
      </trkpt>
      <trkpt lat="45.62593" lon="5.28657">
        <ele>220</ele>
        <time>2021-04-04T09:52:26.028Z</time>
      </trkpt>
      <trkpt lat="45.62587" lon="5.28653">
        <ele>220</ele>
        <time>2021-04-04T09:52:27.028Z</time>
      </trkpt>
      <trkpt lat="45.62581" lon="5.28649">
        <ele>219</ele>
        <time>2021-04-04T09:52:28.028Z</time>
      </trkpt>
      <trkpt lat="45.62575" lon="5.28644">
        <ele>219</ele>
        <time>2021-04-04T09:52:29.028Z</time>
      </trkpt>
      <trkpt lat="45.62569" lon="5.28638">
        <ele>219</ele>
        <time>2021-04-04T09:52:30.028Z</time>
      </trkpt>
      <trkpt lat="45.62564" lon="5.28632">
        <ele>219</ele>
        <time>2021-04-04T09:52:31.027Z</time>
      </trkpt>
      <trkpt lat="45.62559" lon="5.28625">
        <ele>219</ele>
        <time>2021-04-04T09:52:32.028Z</time>
      </trkpt>
      <trkpt lat="45.62554" lon="5.28618">
        <ele>219</ele>
        <time>2021-04-04T09:52:33.028Z</time>
      </trkpt>
      <trkpt lat="45.62549" lon="5.28611">
        <ele>219</ele>
        <time>2021-04-04T09:52:34.028Z</time>
      </trkpt>
      <trkpt lat="45.62544" lon="5.28604">
        <ele>218</ele>
        <time>2021-04-04T09:52:35.028Z</time>
      </trkpt>
      <trkpt lat="45.62539" lon="5.28598">
        <ele>218</ele>
        <time>2021-04-04T09:52:36.028Z</time>
      </trkpt>
      <trkpt lat="45.62534" lon="5.28591">
        <ele>218</ele>
        <time>2021-04-04T09:52:37.028Z</time>
      </trkpt>
      <trkpt lat="45.62528" lon="5.28585">
        <ele>218</ele>
        <time>2021-04-04T09:52:38.027Z</time>
      </trkpt>
      <trkpt lat="45.62523" lon="5.28578">
        <ele>218</ele>
        <time>2021-04-04T09:52:39.028Z</time>
      </trkpt>
      <trkpt lat="45.62518" lon="5.28571">
        <ele>218</ele>
        <time>2021-04-04T09:52:40.028Z</time>
      </trkpt>
      <trkpt lat="45.62513" lon="5.28564">
        <ele>219</ele>
        <time>2021-04-04T09:52:41.028Z</time>
      </trkpt>
      <trkpt lat="45.62508" lon="5.28557">
        <ele>218</ele>
        <time>2021-04-04T09:52:42.028Z</time>
      </trkpt>
      <trkpt lat="45.62504" lon="5.2855">
        <ele>218</ele>
        <time>2021-04-04T09:52:43.028Z</time>
      </trkpt>
      <trkpt lat="45.62499" lon="5.28543">
        <ele>218</ele>
        <time>2021-04-04T09:52:44.028Z</time>
      </trkpt>
      <trkpt lat="45.62495" lon="5.28534">
        <ele>218</ele>
        <time>2021-04-04T09:52:45.028Z</time>
      </trkpt>
      <trkpt lat="45.62491" lon="5.28526">
        <ele>217</ele>
        <time>2021-04-04T09:52:46.028Z</time>
      </trkpt>
      <trkpt lat="45.62488" lon="5.28516">
        <ele>217</ele>
        <time>2021-04-04T09:52:47.028Z</time>
      </trkpt>
      <trkpt lat="45.62486" lon="5.28506">
        <ele>217</ele>
        <time>2021-04-04T09:52:48.028Z</time>
      </trkpt>
      <trkpt lat="45.62484" lon="5.28496">
        <ele>217</ele>
        <time>2021-04-04T09:52:49.028Z</time>
      </trkpt>
      <trkpt lat="45.62482" lon="5.28486">
        <ele>217</ele>
        <time>2021-04-04T09:52:50.028Z</time>
      </trkpt>
      <trkpt lat="45.6248" lon="5.28476">
        <ele>217</ele>
        <time>2021-04-04T09:52:51.028Z</time>
      </trkpt>
      <trkpt lat="45.62478" lon="5.28465">
        <ele>217</ele>
        <time>2021-04-04T09:52:52.027Z</time>
      </trkpt>
      <trkpt lat="45.62476" lon="5.28455">
        <ele>218</ele>
        <time>2021-04-04T09:52:53.028Z</time>
      </trkpt>
      <trkpt lat="45.62475" lon="5.28444">
        <ele>218</ele>
        <time>2021-04-04T09:52:54.028Z</time>
      </trkpt>
      <trkpt lat="45.62473" lon="5.28434">
        <ele>218</ele>
        <time>2021-04-04T09:52:55.027Z</time>
      </trkpt>
      <trkpt lat="45.6247" lon="5.28424">
        <ele>218</ele>
        <time>2021-04-04T09:52:56.028Z</time>
      </trkpt>
      <trkpt lat="45.62468" lon="5.28414">
        <ele>218</ele>
        <time>2021-04-04T09:52:57.028Z</time>
      </trkpt>
      <trkpt lat="45.62464" lon="5.28405">
        <ele>218</ele>
        <time>2021-04-04T09:52:58.028Z</time>
      </trkpt>
      <trkpt lat="45.62461" lon="5.28396">
        <ele>218</ele>
        <time>2021-04-04T09:52:59.028Z</time>
      </trkpt>
      <trkpt lat="45.62456" lon="5.28387">
        <ele>218</ele>
        <time>2021-04-04T09:53:00.028Z</time>
      </trkpt>
      <trkpt lat="45.62452" lon="5.28379">
        <ele>218</ele>
        <time>2021-04-04T09:53:01.028Z</time>
      </trkpt>
      <trkpt lat="45.62447" lon="5.28372">
        <ele>218</ele>
        <time>2021-04-04T09:53:02.027Z</time>
      </trkpt>
      <trkpt lat="45.62442" lon="5.28365">
        <ele>218</ele>
        <time>2021-04-04T09:53:03.028Z</time>
      </trkpt>
      <trkpt lat="45.62436" lon="5.28358">
        <ele>218</ele>
        <time>2021-04-04T09:53:04.027Z</time>
      </trkpt>
      <trkpt lat="45.62431" lon="5.28351">
        <ele>218</ele>
        <time>2021-04-04T09:53:05.027Z</time>
      </trkpt>
      <trkpt lat="45.62425" lon="5.28344">
        <ele>218</ele>
        <time>2021-04-04T09:53:06.028Z</time>
      </trkpt>
      <trkpt lat="45.62419" lon="5.28337">
        <ele>218</ele>
        <time>2021-04-04T09:53:07.028Z</time>
      </trkpt>
      <trkpt lat="45.62414" lon="5.28329">
        <ele>218</ele>
        <time>2021-04-04T09:53:08.027Z</time>
      </trkpt>
      <trkpt lat="45.62408" lon="5.28322">
        <ele>218</ele>
        <time>2021-04-04T09:53:09.028Z</time>
      </trkpt>
      <trkpt lat="45.62403" lon="5.28315">
        <ele>218</ele>
        <time>2021-04-04T09:53:10.028Z</time>
      </trkpt>
      <trkpt lat="45.62398" lon="5.28308">
        <ele>219</ele>
        <time>2021-04-04T09:53:11.028Z</time>
      </trkpt>
      <trkpt lat="45.62392" lon="5.28301">
        <ele>219</ele>
        <time>2021-04-04T09:53:12.028Z</time>
      </trkpt>
      <trkpt lat="45.62387" lon="5.28294">
        <ele>219</ele>
        <time>2021-04-04T09:53:13.027Z</time>
      </trkpt>
      <trkpt lat="45.62381" lon="5.28287">
        <ele>219</ele>
        <time>2021-04-04T09:53:14.028Z</time>
      </trkpt>
      <trkpt lat="45.62376" lon="5.28281">
        <ele>219</ele>
        <time>2021-04-04T09:53:15.028Z</time>
      </trkpt>
      <trkpt lat="45.62371" lon="5.28274">
        <ele>218</ele>
        <time>2021-04-04T09:53:16.028Z</time>
      </trkpt>
      <trkpt lat="45.62366" lon="5.28268">
        <ele>218</ele>
        <time>2021-04-04T09:53:17.028Z</time>
      </trkpt>
      <trkpt lat="45.62361" lon="5.28261">
        <ele>218</ele>
        <time>2021-04-04T09:53:18.027Z</time>
      </trkpt>
      <trkpt lat="45.62355" lon="5.28254">
        <ele>218</ele>
        <time>2021-04-04T09:53:19.028Z</time>
      </trkpt>
      <trkpt lat="45.6235" lon="5.28248">
        <ele>218</ele>
        <time>2021-04-04T09:53:20.028Z</time>
      </trkpt>
      <trkpt lat="45.62345" lon="5.28241">
        <ele>218</ele>
        <time>2021-04-04T09:53:21.028Z</time>
      </trkpt>
      <trkpt lat="45.62339" lon="5.28234">
        <ele>218</ele>
        <time>2021-04-04T09:53:22.028Z</time>
      </trkpt>
      <trkpt lat="45.62334" lon="5.28227">
        <ele>217</ele>
        <time>2021-04-04T09:53:23.028Z</time>
      </trkpt>
      <trkpt lat="45.62329" lon="5.28221">
        <ele>217</ele>
        <time>2021-04-04T09:53:24.028Z</time>
      </trkpt>
      <trkpt lat="45.62324" lon="5.28214">
        <ele>217</ele>
        <time>2021-04-04T09:53:25.027Z</time>
      </trkpt>
      <trkpt lat="45.62319" lon="5.28208">
        <ele>217</ele>
        <time>2021-04-04T09:53:26.028Z</time>
      </trkpt>
      <trkpt lat="45.62313" lon="5.28201">
        <ele>218</ele>
        <time>2021-04-04T09:53:27.028Z</time>
      </trkpt>
      <trkpt lat="45.62309" lon="5.28195">
        <ele>219</ele>
        <time>2021-04-04T09:53:28.028Z</time>
      </trkpt>
      <trkpt lat="45.62304" lon="5.28189">
        <ele>219</ele>
        <time>2021-04-04T09:53:29.028Z</time>
      </trkpt>
      <trkpt lat="45.62299" lon="5.28182">
        <ele>219</ele>
        <time>2021-04-04T09:53:30.028Z</time>
      </trkpt>
      <trkpt lat="45.62294" lon="5.28176">
        <ele>220</ele>
        <time>2021-04-04T09:53:31.027Z</time>
      </trkpt>
      <trkpt lat="45.62289" lon="5.28169">
        <ele>220</ele>
        <time>2021-04-04T09:53:32.028Z</time>
      </trkpt>
      <trkpt lat="45.62284" lon="5.28163">
        <ele>220</ele>
        <time>2021-04-04T09:53:33.028Z</time>
      </trkpt>
      <trkpt lat="45.62279" lon="5.28156">
        <ele>221</ele>
        <time>2021-04-04T09:53:34.028Z</time>
      </trkpt>
      <trkpt lat="45.62274" lon="5.28149">
        <ele>221</ele>
        <time>2021-04-04T09:53:35.028Z</time>
      </trkpt>
      <trkpt lat="45.62268" lon="5.28142">
        <ele>222</ele>
        <time>2021-04-04T09:53:36.028Z</time>
      </trkpt>
      <trkpt lat="45.62263" lon="5.28136">
        <ele>222</ele>
        <time>2021-04-04T09:53:37.027Z</time>
      </trkpt>
      <trkpt lat="45.62258" lon="5.28129">
        <ele>222</ele>
        <time>2021-04-04T09:53:38.028Z</time>
      </trkpt>
      <trkpt lat="45.62253" lon="5.28122">
        <ele>222</ele>
        <time>2021-04-04T09:53:39.028Z</time>
      </trkpt>
      <trkpt lat="45.62247" lon="5.28115">
        <ele>222</ele>
        <time>2021-04-04T09:53:40.028Z</time>
      </trkpt>
      <trkpt lat="45.62242" lon="5.28108">
        <ele>222</ele>
        <time>2021-04-04T09:53:41.028Z</time>
      </trkpt>
      <trkpt lat="45.62236" lon="5.28101">
        <ele>221</ele>
        <time>2021-04-04T09:53:42.028Z</time>
      </trkpt>
      <trkpt lat="45.6223" lon="5.28094">
        <ele>221</ele>
        <time>2021-04-04T09:53:43.028Z</time>
      </trkpt>
      <trkpt lat="45.62225" lon="5.28087">
        <ele>221</ele>
        <time>2021-04-04T09:53:44.028Z</time>
      </trkpt>
      <trkpt lat="45.62219" lon="5.2808">
        <ele>222</ele>
        <time>2021-04-04T09:53:45.027Z</time>
      </trkpt>
      <trkpt lat="45.62214" lon="5.28073">
        <ele>222</ele>
        <time>2021-04-04T09:53:46.028Z</time>
      </trkpt>
      <trkpt lat="45.62208" lon="5.28066">
        <ele>222</ele>
        <time>2021-04-04T09:53:47.027Z</time>
      </trkpt>
      <trkpt lat="45.62203" lon="5.28059">
        <ele>223</ele>
        <time>2021-04-04T09:53:48.028Z</time>
      </trkpt>
      <trkpt lat="45.62198" lon="5.28052">
        <ele>224</ele>
        <time>2021-04-04T09:53:49.028Z</time>
      </trkpt>
      <trkpt lat="45.62193" lon="5.28045">
        <ele>224</ele>
        <time>2021-04-04T09:53:50.028Z</time>
      </trkpt>
      <trkpt lat="45.62188" lon="5.28038">
        <ele>224</ele>
        <time>2021-04-04T09:53:51.028Z</time>
      </trkpt>
      <trkpt lat="45.62182" lon="5.28032">
        <ele>225</ele>
        <time>2021-04-04T09:53:52.028Z</time>
      </trkpt>
      <trkpt lat="45.62177" lon="5.28025">
        <ele>225</ele>
        <time>2021-04-04T09:53:53.027Z</time>
      </trkpt>
      <trkpt lat="45.62172" lon="5.28018">
        <ele>226</ele>
        <time>2021-04-04T09:53:54.028Z</time>
      </trkpt>
      <trkpt lat="45.62167" lon="5.28011">
        <ele>226</ele>
        <time>2021-04-04T09:53:55.027Z</time>
      </trkpt>
      <trkpt lat="45.62162" lon="5.28005">
        <ele>226</ele>
        <time>2021-04-04T09:53:56.028Z</time>
      </trkpt>
      <trkpt lat="45.62157" lon="5.27998">
        <ele>226</ele>
        <time>2021-04-04T09:53:57.028Z</time>
      </trkpt>
      <trkpt lat="45.62152" lon="5.2799">
        <ele>226</ele>
        <time>2021-04-04T09:53:58.027Z</time>
      </trkpt>
      <trkpt lat="45.62147" lon="5.27983">
        <ele>226</ele>
        <time>2021-04-04T09:53:59.028Z</time>
      </trkpt>
      <trkpt lat="45.62142" lon="5.27976">
        <ele>226</ele>
        <time>2021-04-04T09:54:00.027Z</time>
      </trkpt>
      <trkpt lat="45.62138" lon="5.27968">
        <ele>227</ele>
        <time>2021-04-04T09:54:01.028Z</time>
      </trkpt>
      <trkpt lat="45.62134" lon="5.27962">
        <ele>227</ele>
        <time>2021-04-04T09:54:02.028Z</time>
      </trkpt>
      <trkpt lat="45.62129" lon="5.27953">
        <ele>227</ele>
        <time>2021-04-04T09:54:03.028Z</time>
      </trkpt>
      <trkpt lat="45.62124" lon="5.27946">
        <ele>227</ele>
        <time>2021-04-04T09:54:04.028Z</time>
      </trkpt>
      <trkpt lat="45.62119" lon="5.27938">
        <ele>227</ele>
        <time>2021-04-04T09:54:05.028Z</time>
      </trkpt>
      <trkpt lat="45.62115" lon="5.27931">
        <ele>226</ele>
        <time>2021-04-04T09:54:06.028Z</time>
      </trkpt>
      <trkpt lat="45.62111" lon="5.27923">
        <ele>226</ele>
        <time>2021-04-04T09:54:07.028Z</time>
      </trkpt>
      <trkpt lat="45.62107" lon="5.27915">
        <ele>226</ele>
        <time>2021-04-04T09:54:08.028Z</time>
      </trkpt>
      <trkpt lat="45.62102" lon="5.27907">
        <ele>226</ele>
        <time>2021-04-04T09:54:09.028Z</time>
      </trkpt>
      <trkpt lat="45.62098" lon="5.27898">
        <ele>225</ele>
        <time>2021-04-04T09:54:10.028Z</time>
      </trkpt>
      <trkpt lat="45.62094" lon="5.2789">
        <ele>225</ele>
        <time>2021-04-04T09:54:11.028Z</time>
      </trkpt>
      <trkpt lat="45.6209" lon="5.27882">
        <ele>225</ele>
        <time>2021-04-04T09:54:12.027Z</time>
      </trkpt>
      <trkpt lat="45.62086" lon="5.27873">
        <ele>225</ele>
        <time>2021-04-04T09:54:13.028Z</time>
      </trkpt>
      <trkpt lat="45.62081" lon="5.27865">
        <ele>224</ele>
        <time>2021-04-04T09:54:14.028Z</time>
      </trkpt>
      <trkpt lat="45.62077" lon="5.27856">
        <ele>224</ele>
        <time>2021-04-04T09:54:15.028Z</time>
      </trkpt>
      <trkpt lat="45.62073" lon="5.27847">
        <ele>225</ele>
        <time>2021-04-04T09:54:16.028Z</time>
      </trkpt>
      <trkpt lat="45.6207" lon="5.27838">
        <ele>225</ele>
        <time>2021-04-04T09:54:17.027Z</time>
      </trkpt>
      <trkpt lat="45.62066" lon="5.27829">
        <ele>224</ele>
        <time>2021-04-04T09:54:18.028Z</time>
      </trkpt>
      <trkpt lat="45.62062" lon="5.2782">
        <ele>224</ele>
        <time>2021-04-04T09:54:19.027Z</time>
      </trkpt>
      <trkpt lat="45.62058" lon="5.2781">
        <ele>224</ele>
        <time>2021-04-04T09:54:20.027Z</time>
      </trkpt>
      <trkpt lat="45.62055" lon="5.278">
        <ele>223</ele>
        <time>2021-04-04T09:54:21.028Z</time>
      </trkpt>
      <trkpt lat="45.62051" lon="5.27791">
        <ele>223</ele>
        <time>2021-04-04T09:54:22.028Z</time>
      </trkpt>
      <trkpt lat="45.62047" lon="5.27781">
        <ele>222</ele>
        <time>2021-04-04T09:54:23.028Z</time>
      </trkpt>
      <trkpt lat="45.62044" lon="5.27771">
        <ele>222</ele>
        <time>2021-04-04T09:54:24.027Z</time>
      </trkpt>
      <trkpt lat="45.6204" lon="5.27761">
        <ele>222</ele>
        <time>2021-04-04T09:54:25.028Z</time>
      </trkpt>
      <trkpt lat="45.62037" lon="5.27751">
        <ele>222</ele>
        <time>2021-04-04T09:54:26.028Z</time>
      </trkpt>
      <trkpt lat="45.62033" lon="5.27741">
        <ele>222</ele>
        <time>2021-04-04T09:54:27.028Z</time>
      </trkpt>
      <trkpt lat="45.6203" lon="5.27731">
        <ele>221</ele>
        <time>2021-04-04T09:54:28.028Z</time>
      </trkpt>
      <trkpt lat="45.62027" lon="5.27722">
        <ele>221</ele>
        <time>2021-04-04T09:54:29.028Z</time>
      </trkpt>
      <trkpt lat="45.62024" lon="5.27712">
        <ele>221</ele>
        <time>2021-04-04T09:54:30.027Z</time>
      </trkpt>
      <trkpt lat="45.62021" lon="5.27703">
        <ele>221</ele>
        <time>2021-04-04T09:54:31.027Z</time>
      </trkpt>
      <trkpt lat="45.62018" lon="5.27694">
        <ele>220</ele>
        <time>2021-04-04T09:54:32.028Z</time>
      </trkpt>
      <trkpt lat="45.62015" lon="5.27685">
        <ele>219</ele>
        <time>2021-04-04T09:54:33.028Z</time>
      </trkpt>
      <trkpt lat="45.62012" lon="5.27676">
        <ele>219</ele>
        <time>2021-04-04T09:54:34.028Z</time>
      </trkpt>
      <trkpt lat="45.62009" lon="5.27667">
        <ele>218</ele>
        <time>2021-04-04T09:54:35.027Z</time>
      </trkpt>
      <trkpt lat="45.62006" lon="5.27658">
        <ele>218</ele>
        <time>2021-04-04T09:54:36.028Z</time>
      </trkpt>
      <trkpt lat="45.62003" lon="5.27648">
        <ele>218</ele>
        <time>2021-04-04T09:54:37.027Z</time>
      </trkpt>
      <trkpt lat="45.62" lon="5.27639">
        <ele>218</ele>
        <time>2021-04-04T09:54:38.028Z</time>
      </trkpt>
      <trkpt lat="45.61997" lon="5.27629">
        <ele>218</ele>
        <time>2021-04-04T09:54:39.028Z</time>
      </trkpt>
      <trkpt lat="45.61994" lon="5.27619">
        <ele>218</ele>
        <time>2021-04-04T09:54:40.027Z</time>
      </trkpt>
      <trkpt lat="45.61991" lon="5.27609">
        <ele>218</ele>
        <time>2021-04-04T09:54:41.028Z</time>
      </trkpt>
      <trkpt lat="45.61987" lon="5.27599">
        <ele>218</ele>
        <time>2021-04-04T09:54:42.028Z</time>
      </trkpt>
      <trkpt lat="45.61984" lon="5.27589">
        <ele>219</ele>
        <time>2021-04-04T09:54:43.028Z</time>
      </trkpt>
      <trkpt lat="45.6198" lon="5.27579">
        <ele>219</ele>
        <time>2021-04-04T09:54:44.028Z</time>
      </trkpt>
      <trkpt lat="45.61977" lon="5.27568">
        <ele>219</ele>
        <time>2021-04-04T09:54:45.028Z</time>
      </trkpt>
      <trkpt lat="45.61973" lon="5.27558">
        <ele>219</ele>
        <time>2021-04-04T09:54:46.028Z</time>
      </trkpt>
      <trkpt lat="45.6197" lon="5.27547">
        <ele>219</ele>
        <time>2021-04-04T09:54:47.028Z</time>
      </trkpt>
      <trkpt lat="45.61966" lon="5.27537">
        <ele>219</ele>
        <time>2021-04-04T09:54:48.027Z</time>
      </trkpt>
      <trkpt lat="45.61963" lon="5.27526">
        <ele>219</ele>
        <time>2021-04-04T09:54:49.028Z</time>
      </trkpt>
      <trkpt lat="45.61959" lon="5.27516">
        <ele>219</ele>
        <time>2021-04-04T09:54:50.028Z</time>
      </trkpt>
      <trkpt lat="45.61956" lon="5.27505">
        <ele>219</ele>
        <time>2021-04-04T09:54:51.028Z</time>
      </trkpt>
      <trkpt lat="45.61953" lon="5.27496">
        <ele>219</ele>
        <time>2021-04-04T09:54:52.027Z</time>
      </trkpt>
      <trkpt lat="45.61949" lon="5.27484">
        <ele>219</ele>
        <time>2021-04-04T09:54:53.028Z</time>
      </trkpt>
      <trkpt lat="45.61945" lon="5.27473">
        <ele>219</ele>
        <time>2021-04-04T09:54:54.028Z</time>
      </trkpt>
      <trkpt lat="45.61942" lon="5.27463">
        <ele>219</ele>
        <time>2021-04-04T09:54:55.028Z</time>
      </trkpt>
      <trkpt lat="45.61938" lon="5.27453">
        <ele>219</ele>
        <time>2021-04-04T09:54:56.028Z</time>
      </trkpt>
      <trkpt lat="45.61935" lon="5.27442">
        <ele>219</ele>
        <time>2021-04-04T09:54:57.028Z</time>
      </trkpt>
      <trkpt lat="45.61931" lon="5.27432">
        <ele>219</ele>
        <time>2021-04-04T09:54:58.027Z</time>
      </trkpt>
      <trkpt lat="45.61927" lon="5.27422">
        <ele>219</ele>
        <time>2021-04-04T09:54:59.028Z</time>
      </trkpt>
      <trkpt lat="45.61924" lon="5.27412">
        <ele>219</ele>
        <time>2021-04-04T09:55:00.027Z</time>
      </trkpt>
      <trkpt lat="45.61921" lon="5.27404">
        <ele>219</ele>
        <time>2021-04-04T09:55:01.028Z</time>
      </trkpt>
      <trkpt lat="45.61917" lon="5.27392">
        <ele>219</ele>
        <time>2021-04-04T09:55:02.028Z</time>
      </trkpt>
      <trkpt lat="45.61912" lon="5.27382">
        <ele>219</ele>
        <time>2021-04-04T09:55:03.028Z</time>
      </trkpt>
      <trkpt lat="45.61908" lon="5.27373">
        <ele>219</ele>
        <time>2021-04-04T09:55:04.028Z</time>
      </trkpt>
      <trkpt lat="45.61904" lon="5.27363">
        <ele>219</ele>
        <time>2021-04-04T09:55:05.028Z</time>
      </trkpt>
      <trkpt lat="45.619" lon="5.27354">
        <ele>219</ele>
        <time>2021-04-04T09:55:06.028Z</time>
      </trkpt>
      <trkpt lat="45.61895" lon="5.27345">
        <ele>219</ele>
        <time>2021-04-04T09:55:07.028Z</time>
      </trkpt>
      <trkpt lat="45.61891" lon="5.27335">
        <ele>220</ele>
        <time>2021-04-04T09:55:08.028Z</time>
      </trkpt>
      <trkpt lat="45.61886" lon="5.27326">
        <ele>220</ele>
        <time>2021-04-04T09:55:09.028Z</time>
      </trkpt>
      <trkpt lat="45.61881" lon="5.27317">
        <ele>220</ele>
        <time>2021-04-04T09:55:10.028Z</time>
      </trkpt>
      <trkpt lat="45.61876" lon="5.27308">
        <ele>221</ele>
        <time>2021-04-04T09:55:11.028Z</time>
      </trkpt>
      <trkpt lat="45.61871" lon="5.27299">
        <ele>221</ele>
        <time>2021-04-04T09:55:12.028Z</time>
      </trkpt>
      <trkpt lat="45.61866" lon="5.27291">
        <ele>220</ele>
        <time>2021-04-04T09:55:13.028Z</time>
      </trkpt>
      <trkpt lat="45.61861" lon="5.27282">
        <ele>220</ele>
        <time>2021-04-04T09:55:14.028Z</time>
      </trkpt>
      <trkpt lat="45.61857" lon="5.27273">
        <ele>220</ele>
        <time>2021-04-04T09:55:15.028Z</time>
      </trkpt>
      <trkpt lat="45.61852" lon="5.27264">
        <ele>220</ele>
        <time>2021-04-04T09:55:16.028Z</time>
      </trkpt>
      <trkpt lat="45.61847" lon="5.27256">
        <ele>220</ele>
        <time>2021-04-04T09:55:17.027Z</time>
      </trkpt>
      <trkpt lat="45.61842" lon="5.27247">
        <ele>220</ele>
        <time>2021-04-04T09:55:18.028Z</time>
      </trkpt>
      <trkpt lat="45.61837" lon="5.27238">
        <ele>220</ele>
        <time>2021-04-04T09:55:19.028Z</time>
      </trkpt>
      <trkpt lat="45.61832" lon="5.2723">
        <ele>220</ele>
        <time>2021-04-04T09:55:20.028Z</time>
      </trkpt>
      <trkpt lat="45.61827" lon="5.27221">
        <ele>219</ele>
        <time>2021-04-04T09:55:21.028Z</time>
      </trkpt>
      <trkpt lat="45.61822" lon="5.27212">
        <ele>219</ele>
        <time>2021-04-04T09:55:22.028Z</time>
      </trkpt>
      <trkpt lat="45.61817" lon="5.27203">
        <ele>219</ele>
        <time>2021-04-04T09:55:23.027Z</time>
      </trkpt>
      <trkpt lat="45.61812" lon="5.27195">
        <ele>218</ele>
        <time>2021-04-04T09:55:24.028Z</time>
      </trkpt>
      <trkpt lat="45.61807" lon="5.27186">
        <ele>218</ele>
        <time>2021-04-04T09:55:25.028Z</time>
      </trkpt>
      <trkpt lat="45.61802" lon="5.27177">
        <ele>218</ele>
        <time>2021-04-04T09:55:26.027Z</time>
      </trkpt>
      <trkpt lat="45.61797" lon="5.27168">
        <ele>218</ele>
        <time>2021-04-04T09:55:27.028Z</time>
      </trkpt>
      <trkpt lat="45.61793" lon="5.27158">
        <ele>218</ele>
        <time>2021-04-04T09:55:28.028Z</time>
      </trkpt>
      <trkpt lat="45.61788" lon="5.27149">
        <ele>218</ele>
        <time>2021-04-04T09:55:29.028Z</time>
      </trkpt>
      <trkpt lat="45.61784" lon="5.27139">
        <ele>218</ele>
        <time>2021-04-04T09:55:30.028Z</time>
      </trkpt>
      <trkpt lat="45.61779" lon="5.27129">
        <ele>218</ele>
        <time>2021-04-04T09:55:31.028Z</time>
      </trkpt>
      <trkpt lat="45.61775" lon="5.2712">
        <ele>218</ele>
        <time>2021-04-04T09:55:32.028Z</time>
      </trkpt>
      <trkpt lat="45.61771" lon="5.2711">
        <ele>218</ele>
        <time>2021-04-04T09:55:33.028Z</time>
      </trkpt>
      <trkpt lat="45.61767" lon="5.27101">
        <ele>219</ele>
        <time>2021-04-04T09:55:34.028Z</time>
      </trkpt>
      <trkpt lat="45.61762" lon="5.27092">
        <ele>219</ele>
        <time>2021-04-04T09:55:35.028Z</time>
      </trkpt>
      <trkpt lat="45.61758" lon="5.27085">
        <ele>219</ele>
        <time>2021-04-04T09:55:36.028Z</time>
      </trkpt>
      <trkpt lat="45.61751" lon="5.27075">
        <ele>219</ele>
        <time>2021-04-04T09:55:37.028Z</time>
      </trkpt>
      <trkpt lat="45.61745" lon="5.27067">
        <ele>219</ele>
        <time>2021-04-04T09:55:38.028Z</time>
      </trkpt>
      <trkpt lat="45.61739" lon="5.27058">
        <ele>219</ele>
        <time>2021-04-04T09:55:39.027Z</time>
      </trkpt>
      <trkpt lat="45.61733" lon="5.2705">
        <ele>219</ele>
        <time>2021-04-04T09:55:40.027Z</time>
      </trkpt>
      <trkpt lat="45.61727" lon="5.27041">
        <ele>219</ele>
        <time>2021-04-04T09:55:41.028Z</time>
      </trkpt>
      <trkpt lat="45.61721" lon="5.27032">
        <ele>219</ele>
        <time>2021-04-04T09:55:42.027Z</time>
      </trkpt>
      <trkpt lat="45.61715" lon="5.27024">
        <ele>219</ele>
        <time>2021-04-04T09:55:43.028Z</time>
      </trkpt>
      <trkpt lat="45.6171" lon="5.27015">
        <ele>219</ele>
        <time>2021-04-04T09:55:44.028Z</time>
      </trkpt>
      <trkpt lat="45.61704" lon="5.27006">
        <ele>219</ele>
        <time>2021-04-04T09:55:45.028Z</time>
      </trkpt>
      <trkpt lat="45.61699" lon="5.26997">
        <ele>219</ele>
        <time>2021-04-04T09:55:46.027Z</time>
      </trkpt>
      <trkpt lat="45.61694" lon="5.26988">
        <ele>219</ele>
        <time>2021-04-04T09:55:47.027Z</time>
      </trkpt>
      <trkpt lat="45.6169" lon="5.26979">
        <ele>218</ele>
        <time>2021-04-04T09:55:48.028Z</time>
      </trkpt>
      <trkpt lat="45.61686" lon="5.2697">
        <ele>218</ele>
        <time>2021-04-04T09:55:49.028Z</time>
      </trkpt>
      <trkpt lat="45.61684" lon="5.2696">
        <ele>218</ele>
        <time>2021-04-04T09:55:50.028Z</time>
      </trkpt>
      <trkpt lat="45.61682" lon="5.2695">
        <ele>218</ele>
        <time>2021-04-04T09:55:51.027Z</time>
      </trkpt>
      <trkpt lat="45.61682" lon="5.26939">
        <ele>218</ele>
        <time>2021-04-04T09:55:52.028Z</time>
      </trkpt>
      <trkpt lat="45.61682" lon="5.26929">
        <ele>218</ele>
        <time>2021-04-04T09:55:53.027Z</time>
      </trkpt>
      <trkpt lat="45.61681" lon="5.26918">
        <ele>218</ele>
        <time>2021-04-04T09:55:54.028Z</time>
      </trkpt>
      <trkpt lat="45.61678" lon="5.26908">
        <ele>219</ele>
        <time>2021-04-04T09:55:55.028Z</time>
      </trkpt>
      <trkpt lat="45.61675" lon="5.26899">
        <ele>219</ele>
        <time>2021-04-04T09:55:56.028Z</time>
      </trkpt>
      <trkpt lat="45.6167" lon="5.26892">
        <ele>219</ele>
        <time>2021-04-04T09:55:57.028Z</time>
      </trkpt>
      <trkpt lat="45.61664" lon="5.26887">
        <ele>220</ele>
        <time>2021-04-04T09:55:58.027Z</time>
      </trkpt>
      <trkpt lat="45.61657" lon="5.26885">
        <ele>220</ele>
        <time>2021-04-04T09:55:59.027Z</time>
      </trkpt>
      <trkpt lat="45.6165" lon="5.26886">
        <ele>220</ele>
        <time>2021-04-04T09:56:00.028Z</time>
      </trkpt>
      <trkpt lat="45.61642" lon="5.26891">
        <ele>220</ele>
        <time>2021-04-04T09:56:01.028Z</time>
      </trkpt>
      <trkpt lat="45.61636" lon="5.26897">
        <ele>220</ele>
        <time>2021-04-04T09:56:02.028Z</time>
      </trkpt>
      <trkpt lat="45.6163" lon="5.26907">
        <ele>220</ele>
        <time>2021-04-04T09:56:03.028Z</time>
      </trkpt>
      <trkpt lat="45.61626" lon="5.26918">
        <ele>220</ele>
        <time>2021-04-04T09:56:04.027Z</time>
      </trkpt>
      <trkpt lat="45.61623" lon="5.26929">
        <ele>220</ele>
        <time>2021-04-04T09:56:05.028Z</time>
      </trkpt>
      <trkpt lat="45.6162" lon="5.26941">
        <ele>221</ele>
        <time>2021-04-04T09:56:06.027Z</time>
      </trkpt>
      <trkpt lat="45.61616" lon="5.26953">
        <ele>221</ele>
        <time>2021-04-04T09:56:07.028Z</time>
      </trkpt>
      <trkpt lat="45.61611" lon="5.26964">
        <ele>221</ele>
        <time>2021-04-04T09:56:08.028Z</time>
      </trkpt>
      <trkpt lat="45.61605" lon="5.26974">
        <ele>221</ele>
        <time>2021-04-04T09:56:09.028Z</time>
      </trkpt>
      <trkpt lat="45.61598" lon="5.26984">
        <ele>221</ele>
        <time>2021-04-04T09:56:10.028Z</time>
      </trkpt>
      <trkpt lat="45.61591" lon="5.26993">
        <ele>221</ele>
        <time>2021-04-04T09:56:11.028Z</time>
      </trkpt>
      <trkpt lat="45.61585" lon="5.27002">
        <ele>221</ele>
        <time>2021-04-04T09:56:12.028Z</time>
      </trkpt>
      <trkpt lat="45.61578" lon="5.27011">
        <ele>221</ele>
        <time>2021-04-04T09:56:13.028Z</time>
      </trkpt>
      <trkpt lat="45.61571" lon="5.2702">
        <ele>222</ele>
        <time>2021-04-04T09:56:14.027Z</time>
      </trkpt>
      <trkpt lat="45.61564" lon="5.27028">
        <ele>222</ele>
        <time>2021-04-04T09:56:15.028Z</time>
      </trkpt>
      <trkpt lat="45.61557" lon="5.27036">
        <ele>223</ele>
        <time>2021-04-04T09:56:16.027Z</time>
      </trkpt>
      <trkpt lat="45.6155" lon="5.27044">
        <ele>223</ele>
        <time>2021-04-04T09:56:17.028Z</time>
      </trkpt>
      <trkpt lat="45.61544" lon="5.27052">
        <ele>223</ele>
        <time>2021-04-04T09:56:18.028Z</time>
      </trkpt>
      <trkpt lat="45.61537" lon="5.2706">
        <ele>223</ele>
        <time>2021-04-04T09:56:19.027Z</time>
      </trkpt>
      <trkpt lat="45.61531" lon="5.27067">
        <ele>223</ele>
        <time>2021-04-04T09:56:20.028Z</time>
      </trkpt>
      <trkpt lat="45.61524" lon="5.27075">
        <ele>223</ele>
        <time>2021-04-04T09:56:21.027Z</time>
      </trkpt>
      <trkpt lat="45.61517" lon="5.27083">
        <ele>223</ele>
        <time>2021-04-04T09:56:22.028Z</time>
      </trkpt>
      <trkpt lat="45.61511" lon="5.27091">
        <ele>223</ele>
        <time>2021-04-04T09:56:23.028Z</time>
      </trkpt>
      <trkpt lat="45.61504" lon="5.27098">
        <ele>223</ele>
        <time>2021-04-04T09:56:24.028Z</time>
      </trkpt>
      <trkpt lat="45.61497" lon="5.27105">
        <ele>223</ele>
        <time>2021-04-04T09:56:25.027Z</time>
      </trkpt>
      <trkpt lat="45.6149" lon="5.27113">
        <ele>223</ele>
        <time>2021-04-04T09:56:26.028Z</time>
      </trkpt>
      <trkpt lat="45.61484" lon="5.2712">
        <ele>222</ele>
        <time>2021-04-04T09:56:27.027Z</time>
      </trkpt>
      <trkpt lat="45.61477" lon="5.27128">
        <ele>223</ele>
        <time>2021-04-04T09:56:28.027Z</time>
      </trkpt>
      <trkpt lat="45.61471" lon="5.27136">
        <ele>222</ele>
        <time>2021-04-04T09:56:29.028Z</time>
      </trkpt>
      <trkpt lat="45.61464" lon="5.27143">
        <ele>222</ele>
        <time>2021-04-04T09:56:30.028Z</time>
      </trkpt>
      <trkpt lat="45.61457" lon="5.27151">
        <ele>222</ele>
        <time>2021-04-04T09:56:31.027Z</time>
      </trkpt>
      <trkpt lat="45.61451" lon="5.27159">
        <ele>222</ele>
        <time>2021-04-04T09:56:32.027Z</time>
      </trkpt>
      <trkpt lat="45.61444" lon="5.27166">
        <ele>222</ele>
        <time>2021-04-04T09:56:33.028Z</time>
      </trkpt>
      <trkpt lat="45.61437" lon="5.27174">
        <ele>222</ele>
        <time>2021-04-04T09:56:34.028Z</time>
      </trkpt>
      <trkpt lat="45.61431" lon="5.27182">
        <ele>222</ele>
        <time>2021-04-04T09:56:35.028Z</time>
      </trkpt>
      <trkpt lat="45.61424" lon="5.2719">
        <ele>222</ele>
        <time>2021-04-04T09:56:36.028Z</time>
      </trkpt>
      <trkpt lat="45.61417" lon="5.27198">
        <ele>222</ele>
        <time>2021-04-04T09:56:37.028Z</time>
      </trkpt>
      <trkpt lat="45.6141" lon="5.27205">
        <ele>222</ele>
        <time>2021-04-04T09:56:38.028Z</time>
      </trkpt>
      <trkpt lat="45.61406" lon="5.27211">
        <ele>222</ele>
        <time>2021-04-04T09:56:39.028Z</time>
      </trkpt>
      <trkpt lat="45.614" lon="5.27217">
        <ele>222</ele>
        <time>2021-04-04T09:56:40.028Z</time>
      </trkpt>
      <trkpt lat="45.61394" lon="5.27224">
        <ele>222</ele>
        <time>2021-04-04T09:56:41.028Z</time>
      </trkpt>
      <trkpt lat="45.61389" lon="5.27229">
        <ele>222</ele>
        <time>2021-04-04T09:56:42.028Z</time>
      </trkpt>
      <trkpt lat="45.61384" lon="5.27234">
        <ele>223</ele>
        <time>2021-04-04T09:56:43.028Z</time>
      </trkpt>
      <trkpt lat="45.6138" lon="5.27239">
        <ele>222</ele>
        <time>2021-04-04T09:56:44.028Z</time>
      </trkpt>
      <trkpt lat="45.61376" lon="5.27243">
        <ele>222</ele>
        <time>2021-04-04T09:56:45.028Z</time>
      </trkpt>
      <trkpt lat="45.61372" lon="5.27248">
        <ele>222</ele>
        <time>2021-04-04T09:56:46.028Z</time>
      </trkpt>
      <trkpt lat="45.6137" lon="5.27253">
        <ele>222</ele>
        <time>2021-04-04T09:56:47.028Z</time>
      </trkpt>
      <trkpt lat="45.61368" lon="5.27258">
        <ele>222</ele>
        <time>2021-04-04T09:56:48.027Z</time>
      </trkpt>
      <trkpt lat="45.61368" lon="5.27263">
        <ele>222</ele>
        <time>2021-04-04T09:56:49.028Z</time>
      </trkpt>
      <trkpt lat="45.6137" lon="5.27268">
        <ele>222</ele>
        <time>2021-04-04T09:56:50.028Z</time>
      </trkpt>
      <trkpt lat="45.61371" lon="5.27273">
        <ele>222</ele>
        <time>2021-04-04T09:56:51.027Z</time>
      </trkpt>
      <trkpt lat="45.61373" lon="5.27277">
        <ele>222</ele>
        <time>2021-04-04T09:56:52.027Z</time>
      </trkpt>
      <trkpt lat="45.61375" lon="5.27282">
        <ele>222</ele>
        <time>2021-04-04T09:56:53.028Z</time>
      </trkpt>
      <trkpt lat="45.61377" lon="5.27287">
        <ele>222</ele>
        <time>2021-04-04T09:56:54.028Z</time>
      </trkpt>
      <trkpt lat="45.61378" lon="5.27292">
        <ele>222</ele>
        <time>2021-04-04T09:56:55.028Z</time>
      </trkpt>
      <trkpt lat="45.6138" lon="5.27297">
        <ele>222</ele>
        <time>2021-04-04T09:56:56.028Z</time>
      </trkpt>
      <trkpt lat="45.61381" lon="5.27302">
        <ele>221</ele>
        <time>2021-04-04T09:56:57.028Z</time>
      </trkpt>
      <trkpt lat="45.61383" lon="5.27308">
        <ele>221</ele>
        <time>2021-04-04T09:56:58.027Z</time>
      </trkpt>
      <trkpt lat="45.61385" lon="5.27313">
        <ele>221</ele>
        <time>2021-04-04T09:56:59.028Z</time>
      </trkpt>
      <trkpt lat="45.61388" lon="5.27319">
        <ele>220</ele>
        <time>2021-04-04T09:57:00.028Z</time>
      </trkpt>
      <trkpt lat="45.61391" lon="5.27325">
        <ele>220</ele>
        <time>2021-04-04T09:57:01.027Z</time>
      </trkpt>
      <trkpt lat="45.61393" lon="5.27331">
        <ele>220</ele>
        <time>2021-04-04T09:57:02.028Z</time>
      </trkpt>
      <trkpt lat="45.61395" lon="5.27337">
        <ele>221</ele>
        <time>2021-04-04T09:57:03.028Z</time>
      </trkpt>
      <trkpt lat="45.61397" lon="5.27343">
        <ele>221</ele>
        <time>2021-04-04T09:57:04.028Z</time>
      </trkpt>
      <trkpt lat="45.614" lon="5.27349">
        <ele>222</ele>
        <time>2021-04-04T09:57:05.028Z</time>
      </trkpt>
      <trkpt lat="45.61402" lon="5.27355">
        <ele>222</ele>
        <time>2021-04-04T09:57:06.027Z</time>
      </trkpt>
      <trkpt lat="45.61405" lon="5.27362">
        <ele>222</ele>
        <time>2021-04-04T09:57:07.027Z</time>
      </trkpt>
      <trkpt lat="45.61408" lon="5.2737">
        <ele>223</ele>
        <time>2021-04-04T09:57:08.027Z</time>
      </trkpt>
      <trkpt lat="45.6141" lon="5.27377">
        <ele>223</ele>
        <time>2021-04-04T09:57:09.028Z</time>
      </trkpt>
      <trkpt lat="45.61413" lon="5.27384">
        <ele>223</ele>
        <time>2021-04-04T09:57:10.028Z</time>
      </trkpt>
      <trkpt lat="45.61415" lon="5.27391">
        <ele>223</ele>
        <time>2021-04-04T09:57:11.028Z</time>
      </trkpt>
      <trkpt lat="45.61417" lon="5.27398">
        <ele>223</ele>
        <time>2021-04-04T09:57:12.028Z</time>
      </trkpt>
      <trkpt lat="45.61419" lon="5.27405">
        <ele>223</ele>
        <time>2021-04-04T09:57:13.028Z</time>
      </trkpt>
      <trkpt lat="45.61419" lon="5.27412">
        <ele>223</ele>
        <time>2021-04-04T09:57:14.028Z</time>
      </trkpt>
      <trkpt lat="45.61419" lon="5.27418">
        <ele>223</ele>
        <time>2021-04-04T09:57:15.027Z</time>
      </trkpt>
      <trkpt lat="45.61418" lon="5.27424">
        <ele>222</ele>
        <time>2021-04-04T09:57:16.028Z</time>
      </trkpt>
      <trkpt lat="45.61418" lon="5.27429">
        <ele>222</ele>
        <time>2021-04-04T09:57:17.028Z</time>
      </trkpt>
      <trkpt lat="45.61419" lon="5.27433">
        <ele>222</ele>
        <time>2021-04-04T09:57:18.028Z</time>
      </trkpt>
      <trkpt lat="45.6142" lon="5.27436">
        <ele>222</ele>
        <time>2021-04-04T09:57:19.027Z</time>
      </trkpt>
      <trkpt lat="45.61423" lon="5.27439">
        <ele>223</ele>
        <time>2021-04-04T09:57:20.028Z</time>
      </trkpt>
      <trkpt lat="45.61426" lon="5.27443">
        <ele>224</ele>
        <time>2021-04-04T09:57:21.027Z</time>
      </trkpt>
      <trkpt lat="45.61429" lon="5.27445">
        <ele>224</ele>
        <time>2021-04-04T09:57:22.028Z</time>
      </trkpt>
      <trkpt lat="45.61433" lon="5.27446">
        <ele>224</ele>
        <time>2021-04-04T09:57:23.027Z</time>
      </trkpt>
      <trkpt lat="45.61437" lon="5.27447">
        <ele>224</ele>
        <time>2021-04-04T09:57:24.028Z</time>
      </trkpt>
      <trkpt lat="45.61441" lon="5.27448">
        <ele>225</ele>
        <time>2021-04-04T09:57:25.028Z</time>
      </trkpt>
      <trkpt lat="45.61447" lon="5.27451">
        <ele>225</ele>
        <time>2021-04-04T09:57:26.028Z</time>
      </trkpt>
      <trkpt lat="45.61452" lon="5.27453">
        <ele>225</ele>
        <time>2021-04-04T09:57:27.027Z</time>
      </trkpt>
      <trkpt lat="45.61456" lon="5.27455">
        <ele>225</ele>
        <time>2021-04-04T09:57:28.028Z</time>
      </trkpt>
      <trkpt lat="45.6146" lon="5.27457">
        <ele>225</ele>
        <time>2021-04-04T09:57:29.028Z</time>
      </trkpt>
      <trkpt lat="45.61464" lon="5.27458">
        <ele>225</ele>
        <time>2021-04-04T09:57:30.027Z</time>
      </trkpt>
      <trkpt lat="45.6147" lon="5.2746">
        <ele>224</ele>
        <time>2021-04-04T09:57:31.027Z</time>
      </trkpt>
      <trkpt lat="45.61474" lon="5.27461">
        <ele>224</ele>
        <time>2021-04-04T09:57:32.028Z</time>
      </trkpt>
      <trkpt lat="45.61477" lon="5.27462">
        <ele>223</ele>
        <time>2021-04-04T09:57:33.028Z</time>
      </trkpt>
      <trkpt lat="45.61481" lon="5.27464">
        <ele>223</ele>
        <time>2021-04-04T09:57:34.027Z</time>
      </trkpt>
    </trkseg>
  </trk>
</gpx>